<?xml version="1.0" encoding="UTF-8" standalone="no" ?>
<gpx xmlns="http://www.topografix.com/GPX/1/1" xmlns:xsi="http://www.w3.org/2001/XMLSchema-instance" xsi:schemaLocation="http://www.topografix.com/GPX/1/1 http://www.topografix.com/GPX/1/1/gpx.xsd" version="1.1" creator="VisuGPX - https://www.visugpx.com">
  <metadata>
    <name>Lac des Blanchets</name>
    <desc><![CDATA[Départ télécabine roche Lui. Belle Plagne]]></desc>
  </metadata>
  <trk>
    <name><![CDATA[Lac des Blanchets_1]]></name>
    <trkseg>
      <trkpt lat="45.50803" lon="6.7061">
        <ele>2057.6</ele>
        <time>2021-08-15T08:25:39Z</time>
      </trkpt>
      <trkpt lat="45.50804" lon="6.7061">
        <ele>2057.5</ele>
        <time>2021-08-15T08:25:40Z</time>
      </trkpt>
      <trkpt lat="45.50805" lon="6.7061">
        <ele>2057.5</ele>
        <time>2021-08-15T08:25:41Z</time>
      </trkpt>
      <trkpt lat="45.50806" lon="6.7061">
        <ele>2057.4</ele>
        <time>2021-08-15T08:25:42Z</time>
      </trkpt>
      <trkpt lat="45.50807" lon="6.7061">
        <ele>2057.3</ele>
        <time>2021-08-15T08:25:43Z</time>
      </trkpt>
      <trkpt lat="45.50808" lon="6.7061">
        <ele>2057.3</ele>
        <time>2021-08-15T08:25:44Z</time>
      </trkpt>
      <trkpt lat="45.50809" lon="6.70609">
        <ele>2057.2</ele>
        <time>2021-08-15T08:25:45Z</time>
      </trkpt>
      <trkpt lat="45.5081" lon="6.70609">
        <ele>2057.2</ele>
        <time>2021-08-15T08:25:46Z</time>
      </trkpt>
      <trkpt lat="45.50811" lon="6.70608">
        <ele>2057.1</ele>
        <time>2021-08-15T08:25:47Z</time>
      </trkpt>
      <trkpt lat="45.50812" lon="6.70608">
        <ele>2057</ele>
        <time>2021-08-15T08:25:48Z</time>
      </trkpt>
      <trkpt lat="45.50812" lon="6.70607">
        <ele>2057</ele>
        <time>2021-08-15T08:25:49Z</time>
      </trkpt>
      <trkpt lat="45.50813" lon="6.70607">
        <ele>2056.9</ele>
        <time>2021-08-15T08:25:50Z</time>
      </trkpt>
      <trkpt lat="45.50814" lon="6.70606">
        <ele>2056.8</ele>
        <time>2021-08-15T08:25:51Z</time>
      </trkpt>
      <trkpt lat="45.50815" lon="6.70605">
        <ele>2056.8</ele>
        <time>2021-08-15T08:25:52Z</time>
      </trkpt>
      <trkpt lat="45.50816" lon="6.70605">
        <ele>2056.7</ele>
        <time>2021-08-15T08:25:53Z</time>
      </trkpt>
      <trkpt lat="45.50817" lon="6.70604">
        <ele>2056.6</ele>
        <time>2021-08-15T08:25:54Z</time>
      </trkpt>
      <trkpt lat="45.50818" lon="6.70604">
        <ele>2056.6</ele>
        <time>2021-08-15T08:25:55Z</time>
      </trkpt>
      <trkpt lat="45.50819" lon="6.70603">
        <ele>2056.5</ele>
        <time>2021-08-15T08:25:56Z</time>
      </trkpt>
      <trkpt lat="45.5082" lon="6.70602">
        <ele>2056.4</ele>
        <time>2021-08-15T08:25:57Z</time>
      </trkpt>
      <trkpt lat="45.50821" lon="6.70602">
        <ele>2056.4</ele>
        <time>2021-08-15T08:25:58Z</time>
      </trkpt>
      <trkpt lat="45.50822" lon="6.70602">
        <ele>2056.3</ele>
        <time>2021-08-15T08:25:59Z</time>
      </trkpt>
      <trkpt lat="45.50823" lon="6.70601">
        <ele>2056.2</ele>
        <time>2021-08-15T08:26:00Z</time>
      </trkpt>
      <trkpt lat="45.50824" lon="6.70601">
        <ele>2056.2</ele>
        <time>2021-08-15T08:26:01Z</time>
      </trkpt>
      <trkpt lat="45.50825" lon="6.70601">
        <ele>2056.1</ele>
        <time>2021-08-15T08:26:02Z</time>
      </trkpt>
      <trkpt lat="45.50826" lon="6.70601">
        <ele>2056</ele>
        <time>2021-08-15T08:26:03Z</time>
      </trkpt>
      <trkpt lat="45.50827" lon="6.70601">
        <ele>2056</ele>
        <time>2021-08-15T08:26:04Z</time>
      </trkpt>
      <trkpt lat="45.50828" lon="6.70601">
        <ele>2055.9</ele>
        <time>2021-08-15T08:26:05Z</time>
      </trkpt>
      <trkpt lat="45.50829" lon="6.70601">
        <ele>2055.9</ele>
        <time>2021-08-15T08:26:06Z</time>
      </trkpt>
      <trkpt lat="45.5083" lon="6.70602">
        <ele>2055.8</ele>
        <time>2021-08-15T08:26:07Z</time>
      </trkpt>
      <trkpt lat="45.50831" lon="6.70602">
        <ele>2055.7</ele>
        <time>2021-08-15T08:26:08Z</time>
      </trkpt>
      <trkpt lat="45.50832" lon="6.70603">
        <ele>2055.6</ele>
        <time>2021-08-15T08:26:09Z</time>
      </trkpt>
      <trkpt lat="45.50833" lon="6.70604">
        <ele>2055.6</ele>
        <time>2021-08-15T08:26:10Z</time>
      </trkpt>
      <trkpt lat="45.50834" lon="6.70605">
        <ele>2055.5</ele>
        <time>2021-08-15T08:26:11Z</time>
      </trkpt>
      <trkpt lat="45.50835" lon="6.70606">
        <ele>2055.4</ele>
        <time>2021-08-15T08:26:12Z</time>
      </trkpt>
      <trkpt lat="45.50836" lon="6.70608">
        <ele>2055.3</ele>
        <time>2021-08-15T08:26:13Z</time>
      </trkpt>
      <trkpt lat="45.50836" lon="6.70609">
        <ele>2055.3</ele>
        <time>2021-08-15T08:26:14Z</time>
      </trkpt>
      <trkpt lat="45.50837" lon="6.7061">
        <ele>2055.2</ele>
        <time>2021-08-15T08:26:15Z</time>
      </trkpt>
      <trkpt lat="45.50837" lon="6.70612">
        <ele>2055.1</ele>
        <time>2021-08-15T08:26:16Z</time>
      </trkpt>
      <trkpt lat="45.50838" lon="6.70613">
        <ele>2055.1</ele>
        <time>2021-08-15T08:26:17Z</time>
      </trkpt>
      <trkpt lat="45.50838" lon="6.70614">
        <ele>2055.2</ele>
        <time>2021-08-15T08:26:18Z</time>
      </trkpt>
      <trkpt lat="45.50838" lon="6.70616">
        <ele>2055.2</ele>
        <time>2021-08-15T08:26:19Z</time>
      </trkpt>
      <trkpt lat="45.50837" lon="6.70617">
        <ele>2055.3</ele>
        <time>2021-08-15T08:26:20Z</time>
      </trkpt>
      <trkpt lat="45.50837" lon="6.70618">
        <ele>2055.4</ele>
        <time>2021-08-15T08:26:21Z</time>
      </trkpt>
      <trkpt lat="45.50836" lon="6.70619">
        <ele>2055.5</ele>
        <time>2021-08-15T08:26:22Z</time>
      </trkpt>
      <trkpt lat="45.50835" lon="6.70619">
        <ele>2055.6</ele>
        <time>2021-08-15T08:26:23Z</time>
      </trkpt>
      <trkpt lat="45.50834" lon="6.7062">
        <ele>2055.7</ele>
        <time>2021-08-15T08:26:24Z</time>
      </trkpt>
      <trkpt lat="45.50833" lon="6.70621">
        <ele>2055.8</ele>
        <time>2021-08-15T08:26:25Z</time>
      </trkpt>
      <trkpt lat="45.50832" lon="6.70621">
        <ele>2055.9</ele>
        <time>2021-08-15T08:26:26Z</time>
      </trkpt>
      <trkpt lat="45.5083" lon="6.70622">
        <ele>2056</ele>
        <time>2021-08-15T08:26:27Z</time>
      </trkpt>
      <trkpt lat="45.50829" lon="6.70622">
        <ele>2056.1</ele>
        <time>2021-08-15T08:26:28Z</time>
      </trkpt>
      <trkpt lat="45.50828" lon="6.70623">
        <ele>2056.2</ele>
        <time>2021-08-15T08:26:29Z</time>
      </trkpt>
      <trkpt lat="45.50827" lon="6.70623">
        <ele>2056.3</ele>
        <time>2021-08-15T08:26:30Z</time>
      </trkpt>
      <trkpt lat="45.50826" lon="6.70624">
        <ele>2056.4</ele>
        <time>2021-08-15T08:26:31Z</time>
      </trkpt>
      <trkpt lat="45.50825" lon="6.70624">
        <ele>2056.5</ele>
        <time>2021-08-15T08:26:32Z</time>
      </trkpt>
      <trkpt lat="45.50824" lon="6.70625">
        <ele>2056.6</ele>
        <time>2021-08-15T08:26:33Z</time>
      </trkpt>
      <trkpt lat="45.50823" lon="6.70625">
        <ele>2056.7</ele>
        <time>2021-08-15T08:26:34Z</time>
      </trkpt>
      <trkpt lat="45.50823" lon="6.70626">
        <ele>2056.7</ele>
        <time>2021-08-15T08:26:35Z</time>
      </trkpt>
      <trkpt lat="45.50822" lon="6.70626">
        <ele>2056.8</ele>
        <time>2021-08-15T08:26:36Z</time>
      </trkpt>
      <trkpt lat="45.50821" lon="6.70627">
        <ele>2056.9</ele>
        <time>2021-08-15T08:26:37Z</time>
      </trkpt>
      <trkpt lat="45.5082" lon="6.70627">
        <ele>2057</ele>
        <time>2021-08-15T08:26:38Z</time>
      </trkpt>
      <trkpt lat="45.50819" lon="6.70628">
        <ele>2057.1</ele>
        <time>2021-08-15T08:26:39Z</time>
      </trkpt>
      <trkpt lat="45.50818" lon="6.70629">
        <ele>2057.2</ele>
        <time>2021-08-15T08:26:40Z</time>
      </trkpt>
      <trkpt lat="45.50817" lon="6.70629">
        <ele>2057.3</ele>
        <time>2021-08-15T08:26:41Z</time>
      </trkpt>
      <trkpt lat="45.50816" lon="6.7063">
        <ele>2057.4</ele>
        <time>2021-08-15T08:26:42Z</time>
      </trkpt>
      <trkpt lat="45.50815" lon="6.70631">
        <ele>2057.5</ele>
        <time>2021-08-15T08:26:43Z</time>
      </trkpt>
      <trkpt lat="45.50814" lon="6.70632">
        <ele>2057.6</ele>
        <time>2021-08-15T08:26:44Z</time>
      </trkpt>
      <trkpt lat="45.50813" lon="6.70633">
        <ele>2057.7</ele>
        <time>2021-08-15T08:26:45Z</time>
      </trkpt>
      <trkpt lat="45.50812" lon="6.70633">
        <ele>2057.8</ele>
        <time>2021-08-15T08:26:46Z</time>
      </trkpt>
      <trkpt lat="45.5081" lon="6.70634">
        <ele>2057.9</ele>
        <time>2021-08-15T08:26:47Z</time>
      </trkpt>
      <trkpt lat="45.50809" lon="6.70635">
        <ele>2058</ele>
        <time>2021-08-15T08:26:48Z</time>
      </trkpt>
      <trkpt lat="45.50809" lon="6.70636">
        <ele>2058.1</ele>
        <time>2021-08-15T08:26:49Z</time>
      </trkpt>
      <trkpt lat="45.50808" lon="6.70637">
        <ele>2058.2</ele>
        <time>2021-08-15T08:26:50Z</time>
      </trkpt>
      <trkpt lat="45.50807" lon="6.70638">
        <ele>2058.3</ele>
        <time>2021-08-15T08:26:51Z</time>
      </trkpt>
      <trkpt lat="45.50806" lon="6.70639">
        <ele>2058.4</ele>
        <time>2021-08-15T08:26:52Z</time>
      </trkpt>
      <trkpt lat="45.50805" lon="6.7064">
        <ele>2058.4</ele>
        <time>2021-08-15T08:26:53Z</time>
      </trkpt>
      <trkpt lat="45.50804" lon="6.70641">
        <ele>2058.5</ele>
        <time>2021-08-15T08:26:54Z</time>
      </trkpt>
      <trkpt lat="45.50804" lon="6.70641">
        <ele>2058.6</ele>
        <time>2021-08-15T08:26:55Z</time>
      </trkpt>
      <trkpt lat="45.50803" lon="6.70642">
        <ele>2058.7</ele>
        <time>2021-08-15T08:26:56Z</time>
      </trkpt>
      <trkpt lat="45.50802" lon="6.70643">
        <ele>2058.8</ele>
        <time>2021-08-15T08:26:57Z</time>
      </trkpt>
      <trkpt lat="45.50801" lon="6.70644">
        <ele>2058.8</ele>
        <time>2021-08-15T08:26:58Z</time>
      </trkpt>
      <trkpt lat="45.50801" lon="6.70645">
        <ele>2058.9</ele>
        <time>2021-08-15T08:26:59Z</time>
      </trkpt>
      <trkpt lat="45.508" lon="6.70646">
        <ele>2059</ele>
        <time>2021-08-15T08:27:00Z</time>
      </trkpt>
      <trkpt lat="45.50799" lon="6.70647">
        <ele>2059.1</ele>
        <time>2021-08-15T08:27:01Z</time>
      </trkpt>
      <trkpt lat="45.50798" lon="6.70648">
        <ele>2059.2</ele>
        <time>2021-08-15T08:27:02Z</time>
      </trkpt>
      <trkpt lat="45.50798" lon="6.70648">
        <ele>2059.2</ele>
        <time>2021-08-15T08:27:03Z</time>
      </trkpt>
      <trkpt lat="45.50797" lon="6.70649">
        <ele>2059.3</ele>
        <time>2021-08-15T08:27:04Z</time>
      </trkpt>
      <trkpt lat="45.50796" lon="6.7065">
        <ele>2059.4</ele>
        <time>2021-08-15T08:27:05Z</time>
      </trkpt>
      <trkpt lat="45.50795" lon="6.70651">
        <ele>2059.5</ele>
        <time>2021-08-15T08:27:06Z</time>
      </trkpt>
      <trkpt lat="45.50794" lon="6.70652">
        <ele>2059.6</ele>
        <time>2021-08-15T08:27:07Z</time>
      </trkpt>
      <trkpt lat="45.50794" lon="6.70653">
        <ele>2059.6</ele>
        <time>2021-08-15T08:27:08Z</time>
      </trkpt>
      <trkpt lat="45.50793" lon="6.70654">
        <ele>2059.7</ele>
        <time>2021-08-15T08:27:09Z</time>
      </trkpt>
      <trkpt lat="45.50792" lon="6.70655">
        <ele>2059.8</ele>
        <time>2021-08-15T08:27:10Z</time>
      </trkpt>
      <trkpt lat="45.50791" lon="6.70655">
        <ele>2059.9</ele>
        <time>2021-08-15T08:27:11Z</time>
      </trkpt>
      <trkpt lat="45.50791" lon="6.70656">
        <ele>2060</ele>
        <time>2021-08-15T08:27:12Z</time>
      </trkpt>
      <trkpt lat="45.5079" lon="6.70657">
        <ele>2060</ele>
        <time>2021-08-15T08:27:13Z</time>
      </trkpt>
      <trkpt lat="45.50789" lon="6.70658">
        <ele>2060.1</ele>
        <time>2021-08-15T08:27:14Z</time>
      </trkpt>
      <trkpt lat="45.50788" lon="6.70659">
        <ele>2060.2</ele>
        <time>2021-08-15T08:27:15Z</time>
      </trkpt>
      <trkpt lat="45.50788" lon="6.70659">
        <ele>2060.2</ele>
        <time>2021-08-15T08:27:16Z</time>
      </trkpt>
      <trkpt lat="45.50787" lon="6.7066">
        <ele>2060.3</ele>
        <time>2021-08-15T08:27:17Z</time>
      </trkpt>
      <trkpt lat="45.50786" lon="6.70661">
        <ele>2060.4</ele>
        <time>2021-08-15T08:27:18Z</time>
      </trkpt>
      <trkpt lat="45.50786" lon="6.70661">
        <ele>2060.4</ele>
        <time>2021-08-15T08:27:19Z</time>
      </trkpt>
      <trkpt lat="45.50785" lon="6.70662">
        <ele>2060.5</ele>
        <time>2021-08-15T08:27:20Z</time>
      </trkpt>
      <trkpt lat="45.50785" lon="6.70663">
        <ele>2060.6</ele>
        <time>2021-08-15T08:27:21Z</time>
      </trkpt>
      <trkpt lat="45.50784" lon="6.70664">
        <ele>2060.6</ele>
        <time>2021-08-15T08:27:22Z</time>
      </trkpt>
      <trkpt lat="45.50783" lon="6.70664">
        <ele>2060.7</ele>
        <time>2021-08-15T08:27:23Z</time>
      </trkpt>
      <trkpt lat="45.50783" lon="6.70665">
        <ele>2060.8</ele>
        <time>2021-08-15T08:27:24Z</time>
      </trkpt>
      <trkpt lat="45.50782" lon="6.70666">
        <ele>2060.8</ele>
        <time>2021-08-15T08:27:25Z</time>
      </trkpt>
      <trkpt lat="45.50782" lon="6.70667">
        <ele>2060.9</ele>
        <time>2021-08-15T08:27:26Z</time>
      </trkpt>
      <trkpt lat="45.50781" lon="6.70667">
        <ele>2061</ele>
        <time>2021-08-15T08:27:27Z</time>
      </trkpt>
      <trkpt lat="45.5078" lon="6.70668">
        <ele>2061</ele>
        <time>2021-08-15T08:27:28Z</time>
      </trkpt>
      <trkpt lat="45.5078" lon="6.70669">
        <ele>2061.1</ele>
        <time>2021-08-15T08:27:29Z</time>
      </trkpt>
      <trkpt lat="45.50779" lon="6.70671">
        <ele>2061.2</ele>
        <time>2021-08-15T08:27:30Z</time>
      </trkpt>
      <trkpt lat="45.50778" lon="6.70672">
        <ele>2061.3</ele>
        <time>2021-08-15T08:27:31Z</time>
      </trkpt>
      <trkpt lat="45.50777" lon="6.70673">
        <ele>2061.4</ele>
        <time>2021-08-15T08:27:32Z</time>
      </trkpt>
      <trkpt lat="45.50776" lon="6.70674">
        <ele>2061.5</ele>
        <time>2021-08-15T08:27:33Z</time>
      </trkpt>
      <trkpt lat="45.50776" lon="6.70675">
        <ele>2061.6</ele>
        <time>2021-08-15T08:27:34Z</time>
      </trkpt>
      <trkpt lat="45.50775" lon="6.70676">
        <ele>2061.7</ele>
        <time>2021-08-15T08:27:35Z</time>
      </trkpt>
      <trkpt lat="45.50774" lon="6.70677">
        <ele>2061.8</ele>
        <time>2021-08-15T08:27:36Z</time>
      </trkpt>
      <trkpt lat="45.50773" lon="6.70679">
        <ele>2061.9</ele>
        <time>2021-08-15T08:27:37Z</time>
      </trkpt>
      <trkpt lat="45.50772" lon="6.7068">
        <ele>2062</ele>
        <time>2021-08-15T08:27:38Z</time>
      </trkpt>
      <trkpt lat="45.50771" lon="6.70681">
        <ele>2062.1</ele>
        <time>2021-08-15T08:27:39Z</time>
      </trkpt>
      <trkpt lat="45.5077" lon="6.70681">
        <ele>2062.2</ele>
        <time>2021-08-15T08:27:40Z</time>
      </trkpt>
      <trkpt lat="45.50769" lon="6.70682">
        <ele>2062.2</ele>
        <time>2021-08-15T08:27:41Z</time>
      </trkpt>
      <trkpt lat="45.50768" lon="6.70683">
        <ele>2062.3</ele>
        <time>2021-08-15T08:27:42Z</time>
      </trkpt>
      <trkpt lat="45.50767" lon="6.70684">
        <ele>2062.4</ele>
        <time>2021-08-15T08:27:43Z</time>
      </trkpt>
      <trkpt lat="45.50766" lon="6.70685">
        <ele>2062.5</ele>
        <time>2021-08-15T08:27:44Z</time>
      </trkpt>
      <trkpt lat="45.50766" lon="6.70686">
        <ele>2062.6</ele>
        <time>2021-08-15T08:27:45Z</time>
      </trkpt>
      <trkpt lat="45.50765" lon="6.70686">
        <ele>2062.7</ele>
        <time>2021-08-15T08:27:46Z</time>
      </trkpt>
      <trkpt lat="45.50764" lon="6.70687">
        <ele>2062.8</ele>
        <time>2021-08-15T08:27:47Z</time>
      </trkpt>
      <trkpt lat="45.50763" lon="6.70688">
        <ele>2062.8</ele>
        <time>2021-08-15T08:27:48Z</time>
      </trkpt>
      <trkpt lat="45.50763" lon="6.70689">
        <ele>2062.9</ele>
        <time>2021-08-15T08:27:49Z</time>
      </trkpt>
      <trkpt lat="45.50762" lon="6.7069">
        <ele>2063</ele>
        <time>2021-08-15T08:27:50Z</time>
      </trkpt>
      <trkpt lat="45.50762" lon="6.70691">
        <ele>2063</ele>
        <time>2021-08-15T08:27:51Z</time>
      </trkpt>
      <trkpt lat="45.50762" lon="6.70693">
        <ele>2063.1</ele>
        <time>2021-08-15T08:27:52Z</time>
      </trkpt>
      <trkpt lat="45.50761" lon="6.70694">
        <ele>2063.2</ele>
        <time>2021-08-15T08:27:53Z</time>
      </trkpt>
      <trkpt lat="45.50761" lon="6.70695">
        <ele>2063.3</ele>
        <time>2021-08-15T08:27:54Z</time>
      </trkpt>
      <trkpt lat="45.5076" lon="6.70697">
        <ele>2063.4</ele>
        <time>2021-08-15T08:27:55Z</time>
      </trkpt>
      <trkpt lat="45.5076" lon="6.70698">
        <ele>2063.5</ele>
        <time>2021-08-15T08:27:56Z</time>
      </trkpt>
      <trkpt lat="45.50759" lon="6.707">
        <ele>2063.5</ele>
        <time>2021-08-15T08:27:57Z</time>
      </trkpt>
      <trkpt lat="45.50759" lon="6.70701">
        <ele>2063.6</ele>
        <time>2021-08-15T08:27:58Z</time>
      </trkpt>
      <trkpt lat="45.50758" lon="6.70703">
        <ele>2063.7</ele>
        <time>2021-08-15T08:27:59Z</time>
      </trkpt>
      <trkpt lat="45.50758" lon="6.70704">
        <ele>2063.8</ele>
        <time>2021-08-15T08:28:00Z</time>
      </trkpt>
      <trkpt lat="45.50757" lon="6.70706">
        <ele>2063.9</ele>
        <time>2021-08-15T08:28:01Z</time>
      </trkpt>
      <trkpt lat="45.50757" lon="6.70707">
        <ele>2064</ele>
        <time>2021-08-15T08:28:02Z</time>
      </trkpt>
      <trkpt lat="45.50756" lon="6.70708">
        <ele>2064.1</ele>
        <time>2021-08-15T08:28:03Z</time>
      </trkpt>
      <trkpt lat="45.50755" lon="6.7071">
        <ele>2064.2</ele>
        <time>2021-08-15T08:28:04Z</time>
      </trkpt>
      <trkpt lat="45.50755" lon="6.70711">
        <ele>2064.2</ele>
        <time>2021-08-15T08:28:05Z</time>
      </trkpt>
      <trkpt lat="45.50755" lon="6.70712">
        <ele>2064.3</ele>
        <time>2021-08-15T08:28:06Z</time>
      </trkpt>
      <trkpt lat="45.50754" lon="6.70713">
        <ele>2064.4</ele>
        <time>2021-08-15T08:28:07Z</time>
      </trkpt>
      <trkpt lat="45.50754" lon="6.70714">
        <ele>2064.4</ele>
        <time>2021-08-15T08:28:08Z</time>
      </trkpt>
      <trkpt lat="45.50754" lon="6.70715">
        <ele>2064.5</ele>
        <time>2021-08-15T08:28:09Z</time>
      </trkpt>
      <trkpt lat="45.50754" lon="6.70716">
        <ele>2064.5</ele>
        <time>2021-08-15T08:28:10Z</time>
      </trkpt>
      <trkpt lat="45.50754" lon="6.70717">
        <ele>2064.5</ele>
        <time>2021-08-15T08:28:11Z</time>
      </trkpt>
      <trkpt lat="45.50754" lon="6.70717">
        <ele>2064.6</ele>
        <time>2021-08-15T08:28:12Z</time>
      </trkpt>
      <trkpt lat="45.50754" lon="6.70718">
        <ele>2064.6</ele>
        <time>2021-08-15T08:28:13Z</time>
      </trkpt>
      <trkpt lat="45.50754" lon="6.70718">
        <ele>2064.6</ele>
        <time>2021-08-15T08:28:14Z</time>
      </trkpt>
      <trkpt lat="45.50754" lon="6.70719">
        <ele>2064.7</ele>
        <time>2021-08-15T08:28:15Z</time>
      </trkpt>
      <trkpt lat="45.50754" lon="6.70719">
        <ele>2064.7</ele>
        <time>2021-08-15T08:28:16Z</time>
      </trkpt>
      <trkpt lat="45.50754" lon="6.70719">
        <ele>2064.7</ele>
        <time>2021-08-15T08:28:17Z</time>
      </trkpt>
      <trkpt lat="45.50754" lon="6.70719">
        <ele>2064.8</ele>
        <time>2021-08-15T08:28:18Z</time>
      </trkpt>
      <trkpt lat="45.50754" lon="6.7072">
        <ele>2064.8</ele>
        <time>2021-08-15T08:28:19Z</time>
      </trkpt>
      <trkpt lat="45.50754" lon="6.7072">
        <ele>2065.3</ele>
        <time>2021-08-15T08:28:20Z</time>
      </trkpt>
      <trkpt lat="45.50754" lon="6.7072">
        <ele>2065.4</ele>
        <time>2021-08-15T08:28:21Z</time>
      </trkpt>
      <trkpt lat="45.50754" lon="6.7072">
        <ele>2065.4</ele>
        <time>2021-08-15T08:28:22Z</time>
      </trkpt>
      <trkpt lat="45.50754" lon="6.7072">
        <ele>2065.4</ele>
        <time>2021-08-15T08:28:23Z</time>
      </trkpt>
      <trkpt lat="45.50754" lon="6.7072">
        <ele>2065.5</ele>
        <time>2021-08-15T08:28:24Z</time>
      </trkpt>
      <trkpt lat="45.50754" lon="6.7072">
        <ele>2065.5</ele>
        <time>2021-08-15T08:28:25Z</time>
      </trkpt>
      <trkpt lat="45.50754" lon="6.7072">
        <ele>2065.6</ele>
        <time>2021-08-15T08:28:26Z</time>
      </trkpt>
      <trkpt lat="45.50754" lon="6.7072">
        <ele>2065.6</ele>
        <time>2021-08-15T08:28:27Z</time>
      </trkpt>
      <trkpt lat="45.50754" lon="6.7072">
        <ele>2065.6</ele>
        <time>2021-08-15T08:28:28Z</time>
      </trkpt>
      <trkpt lat="45.50753" lon="6.7072">
        <ele>2065.7</ele>
        <time>2021-08-15T08:28:29Z</time>
      </trkpt>
      <trkpt lat="45.50753" lon="6.7072">
        <ele>2065.7</ele>
        <time>2021-08-15T08:28:30Z</time>
      </trkpt>
      <trkpt lat="45.50752" lon="6.7072">
        <ele>2065.3</ele>
        <time>2021-08-15T08:28:31Z</time>
      </trkpt>
      <trkpt lat="45.50751" lon="6.70719">
        <ele>2064.9</ele>
        <time>2021-08-15T08:28:32Z</time>
      </trkpt>
      <trkpt lat="45.5075" lon="6.70719">
        <ele>2065</ele>
        <time>2021-08-15T08:28:33Z</time>
      </trkpt>
      <trkpt lat="45.50749" lon="6.70718">
        <ele>2064.6</ele>
        <time>2021-08-15T08:28:34Z</time>
      </trkpt>
      <trkpt lat="45.50748" lon="6.70718">
        <ele>2064.7</ele>
        <time>2021-08-15T08:28:35Z</time>
      </trkpt>
      <trkpt lat="45.50748" lon="6.70717">
        <ele>2064.7</ele>
        <time>2021-08-15T08:28:36Z</time>
      </trkpt>
      <trkpt lat="45.50748" lon="6.70717">
        <ele>2064.7</ele>
        <time>2021-08-15T08:28:37Z</time>
      </trkpt>
      <trkpt lat="45.50747" lon="6.70717">
        <ele>2064.8</ele>
        <time>2021-08-15T08:28:38Z</time>
      </trkpt>
      <trkpt lat="45.50747" lon="6.70717">
        <ele>2064.8</ele>
        <time>2021-08-15T08:28:39Z</time>
      </trkpt>
      <trkpt lat="45.50747" lon="6.70716">
        <ele>2064.8</ele>
        <time>2021-08-15T08:28:40Z</time>
      </trkpt>
      <trkpt lat="45.50747" lon="6.70716">
        <ele>2064.9</ele>
        <time>2021-08-15T08:28:41Z</time>
      </trkpt>
      <trkpt lat="45.50747" lon="6.70716">
        <ele>2064.9</ele>
        <time>2021-08-15T08:28:42Z</time>
      </trkpt>
      <trkpt lat="45.50747" lon="6.70716">
        <ele>2064.9</ele>
        <time>2021-08-15T08:28:43Z</time>
      </trkpt>
      <trkpt lat="45.50747" lon="6.70716">
        <ele>2065</ele>
        <time>2021-08-15T08:28:44Z</time>
      </trkpt>
      <trkpt lat="45.50747" lon="6.70716">
        <ele>2065</ele>
        <time>2021-08-15T08:28:45Z</time>
      </trkpt>
      <trkpt lat="45.50747" lon="6.70716">
        <ele>2065.1</ele>
        <time>2021-08-15T08:28:46Z</time>
      </trkpt>
      <trkpt lat="45.50747" lon="6.70716">
        <ele>2065.1</ele>
        <time>2021-08-15T08:28:47Z</time>
      </trkpt>
      <trkpt lat="45.50747" lon="6.70716">
        <ele>2065.1</ele>
        <time>2021-08-15T08:28:48Z</time>
      </trkpt>
      <trkpt lat="45.50747" lon="6.70716">
        <ele>2065.2</ele>
        <time>2021-08-15T08:28:49Z</time>
      </trkpt>
      <trkpt lat="45.50747" lon="6.70716">
        <ele>2065.2</ele>
        <time>2021-08-15T08:28:50Z</time>
      </trkpt>
      <trkpt lat="45.50747" lon="6.70716">
        <ele>2065.2</ele>
        <time>2021-08-15T08:28:51Z</time>
      </trkpt>
      <trkpt lat="45.50746" lon="6.70716">
        <ele>2065.3</ele>
        <time>2021-08-15T08:28:52Z</time>
      </trkpt>
      <trkpt lat="45.50746" lon="6.70716">
        <ele>2065.3</ele>
        <time>2021-08-15T08:28:53Z</time>
      </trkpt>
      <trkpt lat="45.50746" lon="6.70716">
        <ele>2065.3</ele>
        <time>2021-08-15T08:28:54Z</time>
      </trkpt>
      <trkpt lat="45.50746" lon="6.70715">
        <ele>2064.6</ele>
        <time>2021-08-15T08:28:55Z</time>
      </trkpt>
      <trkpt lat="45.50745" lon="6.70715">
        <ele>2064.6</ele>
        <time>2021-08-15T08:28:56Z</time>
      </trkpt>
      <trkpt lat="45.50745" lon="6.70715">
        <ele>2064.6</ele>
        <time>2021-08-15T08:28:57Z</time>
      </trkpt>
      <trkpt lat="45.50745" lon="6.70714">
        <ele>2064.7</ele>
        <time>2021-08-15T08:28:58Z</time>
      </trkpt>
      <trkpt lat="45.50744" lon="6.70713">
        <ele>2064.7</ele>
        <time>2021-08-15T08:28:59Z</time>
      </trkpt>
      <trkpt lat="45.50744" lon="6.70713">
        <ele>2064.7</ele>
        <time>2021-08-15T08:29:00Z</time>
      </trkpt>
      <trkpt lat="45.50743" lon="6.70712">
        <ele>2064.8</ele>
        <time>2021-08-15T08:29:01Z</time>
      </trkpt>
      <trkpt lat="45.50743" lon="6.70711">
        <ele>2064.8</ele>
        <time>2021-08-15T08:29:02Z</time>
      </trkpt>
      <trkpt lat="45.50743" lon="6.7071">
        <ele>2064.4</ele>
        <time>2021-08-15T08:29:03Z</time>
      </trkpt>
      <trkpt lat="45.50743" lon="6.7071">
        <ele>2064.1</ele>
        <time>2021-08-15T08:29:04Z</time>
      </trkpt>
      <trkpt lat="45.50743" lon="6.70709">
        <ele>2064.1</ele>
        <time>2021-08-15T08:29:05Z</time>
      </trkpt>
      <trkpt lat="45.50743" lon="6.70708">
        <ele>2064.1</ele>
        <time>2021-08-15T08:29:06Z</time>
      </trkpt>
      <trkpt lat="45.50742" lon="6.70707">
        <ele>2064.2</ele>
        <time>2021-08-15T08:29:07Z</time>
      </trkpt>
      <trkpt lat="45.50742" lon="6.70707">
        <ele>2063.7</ele>
        <time>2021-08-15T08:29:08Z</time>
      </trkpt>
      <trkpt lat="45.50742" lon="6.70706">
        <ele>2063.7</ele>
        <time>2021-08-15T08:29:09Z</time>
      </trkpt>
      <trkpt lat="45.50742" lon="6.70706">
        <ele>2063.8</ele>
        <time>2021-08-15T08:29:10Z</time>
      </trkpt>
      <trkpt lat="45.50742" lon="6.70706">
        <ele>2063.8</ele>
        <time>2021-08-15T08:29:11Z</time>
      </trkpt>
      <trkpt lat="45.50742" lon="6.70706">
        <ele>2063.9</ele>
        <time>2021-08-15T08:29:12Z</time>
      </trkpt>
      <trkpt lat="45.50742" lon="6.70706">
        <ele>2063.9</ele>
        <time>2021-08-15T08:29:13Z</time>
      </trkpt>
      <trkpt lat="45.50742" lon="6.70706">
        <ele>2063.9</ele>
        <time>2021-08-15T08:29:14Z</time>
      </trkpt>
      <trkpt lat="45.50742" lon="6.70706">
        <ele>2064</ele>
        <time>2021-08-15T08:29:15Z</time>
      </trkpt>
      <trkpt lat="45.50742" lon="6.70707">
        <ele>2064</ele>
        <time>2021-08-15T08:29:16Z</time>
      </trkpt>
      <trkpt lat="45.50742" lon="6.70707">
        <ele>2064</ele>
        <time>2021-08-15T08:29:17Z</time>
      </trkpt>
      <trkpt lat="45.50742" lon="6.70707">
        <ele>2064.6</ele>
        <time>2021-08-15T08:29:18Z</time>
      </trkpt>
      <trkpt lat="45.50742" lon="6.70707">
        <ele>2064.6</ele>
        <time>2021-08-15T08:29:19Z</time>
      </trkpt>
      <trkpt lat="45.50742" lon="6.70707">
        <ele>2064.7</ele>
        <time>2021-08-15T08:29:20Z</time>
      </trkpt>
      <trkpt lat="45.50742" lon="6.70707">
        <ele>2064.7</ele>
        <time>2021-08-15T08:29:21Z</time>
      </trkpt>
      <trkpt lat="45.50742" lon="6.70708">
        <ele>2064.7</ele>
        <time>2021-08-15T08:29:22Z</time>
      </trkpt>
      <trkpt lat="45.50742" lon="6.70708">
        <ele>2064.8</ele>
        <time>2021-08-15T08:29:23Z</time>
      </trkpt>
      <trkpt lat="45.50742" lon="6.70708">
        <ele>2064.8</ele>
        <time>2021-08-15T08:29:24Z</time>
      </trkpt>
      <trkpt lat="45.50742" lon="6.70708">
        <ele>2064.8</ele>
        <time>2021-08-15T08:29:25Z</time>
      </trkpt>
      <trkpt lat="45.50742" lon="6.70708">
        <ele>2064.9</ele>
        <time>2021-08-15T08:29:26Z</time>
      </trkpt>
      <trkpt lat="45.50742" lon="6.70708">
        <ele>2064.9</ele>
        <time>2021-08-15T08:29:27Z</time>
      </trkpt>
      <trkpt lat="45.50742" lon="6.70708">
        <ele>2064.9</ele>
        <time>2021-08-15T08:29:28Z</time>
      </trkpt>
      <trkpt lat="45.50742" lon="6.70709">
        <ele>2065</ele>
        <time>2021-08-15T08:29:29Z</time>
      </trkpt>
      <trkpt lat="45.50742" lon="6.70709">
        <ele>2065</ele>
        <time>2021-08-15T08:29:30Z</time>
      </trkpt>
      <trkpt lat="45.50742" lon="6.70709">
        <ele>2065.1</ele>
        <time>2021-08-15T08:29:31Z</time>
      </trkpt>
      <trkpt lat="45.50742" lon="6.70709">
        <ele>2065.1</ele>
        <time>2021-08-15T08:29:32Z</time>
      </trkpt>
      <trkpt lat="45.50742" lon="6.70709">
        <ele>2065.1</ele>
        <time>2021-08-15T08:29:33Z</time>
      </trkpt>
      <trkpt lat="45.50742" lon="6.70709">
        <ele>2065.2</ele>
        <time>2021-08-15T08:29:34Z</time>
      </trkpt>
      <trkpt lat="45.50742" lon="6.7071">
        <ele>2065.2</ele>
        <time>2021-08-15T08:29:35Z</time>
      </trkpt>
      <trkpt lat="45.50742" lon="6.7071">
        <ele>2065.2</ele>
        <time>2021-08-15T08:29:36Z</time>
      </trkpt>
      <trkpt lat="45.50742" lon="6.7071">
        <ele>2065.3</ele>
        <time>2021-08-15T08:29:37Z</time>
      </trkpt>
      <trkpt lat="45.50742" lon="6.7071">
        <ele>2065.3</ele>
        <time>2021-08-15T08:29:38Z</time>
      </trkpt>
      <trkpt lat="45.50742" lon="6.7071">
        <ele>2065.3</ele>
        <time>2021-08-15T08:29:39Z</time>
      </trkpt>
      <trkpt lat="45.50742" lon="6.7071">
        <ele>2065.4</ele>
        <time>2021-08-15T08:29:40Z</time>
      </trkpt>
      <trkpt lat="45.50742" lon="6.70711">
        <ele>2065.4</ele>
        <time>2021-08-15T08:29:41Z</time>
      </trkpt>
      <trkpt lat="45.50742" lon="6.70711">
        <ele>2065.5</ele>
        <time>2021-08-15T08:29:42Z</time>
      </trkpt>
      <trkpt lat="45.50742" lon="6.70711">
        <ele>2065.5</ele>
        <time>2021-08-15T08:29:43Z</time>
      </trkpt>
      <trkpt lat="45.50742" lon="6.70711">
        <ele>2066</ele>
        <time>2021-08-15T08:29:44Z</time>
      </trkpt>
      <trkpt lat="45.50742" lon="6.70711">
        <ele>2066</ele>
        <time>2021-08-15T08:29:45Z</time>
      </trkpt>
      <trkpt lat="45.50742" lon="6.70711">
        <ele>2066.1</ele>
        <time>2021-08-15T08:29:46Z</time>
      </trkpt>
      <trkpt lat="45.50742" lon="6.70712">
        <ele>2066.1</ele>
        <time>2021-08-15T08:29:47Z</time>
      </trkpt>
      <trkpt lat="45.50742" lon="6.70712">
        <ele>2066.1</ele>
        <time>2021-08-15T08:29:48Z</time>
      </trkpt>
      <trkpt lat="45.50742" lon="6.70712">
        <ele>2066.2</ele>
        <time>2021-08-15T08:29:49Z</time>
      </trkpt>
      <trkpt lat="45.50742" lon="6.70712">
        <ele>2066.2</ele>
        <time>2021-08-15T08:29:50Z</time>
      </trkpt>
      <trkpt lat="45.50742" lon="6.70712">
        <ele>2066.2</ele>
        <time>2021-08-15T08:29:51Z</time>
      </trkpt>
      <trkpt lat="45.50742" lon="6.70712">
        <ele>2066.3</ele>
        <time>2021-08-15T08:29:52Z</time>
      </trkpt>
      <trkpt lat="45.50742" lon="6.70713">
        <ele>2066.3</ele>
        <time>2021-08-15T08:29:53Z</time>
      </trkpt>
      <trkpt lat="45.50742" lon="6.70713">
        <ele>2066.4</ele>
        <time>2021-08-15T08:29:54Z</time>
      </trkpt>
      <trkpt lat="45.50742" lon="6.70713">
        <ele>2066.4</ele>
        <time>2021-08-15T08:29:55Z</time>
      </trkpt>
      <trkpt lat="45.50742" lon="6.70713">
        <ele>2066.4</ele>
        <time>2021-08-15T08:29:56Z</time>
      </trkpt>
      <trkpt lat="45.50742" lon="6.70713">
        <ele>2066.5</ele>
        <time>2021-08-15T08:29:57Z</time>
      </trkpt>
      <trkpt lat="45.50742" lon="6.70713">
        <ele>2066.5</ele>
        <time>2021-08-15T08:29:58Z</time>
      </trkpt>
      <trkpt lat="45.50742" lon="6.70714">
        <ele>2066.5</ele>
        <time>2021-08-15T08:29:59Z</time>
      </trkpt>
      <trkpt lat="45.50742" lon="6.70714">
        <ele>2066.6</ele>
        <time>2021-08-15T08:30:00Z</time>
      </trkpt>
      <trkpt lat="45.50742" lon="6.70714">
        <ele>2066.6</ele>
        <time>2021-08-15T08:30:01Z</time>
      </trkpt>
      <trkpt lat="45.50742" lon="6.70714">
        <ele>2066.6</ele>
        <time>2021-08-15T08:30:02Z</time>
      </trkpt>
      <trkpt lat="45.50742" lon="6.70714">
        <ele>2066.7</ele>
        <time>2021-08-15T08:30:03Z</time>
      </trkpt>
      <trkpt lat="45.50742" lon="6.70714">
        <ele>2066.7</ele>
        <time>2021-08-15T08:30:04Z</time>
      </trkpt>
      <trkpt lat="45.50742" lon="6.70715">
        <ele>2066.8</ele>
        <time>2021-08-15T08:30:05Z</time>
      </trkpt>
      <trkpt lat="45.50742" lon="6.70715">
        <ele>2066.8</ele>
        <time>2021-08-15T08:30:06Z</time>
      </trkpt>
      <trkpt lat="45.50742" lon="6.70715">
        <ele>2066.8</ele>
        <time>2021-08-15T08:30:07Z</time>
      </trkpt>
      <trkpt lat="45.50742" lon="6.70715">
        <ele>2066.9</ele>
        <time>2021-08-15T08:30:08Z</time>
      </trkpt>
      <trkpt lat="45.50742" lon="6.70715">
        <ele>2066.9</ele>
        <time>2021-08-15T08:30:09Z</time>
      </trkpt>
      <trkpt lat="45.50742" lon="6.70715">
        <ele>2067.4</ele>
        <time>2021-08-15T08:30:10Z</time>
      </trkpt>
      <trkpt lat="45.50742" lon="6.70716">
        <ele>2067.4</ele>
        <time>2021-08-15T08:30:11Z</time>
      </trkpt>
      <trkpt lat="45.50742" lon="6.70716">
        <ele>2067.5</ele>
        <time>2021-08-15T08:30:12Z</time>
      </trkpt>
      <trkpt lat="45.50742" lon="6.70716">
        <ele>2067.5</ele>
        <time>2021-08-15T08:30:13Z</time>
      </trkpt>
      <trkpt lat="45.50742" lon="6.70716">
        <ele>2067.5</ele>
        <time>2021-08-15T08:30:14Z</time>
      </trkpt>
      <trkpt lat="45.50742" lon="6.70716">
        <ele>2067.6</ele>
        <time>2021-08-15T08:30:15Z</time>
      </trkpt>
      <trkpt lat="45.50742" lon="6.70716">
        <ele>2067.6</ele>
        <time>2021-08-15T08:30:16Z</time>
      </trkpt>
      <trkpt lat="45.50742" lon="6.70717">
        <ele>2067.6</ele>
        <time>2021-08-15T08:30:17Z</time>
      </trkpt>
      <trkpt lat="45.50742" lon="6.70717">
        <ele>2067.7</ele>
        <time>2021-08-15T08:30:18Z</time>
      </trkpt>
      <trkpt lat="45.50742" lon="6.70717">
        <ele>2067.7</ele>
        <time>2021-08-15T08:30:19Z</time>
      </trkpt>
      <trkpt lat="45.50742" lon="6.70717">
        <ele>2067.7</ele>
        <time>2021-08-15T08:30:20Z</time>
      </trkpt>
      <trkpt lat="45.50742" lon="6.70717">
        <ele>2067.8</ele>
        <time>2021-08-15T08:30:21Z</time>
      </trkpt>
      <trkpt lat="45.50742" lon="6.70717">
        <ele>2067.8</ele>
        <time>2021-08-15T08:30:22Z</time>
      </trkpt>
      <trkpt lat="45.50742" lon="6.70718">
        <ele>2067.9</ele>
        <time>2021-08-15T08:30:23Z</time>
      </trkpt>
      <trkpt lat="45.50742" lon="6.70718">
        <ele>2067.9</ele>
        <time>2021-08-15T08:30:24Z</time>
      </trkpt>
      <trkpt lat="45.50742" lon="6.70718">
        <ele>2067.9</ele>
        <time>2021-08-15T08:30:25Z</time>
      </trkpt>
      <trkpt lat="45.50742" lon="6.70718">
        <ele>2068</ele>
        <time>2021-08-15T08:30:26Z</time>
      </trkpt>
      <trkpt lat="45.50742" lon="6.70718">
        <ele>2068</ele>
        <time>2021-08-15T08:30:27Z</time>
      </trkpt>
      <trkpt lat="45.50741" lon="6.70718">
        <ele>2068</ele>
        <time>2021-08-15T08:30:28Z</time>
      </trkpt>
      <trkpt lat="45.50741" lon="6.70719">
        <ele>2068.1</ele>
        <time>2021-08-15T08:30:29Z</time>
      </trkpt>
      <trkpt lat="45.50741" lon="6.70719">
        <ele>2068.1</ele>
        <time>2021-08-15T08:30:30Z</time>
      </trkpt>
      <trkpt lat="45.50741" lon="6.70719">
        <ele>2068.1</ele>
        <time>2021-08-15T08:30:31Z</time>
      </trkpt>
      <trkpt lat="45.50741" lon="6.70719">
        <ele>2068.2</ele>
        <time>2021-08-15T08:30:32Z</time>
      </trkpt>
      <trkpt lat="45.50741" lon="6.70719">
        <ele>2068.2</ele>
        <time>2021-08-15T08:30:33Z</time>
      </trkpt>
      <trkpt lat="45.50741" lon="6.70719">
        <ele>2068.3</ele>
        <time>2021-08-15T08:30:34Z</time>
      </trkpt>
      <trkpt lat="45.50741" lon="6.7072">
        <ele>2068.3</ele>
        <time>2021-08-15T08:30:35Z</time>
      </trkpt>
      <trkpt lat="45.50741" lon="6.7072">
        <ele>2068.7</ele>
        <time>2021-08-15T08:30:36Z</time>
      </trkpt>
      <trkpt lat="45.50741" lon="6.70719">
        <ele>2068.4</ele>
        <time>2021-08-15T08:30:37Z</time>
      </trkpt>
      <trkpt lat="45.5074" lon="6.70719">
        <ele>2068.4</ele>
        <time>2021-08-15T08:30:38Z</time>
      </trkpt>
      <trkpt lat="45.5074" lon="6.70719">
        <ele>2068.1</ele>
        <time>2021-08-15T08:30:39Z</time>
      </trkpt>
      <trkpt lat="45.50739" lon="6.70718">
        <ele>2068.1</ele>
        <time>2021-08-15T08:30:40Z</time>
      </trkpt>
      <trkpt lat="45.50739" lon="6.70718">
        <ele>2068.2</ele>
        <time>2021-08-15T08:30:41Z</time>
      </trkpt>
      <trkpt lat="45.50739" lon="6.70717">
        <ele>2068.2</ele>
        <time>2021-08-15T08:30:42Z</time>
      </trkpt>
      <trkpt lat="45.50738" lon="6.70717">
        <ele>2068.2</ele>
        <time>2021-08-15T08:30:43Z</time>
      </trkpt>
      <trkpt lat="45.50738" lon="6.70716">
        <ele>2068.3</ele>
        <time>2021-08-15T08:30:44Z</time>
      </trkpt>
      <trkpt lat="45.50738" lon="6.70716">
        <ele>2068.3</ele>
        <time>2021-08-15T08:30:45Z</time>
      </trkpt>
      <trkpt lat="45.50738" lon="6.70716">
        <ele>2068.3</ele>
        <time>2021-08-15T08:30:46Z</time>
      </trkpt>
      <trkpt lat="45.50738" lon="6.70716">
        <ele>2068.4</ele>
        <time>2021-08-15T08:30:47Z</time>
      </trkpt>
      <trkpt lat="45.50738" lon="6.70715">
        <ele>2068.4</ele>
        <time>2021-08-15T08:30:48Z</time>
      </trkpt>
      <trkpt lat="45.50738" lon="6.70715">
        <ele>2068.4</ele>
        <time>2021-08-15T08:30:49Z</time>
      </trkpt>
      <trkpt lat="45.50738" lon="6.70715">
        <ele>2068.5</ele>
        <time>2021-08-15T08:30:50Z</time>
      </trkpt>
      <trkpt lat="45.50738" lon="6.70715">
        <ele>2068.5</ele>
        <time>2021-08-15T08:30:51Z</time>
      </trkpt>
      <trkpt lat="45.50738" lon="6.70716">
        <ele>2068.6</ele>
        <time>2021-08-15T08:30:52Z</time>
      </trkpt>
      <trkpt lat="45.50738" lon="6.70716">
        <ele>2068.6</ele>
        <time>2021-08-15T08:30:53Z</time>
      </trkpt>
      <trkpt lat="45.50738" lon="6.70716">
        <ele>2068.6</ele>
        <time>2021-08-15T08:30:54Z</time>
      </trkpt>
      <trkpt lat="45.50738" lon="6.70716">
        <ele>2068.7</ele>
        <time>2021-08-15T08:30:55Z</time>
      </trkpt>
      <trkpt lat="45.50737" lon="6.70716">
        <ele>2068.7</ele>
        <time>2021-08-15T08:30:56Z</time>
      </trkpt>
      <trkpt lat="45.50737" lon="6.70716">
        <ele>2068.7</ele>
        <time>2021-08-15T08:30:57Z</time>
      </trkpt>
      <trkpt lat="45.50737" lon="6.70716">
        <ele>2068.4</ele>
        <time>2021-08-15T08:30:58Z</time>
      </trkpt>
      <trkpt lat="45.50737" lon="6.70716">
        <ele>2068.5</ele>
        <time>2021-08-15T08:30:59Z</time>
      </trkpt>
      <trkpt lat="45.50736" lon="6.70716">
        <ele>2068.5</ele>
        <time>2021-08-15T08:31:00Z</time>
      </trkpt>
      <trkpt lat="45.50736" lon="6.70716">
        <ele>2068.5</ele>
        <time>2021-08-15T08:31:01Z</time>
      </trkpt>
      <trkpt lat="45.50736" lon="6.70716">
        <ele>2068.6</ele>
        <time>2021-08-15T08:31:02Z</time>
      </trkpt>
      <trkpt lat="45.50735" lon="6.70716">
        <ele>2068.6</ele>
        <time>2021-08-15T08:31:03Z</time>
      </trkpt>
      <trkpt lat="45.50735" lon="6.70716">
        <ele>2068.6</ele>
        <time>2021-08-15T08:31:04Z</time>
      </trkpt>
      <trkpt lat="45.50735" lon="6.70717">
        <ele>2068.6</ele>
        <time>2021-08-15T08:31:05Z</time>
      </trkpt>
      <trkpt lat="45.50734" lon="6.70717">
        <ele>2068.6</ele>
        <time>2021-08-15T08:31:06Z</time>
      </trkpt>
      <trkpt lat="45.50734" lon="6.70717">
        <ele>2068.6</ele>
        <time>2021-08-15T08:31:07Z</time>
      </trkpt>
      <trkpt lat="45.50734" lon="6.70717">
        <ele>2068.6</ele>
        <time>2021-08-15T08:31:08Z</time>
      </trkpt>
      <trkpt lat="45.50734" lon="6.70717">
        <ele>2068.6</ele>
        <time>2021-08-15T08:31:09Z</time>
      </trkpt>
      <trkpt lat="45.50734" lon="6.70717">
        <ele>2068.6</ele>
        <time>2021-08-15T08:31:10Z</time>
      </trkpt>
      <trkpt lat="45.50733" lon="6.70718">
        <ele>2068.6</ele>
        <time>2021-08-15T08:31:11Z</time>
      </trkpt>
      <trkpt lat="45.50733" lon="6.70718">
        <ele>2068.6</ele>
        <time>2021-08-15T08:31:12Z</time>
      </trkpt>
      <trkpt lat="45.50733" lon="6.70718">
        <ele>2068.6</ele>
        <time>2021-08-15T08:31:13Z</time>
      </trkpt>
      <trkpt lat="45.50733" lon="6.70718">
        <ele>2068.6</ele>
        <time>2021-08-15T08:31:14Z</time>
      </trkpt>
      <trkpt lat="45.50733" lon="6.70718">
        <ele>2068.6</ele>
        <time>2021-08-15T08:31:15Z</time>
      </trkpt>
      <trkpt lat="45.50733" lon="6.70718">
        <ele>2068.6</ele>
        <time>2021-08-15T08:31:16Z</time>
      </trkpt>
      <trkpt lat="45.50734" lon="6.70718">
        <ele>2068.6</ele>
        <time>2021-08-15T08:31:17Z</time>
      </trkpt>
      <trkpt lat="45.50734" lon="6.70719">
        <ele>2068.6</ele>
        <time>2021-08-15T08:31:18Z</time>
      </trkpt>
      <trkpt lat="45.50735" lon="6.70719">
        <ele>2068.6</ele>
        <time>2021-08-15T08:31:19Z</time>
      </trkpt>
      <trkpt lat="45.50735" lon="6.7072">
        <ele>2068.6</ele>
        <time>2021-08-15T08:31:20Z</time>
      </trkpt>
      <trkpt lat="45.50736" lon="6.7072">
        <ele>2068.6</ele>
        <time>2021-08-15T08:31:21Z</time>
      </trkpt>
      <trkpt lat="45.50736" lon="6.70721">
        <ele>2068.6</ele>
        <time>2021-08-15T08:31:22Z</time>
      </trkpt>
      <trkpt lat="45.50737" lon="6.70721">
        <ele>2068.6</ele>
        <time>2021-08-15T08:31:23Z</time>
      </trkpt>
      <trkpt lat="45.50737" lon="6.70721">
        <ele>2068.6</ele>
        <time>2021-08-15T08:31:24Z</time>
      </trkpt>
      <trkpt lat="45.50738" lon="6.70722">
        <ele>2068.7</ele>
        <time>2021-08-15T08:31:25Z</time>
      </trkpt>
      <trkpt lat="45.50738" lon="6.70722">
        <ele>2068.7</ele>
        <time>2021-08-15T08:31:26Z</time>
      </trkpt>
      <trkpt lat="45.50738" lon="6.70723">
        <ele>2068.8</ele>
        <time>2021-08-15T08:31:27Z</time>
      </trkpt>
      <trkpt lat="45.50739" lon="6.70723">
        <ele>2068.8</ele>
        <time>2021-08-15T08:31:28Z</time>
      </trkpt>
      <trkpt lat="45.50739" lon="6.70724">
        <ele>2068.9</ele>
        <time>2021-08-15T08:31:29Z</time>
      </trkpt>
      <trkpt lat="45.5074" lon="6.70724">
        <ele>2068.9</ele>
        <time>2021-08-15T08:31:30Z</time>
      </trkpt>
      <trkpt lat="45.5074" lon="6.70724">
        <ele>2069</ele>
        <time>2021-08-15T08:31:31Z</time>
      </trkpt>
      <trkpt lat="45.50741" lon="6.70725">
        <ele>2069</ele>
        <time>2021-08-15T08:31:32Z</time>
      </trkpt>
      <trkpt lat="45.50741" lon="6.70725">
        <ele>2069.1</ele>
        <time>2021-08-15T08:31:33Z</time>
      </trkpt>
      <trkpt lat="45.50741" lon="6.70726">
        <ele>2069.1</ele>
        <time>2021-08-15T08:31:34Z</time>
      </trkpt>
      <trkpt lat="45.50742" lon="6.70726">
        <ele>2069.2</ele>
        <time>2021-08-15T08:31:35Z</time>
      </trkpt>
      <trkpt lat="45.50742" lon="6.70727">
        <ele>2069.3</ele>
        <time>2021-08-15T08:31:36Z</time>
      </trkpt>
      <trkpt lat="45.50743" lon="6.70727">
        <ele>2069.3</ele>
        <time>2021-08-15T08:31:37Z</time>
      </trkpt>
      <trkpt lat="45.50743" lon="6.70727">
        <ele>2069.4</ele>
        <time>2021-08-15T08:31:38Z</time>
      </trkpt>
      <trkpt lat="45.50744" lon="6.70728">
        <ele>2069.4</ele>
        <time>2021-08-15T08:31:39Z</time>
      </trkpt>
      <trkpt lat="45.50744" lon="6.70728">
        <ele>2069.5</ele>
        <time>2021-08-15T08:31:40Z</time>
      </trkpt>
      <trkpt lat="45.50744" lon="6.70729">
        <ele>2069.5</ele>
        <time>2021-08-15T08:31:41Z</time>
      </trkpt>
      <trkpt lat="45.50745" lon="6.70729">
        <ele>2069.6</ele>
        <time>2021-08-15T08:31:42Z</time>
      </trkpt>
      <trkpt lat="45.50745" lon="6.70729">
        <ele>2069.6</ele>
        <time>2021-08-15T08:31:43Z</time>
      </trkpt>
      <trkpt lat="45.50746" lon="6.7073">
        <ele>2069.7</ele>
        <time>2021-08-15T08:31:44Z</time>
      </trkpt>
      <trkpt lat="45.50746" lon="6.7073">
        <ele>2069.8</ele>
        <time>2021-08-15T08:31:45Z</time>
      </trkpt>
      <trkpt lat="45.50746" lon="6.70731">
        <ele>2069.8</ele>
        <time>2021-08-15T08:31:46Z</time>
      </trkpt>
      <trkpt lat="45.50747" lon="6.70731">
        <ele>2069.9</ele>
        <time>2021-08-15T08:31:47Z</time>
      </trkpt>
      <trkpt lat="45.50747" lon="6.70732">
        <ele>2069.9</ele>
        <time>2021-08-15T08:31:48Z</time>
      </trkpt>
      <trkpt lat="45.50748" lon="6.70732">
        <ele>2070</ele>
        <time>2021-08-15T08:31:49Z</time>
      </trkpt>
      <trkpt lat="45.50748" lon="6.70732">
        <ele>2070</ele>
        <time>2021-08-15T08:31:50Z</time>
      </trkpt>
      <trkpt lat="45.50749" lon="6.70733">
        <ele>2070.1</ele>
        <time>2021-08-15T08:31:51Z</time>
      </trkpt>
      <trkpt lat="45.50749" lon="6.70733">
        <ele>2070.2</ele>
        <time>2021-08-15T08:31:52Z</time>
      </trkpt>
      <trkpt lat="45.50749" lon="6.70734">
        <ele>2070.2</ele>
        <time>2021-08-15T08:31:53Z</time>
      </trkpt>
      <trkpt lat="45.5075" lon="6.70734">
        <ele>2070.3</ele>
        <time>2021-08-15T08:31:54Z</time>
      </trkpt>
      <trkpt lat="45.5075" lon="6.70735">
        <ele>2070.3</ele>
        <time>2021-08-15T08:31:55Z</time>
      </trkpt>
      <trkpt lat="45.50751" lon="6.70735">
        <ele>2070.4</ele>
        <time>2021-08-15T08:31:56Z</time>
      </trkpt>
      <trkpt lat="45.50751" lon="6.70735">
        <ele>2070.4</ele>
        <time>2021-08-15T08:31:57Z</time>
      </trkpt>
      <trkpt lat="45.50751" lon="6.70736">
        <ele>2070.5</ele>
        <time>2021-08-15T08:31:58Z</time>
      </trkpt>
      <trkpt lat="45.50752" lon="6.70737">
        <ele>2070.5</ele>
        <time>2021-08-15T08:31:59Z</time>
      </trkpt>
      <trkpt lat="45.50752" lon="6.70737">
        <ele>2070.6</ele>
        <time>2021-08-15T08:32:00Z</time>
      </trkpt>
      <trkpt lat="45.50752" lon="6.70738">
        <ele>2070.6</ele>
        <time>2021-08-15T08:32:01Z</time>
      </trkpt>
      <trkpt lat="45.50752" lon="6.70738">
        <ele>2070.7</ele>
        <time>2021-08-15T08:32:02Z</time>
      </trkpt>
      <trkpt lat="45.50752" lon="6.70739">
        <ele>2070.7</ele>
        <time>2021-08-15T08:32:03Z</time>
      </trkpt>
      <trkpt lat="45.50752" lon="6.70739">
        <ele>2070.7</ele>
        <time>2021-08-15T08:32:04Z</time>
      </trkpt>
      <trkpt lat="45.50753" lon="6.7074">
        <ele>2070.8</ele>
        <time>2021-08-15T08:32:05Z</time>
      </trkpt>
      <trkpt lat="45.50753" lon="6.7074">
        <ele>2070.8</ele>
        <time>2021-08-15T08:32:06Z</time>
      </trkpt>
      <trkpt lat="45.50753" lon="6.70741">
        <ele>2070.9</ele>
        <time>2021-08-15T08:32:07Z</time>
      </trkpt>
      <trkpt lat="45.50754" lon="6.70741">
        <ele>2070.9</ele>
        <time>2021-08-15T08:32:08Z</time>
      </trkpt>
      <trkpt lat="45.50754" lon="6.70742">
        <ele>2071</ele>
        <time>2021-08-15T08:32:09Z</time>
      </trkpt>
      <trkpt lat="45.50754" lon="6.70742">
        <ele>2071</ele>
        <time>2021-08-15T08:32:10Z</time>
      </trkpt>
      <trkpt lat="45.50755" lon="6.70743">
        <ele>2071.1</ele>
        <time>2021-08-15T08:32:11Z</time>
      </trkpt>
      <trkpt lat="45.50756" lon="6.70743">
        <ele>2071.2</ele>
        <time>2021-08-15T08:32:12Z</time>
      </trkpt>
      <trkpt lat="45.50756" lon="6.70744">
        <ele>2071.2</ele>
        <time>2021-08-15T08:32:13Z</time>
      </trkpt>
      <trkpt lat="45.50757" lon="6.70745">
        <ele>2071.2</ele>
        <time>2021-08-15T08:32:14Z</time>
      </trkpt>
      <trkpt lat="45.50758" lon="6.70746">
        <ele>2071.2</ele>
        <time>2021-08-15T08:32:15Z</time>
      </trkpt>
      <trkpt lat="45.50758" lon="6.70747">
        <ele>2071.2</ele>
        <time>2021-08-15T08:32:16Z</time>
      </trkpt>
      <trkpt lat="45.50758" lon="6.70748">
        <ele>2071.2</ele>
        <time>2021-08-15T08:32:17Z</time>
      </trkpt>
      <trkpt lat="45.50758" lon="6.70749">
        <ele>2071.2</ele>
        <time>2021-08-15T08:32:18Z</time>
      </trkpt>
      <trkpt lat="45.50758" lon="6.7075">
        <ele>2071.2</ele>
        <time>2021-08-15T08:32:19Z</time>
      </trkpt>
      <trkpt lat="45.50758" lon="6.70751">
        <ele>2071.1</ele>
        <time>2021-08-15T08:32:20Z</time>
      </trkpt>
      <trkpt lat="45.50758" lon="6.70752">
        <ele>2071.1</ele>
        <time>2021-08-15T08:32:21Z</time>
      </trkpt>
      <trkpt lat="45.50757" lon="6.70753">
        <ele>2071.1</ele>
        <time>2021-08-15T08:32:22Z</time>
      </trkpt>
      <trkpt lat="45.50757" lon="6.70754">
        <ele>2071.1</ele>
        <time>2021-08-15T08:32:23Z</time>
      </trkpt>
      <trkpt lat="45.50757" lon="6.70755">
        <ele>2071.1</ele>
        <time>2021-08-15T08:32:24Z</time>
      </trkpt>
      <trkpt lat="45.50756" lon="6.70755">
        <ele>2071.1</ele>
        <time>2021-08-15T08:32:25Z</time>
      </trkpt>
      <trkpt lat="45.50755" lon="6.70756">
        <ele>2071.1</ele>
        <time>2021-08-15T08:32:26Z</time>
      </trkpt>
      <trkpt lat="45.50755" lon="6.70757">
        <ele>2071.1</ele>
        <time>2021-08-15T08:32:27Z</time>
      </trkpt>
      <trkpt lat="45.50754" lon="6.70759">
        <ele>2071</ele>
        <time>2021-08-15T08:32:28Z</time>
      </trkpt>
      <trkpt lat="45.50753" lon="6.7076">
        <ele>2071</ele>
        <time>2021-08-15T08:32:29Z</time>
      </trkpt>
      <trkpt lat="45.50753" lon="6.70761">
        <ele>2071</ele>
        <time>2021-08-15T08:32:30Z</time>
      </trkpt>
      <trkpt lat="45.50752" lon="6.70762">
        <ele>2071</ele>
        <time>2021-08-15T08:32:31Z</time>
      </trkpt>
      <trkpt lat="45.50751" lon="6.70763">
        <ele>2071</ele>
        <time>2021-08-15T08:32:32Z</time>
      </trkpt>
      <trkpt lat="45.5075" lon="6.70764">
        <ele>2070.9</ele>
        <time>2021-08-15T08:32:33Z</time>
      </trkpt>
      <trkpt lat="45.5075" lon="6.70765">
        <ele>2070.9</ele>
        <time>2021-08-15T08:32:34Z</time>
      </trkpt>
      <trkpt lat="45.50749" lon="6.70766">
        <ele>2070.9</ele>
        <time>2021-08-15T08:32:35Z</time>
      </trkpt>
      <trkpt lat="45.50748" lon="6.70767">
        <ele>2070.9</ele>
        <time>2021-08-15T08:32:36Z</time>
      </trkpt>
      <trkpt lat="45.50748" lon="6.70768">
        <ele>2070.9</ele>
        <time>2021-08-15T08:32:37Z</time>
      </trkpt>
      <trkpt lat="45.50747" lon="6.70769">
        <ele>2070.9</ele>
        <time>2021-08-15T08:32:38Z</time>
      </trkpt>
      <trkpt lat="45.50747" lon="6.70771">
        <ele>2070.8</ele>
        <time>2021-08-15T08:32:39Z</time>
      </trkpt>
      <trkpt lat="45.50746" lon="6.70772">
        <ele>2070.8</ele>
        <time>2021-08-15T08:32:40Z</time>
      </trkpt>
      <trkpt lat="45.50746" lon="6.70773">
        <ele>2070.8</ele>
        <time>2021-08-15T08:32:41Z</time>
      </trkpt>
      <trkpt lat="45.50745" lon="6.70774">
        <ele>2070.8</ele>
        <time>2021-08-15T08:32:42Z</time>
      </trkpt>
      <trkpt lat="45.50744" lon="6.70776">
        <ele>2070.8</ele>
        <time>2021-08-15T08:32:43Z</time>
      </trkpt>
      <trkpt lat="45.50744" lon="6.70777">
        <ele>2070.7</ele>
        <time>2021-08-15T08:32:44Z</time>
      </trkpt>
      <trkpt lat="45.50743" lon="6.70779">
        <ele>2070.7</ele>
        <time>2021-08-15T08:32:45Z</time>
      </trkpt>
      <trkpt lat="45.50742" lon="6.7078">
        <ele>2070.7</ele>
        <time>2021-08-15T08:32:46Z</time>
      </trkpt>
      <trkpt lat="45.50741" lon="6.70782">
        <ele>2070.7</ele>
        <time>2021-08-15T08:32:47Z</time>
      </trkpt>
      <trkpt lat="45.5074" lon="6.70783">
        <ele>2070.7</ele>
        <time>2021-08-15T08:32:48Z</time>
      </trkpt>
      <trkpt lat="45.50739" lon="6.70784">
        <ele>2070.6</ele>
        <time>2021-08-15T08:32:49Z</time>
      </trkpt>
      <trkpt lat="45.50738" lon="6.70785">
        <ele>2070.6</ele>
        <time>2021-08-15T08:32:50Z</time>
      </trkpt>
      <trkpt lat="45.50737" lon="6.70785">
        <ele>2070.6</ele>
        <time>2021-08-15T08:32:51Z</time>
      </trkpt>
      <trkpt lat="45.50736" lon="6.70786">
        <ele>2070.6</ele>
        <time>2021-08-15T08:32:52Z</time>
      </trkpt>
      <trkpt lat="45.50735" lon="6.70786">
        <ele>2070.6</ele>
        <time>2021-08-15T08:32:53Z</time>
      </trkpt>
      <trkpt lat="45.50734" lon="6.70786">
        <ele>2070.5</ele>
        <time>2021-08-15T08:32:54Z</time>
      </trkpt>
      <trkpt lat="45.50733" lon="6.70786">
        <ele>2070.5</ele>
        <time>2021-08-15T08:32:55Z</time>
      </trkpt>
      <trkpt lat="45.50732" lon="6.70787">
        <ele>2070.5</ele>
        <time>2021-08-15T08:32:56Z</time>
      </trkpt>
      <trkpt lat="45.50731" lon="6.70787">
        <ele>2070.5</ele>
        <time>2021-08-15T08:32:57Z</time>
      </trkpt>
      <trkpt lat="45.5073" lon="6.70788">
        <ele>2070.5</ele>
        <time>2021-08-15T08:32:58Z</time>
      </trkpt>
      <trkpt lat="45.5073" lon="6.70787">
        <ele>2070.5</ele>
        <time>2021-08-15T08:32:59Z</time>
      </trkpt>
      <trkpt lat="45.5073" lon="6.70787">
        <ele>2070.5</ele>
        <time>2021-08-15T08:33:00Z</time>
      </trkpt>
      <trkpt lat="45.5073" lon="6.70787">
        <ele>2070.5</ele>
        <time>2021-08-15T08:33:01Z</time>
      </trkpt>
      <trkpt lat="45.5073" lon="6.70787">
        <ele>2070.5</ele>
        <time>2021-08-15T08:33:02Z</time>
      </trkpt>
      <trkpt lat="45.5073" lon="6.70787">
        <ele>2070.5</ele>
        <time>2021-08-15T08:33:03Z</time>
      </trkpt>
      <trkpt lat="45.5073" lon="6.70787">
        <ele>2070.5</ele>
        <time>2021-08-15T08:33:04Z</time>
      </trkpt>
      <trkpt lat="45.5073" lon="6.70787">
        <ele>2070.5</ele>
        <time>2021-08-15T08:33:05Z</time>
      </trkpt>
      <trkpt lat="45.50731" lon="6.70787">
        <ele>2070.5</ele>
        <time>2021-08-15T08:33:06Z</time>
      </trkpt>
      <trkpt lat="45.50731" lon="6.70787">
        <ele>2070.5</ele>
        <time>2021-08-15T08:33:07Z</time>
      </trkpt>
      <trkpt lat="45.50731" lon="6.70787">
        <ele>2070.5</ele>
        <time>2021-08-15T08:33:08Z</time>
      </trkpt>
      <trkpt lat="45.50731" lon="6.70787">
        <ele>2070.5</ele>
        <time>2021-08-15T08:33:09Z</time>
      </trkpt>
      <trkpt lat="45.50731" lon="6.70786">
        <ele>2070.5</ele>
        <time>2021-08-15T08:33:10Z</time>
      </trkpt>
      <trkpt lat="45.50731" lon="6.70786">
        <ele>2070.5</ele>
        <time>2021-08-15T08:33:11Z</time>
      </trkpt>
      <trkpt lat="45.50731" lon="6.70786">
        <ele>2070.5</ele>
        <time>2021-08-15T08:33:12Z</time>
      </trkpt>
      <trkpt lat="45.50731" lon="6.70786">
        <ele>2070.5</ele>
        <time>2021-08-15T08:33:13Z</time>
      </trkpt>
      <trkpt lat="45.50731" lon="6.70786">
        <ele>2070.5</ele>
        <time>2021-08-15T08:33:14Z</time>
      </trkpt>
      <trkpt lat="45.50731" lon="6.70786">
        <ele>2070.5</ele>
        <time>2021-08-15T08:33:15Z</time>
      </trkpt>
      <trkpt lat="45.50731" lon="6.70786">
        <ele>2070.5</ele>
        <time>2021-08-15T08:33:16Z</time>
      </trkpt>
      <trkpt lat="45.50731" lon="6.70786">
        <ele>2070.5</ele>
        <time>2021-08-15T08:33:17Z</time>
      </trkpt>
      <trkpt lat="45.50731" lon="6.70786">
        <ele>2070.5</ele>
        <time>2021-08-15T08:33:18Z</time>
      </trkpt>
      <trkpt lat="45.50731" lon="6.70786">
        <ele>2070.5</ele>
        <time>2021-08-15T08:33:19Z</time>
      </trkpt>
      <trkpt lat="45.50731" lon="6.70786">
        <ele>2070.5</ele>
        <time>2021-08-15T08:33:20Z</time>
      </trkpt>
      <trkpt lat="45.50731" lon="6.70785">
        <ele>2070.4</ele>
        <time>2021-08-15T08:33:21Z</time>
      </trkpt>
      <trkpt lat="45.50731" lon="6.70785">
        <ele>2070.4</ele>
        <time>2021-08-15T08:33:22Z</time>
      </trkpt>
      <trkpt lat="45.50731" lon="6.70785">
        <ele>2070.4</ele>
        <time>2021-08-15T08:33:23Z</time>
      </trkpt>
      <trkpt lat="45.50731" lon="6.70785">
        <ele>2070.4</ele>
        <time>2021-08-15T08:33:24Z</time>
      </trkpt>
      <trkpt lat="45.50731" lon="6.70785">
        <ele>2070.4</ele>
        <time>2021-08-15T08:33:25Z</time>
      </trkpt>
      <trkpt lat="45.50732" lon="6.70785">
        <ele>2070.4</ele>
        <time>2021-08-15T08:33:26Z</time>
      </trkpt>
      <trkpt lat="45.50732" lon="6.70785">
        <ele>2070.4</ele>
        <time>2021-08-15T08:33:27Z</time>
      </trkpt>
      <trkpt lat="45.50732" lon="6.70785">
        <ele>2070.4</ele>
        <time>2021-08-15T08:33:28Z</time>
      </trkpt>
      <trkpt lat="45.50732" lon="6.70785">
        <ele>2070.4</ele>
        <time>2021-08-15T08:33:29Z</time>
      </trkpt>
      <trkpt lat="45.50732" lon="6.70785">
        <ele>2070.4</ele>
        <time>2021-08-15T08:33:30Z</time>
      </trkpt>
      <trkpt lat="45.50732" lon="6.70785">
        <ele>2070.4</ele>
        <time>2021-08-15T08:33:31Z</time>
      </trkpt>
      <trkpt lat="45.50732" lon="6.70784">
        <ele>2070.4</ele>
        <time>2021-08-15T08:33:32Z</time>
      </trkpt>
      <trkpt lat="45.50732" lon="6.70784">
        <ele>2070.4</ele>
        <time>2021-08-15T08:33:33Z</time>
      </trkpt>
      <trkpt lat="45.50732" lon="6.70784">
        <ele>2070.4</ele>
        <time>2021-08-15T08:33:34Z</time>
      </trkpt>
      <trkpt lat="45.50732" lon="6.70784">
        <ele>2070.4</ele>
        <time>2021-08-15T08:33:35Z</time>
      </trkpt>
      <trkpt lat="45.50732" lon="6.70784">
        <ele>2070.4</ele>
        <time>2021-08-15T08:33:36Z</time>
      </trkpt>
      <trkpt lat="45.50732" lon="6.70784">
        <ele>2070.4</ele>
        <time>2021-08-15T08:33:37Z</time>
      </trkpt>
      <trkpt lat="45.50732" lon="6.70784">
        <ele>2070.4</ele>
        <time>2021-08-15T08:33:38Z</time>
      </trkpt>
      <trkpt lat="45.50732" lon="6.70784">
        <ele>2070.4</ele>
        <time>2021-08-15T08:33:39Z</time>
      </trkpt>
      <trkpt lat="45.50732" lon="6.70784">
        <ele>2070.4</ele>
        <time>2021-08-15T08:33:40Z</time>
      </trkpt>
      <trkpt lat="45.50732" lon="6.70784">
        <ele>2070.4</ele>
        <time>2021-08-15T08:33:41Z</time>
      </trkpt>
      <trkpt lat="45.50732" lon="6.70784">
        <ele>2070.4</ele>
        <time>2021-08-15T08:33:42Z</time>
      </trkpt>
      <trkpt lat="45.50732" lon="6.70783">
        <ele>2070.4</ele>
        <time>2021-08-15T08:33:43Z</time>
      </trkpt>
      <trkpt lat="45.50732" lon="6.70783">
        <ele>2070.4</ele>
        <time>2021-08-15T08:33:44Z</time>
      </trkpt>
      <trkpt lat="45.50733" lon="6.70783">
        <ele>2070.4</ele>
        <time>2021-08-15T08:33:45Z</time>
      </trkpt>
      <trkpt lat="45.50733" lon="6.70783">
        <ele>2070.4</ele>
        <time>2021-08-15T08:33:46Z</time>
      </trkpt>
      <trkpt lat="45.50733" lon="6.70783">
        <ele>2070.4</ele>
        <time>2021-08-15T08:33:47Z</time>
      </trkpt>
      <trkpt lat="45.50733" lon="6.70783">
        <ele>2070.4</ele>
        <time>2021-08-15T08:33:48Z</time>
      </trkpt>
      <trkpt lat="45.50733" lon="6.70783">
        <ele>2070.4</ele>
        <time>2021-08-15T08:33:49Z</time>
      </trkpt>
      <trkpt lat="45.50733" lon="6.70783">
        <ele>2070.4</ele>
        <time>2021-08-15T08:33:50Z</time>
      </trkpt>
      <trkpt lat="45.50733" lon="6.70783">
        <ele>2070.4</ele>
        <time>2021-08-15T08:33:51Z</time>
      </trkpt>
      <trkpt lat="45.50733" lon="6.70783">
        <ele>2070.4</ele>
        <time>2021-08-15T08:33:52Z</time>
      </trkpt>
      <trkpt lat="45.50733" lon="6.70783">
        <ele>2070.4</ele>
        <time>2021-08-15T08:33:53Z</time>
      </trkpt>
      <trkpt lat="45.50733" lon="6.70782">
        <ele>2070.4</ele>
        <time>2021-08-15T08:33:54Z</time>
      </trkpt>
      <trkpt lat="45.50733" lon="6.70782">
        <ele>2070.4</ele>
        <time>2021-08-15T08:33:55Z</time>
      </trkpt>
      <trkpt lat="45.50733" lon="6.70782">
        <ele>2070.4</ele>
        <time>2021-08-15T08:33:56Z</time>
      </trkpt>
      <trkpt lat="45.50733" lon="6.70782">
        <ele>2070.4</ele>
        <time>2021-08-15T08:33:57Z</time>
      </trkpt>
      <trkpt lat="45.50733" lon="6.70782">
        <ele>2070.4</ele>
        <time>2021-08-15T08:33:58Z</time>
      </trkpt>
      <trkpt lat="45.50733" lon="6.70782">
        <ele>2070.4</ele>
        <time>2021-08-15T08:33:59Z</time>
      </trkpt>
      <trkpt lat="45.50733" lon="6.70782">
        <ele>2070.4</ele>
        <time>2021-08-15T08:34:00Z</time>
      </trkpt>
      <trkpt lat="45.50733" lon="6.70782">
        <ele>2070.4</ele>
        <time>2021-08-15T08:34:01Z</time>
      </trkpt>
      <trkpt lat="45.50733" lon="6.70782">
        <ele>2070.4</ele>
        <time>2021-08-15T08:34:02Z</time>
      </trkpt>
      <trkpt lat="45.50733" lon="6.70782">
        <ele>2070.4</ele>
        <time>2021-08-15T08:34:03Z</time>
      </trkpt>
      <trkpt lat="45.50734" lon="6.70782">
        <ele>2070.4</ele>
        <time>2021-08-15T08:34:04Z</time>
      </trkpt>
      <trkpt lat="45.50734" lon="6.70781">
        <ele>2070.4</ele>
        <time>2021-08-15T08:34:05Z</time>
      </trkpt>
      <trkpt lat="45.50734" lon="6.70781">
        <ele>2070.4</ele>
        <time>2021-08-15T08:34:06Z</time>
      </trkpt>
      <trkpt lat="45.50734" lon="6.70781">
        <ele>2070.4</ele>
        <time>2021-08-15T08:34:07Z</time>
      </trkpt>
      <trkpt lat="45.50734" lon="6.70781">
        <ele>2070.4</ele>
        <time>2021-08-15T08:34:08Z</time>
      </trkpt>
      <trkpt lat="45.50734" lon="6.70781">
        <ele>2070.4</ele>
        <time>2021-08-15T08:34:09Z</time>
      </trkpt>
      <trkpt lat="45.50734" lon="6.70781">
        <ele>2070.4</ele>
        <time>2021-08-15T08:34:10Z</time>
      </trkpt>
      <trkpt lat="45.50734" lon="6.70781">
        <ele>2070.4</ele>
        <time>2021-08-15T08:34:11Z</time>
      </trkpt>
      <trkpt lat="45.50734" lon="6.70781">
        <ele>2070.4</ele>
        <time>2021-08-15T08:34:12Z</time>
      </trkpt>
      <trkpt lat="45.50734" lon="6.70781">
        <ele>2070.4</ele>
        <time>2021-08-15T08:34:13Z</time>
      </trkpt>
      <trkpt lat="45.50734" lon="6.70781">
        <ele>2070.4</ele>
        <time>2021-08-15T08:34:14Z</time>
      </trkpt>
      <trkpt lat="45.50734" lon="6.70781">
        <ele>2070.4</ele>
        <time>2021-08-15T08:34:15Z</time>
      </trkpt>
      <trkpt lat="45.50734" lon="6.7078">
        <ele>2070.4</ele>
        <time>2021-08-15T08:34:16Z</time>
      </trkpt>
      <trkpt lat="45.50734" lon="6.7078">
        <ele>2070.4</ele>
        <time>2021-08-15T08:34:17Z</time>
      </trkpt>
      <trkpt lat="45.50734" lon="6.7078">
        <ele>2070.4</ele>
        <time>2021-08-15T08:34:18Z</time>
      </trkpt>
      <trkpt lat="45.50734" lon="6.7078">
        <ele>2070.4</ele>
        <time>2021-08-15T08:34:19Z</time>
      </trkpt>
      <trkpt lat="45.50734" lon="6.7078">
        <ele>2070.4</ele>
        <time>2021-08-15T08:34:20Z</time>
      </trkpt>
      <trkpt lat="45.50734" lon="6.7078">
        <ele>2070.4</ele>
        <time>2021-08-15T08:34:21Z</time>
      </trkpt>
      <trkpt lat="45.50734" lon="6.7078">
        <ele>2070.4</ele>
        <time>2021-08-15T08:34:22Z</time>
      </trkpt>
      <trkpt lat="45.50734" lon="6.7078">
        <ele>2070.4</ele>
        <time>2021-08-15T08:34:23Z</time>
      </trkpt>
      <trkpt lat="45.50735" lon="6.7078">
        <ele>2070.4</ele>
        <time>2021-08-15T08:34:24Z</time>
      </trkpt>
      <trkpt lat="45.50735" lon="6.7078">
        <ele>2070.4</ele>
        <time>2021-08-15T08:34:25Z</time>
      </trkpt>
      <trkpt lat="45.50735" lon="6.7078">
        <ele>2070.4</ele>
        <time>2021-08-15T08:34:26Z</time>
      </trkpt>
      <trkpt lat="45.50735" lon="6.70779">
        <ele>2070.4</ele>
        <time>2021-08-15T08:34:27Z</time>
      </trkpt>
      <trkpt lat="45.50735" lon="6.70779">
        <ele>2070.4</ele>
        <time>2021-08-15T08:34:28Z</time>
      </trkpt>
      <trkpt lat="45.50735" lon="6.70779">
        <ele>2070.4</ele>
        <time>2021-08-15T08:34:29Z</time>
      </trkpt>
      <trkpt lat="45.50735" lon="6.70779">
        <ele>2070.4</ele>
        <time>2021-08-15T08:34:30Z</time>
      </trkpt>
      <trkpt lat="45.50735" lon="6.70779">
        <ele>2070.4</ele>
        <time>2021-08-15T08:34:31Z</time>
      </trkpt>
      <trkpt lat="45.50735" lon="6.70779">
        <ele>2070.3</ele>
        <time>2021-08-15T08:34:32Z</time>
      </trkpt>
      <trkpt lat="45.50735" lon="6.70779">
        <ele>2070.3</ele>
        <time>2021-08-15T08:34:33Z</time>
      </trkpt>
      <trkpt lat="45.50735" lon="6.70779">
        <ele>2070.3</ele>
        <time>2021-08-15T08:34:34Z</time>
      </trkpt>
      <trkpt lat="45.50737" lon="6.7078">
        <ele>2070.3</ele>
        <time>2021-08-15T08:34:35Z</time>
      </trkpt>
      <trkpt lat="45.50737" lon="6.7078">
        <ele>2070.3</ele>
        <time>2021-08-15T08:34:36Z</time>
      </trkpt>
      <trkpt lat="45.50737" lon="6.7078">
        <ele>2070.3</ele>
        <time>2021-08-15T08:34:37Z</time>
      </trkpt>
      <trkpt lat="45.50737" lon="6.7078">
        <ele>2070.3</ele>
        <time>2021-08-15T08:34:38Z</time>
      </trkpt>
      <trkpt lat="45.50737" lon="6.7078">
        <ele>2070.3</ele>
        <time>2021-08-15T08:34:39Z</time>
      </trkpt>
      <trkpt lat="45.50737" lon="6.7078">
        <ele>2070.3</ele>
        <time>2021-08-15T08:34:40Z</time>
      </trkpt>
      <trkpt lat="45.50737" lon="6.7078">
        <ele>2070.3</ele>
        <time>2021-08-15T08:34:41Z</time>
      </trkpt>
      <trkpt lat="45.50737" lon="6.7078">
        <ele>2070.3</ele>
        <time>2021-08-15T08:34:42Z</time>
      </trkpt>
      <trkpt lat="45.50737" lon="6.7078">
        <ele>2070.3</ele>
        <time>2021-08-15T08:34:43Z</time>
      </trkpt>
      <trkpt lat="45.50737" lon="6.7078">
        <ele>2070.3</ele>
        <time>2021-08-15T08:34:44Z</time>
      </trkpt>
      <trkpt lat="45.50737" lon="6.7078">
        <ele>2070.3</ele>
        <time>2021-08-15T08:34:45Z</time>
      </trkpt>
      <trkpt lat="45.50737" lon="6.7078">
        <ele>2070.3</ele>
        <time>2021-08-15T08:34:46Z</time>
      </trkpt>
      <trkpt lat="45.50737" lon="6.7078">
        <ele>2070.3</ele>
        <time>2021-08-15T08:34:47Z</time>
      </trkpt>
      <trkpt lat="45.50738" lon="6.70779">
        <ele>2070.3</ele>
        <time>2021-08-15T08:34:48Z</time>
      </trkpt>
      <trkpt lat="45.50738" lon="6.70779">
        <ele>2070.3</ele>
        <time>2021-08-15T08:34:49Z</time>
      </trkpt>
      <trkpt lat="45.50738" lon="6.70779">
        <ele>2070.3</ele>
        <time>2021-08-15T08:34:50Z</time>
      </trkpt>
      <trkpt lat="45.50739" lon="6.70779">
        <ele>2070.3</ele>
        <time>2021-08-15T08:34:51Z</time>
      </trkpt>
      <trkpt lat="45.50739" lon="6.70779">
        <ele>2070.3</ele>
        <time>2021-08-15T08:34:52Z</time>
      </trkpt>
      <trkpt lat="45.5074" lon="6.70779">
        <ele>2070.3</ele>
        <time>2021-08-15T08:34:53Z</time>
      </trkpt>
      <trkpt lat="45.5074" lon="6.70779">
        <ele>2070.3</ele>
        <time>2021-08-15T08:34:54Z</time>
      </trkpt>
      <trkpt lat="45.5074" lon="6.70779">
        <ele>2070.3</ele>
        <time>2021-08-15T08:34:55Z</time>
      </trkpt>
      <trkpt lat="45.50741" lon="6.70778">
        <ele>2070.3</ele>
        <time>2021-08-15T08:34:56Z</time>
      </trkpt>
      <trkpt lat="45.50741" lon="6.70778">
        <ele>2070.2</ele>
        <time>2021-08-15T08:34:57Z</time>
      </trkpt>
      <trkpt lat="45.50742" lon="6.70778">
        <ele>2070.2</ele>
        <time>2021-08-15T08:34:58Z</time>
      </trkpt>
      <trkpt lat="45.50742" lon="6.70778">
        <ele>2070.2</ele>
        <time>2021-08-15T08:34:59Z</time>
      </trkpt>
      <trkpt lat="45.50742" lon="6.70778">
        <ele>2070.2</ele>
        <time>2021-08-15T08:35:00Z</time>
      </trkpt>
      <trkpt lat="45.50743" lon="6.70778">
        <ele>2070.2</ele>
        <time>2021-08-15T08:35:01Z</time>
      </trkpt>
      <trkpt lat="45.50743" lon="6.70778">
        <ele>2070.2</ele>
        <time>2021-08-15T08:35:02Z</time>
      </trkpt>
      <trkpt lat="45.50744" lon="6.70778">
        <ele>2070.2</ele>
        <time>2021-08-15T08:35:03Z</time>
      </trkpt>
      <trkpt lat="45.50744" lon="6.70778">
        <ele>2070.2</ele>
        <time>2021-08-15T08:35:04Z</time>
      </trkpt>
      <trkpt lat="45.50744" lon="6.70777">
        <ele>2070.3</ele>
        <time>2021-08-15T08:35:05Z</time>
      </trkpt>
      <trkpt lat="45.50744" lon="6.70776">
        <ele>2070.3</ele>
        <time>2021-08-15T08:35:06Z</time>
      </trkpt>
      <trkpt lat="45.50745" lon="6.70775">
        <ele>2070.3</ele>
        <time>2021-08-15T08:35:07Z</time>
      </trkpt>
      <trkpt lat="45.50745" lon="6.70774">
        <ele>2070.3</ele>
        <time>2021-08-15T08:35:08Z</time>
      </trkpt>
      <trkpt lat="45.50746" lon="6.70773">
        <ele>2070.4</ele>
        <time>2021-08-15T08:35:09Z</time>
      </trkpt>
      <trkpt lat="45.50746" lon="6.70772">
        <ele>2070.4</ele>
        <time>2021-08-15T08:35:10Z</time>
      </trkpt>
      <trkpt lat="45.50746" lon="6.70771">
        <ele>2070.4</ele>
        <time>2021-08-15T08:35:11Z</time>
      </trkpt>
      <trkpt lat="45.50747" lon="6.7077">
        <ele>2070.4</ele>
        <time>2021-08-15T08:35:12Z</time>
      </trkpt>
      <trkpt lat="45.50747" lon="6.70769">
        <ele>2070.5</ele>
        <time>2021-08-15T08:35:13Z</time>
      </trkpt>
      <trkpt lat="45.50748" lon="6.70768">
        <ele>2070.5</ele>
        <time>2021-08-15T08:35:14Z</time>
      </trkpt>
      <trkpt lat="45.50748" lon="6.70767">
        <ele>2070.5</ele>
        <time>2021-08-15T08:35:15Z</time>
      </trkpt>
      <trkpt lat="45.50749" lon="6.70766">
        <ele>2070.6</ele>
        <time>2021-08-15T08:35:16Z</time>
      </trkpt>
      <trkpt lat="45.50749" lon="6.70765">
        <ele>2070.6</ele>
        <time>2021-08-15T08:35:17Z</time>
      </trkpt>
      <trkpt lat="45.50749" lon="6.70764">
        <ele>2070.6</ele>
        <time>2021-08-15T08:35:18Z</time>
      </trkpt>
      <trkpt lat="45.5075" lon="6.70763">
        <ele>2070.6</ele>
        <time>2021-08-15T08:35:19Z</time>
      </trkpt>
      <trkpt lat="45.5075" lon="6.70762">
        <ele>2070.7</ele>
        <time>2021-08-15T08:35:20Z</time>
      </trkpt>
      <trkpt lat="45.50751" lon="6.70761">
        <ele>2070.7</ele>
        <time>2021-08-15T08:35:21Z</time>
      </trkpt>
      <trkpt lat="45.50751" lon="6.7076">
        <ele>2070.7</ele>
        <time>2021-08-15T08:35:22Z</time>
      </trkpt>
      <trkpt lat="45.50752" lon="6.70758">
        <ele>2070.8</ele>
        <time>2021-08-15T08:35:23Z</time>
      </trkpt>
      <trkpt lat="45.50752" lon="6.70757">
        <ele>2070.8</ele>
        <time>2021-08-15T08:35:24Z</time>
      </trkpt>
      <trkpt lat="45.50752" lon="6.70756">
        <ele>2070.8</ele>
        <time>2021-08-15T08:35:25Z</time>
      </trkpt>
      <trkpt lat="45.50753" lon="6.70755">
        <ele>2070.9</ele>
        <time>2021-08-15T08:35:26Z</time>
      </trkpt>
      <trkpt lat="45.50755" lon="6.70754">
        <ele>2070.9</ele>
        <time>2021-08-15T08:35:27Z</time>
      </trkpt>
      <trkpt lat="45.50756" lon="6.70753">
        <ele>2071</ele>
        <time>2021-08-15T08:35:28Z</time>
      </trkpt>
      <trkpt lat="45.50757" lon="6.70752">
        <ele>2071</ele>
        <time>2021-08-15T08:35:29Z</time>
      </trkpt>
      <trkpt lat="45.50758" lon="6.70751">
        <ele>2071</ele>
        <time>2021-08-15T08:35:30Z</time>
      </trkpt>
      <trkpt lat="45.50759" lon="6.7075">
        <ele>2071.1</ele>
        <time>2021-08-15T08:35:31Z</time>
      </trkpt>
      <trkpt lat="45.50759" lon="6.7075">
        <ele>2071.1</ele>
        <time>2021-08-15T08:35:32Z</time>
      </trkpt>
      <trkpt lat="45.5076" lon="6.70749">
        <ele>2071.1</ele>
        <time>2021-08-15T08:35:33Z</time>
      </trkpt>
      <trkpt lat="45.50761" lon="6.70749">
        <ele>2071.2</ele>
        <time>2021-08-15T08:35:34Z</time>
      </trkpt>
      <trkpt lat="45.50761" lon="6.70749">
        <ele>2071.2</ele>
        <time>2021-08-15T08:35:35Z</time>
      </trkpt>
      <trkpt lat="45.50761" lon="6.70749">
        <ele>2071.2</ele>
        <time>2021-08-15T08:35:36Z</time>
      </trkpt>
      <trkpt lat="45.50762" lon="6.70749">
        <ele>2071.2</ele>
        <time>2021-08-15T08:35:37Z</time>
      </trkpt>
      <trkpt lat="45.50762" lon="6.70749">
        <ele>2071.2</ele>
        <time>2021-08-15T08:35:38Z</time>
      </trkpt>
      <trkpt lat="45.50762" lon="6.70749">
        <ele>2071.2</ele>
        <time>2021-08-15T08:35:39Z</time>
      </trkpt>
      <trkpt lat="45.50762" lon="6.70749">
        <ele>2071.2</ele>
        <time>2021-08-15T08:35:40Z</time>
      </trkpt>
      <trkpt lat="45.50762" lon="6.70749">
        <ele>2071.2</ele>
        <time>2021-08-15T08:35:41Z</time>
      </trkpt>
      <trkpt lat="45.50762" lon="6.70749">
        <ele>2071.2</ele>
        <time>2021-08-15T08:35:42Z</time>
      </trkpt>
      <trkpt lat="45.50762" lon="6.70749">
        <ele>2071.2</ele>
        <time>2021-08-15T08:35:43Z</time>
      </trkpt>
      <trkpt lat="45.50762" lon="6.70749">
        <ele>2071.2</ele>
        <time>2021-08-15T08:35:44Z</time>
      </trkpt>
      <trkpt lat="45.50762" lon="6.70749">
        <ele>2071.2</ele>
        <time>2021-08-15T08:35:45Z</time>
      </trkpt>
      <trkpt lat="45.50762" lon="6.70749">
        <ele>2071.2</ele>
        <time>2021-08-15T08:35:46Z</time>
      </trkpt>
      <trkpt lat="45.50762" lon="6.70749">
        <ele>2071.2</ele>
        <time>2021-08-15T08:35:47Z</time>
      </trkpt>
      <trkpt lat="45.50762" lon="6.70749">
        <ele>2071.2</ele>
        <time>2021-08-15T08:35:48Z</time>
      </trkpt>
      <trkpt lat="45.50762" lon="6.70749">
        <ele>2071.2</ele>
        <time>2021-08-15T08:35:49Z</time>
      </trkpt>
      <trkpt lat="45.50761" lon="6.70749">
        <ele>2071.2</ele>
        <time>2021-08-15T08:35:50Z</time>
      </trkpt>
      <trkpt lat="45.50761" lon="6.70748">
        <ele>2071.3</ele>
        <time>2021-08-15T08:35:51Z</time>
      </trkpt>
      <trkpt lat="45.50761" lon="6.70748">
        <ele>2071.3</ele>
        <time>2021-08-15T08:35:52Z</time>
      </trkpt>
      <trkpt lat="45.50761" lon="6.70748">
        <ele>2071.3</ele>
        <time>2021-08-15T08:35:53Z</time>
      </trkpt>
      <trkpt lat="45.50761" lon="6.70748">
        <ele>2071.3</ele>
        <time>2021-08-15T08:35:54Z</time>
      </trkpt>
      <trkpt lat="45.50761" lon="6.70747">
        <ele>2071.3</ele>
        <time>2021-08-15T08:35:55Z</time>
      </trkpt>
      <trkpt lat="45.50761" lon="6.70747">
        <ele>2071.3</ele>
        <time>2021-08-15T08:35:56Z</time>
      </trkpt>
      <trkpt lat="45.50761" lon="6.70747">
        <ele>2071.3</ele>
        <time>2021-08-15T08:35:57Z</time>
      </trkpt>
      <trkpt lat="45.50761" lon="6.70747">
        <ele>2071.3</ele>
        <time>2021-08-15T08:35:58Z</time>
      </trkpt>
      <trkpt lat="45.50761" lon="6.70747">
        <ele>2071.3</ele>
        <time>2021-08-15T08:35:59Z</time>
      </trkpt>
      <trkpt lat="45.50761" lon="6.70747">
        <ele>2071.3</ele>
        <time>2021-08-15T08:36:00Z</time>
      </trkpt>
      <trkpt lat="45.50761" lon="6.70747">
        <ele>2071.3</ele>
        <time>2021-08-15T08:36:01Z</time>
      </trkpt>
      <trkpt lat="45.50761" lon="6.70747">
        <ele>2071.3</ele>
        <time>2021-08-15T08:36:02Z</time>
      </trkpt>
      <trkpt lat="45.50761" lon="6.70747">
        <ele>2071.3</ele>
        <time>2021-08-15T08:36:03Z</time>
      </trkpt>
      <trkpt lat="45.50761" lon="6.70747">
        <ele>2071.3</ele>
        <time>2021-08-15T08:36:04Z</time>
      </trkpt>
      <trkpt lat="45.50762" lon="6.70747">
        <ele>2071.5</ele>
        <time>2021-08-15T08:36:05Z</time>
      </trkpt>
      <trkpt lat="45.50762" lon="6.70747">
        <ele>2071.5</ele>
        <time>2021-08-15T08:36:06Z</time>
      </trkpt>
      <trkpt lat="45.50762" lon="6.70746">
        <ele>2071.6</ele>
        <time>2021-08-15T08:36:07Z</time>
      </trkpt>
      <trkpt lat="45.50763" lon="6.70746">
        <ele>2071.7</ele>
        <time>2021-08-15T08:36:08Z</time>
      </trkpt>
      <trkpt lat="45.50764" lon="6.70745">
        <ele>2071.8</ele>
        <time>2021-08-15T08:36:09Z</time>
      </trkpt>
      <trkpt lat="45.50765" lon="6.70744">
        <ele>2071.9</ele>
        <time>2021-08-15T08:36:10Z</time>
      </trkpt>
      <trkpt lat="45.50766" lon="6.70744">
        <ele>2072</ele>
        <time>2021-08-15T08:36:11Z</time>
      </trkpt>
      <trkpt lat="45.50767" lon="6.70743">
        <ele>2072.2</ele>
        <time>2021-08-15T08:36:12Z</time>
      </trkpt>
      <trkpt lat="45.50768" lon="6.70742">
        <ele>2072.3</ele>
        <time>2021-08-15T08:36:13Z</time>
      </trkpt>
      <trkpt lat="45.50769" lon="6.70742">
        <ele>2072.5</ele>
        <time>2021-08-15T08:36:14Z</time>
      </trkpt>
      <trkpt lat="45.5077" lon="6.70741">
        <ele>2072.6</ele>
        <time>2021-08-15T08:36:15Z</time>
      </trkpt>
      <trkpt lat="45.50772" lon="6.7074">
        <ele>2072.8</ele>
        <time>2021-08-15T08:36:16Z</time>
      </trkpt>
      <trkpt lat="45.50773" lon="6.7074">
        <ele>2073</ele>
        <time>2021-08-15T08:36:17Z</time>
      </trkpt>
      <trkpt lat="45.50774" lon="6.70739">
        <ele>2073.1</ele>
        <time>2021-08-15T08:36:18Z</time>
      </trkpt>
      <trkpt lat="45.50775" lon="6.70739">
        <ele>2073.3</ele>
        <time>2021-08-15T08:36:19Z</time>
      </trkpt>
      <trkpt lat="45.50776" lon="6.70738">
        <ele>2073.4</ele>
        <time>2021-08-15T08:36:20Z</time>
      </trkpt>
      <trkpt lat="45.50777" lon="6.70738">
        <ele>2073.5</ele>
        <time>2021-08-15T08:36:21Z</time>
      </trkpt>
      <trkpt lat="45.50778" lon="6.70738">
        <ele>2073.6</ele>
        <time>2021-08-15T08:36:22Z</time>
      </trkpt>
      <trkpt lat="45.50778" lon="6.70737">
        <ele>2073.7</ele>
        <time>2021-08-15T08:36:23Z</time>
      </trkpt>
      <trkpt lat="45.50779" lon="6.70737">
        <ele>2073.7</ele>
        <time>2021-08-15T08:36:24Z</time>
      </trkpt>
      <trkpt lat="45.50779" lon="6.70737">
        <ele>2073.8</ele>
        <time>2021-08-15T08:36:25Z</time>
      </trkpt>
      <trkpt lat="45.50779" lon="6.70737">
        <ele>2073.8</ele>
        <time>2021-08-15T08:36:26Z</time>
      </trkpt>
      <trkpt lat="45.50779" lon="6.70737">
        <ele>2073.8</ele>
        <time>2021-08-15T08:36:27Z</time>
      </trkpt>
      <trkpt lat="45.50779" lon="6.70738">
        <ele>2073.7</ele>
        <time>2021-08-15T08:36:28Z</time>
      </trkpt>
      <trkpt lat="45.50778" lon="6.70738">
        <ele>2073.7</ele>
        <time>2021-08-15T08:36:29Z</time>
      </trkpt>
      <trkpt lat="45.50778" lon="6.70739">
        <ele>2073.6</ele>
        <time>2021-08-15T08:36:30Z</time>
      </trkpt>
      <trkpt lat="45.50777" lon="6.70739">
        <ele>2073.5</ele>
        <time>2021-08-15T08:36:31Z</time>
      </trkpt>
      <trkpt lat="45.50776" lon="6.7074">
        <ele>2073.3</ele>
        <time>2021-08-15T08:36:32Z</time>
      </trkpt>
      <trkpt lat="45.50775" lon="6.70741">
        <ele>2073.2</ele>
        <time>2021-08-15T08:36:33Z</time>
      </trkpt>
      <trkpt lat="45.50774" lon="6.70741">
        <ele>2073</ele>
        <time>2021-08-15T08:36:34Z</time>
      </trkpt>
      <trkpt lat="45.50772" lon="6.70742">
        <ele>2072.8</ele>
        <time>2021-08-15T08:36:35Z</time>
      </trkpt>
      <trkpt lat="45.50771" lon="6.70743">
        <ele>2072.7</ele>
        <time>2021-08-15T08:36:36Z</time>
      </trkpt>
      <trkpt lat="45.5077" lon="6.70744">
        <ele>2072.5</ele>
        <time>2021-08-15T08:36:37Z</time>
      </trkpt>
      <trkpt lat="45.50769" lon="6.70744">
        <ele>2072.3</ele>
        <time>2021-08-15T08:36:38Z</time>
      </trkpt>
      <trkpt lat="45.50768" lon="6.70745">
        <ele>2072.2</ele>
        <time>2021-08-15T08:36:39Z</time>
      </trkpt>
      <trkpt lat="45.50767" lon="6.70746">
        <ele>2072.1</ele>
        <time>2021-08-15T08:36:40Z</time>
      </trkpt>
      <trkpt lat="45.50766" lon="6.70746">
        <ele>2071.9</ele>
        <time>2021-08-15T08:36:41Z</time>
      </trkpt>
      <trkpt lat="45.50765" lon="6.70747">
        <ele>2071.8</ele>
        <time>2021-08-15T08:36:42Z</time>
      </trkpt>
      <trkpt lat="45.50764" lon="6.70748">
        <ele>2071.7</ele>
        <time>2021-08-15T08:36:43Z</time>
      </trkpt>
      <trkpt lat="45.50763" lon="6.70749">
        <ele>2071.5</ele>
        <time>2021-08-15T08:36:44Z</time>
      </trkpt>
      <trkpt lat="45.50761" lon="6.70751">
        <ele>2071.2</ele>
        <time>2021-08-15T08:36:45Z</time>
      </trkpt>
      <trkpt lat="45.50761" lon="6.70752">
        <ele>2071.2</ele>
        <time>2021-08-15T08:36:46Z</time>
      </trkpt>
      <trkpt lat="45.5076" lon="6.70752">
        <ele>2071.1</ele>
        <time>2021-08-15T08:36:47Z</time>
      </trkpt>
      <trkpt lat="45.50759" lon="6.70754">
        <ele>2071.1</ele>
        <time>2021-08-15T08:36:48Z</time>
      </trkpt>
      <trkpt lat="45.50759" lon="6.70755">
        <ele>2071</ele>
        <time>2021-08-15T08:36:49Z</time>
      </trkpt>
      <trkpt lat="45.50758" lon="6.70756">
        <ele>2071</ele>
        <time>2021-08-15T08:36:50Z</time>
      </trkpt>
      <trkpt lat="45.50757" lon="6.70757">
        <ele>2071</ele>
        <time>2021-08-15T08:36:51Z</time>
      </trkpt>
      <trkpt lat="45.50756" lon="6.70758">
        <ele>2070.9</ele>
        <time>2021-08-15T08:36:52Z</time>
      </trkpt>
      <trkpt lat="45.50756" lon="6.70759">
        <ele>2070.9</ele>
        <time>2021-08-15T08:36:53Z</time>
      </trkpt>
      <trkpt lat="45.50755" lon="6.7076">
        <ele>2070.9</ele>
        <time>2021-08-15T08:36:54Z</time>
      </trkpt>
      <trkpt lat="45.50755" lon="6.70761">
        <ele>2070.8</ele>
        <time>2021-08-15T08:36:55Z</time>
      </trkpt>
      <trkpt lat="45.50754" lon="6.70762">
        <ele>2070.8</ele>
        <time>2021-08-15T08:36:56Z</time>
      </trkpt>
      <trkpt lat="45.50754" lon="6.70763">
        <ele>2070.8</ele>
        <time>2021-08-15T08:36:57Z</time>
      </trkpt>
      <trkpt lat="45.50753" lon="6.70764">
        <ele>2070.7</ele>
        <time>2021-08-15T08:36:58Z</time>
      </trkpt>
      <trkpt lat="45.50753" lon="6.70765">
        <ele>2070.7</ele>
        <time>2021-08-15T08:36:59Z</time>
      </trkpt>
      <trkpt lat="45.50752" lon="6.70766">
        <ele>2070.6</ele>
        <time>2021-08-15T08:37:00Z</time>
      </trkpt>
      <trkpt lat="45.50752" lon="6.70767">
        <ele>2070.6</ele>
        <time>2021-08-15T08:37:01Z</time>
      </trkpt>
      <trkpt lat="45.50751" lon="6.70769">
        <ele>2070.6</ele>
        <time>2021-08-15T08:37:02Z</time>
      </trkpt>
      <trkpt lat="45.5075" lon="6.7077">
        <ele>2070.5</ele>
        <time>2021-08-15T08:37:03Z</time>
      </trkpt>
      <trkpt lat="45.5075" lon="6.70771">
        <ele>2070.5</ele>
        <time>2021-08-15T08:37:04Z</time>
      </trkpt>
      <trkpt lat="45.50749" lon="6.70773">
        <ele>2070.4</ele>
        <time>2021-08-15T08:37:05Z</time>
      </trkpt>
      <trkpt lat="45.50748" lon="6.70774">
        <ele>2070.4</ele>
        <time>2021-08-15T08:37:06Z</time>
      </trkpt>
      <trkpt lat="45.50748" lon="6.70776">
        <ele>2070.4</ele>
        <time>2021-08-15T08:37:07Z</time>
      </trkpt>
      <trkpt lat="45.50747" lon="6.70777">
        <ele>2070.3</ele>
        <time>2021-08-15T08:37:08Z</time>
      </trkpt>
      <trkpt lat="45.50746" lon="6.70778">
        <ele>2070.3</ele>
        <time>2021-08-15T08:37:09Z</time>
      </trkpt>
      <trkpt lat="45.50745" lon="6.70779">
        <ele>2070.2</ele>
        <time>2021-08-15T08:37:10Z</time>
      </trkpt>
      <trkpt lat="45.50744" lon="6.7078">
        <ele>2070.2</ele>
        <time>2021-08-15T08:37:11Z</time>
      </trkpt>
      <trkpt lat="45.50743" lon="6.70781">
        <ele>2070.1</ele>
        <time>2021-08-15T08:37:12Z</time>
      </trkpt>
      <trkpt lat="45.50742" lon="6.70782">
        <ele>2070.1</ele>
        <time>2021-08-15T08:37:13Z</time>
      </trkpt>
      <trkpt lat="45.50741" lon="6.70783">
        <ele>2070</ele>
        <time>2021-08-15T08:37:14Z</time>
      </trkpt>
      <trkpt lat="45.5074" lon="6.70783">
        <ele>2070</ele>
        <time>2021-08-15T08:37:15Z</time>
      </trkpt>
      <trkpt lat="45.50739" lon="6.70783">
        <ele>2069.9</ele>
        <time>2021-08-15T08:37:16Z</time>
      </trkpt>
      <trkpt lat="45.50738" lon="6.70784">
        <ele>2069.9</ele>
        <time>2021-08-15T08:37:17Z</time>
      </trkpt>
      <trkpt lat="45.50737" lon="6.70784">
        <ele>2070</ele>
        <time>2021-08-15T08:37:18Z</time>
      </trkpt>
      <trkpt lat="45.50735" lon="6.70785">
        <ele>2070</ele>
        <time>2021-08-15T08:37:19Z</time>
      </trkpt>
      <trkpt lat="45.50734" lon="6.70785">
        <ele>2070</ele>
        <time>2021-08-15T08:37:20Z</time>
      </trkpt>
      <trkpt lat="45.50733" lon="6.70786">
        <ele>2070</ele>
        <time>2021-08-15T08:37:21Z</time>
      </trkpt>
      <trkpt lat="45.50732" lon="6.70787">
        <ele>2070</ele>
        <time>2021-08-15T08:37:22Z</time>
      </trkpt>
      <trkpt lat="45.50731" lon="6.70788">
        <ele>2070</ele>
        <time>2021-08-15T08:37:23Z</time>
      </trkpt>
      <trkpt lat="45.50731" lon="6.70789">
        <ele>2070</ele>
        <time>2021-08-15T08:37:24Z</time>
      </trkpt>
      <trkpt lat="45.5073" lon="6.7079">
        <ele>2070</ele>
        <time>2021-08-15T08:37:25Z</time>
      </trkpt>
      <trkpt lat="45.50729" lon="6.70791">
        <ele>2070</ele>
        <time>2021-08-15T08:37:26Z</time>
      </trkpt>
      <trkpt lat="45.50728" lon="6.70792">
        <ele>2070</ele>
        <time>2021-08-15T08:37:27Z</time>
      </trkpt>
      <trkpt lat="45.50727" lon="6.70794">
        <ele>2070.1</ele>
        <time>2021-08-15T08:37:28Z</time>
      </trkpt>
      <trkpt lat="45.50727" lon="6.70795">
        <ele>2070.1</ele>
        <time>2021-08-15T08:37:29Z</time>
      </trkpt>
      <trkpt lat="45.50726" lon="6.70797">
        <ele>2070.1</ele>
        <time>2021-08-15T08:37:30Z</time>
      </trkpt>
      <trkpt lat="45.50726" lon="6.70798">
        <ele>2070.1</ele>
        <time>2021-08-15T08:37:31Z</time>
      </trkpt>
      <trkpt lat="45.50725" lon="6.70799">
        <ele>2070.1</ele>
        <time>2021-08-15T08:37:32Z</time>
      </trkpt>
      <trkpt lat="45.50724" lon="6.70801">
        <ele>2070.1</ele>
        <time>2021-08-15T08:37:33Z</time>
      </trkpt>
      <trkpt lat="45.50724" lon="6.70802">
        <ele>2070.1</ele>
        <time>2021-08-15T08:37:34Z</time>
      </trkpt>
      <trkpt lat="45.50724" lon="6.70803">
        <ele>2070.1</ele>
        <time>2021-08-15T08:37:35Z</time>
      </trkpt>
      <trkpt lat="45.50723" lon="6.70805">
        <ele>2070.1</ele>
        <time>2021-08-15T08:37:36Z</time>
      </trkpt>
      <trkpt lat="45.50723" lon="6.70806">
        <ele>2070.1</ele>
        <time>2021-08-15T08:37:37Z</time>
      </trkpt>
      <trkpt lat="45.50722" lon="6.70807">
        <ele>2070.2</ele>
        <time>2021-08-15T08:37:38Z</time>
      </trkpt>
      <trkpt lat="45.50722" lon="6.70808">
        <ele>2070.2</ele>
        <time>2021-08-15T08:37:39Z</time>
      </trkpt>
      <trkpt lat="45.50722" lon="6.70809">
        <ele>2070.2</ele>
        <time>2021-08-15T08:37:40Z</time>
      </trkpt>
      <trkpt lat="45.50722" lon="6.70809">
        <ele>2070.2</ele>
        <time>2021-08-15T08:37:41Z</time>
      </trkpt>
      <trkpt lat="45.50721" lon="6.7081">
        <ele>2070.2</ele>
        <time>2021-08-15T08:37:42Z</time>
      </trkpt>
      <trkpt lat="45.50721" lon="6.7081">
        <ele>2070.2</ele>
        <time>2021-08-15T08:37:43Z</time>
      </trkpt>
      <trkpt lat="45.50721" lon="6.70811">
        <ele>2070.2</ele>
        <time>2021-08-15T08:37:44Z</time>
      </trkpt>
      <trkpt lat="45.50721" lon="6.70811">
        <ele>2070.2</ele>
        <time>2021-08-15T08:37:45Z</time>
      </trkpt>
      <trkpt lat="45.50721" lon="6.70811">
        <ele>2070.2</ele>
        <time>2021-08-15T08:37:46Z</time>
      </trkpt>
      <trkpt lat="45.50721" lon="6.70811">
        <ele>2070.2</ele>
        <time>2021-08-15T08:37:47Z</time>
      </trkpt>
      <trkpt lat="45.50721" lon="6.70811">
        <ele>2070.2</ele>
        <time>2021-08-15T08:37:48Z</time>
      </trkpt>
      <trkpt lat="45.50721" lon="6.70811">
        <ele>2070.2</ele>
        <time>2021-08-15T08:37:49Z</time>
      </trkpt>
      <trkpt lat="45.50721" lon="6.70811">
        <ele>2070.2</ele>
        <time>2021-08-15T08:37:50Z</time>
      </trkpt>
      <trkpt lat="45.50721" lon="6.70811">
        <ele>2070.2</ele>
        <time>2021-08-15T08:37:51Z</time>
      </trkpt>
      <trkpt lat="45.50721" lon="6.70811">
        <ele>2070.2</ele>
        <time>2021-08-15T08:37:52Z</time>
      </trkpt>
      <trkpt lat="45.50721" lon="6.70811">
        <ele>2070.2</ele>
        <time>2021-08-15T08:37:53Z</time>
      </trkpt>
      <trkpt lat="45.50721" lon="6.70811">
        <ele>2070.2</ele>
        <time>2021-08-15T08:37:54Z</time>
      </trkpt>
      <trkpt lat="45.50721" lon="6.70811">
        <ele>2070.2</ele>
        <time>2021-08-15T08:37:55Z</time>
      </trkpt>
      <trkpt lat="45.50721" lon="6.70811">
        <ele>2070.2</ele>
        <time>2021-08-15T08:37:56Z</time>
      </trkpt>
      <trkpt lat="45.50721" lon="6.70811">
        <ele>2070.2</ele>
        <time>2021-08-15T08:37:57Z</time>
      </trkpt>
      <trkpt lat="45.50721" lon="6.70811">
        <ele>2070.2</ele>
        <time>2021-08-15T08:37:58Z</time>
      </trkpt>
      <trkpt lat="45.50721" lon="6.70811">
        <ele>2070.2</ele>
        <time>2021-08-15T08:37:59Z</time>
      </trkpt>
      <trkpt lat="45.50721" lon="6.70811">
        <ele>2070.2</ele>
        <time>2021-08-15T08:38:00Z</time>
      </trkpt>
      <trkpt lat="45.50721" lon="6.70811">
        <ele>2070.2</ele>
        <time>2021-08-15T08:38:01Z</time>
      </trkpt>
      <trkpt lat="45.50721" lon="6.70811">
        <ele>2070.2</ele>
        <time>2021-08-15T08:38:02Z</time>
      </trkpt>
      <trkpt lat="45.50721" lon="6.70811">
        <ele>2070.2</ele>
        <time>2021-08-15T08:38:03Z</time>
      </trkpt>
      <trkpt lat="45.50721" lon="6.70811">
        <ele>2070.2</ele>
        <time>2021-08-15T08:38:04Z</time>
      </trkpt>
      <trkpt lat="45.50721" lon="6.7081">
        <ele>2070.2</ele>
        <time>2021-08-15T08:38:05Z</time>
      </trkpt>
      <trkpt lat="45.50721" lon="6.7081">
        <ele>2070.2</ele>
        <time>2021-08-15T08:38:06Z</time>
      </trkpt>
      <trkpt lat="45.50721" lon="6.7081">
        <ele>2070.2</ele>
        <time>2021-08-15T08:38:07Z</time>
      </trkpt>
      <trkpt lat="45.50722" lon="6.70805">
        <ele>2070.2</ele>
        <time>2021-08-15T08:38:08Z</time>
      </trkpt>
      <trkpt lat="45.50721" lon="6.70802">
        <ele>2070.2</ele>
        <time>2021-08-15T08:38:09Z</time>
      </trkpt>
      <trkpt lat="45.50721" lon="6.70801">
        <ele>2070.2</ele>
        <time>2021-08-15T08:38:10Z</time>
      </trkpt>
      <trkpt lat="45.50721" lon="6.708">
        <ele>2070.3</ele>
        <time>2021-08-15T08:38:11Z</time>
      </trkpt>
      <trkpt lat="45.5072" lon="6.70799">
        <ele>2070.3</ele>
        <time>2021-08-15T08:38:12Z</time>
      </trkpt>
      <trkpt lat="45.5072" lon="6.70798">
        <ele>2070.3</ele>
        <time>2021-08-15T08:38:13Z</time>
      </trkpt>
      <trkpt lat="45.5072" lon="6.70797">
        <ele>2070.3</ele>
        <time>2021-08-15T08:38:14Z</time>
      </trkpt>
      <trkpt lat="45.50721" lon="6.70796">
        <ele>2070.3</ele>
        <time>2021-08-15T08:38:15Z</time>
      </trkpt>
      <trkpt lat="45.50721" lon="6.70794">
        <ele>2070.3</ele>
        <time>2021-08-15T08:38:16Z</time>
      </trkpt>
      <trkpt lat="45.50721" lon="6.70793">
        <ele>2070.3</ele>
        <time>2021-08-15T08:38:17Z</time>
      </trkpt>
      <trkpt lat="45.50722" lon="6.70792">
        <ele>2070.3</ele>
        <time>2021-08-15T08:38:18Z</time>
      </trkpt>
      <trkpt lat="45.50722" lon="6.70791">
        <ele>2070.3</ele>
        <time>2021-08-15T08:38:19Z</time>
      </trkpt>
      <trkpt lat="45.50723" lon="6.7079">
        <ele>2070.3</ele>
        <time>2021-08-15T08:38:20Z</time>
      </trkpt>
      <trkpt lat="45.50723" lon="6.7079">
        <ele>2070.3</ele>
        <time>2021-08-15T08:38:21Z</time>
      </trkpt>
      <trkpt lat="45.50723" lon="6.70789">
        <ele>2070.3</ele>
        <time>2021-08-15T08:38:22Z</time>
      </trkpt>
      <trkpt lat="45.50723" lon="6.70789">
        <ele>2070.3</ele>
        <time>2021-08-15T08:38:23Z</time>
      </trkpt>
      <trkpt lat="45.50724" lon="6.70789">
        <ele>2070.3</ele>
        <time>2021-08-15T08:38:24Z</time>
      </trkpt>
      <trkpt lat="45.50724" lon="6.70789">
        <ele>2070.3</ele>
        <time>2021-08-15T08:38:25Z</time>
      </trkpt>
      <trkpt lat="45.50724" lon="6.70789">
        <ele>2070.3</ele>
        <time>2021-08-15T08:38:26Z</time>
      </trkpt>
      <trkpt lat="45.50724" lon="6.70789">
        <ele>2070.3</ele>
        <time>2021-08-15T08:38:27Z</time>
      </trkpt>
      <trkpt lat="45.50724" lon="6.70789">
        <ele>2070.3</ele>
        <time>2021-08-15T08:38:28Z</time>
      </trkpt>
      <trkpt lat="45.50724" lon="6.70789">
        <ele>2070.3</ele>
        <time>2021-08-15T08:38:29Z</time>
      </trkpt>
      <trkpt lat="45.50724" lon="6.7079">
        <ele>2070.3</ele>
        <time>2021-08-15T08:38:30Z</time>
      </trkpt>
      <trkpt lat="45.50724" lon="6.7079">
        <ele>2070.3</ele>
        <time>2021-08-15T08:38:31Z</time>
      </trkpt>
      <trkpt lat="45.50724" lon="6.70791">
        <ele>2070.4</ele>
        <time>2021-08-15T08:38:32Z</time>
      </trkpt>
      <trkpt lat="45.50724" lon="6.70791">
        <ele>2070.4</ele>
        <time>2021-08-15T08:38:33Z</time>
      </trkpt>
      <trkpt lat="45.50724" lon="6.70792">
        <ele>2070.4</ele>
        <time>2021-08-15T08:38:34Z</time>
      </trkpt>
      <trkpt lat="45.50724" lon="6.70792">
        <ele>2070.4</ele>
        <time>2021-08-15T08:38:35Z</time>
      </trkpt>
      <trkpt lat="45.50724" lon="6.70793">
        <ele>2070.4</ele>
        <time>2021-08-15T08:38:36Z</time>
      </trkpt>
      <trkpt lat="45.50724" lon="6.70794">
        <ele>2070.4</ele>
        <time>2021-08-15T08:38:37Z</time>
      </trkpt>
      <trkpt lat="45.50724" lon="6.70794">
        <ele>2070.4</ele>
        <time>2021-08-15T08:38:38Z</time>
      </trkpt>
      <trkpt lat="45.50724" lon="6.70794">
        <ele>2070.4</ele>
        <time>2021-08-15T08:38:39Z</time>
      </trkpt>
      <trkpt lat="45.50724" lon="6.70795">
        <ele>2070.4</ele>
        <time>2021-08-15T08:38:40Z</time>
      </trkpt>
      <trkpt lat="45.50724" lon="6.70795">
        <ele>2070.4</ele>
        <time>2021-08-15T08:38:41Z</time>
      </trkpt>
      <trkpt lat="45.50724" lon="6.70795">
        <ele>2070.4</ele>
        <time>2021-08-15T08:38:42Z</time>
      </trkpt>
      <trkpt lat="45.50724" lon="6.70795">
        <ele>2070.4</ele>
        <time>2021-08-15T08:38:43Z</time>
      </trkpt>
      <trkpt lat="45.50724" lon="6.70795">
        <ele>2070.4</ele>
        <time>2021-08-15T08:38:44Z</time>
      </trkpt>
      <trkpt lat="45.50724" lon="6.70795">
        <ele>2070.4</ele>
        <time>2021-08-15T08:38:45Z</time>
      </trkpt>
      <trkpt lat="45.50724" lon="6.70795">
        <ele>2070.4</ele>
        <time>2021-08-15T08:38:46Z</time>
      </trkpt>
      <trkpt lat="45.50724" lon="6.70795">
        <ele>2070.4</ele>
        <time>2021-08-15T08:38:47Z</time>
      </trkpt>
      <trkpt lat="45.50724" lon="6.70796">
        <ele>2070.4</ele>
        <time>2021-08-15T08:38:48Z</time>
      </trkpt>
      <trkpt lat="45.50725" lon="6.70796">
        <ele>2070.4</ele>
        <time>2021-08-15T08:38:49Z</time>
      </trkpt>
      <trkpt lat="45.50725" lon="6.70796">
        <ele>2070.4</ele>
        <time>2021-08-15T08:38:50Z</time>
      </trkpt>
      <trkpt lat="45.50726" lon="6.70797">
        <ele>2070.4</ele>
        <time>2021-08-15T08:38:51Z</time>
      </trkpt>
      <trkpt lat="45.50726" lon="6.70797">
        <ele>2070.4</ele>
        <time>2021-08-15T08:38:52Z</time>
      </trkpt>
      <trkpt lat="45.50727" lon="6.70798">
        <ele>2070.4</ele>
        <time>2021-08-15T08:38:53Z</time>
      </trkpt>
      <trkpt lat="45.50727" lon="6.70798">
        <ele>2070.4</ele>
        <time>2021-08-15T08:38:54Z</time>
      </trkpt>
      <trkpt lat="45.50727" lon="6.70798">
        <ele>2070.4</ele>
        <time>2021-08-15T08:38:55Z</time>
      </trkpt>
      <trkpt lat="45.50727" lon="6.70799">
        <ele>2070.4</ele>
        <time>2021-08-15T08:38:56Z</time>
      </trkpt>
      <trkpt lat="45.50727" lon="6.70799">
        <ele>2070.4</ele>
        <time>2021-08-15T08:38:57Z</time>
      </trkpt>
      <trkpt lat="45.50726" lon="6.70799">
        <ele>2070.4</ele>
        <time>2021-08-15T08:38:58Z</time>
      </trkpt>
      <trkpt lat="45.50725" lon="6.708">
        <ele>2070.5</ele>
        <time>2021-08-15T08:38:59Z</time>
      </trkpt>
      <trkpt lat="45.50724" lon="6.708">
        <ele>2070.5</ele>
        <time>2021-08-15T08:39:00Z</time>
      </trkpt>
      <trkpt lat="45.50724" lon="6.708">
        <ele>2070.5</ele>
        <time>2021-08-15T08:39:01Z</time>
      </trkpt>
      <trkpt lat="45.50723" lon="6.708">
        <ele>2070.5</ele>
        <time>2021-08-15T08:39:02Z</time>
      </trkpt>
      <trkpt lat="45.50723" lon="6.708">
        <ele>2070.5</ele>
        <time>2021-08-15T08:39:03Z</time>
      </trkpt>
      <trkpt lat="45.50722" lon="6.708">
        <ele>2070.5</ele>
        <time>2021-08-15T08:39:04Z</time>
      </trkpt>
      <trkpt lat="45.50722" lon="6.708">
        <ele>2070.5</ele>
        <time>2021-08-15T08:39:05Z</time>
      </trkpt>
      <trkpt lat="45.50722" lon="6.708">
        <ele>2070.5</ele>
        <time>2021-08-15T08:39:06Z</time>
      </trkpt>
      <trkpt lat="45.50722" lon="6.708">
        <ele>2070.5</ele>
        <time>2021-08-15T08:39:07Z</time>
      </trkpt>
      <trkpt lat="45.50722" lon="6.708">
        <ele>2070.5</ele>
        <time>2021-08-15T08:39:08Z</time>
      </trkpt>
      <trkpt lat="45.50722" lon="6.70799">
        <ele>2070.5</ele>
        <time>2021-08-15T08:39:09Z</time>
      </trkpt>
      <trkpt lat="45.50722" lon="6.70799">
        <ele>2070.5</ele>
        <time>2021-08-15T08:39:10Z</time>
      </trkpt>
      <trkpt lat="45.50722" lon="6.70799">
        <ele>2070.5</ele>
        <time>2021-08-15T08:39:11Z</time>
      </trkpt>
      <trkpt lat="45.50722" lon="6.70799">
        <ele>2070.5</ele>
        <time>2021-08-15T08:39:12Z</time>
      </trkpt>
      <trkpt lat="45.50721" lon="6.70799">
        <ele>2070.5</ele>
        <time>2021-08-15T08:39:13Z</time>
      </trkpt>
      <trkpt lat="45.50721" lon="6.70799">
        <ele>2070.5</ele>
        <time>2021-08-15T08:39:14Z</time>
      </trkpt>
      <trkpt lat="45.50721" lon="6.70799">
        <ele>2070.5</ele>
        <time>2021-08-15T08:39:15Z</time>
      </trkpt>
      <trkpt lat="45.50721" lon="6.70799">
        <ele>2070.5</ele>
        <time>2021-08-15T08:39:16Z</time>
      </trkpt>
      <trkpt lat="45.50721" lon="6.70799">
        <ele>2070.5</ele>
        <time>2021-08-15T08:39:17Z</time>
      </trkpt>
      <trkpt lat="45.50721" lon="6.70798">
        <ele>2070.5</ele>
        <time>2021-08-15T08:39:18Z</time>
      </trkpt>
      <trkpt lat="45.50721" lon="6.70798">
        <ele>2070.5</ele>
        <time>2021-08-15T08:39:19Z</time>
      </trkpt>
      <trkpt lat="45.50721" lon="6.70798">
        <ele>2070.5</ele>
        <time>2021-08-15T08:39:20Z</time>
      </trkpt>
      <trkpt lat="45.50721" lon="6.70798">
        <ele>2070.5</ele>
        <time>2021-08-15T08:39:21Z</time>
      </trkpt>
      <trkpt lat="45.50721" lon="6.70798">
        <ele>2070.5</ele>
        <time>2021-08-15T08:39:22Z</time>
      </trkpt>
      <trkpt lat="45.50721" lon="6.70798">
        <ele>2070.5</ele>
        <time>2021-08-15T08:39:23Z</time>
      </trkpt>
      <trkpt lat="45.50721" lon="6.70798">
        <ele>2070.5</ele>
        <time>2021-08-15T08:39:24Z</time>
      </trkpt>
      <trkpt lat="45.50721" lon="6.70798">
        <ele>2070.5</ele>
        <time>2021-08-15T08:39:25Z</time>
      </trkpt>
      <trkpt lat="45.50721" lon="6.70798">
        <ele>2070.5</ele>
        <time>2021-08-15T08:39:26Z</time>
      </trkpt>
      <trkpt lat="45.5072" lon="6.70797">
        <ele>2070.5</ele>
        <time>2021-08-15T08:39:27Z</time>
      </trkpt>
      <trkpt lat="45.5072" lon="6.70797">
        <ele>2070.5</ele>
        <time>2021-08-15T08:39:28Z</time>
      </trkpt>
      <trkpt lat="45.5072" lon="6.70797">
        <ele>2070.5</ele>
        <time>2021-08-15T08:39:29Z</time>
      </trkpt>
      <trkpt lat="45.5072" lon="6.70797">
        <ele>2070.5</ele>
        <time>2021-08-15T08:39:30Z</time>
      </trkpt>
      <trkpt lat="45.5072" lon="6.70797">
        <ele>2070.5</ele>
        <time>2021-08-15T08:39:31Z</time>
      </trkpt>
      <trkpt lat="45.5072" lon="6.70797">
        <ele>2070.5</ele>
        <time>2021-08-15T08:39:32Z</time>
      </trkpt>
      <trkpt lat="45.5072" lon="6.70797">
        <ele>2070.5</ele>
        <time>2021-08-15T08:39:33Z</time>
      </trkpt>
      <trkpt lat="45.5072" lon="6.70797">
        <ele>2070.5</ele>
        <time>2021-08-15T08:39:34Z</time>
      </trkpt>
      <trkpt lat="45.5072" lon="6.70797">
        <ele>2070.5</ele>
        <time>2021-08-15T08:39:35Z</time>
      </trkpt>
      <trkpt lat="45.5072" lon="6.70796">
        <ele>2070.5</ele>
        <time>2021-08-15T08:39:36Z</time>
      </trkpt>
      <trkpt lat="45.5072" lon="6.70796">
        <ele>2070.5</ele>
        <time>2021-08-15T08:39:37Z</time>
      </trkpt>
      <trkpt lat="45.5072" lon="6.70796">
        <ele>2070.5</ele>
        <time>2021-08-15T08:39:38Z</time>
      </trkpt>
      <trkpt lat="45.5072" lon="6.70796">
        <ele>2070.5</ele>
        <time>2021-08-15T08:39:39Z</time>
      </trkpt>
      <trkpt lat="45.5072" lon="6.70796">
        <ele>2070.5</ele>
        <time>2021-08-15T08:39:40Z</time>
      </trkpt>
      <trkpt lat="45.50719" lon="6.70796">
        <ele>2070.5</ele>
        <time>2021-08-15T08:39:41Z</time>
      </trkpt>
      <trkpt lat="45.50719" lon="6.70796">
        <ele>2070.5</ele>
        <time>2021-08-15T08:39:42Z</time>
      </trkpt>
      <trkpt lat="45.50719" lon="6.70796">
        <ele>2070.5</ele>
        <time>2021-08-15T08:39:43Z</time>
      </trkpt>
      <trkpt lat="45.50719" lon="6.70796">
        <ele>2070.5</ele>
        <time>2021-08-15T08:39:44Z</time>
      </trkpt>
      <trkpt lat="45.50719" lon="6.70795">
        <ele>2070.5</ele>
        <time>2021-08-15T08:39:45Z</time>
      </trkpt>
      <trkpt lat="45.50719" lon="6.70795">
        <ele>2070.5</ele>
        <time>2021-08-15T08:39:46Z</time>
      </trkpt>
      <trkpt lat="45.50719" lon="6.70795">
        <ele>2070.5</ele>
        <time>2021-08-15T08:39:47Z</time>
      </trkpt>
      <trkpt lat="45.50719" lon="6.70795">
        <ele>2070.5</ele>
        <time>2021-08-15T08:39:48Z</time>
      </trkpt>
      <trkpt lat="45.50719" lon="6.70795">
        <ele>2070.5</ele>
        <time>2021-08-15T08:39:49Z</time>
      </trkpt>
      <trkpt lat="45.50719" lon="6.70795">
        <ele>2070.5</ele>
        <time>2021-08-15T08:39:50Z</time>
      </trkpt>
      <trkpt lat="45.50719" lon="6.70795">
        <ele>2070.5</ele>
        <time>2021-08-15T08:39:51Z</time>
      </trkpt>
      <trkpt lat="45.50719" lon="6.70795">
        <ele>2070.5</ele>
        <time>2021-08-15T08:39:52Z</time>
      </trkpt>
      <trkpt lat="45.50719" lon="6.70795">
        <ele>2070.5</ele>
        <time>2021-08-15T08:39:53Z</time>
      </trkpt>
      <trkpt lat="45.50719" lon="6.70795">
        <ele>2070.5</ele>
        <time>2021-08-15T08:39:54Z</time>
      </trkpt>
      <trkpt lat="45.50718" lon="6.70794">
        <ele>2070.5</ele>
        <time>2021-08-15T08:39:55Z</time>
      </trkpt>
      <trkpt lat="45.50718" lon="6.70794">
        <ele>2070.5</ele>
        <time>2021-08-15T08:39:56Z</time>
      </trkpt>
      <trkpt lat="45.50718" lon="6.70794">
        <ele>2070.5</ele>
        <time>2021-08-15T08:39:57Z</time>
      </trkpt>
      <trkpt lat="45.50718" lon="6.70794">
        <ele>2070.5</ele>
        <time>2021-08-15T08:39:58Z</time>
      </trkpt>
      <trkpt lat="45.50718" lon="6.70794">
        <ele>2070.5</ele>
        <time>2021-08-15T08:39:59Z</time>
      </trkpt>
      <trkpt lat="45.50718" lon="6.70794">
        <ele>2070.5</ele>
        <time>2021-08-15T08:40:00Z</time>
      </trkpt>
      <trkpt lat="45.50718" lon="6.70794">
        <ele>2070.5</ele>
        <time>2021-08-15T08:40:01Z</time>
      </trkpt>
      <trkpt lat="45.50718" lon="6.70794">
        <ele>2070.5</ele>
        <time>2021-08-15T08:40:02Z</time>
      </trkpt>
      <trkpt lat="45.50718" lon="6.70794">
        <ele>2070.5</ele>
        <time>2021-08-15T08:40:03Z</time>
      </trkpt>
      <trkpt lat="45.50718" lon="6.70793">
        <ele>2070.6</ele>
        <time>2021-08-15T08:40:04Z</time>
      </trkpt>
      <trkpt lat="45.50718" lon="6.70793">
        <ele>2070.6</ele>
        <time>2021-08-15T08:40:05Z</time>
      </trkpt>
      <trkpt lat="45.50718" lon="6.70793">
        <ele>2070.6</ele>
        <time>2021-08-15T08:40:06Z</time>
      </trkpt>
      <trkpt lat="45.50718" lon="6.70793">
        <ele>2070.6</ele>
        <time>2021-08-15T08:40:07Z</time>
      </trkpt>
      <trkpt lat="45.50718" lon="6.70793">
        <ele>2070.6</ele>
        <time>2021-08-15T08:40:08Z</time>
      </trkpt>
      <trkpt lat="45.50717" lon="6.70793">
        <ele>2070.6</ele>
        <time>2021-08-15T08:40:09Z</time>
      </trkpt>
      <trkpt lat="45.50717" lon="6.70793">
        <ele>2070.6</ele>
        <time>2021-08-15T08:40:10Z</time>
      </trkpt>
      <trkpt lat="45.50717" lon="6.70793">
        <ele>2070.6</ele>
        <time>2021-08-15T08:40:11Z</time>
      </trkpt>
      <trkpt lat="45.50717" lon="6.70793">
        <ele>2070.6</ele>
        <time>2021-08-15T08:40:12Z</time>
      </trkpt>
      <trkpt lat="45.50717" lon="6.70792">
        <ele>2070.6</ele>
        <time>2021-08-15T08:40:13Z</time>
      </trkpt>
      <trkpt lat="45.50717" lon="6.70792">
        <ele>2070.6</ele>
        <time>2021-08-15T08:40:14Z</time>
      </trkpt>
      <trkpt lat="45.50717" lon="6.70792">
        <ele>2070.6</ele>
        <time>2021-08-15T08:40:15Z</time>
      </trkpt>
      <trkpt lat="45.50717" lon="6.70792">
        <ele>2070.6</ele>
        <time>2021-08-15T08:40:16Z</time>
      </trkpt>
      <trkpt lat="45.50717" lon="6.70792">
        <ele>2070.6</ele>
        <time>2021-08-15T08:40:17Z</time>
      </trkpt>
      <trkpt lat="45.50717" lon="6.70792">
        <ele>2070.6</ele>
        <time>2021-08-15T08:40:18Z</time>
      </trkpt>
      <trkpt lat="45.50717" lon="6.70792">
        <ele>2070.6</ele>
        <time>2021-08-15T08:40:19Z</time>
      </trkpt>
      <trkpt lat="45.50717" lon="6.70792">
        <ele>2070.6</ele>
        <time>2021-08-15T08:40:20Z</time>
      </trkpt>
      <trkpt lat="45.50717" lon="6.70792">
        <ele>2070.6</ele>
        <time>2021-08-15T08:40:21Z</time>
      </trkpt>
      <trkpt lat="45.50717" lon="6.70791">
        <ele>2070.6</ele>
        <time>2021-08-15T08:40:22Z</time>
      </trkpt>
      <trkpt lat="45.50716" lon="6.70791">
        <ele>2070.6</ele>
        <time>2021-08-15T08:40:23Z</time>
      </trkpt>
      <trkpt lat="45.50716" lon="6.70791">
        <ele>2070.6</ele>
        <time>2021-08-15T08:40:24Z</time>
      </trkpt>
      <trkpt lat="45.50716" lon="6.70791">
        <ele>2070.6</ele>
        <time>2021-08-15T08:40:25Z</time>
      </trkpt>
      <trkpt lat="45.50716" lon="6.70791">
        <ele>2070.6</ele>
        <time>2021-08-15T08:40:26Z</time>
      </trkpt>
      <trkpt lat="45.50716" lon="6.70791">
        <ele>2070.6</ele>
        <time>2021-08-15T08:40:27Z</time>
      </trkpt>
      <trkpt lat="45.50716" lon="6.70791">
        <ele>2070.6</ele>
        <time>2021-08-15T08:40:28Z</time>
      </trkpt>
      <trkpt lat="45.50716" lon="6.70791">
        <ele>2070.6</ele>
        <time>2021-08-15T08:40:29Z</time>
      </trkpt>
      <trkpt lat="45.50716" lon="6.70791">
        <ele>2070.6</ele>
        <time>2021-08-15T08:40:30Z</time>
      </trkpt>
      <trkpt lat="45.50716" lon="6.7079">
        <ele>2070.6</ele>
        <time>2021-08-15T08:40:31Z</time>
      </trkpt>
      <trkpt lat="45.50716" lon="6.7079">
        <ele>2070.6</ele>
        <time>2021-08-15T08:40:32Z</time>
      </trkpt>
      <trkpt lat="45.50716" lon="6.7079">
        <ele>2070.6</ele>
        <time>2021-08-15T08:40:33Z</time>
      </trkpt>
      <trkpt lat="45.50716" lon="6.7079">
        <ele>2070.6</ele>
        <time>2021-08-15T08:40:34Z</time>
      </trkpt>
      <trkpt lat="45.50716" lon="6.7079">
        <ele>2070.6</ele>
        <time>2021-08-15T08:40:35Z</time>
      </trkpt>
      <trkpt lat="45.50716" lon="6.7079">
        <ele>2070.6</ele>
        <time>2021-08-15T08:40:36Z</time>
      </trkpt>
      <trkpt lat="45.50715" lon="6.7079">
        <ele>2070.6</ele>
        <time>2021-08-15T08:40:37Z</time>
      </trkpt>
      <trkpt lat="45.50715" lon="6.7079">
        <ele>2070.6</ele>
        <time>2021-08-15T08:40:38Z</time>
      </trkpt>
      <trkpt lat="45.50715" lon="6.7079">
        <ele>2070.6</ele>
        <time>2021-08-15T08:40:39Z</time>
      </trkpt>
      <trkpt lat="45.50715" lon="6.7079">
        <ele>2070.6</ele>
        <time>2021-08-15T08:40:40Z</time>
      </trkpt>
      <trkpt lat="45.50715" lon="6.70789">
        <ele>2070.6</ele>
        <time>2021-08-15T08:40:41Z</time>
      </trkpt>
      <trkpt lat="45.50715" lon="6.70789">
        <ele>2070.6</ele>
        <time>2021-08-15T08:40:42Z</time>
      </trkpt>
      <trkpt lat="45.50715" lon="6.70789">
        <ele>2070.6</ele>
        <time>2021-08-15T08:40:43Z</time>
      </trkpt>
      <trkpt lat="45.50715" lon="6.70789">
        <ele>2070.6</ele>
        <time>2021-08-15T08:40:44Z</time>
      </trkpt>
      <trkpt lat="45.50715" lon="6.70789">
        <ele>2070.6</ele>
        <time>2021-08-15T08:40:45Z</time>
      </trkpt>
      <trkpt lat="45.50715" lon="6.70789">
        <ele>2070.6</ele>
        <time>2021-08-15T08:40:46Z</time>
      </trkpt>
      <trkpt lat="45.50715" lon="6.70789">
        <ele>2070.6</ele>
        <time>2021-08-15T08:40:47Z</time>
      </trkpt>
      <trkpt lat="45.50715" lon="6.70789">
        <ele>2070.6</ele>
        <time>2021-08-15T08:40:48Z</time>
      </trkpt>
      <trkpt lat="45.50715" lon="6.70789">
        <ele>2070.6</ele>
        <time>2021-08-15T08:40:49Z</time>
      </trkpt>
      <trkpt lat="45.50715" lon="6.70788">
        <ele>2070.6</ele>
        <time>2021-08-15T08:40:50Z</time>
      </trkpt>
      <trkpt lat="45.50714" lon="6.70788">
        <ele>2070.6</ele>
        <time>2021-08-15T08:40:51Z</time>
      </trkpt>
      <trkpt lat="45.50714" lon="6.70788">
        <ele>2070.6</ele>
        <time>2021-08-15T08:40:52Z</time>
      </trkpt>
      <trkpt lat="45.50714" lon="6.70788">
        <ele>2071.1</ele>
        <time>2021-08-15T08:40:53Z</time>
      </trkpt>
      <trkpt lat="45.50714" lon="6.70788">
        <ele>2071.1</ele>
        <time>2021-08-15T08:40:54Z</time>
      </trkpt>
      <trkpt lat="45.50714" lon="6.70788">
        <ele>2071.1</ele>
        <time>2021-08-15T08:40:55Z</time>
      </trkpt>
      <trkpt lat="45.50714" lon="6.70788">
        <ele>2071.1</ele>
        <time>2021-08-15T08:40:56Z</time>
      </trkpt>
      <trkpt lat="45.50714" lon="6.70788">
        <ele>2071.1</ele>
        <time>2021-08-15T08:40:57Z</time>
      </trkpt>
      <trkpt lat="45.50714" lon="6.70788">
        <ele>2071.1</ele>
        <time>2021-08-15T08:40:58Z</time>
      </trkpt>
      <trkpt lat="45.50714" lon="6.70787">
        <ele>2071.1</ele>
        <time>2021-08-15T08:40:59Z</time>
      </trkpt>
      <trkpt lat="45.50714" lon="6.70787">
        <ele>2071.1</ele>
        <time>2021-08-15T08:41:00Z</time>
      </trkpt>
      <trkpt lat="45.50714" lon="6.70787">
        <ele>2071.1</ele>
        <time>2021-08-15T08:41:01Z</time>
      </trkpt>
      <trkpt lat="45.50714" lon="6.70787">
        <ele>2071.1</ele>
        <time>2021-08-15T08:41:02Z</time>
      </trkpt>
      <trkpt lat="45.50714" lon="6.70787">
        <ele>2071.1</ele>
        <time>2021-08-15T08:41:03Z</time>
      </trkpt>
      <trkpt lat="45.50714" lon="6.70787">
        <ele>2071.1</ele>
        <time>2021-08-15T08:41:04Z</time>
      </trkpt>
      <trkpt lat="45.50713" lon="6.70787">
        <ele>2071.1</ele>
        <time>2021-08-15T08:41:05Z</time>
      </trkpt>
      <trkpt lat="45.50713" lon="6.70787">
        <ele>2071.1</ele>
        <time>2021-08-15T08:41:06Z</time>
      </trkpt>
      <trkpt lat="45.50713" lon="6.70787">
        <ele>2071.1</ele>
        <time>2021-08-15T08:41:07Z</time>
      </trkpt>
      <trkpt lat="45.50713" lon="6.70786">
        <ele>2071.1</ele>
        <time>2021-08-15T08:41:08Z</time>
      </trkpt>
      <trkpt lat="45.50713" lon="6.70786">
        <ele>2071.1</ele>
        <time>2021-08-15T08:41:09Z</time>
      </trkpt>
      <trkpt lat="45.50712" lon="6.70789">
        <ele>2071.2</ele>
        <time>2021-08-15T08:41:10Z</time>
      </trkpt>
      <trkpt lat="45.5071" lon="6.70792">
        <ele>2071.2</ele>
        <time>2021-08-15T08:41:11Z</time>
      </trkpt>
      <trkpt lat="45.50709" lon="6.70795">
        <ele>2071.3</ele>
        <time>2021-08-15T08:41:12Z</time>
      </trkpt>
      <trkpt lat="45.50707" lon="6.70799">
        <ele>2071.3</ele>
        <time>2021-08-15T08:41:13Z</time>
      </trkpt>
      <trkpt lat="45.50705" lon="6.70802">
        <ele>2071.4</ele>
        <time>2021-08-15T08:41:14Z</time>
      </trkpt>
      <trkpt lat="45.50704" lon="6.70805">
        <ele>2071.5</ele>
        <time>2021-08-15T08:41:15Z</time>
      </trkpt>
      <trkpt lat="45.50702" lon="6.70809">
        <ele>2071.5</ele>
        <time>2021-08-15T08:41:16Z</time>
      </trkpt>
      <trkpt lat="45.507" lon="6.70812">
        <ele>2071.8</ele>
        <time>2021-08-15T08:41:17Z</time>
      </trkpt>
      <trkpt lat="45.50699" lon="6.70816">
        <ele>2072</ele>
        <time>2021-08-15T08:41:18Z</time>
      </trkpt>
      <trkpt lat="45.50697" lon="6.70819">
        <ele>2072.2</ele>
        <time>2021-08-15T08:41:19Z</time>
      </trkpt>
      <trkpt lat="45.50695" lon="6.70823">
        <ele>2072.4</ele>
        <time>2021-08-15T08:41:20Z</time>
      </trkpt>
      <trkpt lat="45.50693" lon="6.70827">
        <ele>2072.5</ele>
        <time>2021-08-15T08:41:21Z</time>
      </trkpt>
      <trkpt lat="45.50692" lon="6.7083">
        <ele>2072.7</ele>
        <time>2021-08-15T08:41:22Z</time>
      </trkpt>
      <trkpt lat="45.5069" lon="6.70833">
        <ele>2072.8</ele>
        <time>2021-08-15T08:41:23Z</time>
      </trkpt>
      <trkpt lat="45.50688" lon="6.70837">
        <ele>2072.9</ele>
        <time>2021-08-15T08:41:24Z</time>
      </trkpt>
      <trkpt lat="45.50686" lon="6.7084">
        <ele>2073.1</ele>
        <time>2021-08-15T08:41:25Z</time>
      </trkpt>
      <trkpt lat="45.50685" lon="6.70844">
        <ele>2073.2</ele>
        <time>2021-08-15T08:41:26Z</time>
      </trkpt>
      <trkpt lat="45.50683" lon="6.70847">
        <ele>2073.2</ele>
        <time>2021-08-15T08:41:27Z</time>
      </trkpt>
      <trkpt lat="45.50681" lon="6.7085">
        <ele>2073.3</ele>
        <time>2021-08-15T08:41:28Z</time>
      </trkpt>
      <trkpt lat="45.50679" lon="6.70854">
        <ele>2073.4</ele>
        <time>2021-08-15T08:41:29Z</time>
      </trkpt>
      <trkpt lat="45.50678" lon="6.70857">
        <ele>2073.4</ele>
        <time>2021-08-15T08:41:30Z</time>
      </trkpt>
      <trkpt lat="45.50676" lon="6.70861">
        <ele>2073.4</ele>
        <time>2021-08-15T08:41:31Z</time>
      </trkpt>
      <trkpt lat="45.50675" lon="6.70864">
        <ele>2073.4</ele>
        <time>2021-08-15T08:41:32Z</time>
      </trkpt>
      <trkpt lat="45.50673" lon="6.70867">
        <ele>2073.4</ele>
        <time>2021-08-15T08:41:33Z</time>
      </trkpt>
      <trkpt lat="45.50671" lon="6.70871">
        <ele>2073.4</ele>
        <time>2021-08-15T08:41:34Z</time>
      </trkpt>
      <trkpt lat="45.5067" lon="6.70874">
        <ele>2073.3</ele>
        <time>2021-08-15T08:41:35Z</time>
      </trkpt>
      <trkpt lat="45.50668" lon="6.70877">
        <ele>2073.5</ele>
        <time>2021-08-15T08:41:36Z</time>
      </trkpt>
      <trkpt lat="45.50667" lon="6.70881">
        <ele>2075</ele>
        <time>2021-08-15T08:41:37Z</time>
      </trkpt>
      <trkpt lat="45.50665" lon="6.70884">
        <ele>2076.5</ele>
        <time>2021-08-15T08:41:38Z</time>
      </trkpt>
      <trkpt lat="45.50664" lon="6.70888">
        <ele>2078.1</ele>
        <time>2021-08-15T08:41:39Z</time>
      </trkpt>
      <trkpt lat="45.50662" lon="6.70891">
        <ele>2079.6</ele>
        <time>2021-08-15T08:41:40Z</time>
      </trkpt>
      <trkpt lat="45.5066" lon="6.70895">
        <ele>2081.1</ele>
        <time>2021-08-15T08:41:41Z</time>
      </trkpt>
      <trkpt lat="45.50659" lon="6.70898">
        <ele>2082.6</ele>
        <time>2021-08-15T08:41:42Z</time>
      </trkpt>
      <trkpt lat="45.50657" lon="6.70902">
        <ele>2083.9</ele>
        <time>2021-08-15T08:41:43Z</time>
      </trkpt>
      <trkpt lat="45.50655" lon="6.70905">
        <ele>2085.3</ele>
        <time>2021-08-15T08:41:44Z</time>
      </trkpt>
      <trkpt lat="45.50654" lon="6.70909">
        <ele>2086.5</ele>
        <time>2021-08-15T08:41:45Z</time>
      </trkpt>
      <trkpt lat="45.50652" lon="6.70912">
        <ele>2087.8</ele>
        <time>2021-08-15T08:41:46Z</time>
      </trkpt>
      <trkpt lat="45.5065" lon="6.70916">
        <ele>2088.6</ele>
        <time>2021-08-15T08:41:47Z</time>
      </trkpt>
      <trkpt lat="45.50649" lon="6.7092">
        <ele>2089.1</ele>
        <time>2021-08-15T08:41:48Z</time>
      </trkpt>
      <trkpt lat="45.50647" lon="6.70923">
        <ele>2089.9</ele>
        <time>2021-08-15T08:41:49Z</time>
      </trkpt>
      <trkpt lat="45.50645" lon="6.70927">
        <ele>2090.5</ele>
        <time>2021-08-15T08:41:50Z</time>
      </trkpt>
      <trkpt lat="45.50643" lon="6.7093">
        <ele>2091</ele>
        <time>2021-08-15T08:41:51Z</time>
      </trkpt>
      <trkpt lat="45.50642" lon="6.70934">
        <ele>2091</ele>
        <time>2021-08-15T08:41:52Z</time>
      </trkpt>
      <trkpt lat="45.5064" lon="6.70938">
        <ele>2091.5</ele>
        <time>2021-08-15T08:41:53Z</time>
      </trkpt>
      <trkpt lat="45.50638" lon="6.70941">
        <ele>2092.3</ele>
        <time>2021-08-15T08:41:54Z</time>
      </trkpt>
      <trkpt lat="45.50637" lon="6.70945">
        <ele>2092.8</ele>
        <time>2021-08-15T08:41:55Z</time>
      </trkpt>
      <trkpt lat="45.50635" lon="6.70948">
        <ele>2093.6</ele>
        <time>2021-08-15T08:41:56Z</time>
      </trkpt>
      <trkpt lat="45.50633" lon="6.70952">
        <ele>2093.9</ele>
        <time>2021-08-15T08:41:57Z</time>
      </trkpt>
      <trkpt lat="45.50632" lon="6.70956">
        <ele>2094.4</ele>
        <time>2021-08-15T08:41:58Z</time>
      </trkpt>
      <trkpt lat="45.5063" lon="6.70959">
        <ele>2094.4</ele>
        <time>2021-08-15T08:41:59Z</time>
      </trkpt>
      <trkpt lat="45.50628" lon="6.70963">
        <ele>2095</ele>
        <time>2021-08-15T08:42:00Z</time>
      </trkpt>
      <trkpt lat="45.50626" lon="6.70967">
        <ele>2095.8</ele>
        <time>2021-08-15T08:42:01Z</time>
      </trkpt>
      <trkpt lat="45.50625" lon="6.7097">
        <ele>2096.5</ele>
        <time>2021-08-15T08:42:02Z</time>
      </trkpt>
      <trkpt lat="45.50623" lon="6.70974">
        <ele>2097.4</ele>
        <time>2021-08-15T08:42:03Z</time>
      </trkpt>
      <trkpt lat="45.50621" lon="6.70977">
        <ele>2098</ele>
        <time>2021-08-15T08:42:04Z</time>
      </trkpt>
      <trkpt lat="45.5062" lon="6.70981">
        <ele>2097.5</ele>
        <time>2021-08-15T08:42:05Z</time>
      </trkpt>
      <trkpt lat="45.50618" lon="6.70985">
        <ele>2098.4</ele>
        <time>2021-08-15T08:42:06Z</time>
      </trkpt>
      <trkpt lat="45.50616" lon="6.70988">
        <ele>2098.8</ele>
        <time>2021-08-15T08:42:07Z</time>
      </trkpt>
      <trkpt lat="45.50615" lon="6.70992">
        <ele>2099.5</ele>
        <time>2021-08-15T08:42:08Z</time>
      </trkpt>
      <trkpt lat="45.50613" lon="6.70995">
        <ele>2099.8</ele>
        <time>2021-08-15T08:42:09Z</time>
      </trkpt>
      <trkpt lat="45.50611" lon="6.70999">
        <ele>2100.5</ele>
        <time>2021-08-15T08:42:10Z</time>
      </trkpt>
      <trkpt lat="45.5061" lon="6.71003">
        <ele>2099.9</ele>
        <time>2021-08-15T08:42:11Z</time>
      </trkpt>
      <trkpt lat="45.50608" lon="6.71006">
        <ele>2100.7</ele>
        <time>2021-08-15T08:42:12Z</time>
      </trkpt>
      <trkpt lat="45.50606" lon="6.7101">
        <ele>2101</ele>
        <time>2021-08-15T08:42:13Z</time>
      </trkpt>
      <trkpt lat="45.50605" lon="6.71013">
        <ele>2101.3</ele>
        <time>2021-08-15T08:42:14Z</time>
      </trkpt>
      <trkpt lat="45.50603" lon="6.71017">
        <ele>2102</ele>
        <time>2021-08-15T08:42:15Z</time>
      </trkpt>
      <trkpt lat="45.50601" lon="6.71021">
        <ele>2102.3</ele>
        <time>2021-08-15T08:42:16Z</time>
      </trkpt>
      <trkpt lat="45.506" lon="6.71024">
        <ele>2102.3</ele>
        <time>2021-08-15T08:42:17Z</time>
      </trkpt>
      <trkpt lat="45.50598" lon="6.71028">
        <ele>2102.5</ele>
        <time>2021-08-15T08:42:18Z</time>
      </trkpt>
      <trkpt lat="45.50596" lon="6.71031">
        <ele>2103.2</ele>
        <time>2021-08-15T08:42:19Z</time>
      </trkpt>
      <trkpt lat="45.50595" lon="6.71035">
        <ele>2103.2</ele>
        <time>2021-08-15T08:42:20Z</time>
      </trkpt>
      <trkpt lat="45.50593" lon="6.71038">
        <ele>2103.8</ele>
        <time>2021-08-15T08:42:21Z</time>
      </trkpt>
      <trkpt lat="45.50591" lon="6.71042">
        <ele>2103.8</ele>
        <time>2021-08-15T08:42:22Z</time>
      </trkpt>
      <trkpt lat="45.5059" lon="6.71045">
        <ele>2103.1</ele>
        <time>2021-08-15T08:42:23Z</time>
      </trkpt>
      <trkpt lat="45.50588" lon="6.71049">
        <ele>2103.7</ele>
        <time>2021-08-15T08:42:24Z</time>
      </trkpt>
      <trkpt lat="45.50586" lon="6.71052">
        <ele>2103.6</ele>
        <time>2021-08-15T08:42:25Z</time>
      </trkpt>
      <trkpt lat="45.50585" lon="6.71056">
        <ele>2104.4</ele>
        <time>2021-08-15T08:42:26Z</time>
      </trkpt>
      <trkpt lat="45.50583" lon="6.71059">
        <ele>2104.5</ele>
        <time>2021-08-15T08:42:27Z</time>
      </trkpt>
      <trkpt lat="45.50581" lon="6.71063">
        <ele>2104.4</ele>
        <time>2021-08-15T08:42:28Z</time>
      </trkpt>
      <trkpt lat="45.5058" lon="6.71066">
        <ele>2104.6</ele>
        <time>2021-08-15T08:42:29Z</time>
      </trkpt>
      <trkpt lat="45.50578" lon="6.7107">
        <ele>2105.4</ele>
        <time>2021-08-15T08:42:30Z</time>
      </trkpt>
      <trkpt lat="45.50576" lon="6.71073">
        <ele>2105.6</ele>
        <time>2021-08-15T08:42:31Z</time>
      </trkpt>
      <trkpt lat="45.50575" lon="6.71077">
        <ele>2106.2</ele>
        <time>2021-08-15T08:42:32Z</time>
      </trkpt>
      <trkpt lat="45.50573" lon="6.7108">
        <ele>2105.7</ele>
        <time>2021-08-15T08:42:33Z</time>
      </trkpt>
      <trkpt lat="45.50571" lon="6.71084">
        <ele>2105.9</ele>
        <time>2021-08-15T08:42:34Z</time>
      </trkpt>
      <trkpt lat="45.5057" lon="6.71087">
        <ele>2106.6</ele>
        <time>2021-08-15T08:42:35Z</time>
      </trkpt>
      <trkpt lat="45.50568" lon="6.7109">
        <ele>2106.8</ele>
        <time>2021-08-15T08:42:36Z</time>
      </trkpt>
      <trkpt lat="45.50566" lon="6.71094">
        <ele>2107.5</ele>
        <time>2021-08-15T08:42:37Z</time>
      </trkpt>
      <trkpt lat="45.50565" lon="6.71097">
        <ele>2107.1</ele>
        <time>2021-08-15T08:42:38Z</time>
      </trkpt>
      <trkpt lat="45.50563" lon="6.71101">
        <ele>2107.8</ele>
        <time>2021-08-15T08:42:39Z</time>
      </trkpt>
      <trkpt lat="45.50561" lon="6.71104">
        <ele>2108.2</ele>
        <time>2021-08-15T08:42:40Z</time>
      </trkpt>
      <trkpt lat="45.5056" lon="6.71107">
        <ele>2109.1</ele>
        <time>2021-08-15T08:42:41Z</time>
      </trkpt>
      <trkpt lat="45.50558" lon="6.71111">
        <ele>2109.7</ele>
        <time>2021-08-15T08:42:42Z</time>
      </trkpt>
      <trkpt lat="45.50557" lon="6.71114">
        <ele>2109.7</ele>
        <time>2021-08-15T08:42:43Z</time>
      </trkpt>
      <trkpt lat="45.50555" lon="6.71118">
        <ele>2110.3</ele>
        <time>2021-08-15T08:42:44Z</time>
      </trkpt>
      <trkpt lat="45.50553" lon="6.71121">
        <ele>2111</ele>
        <time>2021-08-15T08:42:45Z</time>
      </trkpt>
      <trkpt lat="45.50552" lon="6.71125">
        <ele>2111.9</ele>
        <time>2021-08-15T08:42:46Z</time>
      </trkpt>
      <trkpt lat="45.5055" lon="6.71128">
        <ele>2112.6</ele>
        <time>2021-08-15T08:42:47Z</time>
      </trkpt>
      <trkpt lat="45.50548" lon="6.71132">
        <ele>2113.5</ele>
        <time>2021-08-15T08:42:48Z</time>
      </trkpt>
      <trkpt lat="45.50547" lon="6.71135">
        <ele>2113.2</ele>
        <time>2021-08-15T08:42:49Z</time>
      </trkpt>
      <trkpt lat="45.50545" lon="6.71139">
        <ele>2114.2</ele>
        <time>2021-08-15T08:42:50Z</time>
      </trkpt>
      <trkpt lat="45.50543" lon="6.71142">
        <ele>2115.1</ele>
        <time>2021-08-15T08:42:51Z</time>
      </trkpt>
      <trkpt lat="45.50542" lon="6.71146">
        <ele>2116.2</ele>
        <time>2021-08-15T08:42:52Z</time>
      </trkpt>
      <trkpt lat="45.5054" lon="6.71149">
        <ele>2117.1</ele>
        <time>2021-08-15T08:42:53Z</time>
      </trkpt>
      <trkpt lat="45.50539" lon="6.71153">
        <ele>2117.1</ele>
        <time>2021-08-15T08:42:54Z</time>
      </trkpt>
      <trkpt lat="45.50537" lon="6.71156">
        <ele>2118.1</ele>
        <time>2021-08-15T08:42:55Z</time>
      </trkpt>
      <trkpt lat="45.50536" lon="6.71159">
        <ele>2119.3</ele>
        <time>2021-08-15T08:42:56Z</time>
      </trkpt>
      <trkpt lat="45.50535" lon="6.71162">
        <ele>2120.3</ele>
        <time>2021-08-15T08:42:57Z</time>
      </trkpt>
      <trkpt lat="45.50533" lon="6.71165">
        <ele>2120.2</ele>
        <time>2021-08-15T08:42:58Z</time>
      </trkpt>
      <trkpt lat="45.50532" lon="6.71168">
        <ele>2121.2</ele>
        <time>2021-08-15T08:42:59Z</time>
      </trkpt>
      <trkpt lat="45.50531" lon="6.71171">
        <ele>2122.4</ele>
        <time>2021-08-15T08:43:00Z</time>
      </trkpt>
      <trkpt lat="45.50529" lon="6.71174">
        <ele>2122.1</ele>
        <time>2021-08-15T08:43:01Z</time>
      </trkpt>
      <trkpt lat="45.50528" lon="6.71177">
        <ele>2123.3</ele>
        <time>2021-08-15T08:43:02Z</time>
      </trkpt>
      <trkpt lat="45.50527" lon="6.7118">
        <ele>2124.6</ele>
        <time>2021-08-15T08:43:03Z</time>
      </trkpt>
      <trkpt lat="45.50525" lon="6.71183">
        <ele>2125.6</ele>
        <time>2021-08-15T08:43:04Z</time>
      </trkpt>
      <trkpt lat="45.50524" lon="6.71187">
        <ele>2125.6</ele>
        <time>2021-08-15T08:43:05Z</time>
      </trkpt>
      <trkpt lat="45.50522" lon="6.7119">
        <ele>2126.8</ele>
        <time>2021-08-15T08:43:06Z</time>
      </trkpt>
      <trkpt lat="45.5052" lon="6.71194">
        <ele>2128.4</ele>
        <time>2021-08-15T08:43:07Z</time>
      </trkpt>
      <trkpt lat="45.50519" lon="6.71197">
        <ele>2129.8</ele>
        <time>2021-08-15T08:43:08Z</time>
      </trkpt>
      <trkpt lat="45.50517" lon="6.71201">
        <ele>2131.3</ele>
        <time>2021-08-15T08:43:09Z</time>
      </trkpt>
      <trkpt lat="45.50515" lon="6.71205">
        <ele>2131.3</ele>
        <time>2021-08-15T08:43:10Z</time>
      </trkpt>
      <trkpt lat="45.50514" lon="6.71208">
        <ele>2132.8</ele>
        <time>2021-08-15T08:43:11Z</time>
      </trkpt>
      <trkpt lat="45.50512" lon="6.71212">
        <ele>2134.5</ele>
        <time>2021-08-15T08:43:12Z</time>
      </trkpt>
      <trkpt lat="45.50511" lon="6.71215">
        <ele>2136</ele>
        <time>2021-08-15T08:43:13Z</time>
      </trkpt>
      <trkpt lat="45.50509" lon="6.71219">
        <ele>2137.5</ele>
        <time>2021-08-15T08:43:14Z</time>
      </trkpt>
      <trkpt lat="45.50508" lon="6.71222">
        <ele>2139</ele>
        <time>2021-08-15T08:43:15Z</time>
      </trkpt>
      <trkpt lat="45.50506" lon="6.71226">
        <ele>2139</ele>
        <time>2021-08-15T08:43:16Z</time>
      </trkpt>
      <trkpt lat="45.50504" lon="6.71229">
        <ele>2140.5</ele>
        <time>2021-08-15T08:43:17Z</time>
      </trkpt>
      <trkpt lat="45.50503" lon="6.71233">
        <ele>2142.1</ele>
        <time>2021-08-15T08:43:18Z</time>
      </trkpt>
      <trkpt lat="45.50501" lon="6.71236">
        <ele>2143.7</ele>
        <time>2021-08-15T08:43:19Z</time>
      </trkpt>
      <trkpt lat="45.505" lon="6.71239">
        <ele>2145.5</ele>
        <time>2021-08-15T08:43:20Z</time>
      </trkpt>
      <trkpt lat="45.50498" lon="6.71243">
        <ele>2145.4</ele>
        <time>2021-08-15T08:43:21Z</time>
      </trkpt>
      <trkpt lat="45.50497" lon="6.71246">
        <ele>2147.2</ele>
        <time>2021-08-15T08:43:22Z</time>
      </trkpt>
      <trkpt lat="45.50495" lon="6.7125">
        <ele>2149</ele>
        <time>2021-08-15T08:43:23Z</time>
      </trkpt>
      <trkpt lat="45.50494" lon="6.71253">
        <ele>2150.8</ele>
        <time>2021-08-15T08:43:24Z</time>
      </trkpt>
      <trkpt lat="45.50492" lon="6.71256">
        <ele>2152.5</ele>
        <time>2021-08-15T08:43:25Z</time>
      </trkpt>
      <trkpt lat="45.5049" lon="6.71259">
        <ele>2152.5</ele>
        <time>2021-08-15T08:43:26Z</time>
      </trkpt>
      <trkpt lat="45.50489" lon="6.71263">
        <ele>2154.2</ele>
        <time>2021-08-15T08:43:27Z</time>
      </trkpt>
      <trkpt lat="45.50487" lon="6.71266">
        <ele>2156.9</ele>
        <time>2021-08-15T08:43:28Z</time>
      </trkpt>
      <trkpt lat="45.50486" lon="6.71269">
        <ele>2158.6</ele>
        <time>2021-08-15T08:43:29Z</time>
      </trkpt>
      <trkpt lat="45.50484" lon="6.71272">
        <ele>2158.6</ele>
        <time>2021-08-15T08:43:30Z</time>
      </trkpt>
      <trkpt lat="45.50482" lon="6.71276">
        <ele>2160.4</ele>
        <time>2021-08-15T08:43:31Z</time>
      </trkpt>
      <trkpt lat="45.50481" lon="6.71279">
        <ele>2162.4</ele>
        <time>2021-08-15T08:43:32Z</time>
      </trkpt>
      <trkpt lat="45.50479" lon="6.71282">
        <ele>2162.3</ele>
        <time>2021-08-15T08:43:33Z</time>
      </trkpt>
      <trkpt lat="45.50477" lon="6.71285">
        <ele>2164.4</ele>
        <time>2021-08-15T08:43:34Z</time>
      </trkpt>
      <trkpt lat="45.50476" lon="6.71288">
        <ele>2166.3</ele>
        <time>2021-08-15T08:43:35Z</time>
      </trkpt>
      <trkpt lat="45.50474" lon="6.71291">
        <ele>2168.4</ele>
        <time>2021-08-15T08:43:36Z</time>
      </trkpt>
      <trkpt lat="45.50472" lon="6.71295">
        <ele>2168.3</ele>
        <time>2021-08-15T08:43:37Z</time>
      </trkpt>
      <trkpt lat="45.50471" lon="6.71298">
        <ele>2170.4</ele>
        <time>2021-08-15T08:43:38Z</time>
      </trkpt>
      <trkpt lat="45.50469" lon="6.71301">
        <ele>2172.3</ele>
        <time>2021-08-15T08:43:39Z</time>
      </trkpt>
      <trkpt lat="45.50468" lon="6.71304">
        <ele>2174.3</ele>
        <time>2021-08-15T08:43:40Z</time>
      </trkpt>
      <trkpt lat="45.50467" lon="6.71308">
        <ele>2174.3</ele>
        <time>2021-08-15T08:43:41Z</time>
      </trkpt>
      <trkpt lat="45.50465" lon="6.71311">
        <ele>2176.2</ele>
        <time>2021-08-15T08:43:42Z</time>
      </trkpt>
      <trkpt lat="45.50464" lon="6.71314">
        <ele>2178.1</ele>
        <time>2021-08-15T08:43:43Z</time>
      </trkpt>
      <trkpt lat="45.50462" lon="6.71317">
        <ele>2180.2</ele>
        <time>2021-08-15T08:43:44Z</time>
      </trkpt>
      <trkpt lat="45.50461" lon="6.71321">
        <ele>2182.2</ele>
        <time>2021-08-15T08:43:45Z</time>
      </trkpt>
      <trkpt lat="45.5046" lon="6.71324">
        <ele>2182.3</ele>
        <time>2021-08-15T08:43:46Z</time>
      </trkpt>
      <trkpt lat="45.50459" lon="6.71327">
        <ele>2184.5</ele>
        <time>2021-08-15T08:43:47Z</time>
      </trkpt>
      <trkpt lat="45.50458" lon="6.7133">
        <ele>2186.7</ele>
        <time>2021-08-15T08:43:48Z</time>
      </trkpt>
      <trkpt lat="45.50456" lon="6.71334">
        <ele>2189.2</ele>
        <time>2021-08-15T08:43:49Z</time>
      </trkpt>
      <trkpt lat="45.50455" lon="6.71337">
        <ele>2189.2</ele>
        <time>2021-08-15T08:43:50Z</time>
      </trkpt>
      <trkpt lat="45.50454" lon="6.7134">
        <ele>2191.6</ele>
        <time>2021-08-15T08:43:51Z</time>
      </trkpt>
      <trkpt lat="45.50453" lon="6.71343">
        <ele>2193.7</ele>
        <time>2021-08-15T08:43:52Z</time>
      </trkpt>
      <trkpt lat="45.50452" lon="6.71346">
        <ele>2193.7</ele>
        <time>2021-08-15T08:43:53Z</time>
      </trkpt>
      <trkpt lat="45.50451" lon="6.71349">
        <ele>2195.9</ele>
        <time>2021-08-15T08:43:54Z</time>
      </trkpt>
      <trkpt lat="45.5045" lon="6.71352">
        <ele>2198</ele>
        <time>2021-08-15T08:43:55Z</time>
      </trkpt>
      <trkpt lat="45.50449" lon="6.71355">
        <ele>2200</ele>
        <time>2021-08-15T08:43:56Z</time>
      </trkpt>
      <trkpt lat="45.50447" lon="6.71358">
        <ele>2200.2</ele>
        <time>2021-08-15T08:43:57Z</time>
      </trkpt>
      <trkpt lat="45.50446" lon="6.71361">
        <ele>2202.3</ele>
        <time>2021-08-15T08:43:58Z</time>
      </trkpt>
      <trkpt lat="45.50445" lon="6.71364">
        <ele>2204.7</ele>
        <time>2021-08-15T08:43:59Z</time>
      </trkpt>
      <trkpt lat="45.50443" lon="6.71367">
        <ele>2204.6</ele>
        <time>2021-08-15T08:44:00Z</time>
      </trkpt>
      <trkpt lat="45.50442" lon="6.71369">
        <ele>2207.2</ele>
        <time>2021-08-15T08:44:01Z</time>
      </trkpt>
      <trkpt lat="45.5044" lon="6.71372">
        <ele>2209.5</ele>
        <time>2021-08-15T08:44:02Z</time>
      </trkpt>
      <trkpt lat="45.50439" lon="6.71375">
        <ele>2209.8</ele>
        <time>2021-08-15T08:44:03Z</time>
      </trkpt>
      <trkpt lat="45.50437" lon="6.71378">
        <ele>2212.1</ele>
        <time>2021-08-15T08:44:04Z</time>
      </trkpt>
      <trkpt lat="45.50436" lon="6.71381">
        <ele>2214.9</ele>
        <time>2021-08-15T08:44:05Z</time>
      </trkpt>
      <trkpt lat="45.50434" lon="6.71384">
        <ele>2214.9</ele>
        <time>2021-08-15T08:44:06Z</time>
      </trkpt>
      <trkpt lat="45.50433" lon="6.71387">
        <ele>2217.6</ele>
        <time>2021-08-15T08:44:07Z</time>
      </trkpt>
      <trkpt lat="45.50431" lon="6.7139">
        <ele>2219.9</ele>
        <time>2021-08-15T08:44:08Z</time>
      </trkpt>
      <trkpt lat="45.5043" lon="6.71393">
        <ele>2220.3</ele>
        <time>2021-08-15T08:44:09Z</time>
      </trkpt>
      <trkpt lat="45.50429" lon="6.71396">
        <ele>2222.5</ele>
        <time>2021-08-15T08:44:10Z</time>
      </trkpt>
      <trkpt lat="45.50428" lon="6.71399">
        <ele>2224.6</ele>
        <time>2021-08-15T08:44:11Z</time>
      </trkpt>
      <trkpt lat="45.50426" lon="6.71402">
        <ele>2225</ele>
        <time>2021-08-15T08:44:12Z</time>
      </trkpt>
      <trkpt lat="45.50425" lon="6.71405">
        <ele>2227.2</ele>
        <time>2021-08-15T08:44:13Z</time>
      </trkpt>
      <trkpt lat="45.50424" lon="6.71408">
        <ele>2229.8</ele>
        <time>2021-08-15T08:44:14Z</time>
      </trkpt>
      <trkpt lat="45.50422" lon="6.71411">
        <ele>2232.2</ele>
        <time>2021-08-15T08:44:15Z</time>
      </trkpt>
      <trkpt lat="45.50421" lon="6.71414">
        <ele>2232.6</ele>
        <time>2021-08-15T08:44:16Z</time>
      </trkpt>
      <trkpt lat="45.5042" lon="6.71416">
        <ele>2235.1</ele>
        <time>2021-08-15T08:44:17Z</time>
      </trkpt>
      <trkpt lat="45.50418" lon="6.71419">
        <ele>2235.5</ele>
        <time>2021-08-15T08:44:18Z</time>
      </trkpt>
      <trkpt lat="45.50416" lon="6.71422">
        <ele>2238</ele>
        <time>2021-08-15T08:44:19Z</time>
      </trkpt>
      <trkpt lat="45.50414" lon="6.71424">
        <ele>2240.9</ele>
        <time>2021-08-15T08:44:20Z</time>
      </trkpt>
      <trkpt lat="45.50413" lon="6.71427">
        <ele>2240.9</ele>
        <time>2021-08-15T08:44:21Z</time>
      </trkpt>
      <trkpt lat="45.50411" lon="6.7143">
        <ele>2243.8</ele>
        <time>2021-08-15T08:44:22Z</time>
      </trkpt>
      <trkpt lat="45.50409" lon="6.71432">
        <ele>2244.2</ele>
        <time>2021-08-15T08:44:23Z</time>
      </trkpt>
      <trkpt lat="45.50407" lon="6.71434">
        <ele>2246.4</ele>
        <time>2021-08-15T08:44:24Z</time>
      </trkpt>
      <trkpt lat="45.50405" lon="6.71437">
        <ele>2249.1</ele>
        <time>2021-08-15T08:44:25Z</time>
      </trkpt>
      <trkpt lat="45.50403" lon="6.71439">
        <ele>2249.5</ele>
        <time>2021-08-15T08:44:26Z</time>
      </trkpt>
      <trkpt lat="45.50401" lon="6.71442">
        <ele>2251.6</ele>
        <time>2021-08-15T08:44:27Z</time>
      </trkpt>
      <trkpt lat="45.504" lon="6.71444">
        <ele>2252</ele>
        <time>2021-08-15T08:44:28Z</time>
      </trkpt>
      <trkpt lat="45.50398" lon="6.71447">
        <ele>2254.1</ele>
        <time>2021-08-15T08:44:29Z</time>
      </trkpt>
      <trkpt lat="45.50397" lon="6.7145">
        <ele>2256.6</ele>
        <time>2021-08-15T08:44:30Z</time>
      </trkpt>
      <trkpt lat="45.50395" lon="6.71452">
        <ele>2256.6</ele>
        <time>2021-08-15T08:44:31Z</time>
      </trkpt>
      <trkpt lat="45.50394" lon="6.71455">
        <ele>2259</ele>
        <time>2021-08-15T08:44:32Z</time>
      </trkpt>
      <trkpt lat="45.50392" lon="6.71458">
        <ele>2261.2</ele>
        <time>2021-08-15T08:44:33Z</time>
      </trkpt>
      <trkpt lat="45.50391" lon="6.71461">
        <ele>2261.5</ele>
        <time>2021-08-15T08:44:34Z</time>
      </trkpt>
      <trkpt lat="45.50389" lon="6.71464">
        <ele>2263.7</ele>
        <time>2021-08-15T08:44:35Z</time>
      </trkpt>
      <trkpt lat="45.50388" lon="6.71467">
        <ele>2266.3</ele>
        <time>2021-08-15T08:44:36Z</time>
      </trkpt>
      <trkpt lat="45.50386" lon="6.7147">
        <ele>2266.2</ele>
        <time>2021-08-15T08:44:37Z</time>
      </trkpt>
      <trkpt lat="45.50384" lon="6.71473">
        <ele>2268.7</ele>
        <time>2021-08-15T08:44:38Z</time>
      </trkpt>
      <trkpt lat="45.50382" lon="6.71476">
        <ele>2270.8</ele>
        <time>2021-08-15T08:44:39Z</time>
      </trkpt>
      <trkpt lat="45.5038" lon="6.71479">
        <ele>2271.1</ele>
        <time>2021-08-15T08:44:40Z</time>
      </trkpt>
      <trkpt lat="45.50379" lon="6.71482">
        <ele>2273.2</ele>
        <time>2021-08-15T08:44:41Z</time>
      </trkpt>
      <trkpt lat="45.50377" lon="6.71485">
        <ele>2275</ele>
        <time>2021-08-15T08:44:42Z</time>
      </trkpt>
      <trkpt lat="45.50374" lon="6.71489">
        <ele>2276.8</ele>
        <time>2021-08-15T08:44:43Z</time>
      </trkpt>
      <trkpt lat="45.50372" lon="6.71492">
        <ele>2278.5</ele>
        <time>2021-08-15T08:44:44Z</time>
      </trkpt>
      <trkpt lat="45.5037" lon="6.71495">
        <ele>2278.5</ele>
        <time>2021-08-15T08:44:45Z</time>
      </trkpt>
      <trkpt lat="45.50368" lon="6.71499">
        <ele>2280.2</ele>
        <time>2021-08-15T08:44:46Z</time>
      </trkpt>
      <trkpt lat="45.50367" lon="6.71502">
        <ele>2281.8</ele>
        <time>2021-08-15T08:44:47Z</time>
      </trkpt>
      <trkpt lat="45.50365" lon="6.71506">
        <ele>2283.5</ele>
        <time>2021-08-15T08:44:48Z</time>
      </trkpt>
      <trkpt lat="45.50363" lon="6.71509">
        <ele>2283.4</ele>
        <time>2021-08-15T08:44:49Z</time>
      </trkpt>
      <trkpt lat="45.50361" lon="6.71512">
        <ele>2284.9</ele>
        <time>2021-08-15T08:44:50Z</time>
      </trkpt>
      <trkpt lat="45.50359" lon="6.71516">
        <ele>2286.4</ele>
        <time>2021-08-15T08:44:51Z</time>
      </trkpt>
      <trkpt lat="45.50357" lon="6.71519">
        <ele>2287.8</ele>
        <time>2021-08-15T08:44:52Z</time>
      </trkpt>
      <trkpt lat="45.50356" lon="6.71523">
        <ele>2289.2</ele>
        <time>2021-08-15T08:44:53Z</time>
      </trkpt>
      <trkpt lat="45.50354" lon="6.71526">
        <ele>2289</ele>
        <time>2021-08-15T08:44:54Z</time>
      </trkpt>
      <trkpt lat="45.50352" lon="6.71529">
        <ele>2290.4</ele>
        <time>2021-08-15T08:44:55Z</time>
      </trkpt>
      <trkpt lat="45.50351" lon="6.71533">
        <ele>2291.4</ele>
        <time>2021-08-15T08:44:56Z</time>
      </trkpt>
      <trkpt lat="45.50349" lon="6.71536">
        <ele>2292.7</ele>
        <time>2021-08-15T08:44:57Z</time>
      </trkpt>
      <trkpt lat="45.50347" lon="6.7154">
        <ele>2293.7</ele>
        <time>2021-08-15T08:44:58Z</time>
      </trkpt>
      <trkpt lat="45.50346" lon="6.71543">
        <ele>2293.4</ele>
        <time>2021-08-15T08:44:59Z</time>
      </trkpt>
      <trkpt lat="45.50344" lon="6.71546">
        <ele>2294.7</ele>
        <time>2021-08-15T08:45:00Z</time>
      </trkpt>
      <trkpt lat="45.50343" lon="6.7155">
        <ele>2295.7</ele>
        <time>2021-08-15T08:45:01Z</time>
      </trkpt>
      <trkpt lat="45.50341" lon="6.71553">
        <ele>2297</ele>
        <time>2021-08-15T08:45:02Z</time>
      </trkpt>
      <trkpt lat="45.50339" lon="6.71556">
        <ele>2296.6</ele>
        <time>2021-08-15T08:45:03Z</time>
      </trkpt>
      <trkpt lat="45.50338" lon="6.71559">
        <ele>2297.9</ele>
        <time>2021-08-15T08:45:04Z</time>
      </trkpt>
      <trkpt lat="45.50336" lon="6.71563">
        <ele>2298.7</ele>
        <time>2021-08-15T08:45:05Z</time>
      </trkpt>
      <trkpt lat="45.50335" lon="6.71566">
        <ele>2299.9</ele>
        <time>2021-08-15T08:45:06Z</time>
      </trkpt>
      <trkpt lat="45.50333" lon="6.71568">
        <ele>2299.4</ele>
        <time>2021-08-15T08:45:07Z</time>
      </trkpt>
      <trkpt lat="45.50332" lon="6.71571">
        <ele>2300.5</ele>
        <time>2021-08-15T08:45:08Z</time>
      </trkpt>
      <trkpt lat="45.5033" lon="6.71574">
        <ele>2301</ele>
        <time>2021-08-15T08:45:09Z</time>
      </trkpt>
      <trkpt lat="45.50329" lon="6.71577">
        <ele>2301</ele>
        <time>2021-08-15T08:45:10Z</time>
      </trkpt>
      <trkpt lat="45.50328" lon="6.7158">
        <ele>2301.5</ele>
        <time>2021-08-15T08:45:11Z</time>
      </trkpt>
      <trkpt lat="45.50326" lon="6.71582">
        <ele>2302.6</ele>
        <time>2021-08-15T08:45:12Z</time>
      </trkpt>
      <trkpt lat="45.50325" lon="6.71585">
        <ele>2302.1</ele>
        <time>2021-08-15T08:45:13Z</time>
      </trkpt>
      <trkpt lat="45.50323" lon="6.71588">
        <ele>2303.2</ele>
        <time>2021-08-15T08:45:14Z</time>
      </trkpt>
      <trkpt lat="45.50322" lon="6.71591">
        <ele>2302.7</ele>
        <time>2021-08-15T08:45:15Z</time>
      </trkpt>
      <trkpt lat="45.5032" lon="6.71594">
        <ele>2303.8</ele>
        <time>2021-08-15T08:45:16Z</time>
      </trkpt>
      <trkpt lat="45.50319" lon="6.71597">
        <ele>2304.5</ele>
        <time>2021-08-15T08:45:17Z</time>
      </trkpt>
      <trkpt lat="45.50317" lon="6.716">
        <ele>2305.7</ele>
        <time>2021-08-15T08:45:18Z</time>
      </trkpt>
      <trkpt lat="45.50315" lon="6.71604">
        <ele>2305.1</ele>
        <time>2021-08-15T08:45:19Z</time>
      </trkpt>
      <trkpt lat="45.50313" lon="6.71607">
        <ele>2306.4</ele>
        <time>2021-08-15T08:45:20Z</time>
      </trkpt>
      <trkpt lat="45.50312" lon="6.71611">
        <ele>2307.1</ele>
        <time>2021-08-15T08:45:21Z</time>
      </trkpt>
      <trkpt lat="45.5031" lon="6.71614">
        <ele>2308.4</ele>
        <time>2021-08-15T08:45:22Z</time>
      </trkpt>
      <trkpt lat="45.50308" lon="6.71617">
        <ele>2309.1</ele>
        <time>2021-08-15T08:45:23Z</time>
      </trkpt>
      <trkpt lat="45.50307" lon="6.71621">
        <ele>2308.6</ele>
        <time>2021-08-15T08:45:24Z</time>
      </trkpt>
      <trkpt lat="45.50305" lon="6.71624">
        <ele>2309.8</ele>
        <time>2021-08-15T08:45:25Z</time>
      </trkpt>
      <trkpt lat="45.50303" lon="6.71628">
        <ele>2310.5</ele>
        <time>2021-08-15T08:45:26Z</time>
      </trkpt>
      <trkpt lat="45.50302" lon="6.71631">
        <ele>2311.7</ele>
        <time>2021-08-15T08:45:27Z</time>
      </trkpt>
      <trkpt lat="45.503" lon="6.71634">
        <ele>2312.7</ele>
        <time>2021-08-15T08:45:28Z</time>
      </trkpt>
      <trkpt lat="45.50298" lon="6.71638">
        <ele>2312.6</ele>
        <time>2021-08-15T08:45:29Z</time>
      </trkpt>
      <trkpt lat="45.50296" lon="6.71641">
        <ele>2313.6</ele>
        <time>2021-08-15T08:45:30Z</time>
      </trkpt>
      <trkpt lat="45.50294" lon="6.71644">
        <ele>2314.7</ele>
        <time>2021-08-15T08:45:31Z</time>
      </trkpt>
      <trkpt lat="45.50293" lon="6.71648">
        <ele>2316.2</ele>
        <time>2021-08-15T08:45:32Z</time>
      </trkpt>
      <trkpt lat="45.50291" lon="6.71651">
        <ele>2317.4</ele>
        <time>2021-08-15T08:45:33Z</time>
      </trkpt>
      <trkpt lat="45.50289" lon="6.71655">
        <ele>2317.3</ele>
        <time>2021-08-15T08:45:34Z</time>
      </trkpt>
      <trkpt lat="45.50287" lon="6.71658">
        <ele>2318.5</ele>
        <time>2021-08-15T08:45:35Z</time>
      </trkpt>
      <trkpt lat="45.50285" lon="6.71662">
        <ele>2319.8</ele>
        <time>2021-08-15T08:45:36Z</time>
      </trkpt>
      <trkpt lat="45.50284" lon="6.71665">
        <ele>2321.4</ele>
        <time>2021-08-15T08:45:37Z</time>
      </trkpt>
      <trkpt lat="45.50282" lon="6.71669">
        <ele>2322.6</ele>
        <time>2021-08-15T08:45:38Z</time>
      </trkpt>
      <trkpt lat="45.50281" lon="6.71672">
        <ele>2324.2</ele>
        <time>2021-08-15T08:45:39Z</time>
      </trkpt>
      <trkpt lat="45.50279" lon="6.71676">
        <ele>2323.9</ele>
        <time>2021-08-15T08:45:40Z</time>
      </trkpt>
      <trkpt lat="45.50278" lon="6.7168">
        <ele>2325.5</ele>
        <time>2021-08-15T08:45:41Z</time>
      </trkpt>
      <trkpt lat="45.50276" lon="6.71684">
        <ele>2326.7</ele>
        <time>2021-08-15T08:45:42Z</time>
      </trkpt>
      <trkpt lat="45.50275" lon="6.71687">
        <ele>2328.5</ele>
        <time>2021-08-15T08:45:43Z</time>
      </trkpt>
      <trkpt lat="45.50273" lon="6.71691">
        <ele>2329.8</ele>
        <time>2021-08-15T08:45:44Z</time>
      </trkpt>
      <trkpt lat="45.50272" lon="6.71695">
        <ele>2331.7</ele>
        <time>2021-08-15T08:45:45Z</time>
      </trkpt>
      <trkpt lat="45.5027" lon="6.71698">
        <ele>2333.1</ele>
        <time>2021-08-15T08:45:46Z</time>
      </trkpt>
      <trkpt lat="45.50269" lon="6.71702">
        <ele>2333.2</ele>
        <time>2021-08-15T08:45:47Z</time>
      </trkpt>
      <trkpt lat="45.50267" lon="6.71705">
        <ele>2334.6</ele>
        <time>2021-08-15T08:45:48Z</time>
      </trkpt>
      <trkpt lat="45.50266" lon="6.71709">
        <ele>2336.3</ele>
        <time>2021-08-15T08:45:49Z</time>
      </trkpt>
      <trkpt lat="45.50264" lon="6.71712">
        <ele>2337.7</ele>
        <time>2021-08-15T08:45:50Z</time>
      </trkpt>
      <trkpt lat="45.50262" lon="6.71715">
        <ele>2339.5</ele>
        <time>2021-08-15T08:45:51Z</time>
      </trkpt>
      <trkpt lat="45.50261" lon="6.71719">
        <ele>2339.2</ele>
        <time>2021-08-15T08:45:52Z</time>
      </trkpt>
      <trkpt lat="45.50259" lon="6.71722">
        <ele>2340.6</ele>
        <time>2021-08-15T08:45:53Z</time>
      </trkpt>
      <trkpt lat="45.50257" lon="6.71725">
        <ele>2342.5</ele>
        <time>2021-08-15T08:45:54Z</time>
      </trkpt>
      <trkpt lat="45.50255" lon="6.71729">
        <ele>2344.1</ele>
        <time>2021-08-15T08:45:55Z</time>
      </trkpt>
      <trkpt lat="45.50254" lon="6.71732">
        <ele>2344.2</ele>
        <time>2021-08-15T08:45:56Z</time>
      </trkpt>
      <trkpt lat="45.50252" lon="6.71735">
        <ele>2345.7</ele>
        <time>2021-08-15T08:45:57Z</time>
      </trkpt>
      <trkpt lat="45.5025" lon="6.71739">
        <ele>2347.7</ele>
        <time>2021-08-15T08:45:58Z</time>
      </trkpt>
      <trkpt lat="45.50248" lon="6.71742">
        <ele>2349.3</ele>
        <time>2021-08-15T08:45:59Z</time>
      </trkpt>
      <trkpt lat="45.50246" lon="6.71745">
        <ele>2348.8</ele>
        <time>2021-08-15T08:46:00Z</time>
      </trkpt>
      <trkpt lat="45.50245" lon="6.71749">
        <ele>2350.8</ele>
        <time>2021-08-15T08:46:01Z</time>
      </trkpt>
      <trkpt lat="45.50243" lon="6.71752">
        <ele>2352.3</ele>
        <time>2021-08-15T08:46:02Z</time>
      </trkpt>
      <trkpt lat="45.50241" lon="6.71755">
        <ele>2354.2</ele>
        <time>2021-08-15T08:46:03Z</time>
      </trkpt>
      <trkpt lat="45.50239" lon="6.71759">
        <ele>2355.6</ele>
        <time>2021-08-15T08:46:04Z</time>
      </trkpt>
      <trkpt lat="45.50238" lon="6.71762">
        <ele>2355.7</ele>
        <time>2021-08-15T08:46:05Z</time>
      </trkpt>
      <trkpt lat="45.50236" lon="6.71765">
        <ele>2357.2</ele>
        <time>2021-08-15T08:46:06Z</time>
      </trkpt>
      <trkpt lat="45.50234" lon="6.71768">
        <ele>2358.6</ele>
        <time>2021-08-15T08:46:07Z</time>
      </trkpt>
      <trkpt lat="45.50233" lon="6.71772">
        <ele>2360.6</ele>
        <time>2021-08-15T08:46:08Z</time>
      </trkpt>
      <trkpt lat="45.50231" lon="6.71775">
        <ele>2360.3</ele>
        <time>2021-08-15T08:46:09Z</time>
      </trkpt>
      <trkpt lat="45.50229" lon="6.71778">
        <ele>2362.4</ele>
        <time>2021-08-15T08:46:10Z</time>
      </trkpt>
      <trkpt lat="45.50228" lon="6.71781">
        <ele>2364.1</ele>
        <time>2021-08-15T08:46:11Z</time>
      </trkpt>
      <trkpt lat="45.50226" lon="6.71784">
        <ele>2366.2</ele>
        <time>2021-08-15T08:46:12Z</time>
      </trkpt>
      <trkpt lat="45.50225" lon="6.71788">
        <ele>2365.9</ele>
        <time>2021-08-15T08:46:13Z</time>
      </trkpt>
      <trkpt lat="45.50223" lon="6.71791">
        <ele>2367.9</ele>
        <time>2021-08-15T08:46:14Z</time>
      </trkpt>
      <trkpt lat="45.50222" lon="6.71794">
        <ele>2369.5</ele>
        <time>2021-08-15T08:46:15Z</time>
      </trkpt>
      <trkpt lat="45.5022" lon="6.71797">
        <ele>2371.4</ele>
        <time>2021-08-15T08:46:16Z</time>
      </trkpt>
      <trkpt lat="45.50219" lon="6.718">
        <ele>2371.2</ele>
        <time>2021-08-15T08:46:17Z</time>
      </trkpt>
      <trkpt lat="45.50218" lon="6.71803">
        <ele>2373</ele>
        <time>2021-08-15T08:46:18Z</time>
      </trkpt>
      <trkpt lat="45.50216" lon="6.71806">
        <ele>2374.4</ele>
        <time>2021-08-15T08:46:19Z</time>
      </trkpt>
      <trkpt lat="45.50215" lon="6.71809">
        <ele>2374.5</ele>
        <time>2021-08-15T08:46:20Z</time>
      </trkpt>
      <trkpt lat="45.50214" lon="6.71812">
        <ele>2376.3</ele>
        <time>2021-08-15T08:46:21Z</time>
      </trkpt>
      <trkpt lat="45.50213" lon="6.71814">
        <ele>2377.7</ele>
        <time>2021-08-15T08:46:22Z</time>
      </trkpt>
      <trkpt lat="45.50212" lon="6.71817">
        <ele>2377.8</ele>
        <time>2021-08-15T08:46:23Z</time>
      </trkpt>
      <trkpt lat="45.5021" lon="6.7182">
        <ele>2379.3</ele>
        <time>2021-08-15T08:46:24Z</time>
      </trkpt>
      <trkpt lat="45.50209" lon="6.71823">
        <ele>2379.5</ele>
        <time>2021-08-15T08:46:25Z</time>
      </trkpt>
      <trkpt lat="45.50208" lon="6.71825">
        <ele>2381.3</ele>
        <time>2021-08-15T08:46:26Z</time>
      </trkpt>
      <trkpt lat="45.50206" lon="6.71828">
        <ele>2382.9</ele>
        <time>2021-08-15T08:46:27Z</time>
      </trkpt>
      <trkpt lat="45.50205" lon="6.7183">
        <ele>2383</ele>
        <time>2021-08-15T08:46:28Z</time>
      </trkpt>
      <trkpt lat="45.50203" lon="6.71833">
        <ele>2384.7</ele>
        <time>2021-08-15T08:46:29Z</time>
      </trkpt>
      <trkpt lat="45.50202" lon="6.71836">
        <ele>2386.6</ele>
        <time>2021-08-15T08:46:30Z</time>
      </trkpt>
      <trkpt lat="45.50201" lon="6.71839">
        <ele>2386.4</ele>
        <time>2021-08-15T08:46:31Z</time>
      </trkpt>
      <trkpt lat="45.50199" lon="6.71843">
        <ele>2388.3</ele>
        <time>2021-08-15T08:46:32Z</time>
      </trkpt>
      <trkpt lat="45.50198" lon="6.71847">
        <ele>2389.8</ele>
        <time>2021-08-15T08:46:33Z</time>
      </trkpt>
      <trkpt lat="45.50196" lon="6.71852">
        <ele>2391.5</ele>
        <time>2021-08-15T08:46:34Z</time>
      </trkpt>
      <trkpt lat="45.50195" lon="6.71856">
        <ele>2392.9</ele>
        <time>2021-08-15T08:46:35Z</time>
      </trkpt>
      <trkpt lat="45.50194" lon="6.7186">
        <ele>2394.7</ele>
        <time>2021-08-15T08:46:36Z</time>
      </trkpt>
      <trkpt lat="45.50192" lon="6.71864">
        <ele>2396.3</ele>
        <time>2021-08-15T08:46:37Z</time>
      </trkpt>
      <trkpt lat="45.5019" lon="6.71868">
        <ele>2398.2</ele>
        <time>2021-08-15T08:46:38Z</time>
      </trkpt>
      <trkpt lat="45.50189" lon="6.71871">
        <ele>2399.8</ele>
        <time>2021-08-15T08:46:39Z</time>
      </trkpt>
      <trkpt lat="45.50187" lon="6.71874">
        <ele>2401.6</ele>
        <time>2021-08-15T08:46:40Z</time>
      </trkpt>
      <trkpt lat="45.50185" lon="6.71878">
        <ele>2401.5</ele>
        <time>2021-08-15T08:46:41Z</time>
      </trkpt>
      <trkpt lat="45.50182" lon="6.71881">
        <ele>2403.1</ele>
        <time>2021-08-15T08:46:42Z</time>
      </trkpt>
      <trkpt lat="45.5018" lon="6.71884">
        <ele>2404.8</ele>
        <time>2021-08-15T08:46:43Z</time>
      </trkpt>
      <trkpt lat="45.50178" lon="6.71887">
        <ele>2404.9</ele>
        <time>2021-08-15T08:46:44Z</time>
      </trkpt>
      <trkpt lat="45.50175" lon="6.7189">
        <ele>2406.4</ele>
        <time>2021-08-15T08:46:45Z</time>
      </trkpt>
      <trkpt lat="45.50173" lon="6.71893">
        <ele>2407.8</ele>
        <time>2021-08-15T08:46:46Z</time>
      </trkpt>
      <trkpt lat="45.5017" lon="6.71896">
        <ele>2409.2</ele>
        <time>2021-08-15T08:46:47Z</time>
      </trkpt>
      <trkpt lat="45.50168" lon="6.71899">
        <ele>2409.1</ele>
        <time>2021-08-15T08:46:48Z</time>
      </trkpt>
      <trkpt lat="45.50166" lon="6.71903">
        <ele>2410.7</ele>
        <time>2021-08-15T08:46:49Z</time>
      </trkpt>
      <trkpt lat="45.50164" lon="6.71906">
        <ele>2412.2</ele>
        <time>2021-08-15T08:46:50Z</time>
      </trkpt>
      <trkpt lat="45.50163" lon="6.71909">
        <ele>2414</ele>
        <time>2021-08-15T08:46:51Z</time>
      </trkpt>
      <trkpt lat="45.50161" lon="6.71912">
        <ele>2413.9</ele>
        <time>2021-08-15T08:46:52Z</time>
      </trkpt>
      <trkpt lat="45.5016" lon="6.71916">
        <ele>2415.8</ele>
        <time>2021-08-15T08:46:53Z</time>
      </trkpt>
      <trkpt lat="45.50159" lon="6.71919">
        <ele>2417.6</ele>
        <time>2021-08-15T08:46:54Z</time>
      </trkpt>
      <trkpt lat="45.50158" lon="6.71923">
        <ele>2419.5</ele>
        <time>2021-08-15T08:46:55Z</time>
      </trkpt>
      <trkpt lat="45.50157" lon="6.71927">
        <ele>2421.2</ele>
        <time>2021-08-15T08:46:56Z</time>
      </trkpt>
      <trkpt lat="45.50156" lon="6.71931">
        <ele>2423</ele>
        <time>2021-08-15T08:46:57Z</time>
      </trkpt>
      <trkpt lat="45.50155" lon="6.71935">
        <ele>2424.5</ele>
        <time>2021-08-15T08:46:58Z</time>
      </trkpt>
      <trkpt lat="45.50154" lon="6.7194">
        <ele>2426</ele>
        <time>2021-08-15T08:46:59Z</time>
      </trkpt>
      <trkpt lat="45.50153" lon="6.71944">
        <ele>2427.5</ele>
        <time>2021-08-15T08:47:00Z</time>
      </trkpt>
      <trkpt lat="45.50152" lon="6.71949">
        <ele>2429.1</ele>
        <time>2021-08-15T08:47:01Z</time>
      </trkpt>
      <trkpt lat="45.50151" lon="6.71953">
        <ele>2430.5</ele>
        <time>2021-08-15T08:47:02Z</time>
      </trkpt>
      <trkpt lat="45.5015" lon="6.71958">
        <ele>2432</ele>
        <time>2021-08-15T08:47:03Z</time>
      </trkpt>
      <trkpt lat="45.50149" lon="6.71963">
        <ele>2433.5</ele>
        <time>2021-08-15T08:47:04Z</time>
      </trkpt>
      <trkpt lat="45.50148" lon="6.71967">
        <ele>2434.9</ele>
        <time>2021-08-15T08:47:05Z</time>
      </trkpt>
      <trkpt lat="45.50147" lon="6.71972">
        <ele>2436.6</ele>
        <time>2021-08-15T08:47:06Z</time>
      </trkpt>
      <trkpt lat="45.50146" lon="6.71976">
        <ele>2438</ele>
        <time>2021-08-15T08:47:07Z</time>
      </trkpt>
      <trkpt lat="45.50145" lon="6.71981">
        <ele>2439.2</ele>
        <time>2021-08-15T08:47:08Z</time>
      </trkpt>
      <trkpt lat="45.50144" lon="6.71985">
        <ele>2440.9</ele>
        <time>2021-08-15T08:47:09Z</time>
      </trkpt>
      <trkpt lat="45.50143" lon="6.7199">
        <ele>2442</ele>
        <time>2021-08-15T08:47:10Z</time>
      </trkpt>
      <trkpt lat="45.50142" lon="6.71994">
        <ele>2443.2</ele>
        <time>2021-08-15T08:47:11Z</time>
      </trkpt>
      <trkpt lat="45.50142" lon="6.71998">
        <ele>2444.4</ele>
        <time>2021-08-15T08:47:12Z</time>
      </trkpt>
      <trkpt lat="45.50141" lon="6.72002">
        <ele>2446.1</ele>
        <time>2021-08-15T08:47:13Z</time>
      </trkpt>
      <trkpt lat="45.50139" lon="6.72006">
        <ele>2447.4</ele>
        <time>2021-08-15T08:47:14Z</time>
      </trkpt>
      <trkpt lat="45.50138" lon="6.7201">
        <ele>2449.1</ele>
        <time>2021-08-15T08:47:15Z</time>
      </trkpt>
      <trkpt lat="45.50137" lon="6.72014">
        <ele>2450</ele>
        <time>2021-08-15T08:47:16Z</time>
      </trkpt>
      <trkpt lat="45.50136" lon="6.72018">
        <ele>2450.9</ele>
        <time>2021-08-15T08:47:17Z</time>
      </trkpt>
      <trkpt lat="45.50134" lon="6.72022">
        <ele>2452.3</ele>
        <time>2021-08-15T08:47:18Z</time>
      </trkpt>
      <trkpt lat="45.50133" lon="6.72025">
        <ele>2453.1</ele>
        <time>2021-08-15T08:47:19Z</time>
      </trkpt>
      <trkpt lat="45.50131" lon="6.72029">
        <ele>2454.4</ele>
        <time>2021-08-15T08:47:20Z</time>
      </trkpt>
      <trkpt lat="45.5013" lon="6.72032">
        <ele>2454.4</ele>
        <time>2021-08-15T08:47:21Z</time>
      </trkpt>
      <trkpt lat="45.50129" lon="6.72036">
        <ele>2455.6</ele>
        <time>2021-08-15T08:47:22Z</time>
      </trkpt>
      <trkpt lat="45.50127" lon="6.7204">
        <ele>2456.3</ele>
        <time>2021-08-15T08:47:23Z</time>
      </trkpt>
      <trkpt lat="45.50126" lon="6.72043">
        <ele>2457.4</ele>
        <time>2021-08-15T08:47:24Z</time>
      </trkpt>
      <trkpt lat="45.50124" lon="6.72047">
        <ele>2458</ele>
        <time>2021-08-15T08:47:25Z</time>
      </trkpt>
      <trkpt lat="45.50123" lon="6.72051">
        <ele>2459.1</ele>
        <time>2021-08-15T08:47:26Z</time>
      </trkpt>
      <trkpt lat="45.50122" lon="6.72055">
        <ele>2459.5</ele>
        <time>2021-08-15T08:47:27Z</time>
      </trkpt>
      <trkpt lat="45.50121" lon="6.72059">
        <ele>2459.9</ele>
        <time>2021-08-15T08:47:28Z</time>
      </trkpt>
      <trkpt lat="45.5012" lon="6.72063">
        <ele>2460.4</ele>
        <time>2021-08-15T08:47:29Z</time>
      </trkpt>
      <trkpt lat="45.50119" lon="6.72067">
        <ele>2460.7</ele>
        <time>2021-08-15T08:47:30Z</time>
      </trkpt>
      <trkpt lat="45.50118" lon="6.72071">
        <ele>2460.9</ele>
        <time>2021-08-15T08:47:31Z</time>
      </trkpt>
      <trkpt lat="45.50117" lon="6.72075">
        <ele>2461.5</ele>
        <time>2021-08-15T08:47:32Z</time>
      </trkpt>
      <trkpt lat="45.50115" lon="6.72079">
        <ele>2461.6</ele>
        <time>2021-08-15T08:47:33Z</time>
      </trkpt>
      <trkpt lat="45.50114" lon="6.72083">
        <ele>2462</ele>
        <time>2021-08-15T08:47:34Z</time>
      </trkpt>
      <trkpt lat="45.50113" lon="6.72086">
        <ele>2462</ele>
        <time>2021-08-15T08:47:35Z</time>
      </trkpt>
      <trkpt lat="45.50111" lon="6.7209">
        <ele>2462.4</ele>
        <time>2021-08-15T08:47:36Z</time>
      </trkpt>
      <trkpt lat="45.5011" lon="6.72094">
        <ele>2462.3</ele>
        <time>2021-08-15T08:47:37Z</time>
      </trkpt>
      <trkpt lat="45.50108" lon="6.72097">
        <ele>2462.6</ele>
        <time>2021-08-15T08:47:38Z</time>
      </trkpt>
      <trkpt lat="45.50107" lon="6.72101">
        <ele>2462.6</ele>
        <time>2021-08-15T08:47:39Z</time>
      </trkpt>
      <trkpt lat="45.50105" lon="6.72104">
        <ele>2463</ele>
        <time>2021-08-15T08:47:40Z</time>
      </trkpt>
      <trkpt lat="45.50103" lon="6.72108">
        <ele>2462.7</ele>
        <time>2021-08-15T08:47:41Z</time>
      </trkpt>
      <trkpt lat="45.50101" lon="6.72111">
        <ele>2463</ele>
        <time>2021-08-15T08:47:42Z</time>
      </trkpt>
      <trkpt lat="45.501" lon="6.72114">
        <ele>2462.8</ele>
        <time>2021-08-15T08:47:43Z</time>
      </trkpt>
      <trkpt lat="45.50098" lon="6.72118">
        <ele>2463.3</ele>
        <time>2021-08-15T08:47:44Z</time>
      </trkpt>
      <trkpt lat="45.50096" lon="6.72121">
        <ele>2463.7</ele>
        <time>2021-08-15T08:47:45Z</time>
      </trkpt>
      <trkpt lat="45.50094" lon="6.72124">
        <ele>2463.5</ele>
        <time>2021-08-15T08:47:46Z</time>
      </trkpt>
      <trkpt lat="45.50092" lon="6.72127">
        <ele>2464</ele>
        <time>2021-08-15T08:47:47Z</time>
      </trkpt>
      <trkpt lat="45.5009" lon="6.7213">
        <ele>2463.8</ele>
        <time>2021-08-15T08:47:48Z</time>
      </trkpt>
      <trkpt lat="45.50088" lon="6.72133">
        <ele>2464.2</ele>
        <time>2021-08-15T08:47:49Z</time>
      </trkpt>
      <trkpt lat="45.50087" lon="6.72136">
        <ele>2464.7</ele>
        <time>2021-08-15T08:47:50Z</time>
      </trkpt>
      <trkpt lat="45.50085" lon="6.72139">
        <ele>2464.7</ele>
        <time>2021-08-15T08:47:51Z</time>
      </trkpt>
      <trkpt lat="45.50083" lon="6.72142">
        <ele>2465.2</ele>
        <time>2021-08-15T08:47:52Z</time>
      </trkpt>
      <trkpt lat="45.50081" lon="6.72145">
        <ele>2465.7</ele>
        <time>2021-08-15T08:47:53Z</time>
      </trkpt>
      <trkpt lat="45.50079" lon="6.72148">
        <ele>2465.7</ele>
        <time>2021-08-15T08:47:54Z</time>
      </trkpt>
      <trkpt lat="45.50078" lon="6.72151">
        <ele>2466.2</ele>
        <time>2021-08-15T08:47:55Z</time>
      </trkpt>
      <trkpt lat="45.50076" lon="6.72154">
        <ele>2466</ele>
        <time>2021-08-15T08:47:56Z</time>
      </trkpt>
      <trkpt lat="45.50074" lon="6.72157">
        <ele>2466.5</ele>
        <time>2021-08-15T08:47:57Z</time>
      </trkpt>
      <trkpt lat="45.50072" lon="6.7216">
        <ele>2466.9</ele>
        <time>2021-08-15T08:47:58Z</time>
      </trkpt>
      <trkpt lat="45.5007" lon="6.72163">
        <ele>2466.7</ele>
        <time>2021-08-15T08:47:59Z</time>
      </trkpt>
      <trkpt lat="45.50069" lon="6.72167">
        <ele>2467</ele>
        <time>2021-08-15T08:48:00Z</time>
      </trkpt>
      <trkpt lat="45.50067" lon="6.7217">
        <ele>2467</ele>
        <time>2021-08-15T08:48:01Z</time>
      </trkpt>
      <trkpt lat="45.50065" lon="6.72173">
        <ele>2467.3</ele>
        <time>2021-08-15T08:48:02Z</time>
      </trkpt>
      <trkpt lat="45.50063" lon="6.72176">
        <ele>2467.1</ele>
        <time>2021-08-15T08:48:03Z</time>
      </trkpt>
      <trkpt lat="45.50062" lon="6.7218">
        <ele>2467.5</ele>
        <time>2021-08-15T08:48:04Z</time>
      </trkpt>
      <trkpt lat="45.5006" lon="6.72183">
        <ele>2467.8</ele>
        <time>2021-08-15T08:48:05Z</time>
      </trkpt>
      <trkpt lat="45.50058" lon="6.72187">
        <ele>2467.8</ele>
        <time>2021-08-15T08:48:06Z</time>
      </trkpt>
      <trkpt lat="45.50057" lon="6.7219">
        <ele>2468.2</ele>
        <time>2021-08-15T08:48:07Z</time>
      </trkpt>
      <trkpt lat="45.50055" lon="6.72193">
        <ele>2467.9</ele>
        <time>2021-08-15T08:48:08Z</time>
      </trkpt>
      <trkpt lat="45.50053" lon="6.72197">
        <ele>2468.3</ele>
        <time>2021-08-15T08:48:09Z</time>
      </trkpt>
      <trkpt lat="45.50052" lon="6.722">
        <ele>2468.3</ele>
        <time>2021-08-15T08:48:10Z</time>
      </trkpt>
      <trkpt lat="45.5005" lon="6.72203">
        <ele>2468.6</ele>
        <time>2021-08-15T08:48:11Z</time>
      </trkpt>
      <trkpt lat="45.50048" lon="6.72206">
        <ele>2468.3</ele>
        <time>2021-08-15T08:48:12Z</time>
      </trkpt>
      <trkpt lat="45.50047" lon="6.72208">
        <ele>2468.9</ele>
        <time>2021-08-15T08:48:13Z</time>
      </trkpt>
      <trkpt lat="45.50045" lon="6.72211">
        <ele>2469.2</ele>
        <time>2021-08-15T08:48:14Z</time>
      </trkpt>
      <trkpt lat="45.50043" lon="6.72214">
        <ele>2469</ele>
        <time>2021-08-15T08:48:15Z</time>
      </trkpt>
      <trkpt lat="45.50042" lon="6.72217">
        <ele>2469.5</ele>
        <time>2021-08-15T08:48:16Z</time>
      </trkpt>
      <trkpt lat="45.5004" lon="6.7222">
        <ele>2469.3</ele>
        <time>2021-08-15T08:48:17Z</time>
      </trkpt>
      <trkpt lat="45.50038" lon="6.72223">
        <ele>2469.6</ele>
        <time>2021-08-15T08:48:18Z</time>
      </trkpt>
      <trkpt lat="45.50036" lon="6.72226">
        <ele>2469.3</ele>
        <time>2021-08-15T08:48:19Z</time>
      </trkpt>
      <trkpt lat="45.50035" lon="6.72229">
        <ele>2469.9</ele>
        <time>2021-08-15T08:48:20Z</time>
      </trkpt>
      <trkpt lat="45.50033" lon="6.72233">
        <ele>2470.3</ele>
        <time>2021-08-15T08:48:21Z</time>
      </trkpt>
      <trkpt lat="45.50031" lon="6.72236">
        <ele>2470</ele>
        <time>2021-08-15T08:48:22Z</time>
      </trkpt>
      <trkpt lat="45.50029" lon="6.72239">
        <ele>2470.2</ele>
        <time>2021-08-15T08:48:23Z</time>
      </trkpt>
      <trkpt lat="45.50028" lon="6.72243">
        <ele>2470.2</ele>
        <time>2021-08-15T08:48:24Z</time>
      </trkpt>
      <trkpt lat="45.50026" lon="6.72246">
        <ele>2470.5</ele>
        <time>2021-08-15T08:48:25Z</time>
      </trkpt>
      <trkpt lat="45.50024" lon="6.7225">
        <ele>2470.7</ele>
        <time>2021-08-15T08:48:26Z</time>
      </trkpt>
      <trkpt lat="45.50022" lon="6.72253">
        <ele>2470.4</ele>
        <time>2021-08-15T08:48:27Z</time>
      </trkpt>
      <trkpt lat="45.50021" lon="6.72257">
        <ele>2470.6</ele>
        <time>2021-08-15T08:48:28Z</time>
      </trkpt>
      <trkpt lat="45.50019" lon="6.7226">
        <ele>2470.6</ele>
        <time>2021-08-15T08:48:29Z</time>
      </trkpt>
      <trkpt lat="45.50017" lon="6.72263">
        <ele>2470.8</ele>
        <time>2021-08-15T08:48:30Z</time>
      </trkpt>
      <trkpt lat="45.50015" lon="6.72267">
        <ele>2470.5</ele>
        <time>2021-08-15T08:48:31Z</time>
      </trkpt>
      <trkpt lat="45.50014" lon="6.7227">
        <ele>2470.6</ele>
        <time>2021-08-15T08:48:32Z</time>
      </trkpt>
      <trkpt lat="45.50012" lon="6.72274">
        <ele>2470.7</ele>
        <time>2021-08-15T08:48:33Z</time>
      </trkpt>
      <trkpt lat="45.5001" lon="6.72277">
        <ele>2470.7</ele>
        <time>2021-08-15T08:48:34Z</time>
      </trkpt>
      <trkpt lat="45.50008" lon="6.72281">
        <ele>2470.9</ele>
        <time>2021-08-15T08:48:35Z</time>
      </trkpt>
      <trkpt lat="45.50006" lon="6.72284">
        <ele>2470.7</ele>
        <time>2021-08-15T08:48:36Z</time>
      </trkpt>
      <trkpt lat="45.50005" lon="6.72287">
        <ele>2470.9</ele>
        <time>2021-08-15T08:48:37Z</time>
      </trkpt>
      <trkpt lat="45.50003" lon="6.72291">
        <ele>2471.2</ele>
        <time>2021-08-15T08:48:38Z</time>
      </trkpt>
      <trkpt lat="45.50001" lon="6.72294">
        <ele>2471.2</ele>
        <time>2021-08-15T08:48:39Z</time>
      </trkpt>
      <trkpt lat="45.49999" lon="6.72298">
        <ele>2471.6</ele>
        <time>2021-08-15T08:48:40Z</time>
      </trkpt>
      <trkpt lat="45.49997" lon="6.72301">
        <ele>2471.6</ele>
        <time>2021-08-15T08:48:41Z</time>
      </trkpt>
      <trkpt lat="45.49996" lon="6.72304">
        <ele>2472</ele>
        <time>2021-08-15T08:48:42Z</time>
      </trkpt>
      <trkpt lat="45.49994" lon="6.72308">
        <ele>2472.4</ele>
        <time>2021-08-15T08:48:43Z</time>
      </trkpt>
      <trkpt lat="45.49992" lon="6.72311">
        <ele>2472.4</ele>
        <time>2021-08-15T08:48:44Z</time>
      </trkpt>
      <trkpt lat="45.4999" lon="6.72315">
        <ele>2472.7</ele>
        <time>2021-08-15T08:48:45Z</time>
      </trkpt>
      <trkpt lat="45.49988" lon="6.72318">
        <ele>2472.7</ele>
        <time>2021-08-15T08:48:46Z</time>
      </trkpt>
      <trkpt lat="45.49986" lon="6.72321">
        <ele>2473</ele>
        <time>2021-08-15T08:48:47Z</time>
      </trkpt>
      <trkpt lat="45.49984" lon="6.72325">
        <ele>2473.4</ele>
        <time>2021-08-15T08:48:48Z</time>
      </trkpt>
      <trkpt lat="45.49983" lon="6.72328">
        <ele>2473.4</ele>
        <time>2021-08-15T08:48:49Z</time>
      </trkpt>
      <trkpt lat="45.49981" lon="6.72332">
        <ele>2473.8</ele>
        <time>2021-08-15T08:48:50Z</time>
      </trkpt>
      <trkpt lat="45.49979" lon="6.72335">
        <ele>2474.3</ele>
        <time>2021-08-15T08:48:51Z</time>
      </trkpt>
      <trkpt lat="45.49977" lon="6.72338">
        <ele>2474.4</ele>
        <time>2021-08-15T08:48:52Z</time>
      </trkpt>
      <trkpt lat="45.49975" lon="6.72342">
        <ele>2475.1</ele>
        <time>2021-08-15T08:48:53Z</time>
      </trkpt>
      <trkpt lat="45.49973" lon="6.72345">
        <ele>2475.1</ele>
        <time>2021-08-15T08:48:54Z</time>
      </trkpt>
      <trkpt lat="45.49971" lon="6.72349">
        <ele>2475.9</ele>
        <time>2021-08-15T08:48:55Z</time>
      </trkpt>
      <trkpt lat="45.49969" lon="6.72352">
        <ele>2476.7</ele>
        <time>2021-08-15T08:48:56Z</time>
      </trkpt>
      <trkpt lat="45.49967" lon="6.72356">
        <ele>2476.9</ele>
        <time>2021-08-15T08:48:57Z</time>
      </trkpt>
      <trkpt lat="45.49966" lon="6.72359">
        <ele>2477.9</ele>
        <time>2021-08-15T08:48:58Z</time>
      </trkpt>
      <trkpt lat="45.49964" lon="6.72363">
        <ele>2478.5</ele>
        <time>2021-08-15T08:48:59Z</time>
      </trkpt>
      <trkpt lat="45.49962" lon="6.72366">
        <ele>2478.9</ele>
        <time>2021-08-15T08:49:00Z</time>
      </trkpt>
      <trkpt lat="45.4996" lon="6.7237">
        <ele>2479.8</ele>
        <time>2021-08-15T08:49:01Z</time>
      </trkpt>
      <trkpt lat="45.49958" lon="6.72373">
        <ele>2480.1</ele>
        <time>2021-08-15T08:49:02Z</time>
      </trkpt>
      <trkpt lat="45.49956" lon="6.72377">
        <ele>2481.1</ele>
        <time>2021-08-15T08:49:03Z</time>
      </trkpt>
      <trkpt lat="45.49954" lon="6.7238">
        <ele>2481.8</ele>
        <time>2021-08-15T08:49:04Z</time>
      </trkpt>
      <trkpt lat="45.49953" lon="6.72384">
        <ele>2482.2</ele>
        <time>2021-08-15T08:49:05Z</time>
      </trkpt>
      <trkpt lat="45.49951" lon="6.72387">
        <ele>2483.3</ele>
        <time>2021-08-15T08:49:06Z</time>
      </trkpt>
      <trkpt lat="45.49949" lon="6.7239">
        <ele>2483.6</ele>
        <time>2021-08-15T08:49:07Z</time>
      </trkpt>
      <trkpt lat="45.49947" lon="6.72394">
        <ele>2484.8</ele>
        <time>2021-08-15T08:49:08Z</time>
      </trkpt>
      <trkpt lat="45.49945" lon="6.72397">
        <ele>2485.7</ele>
        <time>2021-08-15T08:49:09Z</time>
      </trkpt>
      <trkpt lat="45.49944" lon="6.724">
        <ele>2486.1</ele>
        <time>2021-08-15T08:49:10Z</time>
      </trkpt>
      <trkpt lat="45.49942" lon="6.72403">
        <ele>2487.4</ele>
        <time>2021-08-15T08:49:11Z</time>
      </trkpt>
      <trkpt lat="45.4994" lon="6.72406">
        <ele>2487.8</ele>
        <time>2021-08-15T08:49:12Z</time>
      </trkpt>
      <trkpt lat="45.49938" lon="6.72409">
        <ele>2488.7</ele>
        <time>2021-08-15T08:49:13Z</time>
      </trkpt>
      <trkpt lat="45.49937" lon="6.72413">
        <ele>2490</ele>
        <time>2021-08-15T08:49:14Z</time>
      </trkpt>
      <trkpt lat="45.49935" lon="6.72416">
        <ele>2490.5</ele>
        <time>2021-08-15T08:49:15Z</time>
      </trkpt>
      <trkpt lat="45.49933" lon="6.72419">
        <ele>2491.4</ele>
        <time>2021-08-15T08:49:16Z</time>
      </trkpt>
      <trkpt lat="45.49931" lon="6.72422">
        <ele>2491.8</ele>
        <time>2021-08-15T08:49:17Z</time>
      </trkpt>
      <trkpt lat="45.49929" lon="6.72425">
        <ele>2492.3</ele>
        <time>2021-08-15T08:49:18Z</time>
      </trkpt>
      <trkpt lat="45.49928" lon="6.72428">
        <ele>2492.8</ele>
        <time>2021-08-15T08:49:19Z</time>
      </trkpt>
      <trkpt lat="45.49926" lon="6.72431">
        <ele>2493.2</ele>
        <time>2021-08-15T08:49:20Z</time>
      </trkpt>
      <trkpt lat="45.49924" lon="6.72434">
        <ele>2493.7</ele>
        <time>2021-08-15T08:49:21Z</time>
      </trkpt>
      <trkpt lat="45.49922" lon="6.72437">
        <ele>2494.2</ele>
        <time>2021-08-15T08:49:22Z</time>
      </trkpt>
      <trkpt lat="45.4992" lon="6.7244">
        <ele>2494.6</ele>
        <time>2021-08-15T08:49:23Z</time>
      </trkpt>
      <trkpt lat="45.49918" lon="6.72443">
        <ele>2495.1</ele>
        <time>2021-08-15T08:49:24Z</time>
      </trkpt>
      <trkpt lat="45.49916" lon="6.72446">
        <ele>2495.6</ele>
        <time>2021-08-15T08:49:25Z</time>
      </trkpt>
      <trkpt lat="45.49914" lon="6.72449">
        <ele>2496.1</ele>
        <time>2021-08-15T08:49:26Z</time>
      </trkpt>
      <trkpt lat="45.49912" lon="6.72452">
        <ele>2496.6</ele>
        <time>2021-08-15T08:49:27Z</time>
      </trkpt>
      <trkpt lat="45.4991" lon="6.72455">
        <ele>2497</ele>
        <time>2021-08-15T08:49:28Z</time>
      </trkpt>
      <trkpt lat="45.49908" lon="6.72459">
        <ele>2497.5</ele>
        <time>2021-08-15T08:49:29Z</time>
      </trkpt>
      <trkpt lat="45.49906" lon="6.72462">
        <ele>2498</ele>
        <time>2021-08-15T08:49:30Z</time>
      </trkpt>
      <trkpt lat="45.49904" lon="6.72465">
        <ele>2498.5</ele>
        <time>2021-08-15T08:49:31Z</time>
      </trkpt>
      <trkpt lat="45.49902" lon="6.72468">
        <ele>2499</ele>
        <time>2021-08-15T08:49:32Z</time>
      </trkpt>
      <trkpt lat="45.499" lon="6.72471">
        <ele>2499.5</ele>
        <time>2021-08-15T08:49:33Z</time>
      </trkpt>
      <trkpt lat="45.49898" lon="6.72474">
        <ele>2500</ele>
        <time>2021-08-15T08:49:34Z</time>
      </trkpt>
      <trkpt lat="45.49896" lon="6.72477">
        <ele>2500.5</ele>
        <time>2021-08-15T08:49:35Z</time>
      </trkpt>
      <trkpt lat="45.49895" lon="6.7248">
        <ele>2501</ele>
        <time>2021-08-15T08:49:36Z</time>
      </trkpt>
      <trkpt lat="45.49893" lon="6.72484">
        <ele>2501.4</ele>
        <time>2021-08-15T08:49:37Z</time>
      </trkpt>
      <trkpt lat="45.49891" lon="6.72487">
        <ele>2501.9</ele>
        <time>2021-08-15T08:49:38Z</time>
      </trkpt>
      <trkpt lat="45.49889" lon="6.7249">
        <ele>2502.4</ele>
        <time>2021-08-15T08:49:39Z</time>
      </trkpt>
      <trkpt lat="45.49887" lon="6.72493">
        <ele>2502.9</ele>
        <time>2021-08-15T08:49:40Z</time>
      </trkpt>
      <trkpt lat="45.49886" lon="6.72497">
        <ele>2503.4</ele>
        <time>2021-08-15T08:49:41Z</time>
      </trkpt>
      <trkpt lat="45.49884" lon="6.725">
        <ele>2503.9</ele>
        <time>2021-08-15T08:49:42Z</time>
      </trkpt>
      <trkpt lat="45.49883" lon="6.72503">
        <ele>2504.3</ele>
        <time>2021-08-15T08:49:43Z</time>
      </trkpt>
      <trkpt lat="45.49881" lon="6.72506">
        <ele>2504.8</ele>
        <time>2021-08-15T08:49:44Z</time>
      </trkpt>
      <trkpt lat="45.4988" lon="6.7251">
        <ele>2505.3</ele>
        <time>2021-08-15T08:49:45Z</time>
      </trkpt>
      <trkpt lat="45.49879" lon="6.72513">
        <ele>2505.7</ele>
        <time>2021-08-15T08:49:46Z</time>
      </trkpt>
      <trkpt lat="45.49877" lon="6.72517">
        <ele>2506.2</ele>
        <time>2021-08-15T08:49:47Z</time>
      </trkpt>
      <trkpt lat="45.49876" lon="6.7252">
        <ele>2506.7</ele>
        <time>2021-08-15T08:49:48Z</time>
      </trkpt>
      <trkpt lat="45.49875" lon="6.72523">
        <ele>2507.2</ele>
        <time>2021-08-15T08:49:49Z</time>
      </trkpt>
      <trkpt lat="45.49873" lon="6.72527">
        <ele>2507.7</ele>
        <time>2021-08-15T08:49:50Z</time>
      </trkpt>
      <trkpt lat="45.49872" lon="6.7253">
        <ele>2508.3</ele>
        <time>2021-08-15T08:49:51Z</time>
      </trkpt>
      <trkpt lat="45.4987" lon="6.72533">
        <ele>2508.8</ele>
        <time>2021-08-15T08:49:52Z</time>
      </trkpt>
      <trkpt lat="45.49869" lon="6.72537">
        <ele>2509.4</ele>
        <time>2021-08-15T08:49:53Z</time>
      </trkpt>
      <trkpt lat="45.49867" lon="6.7254">
        <ele>2509.9</ele>
        <time>2021-08-15T08:49:54Z</time>
      </trkpt>
      <trkpt lat="45.49866" lon="6.72543">
        <ele>2510.5</ele>
        <time>2021-08-15T08:49:55Z</time>
      </trkpt>
      <trkpt lat="45.49864" lon="6.72546">
        <ele>2511.1</ele>
        <time>2021-08-15T08:49:56Z</time>
      </trkpt>
      <trkpt lat="45.49863" lon="6.7255">
        <ele>2511.6</ele>
        <time>2021-08-15T08:49:57Z</time>
      </trkpt>
      <trkpt lat="45.49861" lon="6.72553">
        <ele>2512.2</ele>
        <time>2021-08-15T08:49:58Z</time>
      </trkpt>
      <trkpt lat="45.49859" lon="6.72556">
        <ele>2512.9</ele>
        <time>2021-08-15T08:49:59Z</time>
      </trkpt>
      <trkpt lat="45.49858" lon="6.7256">
        <ele>2513.5</ele>
        <time>2021-08-15T08:50:00Z</time>
      </trkpt>
      <trkpt lat="45.49856" lon="6.72563">
        <ele>2514.1</ele>
        <time>2021-08-15T08:50:01Z</time>
      </trkpt>
      <trkpt lat="45.49855" lon="6.72567">
        <ele>2514.7</ele>
        <time>2021-08-15T08:50:02Z</time>
      </trkpt>
      <trkpt lat="45.49854" lon="6.72571">
        <ele>2515.4</ele>
        <time>2021-08-15T08:50:03Z</time>
      </trkpt>
      <trkpt lat="45.49852" lon="6.72574">
        <ele>2516</ele>
        <time>2021-08-15T08:50:04Z</time>
      </trkpt>
      <trkpt lat="45.49851" lon="6.72578">
        <ele>2516.6</ele>
        <time>2021-08-15T08:50:05Z</time>
      </trkpt>
      <trkpt lat="45.49849" lon="6.72582">
        <ele>2517.2</ele>
        <time>2021-08-15T08:50:06Z</time>
      </trkpt>
      <trkpt lat="45.49848" lon="6.72586">
        <ele>2517.7</ele>
        <time>2021-08-15T08:50:07Z</time>
      </trkpt>
      <trkpt lat="45.49846" lon="6.72589">
        <ele>2518.2</ele>
        <time>2021-08-15T08:50:08Z</time>
      </trkpt>
      <trkpt lat="45.49845" lon="6.72593">
        <ele>2518.7</ele>
        <time>2021-08-15T08:50:09Z</time>
      </trkpt>
      <trkpt lat="45.49843" lon="6.72597">
        <ele>2519.5</ele>
        <time>2021-08-15T08:50:10Z</time>
      </trkpt>
      <trkpt lat="45.49842" lon="6.726">
        <ele>2519.6</ele>
        <time>2021-08-15T08:50:11Z</time>
      </trkpt>
      <trkpt lat="45.4984" lon="6.72604">
        <ele>2520.4</ele>
        <time>2021-08-15T08:50:12Z</time>
      </trkpt>
      <trkpt lat="45.49839" lon="6.72608">
        <ele>2520.5</ele>
        <time>2021-08-15T08:50:13Z</time>
      </trkpt>
      <trkpt lat="45.49837" lon="6.72612">
        <ele>2521.2</ele>
        <time>2021-08-15T08:50:14Z</time>
      </trkpt>
      <trkpt lat="45.49835" lon="6.72616">
        <ele>2521.3</ele>
        <time>2021-08-15T08:50:15Z</time>
      </trkpt>
      <trkpt lat="45.49834" lon="6.72619">
        <ele>2522.1</ele>
        <time>2021-08-15T08:50:16Z</time>
      </trkpt>
      <trkpt lat="45.49832" lon="6.72623">
        <ele>2522.3</ele>
        <time>2021-08-15T08:50:17Z</time>
      </trkpt>
      <trkpt lat="45.49831" lon="6.72627">
        <ele>2523.1</ele>
        <time>2021-08-15T08:50:18Z</time>
      </trkpt>
      <trkpt lat="45.49829" lon="6.72631">
        <ele>2523.3</ele>
        <time>2021-08-15T08:50:19Z</time>
      </trkpt>
      <trkpt lat="45.49828" lon="6.72635">
        <ele>2524.3</ele>
        <time>2021-08-15T08:50:20Z</time>
      </trkpt>
      <trkpt lat="45.49826" lon="6.72639">
        <ele>2524.5</ele>
        <time>2021-08-15T08:50:21Z</time>
      </trkpt>
      <trkpt lat="45.49825" lon="6.72643">
        <ele>2525.6</ele>
        <time>2021-08-15T08:50:22Z</time>
      </trkpt>
      <trkpt lat="45.49823" lon="6.72646">
        <ele>2525.6</ele>
        <time>2021-08-15T08:50:23Z</time>
      </trkpt>
      <trkpt lat="45.49822" lon="6.7265">
        <ele>2526.6</ele>
        <time>2021-08-15T08:50:24Z</time>
      </trkpt>
      <trkpt lat="45.4982" lon="6.72654">
        <ele>2526.9</ele>
        <time>2021-08-15T08:50:25Z</time>
      </trkpt>
      <trkpt lat="45.49819" lon="6.72658">
        <ele>2527.9</ele>
        <time>2021-08-15T08:50:26Z</time>
      </trkpt>
      <trkpt lat="45.49817" lon="6.72662">
        <ele>2528.2</ele>
        <time>2021-08-15T08:50:27Z</time>
      </trkpt>
      <trkpt lat="45.49816" lon="6.72666">
        <ele>2529.3</ele>
        <time>2021-08-15T08:50:28Z</time>
      </trkpt>
      <trkpt lat="45.49814" lon="6.7267">
        <ele>2529.6</ele>
        <time>2021-08-15T08:50:29Z</time>
      </trkpt>
      <trkpt lat="45.49813" lon="6.72673">
        <ele>2530.6</ele>
        <time>2021-08-15T08:50:30Z</time>
      </trkpt>
      <trkpt lat="45.49812" lon="6.72677">
        <ele>2530.9</ele>
        <time>2021-08-15T08:50:31Z</time>
      </trkpt>
      <trkpt lat="45.4981" lon="6.72681">
        <ele>2531.7</ele>
        <time>2021-08-15T08:50:32Z</time>
      </trkpt>
      <trkpt lat="45.49809" lon="6.72684">
        <ele>2532</ele>
        <time>2021-08-15T08:50:33Z</time>
      </trkpt>
      <trkpt lat="45.49807" lon="6.72688">
        <ele>2533</ele>
        <time>2021-08-15T08:50:34Z</time>
      </trkpt>
      <trkpt lat="45.49806" lon="6.72691">
        <ele>2533.3</ele>
        <time>2021-08-15T08:50:35Z</time>
      </trkpt>
      <trkpt lat="45.49805" lon="6.72695">
        <ele>2533.6</ele>
        <time>2021-08-15T08:50:36Z</time>
      </trkpt>
      <trkpt lat="45.49804" lon="6.72698">
        <ele>2534.4</ele>
        <time>2021-08-15T08:50:37Z</time>
      </trkpt>
      <trkpt lat="45.49802" lon="6.72701">
        <ele>2534.7</ele>
        <time>2021-08-15T08:50:38Z</time>
      </trkpt>
      <trkpt lat="45.49801" lon="6.72705">
        <ele>2535.8</ele>
        <time>2021-08-15T08:50:39Z</time>
      </trkpt>
      <trkpt lat="45.498" lon="6.72708">
        <ele>2536</ele>
        <time>2021-08-15T08:50:40Z</time>
      </trkpt>
      <trkpt lat="45.49799" lon="6.72711">
        <ele>2536.2</ele>
        <time>2021-08-15T08:50:41Z</time>
      </trkpt>
      <trkpt lat="45.49797" lon="6.72715">
        <ele>2537</ele>
        <time>2021-08-15T08:50:42Z</time>
      </trkpt>
      <trkpt lat="45.49796" lon="6.72718">
        <ele>2537.3</ele>
        <time>2021-08-15T08:50:43Z</time>
      </trkpt>
      <trkpt lat="45.49795" lon="6.72722">
        <ele>2538.4</ele>
        <time>2021-08-15T08:50:44Z</time>
      </trkpt>
      <trkpt lat="45.49794" lon="6.72726">
        <ele>2538.7</ele>
        <time>2021-08-15T08:50:45Z</time>
      </trkpt>
      <trkpt lat="45.49792" lon="6.72729">
        <ele>2539.9</ele>
        <time>2021-08-15T08:50:46Z</time>
      </trkpt>
      <trkpt lat="45.49791" lon="6.72733">
        <ele>2540.2</ele>
        <time>2021-08-15T08:50:47Z</time>
      </trkpt>
      <trkpt lat="45.49789" lon="6.72737">
        <ele>2541.1</ele>
        <time>2021-08-15T08:50:48Z</time>
      </trkpt>
      <trkpt lat="45.49788" lon="6.7274">
        <ele>2541.5</ele>
        <time>2021-08-15T08:50:49Z</time>
      </trkpt>
      <trkpt lat="45.49786" lon="6.72744">
        <ele>2542.9</ele>
        <time>2021-08-15T08:50:50Z</time>
      </trkpt>
      <trkpt lat="45.49784" lon="6.72748">
        <ele>2543.3</ele>
        <time>2021-08-15T08:50:51Z</time>
      </trkpt>
      <trkpt lat="45.49783" lon="6.72751">
        <ele>2544.7</ele>
        <time>2021-08-15T08:50:52Z</time>
      </trkpt>
      <trkpt lat="45.49781" lon="6.72755">
        <ele>2545.1</ele>
        <time>2021-08-15T08:50:53Z</time>
      </trkpt>
      <trkpt lat="45.49779" lon="6.72758">
        <ele>2546.6</ele>
        <time>2021-08-15T08:50:54Z</time>
      </trkpt>
      <trkpt lat="45.49778" lon="6.72762">
        <ele>2546.6</ele>
        <time>2021-08-15T08:50:55Z</time>
      </trkpt>
      <trkpt lat="45.49776" lon="6.72765">
        <ele>2548.1</ele>
        <time>2021-08-15T08:50:56Z</time>
      </trkpt>
      <trkpt lat="45.49774" lon="6.72769">
        <ele>2549.5</ele>
        <time>2021-08-15T08:50:57Z</time>
      </trkpt>
      <trkpt lat="45.49773" lon="6.72772">
        <ele>2549.9</ele>
        <time>2021-08-15T08:50:58Z</time>
      </trkpt>
      <trkpt lat="45.49771" lon="6.72775">
        <ele>2551.3</ele>
        <time>2021-08-15T08:50:59Z</time>
      </trkpt>
      <trkpt lat="45.49769" lon="6.72779">
        <ele>2551.3</ele>
        <time>2021-08-15T08:51:00Z</time>
      </trkpt>
      <trkpt lat="45.49768" lon="6.72782">
        <ele>2552.7</ele>
        <time>2021-08-15T08:51:01Z</time>
      </trkpt>
      <trkpt lat="45.49766" lon="6.72785">
        <ele>2553.1</ele>
        <time>2021-08-15T08:51:02Z</time>
      </trkpt>
      <trkpt lat="45.49764" lon="6.72789">
        <ele>2554.4</ele>
        <time>2021-08-15T08:51:03Z</time>
      </trkpt>
      <trkpt lat="45.49762" lon="6.72792">
        <ele>2555.3</ele>
        <time>2021-08-15T08:51:04Z</time>
      </trkpt>
      <trkpt lat="45.49761" lon="6.72796">
        <ele>2555.8</ele>
        <time>2021-08-15T08:51:05Z</time>
      </trkpt>
      <trkpt lat="45.49759" lon="6.72799">
        <ele>2557.1</ele>
        <time>2021-08-15T08:51:06Z</time>
      </trkpt>
      <trkpt lat="45.49757" lon="6.72803">
        <ele>2557.5</ele>
        <time>2021-08-15T08:51:07Z</time>
      </trkpt>
      <trkpt lat="45.49755" lon="6.72806">
        <ele>2558.9</ele>
        <time>2021-08-15T08:51:08Z</time>
      </trkpt>
      <trkpt lat="45.49753" lon="6.7281">
        <ele>2559.8</ele>
        <time>2021-08-15T08:51:09Z</time>
      </trkpt>
      <trkpt lat="45.49751" lon="6.72813">
        <ele>2560.3</ele>
        <time>2021-08-15T08:51:10Z</time>
      </trkpt>
      <trkpt lat="45.49749" lon="6.72817">
        <ele>2561.6</ele>
        <time>2021-08-15T08:51:11Z</time>
      </trkpt>
      <trkpt lat="45.49747" lon="6.7282">
        <ele>2562.1</ele>
        <time>2021-08-15T08:51:12Z</time>
      </trkpt>
      <trkpt lat="45.49746" lon="6.72824">
        <ele>2563.5</ele>
        <time>2021-08-15T08:51:13Z</time>
      </trkpt>
      <trkpt lat="45.49744" lon="6.72827">
        <ele>2564.7</ele>
        <time>2021-08-15T08:51:14Z</time>
      </trkpt>
      <trkpt lat="45.49742" lon="6.7283">
        <ele>2564.7</ele>
        <time>2021-08-15T08:51:15Z</time>
      </trkpt>
      <trkpt lat="45.49741" lon="6.72834">
        <ele>2565.9</ele>
        <time>2021-08-15T08:51:16Z</time>
      </trkpt>
      <trkpt lat="45.49739" lon="6.72837">
        <ele>2566.4</ele>
        <time>2021-08-15T08:51:17Z</time>
      </trkpt>
      <trkpt lat="45.49737" lon="6.72841">
        <ele>2567.5</ele>
        <time>2021-08-15T08:51:18Z</time>
      </trkpt>
      <trkpt lat="45.49736" lon="6.72844">
        <ele>2568</ele>
        <time>2021-08-15T08:51:19Z</time>
      </trkpt>
      <trkpt lat="45.49734" lon="6.72848">
        <ele>2568.6</ele>
        <time>2021-08-15T08:51:20Z</time>
      </trkpt>
      <trkpt lat="45.49732" lon="6.72851">
        <ele>2569.7</ele>
        <time>2021-08-15T08:51:21Z</time>
      </trkpt>
      <trkpt lat="45.49731" lon="6.72855">
        <ele>2570.2</ele>
        <time>2021-08-15T08:51:22Z</time>
      </trkpt>
      <trkpt lat="45.49729" lon="6.72858">
        <ele>2571.4</ele>
        <time>2021-08-15T08:51:23Z</time>
      </trkpt>
      <trkpt lat="45.49727" lon="6.72862">
        <ele>2571.9</ele>
        <time>2021-08-15T08:51:24Z</time>
      </trkpt>
      <trkpt lat="45.49726" lon="6.72865">
        <ele>2572.5</ele>
        <time>2021-08-15T08:51:25Z</time>
      </trkpt>
      <trkpt lat="45.49724" lon="6.72869">
        <ele>2573</ele>
        <time>2021-08-15T08:51:26Z</time>
      </trkpt>
      <trkpt lat="45.49722" lon="6.72872">
        <ele>2574.2</ele>
        <time>2021-08-15T08:51:27Z</time>
      </trkpt>
      <trkpt lat="45.49721" lon="6.72876">
        <ele>2574.6</ele>
        <time>2021-08-15T08:51:28Z</time>
      </trkpt>
      <trkpt lat="45.49719" lon="6.72879">
        <ele>2575.7</ele>
        <time>2021-08-15T08:51:29Z</time>
      </trkpt>
      <trkpt lat="45.49717" lon="6.72883">
        <ele>2576.1</ele>
        <time>2021-08-15T08:51:30Z</time>
      </trkpt>
      <trkpt lat="45.49716" lon="6.72886">
        <ele>2576.8</ele>
        <time>2021-08-15T08:51:31Z</time>
      </trkpt>
      <trkpt lat="45.49714" lon="6.7289">
        <ele>2577.7</ele>
        <time>2021-08-15T08:51:32Z</time>
      </trkpt>
      <trkpt lat="45.49712" lon="6.72893">
        <ele>2578.2</ele>
        <time>2021-08-15T08:51:33Z</time>
      </trkpt>
      <trkpt lat="45.49711" lon="6.72896">
        <ele>2579.1</ele>
        <time>2021-08-15T08:51:34Z</time>
      </trkpt>
      <trkpt lat="45.49709" lon="6.729">
        <ele>2579.1</ele>
        <time>2021-08-15T08:51:35Z</time>
      </trkpt>
      <trkpt lat="45.49708" lon="6.72903">
        <ele>2579.9</ele>
        <time>2021-08-15T08:51:36Z</time>
      </trkpt>
      <trkpt lat="45.49706" lon="6.72906">
        <ele>2580.4</ele>
        <time>2021-08-15T08:51:37Z</time>
      </trkpt>
      <trkpt lat="45.49705" lon="6.7291">
        <ele>2581.2</ele>
        <time>2021-08-15T08:51:38Z</time>
      </trkpt>
      <trkpt lat="45.49703" lon="6.72913">
        <ele>2581.6</ele>
        <time>2021-08-15T08:51:39Z</time>
      </trkpt>
      <trkpt lat="45.49701" lon="6.72916">
        <ele>2582</ele>
        <time>2021-08-15T08:51:40Z</time>
      </trkpt>
      <trkpt lat="45.497" lon="6.72919">
        <ele>2582.4</ele>
        <time>2021-08-15T08:51:41Z</time>
      </trkpt>
      <trkpt lat="45.49698" lon="6.72923">
        <ele>2583.2</ele>
        <time>2021-08-15T08:51:42Z</time>
      </trkpt>
      <trkpt lat="45.49697" lon="6.72926">
        <ele>2583.6</ele>
        <time>2021-08-15T08:51:43Z</time>
      </trkpt>
      <trkpt lat="45.49695" lon="6.72929">
        <ele>2583.9</ele>
        <time>2021-08-15T08:51:44Z</time>
      </trkpt>
      <trkpt lat="45.49693" lon="6.72932">
        <ele>2584.6</ele>
        <time>2021-08-15T08:51:45Z</time>
      </trkpt>
      <trkpt lat="45.49692" lon="6.72935">
        <ele>2585</ele>
        <time>2021-08-15T08:51:46Z</time>
      </trkpt>
      <trkpt lat="45.4969" lon="6.72938">
        <ele>2585.3</ele>
        <time>2021-08-15T08:51:47Z</time>
      </trkpt>
      <trkpt lat="45.49688" lon="6.72941">
        <ele>2585.7</ele>
        <time>2021-08-15T08:51:48Z</time>
      </trkpt>
      <trkpt lat="45.49686" lon="6.72944">
        <ele>2586.5</ele>
        <time>2021-08-15T08:51:49Z</time>
      </trkpt>
      <trkpt lat="45.49685" lon="6.72947">
        <ele>2586.5</ele>
        <time>2021-08-15T08:51:50Z</time>
      </trkpt>
      <trkpt lat="45.49683" lon="6.7295">
        <ele>2587.2</ele>
        <time>2021-08-15T08:51:51Z</time>
      </trkpt>
      <trkpt lat="45.49681" lon="6.72953">
        <ele>2587.8</ele>
        <time>2021-08-15T08:51:52Z</time>
      </trkpt>
      <trkpt lat="45.49679" lon="6.72956">
        <ele>2588.3</ele>
        <time>2021-08-15T08:51:53Z</time>
      </trkpt>
      <trkpt lat="45.49678" lon="6.72959">
        <ele>2588.4</ele>
        <time>2021-08-15T08:51:54Z</time>
      </trkpt>
      <trkpt lat="45.49676" lon="6.72962">
        <ele>2588.8</ele>
        <time>2021-08-15T08:51:55Z</time>
      </trkpt>
      <trkpt lat="45.49674" lon="6.72966">
        <ele>2589.3</ele>
        <time>2021-08-15T08:51:56Z</time>
      </trkpt>
      <trkpt lat="45.49672" lon="6.72969">
        <ele>2589.7</ele>
        <time>2021-08-15T08:51:57Z</time>
      </trkpt>
      <trkpt lat="45.49671" lon="6.72972">
        <ele>2589.8</ele>
        <time>2021-08-15T08:51:58Z</time>
      </trkpt>
      <trkpt lat="45.49669" lon="6.72975">
        <ele>2590.1</ele>
        <time>2021-08-15T08:51:59Z</time>
      </trkpt>
      <trkpt lat="45.49667" lon="6.72979">
        <ele>2590.4</ele>
        <time>2021-08-15T08:52:00Z</time>
      </trkpt>
      <trkpt lat="45.49665" lon="6.72982">
        <ele>2590.7</ele>
        <time>2021-08-15T08:52:01Z</time>
      </trkpt>
      <trkpt lat="45.49663" lon="6.72985">
        <ele>2590.7</ele>
        <time>2021-08-15T08:52:02Z</time>
      </trkpt>
      <trkpt lat="45.49661" lon="6.72988">
        <ele>2590.9</ele>
        <time>2021-08-15T08:52:03Z</time>
      </trkpt>
      <trkpt lat="45.4966" lon="6.72992">
        <ele>2591.1</ele>
        <time>2021-08-15T08:52:04Z</time>
      </trkpt>
      <trkpt lat="45.49658" lon="6.72995">
        <ele>2591.6</ele>
        <time>2021-08-15T08:52:05Z</time>
      </trkpt>
      <trkpt lat="45.49656" lon="6.72998">
        <ele>2591.4</ele>
        <time>2021-08-15T08:52:06Z</time>
      </trkpt>
      <trkpt lat="45.49654" lon="6.73001">
        <ele>2591.6</ele>
        <time>2021-08-15T08:52:07Z</time>
      </trkpt>
      <trkpt lat="45.49652" lon="6.73004">
        <ele>2592.1</ele>
        <time>2021-08-15T08:52:08Z</time>
      </trkpt>
      <trkpt lat="45.4965" lon="6.73007">
        <ele>2592.2</ele>
        <time>2021-08-15T08:52:09Z</time>
      </trkpt>
      <trkpt lat="45.49648" lon="6.7301">
        <ele>2592</ele>
        <time>2021-08-15T08:52:10Z</time>
      </trkpt>
      <trkpt lat="45.49646" lon="6.73014">
        <ele>2592.3</ele>
        <time>2021-08-15T08:52:11Z</time>
      </trkpt>
      <trkpt lat="45.49644" lon="6.73017">
        <ele>2592.4</ele>
        <time>2021-08-15T08:52:12Z</time>
      </trkpt>
      <trkpt lat="45.49642" lon="6.7302">
        <ele>2592.1</ele>
        <time>2021-08-15T08:52:13Z</time>
      </trkpt>
      <trkpt lat="45.4964" lon="6.73023">
        <ele>2592.4</ele>
        <time>2021-08-15T08:52:14Z</time>
      </trkpt>
      <trkpt lat="45.49637" lon="6.73026">
        <ele>2592.3</ele>
        <time>2021-08-15T08:52:15Z</time>
      </trkpt>
      <trkpt lat="45.49635" lon="6.73029">
        <ele>2592.3</ele>
        <time>2021-08-15T08:52:16Z</time>
      </trkpt>
      <trkpt lat="45.49633" lon="6.73032">
        <ele>2592.3</ele>
        <time>2021-08-15T08:52:17Z</time>
      </trkpt>
      <trkpt lat="45.49631" lon="6.73035">
        <ele>2592.3</ele>
        <time>2021-08-15T08:52:18Z</time>
      </trkpt>
      <trkpt lat="45.49629" lon="6.73038">
        <ele>2592.3</ele>
        <time>2021-08-15T08:52:19Z</time>
      </trkpt>
      <trkpt lat="45.49627" lon="6.73041">
        <ele>2592.3</ele>
        <time>2021-08-15T08:52:20Z</time>
      </trkpt>
      <trkpt lat="45.49625" lon="6.73044">
        <ele>2592.3</ele>
        <time>2021-08-15T08:52:21Z</time>
      </trkpt>
      <trkpt lat="45.49623" lon="6.73047">
        <ele>2592.4</ele>
        <time>2021-08-15T08:52:22Z</time>
      </trkpt>
      <trkpt lat="45.49621" lon="6.7305">
        <ele>2592.4</ele>
        <time>2021-08-15T08:52:23Z</time>
      </trkpt>
      <trkpt lat="45.49619" lon="6.73054">
        <ele>2592.4</ele>
        <time>2021-08-15T08:52:24Z</time>
      </trkpt>
      <trkpt lat="45.49617" lon="6.73057">
        <ele>2592.4</ele>
        <time>2021-08-15T08:52:25Z</time>
      </trkpt>
      <trkpt lat="45.49615" lon="6.7306">
        <ele>2592.3</ele>
        <time>2021-08-15T08:52:26Z</time>
      </trkpt>
      <trkpt lat="45.49613" lon="6.73063">
        <ele>2592.8</ele>
        <time>2021-08-15T08:52:27Z</time>
      </trkpt>
      <trkpt lat="45.49611" lon="6.73066">
        <ele>2592.3</ele>
        <time>2021-08-15T08:52:28Z</time>
      </trkpt>
      <trkpt lat="45.49609" lon="6.73069">
        <ele>2592.7</ele>
        <time>2021-08-15T08:52:29Z</time>
      </trkpt>
      <trkpt lat="45.49607" lon="6.73072">
        <ele>2592.7</ele>
        <time>2021-08-15T08:52:30Z</time>
      </trkpt>
      <trkpt lat="45.49605" lon="6.73076">
        <ele>2592.2</ele>
        <time>2021-08-15T08:52:31Z</time>
      </trkpt>
      <trkpt lat="45.49603" lon="6.73079">
        <ele>2592.7</ele>
        <time>2021-08-15T08:52:32Z</time>
      </trkpt>
      <trkpt lat="45.49601" lon="6.73082">
        <ele>2592.8</ele>
        <time>2021-08-15T08:52:33Z</time>
      </trkpt>
      <trkpt lat="45.49599" lon="6.73085">
        <ele>2592.8</ele>
        <time>2021-08-15T08:52:34Z</time>
      </trkpt>
      <trkpt lat="45.49597" lon="6.73088">
        <ele>2592.8</ele>
        <time>2021-08-15T08:52:35Z</time>
      </trkpt>
      <trkpt lat="45.49595" lon="6.73092">
        <ele>2592.9</ele>
        <time>2021-08-15T08:52:36Z</time>
      </trkpt>
      <trkpt lat="45.49593" lon="6.73095">
        <ele>2592.9</ele>
        <time>2021-08-15T08:52:37Z</time>
      </trkpt>
      <trkpt lat="45.49592" lon="6.73098">
        <ele>2593.5</ele>
        <time>2021-08-15T08:52:38Z</time>
      </trkpt>
      <trkpt lat="45.4959" lon="6.73102">
        <ele>2593.5</ele>
        <time>2021-08-15T08:52:39Z</time>
      </trkpt>
      <trkpt lat="45.49588" lon="6.73105">
        <ele>2592.9</ele>
        <time>2021-08-15T08:52:40Z</time>
      </trkpt>
      <trkpt lat="45.49586" lon="6.73108">
        <ele>2593.5</ele>
        <time>2021-08-15T08:52:41Z</time>
      </trkpt>
      <trkpt lat="45.49584" lon="6.73111">
        <ele>2593.5</ele>
        <time>2021-08-15T08:52:42Z</time>
      </trkpt>
      <trkpt lat="45.49582" lon="6.73115">
        <ele>2594.2</ele>
        <time>2021-08-15T08:52:43Z</time>
      </trkpt>
      <trkpt lat="45.4958" lon="6.73118">
        <ele>2593.6</ele>
        <time>2021-08-15T08:52:44Z</time>
      </trkpt>
      <trkpt lat="45.49578" lon="6.73121">
        <ele>2593.8</ele>
        <time>2021-08-15T08:52:45Z</time>
      </trkpt>
      <trkpt lat="45.49576" lon="6.73125">
        <ele>2594.5</ele>
        <time>2021-08-15T08:52:46Z</time>
      </trkpt>
      <trkpt lat="45.49575" lon="6.73128">
        <ele>2594.8</ele>
        <time>2021-08-15T08:52:47Z</time>
      </trkpt>
      <trkpt lat="45.49573" lon="6.73132">
        <ele>2595.2</ele>
        <time>2021-08-15T08:52:48Z</time>
      </trkpt>
      <trkpt lat="45.49571" lon="6.73135">
        <ele>2595.2</ele>
        <time>2021-08-15T08:52:49Z</time>
      </trkpt>
      <trkpt lat="45.49569" lon="6.73138">
        <ele>2595.6</ele>
        <time>2021-08-15T08:52:50Z</time>
      </trkpt>
      <trkpt lat="45.49567" lon="6.73142">
        <ele>2596.5</ele>
        <time>2021-08-15T08:52:51Z</time>
      </trkpt>
      <trkpt lat="45.49566" lon="6.73145">
        <ele>2597</ele>
        <time>2021-08-15T08:52:52Z</time>
      </trkpt>
      <trkpt lat="45.49564" lon="6.73149">
        <ele>2597</ele>
        <time>2021-08-15T08:52:53Z</time>
      </trkpt>
      <trkpt lat="45.49562" lon="6.73152">
        <ele>2597.4</ele>
        <time>2021-08-15T08:52:54Z</time>
      </trkpt>
      <trkpt lat="45.49561" lon="6.73155">
        <ele>2597.8</ele>
        <time>2021-08-15T08:52:55Z</time>
      </trkpt>
      <trkpt lat="45.49559" lon="6.73159">
        <ele>2598.7</ele>
        <time>2021-08-15T08:52:56Z</time>
      </trkpt>
      <trkpt lat="45.49557" lon="6.73162">
        <ele>2599.3</ele>
        <time>2021-08-15T08:52:57Z</time>
      </trkpt>
      <trkpt lat="45.49556" lon="6.73166">
        <ele>2599.3</ele>
        <time>2021-08-15T08:52:58Z</time>
      </trkpt>
      <trkpt lat="45.49554" lon="6.73169">
        <ele>2599.9</ele>
        <time>2021-08-15T08:52:59Z</time>
      </trkpt>
      <trkpt lat="45.49552" lon="6.73172">
        <ele>2601</ele>
        <time>2021-08-15T08:53:00Z</time>
      </trkpt>
      <trkpt lat="45.49551" lon="6.73176">
        <ele>2601.8</ele>
        <time>2021-08-15T08:53:01Z</time>
      </trkpt>
      <trkpt lat="45.49549" lon="6.73179">
        <ele>2603</ele>
        <time>2021-08-15T08:53:02Z</time>
      </trkpt>
      <trkpt lat="45.49548" lon="6.73183">
        <ele>2602.7</ele>
        <time>2021-08-15T08:53:03Z</time>
      </trkpt>
      <trkpt lat="45.49546" lon="6.73186">
        <ele>2603.9</ele>
        <time>2021-08-15T08:53:04Z</time>
      </trkpt>
      <trkpt lat="45.49545" lon="6.73189">
        <ele>2604.9</ele>
        <time>2021-08-15T08:53:05Z</time>
      </trkpt>
      <trkpt lat="45.49544" lon="6.73193">
        <ele>2606.1</ele>
        <time>2021-08-15T08:53:06Z</time>
      </trkpt>
      <trkpt lat="45.49542" lon="6.73196">
        <ele>2607.1</ele>
        <time>2021-08-15T08:53:07Z</time>
      </trkpt>
      <trkpt lat="45.49541" lon="6.732">
        <ele>2607.1</ele>
        <time>2021-08-15T08:53:08Z</time>
      </trkpt>
      <trkpt lat="45.49539" lon="6.73203">
        <ele>2608.2</ele>
        <time>2021-08-15T08:53:09Z</time>
      </trkpt>
      <trkpt lat="45.49538" lon="6.73207">
        <ele>2609.5</ele>
        <time>2021-08-15T08:53:10Z</time>
      </trkpt>
      <trkpt lat="45.49536" lon="6.7321">
        <ele>2610.6</ele>
        <time>2021-08-15T08:53:11Z</time>
      </trkpt>
      <trkpt lat="45.49535" lon="6.73214">
        <ele>2612</ele>
        <time>2021-08-15T08:53:12Z</time>
      </trkpt>
      <trkpt lat="45.49534" lon="6.73218">
        <ele>2613.3</ele>
        <time>2021-08-15T08:53:13Z</time>
      </trkpt>
      <trkpt lat="45.49532" lon="6.73222">
        <ele>2614.7</ele>
        <time>2021-08-15T08:53:14Z</time>
      </trkpt>
      <trkpt lat="45.49531" lon="6.73225">
        <ele>2614.6</ele>
        <time>2021-08-15T08:53:15Z</time>
      </trkpt>
      <trkpt lat="45.49529" lon="6.73229">
        <ele>2616</ele>
        <time>2021-08-15T08:53:16Z</time>
      </trkpt>
      <trkpt lat="45.49528" lon="6.73233">
        <ele>2617.3</ele>
        <time>2021-08-15T08:53:17Z</time>
      </trkpt>
      <trkpt lat="45.49526" lon="6.73237">
        <ele>2618.7</ele>
        <time>2021-08-15T08:53:18Z</time>
      </trkpt>
      <trkpt lat="45.49524" lon="6.73241">
        <ele>2620</ele>
        <time>2021-08-15T08:53:19Z</time>
      </trkpt>
      <trkpt lat="45.49523" lon="6.73244">
        <ele>2621.4</ele>
        <time>2021-08-15T08:53:20Z</time>
      </trkpt>
      <trkpt lat="45.49521" lon="6.73248">
        <ele>2622.7</ele>
        <time>2021-08-15T08:53:21Z</time>
      </trkpt>
      <trkpt lat="45.4952" lon="6.73252">
        <ele>2624.2</ele>
        <time>2021-08-15T08:53:22Z</time>
      </trkpt>
      <trkpt lat="45.49518" lon="6.73255">
        <ele>2624.2</ele>
        <time>2021-08-15T08:53:23Z</time>
      </trkpt>
      <trkpt lat="45.49517" lon="6.73259">
        <ele>2625.6</ele>
        <time>2021-08-15T08:53:24Z</time>
      </trkpt>
      <trkpt lat="45.49515" lon="6.73262">
        <ele>2627.1</ele>
        <time>2021-08-15T08:53:25Z</time>
      </trkpt>
      <trkpt lat="45.49514" lon="6.73266">
        <ele>2628.6</ele>
        <time>2021-08-15T08:53:26Z</time>
      </trkpt>
      <trkpt lat="45.49512" lon="6.73269">
        <ele>2630</ele>
        <time>2021-08-15T08:53:27Z</time>
      </trkpt>
      <trkpt lat="45.4951" lon="6.73272">
        <ele>2630</ele>
        <time>2021-08-15T08:53:28Z</time>
      </trkpt>
      <trkpt lat="45.49509" lon="6.73276">
        <ele>2631.4</ele>
        <time>2021-08-15T08:53:29Z</time>
      </trkpt>
      <trkpt lat="45.49507" lon="6.73279">
        <ele>2632.8</ele>
        <time>2021-08-15T08:53:30Z</time>
      </trkpt>
      <trkpt lat="45.49506" lon="6.73282">
        <ele>2634</ele>
        <time>2021-08-15T08:53:31Z</time>
      </trkpt>
      <trkpt lat="45.49504" lon="6.73285">
        <ele>2634</ele>
        <time>2021-08-15T08:53:32Z</time>
      </trkpt>
      <trkpt lat="45.49502" lon="6.73289">
        <ele>2635.1</ele>
        <time>2021-08-15T08:53:33Z</time>
      </trkpt>
      <trkpt lat="45.49501" lon="6.73292">
        <ele>2636.2</ele>
        <time>2021-08-15T08:53:34Z</time>
      </trkpt>
      <trkpt lat="45.49499" lon="6.73295">
        <ele>2637.3</ele>
        <time>2021-08-15T08:53:35Z</time>
      </trkpt>
      <trkpt lat="45.49498" lon="6.73298">
        <ele>2637.4</ele>
        <time>2021-08-15T08:53:36Z</time>
      </trkpt>
      <trkpt lat="45.49496" lon="6.73301">
        <ele>2638.4</ele>
        <time>2021-08-15T08:53:37Z</time>
      </trkpt>
      <trkpt lat="45.49495" lon="6.73305">
        <ele>2639.7</ele>
        <time>2021-08-15T08:53:38Z</time>
      </trkpt>
      <trkpt lat="45.49493" lon="6.73308">
        <ele>2640.8</ele>
        <time>2021-08-15T08:53:39Z</time>
      </trkpt>
      <trkpt lat="45.49491" lon="6.73311">
        <ele>2641</ele>
        <time>2021-08-15T08:53:40Z</time>
      </trkpt>
      <trkpt lat="45.4949" lon="6.73314">
        <ele>2642.1</ele>
        <time>2021-08-15T08:53:41Z</time>
      </trkpt>
      <trkpt lat="45.49488" lon="6.73317">
        <ele>2643.4</ele>
        <time>2021-08-15T08:53:42Z</time>
      </trkpt>
      <trkpt lat="45.49486" lon="6.73321">
        <ele>2644.4</ele>
        <time>2021-08-15T08:53:43Z</time>
      </trkpt>
      <trkpt lat="45.49485" lon="6.73324">
        <ele>2644.7</ele>
        <time>2021-08-15T08:53:44Z</time>
      </trkpt>
      <trkpt lat="45.49483" lon="6.73327">
        <ele>2645.7</ele>
        <time>2021-08-15T08:53:45Z</time>
      </trkpt>
      <trkpt lat="45.49482" lon="6.7333">
        <ele>2647</ele>
        <time>2021-08-15T08:53:46Z</time>
      </trkpt>
      <trkpt lat="45.4948" lon="6.73334">
        <ele>2648</ele>
        <time>2021-08-15T08:53:47Z</time>
      </trkpt>
      <trkpt lat="45.49478" lon="6.73337">
        <ele>2648.4</ele>
        <time>2021-08-15T08:53:48Z</time>
      </trkpt>
      <trkpt lat="45.49477" lon="6.7334">
        <ele>2649.8</ele>
        <time>2021-08-15T08:53:49Z</time>
      </trkpt>
      <trkpt lat="45.49475" lon="6.73343">
        <ele>2650.8</ele>
        <time>2021-08-15T08:53:50Z</time>
      </trkpt>
      <trkpt lat="45.49473" lon="6.73346">
        <ele>2651.3</ele>
        <time>2021-08-15T08:53:51Z</time>
      </trkpt>
      <trkpt lat="45.49471" lon="6.73349">
        <ele>2652.4</ele>
        <time>2021-08-15T08:53:52Z</time>
      </trkpt>
      <trkpt lat="45.49469" lon="6.73352">
        <ele>2654</ele>
        <time>2021-08-15T08:53:53Z</time>
      </trkpt>
      <trkpt lat="45.49468" lon="6.73355">
        <ele>2655.6</ele>
        <time>2021-08-15T08:53:54Z</time>
      </trkpt>
      <trkpt lat="45.49466" lon="6.73358">
        <ele>2655.6</ele>
        <time>2021-08-15T08:53:55Z</time>
      </trkpt>
      <trkpt lat="45.49464" lon="6.73361">
        <ele>2657.3</ele>
        <time>2021-08-15T08:53:56Z</time>
      </trkpt>
      <trkpt lat="45.49462" lon="6.73364">
        <ele>2658.4</ele>
        <time>2021-08-15T08:53:57Z</time>
      </trkpt>
      <trkpt lat="45.4946" lon="6.73367">
        <ele>2658.9</ele>
        <time>2021-08-15T08:53:58Z</time>
      </trkpt>
      <trkpt lat="45.49459" lon="6.7337">
        <ele>2660</ele>
        <time>2021-08-15T08:53:59Z</time>
      </trkpt>
      <trkpt lat="45.49457" lon="6.73373">
        <ele>2661.6</ele>
        <time>2021-08-15T08:54:00Z</time>
      </trkpt>
      <trkpt lat="45.49455" lon="6.73377">
        <ele>2663.1</ele>
        <time>2021-08-15T08:54:01Z</time>
      </trkpt>
      <trkpt lat="45.49454" lon="6.7338">
        <ele>2663.1</ele>
        <time>2021-08-15T08:54:02Z</time>
      </trkpt>
      <trkpt lat="45.49452" lon="6.73383">
        <ele>2664.8</ele>
        <time>2021-08-15T08:54:03Z</time>
      </trkpt>
      <trkpt lat="45.4945" lon="6.73387">
        <ele>2665.7</ele>
        <time>2021-08-15T08:54:04Z</time>
      </trkpt>
      <trkpt lat="45.49449" lon="6.7339">
        <ele>2667.5</ele>
        <time>2021-08-15T08:54:05Z</time>
      </trkpt>
      <trkpt lat="45.49447" lon="6.73394">
        <ele>2668.5</ele>
        <time>2021-08-15T08:54:06Z</time>
      </trkpt>
      <trkpt lat="45.49446" lon="6.73397">
        <ele>2669.3</ele>
        <time>2021-08-15T08:54:07Z</time>
      </trkpt>
      <trkpt lat="45.49444" lon="6.734">
        <ele>2670.2</ele>
        <time>2021-08-15T08:54:08Z</time>
      </trkpt>
      <trkpt lat="45.49443" lon="6.73403">
        <ele>2671.9</ele>
        <time>2021-08-15T08:54:09Z</time>
      </trkpt>
      <trkpt lat="45.49442" lon="6.73407">
        <ele>2672.8</ele>
        <time>2021-08-15T08:54:10Z</time>
      </trkpt>
      <trkpt lat="45.4944" lon="6.7341">
        <ele>2673.5</ele>
        <time>2021-08-15T08:54:11Z</time>
      </trkpt>
      <trkpt lat="45.49439" lon="6.73413">
        <ele>2674.3</ele>
        <time>2021-08-15T08:54:12Z</time>
      </trkpt>
      <trkpt lat="45.49437" lon="6.73416">
        <ele>2675.7</ele>
        <time>2021-08-15T08:54:13Z</time>
      </trkpt>
      <trkpt lat="45.49436" lon="6.73419">
        <ele>2675.7</ele>
        <time>2021-08-15T08:54:14Z</time>
      </trkpt>
      <trkpt lat="45.49434" lon="6.73422">
        <ele>2676.9</ele>
        <time>2021-08-15T08:54:15Z</time>
      </trkpt>
      <trkpt lat="45.49433" lon="6.73426">
        <ele>2677.4</ele>
        <time>2021-08-15T08:54:16Z</time>
      </trkpt>
      <trkpt lat="45.49431" lon="6.73429">
        <ele>2678.5</ele>
        <time>2021-08-15T08:54:17Z</time>
      </trkpt>
      <trkpt lat="45.4943" lon="6.73433">
        <ele>2678.9</ele>
        <time>2021-08-15T08:54:18Z</time>
      </trkpt>
      <trkpt lat="45.49428" lon="6.73436">
        <ele>2679.9</ele>
        <time>2021-08-15T08:54:19Z</time>
      </trkpt>
      <trkpt lat="45.49426" lon="6.7344">
        <ele>2679.9</ele>
        <time>2021-08-15T08:54:20Z</time>
      </trkpt>
      <trkpt lat="45.49425" lon="6.73444">
        <ele>2680.8</ele>
        <time>2021-08-15T08:54:21Z</time>
      </trkpt>
      <trkpt lat="45.49423" lon="6.73447">
        <ele>2681.2</ele>
        <time>2021-08-15T08:54:22Z</time>
      </trkpt>
      <trkpt lat="45.49422" lon="6.73451">
        <ele>2682.1</ele>
        <time>2021-08-15T08:54:23Z</time>
      </trkpt>
      <trkpt lat="45.4942" lon="6.73455">
        <ele>2682.5</ele>
        <time>2021-08-15T08:54:24Z</time>
      </trkpt>
      <trkpt lat="45.49419" lon="6.73458">
        <ele>2683.3</ele>
        <time>2021-08-15T08:54:25Z</time>
      </trkpt>
      <trkpt lat="45.49417" lon="6.73462">
        <ele>2683.3</ele>
        <time>2021-08-15T08:54:26Z</time>
      </trkpt>
      <trkpt lat="45.49415" lon="6.73465">
        <ele>2684.2</ele>
        <time>2021-08-15T08:54:27Z</time>
      </trkpt>
      <trkpt lat="45.49414" lon="6.73469">
        <ele>2684.5</ele>
        <time>2021-08-15T08:54:28Z</time>
      </trkpt>
      <trkpt lat="45.49412" lon="6.73472">
        <ele>2685.2</ele>
        <time>2021-08-15T08:54:29Z</time>
      </trkpt>
      <trkpt lat="45.49411" lon="6.73476">
        <ele>2685.4</ele>
        <time>2021-08-15T08:54:30Z</time>
      </trkpt>
      <trkpt lat="45.49409" lon="6.73479">
        <ele>2686</ele>
        <time>2021-08-15T08:54:31Z</time>
      </trkpt>
      <trkpt lat="45.49407" lon="6.73482">
        <ele>2686.7</ele>
        <time>2021-08-15T08:54:32Z</time>
      </trkpt>
      <trkpt lat="45.49406" lon="6.73485">
        <ele>2686.9</ele>
        <time>2021-08-15T08:54:33Z</time>
      </trkpt>
      <trkpt lat="45.49404" lon="6.73489">
        <ele>2687.6</ele>
        <time>2021-08-15T08:54:34Z</time>
      </trkpt>
      <trkpt lat="45.49402" lon="6.73492">
        <ele>2687.6</ele>
        <time>2021-08-15T08:54:35Z</time>
      </trkpt>
      <trkpt lat="45.494" lon="6.73495">
        <ele>2688.3</ele>
        <time>2021-08-15T08:54:36Z</time>
      </trkpt>
      <trkpt lat="45.49399" lon="6.73498">
        <ele>2688.5</ele>
        <time>2021-08-15T08:54:37Z</time>
      </trkpt>
      <trkpt lat="45.49397" lon="6.73501">
        <ele>2689.2</ele>
        <time>2021-08-15T08:54:38Z</time>
      </trkpt>
      <trkpt lat="45.49395" lon="6.73505">
        <ele>2689.7</ele>
        <time>2021-08-15T08:54:39Z</time>
      </trkpt>
      <trkpt lat="45.49393" lon="6.73508">
        <ele>2689.8</ele>
        <time>2021-08-15T08:54:40Z</time>
      </trkpt>
      <trkpt lat="45.49391" lon="6.73511">
        <ele>2690.5</ele>
        <time>2021-08-15T08:54:41Z</time>
      </trkpt>
      <trkpt lat="45.4939" lon="6.73514">
        <ele>2690.7</ele>
        <time>2021-08-15T08:54:42Z</time>
      </trkpt>
      <trkpt lat="45.49388" lon="6.73517">
        <ele>2691.1</ele>
        <time>2021-08-15T08:54:43Z</time>
      </trkpt>
      <trkpt lat="45.49386" lon="6.73521">
        <ele>2691.8</ele>
        <time>2021-08-15T08:54:44Z</time>
      </trkpt>
      <trkpt lat="45.49384" lon="6.73524">
        <ele>2692</ele>
        <time>2021-08-15T08:54:45Z</time>
      </trkpt>
      <trkpt lat="45.49382" lon="6.73527">
        <ele>2692.8</ele>
        <time>2021-08-15T08:54:46Z</time>
      </trkpt>
      <trkpt lat="45.49381" lon="6.7353">
        <ele>2692.8</ele>
        <time>2021-08-15T08:54:47Z</time>
      </trkpt>
      <trkpt lat="45.49379" lon="6.73533">
        <ele>2693.7</ele>
        <time>2021-08-15T08:54:48Z</time>
      </trkpt>
      <trkpt lat="45.49377" lon="6.73537">
        <ele>2694.5</ele>
        <time>2021-08-15T08:54:49Z</time>
      </trkpt>
      <trkpt lat="45.49376" lon="6.7354">
        <ele>2694.7</ele>
        <time>2021-08-15T08:54:50Z</time>
      </trkpt>
      <trkpt lat="45.49374" lon="6.73543">
        <ele>2695.3</ele>
        <time>2021-08-15T08:54:51Z</time>
      </trkpt>
      <trkpt lat="45.49372" lon="6.73546">
        <ele>2695.4</ele>
        <time>2021-08-15T08:54:52Z</time>
      </trkpt>
      <trkpt lat="45.49371" lon="6.73549">
        <ele>2696</ele>
        <time>2021-08-15T08:54:53Z</time>
      </trkpt>
      <trkpt lat="45.49369" lon="6.73551">
        <ele>2696</ele>
        <time>2021-08-15T08:54:54Z</time>
      </trkpt>
      <trkpt lat="45.49368" lon="6.73554">
        <ele>2696.6</ele>
        <time>2021-08-15T08:54:55Z</time>
      </trkpt>
      <trkpt lat="45.49367" lon="6.73556">
        <ele>2696.6</ele>
        <time>2021-08-15T08:54:56Z</time>
      </trkpt>
      <trkpt lat="45.49366" lon="6.73558">
        <ele>2696.6</ele>
        <time>2021-08-15T08:54:57Z</time>
      </trkpt>
      <trkpt lat="45.49365" lon="6.73559">
        <ele>2697.2</ele>
        <time>2021-08-15T08:54:58Z</time>
      </trkpt>
      <trkpt lat="45.49365" lon="6.7356">
        <ele>2697.2</ele>
        <time>2021-08-15T08:54:59Z</time>
      </trkpt>
      <trkpt lat="45.49365" lon="6.73561">
        <ele>2697.1</ele>
        <time>2021-08-15T08:55:00Z</time>
      </trkpt>
      <trkpt lat="45.49365" lon="6.73561">
        <ele>2697.1</ele>
        <time>2021-08-15T08:55:01Z</time>
      </trkpt>
      <trkpt lat="45.49365" lon="6.73561">
        <ele>2697.1</ele>
        <time>2021-08-15T08:55:02Z</time>
      </trkpt>
      <trkpt lat="45.49365" lon="6.73561">
        <ele>2697.1</ele>
        <time>2021-08-15T08:55:03Z</time>
      </trkpt>
      <trkpt lat="45.49365" lon="6.73561">
        <ele>2697.1</ele>
        <time>2021-08-15T08:55:04Z</time>
      </trkpt>
      <trkpt lat="45.49366" lon="6.73561">
        <ele>2696.6</ele>
        <time>2021-08-15T08:55:05Z</time>
      </trkpt>
      <trkpt lat="45.49366" lon="6.73562">
        <ele>2696.6</ele>
        <time>2021-08-15T08:55:06Z</time>
      </trkpt>
      <trkpt lat="45.49366" lon="6.73562">
        <ele>2696.6</ele>
        <time>2021-08-15T08:55:07Z</time>
      </trkpt>
      <trkpt lat="45.49366" lon="6.73562">
        <ele>2696.6</ele>
        <time>2021-08-15T08:55:08Z</time>
      </trkpt>
      <trkpt lat="45.49366" lon="6.73563">
        <ele>2696.6</ele>
        <time>2021-08-15T08:55:09Z</time>
      </trkpt>
      <trkpt lat="45.49366" lon="6.73563">
        <ele>2696.6</ele>
        <time>2021-08-15T08:55:10Z</time>
      </trkpt>
      <trkpt lat="45.49366" lon="6.73563">
        <ele>2696.6</ele>
        <time>2021-08-15T08:55:11Z</time>
      </trkpt>
      <trkpt lat="45.49366" lon="6.73563">
        <ele>2696.6</ele>
        <time>2021-08-15T08:55:12Z</time>
      </trkpt>
      <trkpt lat="45.49366" lon="6.73563">
        <ele>2696.6</ele>
        <time>2021-08-15T08:55:13Z</time>
      </trkpt>
      <trkpt lat="45.49366" lon="6.73564">
        <ele>2696.6</ele>
        <time>2021-08-15T08:55:14Z</time>
      </trkpt>
      <trkpt lat="45.49366" lon="6.73564">
        <ele>2696.6</ele>
        <time>2021-08-15T08:55:15Z</time>
      </trkpt>
      <trkpt lat="45.49367" lon="6.73564">
        <ele>2696.6</ele>
        <time>2021-08-15T08:55:16Z</time>
      </trkpt>
      <trkpt lat="45.49367" lon="6.73564">
        <ele>2696.6</ele>
        <time>2021-08-15T08:55:17Z</time>
      </trkpt>
      <trkpt lat="45.49367" lon="6.73565">
        <ele>2696.6</ele>
        <time>2021-08-15T08:55:18Z</time>
      </trkpt>
      <trkpt lat="45.49367" lon="6.73565">
        <ele>2696.6</ele>
        <time>2021-08-15T08:55:19Z</time>
      </trkpt>
      <trkpt lat="45.49367" lon="6.73565">
        <ele>2696.6</ele>
        <time>2021-08-15T08:55:20Z</time>
      </trkpt>
      <trkpt lat="45.49367" lon="6.73565">
        <ele>2696.6</ele>
        <time>2021-08-15T08:55:21Z</time>
      </trkpt>
      <trkpt lat="45.49367" lon="6.73565">
        <ele>2696.6</ele>
        <time>2021-08-15T08:55:22Z</time>
      </trkpt>
      <trkpt lat="45.49367" lon="6.73565">
        <ele>2696.6</ele>
        <time>2021-08-15T08:55:23Z</time>
      </trkpt>
      <trkpt lat="45.49367" lon="6.73565">
        <ele>2696.6</ele>
        <time>2021-08-15T08:55:24Z</time>
      </trkpt>
      <trkpt lat="45.49367" lon="6.73565">
        <ele>2696.6</ele>
        <time>2021-08-15T08:55:25Z</time>
      </trkpt>
      <trkpt lat="45.49367" lon="6.73565">
        <ele>2696.6</ele>
        <time>2021-08-15T08:55:26Z</time>
      </trkpt>
      <trkpt lat="45.49367" lon="6.73565">
        <ele>2696.6</ele>
        <time>2021-08-15T08:55:27Z</time>
      </trkpt>
      <trkpt lat="45.49367" lon="6.73565">
        <ele>2696.6</ele>
        <time>2021-08-15T08:55:28Z</time>
      </trkpt>
      <trkpt lat="45.49367" lon="6.73565">
        <ele>2696.6</ele>
        <time>2021-08-15T08:55:29Z</time>
      </trkpt>
      <trkpt lat="45.49367" lon="6.73565">
        <ele>2696.6</ele>
        <time>2021-08-15T08:55:30Z</time>
      </trkpt>
      <trkpt lat="45.49367" lon="6.73565">
        <ele>2696.6</ele>
        <time>2021-08-15T08:55:31Z</time>
      </trkpt>
      <trkpt lat="45.49367" lon="6.73565">
        <ele>2696.6</ele>
        <time>2021-08-15T08:55:32Z</time>
      </trkpt>
      <trkpt lat="45.49367" lon="6.73565">
        <ele>2696.6</ele>
        <time>2021-08-15T08:55:33Z</time>
      </trkpt>
      <trkpt lat="45.49367" lon="6.73564">
        <ele>2696.6</ele>
        <time>2021-08-15T08:55:34Z</time>
      </trkpt>
      <trkpt lat="45.49367" lon="6.73564">
        <ele>2696.6</ele>
        <time>2021-08-15T08:55:35Z</time>
      </trkpt>
      <trkpt lat="45.49367" lon="6.73564">
        <ele>2696.6</ele>
        <time>2021-08-15T08:55:36Z</time>
      </trkpt>
      <trkpt lat="45.49367" lon="6.73565">
        <ele>2696.6</ele>
        <time>2021-08-15T08:55:37Z</time>
      </trkpt>
      <trkpt lat="45.49367" lon="6.73565">
        <ele>2696.6</ele>
        <time>2021-08-15T08:55:38Z</time>
      </trkpt>
      <trkpt lat="45.49367" lon="6.73565">
        <ele>2696.5</ele>
        <time>2021-08-15T08:55:39Z</time>
      </trkpt>
      <trkpt lat="45.49366" lon="6.73566">
        <ele>2696.5</ele>
        <time>2021-08-15T08:55:40Z</time>
      </trkpt>
      <trkpt lat="45.49366" lon="6.73566">
        <ele>2696.5</ele>
        <time>2021-08-15T08:55:41Z</time>
      </trkpt>
      <trkpt lat="45.49366" lon="6.73567">
        <ele>2696.5</ele>
        <time>2021-08-15T08:55:42Z</time>
      </trkpt>
      <trkpt lat="45.49366" lon="6.73568">
        <ele>2696.5</ele>
        <time>2021-08-15T08:55:43Z</time>
      </trkpt>
      <trkpt lat="45.49367" lon="6.73569">
        <ele>2696.5</ele>
        <time>2021-08-15T08:55:44Z</time>
      </trkpt>
      <trkpt lat="45.49367" lon="6.73569">
        <ele>2696.4</ele>
        <time>2021-08-15T08:55:45Z</time>
      </trkpt>
      <trkpt lat="45.49368" lon="6.7357">
        <ele>2696.4</ele>
        <time>2021-08-15T08:55:46Z</time>
      </trkpt>
      <trkpt lat="45.49368" lon="6.7357">
        <ele>2696.4</ele>
        <time>2021-08-15T08:55:47Z</time>
      </trkpt>
      <trkpt lat="45.49369" lon="6.73571">
        <ele>2695.8</ele>
        <time>2021-08-15T08:55:48Z</time>
      </trkpt>
      <trkpt lat="45.4937" lon="6.73571">
        <ele>2695.8</ele>
        <time>2021-08-15T08:55:49Z</time>
      </trkpt>
      <trkpt lat="45.49371" lon="6.73571">
        <ele>2695.8</ele>
        <time>2021-08-15T08:55:50Z</time>
      </trkpt>
      <trkpt lat="45.49371" lon="6.73571">
        <ele>2695.8</ele>
        <time>2021-08-15T08:55:51Z</time>
      </trkpt>
      <trkpt lat="45.49372" lon="6.7357">
        <ele>2695.2</ele>
        <time>2021-08-15T08:55:52Z</time>
      </trkpt>
      <trkpt lat="45.49373" lon="6.7357">
        <ele>2695.2</ele>
        <time>2021-08-15T08:55:53Z</time>
      </trkpt>
      <trkpt lat="45.49374" lon="6.7357">
        <ele>2695.2</ele>
        <time>2021-08-15T08:55:54Z</time>
      </trkpt>
      <trkpt lat="45.49375" lon="6.73569">
        <ele>2694.7</ele>
        <time>2021-08-15T08:55:55Z</time>
      </trkpt>
      <trkpt lat="45.49376" lon="6.73569">
        <ele>2694.7</ele>
        <time>2021-08-15T08:55:56Z</time>
      </trkpt>
      <trkpt lat="45.49377" lon="6.73568">
        <ele>2694.7</ele>
        <time>2021-08-15T08:55:57Z</time>
      </trkpt>
      <trkpt lat="45.49378" lon="6.73568">
        <ele>2694</ele>
        <time>2021-08-15T08:55:58Z</time>
      </trkpt>
      <trkpt lat="45.49379" lon="6.73568">
        <ele>2694</ele>
        <time>2021-08-15T08:55:59Z</time>
      </trkpt>
      <trkpt lat="45.4938" lon="6.73568">
        <ele>2694</ele>
        <time>2021-08-15T08:56:00Z</time>
      </trkpt>
      <trkpt lat="45.49381" lon="6.73568">
        <ele>2693.3</ele>
        <time>2021-08-15T08:56:01Z</time>
      </trkpt>
      <trkpt lat="45.49382" lon="6.73569">
        <ele>2693.3</ele>
        <time>2021-08-15T08:56:02Z</time>
      </trkpt>
      <trkpt lat="45.49383" lon="6.73569">
        <ele>2693.3</ele>
        <time>2021-08-15T08:56:03Z</time>
      </trkpt>
      <trkpt lat="45.49384" lon="6.7357">
        <ele>2692.3</ele>
        <time>2021-08-15T08:56:04Z</time>
      </trkpt>
      <trkpt lat="45.49385" lon="6.73571">
        <ele>2692.3</ele>
        <time>2021-08-15T08:56:05Z</time>
      </trkpt>
      <trkpt lat="45.49386" lon="6.73571">
        <ele>2692.3</ele>
        <time>2021-08-15T08:56:06Z</time>
      </trkpt>
      <trkpt lat="45.49387" lon="6.73572">
        <ele>2691.5</ele>
        <time>2021-08-15T08:56:07Z</time>
      </trkpt>
      <trkpt lat="45.49387" lon="6.73573">
        <ele>2691.5</ele>
        <time>2021-08-15T08:56:08Z</time>
      </trkpt>
      <trkpt lat="45.49388" lon="6.73574">
        <ele>2691.3</ele>
        <time>2021-08-15T08:56:09Z</time>
      </trkpt>
      <trkpt lat="45.49389" lon="6.73575">
        <ele>2691.3</ele>
        <time>2021-08-15T08:56:10Z</time>
      </trkpt>
      <trkpt lat="45.4939" lon="6.73575">
        <ele>2690.4</ele>
        <time>2021-08-15T08:56:11Z</time>
      </trkpt>
      <trkpt lat="45.4939" lon="6.73576">
        <ele>2690.4</ele>
        <time>2021-08-15T08:56:12Z</time>
      </trkpt>
      <trkpt lat="45.49391" lon="6.73577">
        <ele>2690.4</ele>
        <time>2021-08-15T08:56:13Z</time>
      </trkpt>
      <trkpt lat="45.49391" lon="6.73578">
        <ele>2690.4</ele>
        <time>2021-08-15T08:56:14Z</time>
      </trkpt>
      <trkpt lat="45.49392" lon="6.73578">
        <ele>2690.2</ele>
        <time>2021-08-15T08:56:15Z</time>
      </trkpt>
      <trkpt lat="45.49393" lon="6.73579">
        <ele>2689.3</ele>
        <time>2021-08-15T08:56:16Z</time>
      </trkpt>
      <trkpt lat="45.49393" lon="6.7358">
        <ele>2689.3</ele>
        <time>2021-08-15T08:56:17Z</time>
      </trkpt>
      <trkpt lat="45.49394" lon="6.7358">
        <ele>2689.3</ele>
        <time>2021-08-15T08:56:18Z</time>
      </trkpt>
      <trkpt lat="45.49395" lon="6.73581">
        <ele>2689.3</ele>
        <time>2021-08-15T08:56:19Z</time>
      </trkpt>
      <trkpt lat="45.49396" lon="6.73582">
        <ele>2688.4</ele>
        <time>2021-08-15T08:56:20Z</time>
      </trkpt>
      <trkpt lat="45.49397" lon="6.73582">
        <ele>2688.1</ele>
        <time>2021-08-15T08:56:21Z</time>
      </trkpt>
      <trkpt lat="45.49398" lon="6.73583">
        <ele>2688.1</ele>
        <time>2021-08-15T08:56:22Z</time>
      </trkpt>
      <trkpt lat="45.49398" lon="6.73584">
        <ele>2688.1</ele>
        <time>2021-08-15T08:56:23Z</time>
      </trkpt>
      <trkpt lat="45.49399" lon="6.73585">
        <ele>2687.2</ele>
        <time>2021-08-15T08:56:24Z</time>
      </trkpt>
      <trkpt lat="45.494" lon="6.73585">
        <ele>2687.2</ele>
        <time>2021-08-15T08:56:25Z</time>
      </trkpt>
      <trkpt lat="45.49401" lon="6.73586">
        <ele>2687.2</ele>
        <time>2021-08-15T08:56:26Z</time>
      </trkpt>
      <trkpt lat="45.49402" lon="6.73587">
        <ele>2685.9</ele>
        <time>2021-08-15T08:56:27Z</time>
      </trkpt>
      <trkpt lat="45.49402" lon="6.73588">
        <ele>2685.9</ele>
        <time>2021-08-15T08:56:28Z</time>
      </trkpt>
      <trkpt lat="45.49403" lon="6.73589">
        <ele>2685.9</ele>
        <time>2021-08-15T08:56:29Z</time>
      </trkpt>
      <trkpt lat="45.49404" lon="6.7359">
        <ele>2685.9</ele>
        <time>2021-08-15T08:56:30Z</time>
      </trkpt>
      <trkpt lat="45.49404" lon="6.73591">
        <ele>2685.5</ele>
        <time>2021-08-15T08:56:31Z</time>
      </trkpt>
      <trkpt lat="45.49405" lon="6.73592">
        <ele>2684.6</ele>
        <time>2021-08-15T08:56:32Z</time>
      </trkpt>
      <trkpt lat="45.49405" lon="6.73593">
        <ele>2684.6</ele>
        <time>2021-08-15T08:56:33Z</time>
      </trkpt>
      <trkpt lat="45.49406" lon="6.73594">
        <ele>2684.6</ele>
        <time>2021-08-15T08:56:34Z</time>
      </trkpt>
      <trkpt lat="45.49406" lon="6.73595">
        <ele>2684.2</ele>
        <time>2021-08-15T08:56:35Z</time>
      </trkpt>
      <trkpt lat="45.49406" lon="6.73596">
        <ele>2684.2</ele>
        <time>2021-08-15T08:56:36Z</time>
      </trkpt>
      <trkpt lat="45.49407" lon="6.73597">
        <ele>2684.2</ele>
        <time>2021-08-15T08:56:37Z</time>
      </trkpt>
      <trkpt lat="45.49407" lon="6.73598">
        <ele>2684.2</ele>
        <time>2021-08-15T08:56:38Z</time>
      </trkpt>
      <trkpt lat="45.49408" lon="6.73599">
        <ele>2683.1</ele>
        <time>2021-08-15T08:56:39Z</time>
      </trkpt>
      <trkpt lat="45.49408" lon="6.736">
        <ele>2682.6</ele>
        <time>2021-08-15T08:56:40Z</time>
      </trkpt>
      <trkpt lat="45.49409" lon="6.73601">
        <ele>2682.6</ele>
        <time>2021-08-15T08:56:41Z</time>
      </trkpt>
      <trkpt lat="45.49409" lon="6.73602">
        <ele>2682.6</ele>
        <time>2021-08-15T08:56:42Z</time>
      </trkpt>
      <trkpt lat="45.4941" lon="6.73602">
        <ele>2682.6</ele>
        <time>2021-08-15T08:56:43Z</time>
      </trkpt>
      <trkpt lat="45.4941" lon="6.73603">
        <ele>2682.6</ele>
        <time>2021-08-15T08:56:44Z</time>
      </trkpt>
      <trkpt lat="45.49411" lon="6.73604">
        <ele>2681.5</ele>
        <time>2021-08-15T08:56:45Z</time>
      </trkpt>
      <trkpt lat="45.49412" lon="6.73604">
        <ele>2680.9</ele>
        <time>2021-08-15T08:56:46Z</time>
      </trkpt>
      <trkpt lat="45.49412" lon="6.73605">
        <ele>2680.9</ele>
        <time>2021-08-15T08:56:47Z</time>
      </trkpt>
      <trkpt lat="45.49413" lon="6.73605">
        <ele>2680.9</ele>
        <time>2021-08-15T08:56:48Z</time>
      </trkpt>
      <trkpt lat="45.49413" lon="6.73605">
        <ele>2680.9</ele>
        <time>2021-08-15T08:56:49Z</time>
      </trkpt>
      <trkpt lat="45.49413" lon="6.73606">
        <ele>2680.9</ele>
        <time>2021-08-15T08:56:50Z</time>
      </trkpt>
      <trkpt lat="45.49414" lon="6.73606">
        <ele>2679.6</ele>
        <time>2021-08-15T08:56:51Z</time>
      </trkpt>
      <trkpt lat="45.49414" lon="6.73606">
        <ele>2679.6</ele>
        <time>2021-08-15T08:56:52Z</time>
      </trkpt>
      <trkpt lat="45.49415" lon="6.73606">
        <ele>2679.6</ele>
        <time>2021-08-15T08:56:53Z</time>
      </trkpt>
      <trkpt lat="45.49415" lon="6.73606">
        <ele>2679.6</ele>
        <time>2021-08-15T08:56:54Z</time>
      </trkpt>
      <trkpt lat="45.49415" lon="6.73606">
        <ele>2679.6</ele>
        <time>2021-08-15T08:56:55Z</time>
      </trkpt>
      <trkpt lat="45.49415" lon="6.73606">
        <ele>2679.6</ele>
        <time>2021-08-15T08:56:56Z</time>
      </trkpt>
      <trkpt lat="45.49415" lon="6.73606">
        <ele>2679.6</ele>
        <time>2021-08-15T08:56:57Z</time>
      </trkpt>
      <trkpt lat="45.49415" lon="6.73606">
        <ele>2679.6</ele>
        <time>2021-08-15T08:56:58Z</time>
      </trkpt>
      <trkpt lat="45.49415" lon="6.73606">
        <ele>2679.6</ele>
        <time>2021-08-15T08:56:59Z</time>
      </trkpt>
      <trkpt lat="45.49415" lon="6.73606">
        <ele>2679.6</ele>
        <time>2021-08-15T08:57:00Z</time>
      </trkpt>
      <trkpt lat="45.49415" lon="6.73606">
        <ele>2679.6</ele>
        <time>2021-08-15T08:57:01Z</time>
      </trkpt>
      <trkpt lat="45.49415" lon="6.73605">
        <ele>2679.6</ele>
        <time>2021-08-15T08:57:02Z</time>
      </trkpt>
      <trkpt lat="45.49415" lon="6.73605">
        <ele>2679.6</ele>
        <time>2021-08-15T08:57:03Z</time>
      </trkpt>
      <trkpt lat="45.49415" lon="6.73604">
        <ele>2679.6</ele>
        <time>2021-08-15T08:57:04Z</time>
      </trkpt>
      <trkpt lat="45.49416" lon="6.73604">
        <ele>2679.6</ele>
        <time>2021-08-15T08:57:05Z</time>
      </trkpt>
      <trkpt lat="45.49416" lon="6.73604">
        <ele>2679.6</ele>
        <time>2021-08-15T08:57:06Z</time>
      </trkpt>
      <trkpt lat="45.49416" lon="6.73604">
        <ele>2680.2</ele>
        <time>2021-08-15T08:57:07Z</time>
      </trkpt>
      <trkpt lat="45.49416" lon="6.73604">
        <ele>2680.2</ele>
        <time>2021-08-15T08:57:08Z</time>
      </trkpt>
      <trkpt lat="45.49416" lon="6.73603">
        <ele>2680.2</ele>
        <time>2021-08-15T08:57:09Z</time>
      </trkpt>
      <trkpt lat="45.49416" lon="6.73603">
        <ele>2680.2</ele>
        <time>2021-08-15T08:57:10Z</time>
      </trkpt>
      <trkpt lat="45.49416" lon="6.73603">
        <ele>2680.2</ele>
        <time>2021-08-15T08:57:11Z</time>
      </trkpt>
      <trkpt lat="45.49416" lon="6.73603">
        <ele>2680.2</ele>
        <time>2021-08-15T08:57:12Z</time>
      </trkpt>
      <trkpt lat="45.49416" lon="6.73603">
        <ele>2680.2</ele>
        <time>2021-08-15T08:57:13Z</time>
      </trkpt>
      <trkpt lat="45.49416" lon="6.73603">
        <ele>2680.2</ele>
        <time>2021-08-15T08:57:14Z</time>
      </trkpt>
      <trkpt lat="45.49416" lon="6.73603">
        <ele>2680.2</ele>
        <time>2021-08-15T08:57:15Z</time>
      </trkpt>
      <trkpt lat="45.49416" lon="6.73603">
        <ele>2680.2</ele>
        <time>2021-08-15T08:57:16Z</time>
      </trkpt>
      <trkpt lat="45.49416" lon="6.73603">
        <ele>2680.2</ele>
        <time>2021-08-15T08:57:17Z</time>
      </trkpt>
      <trkpt lat="45.49416" lon="6.73603">
        <ele>2680.2</ele>
        <time>2021-08-15T08:57:18Z</time>
      </trkpt>
      <trkpt lat="45.49416" lon="6.73603">
        <ele>2680.2</ele>
        <time>2021-08-15T08:57:19Z</time>
      </trkpt>
      <trkpt lat="45.49416" lon="6.73603">
        <ele>2680.2</ele>
        <time>2021-08-15T08:57:20Z</time>
      </trkpt>
      <trkpt lat="45.49416" lon="6.73603">
        <ele>2680.2</ele>
        <time>2021-08-15T08:57:21Z</time>
      </trkpt>
      <trkpt lat="45.49416" lon="6.73603">
        <ele>2680.2</ele>
        <time>2021-08-15T08:57:22Z</time>
      </trkpt>
      <trkpt lat="45.49416" lon="6.73603">
        <ele>2680.2</ele>
        <time>2021-08-15T08:57:23Z</time>
      </trkpt>
      <trkpt lat="45.49416" lon="6.73603">
        <ele>2680.2</ele>
        <time>2021-08-15T08:57:24Z</time>
      </trkpt>
      <trkpt lat="45.49416" lon="6.73603">
        <ele>2680.2</ele>
        <time>2021-08-15T08:57:25Z</time>
      </trkpt>
      <trkpt lat="45.49416" lon="6.73603">
        <ele>2680.2</ele>
        <time>2021-08-15T08:57:26Z</time>
      </trkpt>
      <trkpt lat="45.49416" lon="6.73603">
        <ele>2680.2</ele>
        <time>2021-08-15T08:57:27Z</time>
      </trkpt>
      <trkpt lat="45.49416" lon="6.73603">
        <ele>2680.2</ele>
        <time>2021-08-15T08:57:28Z</time>
      </trkpt>
      <trkpt lat="45.49416" lon="6.73603">
        <ele>2680.2</ele>
        <time>2021-08-15T08:57:29Z</time>
      </trkpt>
      <trkpt lat="45.49416" lon="6.73603">
        <ele>2680.2</ele>
        <time>2021-08-15T08:57:30Z</time>
      </trkpt>
      <trkpt lat="45.49416" lon="6.73603">
        <ele>2680.2</ele>
        <time>2021-08-15T08:57:31Z</time>
      </trkpt>
      <trkpt lat="45.49416" lon="6.73603">
        <ele>2680.2</ele>
        <time>2021-08-15T08:57:32Z</time>
      </trkpt>
      <trkpt lat="45.49416" lon="6.73603">
        <ele>2680.2</ele>
        <time>2021-08-15T08:57:33Z</time>
      </trkpt>
      <trkpt lat="45.49416" lon="6.73603">
        <ele>2680.2</ele>
        <time>2021-08-15T08:57:34Z</time>
      </trkpt>
      <trkpt lat="45.49416" lon="6.73603">
        <ele>2680.2</ele>
        <time>2021-08-15T08:57:35Z</time>
      </trkpt>
      <trkpt lat="45.49416" lon="6.73603">
        <ele>2680.2</ele>
        <time>2021-08-15T08:57:36Z</time>
      </trkpt>
      <trkpt lat="45.49416" lon="6.73603">
        <ele>2680.2</ele>
        <time>2021-08-15T08:57:37Z</time>
      </trkpt>
      <trkpt lat="45.49416" lon="6.73603">
        <ele>2680.2</ele>
        <time>2021-08-15T08:57:38Z</time>
      </trkpt>
      <trkpt lat="45.49416" lon="6.73603">
        <ele>2680.2</ele>
        <time>2021-08-15T08:57:39Z</time>
      </trkpt>
      <trkpt lat="45.49416" lon="6.73603">
        <ele>2680.2</ele>
        <time>2021-08-15T08:57:40Z</time>
      </trkpt>
      <trkpt lat="45.49416" lon="6.73603">
        <ele>2680.2</ele>
        <time>2021-08-15T08:57:41Z</time>
      </trkpt>
      <trkpt lat="45.49416" lon="6.73603">
        <ele>2680.2</ele>
        <time>2021-08-15T08:57:42Z</time>
      </trkpt>
      <trkpt lat="45.49416" lon="6.73603">
        <ele>2680.2</ele>
        <time>2021-08-15T08:57:43Z</time>
      </trkpt>
      <trkpt lat="45.49416" lon="6.73603">
        <ele>2680.2</ele>
        <time>2021-08-15T08:57:44Z</time>
      </trkpt>
      <trkpt lat="45.49416" lon="6.73603">
        <ele>2680.2</ele>
        <time>2021-08-15T08:57:45Z</time>
      </trkpt>
      <trkpt lat="45.49416" lon="6.73603">
        <ele>2680.2</ele>
        <time>2021-08-15T08:57:46Z</time>
      </trkpt>
      <trkpt lat="45.49416" lon="6.73603">
        <ele>2680.2</ele>
        <time>2021-08-15T08:57:47Z</time>
      </trkpt>
      <trkpt lat="45.49416" lon="6.73603">
        <ele>2680.2</ele>
        <time>2021-08-15T08:57:48Z</time>
      </trkpt>
      <trkpt lat="45.49416" lon="6.73603">
        <ele>2680.2</ele>
        <time>2021-08-15T08:57:49Z</time>
      </trkpt>
      <trkpt lat="45.49416" lon="6.73603">
        <ele>2680.2</ele>
        <time>2021-08-15T08:57:50Z</time>
      </trkpt>
      <trkpt lat="45.49416" lon="6.73603">
        <ele>2680.2</ele>
        <time>2021-08-15T08:57:51Z</time>
      </trkpt>
      <trkpt lat="45.49416" lon="6.73603">
        <ele>2680.2</ele>
        <time>2021-08-15T08:57:52Z</time>
      </trkpt>
      <trkpt lat="45.49416" lon="6.73603">
        <ele>2680.2</ele>
        <time>2021-08-15T08:57:53Z</time>
      </trkpt>
      <trkpt lat="45.49416" lon="6.73603">
        <ele>2680.2</ele>
        <time>2021-08-15T08:57:54Z</time>
      </trkpt>
      <trkpt lat="45.49416" lon="6.73603">
        <ele>2680.2</ele>
        <time>2021-08-15T08:57:55Z</time>
      </trkpt>
      <trkpt lat="45.49416" lon="6.73603">
        <ele>2680.2</ele>
        <time>2021-08-15T08:57:56Z</time>
      </trkpt>
      <trkpt lat="45.49416" lon="6.73603">
        <ele>2680.2</ele>
        <time>2021-08-15T08:57:57Z</time>
      </trkpt>
      <trkpt lat="45.49416" lon="6.73603">
        <ele>2680.2</ele>
        <time>2021-08-15T08:57:58Z</time>
      </trkpt>
      <trkpt lat="45.49416" lon="6.73603">
        <ele>2680.2</ele>
        <time>2021-08-15T08:57:59Z</time>
      </trkpt>
      <trkpt lat="45.49416" lon="6.73603">
        <ele>2680.2</ele>
        <time>2021-08-15T08:58:00Z</time>
      </trkpt>
      <trkpt lat="45.49416" lon="6.73603">
        <ele>2680.2</ele>
        <time>2021-08-15T08:58:01Z</time>
      </trkpt>
      <trkpt lat="45.49416" lon="6.73603">
        <ele>2680.2</ele>
        <time>2021-08-15T08:58:02Z</time>
      </trkpt>
      <trkpt lat="45.49416" lon="6.73603">
        <ele>2680.2</ele>
        <time>2021-08-15T08:58:03Z</time>
      </trkpt>
      <trkpt lat="45.49416" lon="6.73603">
        <ele>2680.2</ele>
        <time>2021-08-15T08:58:04Z</time>
      </trkpt>
      <trkpt lat="45.49416" lon="6.73603">
        <ele>2680.2</ele>
        <time>2021-08-15T08:58:05Z</time>
      </trkpt>
      <trkpt lat="45.49416" lon="6.73603">
        <ele>2680.2</ele>
        <time>2021-08-15T08:58:06Z</time>
      </trkpt>
      <trkpt lat="45.49416" lon="6.73603">
        <ele>2680.2</ele>
        <time>2021-08-15T08:58:07Z</time>
      </trkpt>
      <trkpt lat="45.49416" lon="6.73603">
        <ele>2680.2</ele>
        <time>2021-08-15T08:58:08Z</time>
      </trkpt>
      <trkpt lat="45.49416" lon="6.73603">
        <ele>2680.2</ele>
        <time>2021-08-15T08:58:09Z</time>
      </trkpt>
      <trkpt lat="45.49416" lon="6.73603">
        <ele>2680.2</ele>
        <time>2021-08-15T08:58:10Z</time>
      </trkpt>
      <trkpt lat="45.49416" lon="6.73603">
        <ele>2680.2</ele>
        <time>2021-08-15T08:58:11Z</time>
      </trkpt>
      <trkpt lat="45.49416" lon="6.73603">
        <ele>2680.2</ele>
        <time>2021-08-15T08:58:12Z</time>
      </trkpt>
      <trkpt lat="45.49416" lon="6.73603">
        <ele>2680.2</ele>
        <time>2021-08-15T08:58:13Z</time>
      </trkpt>
      <trkpt lat="45.49416" lon="6.73603">
        <ele>2680.2</ele>
        <time>2021-08-15T08:58:14Z</time>
      </trkpt>
      <trkpt lat="45.49416" lon="6.73603">
        <ele>2680.2</ele>
        <time>2021-08-15T08:58:15Z</time>
      </trkpt>
      <trkpt lat="45.49416" lon="6.73603">
        <ele>2680.2</ele>
        <time>2021-08-15T08:58:16Z</time>
      </trkpt>
      <trkpt lat="45.49416" lon="6.73603">
        <ele>2680.2</ele>
        <time>2021-08-15T08:58:17Z</time>
      </trkpt>
      <trkpt lat="45.49416" lon="6.73603">
        <ele>2680.2</ele>
        <time>2021-08-15T08:58:18Z</time>
      </trkpt>
      <trkpt lat="45.49416" lon="6.73603">
        <ele>2680.2</ele>
        <time>2021-08-15T08:58:19Z</time>
      </trkpt>
      <trkpt lat="45.49416" lon="6.73603">
        <ele>2680.2</ele>
        <time>2021-08-15T08:58:20Z</time>
      </trkpt>
      <trkpt lat="45.49416" lon="6.73603">
        <ele>2680.2</ele>
        <time>2021-08-15T08:58:21Z</time>
      </trkpt>
      <trkpt lat="45.49416" lon="6.73603">
        <ele>2680.2</ele>
        <time>2021-08-15T08:58:22Z</time>
      </trkpt>
      <trkpt lat="45.49416" lon="6.73603">
        <ele>2680.2</ele>
        <time>2021-08-15T08:58:23Z</time>
      </trkpt>
      <trkpt lat="45.49416" lon="6.73603">
        <ele>2680.2</ele>
        <time>2021-08-15T08:58:24Z</time>
      </trkpt>
      <trkpt lat="45.49416" lon="6.73603">
        <ele>2680.2</ele>
        <time>2021-08-15T08:58:25Z</time>
      </trkpt>
      <trkpt lat="45.49416" lon="6.73603">
        <ele>2680.2</ele>
        <time>2021-08-15T08:58:26Z</time>
      </trkpt>
      <trkpt lat="45.49416" lon="6.73603">
        <ele>2680.2</ele>
        <time>2021-08-15T08:58:27Z</time>
      </trkpt>
      <trkpt lat="45.49416" lon="6.73603">
        <ele>2680.2</ele>
        <time>2021-08-15T08:58:28Z</time>
      </trkpt>
      <trkpt lat="45.49416" lon="6.73603">
        <ele>2680.2</ele>
        <time>2021-08-15T08:58:29Z</time>
      </trkpt>
      <trkpt lat="45.49416" lon="6.73603">
        <ele>2680.2</ele>
        <time>2021-08-15T08:58:30Z</time>
      </trkpt>
      <trkpt lat="45.49416" lon="6.73603">
        <ele>2680.2</ele>
        <time>2021-08-15T08:58:31Z</time>
      </trkpt>
      <trkpt lat="45.49416" lon="6.73603">
        <ele>2680.2</ele>
        <time>2021-08-15T08:58:32Z</time>
      </trkpt>
      <trkpt lat="45.49416" lon="6.73603">
        <ele>2680.2</ele>
        <time>2021-08-15T08:58:33Z</time>
      </trkpt>
      <trkpt lat="45.49416" lon="6.73603">
        <ele>2680.2</ele>
        <time>2021-08-15T08:58:34Z</time>
      </trkpt>
      <trkpt lat="45.49416" lon="6.73603">
        <ele>2680.2</ele>
        <time>2021-08-15T08:58:35Z</time>
      </trkpt>
      <trkpt lat="45.49416" lon="6.73603">
        <ele>2680.2</ele>
        <time>2021-08-15T08:58:36Z</time>
      </trkpt>
      <trkpt lat="45.49416" lon="6.73603">
        <ele>2680.2</ele>
        <time>2021-08-15T08:58:37Z</time>
      </trkpt>
      <trkpt lat="45.49416" lon="6.73603">
        <ele>2680.2</ele>
        <time>2021-08-15T08:58:38Z</time>
      </trkpt>
      <trkpt lat="45.49416" lon="6.73603">
        <ele>2680.2</ele>
        <time>2021-08-15T08:58:39Z</time>
      </trkpt>
      <trkpt lat="45.49416" lon="6.73603">
        <ele>2680.2</ele>
        <time>2021-08-15T08:58:40Z</time>
      </trkpt>
      <trkpt lat="45.49416" lon="6.73603">
        <ele>2680.2</ele>
        <time>2021-08-15T08:58:41Z</time>
      </trkpt>
      <trkpt lat="45.49416" lon="6.73603">
        <ele>2680.2</ele>
        <time>2021-08-15T08:58:42Z</time>
      </trkpt>
      <trkpt lat="45.49416" lon="6.73603">
        <ele>2680.2</ele>
        <time>2021-08-15T08:58:43Z</time>
      </trkpt>
      <trkpt lat="45.49416" lon="6.73603">
        <ele>2680.2</ele>
        <time>2021-08-15T08:58:44Z</time>
      </trkpt>
      <trkpt lat="45.49416" lon="6.73603">
        <ele>2680.2</ele>
        <time>2021-08-15T08:58:45Z</time>
      </trkpt>
      <trkpt lat="45.49416" lon="6.73603">
        <ele>2680.2</ele>
        <time>2021-08-15T08:58:46Z</time>
      </trkpt>
      <trkpt lat="45.49416" lon="6.73603">
        <ele>2680.2</ele>
        <time>2021-08-15T08:58:47Z</time>
      </trkpt>
      <trkpt lat="45.49416" lon="6.73603">
        <ele>2680.2</ele>
        <time>2021-08-15T08:58:48Z</time>
      </trkpt>
      <trkpt lat="45.49416" lon="6.73603">
        <ele>2680.2</ele>
        <time>2021-08-15T08:58:49Z</time>
      </trkpt>
      <trkpt lat="45.49416" lon="6.73603">
        <ele>2680.2</ele>
        <time>2021-08-15T08:58:50Z</time>
      </trkpt>
      <trkpt lat="45.49416" lon="6.73603">
        <ele>2680.2</ele>
        <time>2021-08-15T08:58:51Z</time>
      </trkpt>
      <trkpt lat="45.49416" lon="6.73603">
        <ele>2680.2</ele>
        <time>2021-08-15T08:58:52Z</time>
      </trkpt>
      <trkpt lat="45.49416" lon="6.73603">
        <ele>2680.2</ele>
        <time>2021-08-15T08:58:53Z</time>
      </trkpt>
      <trkpt lat="45.49416" lon="6.73603">
        <ele>2680.2</ele>
        <time>2021-08-15T08:58:54Z</time>
      </trkpt>
      <trkpt lat="45.49416" lon="6.73603">
        <ele>2680.2</ele>
        <time>2021-08-15T08:58:55Z</time>
      </trkpt>
      <trkpt lat="45.49416" lon="6.73603">
        <ele>2680.2</ele>
        <time>2021-08-15T08:58:56Z</time>
      </trkpt>
      <trkpt lat="45.49416" lon="6.73603">
        <ele>2680.2</ele>
        <time>2021-08-15T08:58:57Z</time>
      </trkpt>
      <trkpt lat="45.49416" lon="6.73603">
        <ele>2680.2</ele>
        <time>2021-08-15T08:58:58Z</time>
      </trkpt>
      <trkpt lat="45.49416" lon="6.73603">
        <ele>2680.2</ele>
        <time>2021-08-15T08:58:59Z</time>
      </trkpt>
      <trkpt lat="45.49416" lon="6.73603">
        <ele>2680.2</ele>
        <time>2021-08-15T08:59:00Z</time>
      </trkpt>
      <trkpt lat="45.49416" lon="6.73603">
        <ele>2680.2</ele>
        <time>2021-08-15T08:59:01Z</time>
      </trkpt>
      <trkpt lat="45.49416" lon="6.73603">
        <ele>2680.2</ele>
        <time>2021-08-15T08:59:02Z</time>
      </trkpt>
      <trkpt lat="45.49416" lon="6.73603">
        <ele>2680.2</ele>
        <time>2021-08-15T08:59:03Z</time>
      </trkpt>
      <trkpt lat="45.49416" lon="6.73603">
        <ele>2680.2</ele>
        <time>2021-08-15T08:59:04Z</time>
      </trkpt>
      <trkpt lat="45.49416" lon="6.73603">
        <ele>2680.2</ele>
        <time>2021-08-15T08:59:05Z</time>
      </trkpt>
      <trkpt lat="45.49416" lon="6.73603">
        <ele>2680.2</ele>
        <time>2021-08-15T08:59:06Z</time>
      </trkpt>
      <trkpt lat="45.49416" lon="6.73603">
        <ele>2680.2</ele>
        <time>2021-08-15T08:59:07Z</time>
      </trkpt>
      <trkpt lat="45.49416" lon="6.73603">
        <ele>2680.2</ele>
        <time>2021-08-15T08:59:08Z</time>
      </trkpt>
      <trkpt lat="45.49416" lon="6.73604">
        <ele>2679.6</ele>
        <time>2021-08-15T08:59:09Z</time>
      </trkpt>
      <trkpt lat="45.49416" lon="6.73604">
        <ele>2679.6</ele>
        <time>2021-08-15T08:59:10Z</time>
      </trkpt>
      <trkpt lat="45.49416" lon="6.73605">
        <ele>2679.6</ele>
        <time>2021-08-15T08:59:11Z</time>
      </trkpt>
      <trkpt lat="45.49417" lon="6.73606">
        <ele>2678.2</ele>
        <time>2021-08-15T08:59:12Z</time>
      </trkpt>
      <trkpt lat="45.49417" lon="6.73607">
        <ele>2678.2</ele>
        <time>2021-08-15T08:59:13Z</time>
      </trkpt>
      <trkpt lat="45.49417" lon="6.73609">
        <ele>2677.5</ele>
        <time>2021-08-15T08:59:14Z</time>
      </trkpt>
      <trkpt lat="45.49417" lon="6.7361">
        <ele>2677.5</ele>
        <time>2021-08-15T08:59:15Z</time>
      </trkpt>
      <trkpt lat="45.49418" lon="6.73612">
        <ele>2677.5</ele>
        <time>2021-08-15T08:59:16Z</time>
      </trkpt>
      <trkpt lat="45.49418" lon="6.73613">
        <ele>2676.7</ele>
        <time>2021-08-15T08:59:17Z</time>
      </trkpt>
      <trkpt lat="45.49418" lon="6.73614">
        <ele>2676.7</ele>
        <time>2021-08-15T08:59:18Z</time>
      </trkpt>
      <trkpt lat="45.49418" lon="6.73614">
        <ele>2676.7</ele>
        <time>2021-08-15T08:59:19Z</time>
      </trkpt>
      <trkpt lat="45.49418" lon="6.73615">
        <ele>2676.7</ele>
        <time>2021-08-15T08:59:20Z</time>
      </trkpt>
      <trkpt lat="45.49418" lon="6.73616">
        <ele>2676.7</ele>
        <time>2021-08-15T08:59:21Z</time>
      </trkpt>
      <trkpt lat="45.49418" lon="6.73616">
        <ele>2676.7</ele>
        <time>2021-08-15T08:59:22Z</time>
      </trkpt>
      <trkpt lat="45.49418" lon="6.73616">
        <ele>2676.7</ele>
        <time>2021-08-15T08:59:23Z</time>
      </trkpt>
      <trkpt lat="45.49418" lon="6.73616">
        <ele>2676.7</ele>
        <time>2021-08-15T08:59:24Z</time>
      </trkpt>
      <trkpt lat="45.49418" lon="6.73617">
        <ele>2675.9</ele>
        <time>2021-08-15T08:59:25Z</time>
      </trkpt>
      <trkpt lat="45.49418" lon="6.73617">
        <ele>2675.9</ele>
        <time>2021-08-15T08:59:26Z</time>
      </trkpt>
      <trkpt lat="45.49418" lon="6.73617">
        <ele>2675.9</ele>
        <time>2021-08-15T08:59:27Z</time>
      </trkpt>
      <trkpt lat="45.49418" lon="6.73617">
        <ele>2675.9</ele>
        <time>2021-08-15T08:59:28Z</time>
      </trkpt>
      <trkpt lat="45.49418" lon="6.73617">
        <ele>2675.9</ele>
        <time>2021-08-15T08:59:29Z</time>
      </trkpt>
      <trkpt lat="45.49418" lon="6.73617">
        <ele>2675.9</ele>
        <time>2021-08-15T08:59:30Z</time>
      </trkpt>
      <trkpt lat="45.49418" lon="6.73617">
        <ele>2675.9</ele>
        <time>2021-08-15T08:59:31Z</time>
      </trkpt>
      <trkpt lat="45.49418" lon="6.73617">
        <ele>2675.9</ele>
        <time>2021-08-15T08:59:32Z</time>
      </trkpt>
      <trkpt lat="45.49418" lon="6.73617">
        <ele>2675.9</ele>
        <time>2021-08-15T08:59:33Z</time>
      </trkpt>
      <trkpt lat="45.49418" lon="6.73617">
        <ele>2675.9</ele>
        <time>2021-08-15T08:59:34Z</time>
      </trkpt>
      <trkpt lat="45.49418" lon="6.73617">
        <ele>2675.9</ele>
        <time>2021-08-15T08:59:35Z</time>
      </trkpt>
      <trkpt lat="45.49418" lon="6.73617">
        <ele>2675.9</ele>
        <time>2021-08-15T08:59:36Z</time>
      </trkpt>
      <trkpt lat="45.49418" lon="6.73617">
        <ele>2675.9</ele>
        <time>2021-08-15T08:59:37Z</time>
      </trkpt>
      <trkpt lat="45.49418" lon="6.73617">
        <ele>2675.9</ele>
        <time>2021-08-15T08:59:38Z</time>
      </trkpt>
      <trkpt lat="45.49418" lon="6.73617">
        <ele>2675.9</ele>
        <time>2021-08-15T08:59:39Z</time>
      </trkpt>
      <trkpt lat="45.49418" lon="6.73617">
        <ele>2675.9</ele>
        <time>2021-08-15T08:59:40Z</time>
      </trkpt>
      <trkpt lat="45.49418" lon="6.73617">
        <ele>2675.9</ele>
        <time>2021-08-15T08:59:41Z</time>
      </trkpt>
      <trkpt lat="45.49418" lon="6.73617">
        <ele>2675.9</ele>
        <time>2021-08-15T08:59:42Z</time>
      </trkpt>
      <trkpt lat="45.49418" lon="6.73617">
        <ele>2675.9</ele>
        <time>2021-08-15T08:59:43Z</time>
      </trkpt>
      <trkpt lat="45.49418" lon="6.73617">
        <ele>2675.9</ele>
        <time>2021-08-15T08:59:44Z</time>
      </trkpt>
      <trkpt lat="45.49418" lon="6.73617">
        <ele>2675.9</ele>
        <time>2021-08-15T08:59:45Z</time>
      </trkpt>
      <trkpt lat="45.49418" lon="6.73617">
        <ele>2675.9</ele>
        <time>2021-08-15T08:59:46Z</time>
      </trkpt>
      <trkpt lat="45.49418" lon="6.73617">
        <ele>2675.9</ele>
        <time>2021-08-15T08:59:47Z</time>
      </trkpt>
      <trkpt lat="45.49418" lon="6.73617">
        <ele>2675.9</ele>
        <time>2021-08-15T08:59:48Z</time>
      </trkpt>
      <trkpt lat="45.49418" lon="6.73617">
        <ele>2675.9</ele>
        <time>2021-08-15T08:59:49Z</time>
      </trkpt>
      <trkpt lat="45.49418" lon="6.73617">
        <ele>2675.9</ele>
        <time>2021-08-15T08:59:50Z</time>
      </trkpt>
      <trkpt lat="45.49417" lon="6.73617">
        <ele>2675.9</ele>
        <time>2021-08-15T08:59:51Z</time>
      </trkpt>
      <trkpt lat="45.49417" lon="6.73616">
        <ele>2676.7</ele>
        <time>2021-08-15T08:59:52Z</time>
      </trkpt>
      <trkpt lat="45.49417" lon="6.73616">
        <ele>2676.7</ele>
        <time>2021-08-15T08:59:53Z</time>
      </trkpt>
      <trkpt lat="45.49417" lon="6.73616">
        <ele>2676.7</ele>
        <time>2021-08-15T08:59:54Z</time>
      </trkpt>
      <trkpt lat="45.49417" lon="6.73616">
        <ele>2676.7</ele>
        <time>2021-08-15T08:59:55Z</time>
      </trkpt>
      <trkpt lat="45.49417" lon="6.73616">
        <ele>2676.7</ele>
        <time>2021-08-15T08:59:56Z</time>
      </trkpt>
      <trkpt lat="45.49417" lon="6.73616">
        <ele>2676.7</ele>
        <time>2021-08-15T08:59:57Z</time>
      </trkpt>
      <trkpt lat="45.49417" lon="6.73616">
        <ele>2676.7</ele>
        <time>2021-08-15T08:59:58Z</time>
      </trkpt>
      <trkpt lat="45.49417" lon="6.73616">
        <ele>2676.7</ele>
        <time>2021-08-15T08:59:59Z</time>
      </trkpt>
      <trkpt lat="45.49417" lon="6.73616">
        <ele>2676.7</ele>
        <time>2021-08-15T09:00:00Z</time>
      </trkpt>
      <trkpt lat="45.49417" lon="6.73616">
        <ele>2676.7</ele>
        <time>2021-08-15T09:00:01Z</time>
      </trkpt>
      <trkpt lat="45.49417" lon="6.73616">
        <ele>2676.7</ele>
        <time>2021-08-15T09:00:02Z</time>
      </trkpt>
      <trkpt lat="45.49417" lon="6.73616">
        <ele>2676.7</ele>
        <time>2021-08-15T09:00:03Z</time>
      </trkpt>
      <trkpt lat="45.49417" lon="6.73616">
        <ele>2676.7</ele>
        <time>2021-08-15T09:00:04Z</time>
      </trkpt>
      <trkpt lat="45.49417" lon="6.73616">
        <ele>2676.7</ele>
        <time>2021-08-15T09:00:05Z</time>
      </trkpt>
      <trkpt lat="45.49417" lon="6.73616">
        <ele>2676.7</ele>
        <time>2021-08-15T09:00:06Z</time>
      </trkpt>
      <trkpt lat="45.49417" lon="6.73616">
        <ele>2676.7</ele>
        <time>2021-08-15T09:00:07Z</time>
      </trkpt>
      <trkpt lat="45.49417" lon="6.73616">
        <ele>2676.7</ele>
        <time>2021-08-15T09:00:08Z</time>
      </trkpt>
      <trkpt lat="45.49417" lon="6.73616">
        <ele>2676.7</ele>
        <time>2021-08-15T09:00:09Z</time>
      </trkpt>
      <trkpt lat="45.49417" lon="6.73616">
        <ele>2676.7</ele>
        <time>2021-08-15T09:00:10Z</time>
      </trkpt>
      <trkpt lat="45.49417" lon="6.73616">
        <ele>2676.7</ele>
        <time>2021-08-15T09:00:11Z</time>
      </trkpt>
      <trkpt lat="45.49417" lon="6.73616">
        <ele>2676.7</ele>
        <time>2021-08-15T09:00:12Z</time>
      </trkpt>
      <trkpt lat="45.49417" lon="6.73616">
        <ele>2676.7</ele>
        <time>2021-08-15T09:00:13Z</time>
      </trkpt>
      <trkpt lat="45.49417" lon="6.73616">
        <ele>2676.7</ele>
        <time>2021-08-15T09:00:14Z</time>
      </trkpt>
      <trkpt lat="45.49417" lon="6.73616">
        <ele>2676.7</ele>
        <time>2021-08-15T09:00:15Z</time>
      </trkpt>
      <trkpt lat="45.49417" lon="6.73616">
        <ele>2676.7</ele>
        <time>2021-08-15T09:00:16Z</time>
      </trkpt>
      <trkpt lat="45.49417" lon="6.73616">
        <ele>2676.7</ele>
        <time>2021-08-15T09:00:17Z</time>
      </trkpt>
      <trkpt lat="45.49417" lon="6.73616">
        <ele>2676.7</ele>
        <time>2021-08-15T09:00:18Z</time>
      </trkpt>
      <trkpt lat="45.49417" lon="6.73616">
        <ele>2676.7</ele>
        <time>2021-08-15T09:00:19Z</time>
      </trkpt>
      <trkpt lat="45.49417" lon="6.73616">
        <ele>2676.7</ele>
        <time>2021-08-15T09:00:20Z</time>
      </trkpt>
      <trkpt lat="45.49417" lon="6.73616">
        <ele>2676.7</ele>
        <time>2021-08-15T09:00:21Z</time>
      </trkpt>
      <trkpt lat="45.49417" lon="6.73616">
        <ele>2676.7</ele>
        <time>2021-08-15T09:00:22Z</time>
      </trkpt>
      <trkpt lat="45.49417" lon="6.73616">
        <ele>2676.7</ele>
        <time>2021-08-15T09:00:23Z</time>
      </trkpt>
      <trkpt lat="45.49417" lon="6.73616">
        <ele>2676.7</ele>
        <time>2021-08-15T09:00:24Z</time>
      </trkpt>
      <trkpt lat="45.49417" lon="6.73616">
        <ele>2676.7</ele>
        <time>2021-08-15T09:00:25Z</time>
      </trkpt>
      <trkpt lat="45.49417" lon="6.73616">
        <ele>2676.7</ele>
        <time>2021-08-15T09:00:26Z</time>
      </trkpt>
      <trkpt lat="45.49417" lon="6.73616">
        <ele>2676.7</ele>
        <time>2021-08-15T09:00:27Z</time>
      </trkpt>
      <trkpt lat="45.49417" lon="6.73616">
        <ele>2676.7</ele>
        <time>2021-08-15T09:00:28Z</time>
      </trkpt>
      <trkpt lat="45.49417" lon="6.73616">
        <ele>2676.7</ele>
        <time>2021-08-15T09:00:29Z</time>
      </trkpt>
      <trkpt lat="45.49417" lon="6.73616">
        <ele>2676.7</ele>
        <time>2021-08-15T09:00:30Z</time>
      </trkpt>
      <trkpt lat="45.49417" lon="6.73616">
        <ele>2676.7</ele>
        <time>2021-08-15T09:00:31Z</time>
      </trkpt>
      <trkpt lat="45.49417" lon="6.73616">
        <ele>2676.7</ele>
        <time>2021-08-15T09:00:32Z</time>
      </trkpt>
      <trkpt lat="45.49417" lon="6.73616">
        <ele>2676.7</ele>
        <time>2021-08-15T09:00:33Z</time>
      </trkpt>
      <trkpt lat="45.49417" lon="6.73616">
        <ele>2676.7</ele>
        <time>2021-08-15T09:00:34Z</time>
      </trkpt>
      <trkpt lat="45.49417" lon="6.73616">
        <ele>2676.7</ele>
        <time>2021-08-15T09:00:35Z</time>
      </trkpt>
      <trkpt lat="45.49417" lon="6.73616">
        <ele>2676.7</ele>
        <time>2021-08-15T09:00:36Z</time>
      </trkpt>
      <trkpt lat="45.49417" lon="6.73616">
        <ele>2676.7</ele>
        <time>2021-08-15T09:00:37Z</time>
      </trkpt>
      <trkpt lat="45.49417" lon="6.73616">
        <ele>2676.7</ele>
        <time>2021-08-15T09:00:38Z</time>
      </trkpt>
      <trkpt lat="45.49417" lon="6.73616">
        <ele>2676.7</ele>
        <time>2021-08-15T09:00:39Z</time>
      </trkpt>
      <trkpt lat="45.49417" lon="6.73616">
        <ele>2676.7</ele>
        <time>2021-08-15T09:00:40Z</time>
      </trkpt>
      <trkpt lat="45.49417" lon="6.73616">
        <ele>2676.7</ele>
        <time>2021-08-15T09:00:41Z</time>
      </trkpt>
      <trkpt lat="45.49417" lon="6.73616">
        <ele>2676.7</ele>
        <time>2021-08-15T09:00:42Z</time>
      </trkpt>
      <trkpt lat="45.49417" lon="6.73616">
        <ele>2676.7</ele>
        <time>2021-08-15T09:00:43Z</time>
      </trkpt>
      <trkpt lat="45.49417" lon="6.73615">
        <ele>2676.7</ele>
        <time>2021-08-15T09:00:44Z</time>
      </trkpt>
      <trkpt lat="45.49417" lon="6.73615">
        <ele>2676.7</ele>
        <time>2021-08-15T09:00:45Z</time>
      </trkpt>
      <trkpt lat="45.49417" lon="6.73615">
        <ele>2676.7</ele>
        <time>2021-08-15T09:00:46Z</time>
      </trkpt>
      <trkpt lat="45.49416" lon="6.73615">
        <ele>2678.2</ele>
        <time>2021-08-15T09:00:47Z</time>
      </trkpt>
      <trkpt lat="45.49416" lon="6.73614">
        <ele>2678.2</ele>
        <time>2021-08-15T09:00:48Z</time>
      </trkpt>
      <trkpt lat="45.49416" lon="6.73614">
        <ele>2678.2</ele>
        <time>2021-08-15T09:00:49Z</time>
      </trkpt>
      <trkpt lat="45.49416" lon="6.73614">
        <ele>2678.2</ele>
        <time>2021-08-15T09:00:50Z</time>
      </trkpt>
      <trkpt lat="45.49416" lon="6.73613">
        <ele>2678.2</ele>
        <time>2021-08-15T09:00:51Z</time>
      </trkpt>
      <trkpt lat="45.49416" lon="6.73613">
        <ele>2678.2</ele>
        <time>2021-08-15T09:00:52Z</time>
      </trkpt>
      <trkpt lat="45.49416" lon="6.73613">
        <ele>2678.2</ele>
        <time>2021-08-15T09:00:53Z</time>
      </trkpt>
      <trkpt lat="45.49416" lon="6.73613">
        <ele>2678.2</ele>
        <time>2021-08-15T09:00:54Z</time>
      </trkpt>
      <trkpt lat="45.49416" lon="6.73613">
        <ele>2678.2</ele>
        <time>2021-08-15T09:00:55Z</time>
      </trkpt>
      <trkpt lat="45.49416" lon="6.73613">
        <ele>2678.2</ele>
        <time>2021-08-15T09:00:56Z</time>
      </trkpt>
      <trkpt lat="45.49416" lon="6.73613">
        <ele>2678.2</ele>
        <time>2021-08-15T09:00:57Z</time>
      </trkpt>
      <trkpt lat="45.49416" lon="6.73613">
        <ele>2678.2</ele>
        <time>2021-08-15T09:00:58Z</time>
      </trkpt>
      <trkpt lat="45.49416" lon="6.73613">
        <ele>2678.2</ele>
        <time>2021-08-15T09:00:59Z</time>
      </trkpt>
      <trkpt lat="45.49416" lon="6.73613">
        <ele>2678.2</ele>
        <time>2021-08-15T09:01:00Z</time>
      </trkpt>
      <trkpt lat="45.49416" lon="6.73613">
        <ele>2678.2</ele>
        <time>2021-08-15T09:01:01Z</time>
      </trkpt>
      <trkpt lat="45.49416" lon="6.73613">
        <ele>2678.2</ele>
        <time>2021-08-15T09:01:02Z</time>
      </trkpt>
      <trkpt lat="45.49416" lon="6.73613">
        <ele>2678.2</ele>
        <time>2021-08-15T09:01:03Z</time>
      </trkpt>
      <trkpt lat="45.49416" lon="6.73613">
        <ele>2678.2</ele>
        <time>2021-08-15T09:01:04Z</time>
      </trkpt>
      <trkpt lat="45.49416" lon="6.73613">
        <ele>2678.2</ele>
        <time>2021-08-15T09:01:05Z</time>
      </trkpt>
      <trkpt lat="45.49416" lon="6.73613">
        <ele>2678.2</ele>
        <time>2021-08-15T09:01:06Z</time>
      </trkpt>
      <trkpt lat="45.49416" lon="6.73613">
        <ele>2678.2</ele>
        <time>2021-08-15T09:01:07Z</time>
      </trkpt>
      <trkpt lat="45.49416" lon="6.73612">
        <ele>2678.2</ele>
        <time>2021-08-15T09:01:08Z</time>
      </trkpt>
      <trkpt lat="45.49416" lon="6.73612">
        <ele>2678.9</ele>
        <time>2021-08-15T09:01:09Z</time>
      </trkpt>
      <trkpt lat="45.49416" lon="6.73612">
        <ele>2678.9</ele>
        <time>2021-08-15T09:01:10Z</time>
      </trkpt>
      <trkpt lat="45.49416" lon="6.73612">
        <ele>2678.9</ele>
        <time>2021-08-15T09:01:11Z</time>
      </trkpt>
      <trkpt lat="45.49416" lon="6.73611">
        <ele>2678.9</ele>
        <time>2021-08-15T09:01:12Z</time>
      </trkpt>
      <trkpt lat="45.49416" lon="6.73611">
        <ele>2678.9</ele>
        <time>2021-08-15T09:01:13Z</time>
      </trkpt>
      <trkpt lat="45.49416" lon="6.73611">
        <ele>2678.9</ele>
        <time>2021-08-15T09:01:14Z</time>
      </trkpt>
      <trkpt lat="45.49415" lon="6.73611">
        <ele>2678.9</ele>
        <time>2021-08-15T09:01:15Z</time>
      </trkpt>
      <trkpt lat="45.49415" lon="6.7361">
        <ele>2678.9</ele>
        <time>2021-08-15T09:01:16Z</time>
      </trkpt>
      <trkpt lat="45.49415" lon="6.7361">
        <ele>2678.9</ele>
        <time>2021-08-15T09:01:17Z</time>
      </trkpt>
      <trkpt lat="45.49415" lon="6.7361">
        <ele>2678.9</ele>
        <time>2021-08-15T09:01:18Z</time>
      </trkpt>
      <trkpt lat="45.49415" lon="6.7361">
        <ele>2678.9</ele>
        <time>2021-08-15T09:01:19Z</time>
      </trkpt>
      <trkpt lat="45.49415" lon="6.7361">
        <ele>2678.9</ele>
        <time>2021-08-15T09:01:20Z</time>
      </trkpt>
      <trkpt lat="45.49415" lon="6.7361">
        <ele>2678.9</ele>
        <time>2021-08-15T09:01:21Z</time>
      </trkpt>
      <trkpt lat="45.49415" lon="6.7361">
        <ele>2678.9</ele>
        <time>2021-08-15T09:01:22Z</time>
      </trkpt>
      <trkpt lat="45.49415" lon="6.73609">
        <ele>2678.9</ele>
        <time>2021-08-15T09:01:23Z</time>
      </trkpt>
      <trkpt lat="45.49415" lon="6.73609">
        <ele>2678.9</ele>
        <time>2021-08-15T09:01:24Z</time>
      </trkpt>
      <trkpt lat="45.49415" lon="6.73609">
        <ele>2678.9</ele>
        <time>2021-08-15T09:01:25Z</time>
      </trkpt>
      <trkpt lat="45.49415" lon="6.73609">
        <ele>2678.9</ele>
        <time>2021-08-15T09:01:26Z</time>
      </trkpt>
      <trkpt lat="45.49415" lon="6.73609">
        <ele>2678.9</ele>
        <time>2021-08-15T09:01:27Z</time>
      </trkpt>
      <trkpt lat="45.49415" lon="6.73609">
        <ele>2678.9</ele>
        <time>2021-08-15T09:01:28Z</time>
      </trkpt>
      <trkpt lat="45.49415" lon="6.73609">
        <ele>2678.9</ele>
        <time>2021-08-15T09:01:29Z</time>
      </trkpt>
      <trkpt lat="45.49415" lon="6.73609">
        <ele>2678.9</ele>
        <time>2021-08-15T09:01:30Z</time>
      </trkpt>
      <trkpt lat="45.49415" lon="6.73609">
        <ele>2678.9</ele>
        <time>2021-08-15T09:01:31Z</time>
      </trkpt>
      <trkpt lat="45.49415" lon="6.73609">
        <ele>2678.9</ele>
        <time>2021-08-15T09:01:32Z</time>
      </trkpt>
      <trkpt lat="45.49415" lon="6.73609">
        <ele>2678.9</ele>
        <time>2021-08-15T09:01:33Z</time>
      </trkpt>
      <trkpt lat="45.49415" lon="6.73609">
        <ele>2678.9</ele>
        <time>2021-08-15T09:01:34Z</time>
      </trkpt>
      <trkpt lat="45.49415" lon="6.73609">
        <ele>2678.9</ele>
        <time>2021-08-15T09:01:35Z</time>
      </trkpt>
      <trkpt lat="45.49415" lon="6.73609">
        <ele>2678.9</ele>
        <time>2021-08-15T09:01:36Z</time>
      </trkpt>
      <trkpt lat="45.49415" lon="6.73609">
        <ele>2678.9</ele>
        <time>2021-08-15T09:01:37Z</time>
      </trkpt>
      <trkpt lat="45.49415" lon="6.73609">
        <ele>2678.9</ele>
        <time>2021-08-15T09:01:38Z</time>
      </trkpt>
      <trkpt lat="45.49415" lon="6.73609">
        <ele>2678.9</ele>
        <time>2021-08-15T09:01:39Z</time>
      </trkpt>
      <trkpt lat="45.49415" lon="6.73609">
        <ele>2678.9</ele>
        <time>2021-08-15T09:01:40Z</time>
      </trkpt>
      <trkpt lat="45.49415" lon="6.73609">
        <ele>2678.9</ele>
        <time>2021-08-15T09:01:41Z</time>
      </trkpt>
      <trkpt lat="45.49415" lon="6.73609">
        <ele>2678.9</ele>
        <time>2021-08-15T09:01:42Z</time>
      </trkpt>
      <trkpt lat="45.49415" lon="6.73609">
        <ele>2678.9</ele>
        <time>2021-08-15T09:01:43Z</time>
      </trkpt>
      <trkpt lat="45.49415" lon="6.73609">
        <ele>2678.9</ele>
        <time>2021-08-15T09:01:44Z</time>
      </trkpt>
      <trkpt lat="45.49415" lon="6.73609">
        <ele>2678.9</ele>
        <time>2021-08-15T09:01:45Z</time>
      </trkpt>
      <trkpt lat="45.49415" lon="6.73609">
        <ele>2678.9</ele>
        <time>2021-08-15T09:01:46Z</time>
      </trkpt>
      <trkpt lat="45.49415" lon="6.73609">
        <ele>2678.9</ele>
        <time>2021-08-15T09:01:47Z</time>
      </trkpt>
      <trkpt lat="45.49415" lon="6.73609">
        <ele>2678.9</ele>
        <time>2021-08-15T09:01:48Z</time>
      </trkpt>
      <trkpt lat="45.49415" lon="6.73609">
        <ele>2678.9</ele>
        <time>2021-08-15T09:01:49Z</time>
      </trkpt>
      <trkpt lat="45.49415" lon="6.73609">
        <ele>2678.9</ele>
        <time>2021-08-15T09:01:50Z</time>
      </trkpt>
      <trkpt lat="45.49415" lon="6.73609">
        <ele>2678.9</ele>
        <time>2021-08-15T09:01:51Z</time>
      </trkpt>
      <trkpt lat="45.49415" lon="6.73609">
        <ele>2678.9</ele>
        <time>2021-08-15T09:01:52Z</time>
      </trkpt>
      <trkpt lat="45.49415" lon="6.73609">
        <ele>2678.9</ele>
        <time>2021-08-15T09:01:53Z</time>
      </trkpt>
      <trkpt lat="45.49415" lon="6.73609">
        <ele>2678.9</ele>
        <time>2021-08-15T09:01:54Z</time>
      </trkpt>
      <trkpt lat="45.49415" lon="6.73609">
        <ele>2678.9</ele>
        <time>2021-08-15T09:01:55Z</time>
      </trkpt>
      <trkpt lat="45.49415" lon="6.73609">
        <ele>2678.9</ele>
        <time>2021-08-15T09:01:56Z</time>
      </trkpt>
      <trkpt lat="45.49415" lon="6.73609">
        <ele>2678.9</ele>
        <time>2021-08-15T09:01:57Z</time>
      </trkpt>
      <trkpt lat="45.49415" lon="6.73609">
        <ele>2678.9</ele>
        <time>2021-08-15T09:01:58Z</time>
      </trkpt>
      <trkpt lat="45.49415" lon="6.73609">
        <ele>2678.9</ele>
        <time>2021-08-15T09:01:59Z</time>
      </trkpt>
      <trkpt lat="45.49416" lon="6.73608">
        <ele>2678.9</ele>
        <time>2021-08-15T09:02:00Z</time>
      </trkpt>
      <trkpt lat="45.49416" lon="6.73608">
        <ele>2679.6</ele>
        <time>2021-08-15T09:02:01Z</time>
      </trkpt>
      <trkpt lat="45.49416" lon="6.73607">
        <ele>2679.6</ele>
        <time>2021-08-15T09:02:02Z</time>
      </trkpt>
      <trkpt lat="45.49416" lon="6.73607">
        <ele>2679.6</ele>
        <time>2021-08-15T09:02:03Z</time>
      </trkpt>
      <trkpt lat="45.49416" lon="6.73607">
        <ele>2679.6</ele>
        <time>2021-08-15T09:02:04Z</time>
      </trkpt>
      <trkpt lat="45.49416" lon="6.73607">
        <ele>2679.6</ele>
        <time>2021-08-15T09:02:05Z</time>
      </trkpt>
      <trkpt lat="45.49416" lon="6.73607">
        <ele>2679.6</ele>
        <time>2021-08-15T09:02:06Z</time>
      </trkpt>
      <trkpt lat="45.49416" lon="6.73607">
        <ele>2679.6</ele>
        <time>2021-08-15T09:02:07Z</time>
      </trkpt>
      <trkpt lat="45.49416" lon="6.73607">
        <ele>2679.6</ele>
        <time>2021-08-15T09:02:08Z</time>
      </trkpt>
      <trkpt lat="45.49416" lon="6.73607">
        <ele>2679.6</ele>
        <time>2021-08-15T09:02:09Z</time>
      </trkpt>
      <trkpt lat="45.49416" lon="6.73607">
        <ele>2679.6</ele>
        <time>2021-08-15T09:02:10Z</time>
      </trkpt>
      <trkpt lat="45.49416" lon="6.73607">
        <ele>2679.6</ele>
        <time>2021-08-15T09:02:11Z</time>
      </trkpt>
      <trkpt lat="45.49416" lon="6.73607">
        <ele>2679.6</ele>
        <time>2021-08-15T09:02:12Z</time>
      </trkpt>
      <trkpt lat="45.49416" lon="6.73607">
        <ele>2679.6</ele>
        <time>2021-08-15T09:02:13Z</time>
      </trkpt>
      <trkpt lat="45.49416" lon="6.73607">
        <ele>2679.6</ele>
        <time>2021-08-15T09:02:14Z</time>
      </trkpt>
      <trkpt lat="45.49416" lon="6.73607">
        <ele>2679.6</ele>
        <time>2021-08-15T09:02:15Z</time>
      </trkpt>
      <trkpt lat="45.49416" lon="6.73607">
        <ele>2679.6</ele>
        <time>2021-08-15T09:02:16Z</time>
      </trkpt>
      <trkpt lat="45.49416" lon="6.73607">
        <ele>2679.6</ele>
        <time>2021-08-15T09:02:17Z</time>
      </trkpt>
      <trkpt lat="45.49416" lon="6.73607">
        <ele>2679.6</ele>
        <time>2021-08-15T09:02:18Z</time>
      </trkpt>
      <trkpt lat="45.49416" lon="6.73607">
        <ele>2679.6</ele>
        <time>2021-08-15T09:02:19Z</time>
      </trkpt>
      <trkpt lat="45.49416" lon="6.73607">
        <ele>2679.6</ele>
        <time>2021-08-15T09:02:20Z</time>
      </trkpt>
      <trkpt lat="45.49416" lon="6.73607">
        <ele>2679.6</ele>
        <time>2021-08-15T09:02:21Z</time>
      </trkpt>
      <trkpt lat="45.49416" lon="6.73607">
        <ele>2679.6</ele>
        <time>2021-08-15T09:02:22Z</time>
      </trkpt>
      <trkpt lat="45.49416" lon="6.73607">
        <ele>2679.6</ele>
        <time>2021-08-15T09:02:23Z</time>
      </trkpt>
      <trkpt lat="45.49416" lon="6.73607">
        <ele>2679.6</ele>
        <time>2021-08-15T09:02:24Z</time>
      </trkpt>
      <trkpt lat="45.49416" lon="6.73607">
        <ele>2679.6</ele>
        <time>2021-08-15T09:02:25Z</time>
      </trkpt>
      <trkpt lat="45.49416" lon="6.73607">
        <ele>2679.6</ele>
        <time>2021-08-15T09:02:26Z</time>
      </trkpt>
      <trkpt lat="45.49416" lon="6.73607">
        <ele>2679.6</ele>
        <time>2021-08-15T09:02:27Z</time>
      </trkpt>
      <trkpt lat="45.49416" lon="6.73607">
        <ele>2679.6</ele>
        <time>2021-08-15T09:02:28Z</time>
      </trkpt>
      <trkpt lat="45.49416" lon="6.73607">
        <ele>2679.6</ele>
        <time>2021-08-15T09:02:29Z</time>
      </trkpt>
      <trkpt lat="45.49416" lon="6.73607">
        <ele>2679.6</ele>
        <time>2021-08-15T09:02:30Z</time>
      </trkpt>
      <trkpt lat="45.49416" lon="6.73607">
        <ele>2679.6</ele>
        <time>2021-08-15T09:02:31Z</time>
      </trkpt>
      <trkpt lat="45.49416" lon="6.73607">
        <ele>2679.6</ele>
        <time>2021-08-15T09:02:32Z</time>
      </trkpt>
      <trkpt lat="45.49416" lon="6.73607">
        <ele>2679.6</ele>
        <time>2021-08-15T09:02:33Z</time>
      </trkpt>
      <trkpt lat="45.49416" lon="6.73607">
        <ele>2679.6</ele>
        <time>2021-08-15T09:02:34Z</time>
      </trkpt>
      <trkpt lat="45.49416" lon="6.73607">
        <ele>2679.6</ele>
        <time>2021-08-15T09:02:35Z</time>
      </trkpt>
      <trkpt lat="45.49416" lon="6.73607">
        <ele>2679.6</ele>
        <time>2021-08-15T09:02:36Z</time>
      </trkpt>
      <trkpt lat="45.49416" lon="6.73607">
        <ele>2679.6</ele>
        <time>2021-08-15T09:02:37Z</time>
      </trkpt>
      <trkpt lat="45.49416" lon="6.73607">
        <ele>2679.6</ele>
        <time>2021-08-15T09:02:38Z</time>
      </trkpt>
      <trkpt lat="45.49416" lon="6.73607">
        <ele>2679.6</ele>
        <time>2021-08-15T09:02:39Z</time>
      </trkpt>
      <trkpt lat="45.49416" lon="6.73607">
        <ele>2679.6</ele>
        <time>2021-08-15T09:02:40Z</time>
      </trkpt>
      <trkpt lat="45.49416" lon="6.73607">
        <ele>2679.6</ele>
        <time>2021-08-15T09:02:41Z</time>
      </trkpt>
      <trkpt lat="45.49416" lon="6.73607">
        <ele>2679.6</ele>
        <time>2021-08-15T09:02:42Z</time>
      </trkpt>
      <trkpt lat="45.49416" lon="6.73607">
        <ele>2679.6</ele>
        <time>2021-08-15T09:02:43Z</time>
      </trkpt>
      <trkpt lat="45.49416" lon="6.73607">
        <ele>2679.6</ele>
        <time>2021-08-15T09:02:44Z</time>
      </trkpt>
      <trkpt lat="45.49416" lon="6.73607">
        <ele>2679.6</ele>
        <time>2021-08-15T09:02:45Z</time>
      </trkpt>
      <trkpt lat="45.49416" lon="6.73607">
        <ele>2679.6</ele>
        <time>2021-08-15T09:02:46Z</time>
      </trkpt>
      <trkpt lat="45.49415" lon="6.73606">
        <ele>2679.6</ele>
        <time>2021-08-15T09:02:47Z</time>
      </trkpt>
      <trkpt lat="45.49414" lon="6.73606">
        <ele>2679.6</ele>
        <time>2021-08-15T09:02:48Z</time>
      </trkpt>
      <trkpt lat="45.49413" lon="6.73605">
        <ele>2680.9</ele>
        <time>2021-08-15T09:02:49Z</time>
      </trkpt>
      <trkpt lat="45.49413" lon="6.73605">
        <ele>2680.9</ele>
        <time>2021-08-15T09:02:50Z</time>
      </trkpt>
      <trkpt lat="45.49412" lon="6.73604">
        <ele>2680.9</ele>
        <time>2021-08-15T09:02:51Z</time>
      </trkpt>
      <trkpt lat="45.49412" lon="6.73604">
        <ele>2680.9</ele>
        <time>2021-08-15T09:02:52Z</time>
      </trkpt>
      <trkpt lat="45.49412" lon="6.73604">
        <ele>2680.9</ele>
        <time>2021-08-15T09:02:53Z</time>
      </trkpt>
      <trkpt lat="45.49412" lon="6.73604">
        <ele>2680.9</ele>
        <time>2021-08-15T09:02:54Z</time>
      </trkpt>
      <trkpt lat="45.49412" lon="6.73604">
        <ele>2680.9</ele>
        <time>2021-08-15T09:02:55Z</time>
      </trkpt>
      <trkpt lat="45.49412" lon="6.73604">
        <ele>2680.9</ele>
        <time>2021-08-15T09:02:56Z</time>
      </trkpt>
      <trkpt lat="45.49412" lon="6.73604">
        <ele>2680.9</ele>
        <time>2021-08-15T09:02:57Z</time>
      </trkpt>
      <trkpt lat="45.49412" lon="6.73604">
        <ele>2680.9</ele>
        <time>2021-08-15T09:02:58Z</time>
      </trkpt>
      <trkpt lat="45.49412" lon="6.73604">
        <ele>2680.9</ele>
        <time>2021-08-15T09:02:59Z</time>
      </trkpt>
      <trkpt lat="45.49412" lon="6.73604">
        <ele>2680.9</ele>
        <time>2021-08-15T09:03:00Z</time>
      </trkpt>
      <trkpt lat="45.49412" lon="6.73604">
        <ele>2680.9</ele>
        <time>2021-08-15T09:03:01Z</time>
      </trkpt>
      <trkpt lat="45.49412" lon="6.73604">
        <ele>2680.9</ele>
        <time>2021-08-15T09:03:02Z</time>
      </trkpt>
      <trkpt lat="45.49412" lon="6.73604">
        <ele>2680.9</ele>
        <time>2021-08-15T09:03:03Z</time>
      </trkpt>
      <trkpt lat="45.49412" lon="6.73604">
        <ele>2680.9</ele>
        <time>2021-08-15T09:03:04Z</time>
      </trkpt>
      <trkpt lat="45.49412" lon="6.73604">
        <ele>2680.9</ele>
        <time>2021-08-15T09:03:05Z</time>
      </trkpt>
      <trkpt lat="45.49412" lon="6.73604">
        <ele>2680.9</ele>
        <time>2021-08-15T09:03:06Z</time>
      </trkpt>
      <trkpt lat="45.49412" lon="6.73604">
        <ele>2680.9</ele>
        <time>2021-08-15T09:03:07Z</time>
      </trkpt>
      <trkpt lat="45.49412" lon="6.73604">
        <ele>2680.9</ele>
        <time>2021-08-15T09:03:08Z</time>
      </trkpt>
      <trkpt lat="45.49412" lon="6.73604">
        <ele>2680.9</ele>
        <time>2021-08-15T09:03:09Z</time>
      </trkpt>
      <trkpt lat="45.49412" lon="6.73604">
        <ele>2680.9</ele>
        <time>2021-08-15T09:03:10Z</time>
      </trkpt>
      <trkpt lat="45.49412" lon="6.73604">
        <ele>2680.9</ele>
        <time>2021-08-15T09:03:11Z</time>
      </trkpt>
      <trkpt lat="45.49412" lon="6.73604">
        <ele>2680.9</ele>
        <time>2021-08-15T09:03:12Z</time>
      </trkpt>
      <trkpt lat="45.49412" lon="6.73604">
        <ele>2680.9</ele>
        <time>2021-08-15T09:03:13Z</time>
      </trkpt>
      <trkpt lat="45.49412" lon="6.73604">
        <ele>2680.9</ele>
        <time>2021-08-15T09:03:14Z</time>
      </trkpt>
      <trkpt lat="45.49412" lon="6.73604">
        <ele>2680.9</ele>
        <time>2021-08-15T09:03:15Z</time>
      </trkpt>
      <trkpt lat="45.49412" lon="6.73604">
        <ele>2680.9</ele>
        <time>2021-08-15T09:03:16Z</time>
      </trkpt>
      <trkpt lat="45.49412" lon="6.73604">
        <ele>2680.9</ele>
        <time>2021-08-15T09:03:17Z</time>
      </trkpt>
      <trkpt lat="45.49412" lon="6.73604">
        <ele>2680.9</ele>
        <time>2021-08-15T09:03:18Z</time>
      </trkpt>
      <trkpt lat="45.49412" lon="6.73604">
        <ele>2680.9</ele>
        <time>2021-08-15T09:03:19Z</time>
      </trkpt>
      <trkpt lat="45.49412" lon="6.73604">
        <ele>2680.9</ele>
        <time>2021-08-15T09:03:20Z</time>
      </trkpt>
      <trkpt lat="45.49412" lon="6.73604">
        <ele>2680.9</ele>
        <time>2021-08-15T09:03:21Z</time>
      </trkpt>
      <trkpt lat="45.49412" lon="6.73604">
        <ele>2680.9</ele>
        <time>2021-08-15T09:03:22Z</time>
      </trkpt>
      <trkpt lat="45.49412" lon="6.73604">
        <ele>2680.9</ele>
        <time>2021-08-15T09:03:23Z</time>
      </trkpt>
      <trkpt lat="45.49412" lon="6.73604">
        <ele>2680.9</ele>
        <time>2021-08-15T09:03:24Z</time>
      </trkpt>
      <trkpt lat="45.49412" lon="6.73604">
        <ele>2680.9</ele>
        <time>2021-08-15T09:03:25Z</time>
      </trkpt>
      <trkpt lat="45.49412" lon="6.73604">
        <ele>2680.9</ele>
        <time>2021-08-15T09:03:26Z</time>
      </trkpt>
      <trkpt lat="45.49412" lon="6.73604">
        <ele>2680.9</ele>
        <time>2021-08-15T09:03:27Z</time>
      </trkpt>
      <trkpt lat="45.49412" lon="6.73604">
        <ele>2680.9</ele>
        <time>2021-08-15T09:03:28Z</time>
      </trkpt>
      <trkpt lat="45.49412" lon="6.73604">
        <ele>2680.9</ele>
        <time>2021-08-15T09:03:29Z</time>
      </trkpt>
      <trkpt lat="45.49412" lon="6.73604">
        <ele>2680.9</ele>
        <time>2021-08-15T09:03:30Z</time>
      </trkpt>
      <trkpt lat="45.49412" lon="6.73604">
        <ele>2680.9</ele>
        <time>2021-08-15T09:03:31Z</time>
      </trkpt>
      <trkpt lat="45.49412" lon="6.73604">
        <ele>2680.9</ele>
        <time>2021-08-15T09:03:32Z</time>
      </trkpt>
      <trkpt lat="45.49412" lon="6.73604">
        <ele>2680.9</ele>
        <time>2021-08-15T09:03:33Z</time>
      </trkpt>
      <trkpt lat="45.49412" lon="6.73604">
        <ele>2680.9</ele>
        <time>2021-08-15T09:03:34Z</time>
      </trkpt>
      <trkpt lat="45.49412" lon="6.73604">
        <ele>2680.9</ele>
        <time>2021-08-15T09:03:35Z</time>
      </trkpt>
      <trkpt lat="45.49412" lon="6.73604">
        <ele>2680.9</ele>
        <time>2021-08-15T09:03:36Z</time>
      </trkpt>
      <trkpt lat="45.49412" lon="6.73604">
        <ele>2680.9</ele>
        <time>2021-08-15T09:03:37Z</time>
      </trkpt>
      <trkpt lat="45.49412" lon="6.73604">
        <ele>2680.9</ele>
        <time>2021-08-15T09:03:38Z</time>
      </trkpt>
      <trkpt lat="45.49412" lon="6.73604">
        <ele>2680.9</ele>
        <time>2021-08-15T09:03:39Z</time>
      </trkpt>
      <trkpt lat="45.49412" lon="6.73604">
        <ele>2680.9</ele>
        <time>2021-08-15T09:03:40Z</time>
      </trkpt>
      <trkpt lat="45.49412" lon="6.73604">
        <ele>2680.9</ele>
        <time>2021-08-15T09:03:41Z</time>
      </trkpt>
      <trkpt lat="45.49412" lon="6.73604">
        <ele>2680.9</ele>
        <time>2021-08-15T09:03:42Z</time>
      </trkpt>
      <trkpt lat="45.49412" lon="6.73604">
        <ele>2680.9</ele>
        <time>2021-08-15T09:03:43Z</time>
      </trkpt>
      <trkpt lat="45.49412" lon="6.73604">
        <ele>2680.9</ele>
        <time>2021-08-15T09:03:44Z</time>
      </trkpt>
      <trkpt lat="45.49412" lon="6.73604">
        <ele>2680.9</ele>
        <time>2021-08-15T09:03:45Z</time>
      </trkpt>
      <trkpt lat="45.49412" lon="6.73604">
        <ele>2680.9</ele>
        <time>2021-08-15T09:03:46Z</time>
      </trkpt>
      <trkpt lat="45.49412" lon="6.73604">
        <ele>2680.9</ele>
        <time>2021-08-15T09:03:47Z</time>
      </trkpt>
      <trkpt lat="45.49412" lon="6.73604">
        <ele>2680.9</ele>
        <time>2021-08-15T09:03:48Z</time>
      </trkpt>
      <trkpt lat="45.49412" lon="6.73604">
        <ele>2680.9</ele>
        <time>2021-08-15T09:03:49Z</time>
      </trkpt>
      <trkpt lat="45.49412" lon="6.73604">
        <ele>2680.9</ele>
        <time>2021-08-15T09:03:50Z</time>
      </trkpt>
      <trkpt lat="45.49412" lon="6.73604">
        <ele>2680.9</ele>
        <time>2021-08-15T09:03:51Z</time>
      </trkpt>
      <trkpt lat="45.49412" lon="6.73604">
        <ele>2680.9</ele>
        <time>2021-08-15T09:03:52Z</time>
      </trkpt>
      <trkpt lat="45.49412" lon="6.73604">
        <ele>2680.9</ele>
        <time>2021-08-15T09:03:53Z</time>
      </trkpt>
      <trkpt lat="45.49412" lon="6.73604">
        <ele>2680.9</ele>
        <time>2021-08-15T09:03:54Z</time>
      </trkpt>
      <trkpt lat="45.49412" lon="6.73604">
        <ele>2680.9</ele>
        <time>2021-08-15T09:03:55Z</time>
      </trkpt>
      <trkpt lat="45.49412" lon="6.73604">
        <ele>2680.9</ele>
        <time>2021-08-15T09:03:56Z</time>
      </trkpt>
      <trkpt lat="45.49412" lon="6.73604">
        <ele>2680.9</ele>
        <time>2021-08-15T09:03:57Z</time>
      </trkpt>
      <trkpt lat="45.49412" lon="6.73604">
        <ele>2680.9</ele>
        <time>2021-08-15T09:03:58Z</time>
      </trkpt>
      <trkpt lat="45.49412" lon="6.73604">
        <ele>2680.9</ele>
        <time>2021-08-15T09:03:59Z</time>
      </trkpt>
      <trkpt lat="45.49412" lon="6.73604">
        <ele>2680.9</ele>
        <time>2021-08-15T09:04:00Z</time>
      </trkpt>
      <trkpt lat="45.49412" lon="6.73604">
        <ele>2680.9</ele>
        <time>2021-08-15T09:04:01Z</time>
      </trkpt>
      <trkpt lat="45.49412" lon="6.73604">
        <ele>2680.9</ele>
        <time>2021-08-15T09:04:02Z</time>
      </trkpt>
      <trkpt lat="45.49412" lon="6.73604">
        <ele>2680.9</ele>
        <time>2021-08-15T09:04:03Z</time>
      </trkpt>
      <trkpt lat="45.49412" lon="6.73604">
        <ele>2680.9</ele>
        <time>2021-08-15T09:04:04Z</time>
      </trkpt>
      <trkpt lat="45.49412" lon="6.73604">
        <ele>2680.9</ele>
        <time>2021-08-15T09:04:05Z</time>
      </trkpt>
      <trkpt lat="45.49412" lon="6.73604">
        <ele>2680.9</ele>
        <time>2021-08-15T09:04:06Z</time>
      </trkpt>
      <trkpt lat="45.49412" lon="6.73604">
        <ele>2680.9</ele>
        <time>2021-08-15T09:04:07Z</time>
      </trkpt>
      <trkpt lat="45.49412" lon="6.73604">
        <ele>2680.9</ele>
        <time>2021-08-15T09:04:08Z</time>
      </trkpt>
      <trkpt lat="45.49412" lon="6.73604">
        <ele>2680.9</ele>
        <time>2021-08-15T09:04:09Z</time>
      </trkpt>
      <trkpt lat="45.49412" lon="6.73604">
        <ele>2680.9</ele>
        <time>2021-08-15T09:04:10Z</time>
      </trkpt>
      <trkpt lat="45.49412" lon="6.73604">
        <ele>2680.9</ele>
        <time>2021-08-15T09:04:11Z</time>
      </trkpt>
      <trkpt lat="45.49412" lon="6.73604">
        <ele>2680.9</ele>
        <time>2021-08-15T09:04:12Z</time>
      </trkpt>
      <trkpt lat="45.49412" lon="6.73604">
        <ele>2680.9</ele>
        <time>2021-08-15T09:04:13Z</time>
      </trkpt>
      <trkpt lat="45.49412" lon="6.73604">
        <ele>2680.9</ele>
        <time>2021-08-15T09:04:14Z</time>
      </trkpt>
      <trkpt lat="45.49412" lon="6.73604">
        <ele>2680.9</ele>
        <time>2021-08-15T09:04:15Z</time>
      </trkpt>
      <trkpt lat="45.49412" lon="6.73604">
        <ele>2680.9</ele>
        <time>2021-08-15T09:04:16Z</time>
      </trkpt>
      <trkpt lat="45.49412" lon="6.73604">
        <ele>2680.9</ele>
        <time>2021-08-15T09:04:17Z</time>
      </trkpt>
      <trkpt lat="45.49412" lon="6.73604">
        <ele>2680.9</ele>
        <time>2021-08-15T09:04:18Z</time>
      </trkpt>
      <trkpt lat="45.49412" lon="6.73604">
        <ele>2680.9</ele>
        <time>2021-08-15T09:04:19Z</time>
      </trkpt>
      <trkpt lat="45.49412" lon="6.73604">
        <ele>2680.9</ele>
        <time>2021-08-15T09:04:20Z</time>
      </trkpt>
      <trkpt lat="45.49412" lon="6.73604">
        <ele>2680.9</ele>
        <time>2021-08-15T09:04:21Z</time>
      </trkpt>
      <trkpt lat="45.49412" lon="6.73604">
        <ele>2680.9</ele>
        <time>2021-08-15T09:04:22Z</time>
      </trkpt>
      <trkpt lat="45.49412" lon="6.73604">
        <ele>2680.9</ele>
        <time>2021-08-15T09:04:23Z</time>
      </trkpt>
      <trkpt lat="45.49412" lon="6.73604">
        <ele>2680.9</ele>
        <time>2021-08-15T09:04:24Z</time>
      </trkpt>
      <trkpt lat="45.49412" lon="6.73604">
        <ele>2680.9</ele>
        <time>2021-08-15T09:04:25Z</time>
      </trkpt>
      <trkpt lat="45.49412" lon="6.73604">
        <ele>2680.9</ele>
        <time>2021-08-15T09:04:26Z</time>
      </trkpt>
      <trkpt lat="45.49412" lon="6.73604">
        <ele>2680.9</ele>
        <time>2021-08-15T09:04:27Z</time>
      </trkpt>
      <trkpt lat="45.49412" lon="6.73604">
        <ele>2680.9</ele>
        <time>2021-08-15T09:04:28Z</time>
      </trkpt>
      <trkpt lat="45.49412" lon="6.73604">
        <ele>2680.9</ele>
        <time>2021-08-15T09:04:29Z</time>
      </trkpt>
      <trkpt lat="45.49412" lon="6.73604">
        <ele>2680.9</ele>
        <time>2021-08-15T09:04:30Z</time>
      </trkpt>
      <trkpt lat="45.49412" lon="6.73604">
        <ele>2680.9</ele>
        <time>2021-08-15T09:04:31Z</time>
      </trkpt>
      <trkpt lat="45.49412" lon="6.73604">
        <ele>2680.9</ele>
        <time>2021-08-15T09:04:32Z</time>
      </trkpt>
      <trkpt lat="45.49412" lon="6.73604">
        <ele>2680.9</ele>
        <time>2021-08-15T09:04:33Z</time>
      </trkpt>
      <trkpt lat="45.49412" lon="6.73604">
        <ele>2680.9</ele>
        <time>2021-08-15T09:04:34Z</time>
      </trkpt>
      <trkpt lat="45.49412" lon="6.73604">
        <ele>2680.9</ele>
        <time>2021-08-15T09:04:35Z</time>
      </trkpt>
      <trkpt lat="45.49412" lon="6.73604">
        <ele>2680.9</ele>
        <time>2021-08-15T09:04:36Z</time>
      </trkpt>
      <trkpt lat="45.49412" lon="6.73604">
        <ele>2680.9</ele>
        <time>2021-08-15T09:04:37Z</time>
      </trkpt>
      <trkpt lat="45.49412" lon="6.73604">
        <ele>2680.9</ele>
        <time>2021-08-15T09:04:38Z</time>
      </trkpt>
      <trkpt lat="45.49412" lon="6.73604">
        <ele>2680.9</ele>
        <time>2021-08-15T09:04:39Z</time>
      </trkpt>
      <trkpt lat="45.49412" lon="6.73604">
        <ele>2680.9</ele>
        <time>2021-08-15T09:04:40Z</time>
      </trkpt>
      <trkpt lat="45.49412" lon="6.73604">
        <ele>2680.9</ele>
        <time>2021-08-15T09:04:41Z</time>
      </trkpt>
      <trkpt lat="45.49412" lon="6.73604">
        <ele>2680.9</ele>
        <time>2021-08-15T09:04:42Z</time>
      </trkpt>
      <trkpt lat="45.49412" lon="6.73604">
        <ele>2680.9</ele>
        <time>2021-08-15T09:04:43Z</time>
      </trkpt>
      <trkpt lat="45.49412" lon="6.73604">
        <ele>2680.9</ele>
        <time>2021-08-15T09:04:44Z</time>
      </trkpt>
      <trkpt lat="45.49412" lon="6.73604">
        <ele>2680.9</ele>
        <time>2021-08-15T09:04:45Z</time>
      </trkpt>
      <trkpt lat="45.49412" lon="6.73604">
        <ele>2680.9</ele>
        <time>2021-08-15T09:04:46Z</time>
      </trkpt>
      <trkpt lat="45.49412" lon="6.73604">
        <ele>2680.9</ele>
        <time>2021-08-15T09:04:47Z</time>
      </trkpt>
      <trkpt lat="45.49412" lon="6.73604">
        <ele>2680.9</ele>
        <time>2021-08-15T09:04:48Z</time>
      </trkpt>
      <trkpt lat="45.49412" lon="6.73604">
        <ele>2680.9</ele>
        <time>2021-08-15T09:04:49Z</time>
      </trkpt>
      <trkpt lat="45.49412" lon="6.73604">
        <ele>2680.9</ele>
        <time>2021-08-15T09:04:50Z</time>
      </trkpt>
      <trkpt lat="45.49412" lon="6.73604">
        <ele>2680.9</ele>
        <time>2021-08-15T09:04:51Z</time>
      </trkpt>
      <trkpt lat="45.49412" lon="6.73604">
        <ele>2680.9</ele>
        <time>2021-08-15T09:04:52Z</time>
      </trkpt>
      <trkpt lat="45.49412" lon="6.73604">
        <ele>2680.9</ele>
        <time>2021-08-15T09:04:53Z</time>
      </trkpt>
      <trkpt lat="45.49412" lon="6.73604">
        <ele>2680.9</ele>
        <time>2021-08-15T09:04:54Z</time>
      </trkpt>
      <trkpt lat="45.49412" lon="6.73604">
        <ele>2680.9</ele>
        <time>2021-08-15T09:04:55Z</time>
      </trkpt>
      <trkpt lat="45.49412" lon="6.73604">
        <ele>2680.9</ele>
        <time>2021-08-15T09:04:56Z</time>
      </trkpt>
      <trkpt lat="45.49412" lon="6.73604">
        <ele>2680.9</ele>
        <time>2021-08-15T09:04:57Z</time>
      </trkpt>
      <trkpt lat="45.49412" lon="6.73604">
        <ele>2680.9</ele>
        <time>2021-08-15T09:04:58Z</time>
      </trkpt>
      <trkpt lat="45.49412" lon="6.73604">
        <ele>2680.9</ele>
        <time>2021-08-15T09:04:59Z</time>
      </trkpt>
      <trkpt lat="45.49412" lon="6.73604">
        <ele>2680.9</ele>
        <time>2021-08-15T09:05:00Z</time>
      </trkpt>
      <trkpt lat="45.49412" lon="6.73604">
        <ele>2680.9</ele>
        <time>2021-08-15T09:05:01Z</time>
      </trkpt>
      <trkpt lat="45.49412" lon="6.73604">
        <ele>2680.9</ele>
        <time>2021-08-15T09:05:02Z</time>
      </trkpt>
      <trkpt lat="45.49412" lon="6.73604">
        <ele>2680.9</ele>
        <time>2021-08-15T09:05:03Z</time>
      </trkpt>
      <trkpt lat="45.49412" lon="6.73604">
        <ele>2680.9</ele>
        <time>2021-08-15T09:05:04Z</time>
      </trkpt>
      <trkpt lat="45.49412" lon="6.73604">
        <ele>2680.9</ele>
        <time>2021-08-15T09:05:05Z</time>
      </trkpt>
      <trkpt lat="45.49412" lon="6.73604">
        <ele>2680.9</ele>
        <time>2021-08-15T09:05:06Z</time>
      </trkpt>
      <trkpt lat="45.49412" lon="6.73604">
        <ele>2680.9</ele>
        <time>2021-08-15T09:05:07Z</time>
      </trkpt>
      <trkpt lat="45.49412" lon="6.73604">
        <ele>2680.9</ele>
        <time>2021-08-15T09:05:08Z</time>
      </trkpt>
      <trkpt lat="45.49412" lon="6.73604">
        <ele>2680.9</ele>
        <time>2021-08-15T09:05:09Z</time>
      </trkpt>
      <trkpt lat="45.49412" lon="6.73604">
        <ele>2680.9</ele>
        <time>2021-08-15T09:05:10Z</time>
      </trkpt>
      <trkpt lat="45.49412" lon="6.73604">
        <ele>2680.9</ele>
        <time>2021-08-15T09:05:11Z</time>
      </trkpt>
      <trkpt lat="45.49412" lon="6.73604">
        <ele>2680.9</ele>
        <time>2021-08-15T09:05:12Z</time>
      </trkpt>
      <trkpt lat="45.49412" lon="6.73604">
        <ele>2680.9</ele>
        <time>2021-08-15T09:05:13Z</time>
      </trkpt>
      <trkpt lat="45.49412" lon="6.73604">
        <ele>2680.9</ele>
        <time>2021-08-15T09:05:14Z</time>
      </trkpt>
      <trkpt lat="45.49412" lon="6.73604">
        <ele>2680.9</ele>
        <time>2021-08-15T09:05:15Z</time>
      </trkpt>
      <trkpt lat="45.49412" lon="6.73605">
        <ele>2680.9</ele>
        <time>2021-08-15T09:05:16Z</time>
      </trkpt>
      <trkpt lat="45.49412" lon="6.73605">
        <ele>2680.9</ele>
        <time>2021-08-15T09:05:17Z</time>
      </trkpt>
      <trkpt lat="45.49412" lon="6.73605">
        <ele>2680.9</ele>
        <time>2021-08-15T09:05:18Z</time>
      </trkpt>
      <trkpt lat="45.49413" lon="6.73606">
        <ele>2680.9</ele>
        <time>2021-08-15T09:05:19Z</time>
      </trkpt>
      <trkpt lat="45.49413" lon="6.73607">
        <ele>2680.9</ele>
        <time>2021-08-15T09:05:20Z</time>
      </trkpt>
      <trkpt lat="45.49413" lon="6.73608">
        <ele>2680.9</ele>
        <time>2021-08-15T09:05:21Z</time>
      </trkpt>
      <trkpt lat="45.49413" lon="6.73608">
        <ele>2680.2</ele>
        <time>2021-08-15T09:05:22Z</time>
      </trkpt>
      <trkpt lat="45.49413" lon="6.73609">
        <ele>2680.2</ele>
        <time>2021-08-15T09:05:23Z</time>
      </trkpt>
      <trkpt lat="45.49414" lon="6.7361">
        <ele>2678.9</ele>
        <time>2021-08-15T09:05:24Z</time>
      </trkpt>
      <trkpt lat="45.49414" lon="6.7361">
        <ele>2678.9</ele>
        <time>2021-08-15T09:05:25Z</time>
      </trkpt>
      <trkpt lat="45.49414" lon="6.7361">
        <ele>2678.9</ele>
        <time>2021-08-15T09:05:26Z</time>
      </trkpt>
      <trkpt lat="45.49414" lon="6.73611">
        <ele>2678.9</ele>
        <time>2021-08-15T09:05:27Z</time>
      </trkpt>
      <trkpt lat="45.49414" lon="6.73611">
        <ele>2678.9</ele>
        <time>2021-08-15T09:05:28Z</time>
      </trkpt>
      <trkpt lat="45.49414" lon="6.73611">
        <ele>2678.9</ele>
        <time>2021-08-15T09:05:29Z</time>
      </trkpt>
      <trkpt lat="45.49414" lon="6.73611">
        <ele>2678.9</ele>
        <time>2021-08-15T09:05:30Z</time>
      </trkpt>
      <trkpt lat="45.49414" lon="6.73611">
        <ele>2678.9</ele>
        <time>2021-08-15T09:05:31Z</time>
      </trkpt>
      <trkpt lat="45.49414" lon="6.73611">
        <ele>2678.9</ele>
        <time>2021-08-15T09:05:32Z</time>
      </trkpt>
      <trkpt lat="45.49414" lon="6.73611">
        <ele>2678.9</ele>
        <time>2021-08-15T09:05:33Z</time>
      </trkpt>
      <trkpt lat="45.49414" lon="6.73611">
        <ele>2678.8</ele>
        <time>2021-08-15T09:05:34Z</time>
      </trkpt>
      <trkpt lat="45.49414" lon="6.73611">
        <ele>2678.8</ele>
        <time>2021-08-15T09:05:35Z</time>
      </trkpt>
      <trkpt lat="45.49414" lon="6.73611">
        <ele>2678.8</ele>
        <time>2021-08-15T09:05:36Z</time>
      </trkpt>
      <trkpt lat="45.49414" lon="6.73611">
        <ele>2678.8</ele>
        <time>2021-08-15T09:05:37Z</time>
      </trkpt>
      <trkpt lat="45.49414" lon="6.73611">
        <ele>2678.8</ele>
        <time>2021-08-15T09:05:38Z</time>
      </trkpt>
      <trkpt lat="45.49414" lon="6.73611">
        <ele>2678.7</ele>
        <time>2021-08-15T09:05:39Z</time>
      </trkpt>
      <trkpt lat="45.49414" lon="6.73611">
        <ele>2678.7</ele>
        <time>2021-08-15T09:05:40Z</time>
      </trkpt>
      <trkpt lat="45.49414" lon="6.73611">
        <ele>2678.7</ele>
        <time>2021-08-15T09:05:41Z</time>
      </trkpt>
      <trkpt lat="45.49414" lon="6.73611">
        <ele>2678.7</ele>
        <time>2021-08-15T09:05:42Z</time>
      </trkpt>
      <trkpt lat="45.49414" lon="6.73611">
        <ele>2678.6</ele>
        <time>2021-08-15T09:05:43Z</time>
      </trkpt>
      <trkpt lat="45.49414" lon="6.73611">
        <ele>2678.6</ele>
        <time>2021-08-15T09:05:44Z</time>
      </trkpt>
      <trkpt lat="45.49414" lon="6.73611">
        <ele>2678.6</ele>
        <time>2021-08-15T09:05:45Z</time>
      </trkpt>
      <trkpt lat="45.49414" lon="6.73611">
        <ele>2678.6</ele>
        <time>2021-08-15T09:05:46Z</time>
      </trkpt>
      <trkpt lat="45.49414" lon="6.73611">
        <ele>2678.6</ele>
        <time>2021-08-15T09:05:47Z</time>
      </trkpt>
      <trkpt lat="45.49414" lon="6.73611">
        <ele>2678.5</ele>
        <time>2021-08-15T09:05:48Z</time>
      </trkpt>
      <trkpt lat="45.49414" lon="6.73611">
        <ele>2678.5</ele>
        <time>2021-08-15T09:05:49Z</time>
      </trkpt>
      <trkpt lat="45.49414" lon="6.73611">
        <ele>2678.5</ele>
        <time>2021-08-15T09:05:50Z</time>
      </trkpt>
      <trkpt lat="45.49414" lon="6.73611">
        <ele>2678.5</ele>
        <time>2021-08-15T09:05:51Z</time>
      </trkpt>
      <trkpt lat="45.49414" lon="6.73611">
        <ele>2678.5</ele>
        <time>2021-08-15T09:05:52Z</time>
      </trkpt>
      <trkpt lat="45.49414" lon="6.73611">
        <ele>2678.4</ele>
        <time>2021-08-15T09:05:53Z</time>
      </trkpt>
      <trkpt lat="45.49414" lon="6.73611">
        <ele>2678.4</ele>
        <time>2021-08-15T09:05:54Z</time>
      </trkpt>
      <trkpt lat="45.49414" lon="6.73611">
        <ele>2678.4</ele>
        <time>2021-08-15T09:05:55Z</time>
      </trkpt>
      <trkpt lat="45.49414" lon="6.73611">
        <ele>2678.4</ele>
        <time>2021-08-15T09:05:56Z</time>
      </trkpt>
      <trkpt lat="45.49414" lon="6.73611">
        <ele>2678.4</ele>
        <time>2021-08-15T09:05:57Z</time>
      </trkpt>
      <trkpt lat="45.49414" lon="6.73611">
        <ele>2678.3</ele>
        <time>2021-08-15T09:05:58Z</time>
      </trkpt>
      <trkpt lat="45.49414" lon="6.73611">
        <ele>2678.3</ele>
        <time>2021-08-15T09:05:59Z</time>
      </trkpt>
      <trkpt lat="45.49414" lon="6.7361">
        <ele>2678.3</ele>
        <time>2021-08-15T09:06:00Z</time>
      </trkpt>
      <trkpt lat="45.49414" lon="6.7361">
        <ele>2678.3</ele>
        <time>2021-08-15T09:06:01Z</time>
      </trkpt>
      <trkpt lat="45.49414" lon="6.7361">
        <ele>2678.2</ele>
        <time>2021-08-15T09:06:02Z</time>
      </trkpt>
      <trkpt lat="45.49414" lon="6.73609">
        <ele>2678.2</ele>
        <time>2021-08-15T09:06:03Z</time>
      </trkpt>
      <trkpt lat="45.49413" lon="6.73609">
        <ele>2679.5</ele>
        <time>2021-08-15T09:06:04Z</time>
      </trkpt>
      <trkpt lat="45.49413" lon="6.73609">
        <ele>2679.5</ele>
        <time>2021-08-15T09:06:05Z</time>
      </trkpt>
      <trkpt lat="45.49413" lon="6.73608">
        <ele>2679.5</ele>
        <time>2021-08-15T09:06:06Z</time>
      </trkpt>
      <trkpt lat="45.49413" lon="6.73608">
        <ele>2679.4</ele>
        <time>2021-08-15T09:06:07Z</time>
      </trkpt>
      <trkpt lat="45.49413" lon="6.73608">
        <ele>2680.1</ele>
        <time>2021-08-15T09:06:08Z</time>
      </trkpt>
      <trkpt lat="45.49413" lon="6.73608">
        <ele>2680.1</ele>
        <time>2021-08-15T09:06:09Z</time>
      </trkpt>
      <trkpt lat="45.49413" lon="6.73608">
        <ele>2680.1</ele>
        <time>2021-08-15T09:06:10Z</time>
      </trkpt>
      <trkpt lat="45.49413" lon="6.73607">
        <ele>2680.1</ele>
        <time>2021-08-15T09:06:11Z</time>
      </trkpt>
      <trkpt lat="45.49413" lon="6.73607">
        <ele>2680</ele>
        <time>2021-08-15T09:06:12Z</time>
      </trkpt>
      <trkpt lat="45.49413" lon="6.73607">
        <ele>2680</ele>
        <time>2021-08-15T09:06:13Z</time>
      </trkpt>
      <trkpt lat="45.49413" lon="6.73607">
        <ele>2680</ele>
        <time>2021-08-15T09:06:14Z</time>
      </trkpt>
      <trkpt lat="45.49413" lon="6.73607">
        <ele>2680</ele>
        <time>2021-08-15T09:06:15Z</time>
      </trkpt>
      <trkpt lat="45.49413" lon="6.73607">
        <ele>2680</ele>
        <time>2021-08-15T09:06:16Z</time>
      </trkpt>
      <trkpt lat="45.49413" lon="6.73607">
        <ele>2679.9</ele>
        <time>2021-08-15T09:06:17Z</time>
      </trkpt>
      <trkpt lat="45.49413" lon="6.73607">
        <ele>2679.9</ele>
        <time>2021-08-15T09:06:18Z</time>
      </trkpt>
      <trkpt lat="45.49413" lon="6.73607">
        <ele>2679.9</ele>
        <time>2021-08-15T09:06:19Z</time>
      </trkpt>
      <trkpt lat="45.49413" lon="6.73607">
        <ele>2679.9</ele>
        <time>2021-08-15T09:06:20Z</time>
      </trkpt>
      <trkpt lat="45.49413" lon="6.73607">
        <ele>2679.9</ele>
        <time>2021-08-15T09:06:21Z</time>
      </trkpt>
      <trkpt lat="45.49413" lon="6.73607">
        <ele>2679.8</ele>
        <time>2021-08-15T09:06:22Z</time>
      </trkpt>
      <trkpt lat="45.49413" lon="6.73607">
        <ele>2679.8</ele>
        <time>2021-08-15T09:06:23Z</time>
      </trkpt>
      <trkpt lat="45.49413" lon="6.73607">
        <ele>2679.8</ele>
        <time>2021-08-15T09:06:24Z</time>
      </trkpt>
      <trkpt lat="45.49413" lon="6.73607">
        <ele>2679.8</ele>
        <time>2021-08-15T09:06:25Z</time>
      </trkpt>
      <trkpt lat="45.49413" lon="6.73607">
        <ele>2679.7</ele>
        <time>2021-08-15T09:06:26Z</time>
      </trkpt>
      <trkpt lat="45.49413" lon="6.73607">
        <ele>2679.7</ele>
        <time>2021-08-15T09:06:27Z</time>
      </trkpt>
      <trkpt lat="45.49413" lon="6.73607">
        <ele>2679.7</ele>
        <time>2021-08-15T09:06:28Z</time>
      </trkpt>
      <trkpt lat="45.49413" lon="6.73607">
        <ele>2679.7</ele>
        <time>2021-08-15T09:06:29Z</time>
      </trkpt>
      <trkpt lat="45.49413" lon="6.73607">
        <ele>2679.7</ele>
        <time>2021-08-15T09:06:30Z</time>
      </trkpt>
      <trkpt lat="45.49413" lon="6.73607">
        <ele>2679.6</ele>
        <time>2021-08-15T09:06:31Z</time>
      </trkpt>
      <trkpt lat="45.49413" lon="6.73607">
        <ele>2679.6</ele>
        <time>2021-08-15T09:06:32Z</time>
      </trkpt>
      <trkpt lat="45.49413" lon="6.73607">
        <ele>2679.6</ele>
        <time>2021-08-15T09:06:33Z</time>
      </trkpt>
      <trkpt lat="45.49413" lon="6.73607">
        <ele>2679.6</ele>
        <time>2021-08-15T09:06:34Z</time>
      </trkpt>
      <trkpt lat="45.49413" lon="6.73607">
        <ele>2679.6</ele>
        <time>2021-08-15T09:06:35Z</time>
      </trkpt>
      <trkpt lat="45.49413" lon="6.73607">
        <ele>2679.5</ele>
        <time>2021-08-15T09:06:36Z</time>
      </trkpt>
      <trkpt lat="45.49413" lon="6.73607">
        <ele>2679.5</ele>
        <time>2021-08-15T09:06:37Z</time>
      </trkpt>
      <trkpt lat="45.49413" lon="6.73607">
        <ele>2679.5</ele>
        <time>2021-08-15T09:06:38Z</time>
      </trkpt>
      <trkpt lat="45.49413" lon="6.73607">
        <ele>2679.5</ele>
        <time>2021-08-15T09:06:39Z</time>
      </trkpt>
      <trkpt lat="45.49413" lon="6.73607">
        <ele>2679.5</ele>
        <time>2021-08-15T09:06:40Z</time>
      </trkpt>
      <trkpt lat="45.49413" lon="6.73607">
        <ele>2679.4</ele>
        <time>2021-08-15T09:06:41Z</time>
      </trkpt>
      <trkpt lat="45.49413" lon="6.73607">
        <ele>2679.4</ele>
        <time>2021-08-15T09:06:42Z</time>
      </trkpt>
      <trkpt lat="45.49413" lon="6.73607">
        <ele>2679.4</ele>
        <time>2021-08-15T09:06:43Z</time>
      </trkpt>
      <trkpt lat="45.49413" lon="6.73607">
        <ele>2679.4</ele>
        <time>2021-08-15T09:06:44Z</time>
      </trkpt>
      <trkpt lat="45.49413" lon="6.73607">
        <ele>2679.3</ele>
        <time>2021-08-15T09:06:45Z</time>
      </trkpt>
      <trkpt lat="45.49413" lon="6.73607">
        <ele>2679.3</ele>
        <time>2021-08-15T09:06:46Z</time>
      </trkpt>
      <trkpt lat="45.49413" lon="6.73607">
        <ele>2679.3</ele>
        <time>2021-08-15T09:06:47Z</time>
      </trkpt>
      <trkpt lat="45.49413" lon="6.73607">
        <ele>2679.3</ele>
        <time>2021-08-15T09:06:48Z</time>
      </trkpt>
      <trkpt lat="45.49413" lon="6.73607">
        <ele>2679.3</ele>
        <time>2021-08-15T09:06:49Z</time>
      </trkpt>
      <trkpt lat="45.49413" lon="6.73607">
        <ele>2679.2</ele>
        <time>2021-08-15T09:06:50Z</time>
      </trkpt>
      <trkpt lat="45.49413" lon="6.73607">
        <ele>2679.2</ele>
        <time>2021-08-15T09:06:51Z</time>
      </trkpt>
      <trkpt lat="45.49413" lon="6.73607">
        <ele>2679.2</ele>
        <time>2021-08-15T09:06:52Z</time>
      </trkpt>
      <trkpt lat="45.49413" lon="6.73607">
        <ele>2679.2</ele>
        <time>2021-08-15T09:06:53Z</time>
      </trkpt>
      <trkpt lat="45.49413" lon="6.73607">
        <ele>2679.2</ele>
        <time>2021-08-15T09:06:54Z</time>
      </trkpt>
      <trkpt lat="45.49413" lon="6.73607">
        <ele>2679.1</ele>
        <time>2021-08-15T09:06:55Z</time>
      </trkpt>
      <trkpt lat="45.49413" lon="6.73607">
        <ele>2679.1</ele>
        <time>2021-08-15T09:06:56Z</time>
      </trkpt>
      <trkpt lat="45.49413" lon="6.73607">
        <ele>2679.1</ele>
        <time>2021-08-15T09:06:57Z</time>
      </trkpt>
      <trkpt lat="45.49413" lon="6.73607">
        <ele>2679.1</ele>
        <time>2021-08-15T09:06:58Z</time>
      </trkpt>
      <trkpt lat="45.49413" lon="6.73607">
        <ele>2679.1</ele>
        <time>2021-08-15T09:06:59Z</time>
      </trkpt>
      <trkpt lat="45.49413" lon="6.73607">
        <ele>2679</ele>
        <time>2021-08-15T09:07:00Z</time>
      </trkpt>
      <trkpt lat="45.49413" lon="6.73607">
        <ele>2679</ele>
        <time>2021-08-15T09:07:01Z</time>
      </trkpt>
      <trkpt lat="45.49413" lon="6.73607">
        <ele>2679</ele>
        <time>2021-08-15T09:07:02Z</time>
      </trkpt>
      <trkpt lat="45.49413" lon="6.73607">
        <ele>2679</ele>
        <time>2021-08-15T09:07:03Z</time>
      </trkpt>
      <trkpt lat="45.49413" lon="6.73607">
        <ele>2678.9</ele>
        <time>2021-08-15T09:07:04Z</time>
      </trkpt>
      <trkpt lat="45.49413" lon="6.73607">
        <ele>2678.9</ele>
        <time>2021-08-15T09:07:05Z</time>
      </trkpt>
      <trkpt lat="45.49413" lon="6.73607">
        <ele>2678.9</ele>
        <time>2021-08-15T09:07:06Z</time>
      </trkpt>
      <trkpt lat="45.49413" lon="6.73607">
        <ele>2678.9</ele>
        <time>2021-08-15T09:07:07Z</time>
      </trkpt>
      <trkpt lat="45.49413" lon="6.73607">
        <ele>2678.9</ele>
        <time>2021-08-15T09:07:08Z</time>
      </trkpt>
      <trkpt lat="45.49413" lon="6.73607">
        <ele>2678.8</ele>
        <time>2021-08-15T09:07:09Z</time>
      </trkpt>
      <trkpt lat="45.49413" lon="6.73607">
        <ele>2678.8</ele>
        <time>2021-08-15T09:07:10Z</time>
      </trkpt>
      <trkpt lat="45.49413" lon="6.73607">
        <ele>2678.8</ele>
        <time>2021-08-15T09:07:11Z</time>
      </trkpt>
      <trkpt lat="45.49413" lon="6.73607">
        <ele>2678.8</ele>
        <time>2021-08-15T09:07:12Z</time>
      </trkpt>
      <trkpt lat="45.49413" lon="6.73607">
        <ele>2678.8</ele>
        <time>2021-08-15T09:07:13Z</time>
      </trkpt>
      <trkpt lat="45.49413" lon="6.73607">
        <ele>2678.8</ele>
        <time>2021-08-15T09:07:14Z</time>
      </trkpt>
      <trkpt lat="45.49413" lon="6.73607">
        <ele>2678.8</ele>
        <time>2021-08-15T09:07:15Z</time>
      </trkpt>
      <trkpt lat="45.49413" lon="6.73607">
        <ele>2678.8</ele>
        <time>2021-08-15T09:07:16Z</time>
      </trkpt>
      <trkpt lat="45.49413" lon="6.73607">
        <ele>2678.8</ele>
        <time>2021-08-15T09:07:17Z</time>
      </trkpt>
      <trkpt lat="45.49413" lon="6.73607">
        <ele>2678.8</ele>
        <time>2021-08-15T09:07:18Z</time>
      </trkpt>
      <trkpt lat="45.49413" lon="6.73607">
        <ele>2678.8</ele>
        <time>2021-08-15T09:07:19Z</time>
      </trkpt>
      <trkpt lat="45.49413" lon="6.73607">
        <ele>2678.8</ele>
        <time>2021-08-15T09:07:20Z</time>
      </trkpt>
      <trkpt lat="45.49413" lon="6.73607">
        <ele>2678.8</ele>
        <time>2021-08-15T09:07:21Z</time>
      </trkpt>
      <trkpt lat="45.49413" lon="6.73607">
        <ele>2678.8</ele>
        <time>2021-08-15T09:07:22Z</time>
      </trkpt>
      <trkpt lat="45.49413" lon="6.73607">
        <ele>2678.8</ele>
        <time>2021-08-15T09:07:23Z</time>
      </trkpt>
      <trkpt lat="45.49413" lon="6.73607">
        <ele>2678.8</ele>
        <time>2021-08-15T09:07:24Z</time>
      </trkpt>
      <trkpt lat="45.49413" lon="6.73607">
        <ele>2678.8</ele>
        <time>2021-08-15T09:07:25Z</time>
      </trkpt>
      <trkpt lat="45.49413" lon="6.73607">
        <ele>2678.8</ele>
        <time>2021-08-15T09:07:26Z</time>
      </trkpt>
      <trkpt lat="45.49413" lon="6.73607">
        <ele>2678.8</ele>
        <time>2021-08-15T09:07:27Z</time>
      </trkpt>
      <trkpt lat="45.49413" lon="6.73607">
        <ele>2678.8</ele>
        <time>2021-08-15T09:07:28Z</time>
      </trkpt>
      <trkpt lat="45.49413" lon="6.73607">
        <ele>2678.8</ele>
        <time>2021-08-15T09:07:29Z</time>
      </trkpt>
      <trkpt lat="45.49413" lon="6.73607">
        <ele>2678.8</ele>
        <time>2021-08-15T09:07:30Z</time>
      </trkpt>
      <trkpt lat="45.49413" lon="6.73607">
        <ele>2678.8</ele>
        <time>2021-08-15T09:07:31Z</time>
      </trkpt>
      <trkpt lat="45.49413" lon="6.73607">
        <ele>2678.8</ele>
        <time>2021-08-15T09:07:32Z</time>
      </trkpt>
      <trkpt lat="45.49413" lon="6.73607">
        <ele>2678.8</ele>
        <time>2021-08-15T09:07:33Z</time>
      </trkpt>
      <trkpt lat="45.49413" lon="6.73607">
        <ele>2678.8</ele>
        <time>2021-08-15T09:07:34Z</time>
      </trkpt>
      <trkpt lat="45.49413" lon="6.73607">
        <ele>2678.8</ele>
        <time>2021-08-15T09:07:35Z</time>
      </trkpt>
      <trkpt lat="45.49413" lon="6.73607">
        <ele>2678.8</ele>
        <time>2021-08-15T09:07:36Z</time>
      </trkpt>
      <trkpt lat="45.49413" lon="6.73607">
        <ele>2678.8</ele>
        <time>2021-08-15T09:07:37Z</time>
      </trkpt>
      <trkpt lat="45.49413" lon="6.73608">
        <ele>2678.8</ele>
        <time>2021-08-15T09:07:38Z</time>
      </trkpt>
      <trkpt lat="45.49412" lon="6.73608">
        <ele>2678.8</ele>
        <time>2021-08-15T09:07:39Z</time>
      </trkpt>
      <trkpt lat="45.49412" lon="6.73608">
        <ele>2678.1</ele>
        <time>2021-08-15T09:07:40Z</time>
      </trkpt>
      <trkpt lat="45.49412" lon="6.73609">
        <ele>2678.1</ele>
        <time>2021-08-15T09:07:41Z</time>
      </trkpt>
      <trkpt lat="45.49411" lon="6.73609">
        <ele>2678.1</ele>
        <time>2021-08-15T09:07:42Z</time>
      </trkpt>
      <trkpt lat="45.4941" lon="6.7361">
        <ele>2679.3</ele>
        <time>2021-08-15T09:07:43Z</time>
      </trkpt>
      <trkpt lat="45.4941" lon="6.73611">
        <ele>2679.3</ele>
        <time>2021-08-15T09:07:44Z</time>
      </trkpt>
      <trkpt lat="45.4941" lon="6.73612">
        <ele>2679.3</ele>
        <time>2021-08-15T09:07:45Z</time>
      </trkpt>
      <trkpt lat="45.49409" lon="6.73613">
        <ele>2678.6</ele>
        <time>2021-08-15T09:07:46Z</time>
      </trkpt>
      <trkpt lat="45.49409" lon="6.73615">
        <ele>2678.6</ele>
        <time>2021-08-15T09:07:47Z</time>
      </trkpt>
      <trkpt lat="45.49409" lon="6.73617">
        <ele>2677.8</ele>
        <time>2021-08-15T09:07:48Z</time>
      </trkpt>
      <trkpt lat="45.4941" lon="6.73618">
        <ele>2677.8</ele>
        <time>2021-08-15T09:07:49Z</time>
      </trkpt>
      <trkpt lat="45.4941" lon="6.7362">
        <ele>2677.8</ele>
        <time>2021-08-15T09:07:50Z</time>
      </trkpt>
      <trkpt lat="45.4941" lon="6.73621">
        <ele>2677</ele>
        <time>2021-08-15T09:07:51Z</time>
      </trkpt>
      <trkpt lat="45.4941" lon="6.73623">
        <ele>2677</ele>
        <time>2021-08-15T09:07:52Z</time>
      </trkpt>
      <trkpt lat="45.4941" lon="6.73624">
        <ele>2677</ele>
        <time>2021-08-15T09:07:53Z</time>
      </trkpt>
      <trkpt lat="45.49411" lon="6.73624">
        <ele>2675.7</ele>
        <time>2021-08-15T09:07:54Z</time>
      </trkpt>
      <trkpt lat="45.49411" lon="6.73625">
        <ele>2674.7</ele>
        <time>2021-08-15T09:07:55Z</time>
      </trkpt>
      <trkpt lat="45.49411" lon="6.73626">
        <ele>2674.7</ele>
        <time>2021-08-15T09:07:56Z</time>
      </trkpt>
      <trkpt lat="45.49412" lon="6.73626">
        <ele>2674.7</ele>
        <time>2021-08-15T09:07:57Z</time>
      </trkpt>
      <trkpt lat="45.49412" lon="6.73627">
        <ele>2674.7</ele>
        <time>2021-08-15T09:07:58Z</time>
      </trkpt>
      <trkpt lat="45.49412" lon="6.73627">
        <ele>2674.7</ele>
        <time>2021-08-15T09:07:59Z</time>
      </trkpt>
      <trkpt lat="45.49412" lon="6.73627">
        <ele>2674.7</ele>
        <time>2021-08-15T09:08:00Z</time>
      </trkpt>
      <trkpt lat="45.49412" lon="6.73628">
        <ele>2674.7</ele>
        <time>2021-08-15T09:08:01Z</time>
      </trkpt>
      <trkpt lat="45.49413" lon="6.73628">
        <ele>2674.7</ele>
        <time>2021-08-15T09:08:02Z</time>
      </trkpt>
      <trkpt lat="45.49413" lon="6.73628">
        <ele>2674.7</ele>
        <time>2021-08-15T09:08:03Z</time>
      </trkpt>
      <trkpt lat="45.49413" lon="6.73628">
        <ele>2674.7</ele>
        <time>2021-08-15T09:08:04Z</time>
      </trkpt>
      <trkpt lat="45.49413" lon="6.73628">
        <ele>2674.7</ele>
        <time>2021-08-15T09:08:05Z</time>
      </trkpt>
      <trkpt lat="45.49413" lon="6.73628">
        <ele>2674.7</ele>
        <time>2021-08-15T09:08:06Z</time>
      </trkpt>
      <trkpt lat="45.49413" lon="6.73628">
        <ele>2674.7</ele>
        <time>2021-08-15T09:08:07Z</time>
      </trkpt>
      <trkpt lat="45.49413" lon="6.73628">
        <ele>2674.7</ele>
        <time>2021-08-15T09:08:08Z</time>
      </trkpt>
      <trkpt lat="45.49413" lon="6.73628">
        <ele>2674.7</ele>
        <time>2021-08-15T09:08:09Z</time>
      </trkpt>
      <trkpt lat="45.49413" lon="6.73628">
        <ele>2674.7</ele>
        <time>2021-08-15T09:08:10Z</time>
      </trkpt>
      <trkpt lat="45.49413" lon="6.73628">
        <ele>2674.7</ele>
        <time>2021-08-15T09:08:11Z</time>
      </trkpt>
      <trkpt lat="45.49413" lon="6.73628">
        <ele>2674.7</ele>
        <time>2021-08-15T09:08:12Z</time>
      </trkpt>
      <trkpt lat="45.49413" lon="6.73628">
        <ele>2674.7</ele>
        <time>2021-08-15T09:08:13Z</time>
      </trkpt>
      <trkpt lat="45.49413" lon="6.73628">
        <ele>2674.7</ele>
        <time>2021-08-15T09:08:14Z</time>
      </trkpt>
      <trkpt lat="45.49413" lon="6.73628">
        <ele>2674.7</ele>
        <time>2021-08-15T09:08:15Z</time>
      </trkpt>
      <trkpt lat="45.49413" lon="6.73628">
        <ele>2674.7</ele>
        <time>2021-08-15T09:08:16Z</time>
      </trkpt>
      <trkpt lat="45.49413" lon="6.73628">
        <ele>2674.7</ele>
        <time>2021-08-15T09:08:17Z</time>
      </trkpt>
      <trkpt lat="45.49413" lon="6.73628">
        <ele>2674.7</ele>
        <time>2021-08-15T09:08:18Z</time>
      </trkpt>
      <trkpt lat="45.49413" lon="6.73628">
        <ele>2674.7</ele>
        <time>2021-08-15T09:08:19Z</time>
      </trkpt>
      <trkpt lat="45.49413" lon="6.73628">
        <ele>2674.7</ele>
        <time>2021-08-15T09:08:20Z</time>
      </trkpt>
      <trkpt lat="45.49413" lon="6.73628">
        <ele>2674.7</ele>
        <time>2021-08-15T09:08:21Z</time>
      </trkpt>
      <trkpt lat="45.49413" lon="6.73628">
        <ele>2674.7</ele>
        <time>2021-08-15T09:08:22Z</time>
      </trkpt>
      <trkpt lat="45.49413" lon="6.73628">
        <ele>2674.7</ele>
        <time>2021-08-15T09:08:23Z</time>
      </trkpt>
      <trkpt lat="45.49413" lon="6.73628">
        <ele>2674.7</ele>
        <time>2021-08-15T09:08:24Z</time>
      </trkpt>
      <trkpt lat="45.49413" lon="6.73628">
        <ele>2674.7</ele>
        <time>2021-08-15T09:08:25Z</time>
      </trkpt>
      <trkpt lat="45.49413" lon="6.73628">
        <ele>2674.7</ele>
        <time>2021-08-15T09:08:26Z</time>
      </trkpt>
      <trkpt lat="45.49413" lon="6.73628">
        <ele>2674.7</ele>
        <time>2021-08-15T09:08:27Z</time>
      </trkpt>
      <trkpt lat="45.49413" lon="6.73628">
        <ele>2674.7</ele>
        <time>2021-08-15T09:08:28Z</time>
      </trkpt>
      <trkpt lat="45.49413" lon="6.73628">
        <ele>2674.7</ele>
        <time>2021-08-15T09:08:29Z</time>
      </trkpt>
      <trkpt lat="45.49413" lon="6.73628">
        <ele>2674.7</ele>
        <time>2021-08-15T09:08:30Z</time>
      </trkpt>
      <trkpt lat="45.49413" lon="6.73628">
        <ele>2674.7</ele>
        <time>2021-08-15T09:08:31Z</time>
      </trkpt>
      <trkpt lat="45.49413" lon="6.73628">
        <ele>2674.7</ele>
        <time>2021-08-15T09:08:32Z</time>
      </trkpt>
      <trkpt lat="45.49413" lon="6.73628">
        <ele>2674.7</ele>
        <time>2021-08-15T09:08:33Z</time>
      </trkpt>
      <trkpt lat="45.49413" lon="6.73628">
        <ele>2674.7</ele>
        <time>2021-08-15T09:08:34Z</time>
      </trkpt>
      <trkpt lat="45.49413" lon="6.73628">
        <ele>2674.7</ele>
        <time>2021-08-15T09:08:35Z</time>
      </trkpt>
      <trkpt lat="45.49413" lon="6.73628">
        <ele>2674.7</ele>
        <time>2021-08-15T09:08:36Z</time>
      </trkpt>
      <trkpt lat="45.49413" lon="6.73628">
        <ele>2674.7</ele>
        <time>2021-08-15T09:08:37Z</time>
      </trkpt>
      <trkpt lat="45.49413" lon="6.73628">
        <ele>2674.7</ele>
        <time>2021-08-15T09:08:38Z</time>
      </trkpt>
      <trkpt lat="45.49413" lon="6.73628">
        <ele>2674.7</ele>
        <time>2021-08-15T09:08:39Z</time>
      </trkpt>
      <trkpt lat="45.49413" lon="6.73628">
        <ele>2674.7</ele>
        <time>2021-08-15T09:08:40Z</time>
      </trkpt>
      <trkpt lat="45.49413" lon="6.73628">
        <ele>2674.7</ele>
        <time>2021-08-15T09:08:41Z</time>
      </trkpt>
      <trkpt lat="45.49413" lon="6.73628">
        <ele>2674.7</ele>
        <time>2021-08-15T09:08:42Z</time>
      </trkpt>
      <trkpt lat="45.49413" lon="6.73628">
        <ele>2674.7</ele>
        <time>2021-08-15T09:08:43Z</time>
      </trkpt>
      <trkpt lat="45.49413" lon="6.73628">
        <ele>2674.7</ele>
        <time>2021-08-15T09:08:44Z</time>
      </trkpt>
      <trkpt lat="45.49413" lon="6.73628">
        <ele>2674.7</ele>
        <time>2021-08-15T09:08:45Z</time>
      </trkpt>
      <trkpt lat="45.49413" lon="6.73628">
        <ele>2674.7</ele>
        <time>2021-08-15T09:08:46Z</time>
      </trkpt>
      <trkpt lat="45.49413" lon="6.73628">
        <ele>2674.7</ele>
        <time>2021-08-15T09:08:47Z</time>
      </trkpt>
      <trkpt lat="45.49413" lon="6.73628">
        <ele>2674.7</ele>
        <time>2021-08-15T09:08:48Z</time>
      </trkpt>
      <trkpt lat="45.49413" lon="6.73628">
        <ele>2674.7</ele>
        <time>2021-08-15T09:08:49Z</time>
      </trkpt>
      <trkpt lat="45.49413" lon="6.73628">
        <ele>2674.7</ele>
        <time>2021-08-15T09:08:50Z</time>
      </trkpt>
      <trkpt lat="45.49413" lon="6.73628">
        <ele>2674.7</ele>
        <time>2021-08-15T09:08:51Z</time>
      </trkpt>
      <trkpt lat="45.49413" lon="6.73628">
        <ele>2674.7</ele>
        <time>2021-08-15T09:08:52Z</time>
      </trkpt>
      <trkpt lat="45.49413" lon="6.73628">
        <ele>2674.7</ele>
        <time>2021-08-15T09:08:53Z</time>
      </trkpt>
      <trkpt lat="45.49413" lon="6.73628">
        <ele>2674.7</ele>
        <time>2021-08-15T09:08:54Z</time>
      </trkpt>
      <trkpt lat="45.49413" lon="6.73628">
        <ele>2674.7</ele>
        <time>2021-08-15T09:08:55Z</time>
      </trkpt>
      <trkpt lat="45.49413" lon="6.73628">
        <ele>2674.7</ele>
        <time>2021-08-15T09:08:56Z</time>
      </trkpt>
      <trkpt lat="45.49413" lon="6.73628">
        <ele>2674.7</ele>
        <time>2021-08-15T09:08:57Z</time>
      </trkpt>
      <trkpt lat="45.49413" lon="6.73628">
        <ele>2674.7</ele>
        <time>2021-08-15T09:08:58Z</time>
      </trkpt>
      <trkpt lat="45.49413" lon="6.73628">
        <ele>2674.7</ele>
        <time>2021-08-15T09:08:59Z</time>
      </trkpt>
      <trkpt lat="45.49413" lon="6.73628">
        <ele>2674.7</ele>
        <time>2021-08-15T09:09:00Z</time>
      </trkpt>
      <trkpt lat="45.49413" lon="6.73628">
        <ele>2674.7</ele>
        <time>2021-08-15T09:09:01Z</time>
      </trkpt>
      <trkpt lat="45.49413" lon="6.73628">
        <ele>2674.7</ele>
        <time>2021-08-15T09:09:02Z</time>
      </trkpt>
      <trkpt lat="45.49413" lon="6.73628">
        <ele>2674.7</ele>
        <time>2021-08-15T09:09:03Z</time>
      </trkpt>
      <trkpt lat="45.49413" lon="6.73628">
        <ele>2674.7</ele>
        <time>2021-08-15T09:09:04Z</time>
      </trkpt>
      <trkpt lat="45.49413" lon="6.73628">
        <ele>2674.7</ele>
        <time>2021-08-15T09:09:05Z</time>
      </trkpt>
      <trkpt lat="45.49413" lon="6.73628">
        <ele>2674.7</ele>
        <time>2021-08-15T09:09:06Z</time>
      </trkpt>
      <trkpt lat="45.49413" lon="6.73628">
        <ele>2674.7</ele>
        <time>2021-08-15T09:09:07Z</time>
      </trkpt>
      <trkpt lat="45.49413" lon="6.73628">
        <ele>2674.7</ele>
        <time>2021-08-15T09:09:08Z</time>
      </trkpt>
      <trkpt lat="45.49413" lon="6.73628">
        <ele>2674.7</ele>
        <time>2021-08-15T09:09:09Z</time>
      </trkpt>
      <trkpt lat="45.49413" lon="6.73628">
        <ele>2674.7</ele>
        <time>2021-08-15T09:09:10Z</time>
      </trkpt>
      <trkpt lat="45.49413" lon="6.73628">
        <ele>2674.7</ele>
        <time>2021-08-15T09:09:11Z</time>
      </trkpt>
      <trkpt lat="45.49413" lon="6.73628">
        <ele>2674.7</ele>
        <time>2021-08-15T09:09:12Z</time>
      </trkpt>
      <trkpt lat="45.49412" lon="6.73628">
        <ele>2674.7</ele>
        <time>2021-08-15T09:09:13Z</time>
      </trkpt>
      <trkpt lat="45.49412" lon="6.73629">
        <ele>2674.7</ele>
        <time>2021-08-15T09:09:14Z</time>
      </trkpt>
      <trkpt lat="45.49411" lon="6.73629">
        <ele>2674.7</ele>
        <time>2021-08-15T09:09:15Z</time>
      </trkpt>
      <trkpt lat="45.49411" lon="6.73629">
        <ele>2673.7</ele>
        <time>2021-08-15T09:09:16Z</time>
      </trkpt>
      <trkpt lat="45.4941" lon="6.7363">
        <ele>2675</ele>
        <time>2021-08-15T09:09:17Z</time>
      </trkpt>
      <trkpt lat="45.49409" lon="6.7363">
        <ele>2675</ele>
        <time>2021-08-15T09:09:18Z</time>
      </trkpt>
      <trkpt lat="45.49408" lon="6.73631">
        <ele>2675</ele>
        <time>2021-08-15T09:09:19Z</time>
      </trkpt>
      <trkpt lat="45.49408" lon="6.73631">
        <ele>2675</ele>
        <time>2021-08-15T09:09:20Z</time>
      </trkpt>
      <trkpt lat="45.49407" lon="6.73631">
        <ele>2676.3</ele>
        <time>2021-08-15T09:09:21Z</time>
      </trkpt>
      <trkpt lat="45.49407" lon="6.73631">
        <ele>2676.3</ele>
        <time>2021-08-15T09:09:22Z</time>
      </trkpt>
      <trkpt lat="45.49407" lon="6.73631">
        <ele>2676.3</ele>
        <time>2021-08-15T09:09:23Z</time>
      </trkpt>
      <trkpt lat="45.49407" lon="6.73631">
        <ele>2676.3</ele>
        <time>2021-08-15T09:09:24Z</time>
      </trkpt>
      <trkpt lat="45.49407" lon="6.73631">
        <ele>2676.3</ele>
        <time>2021-08-15T09:09:25Z</time>
      </trkpt>
      <trkpt lat="45.49407" lon="6.73631">
        <ele>2676.3</ele>
        <time>2021-08-15T09:09:26Z</time>
      </trkpt>
      <trkpt lat="45.49407" lon="6.73631">
        <ele>2676.3</ele>
        <time>2021-08-15T09:09:27Z</time>
      </trkpt>
      <trkpt lat="45.49407" lon="6.73631">
        <ele>2676.3</ele>
        <time>2021-08-15T09:09:28Z</time>
      </trkpt>
      <trkpt lat="45.49407" lon="6.73631">
        <ele>2676.3</ele>
        <time>2021-08-15T09:09:29Z</time>
      </trkpt>
      <trkpt lat="45.49407" lon="6.73631">
        <ele>2676.3</ele>
        <time>2021-08-15T09:09:30Z</time>
      </trkpt>
      <trkpt lat="45.49407" lon="6.73632">
        <ele>2676.3</ele>
        <time>2021-08-15T09:09:31Z</time>
      </trkpt>
      <trkpt lat="45.49407" lon="6.73632">
        <ele>2676.3</ele>
        <time>2021-08-15T09:09:32Z</time>
      </trkpt>
      <trkpt lat="45.49406" lon="6.73632">
        <ele>2676.3</ele>
        <time>2021-08-15T09:09:33Z</time>
      </trkpt>
      <trkpt lat="45.49406" lon="6.73632">
        <ele>2676.3</ele>
        <time>2021-08-15T09:09:34Z</time>
      </trkpt>
      <trkpt lat="45.49406" lon="6.73632">
        <ele>2676.3</ele>
        <time>2021-08-15T09:09:35Z</time>
      </trkpt>
      <trkpt lat="45.49406" lon="6.73632">
        <ele>2676.3</ele>
        <time>2021-08-15T09:09:36Z</time>
      </trkpt>
      <trkpt lat="45.49406" lon="6.73632">
        <ele>2676.3</ele>
        <time>2021-08-15T09:09:37Z</time>
      </trkpt>
      <trkpt lat="45.49406" lon="6.73633">
        <ele>2676.3</ele>
        <time>2021-08-15T09:09:38Z</time>
      </trkpt>
      <trkpt lat="45.49406" lon="6.73633">
        <ele>2676.3</ele>
        <time>2021-08-15T09:09:39Z</time>
      </trkpt>
      <trkpt lat="45.49406" lon="6.73633">
        <ele>2676.3</ele>
        <time>2021-08-15T09:09:40Z</time>
      </trkpt>
      <trkpt lat="45.49405" lon="6.73633">
        <ele>2676.3</ele>
        <time>2021-08-15T09:09:41Z</time>
      </trkpt>
      <trkpt lat="45.49405" lon="6.73633">
        <ele>2676.3</ele>
        <time>2021-08-15T09:09:42Z</time>
      </trkpt>
      <trkpt lat="45.49405" lon="6.73633">
        <ele>2676.3</ele>
        <time>2021-08-15T09:09:43Z</time>
      </trkpt>
      <trkpt lat="45.49405" lon="6.73633">
        <ele>2676.3</ele>
        <time>2021-08-15T09:09:44Z</time>
      </trkpt>
      <trkpt lat="45.49405" lon="6.73633">
        <ele>2676.3</ele>
        <time>2021-08-15T09:09:45Z</time>
      </trkpt>
      <trkpt lat="45.49405" lon="6.73633">
        <ele>2676.3</ele>
        <time>2021-08-15T09:09:46Z</time>
      </trkpt>
      <trkpt lat="45.49405" lon="6.73633">
        <ele>2676.3</ele>
        <time>2021-08-15T09:09:47Z</time>
      </trkpt>
      <trkpt lat="45.49405" lon="6.73633">
        <ele>2676.3</ele>
        <time>2021-08-15T09:09:48Z</time>
      </trkpt>
      <trkpt lat="45.49405" lon="6.73633">
        <ele>2676.3</ele>
        <time>2021-08-15T09:09:49Z</time>
      </trkpt>
      <trkpt lat="45.49405" lon="6.73633">
        <ele>2676.3</ele>
        <time>2021-08-15T09:09:50Z</time>
      </trkpt>
      <trkpt lat="45.49405" lon="6.73633">
        <ele>2676.3</ele>
        <time>2021-08-15T09:09:51Z</time>
      </trkpt>
      <trkpt lat="45.49405" lon="6.73633">
        <ele>2676.3</ele>
        <time>2021-08-15T09:09:52Z</time>
      </trkpt>
      <trkpt lat="45.49405" lon="6.73633">
        <ele>2676.3</ele>
        <time>2021-08-15T09:09:53Z</time>
      </trkpt>
      <trkpt lat="45.49405" lon="6.73633">
        <ele>2676.3</ele>
        <time>2021-08-15T09:09:54Z</time>
      </trkpt>
      <trkpt lat="45.49405" lon="6.73633">
        <ele>2676.3</ele>
        <time>2021-08-15T09:09:55Z</time>
      </trkpt>
      <trkpt lat="45.49405" lon="6.73633">
        <ele>2676.3</ele>
        <time>2021-08-15T09:09:56Z</time>
      </trkpt>
      <trkpt lat="45.49405" lon="6.73633">
        <ele>2676.3</ele>
        <time>2021-08-15T09:09:57Z</time>
      </trkpt>
      <trkpt lat="45.49405" lon="6.73633">
        <ele>2676.3</ele>
        <time>2021-08-15T09:09:58Z</time>
      </trkpt>
      <trkpt lat="45.49405" lon="6.73633">
        <ele>2676.3</ele>
        <time>2021-08-15T09:09:59Z</time>
      </trkpt>
      <trkpt lat="45.49405" lon="6.73633">
        <ele>2676.3</ele>
        <time>2021-08-15T09:10:00Z</time>
      </trkpt>
      <trkpt lat="45.49405" lon="6.73633">
        <ele>2676.3</ele>
        <time>2021-08-15T09:10:01Z</time>
      </trkpt>
      <trkpt lat="45.49405" lon="6.73633">
        <ele>2676.3</ele>
        <time>2021-08-15T09:10:02Z</time>
      </trkpt>
      <trkpt lat="45.49405" lon="6.73632">
        <ele>2676.3</ele>
        <time>2021-08-15T09:10:03Z</time>
      </trkpt>
      <trkpt lat="45.49405" lon="6.73632">
        <ele>2676.3</ele>
        <time>2021-08-15T09:10:04Z</time>
      </trkpt>
      <trkpt lat="45.49405" lon="6.73632">
        <ele>2676.3</ele>
        <time>2021-08-15T09:10:05Z</time>
      </trkpt>
      <trkpt lat="45.49405" lon="6.73632">
        <ele>2676.3</ele>
        <time>2021-08-15T09:10:06Z</time>
      </trkpt>
      <trkpt lat="45.49405" lon="6.73632">
        <ele>2676.3</ele>
        <time>2021-08-15T09:10:07Z</time>
      </trkpt>
      <trkpt lat="45.49405" lon="6.73632">
        <ele>2676.3</ele>
        <time>2021-08-15T09:10:08Z</time>
      </trkpt>
      <trkpt lat="45.49405" lon="6.73632">
        <ele>2676.3</ele>
        <time>2021-08-15T09:10:09Z</time>
      </trkpt>
      <trkpt lat="45.49405" lon="6.73632">
        <ele>2676.3</ele>
        <time>2021-08-15T09:10:10Z</time>
      </trkpt>
      <trkpt lat="45.49405" lon="6.73632">
        <ele>2676.3</ele>
        <time>2021-08-15T09:10:11Z</time>
      </trkpt>
      <trkpt lat="45.49405" lon="6.73632">
        <ele>2676.3</ele>
        <time>2021-08-15T09:10:12Z</time>
      </trkpt>
      <trkpt lat="45.49405" lon="6.73632">
        <ele>2676.3</ele>
        <time>2021-08-15T09:10:13Z</time>
      </trkpt>
      <trkpt lat="45.49405" lon="6.73632">
        <ele>2676.3</ele>
        <time>2021-08-15T09:10:14Z</time>
      </trkpt>
      <trkpt lat="45.49405" lon="6.73632">
        <ele>2676.3</ele>
        <time>2021-08-15T09:10:15Z</time>
      </trkpt>
      <trkpt lat="45.49405" lon="6.73632">
        <ele>2676.3</ele>
        <time>2021-08-15T09:10:16Z</time>
      </trkpt>
      <trkpt lat="45.49405" lon="6.73632">
        <ele>2676.3</ele>
        <time>2021-08-15T09:10:17Z</time>
      </trkpt>
      <trkpt lat="45.49405" lon="6.73632">
        <ele>2676.3</ele>
        <time>2021-08-15T09:10:18Z</time>
      </trkpt>
      <trkpt lat="45.49405" lon="6.73632">
        <ele>2676.3</ele>
        <time>2021-08-15T09:10:19Z</time>
      </trkpt>
      <trkpt lat="45.49405" lon="6.73632">
        <ele>2676.3</ele>
        <time>2021-08-15T09:10:20Z</time>
      </trkpt>
      <trkpt lat="45.49405" lon="6.73632">
        <ele>2676.3</ele>
        <time>2021-08-15T09:10:21Z</time>
      </trkpt>
      <trkpt lat="45.49405" lon="6.73632">
        <ele>2676.3</ele>
        <time>2021-08-15T09:10:22Z</time>
      </trkpt>
      <trkpt lat="45.49405" lon="6.73632">
        <ele>2676.3</ele>
        <time>2021-08-15T09:10:23Z</time>
      </trkpt>
      <trkpt lat="45.49405" lon="6.73632">
        <ele>2676.3</ele>
        <time>2021-08-15T09:10:24Z</time>
      </trkpt>
      <trkpt lat="45.49405" lon="6.73632">
        <ele>2676.3</ele>
        <time>2021-08-15T09:10:25Z</time>
      </trkpt>
      <trkpt lat="45.49405" lon="6.73632">
        <ele>2676.3</ele>
        <time>2021-08-15T09:10:26Z</time>
      </trkpt>
      <trkpt lat="45.49405" lon="6.73632">
        <ele>2676.3</ele>
        <time>2021-08-15T09:10:27Z</time>
      </trkpt>
      <trkpt lat="45.49405" lon="6.73632">
        <ele>2676.3</ele>
        <time>2021-08-15T09:10:28Z</time>
      </trkpt>
      <trkpt lat="45.49405" lon="6.73632">
        <ele>2676.3</ele>
        <time>2021-08-15T09:10:29Z</time>
      </trkpt>
      <trkpt lat="45.49405" lon="6.73632">
        <ele>2676.3</ele>
        <time>2021-08-15T09:10:30Z</time>
      </trkpt>
      <trkpt lat="45.49405" lon="6.73632">
        <ele>2676.3</ele>
        <time>2021-08-15T09:10:31Z</time>
      </trkpt>
      <trkpt lat="45.49405" lon="6.73632">
        <ele>2676.3</ele>
        <time>2021-08-15T09:10:32Z</time>
      </trkpt>
      <trkpt lat="45.49405" lon="6.73632">
        <ele>2676.3</ele>
        <time>2021-08-15T09:10:33Z</time>
      </trkpt>
      <trkpt lat="45.49405" lon="6.73632">
        <ele>2676.3</ele>
        <time>2021-08-15T09:10:34Z</time>
      </trkpt>
      <trkpt lat="45.49405" lon="6.73632">
        <ele>2676.3</ele>
        <time>2021-08-15T09:10:35Z</time>
      </trkpt>
      <trkpt lat="45.49405" lon="6.73632">
        <ele>2676.3</ele>
        <time>2021-08-15T09:10:36Z</time>
      </trkpt>
      <trkpt lat="45.49405" lon="6.73632">
        <ele>2676.3</ele>
        <time>2021-08-15T09:10:37Z</time>
      </trkpt>
      <trkpt lat="45.49405" lon="6.73632">
        <ele>2676.3</ele>
        <time>2021-08-15T09:10:38Z</time>
      </trkpt>
      <trkpt lat="45.49405" lon="6.73632">
        <ele>2676.3</ele>
        <time>2021-08-15T09:10:39Z</time>
      </trkpt>
      <trkpt lat="45.49405" lon="6.73632">
        <ele>2676.3</ele>
        <time>2021-08-15T09:10:40Z</time>
      </trkpt>
      <trkpt lat="45.49405" lon="6.73632">
        <ele>2676.3</ele>
        <time>2021-08-15T09:10:41Z</time>
      </trkpt>
      <trkpt lat="45.49405" lon="6.73632">
        <ele>2676.3</ele>
        <time>2021-08-15T09:10:42Z</time>
      </trkpt>
      <trkpt lat="45.49405" lon="6.73632">
        <ele>2676.3</ele>
        <time>2021-08-15T09:10:43Z</time>
      </trkpt>
      <trkpt lat="45.49405" lon="6.73632">
        <ele>2676.3</ele>
        <time>2021-08-15T09:10:44Z</time>
      </trkpt>
      <trkpt lat="45.49405" lon="6.73632">
        <ele>2676.3</ele>
        <time>2021-08-15T09:10:45Z</time>
      </trkpt>
      <trkpt lat="45.49405" lon="6.73632">
        <ele>2676.3</ele>
        <time>2021-08-15T09:10:46Z</time>
      </trkpt>
      <trkpt lat="45.49405" lon="6.73632">
        <ele>2676.3</ele>
        <time>2021-08-15T09:10:47Z</time>
      </trkpt>
      <trkpt lat="45.49405" lon="6.73632">
        <ele>2676.3</ele>
        <time>2021-08-15T09:10:48Z</time>
      </trkpt>
      <trkpt lat="45.49405" lon="6.73632">
        <ele>2676.3</ele>
        <time>2021-08-15T09:10:49Z</time>
      </trkpt>
      <trkpt lat="45.49405" lon="6.73632">
        <ele>2676.3</ele>
        <time>2021-08-15T09:10:50Z</time>
      </trkpt>
      <trkpt lat="45.49405" lon="6.73632">
        <ele>2676.3</ele>
        <time>2021-08-15T09:10:51Z</time>
      </trkpt>
      <trkpt lat="45.49405" lon="6.73632">
        <ele>2676.3</ele>
        <time>2021-08-15T09:10:52Z</time>
      </trkpt>
      <trkpt lat="45.49405" lon="6.73632">
        <ele>2676.3</ele>
        <time>2021-08-15T09:10:53Z</time>
      </trkpt>
      <trkpt lat="45.49405" lon="6.73632">
        <ele>2676.3</ele>
        <time>2021-08-15T09:10:54Z</time>
      </trkpt>
      <trkpt lat="45.49405" lon="6.73632">
        <ele>2676.3</ele>
        <time>2021-08-15T09:10:55Z</time>
      </trkpt>
      <trkpt lat="45.49405" lon="6.73632">
        <ele>2676.3</ele>
        <time>2021-08-15T09:10:56Z</time>
      </trkpt>
      <trkpt lat="45.49405" lon="6.73632">
        <ele>2676.3</ele>
        <time>2021-08-15T09:10:57Z</time>
      </trkpt>
      <trkpt lat="45.49405" lon="6.73632">
        <ele>2676.3</ele>
        <time>2021-08-15T09:10:58Z</time>
      </trkpt>
      <trkpt lat="45.49405" lon="6.73632">
        <ele>2676.3</ele>
        <time>2021-08-15T09:10:59Z</time>
      </trkpt>
      <trkpt lat="45.49405" lon="6.73632">
        <ele>2676.3</ele>
        <time>2021-08-15T09:11:00Z</time>
      </trkpt>
      <trkpt lat="45.49405" lon="6.73632">
        <ele>2676.3</ele>
        <time>2021-08-15T09:11:01Z</time>
      </trkpt>
      <trkpt lat="45.49405" lon="6.73632">
        <ele>2676.3</ele>
        <time>2021-08-15T09:11:02Z</time>
      </trkpt>
      <trkpt lat="45.49405" lon="6.73632">
        <ele>2676.3</ele>
        <time>2021-08-15T09:11:03Z</time>
      </trkpt>
      <trkpt lat="45.49405" lon="6.73632">
        <ele>2676.3</ele>
        <time>2021-08-15T09:11:04Z</time>
      </trkpt>
      <trkpt lat="45.49405" lon="6.73632">
        <ele>2676.3</ele>
        <time>2021-08-15T09:11:05Z</time>
      </trkpt>
      <trkpt lat="45.49405" lon="6.73632">
        <ele>2676.3</ele>
        <time>2021-08-15T09:11:06Z</time>
      </trkpt>
      <trkpt lat="45.49405" lon="6.73632">
        <ele>2676.3</ele>
        <time>2021-08-15T09:11:07Z</time>
      </trkpt>
      <trkpt lat="45.49405" lon="6.73632">
        <ele>2676.3</ele>
        <time>2021-08-15T09:11:08Z</time>
      </trkpt>
      <trkpt lat="45.49405" lon="6.73632">
        <ele>2676.3</ele>
        <time>2021-08-15T09:11:09Z</time>
      </trkpt>
      <trkpt lat="45.49405" lon="6.73632">
        <ele>2676.3</ele>
        <time>2021-08-15T09:11:10Z</time>
      </trkpt>
      <trkpt lat="45.49405" lon="6.73632">
        <ele>2676.3</ele>
        <time>2021-08-15T09:11:11Z</time>
      </trkpt>
      <trkpt lat="45.49405" lon="6.73632">
        <ele>2676.3</ele>
        <time>2021-08-15T09:11:12Z</time>
      </trkpt>
      <trkpt lat="45.49405" lon="6.73632">
        <ele>2676.3</ele>
        <time>2021-08-15T09:11:13Z</time>
      </trkpt>
      <trkpt lat="45.49405" lon="6.73632">
        <ele>2676.3</ele>
        <time>2021-08-15T09:11:14Z</time>
      </trkpt>
      <trkpt lat="45.49405" lon="6.73632">
        <ele>2676.3</ele>
        <time>2021-08-15T09:11:15Z</time>
      </trkpt>
      <trkpt lat="45.49405" lon="6.73632">
        <ele>2676.3</ele>
        <time>2021-08-15T09:11:16Z</time>
      </trkpt>
      <trkpt lat="45.49405" lon="6.73632">
        <ele>2676.3</ele>
        <time>2021-08-15T09:11:17Z</time>
      </trkpt>
      <trkpt lat="45.49405" lon="6.73632">
        <ele>2676.3</ele>
        <time>2021-08-15T09:11:18Z</time>
      </trkpt>
      <trkpt lat="45.49405" lon="6.73632">
        <ele>2676.3</ele>
        <time>2021-08-15T09:11:19Z</time>
      </trkpt>
      <trkpt lat="45.49405" lon="6.73632">
        <ele>2676.3</ele>
        <time>2021-08-15T09:11:20Z</time>
      </trkpt>
      <trkpt lat="45.49405" lon="6.73632">
        <ele>2676.3</ele>
        <time>2021-08-15T09:11:21Z</time>
      </trkpt>
      <trkpt lat="45.49405" lon="6.73632">
        <ele>2676.3</ele>
        <time>2021-08-15T09:11:22Z</time>
      </trkpt>
      <trkpt lat="45.49405" lon="6.73632">
        <ele>2676.3</ele>
        <time>2021-08-15T09:11:23Z</time>
      </trkpt>
      <trkpt lat="45.49405" lon="6.73632">
        <ele>2676.3</ele>
        <time>2021-08-15T09:11:24Z</time>
      </trkpt>
      <trkpt lat="45.49405" lon="6.73632">
        <ele>2676.3</ele>
        <time>2021-08-15T09:11:25Z</time>
      </trkpt>
      <trkpt lat="45.49405" lon="6.73632">
        <ele>2676.3</ele>
        <time>2021-08-15T09:11:26Z</time>
      </trkpt>
      <trkpt lat="45.49405" lon="6.73632">
        <ele>2676.3</ele>
        <time>2021-08-15T09:11:27Z</time>
      </trkpt>
      <trkpt lat="45.49405" lon="6.73632">
        <ele>2676.3</ele>
        <time>2021-08-15T09:11:28Z</time>
      </trkpt>
      <trkpt lat="45.49405" lon="6.73632">
        <ele>2676.3</ele>
        <time>2021-08-15T09:11:29Z</time>
      </trkpt>
      <trkpt lat="45.49405" lon="6.73632">
        <ele>2676.3</ele>
        <time>2021-08-15T09:11:30Z</time>
      </trkpt>
      <trkpt lat="45.49405" lon="6.73632">
        <ele>2676.3</ele>
        <time>2021-08-15T09:11:31Z</time>
      </trkpt>
      <trkpt lat="45.49405" lon="6.73632">
        <ele>2676.3</ele>
        <time>2021-08-15T09:11:32Z</time>
      </trkpt>
      <trkpt lat="45.49405" lon="6.73632">
        <ele>2676.3</ele>
        <time>2021-08-15T09:11:33Z</time>
      </trkpt>
      <trkpt lat="45.49406" lon="6.73632">
        <ele>2676.3</ele>
        <time>2021-08-15T09:11:34Z</time>
      </trkpt>
      <trkpt lat="45.49406" lon="6.73632">
        <ele>2676.3</ele>
        <time>2021-08-15T09:11:35Z</time>
      </trkpt>
      <trkpt lat="45.49406" lon="6.73632">
        <ele>2676.3</ele>
        <time>2021-08-15T09:11:36Z</time>
      </trkpt>
      <trkpt lat="45.49406" lon="6.73632">
        <ele>2676.3</ele>
        <time>2021-08-15T09:11:37Z</time>
      </trkpt>
      <trkpt lat="45.49406" lon="6.73632">
        <ele>2676.3</ele>
        <time>2021-08-15T09:11:38Z</time>
      </trkpt>
      <trkpt lat="45.49406" lon="6.73632">
        <ele>2676.3</ele>
        <time>2021-08-15T09:11:39Z</time>
      </trkpt>
      <trkpt lat="45.49406" lon="6.73632">
        <ele>2676.3</ele>
        <time>2021-08-15T09:11:40Z</time>
      </trkpt>
      <trkpt lat="45.49406" lon="6.73632">
        <ele>2676.3</ele>
        <time>2021-08-15T09:11:41Z</time>
      </trkpt>
      <trkpt lat="45.49406" lon="6.73632">
        <ele>2676.3</ele>
        <time>2021-08-15T09:11:42Z</time>
      </trkpt>
      <trkpt lat="45.49406" lon="6.73632">
        <ele>2676.3</ele>
        <time>2021-08-15T09:11:43Z</time>
      </trkpt>
      <trkpt lat="45.49406" lon="6.73632">
        <ele>2676.3</ele>
        <time>2021-08-15T09:11:44Z</time>
      </trkpt>
      <trkpt lat="45.49406" lon="6.73632">
        <ele>2676.3</ele>
        <time>2021-08-15T09:11:45Z</time>
      </trkpt>
      <trkpt lat="45.49406" lon="6.73632">
        <ele>2676.3</ele>
        <time>2021-08-15T09:11:46Z</time>
      </trkpt>
      <trkpt lat="45.49406" lon="6.73632">
        <ele>2676.3</ele>
        <time>2021-08-15T09:11:47Z</time>
      </trkpt>
      <trkpt lat="45.49406" lon="6.73632">
        <ele>2676.3</ele>
        <time>2021-08-15T09:11:48Z</time>
      </trkpt>
      <trkpt lat="45.49406" lon="6.73632">
        <ele>2676.3</ele>
        <time>2021-08-15T09:11:49Z</time>
      </trkpt>
      <trkpt lat="45.49406" lon="6.73632">
        <ele>2676.3</ele>
        <time>2021-08-15T09:11:50Z</time>
      </trkpt>
      <trkpt lat="45.49406" lon="6.73631">
        <ele>2676.3</ele>
        <time>2021-08-15T09:11:51Z</time>
      </trkpt>
      <trkpt lat="45.49406" lon="6.73631">
        <ele>2676.3</ele>
        <time>2021-08-15T09:11:52Z</time>
      </trkpt>
      <trkpt lat="45.49406" lon="6.73631">
        <ele>2676.3</ele>
        <time>2021-08-15T09:11:53Z</time>
      </trkpt>
      <trkpt lat="45.49406" lon="6.73631">
        <ele>2676.3</ele>
        <time>2021-08-15T09:11:54Z</time>
      </trkpt>
      <trkpt lat="45.49406" lon="6.73631">
        <ele>2676.3</ele>
        <time>2021-08-15T09:11:55Z</time>
      </trkpt>
      <trkpt lat="45.49406" lon="6.73631">
        <ele>2676.3</ele>
        <time>2021-08-15T09:11:56Z</time>
      </trkpt>
      <trkpt lat="45.49406" lon="6.73631">
        <ele>2676.3</ele>
        <time>2021-08-15T09:11:57Z</time>
      </trkpt>
      <trkpt lat="45.49406" lon="6.73631">
        <ele>2676.3</ele>
        <time>2021-08-15T09:11:58Z</time>
      </trkpt>
      <trkpt lat="45.49406" lon="6.73631">
        <ele>2676.3</ele>
        <time>2021-08-15T09:11:59Z</time>
      </trkpt>
      <trkpt lat="45.49406" lon="6.73631">
        <ele>2676.3</ele>
        <time>2021-08-15T09:12:00Z</time>
      </trkpt>
      <trkpt lat="45.49406" lon="6.73631">
        <ele>2676.3</ele>
        <time>2021-08-15T09:12:01Z</time>
      </trkpt>
      <trkpt lat="45.49406" lon="6.73631">
        <ele>2676.3</ele>
        <time>2021-08-15T09:12:02Z</time>
      </trkpt>
      <trkpt lat="45.49406" lon="6.73631">
        <ele>2676.3</ele>
        <time>2021-08-15T09:12:03Z</time>
      </trkpt>
      <trkpt lat="45.49406" lon="6.73631">
        <ele>2676.3</ele>
        <time>2021-08-15T09:12:04Z</time>
      </trkpt>
      <trkpt lat="45.49406" lon="6.73631">
        <ele>2676.3</ele>
        <time>2021-08-15T09:12:05Z</time>
      </trkpt>
      <trkpt lat="45.49406" lon="6.73631">
        <ele>2676.3</ele>
        <time>2021-08-15T09:12:06Z</time>
      </trkpt>
      <trkpt lat="45.49406" lon="6.73631">
        <ele>2676.3</ele>
        <time>2021-08-15T09:12:07Z</time>
      </trkpt>
      <trkpt lat="45.49406" lon="6.73631">
        <ele>2676.3</ele>
        <time>2021-08-15T09:12:08Z</time>
      </trkpt>
      <trkpt lat="45.49406" lon="6.7363">
        <ele>2676.3</ele>
        <time>2021-08-15T09:12:09Z</time>
      </trkpt>
      <trkpt lat="45.49406" lon="6.7363">
        <ele>2676.3</ele>
        <time>2021-08-15T09:12:10Z</time>
      </trkpt>
      <trkpt lat="45.49406" lon="6.7363">
        <ele>2676.3</ele>
        <time>2021-08-15T09:12:11Z</time>
      </trkpt>
      <trkpt lat="45.49406" lon="6.7363">
        <ele>2676.3</ele>
        <time>2021-08-15T09:12:12Z</time>
      </trkpt>
      <trkpt lat="45.49406" lon="6.7363">
        <ele>2676.3</ele>
        <time>2021-08-15T09:12:13Z</time>
      </trkpt>
      <trkpt lat="45.49406" lon="6.7363">
        <ele>2676.3</ele>
        <time>2021-08-15T09:12:14Z</time>
      </trkpt>
      <trkpt lat="45.49406" lon="6.7363">
        <ele>2676.3</ele>
        <time>2021-08-15T09:12:15Z</time>
      </trkpt>
      <trkpt lat="45.49406" lon="6.7363">
        <ele>2676.3</ele>
        <time>2021-08-15T09:12:16Z</time>
      </trkpt>
      <trkpt lat="45.49406" lon="6.73629">
        <ele>2676.3</ele>
        <time>2021-08-15T09:12:17Z</time>
      </trkpt>
      <trkpt lat="45.49406" lon="6.73629">
        <ele>2677.2</ele>
        <time>2021-08-15T09:12:18Z</time>
      </trkpt>
      <trkpt lat="45.49406" lon="6.73629">
        <ele>2677.2</ele>
        <time>2021-08-15T09:12:19Z</time>
      </trkpt>
      <trkpt lat="45.49406" lon="6.73629">
        <ele>2677.2</ele>
        <time>2021-08-15T09:12:20Z</time>
      </trkpt>
      <trkpt lat="45.49406" lon="6.73628">
        <ele>2677.2</ele>
        <time>2021-08-15T09:12:21Z</time>
      </trkpt>
      <trkpt lat="45.49406" lon="6.73628">
        <ele>2677.2</ele>
        <time>2021-08-15T09:12:22Z</time>
      </trkpt>
      <trkpt lat="45.49405" lon="6.73628">
        <ele>2677.2</ele>
        <time>2021-08-15T09:12:23Z</time>
      </trkpt>
      <trkpt lat="45.49405" lon="6.73627">
        <ele>2677.2</ele>
        <time>2021-08-15T09:12:24Z</time>
      </trkpt>
      <trkpt lat="45.49405" lon="6.73627">
        <ele>2677.2</ele>
        <time>2021-08-15T09:12:25Z</time>
      </trkpt>
      <trkpt lat="45.49405" lon="6.73626">
        <ele>2677.2</ele>
        <time>2021-08-15T09:12:26Z</time>
      </trkpt>
      <trkpt lat="45.49405" lon="6.73626">
        <ele>2677.2</ele>
        <time>2021-08-15T09:12:27Z</time>
      </trkpt>
      <trkpt lat="45.49404" lon="6.73625">
        <ele>2678.4</ele>
        <time>2021-08-15T09:12:28Z</time>
      </trkpt>
      <trkpt lat="45.49404" lon="6.73625">
        <ele>2679.3</ele>
        <time>2021-08-15T09:12:29Z</time>
      </trkpt>
      <trkpt lat="45.49404" lon="6.73624">
        <ele>2679.3</ele>
        <time>2021-08-15T09:12:30Z</time>
      </trkpt>
      <trkpt lat="45.49404" lon="6.73623">
        <ele>2679.3</ele>
        <time>2021-08-15T09:12:31Z</time>
      </trkpt>
      <trkpt lat="45.49403" lon="6.73623">
        <ele>2679.3</ele>
        <time>2021-08-15T09:12:32Z</time>
      </trkpt>
      <trkpt lat="45.49403" lon="6.73622">
        <ele>2679.3</ele>
        <time>2021-08-15T09:12:33Z</time>
      </trkpt>
      <trkpt lat="45.49403" lon="6.73621">
        <ele>2679.3</ele>
        <time>2021-08-15T09:12:34Z</time>
      </trkpt>
      <trkpt lat="45.49402" lon="6.7362">
        <ele>2680.1</ele>
        <time>2021-08-15T09:12:35Z</time>
      </trkpt>
      <trkpt lat="45.49402" lon="6.7362">
        <ele>2680.1</ele>
        <time>2021-08-15T09:12:36Z</time>
      </trkpt>
      <trkpt lat="45.49401" lon="6.73619">
        <ele>2681.2</ele>
        <time>2021-08-15T09:12:37Z</time>
      </trkpt>
      <trkpt lat="45.49401" lon="6.73618">
        <ele>2681.2</ele>
        <time>2021-08-15T09:12:38Z</time>
      </trkpt>
      <trkpt lat="45.49401" lon="6.73617">
        <ele>2681.2</ele>
        <time>2021-08-15T09:12:39Z</time>
      </trkpt>
      <trkpt lat="45.494" lon="6.73616">
        <ele>2681.9</ele>
        <time>2021-08-15T09:12:40Z</time>
      </trkpt>
      <trkpt lat="45.494" lon="6.73615">
        <ele>2681.9</ele>
        <time>2021-08-15T09:12:41Z</time>
      </trkpt>
      <trkpt lat="45.494" lon="6.73614">
        <ele>2681.9</ele>
        <time>2021-08-15T09:12:42Z</time>
      </trkpt>
      <trkpt lat="45.49399" lon="6.73613">
        <ele>2681.9</ele>
        <time>2021-08-15T09:12:43Z</time>
      </trkpt>
      <trkpt lat="45.49399" lon="6.73612">
        <ele>2681.9</ele>
        <time>2021-08-15T09:12:44Z</time>
      </trkpt>
      <trkpt lat="45.49398" lon="6.73611">
        <ele>2683.6</ele>
        <time>2021-08-15T09:12:45Z</time>
      </trkpt>
      <trkpt lat="45.49398" lon="6.7361">
        <ele>2683.6</ele>
        <time>2021-08-15T09:12:46Z</time>
      </trkpt>
      <trkpt lat="45.49398" lon="6.73609">
        <ele>2683.6</ele>
        <time>2021-08-15T09:12:47Z</time>
      </trkpt>
      <trkpt lat="45.49397" lon="6.73608">
        <ele>2683.6</ele>
        <time>2021-08-15T09:12:48Z</time>
      </trkpt>
      <trkpt lat="45.49397" lon="6.73607">
        <ele>2684.2</ele>
        <time>2021-08-15T09:12:49Z</time>
      </trkpt>
      <trkpt lat="45.49397" lon="6.73606">
        <ele>2684.2</ele>
        <time>2021-08-15T09:12:50Z</time>
      </trkpt>
      <trkpt lat="45.49397" lon="6.73605">
        <ele>2684.2</ele>
        <time>2021-08-15T09:12:51Z</time>
      </trkpt>
      <trkpt lat="45.49396" lon="6.73603">
        <ele>2684.6</ele>
        <time>2021-08-15T09:12:52Z</time>
      </trkpt>
      <trkpt lat="45.49396" lon="6.73602">
        <ele>2684.6</ele>
        <time>2021-08-15T09:12:53Z</time>
      </trkpt>
      <trkpt lat="45.49396" lon="6.73601">
        <ele>2684.6</ele>
        <time>2021-08-15T09:12:54Z</time>
      </trkpt>
      <trkpt lat="45.49395" lon="6.736">
        <ele>2685.6</ele>
        <time>2021-08-15T09:12:55Z</time>
      </trkpt>
      <trkpt lat="45.49395" lon="6.73599">
        <ele>2686</ele>
        <time>2021-08-15T09:12:56Z</time>
      </trkpt>
      <trkpt lat="45.49394" lon="6.73597">
        <ele>2686</ele>
        <time>2021-08-15T09:12:57Z</time>
      </trkpt>
      <trkpt lat="45.49394" lon="6.73596">
        <ele>2686</ele>
        <time>2021-08-15T09:12:58Z</time>
      </trkpt>
      <trkpt lat="45.49394" lon="6.73595">
        <ele>2686.3</ele>
        <time>2021-08-15T09:12:59Z</time>
      </trkpt>
      <trkpt lat="45.49393" lon="6.73594">
        <ele>2686.3</ele>
        <time>2021-08-15T09:13:00Z</time>
      </trkpt>
      <trkpt lat="45.49393" lon="6.73593">
        <ele>2686.3</ele>
        <time>2021-08-15T09:13:01Z</time>
      </trkpt>
      <trkpt lat="45.49393" lon="6.73592">
        <ele>2686.3</ele>
        <time>2021-08-15T09:13:02Z</time>
      </trkpt>
      <trkpt lat="45.49392" lon="6.73591">
        <ele>2687.6</ele>
        <time>2021-08-15T09:13:03Z</time>
      </trkpt>
      <trkpt lat="45.49392" lon="6.7359">
        <ele>2687.6</ele>
        <time>2021-08-15T09:13:04Z</time>
      </trkpt>
      <trkpt lat="45.49392" lon="6.73589">
        <ele>2687.6</ele>
        <time>2021-08-15T09:13:05Z</time>
      </trkpt>
      <trkpt lat="45.49392" lon="6.73589">
        <ele>2687.6</ele>
        <time>2021-08-15T09:13:06Z</time>
      </trkpt>
      <trkpt lat="45.49391" lon="6.73588">
        <ele>2687.6</ele>
        <time>2021-08-15T09:13:07Z</time>
      </trkpt>
      <trkpt lat="45.49391" lon="6.73588">
        <ele>2687.6</ele>
        <time>2021-08-15T09:13:08Z</time>
      </trkpt>
      <trkpt lat="45.49391" lon="6.73587">
        <ele>2687.6</ele>
        <time>2021-08-15T09:13:09Z</time>
      </trkpt>
      <trkpt lat="45.49391" lon="6.73587">
        <ele>2687.6</ele>
        <time>2021-08-15T09:13:10Z</time>
      </trkpt>
      <trkpt lat="45.49391" lon="6.73587">
        <ele>2687.6</ele>
        <time>2021-08-15T09:13:11Z</time>
      </trkpt>
      <trkpt lat="45.4939" lon="6.73587">
        <ele>2687.6</ele>
        <time>2021-08-15T09:13:12Z</time>
      </trkpt>
      <trkpt lat="45.4939" lon="6.73586">
        <ele>2687.6</ele>
        <time>2021-08-15T09:13:13Z</time>
      </trkpt>
      <trkpt lat="45.4939" lon="6.73586">
        <ele>2687.8</ele>
        <time>2021-08-15T09:13:14Z</time>
      </trkpt>
      <trkpt lat="45.49389" lon="6.73586">
        <ele>2688.7</ele>
        <time>2021-08-15T09:13:15Z</time>
      </trkpt>
      <trkpt lat="45.49389" lon="6.73586">
        <ele>2688.7</ele>
        <time>2021-08-15T09:13:16Z</time>
      </trkpt>
      <trkpt lat="45.49388" lon="6.73586">
        <ele>2688.7</ele>
        <time>2021-08-15T09:13:17Z</time>
      </trkpt>
      <trkpt lat="45.49388" lon="6.73585">
        <ele>2688.7</ele>
        <time>2021-08-15T09:13:18Z</time>
      </trkpt>
      <trkpt lat="45.49387" lon="6.73585">
        <ele>2688.7</ele>
        <time>2021-08-15T09:13:19Z</time>
      </trkpt>
      <trkpt lat="45.49386" lon="6.73585">
        <ele>2688.7</ele>
        <time>2021-08-15T09:13:20Z</time>
      </trkpt>
      <trkpt lat="45.49386" lon="6.73585">
        <ele>2689.6</ele>
        <time>2021-08-15T09:13:21Z</time>
      </trkpt>
      <trkpt lat="45.49385" lon="6.73584">
        <ele>2689.6</ele>
        <time>2021-08-15T09:13:22Z</time>
      </trkpt>
      <trkpt lat="45.49384" lon="6.73584">
        <ele>2689.6</ele>
        <time>2021-08-15T09:13:23Z</time>
      </trkpt>
      <trkpt lat="45.49383" lon="6.73584">
        <ele>2689.6</ele>
        <time>2021-08-15T09:13:24Z</time>
      </trkpt>
      <trkpt lat="45.49383" lon="6.73584">
        <ele>2690.4</ele>
        <time>2021-08-15T09:13:25Z</time>
      </trkpt>
      <trkpt lat="45.49382" lon="6.73584">
        <ele>2690.4</ele>
        <time>2021-08-15T09:13:26Z</time>
      </trkpt>
      <trkpt lat="45.49381" lon="6.73584">
        <ele>2690.4</ele>
        <time>2021-08-15T09:13:27Z</time>
      </trkpt>
      <trkpt lat="45.49381" lon="6.73584">
        <ele>2690.4</ele>
        <time>2021-08-15T09:13:28Z</time>
      </trkpt>
      <trkpt lat="45.4938" lon="6.73584">
        <ele>2691.2</ele>
        <time>2021-08-15T09:13:29Z</time>
      </trkpt>
      <trkpt lat="45.49379" lon="6.73585">
        <ele>2691.2</ele>
        <time>2021-08-15T09:13:30Z</time>
      </trkpt>
      <trkpt lat="45.49379" lon="6.73585">
        <ele>2691.2</ele>
        <time>2021-08-15T09:13:31Z</time>
      </trkpt>
      <trkpt lat="45.49378" lon="6.73585">
        <ele>2691.2</ele>
        <time>2021-08-15T09:13:32Z</time>
      </trkpt>
      <trkpt lat="45.49377" lon="6.73585">
        <ele>2691.2</ele>
        <time>2021-08-15T09:13:33Z</time>
      </trkpt>
      <trkpt lat="45.49377" lon="6.73585">
        <ele>2692</ele>
        <time>2021-08-15T09:13:34Z</time>
      </trkpt>
      <trkpt lat="45.49377" lon="6.73585">
        <ele>2692</ele>
        <time>2021-08-15T09:13:35Z</time>
      </trkpt>
      <trkpt lat="45.49376" lon="6.73585">
        <ele>2692</ele>
        <time>2021-08-15T09:13:36Z</time>
      </trkpt>
      <trkpt lat="45.49376" lon="6.73585">
        <ele>2692</ele>
        <time>2021-08-15T09:13:37Z</time>
      </trkpt>
      <trkpt lat="45.49375" lon="6.73585">
        <ele>2692</ele>
        <time>2021-08-15T09:13:38Z</time>
      </trkpt>
      <trkpt lat="45.49375" lon="6.73585">
        <ele>2692</ele>
        <time>2021-08-15T09:13:39Z</time>
      </trkpt>
      <trkpt lat="45.49375" lon="6.73585">
        <ele>2692</ele>
        <time>2021-08-15T09:13:40Z</time>
      </trkpt>
      <trkpt lat="45.49375" lon="6.73586">
        <ele>2692</ele>
        <time>2021-08-15T09:13:41Z</time>
      </trkpt>
      <trkpt lat="45.49374" lon="6.73586">
        <ele>2692.5</ele>
        <time>2021-08-15T09:13:42Z</time>
      </trkpt>
      <trkpt lat="45.49374" lon="6.73587">
        <ele>2692.5</ele>
        <time>2021-08-15T09:13:43Z</time>
      </trkpt>
      <trkpt lat="45.49374" lon="6.73588">
        <ele>2692.5</ele>
        <time>2021-08-15T09:13:44Z</time>
      </trkpt>
      <trkpt lat="45.49373" lon="6.73589">
        <ele>2692.5</ele>
        <time>2021-08-15T09:13:45Z</time>
      </trkpt>
      <trkpt lat="45.49373" lon="6.7359">
        <ele>2692.5</ele>
        <time>2021-08-15T09:13:46Z</time>
      </trkpt>
      <trkpt lat="45.49373" lon="6.73591">
        <ele>2692.3</ele>
        <time>2021-08-15T09:13:47Z</time>
      </trkpt>
      <trkpt lat="45.49372" lon="6.73592">
        <ele>2692.3</ele>
        <time>2021-08-15T09:13:48Z</time>
      </trkpt>
      <trkpt lat="45.49371" lon="6.73593">
        <ele>2692.3</ele>
        <time>2021-08-15T09:13:49Z</time>
      </trkpt>
      <trkpt lat="45.49371" lon="6.73594">
        <ele>2693</ele>
        <time>2021-08-15T09:13:50Z</time>
      </trkpt>
      <trkpt lat="45.4937" lon="6.73595">
        <ele>2693</ele>
        <time>2021-08-15T09:13:51Z</time>
      </trkpt>
      <trkpt lat="45.4937" lon="6.73596">
        <ele>2692.8</ele>
        <time>2021-08-15T09:13:52Z</time>
      </trkpt>
      <trkpt lat="45.49369" lon="6.73597">
        <ele>2692.8</ele>
        <time>2021-08-15T09:13:53Z</time>
      </trkpt>
      <trkpt lat="45.49368" lon="6.73597">
        <ele>2693.5</ele>
        <time>2021-08-15T09:13:54Z</time>
      </trkpt>
      <trkpt lat="45.49368" lon="6.73598">
        <ele>2693.5</ele>
        <time>2021-08-15T09:13:55Z</time>
      </trkpt>
      <trkpt lat="45.49367" lon="6.73599">
        <ele>2693.5</ele>
        <time>2021-08-15T09:13:56Z</time>
      </trkpt>
      <trkpt lat="45.49366" lon="6.736">
        <ele>2693.3</ele>
        <time>2021-08-15T09:13:57Z</time>
      </trkpt>
      <trkpt lat="45.49366" lon="6.73601">
        <ele>2693.3</ele>
        <time>2021-08-15T09:13:58Z</time>
      </trkpt>
      <trkpt lat="45.49365" lon="6.73602">
        <ele>2694.1</ele>
        <time>2021-08-15T09:13:59Z</time>
      </trkpt>
      <trkpt lat="45.49364" lon="6.73603">
        <ele>2694.1</ele>
        <time>2021-08-15T09:14:00Z</time>
      </trkpt>
      <trkpt lat="45.49364" lon="6.73604">
        <ele>2693.8</ele>
        <time>2021-08-15T09:14:01Z</time>
      </trkpt>
      <trkpt lat="45.49363" lon="6.73605">
        <ele>2693.8</ele>
        <time>2021-08-15T09:14:02Z</time>
      </trkpt>
      <trkpt lat="45.49363" lon="6.73606">
        <ele>2693.8</ele>
        <time>2021-08-15T09:14:03Z</time>
      </trkpt>
      <trkpt lat="45.49362" lon="6.73607">
        <ele>2694.6</ele>
        <time>2021-08-15T09:14:04Z</time>
      </trkpt>
      <trkpt lat="45.49362" lon="6.73608">
        <ele>2694.3</ele>
        <time>2021-08-15T09:14:05Z</time>
      </trkpt>
      <trkpt lat="45.49361" lon="6.73609">
        <ele>2694.3</ele>
        <time>2021-08-15T09:14:06Z</time>
      </trkpt>
      <trkpt lat="45.49361" lon="6.7361">
        <ele>2694.3</ele>
        <time>2021-08-15T09:14:07Z</time>
      </trkpt>
      <trkpt lat="45.4936" lon="6.73611">
        <ele>2694.3</ele>
        <time>2021-08-15T09:14:08Z</time>
      </trkpt>
      <trkpt lat="45.4936" lon="6.73613">
        <ele>2694</ele>
        <time>2021-08-15T09:14:09Z</time>
      </trkpt>
      <trkpt lat="45.4936" lon="6.73614">
        <ele>2694</ele>
        <time>2021-08-15T09:14:10Z</time>
      </trkpt>
      <trkpt lat="45.49359" lon="6.73615">
        <ele>2694.8</ele>
        <time>2021-08-15T09:14:11Z</time>
      </trkpt>
      <trkpt lat="45.49359" lon="6.73616">
        <ele>2694.8</ele>
        <time>2021-08-15T09:14:12Z</time>
      </trkpt>
      <trkpt lat="45.49359" lon="6.73618">
        <ele>2694.4</ele>
        <time>2021-08-15T09:14:13Z</time>
      </trkpt>
      <trkpt lat="45.49359" lon="6.73619">
        <ele>2694.4</ele>
        <time>2021-08-15T09:14:14Z</time>
      </trkpt>
      <trkpt lat="45.49358" lon="6.7362">
        <ele>2694.4</ele>
        <time>2021-08-15T09:14:15Z</time>
      </trkpt>
      <trkpt lat="45.49358" lon="6.73622">
        <ele>2694</ele>
        <time>2021-08-15T09:14:16Z</time>
      </trkpt>
      <trkpt lat="45.49358" lon="6.73623">
        <ele>2694</ele>
        <time>2021-08-15T09:14:17Z</time>
      </trkpt>
      <trkpt lat="45.49358" lon="6.73624">
        <ele>2694</ele>
        <time>2021-08-15T09:14:18Z</time>
      </trkpt>
      <trkpt lat="45.49358" lon="6.73626">
        <ele>2693.5</ele>
        <time>2021-08-15T09:14:19Z</time>
      </trkpt>
      <trkpt lat="45.49357" lon="6.73627">
        <ele>2693.5</ele>
        <time>2021-08-15T09:14:20Z</time>
      </trkpt>
      <trkpt lat="45.49357" lon="6.73628">
        <ele>2693.5</ele>
        <time>2021-08-15T09:14:21Z</time>
      </trkpt>
      <trkpt lat="45.49357" lon="6.73629">
        <ele>2693.5</ele>
        <time>2021-08-15T09:14:22Z</time>
      </trkpt>
      <trkpt lat="45.49357" lon="6.7363">
        <ele>2693</ele>
        <time>2021-08-15T09:14:23Z</time>
      </trkpt>
      <trkpt lat="45.49357" lon="6.73632">
        <ele>2693</ele>
        <time>2021-08-15T09:14:24Z</time>
      </trkpt>
      <trkpt lat="45.49356" lon="6.73633">
        <ele>2693</ele>
        <time>2021-08-15T09:14:25Z</time>
      </trkpt>
      <trkpt lat="45.49356" lon="6.73634">
        <ele>2693.3</ele>
        <time>2021-08-15T09:14:26Z</time>
      </trkpt>
      <trkpt lat="45.49356" lon="6.73635">
        <ele>2693.3</ele>
        <time>2021-08-15T09:14:27Z</time>
      </trkpt>
      <trkpt lat="45.49356" lon="6.73636">
        <ele>2693.3</ele>
        <time>2021-08-15T09:14:28Z</time>
      </trkpt>
      <trkpt lat="45.49355" lon="6.73637">
        <ele>2693.3</ele>
        <time>2021-08-15T09:14:29Z</time>
      </trkpt>
      <trkpt lat="45.49355" lon="6.73637">
        <ele>2693.3</ele>
        <time>2021-08-15T09:14:30Z</time>
      </trkpt>
      <trkpt lat="45.49355" lon="6.73638">
        <ele>2692.7</ele>
        <time>2021-08-15T09:14:31Z</time>
      </trkpt>
      <trkpt lat="45.49355" lon="6.73639">
        <ele>2692.7</ele>
        <time>2021-08-15T09:14:32Z</time>
      </trkpt>
      <trkpt lat="45.49354" lon="6.7364">
        <ele>2692.7</ele>
        <time>2021-08-15T09:14:33Z</time>
      </trkpt>
      <trkpt lat="45.49354" lon="6.73641">
        <ele>2692.7</ele>
        <time>2021-08-15T09:14:34Z</time>
      </trkpt>
      <trkpt lat="45.49354" lon="6.73642">
        <ele>2692.7</ele>
        <time>2021-08-15T09:14:35Z</time>
      </trkpt>
      <trkpt lat="45.49354" lon="6.73643">
        <ele>2692.2</ele>
        <time>2021-08-15T09:14:36Z</time>
      </trkpt>
      <trkpt lat="45.49353" lon="6.73644">
        <ele>2693.1</ele>
        <time>2021-08-15T09:14:37Z</time>
      </trkpt>
      <trkpt lat="45.49353" lon="6.73645">
        <ele>2693.1</ele>
        <time>2021-08-15T09:14:38Z</time>
      </trkpt>
      <trkpt lat="45.49353" lon="6.73645">
        <ele>2693.1</ele>
        <time>2021-08-15T09:14:39Z</time>
      </trkpt>
      <trkpt lat="45.49353" lon="6.73646">
        <ele>2693.1</ele>
        <time>2021-08-15T09:14:40Z</time>
      </trkpt>
      <trkpt lat="45.49352" lon="6.73647">
        <ele>2692.5</ele>
        <time>2021-08-15T09:14:41Z</time>
      </trkpt>
      <trkpt lat="45.49352" lon="6.73648">
        <ele>2692.5</ele>
        <time>2021-08-15T09:14:42Z</time>
      </trkpt>
      <trkpt lat="45.49352" lon="6.7365">
        <ele>2692.5</ele>
        <time>2021-08-15T09:14:43Z</time>
      </trkpt>
      <trkpt lat="45.49352" lon="6.73651">
        <ele>2692.5</ele>
        <time>2021-08-15T09:14:44Z</time>
      </trkpt>
      <trkpt lat="45.49352" lon="6.73652">
        <ele>2691.9</ele>
        <time>2021-08-15T09:14:45Z</time>
      </trkpt>
      <trkpt lat="45.49352" lon="6.73653">
        <ele>2691.9</ele>
        <time>2021-08-15T09:14:46Z</time>
      </trkpt>
      <trkpt lat="45.49352" lon="6.73654">
        <ele>2691.9</ele>
        <time>2021-08-15T09:14:47Z</time>
      </trkpt>
      <trkpt lat="45.49352" lon="6.73656">
        <ele>2691.2</ele>
        <time>2021-08-15T09:14:48Z</time>
      </trkpt>
      <trkpt lat="45.49351" lon="6.73657">
        <ele>2691.2</ele>
        <time>2021-08-15T09:14:49Z</time>
      </trkpt>
      <trkpt lat="45.49351" lon="6.73658">
        <ele>2691.2</ele>
        <time>2021-08-15T09:14:50Z</time>
      </trkpt>
      <trkpt lat="45.49351" lon="6.73659">
        <ele>2691.2</ele>
        <time>2021-08-15T09:14:51Z</time>
      </trkpt>
      <trkpt lat="45.49351" lon="6.7366">
        <ele>2690.3</ele>
        <time>2021-08-15T09:14:52Z</time>
      </trkpt>
      <trkpt lat="45.49351" lon="6.73661">
        <ele>2690.3</ele>
        <time>2021-08-15T09:14:53Z</time>
      </trkpt>
      <trkpt lat="45.49351" lon="6.73662">
        <ele>2690.3</ele>
        <time>2021-08-15T09:14:54Z</time>
      </trkpt>
      <trkpt lat="45.49351" lon="6.73663">
        <ele>2690.3</ele>
        <time>2021-08-15T09:14:55Z</time>
      </trkpt>
      <trkpt lat="45.49351" lon="6.73663">
        <ele>2690.3</ele>
        <time>2021-08-15T09:14:56Z</time>
      </trkpt>
      <trkpt lat="45.49351" lon="6.73664">
        <ele>2690.3</ele>
        <time>2021-08-15T09:14:57Z</time>
      </trkpt>
      <trkpt lat="45.49351" lon="6.73664">
        <ele>2689.3</ele>
        <time>2021-08-15T09:14:58Z</time>
      </trkpt>
      <trkpt lat="45.4935" lon="6.73664">
        <ele>2689.3</ele>
        <time>2021-08-15T09:14:59Z</time>
      </trkpt>
      <trkpt lat="45.4935" lon="6.73664">
        <ele>2690.3</ele>
        <time>2021-08-15T09:15:00Z</time>
      </trkpt>
      <trkpt lat="45.4935" lon="6.73664">
        <ele>2690.3</ele>
        <time>2021-08-15T09:15:01Z</time>
      </trkpt>
      <trkpt lat="45.4935" lon="6.73664">
        <ele>2690.3</ele>
        <time>2021-08-15T09:15:02Z</time>
      </trkpt>
      <trkpt lat="45.4935" lon="6.73664">
        <ele>2690.3</ele>
        <time>2021-08-15T09:15:03Z</time>
      </trkpt>
      <trkpt lat="45.4935" lon="6.73664">
        <ele>2690.3</ele>
        <time>2021-08-15T09:15:04Z</time>
      </trkpt>
      <trkpt lat="45.4935" lon="6.73664">
        <ele>2690.3</ele>
        <time>2021-08-15T09:15:05Z</time>
      </trkpt>
      <trkpt lat="45.4935" lon="6.73664">
        <ele>2690.3</ele>
        <time>2021-08-15T09:15:06Z</time>
      </trkpt>
      <trkpt lat="45.4935" lon="6.73664">
        <ele>2690.3</ele>
        <time>2021-08-15T09:15:07Z</time>
      </trkpt>
      <trkpt lat="45.4935" lon="6.73664">
        <ele>2690.3</ele>
        <time>2021-08-15T09:15:08Z</time>
      </trkpt>
      <trkpt lat="45.4935" lon="6.73664">
        <ele>2690.3</ele>
        <time>2021-08-15T09:15:09Z</time>
      </trkpt>
      <trkpt lat="45.4935" lon="6.73664">
        <ele>2690.3</ele>
        <time>2021-08-15T09:15:10Z</time>
      </trkpt>
      <trkpt lat="45.4935" lon="6.73664">
        <ele>2690.3</ele>
        <time>2021-08-15T09:15:11Z</time>
      </trkpt>
      <trkpt lat="45.4935" lon="6.73664">
        <ele>2690.3</ele>
        <time>2021-08-15T09:15:12Z</time>
      </trkpt>
      <trkpt lat="45.4935" lon="6.73664">
        <ele>2690.3</ele>
        <time>2021-08-15T09:15:13Z</time>
      </trkpt>
      <trkpt lat="45.4935" lon="6.73664">
        <ele>2690.3</ele>
        <time>2021-08-15T09:15:14Z</time>
      </trkpt>
      <trkpt lat="45.4935" lon="6.73664">
        <ele>2690.3</ele>
        <time>2021-08-15T09:15:15Z</time>
      </trkpt>
      <trkpt lat="45.4935" lon="6.73664">
        <ele>2690.3</ele>
        <time>2021-08-15T09:15:16Z</time>
      </trkpt>
      <trkpt lat="45.4935" lon="6.73664">
        <ele>2690.3</ele>
        <time>2021-08-15T09:15:17Z</time>
      </trkpt>
      <trkpt lat="45.4935" lon="6.73664">
        <ele>2690.3</ele>
        <time>2021-08-15T09:15:18Z</time>
      </trkpt>
      <trkpt lat="45.4935" lon="6.73664">
        <ele>2690.3</ele>
        <time>2021-08-15T09:15:19Z</time>
      </trkpt>
      <trkpt lat="45.4935" lon="6.73664">
        <ele>2690.3</ele>
        <time>2021-08-15T09:15:20Z</time>
      </trkpt>
      <trkpt lat="45.4935" lon="6.73664">
        <ele>2690.3</ele>
        <time>2021-08-15T09:15:21Z</time>
      </trkpt>
      <trkpt lat="45.4935" lon="6.73664">
        <ele>2690.3</ele>
        <time>2021-08-15T09:15:22Z</time>
      </trkpt>
      <trkpt lat="45.4935" lon="6.73664">
        <ele>2690.3</ele>
        <time>2021-08-15T09:15:23Z</time>
      </trkpt>
      <trkpt lat="45.4935" lon="6.73664">
        <ele>2690.3</ele>
        <time>2021-08-15T09:15:24Z</time>
      </trkpt>
      <trkpt lat="45.4935" lon="6.73664">
        <ele>2690.3</ele>
        <time>2021-08-15T09:15:25Z</time>
      </trkpt>
      <trkpt lat="45.4935" lon="6.73664">
        <ele>2690.3</ele>
        <time>2021-08-15T09:15:26Z</time>
      </trkpt>
      <trkpt lat="45.4935" lon="6.73664">
        <ele>2690.3</ele>
        <time>2021-08-15T09:15:27Z</time>
      </trkpt>
      <trkpt lat="45.4935" lon="6.73664">
        <ele>2690.3</ele>
        <time>2021-08-15T09:15:28Z</time>
      </trkpt>
      <trkpt lat="45.4935" lon="6.73664">
        <ele>2690.3</ele>
        <time>2021-08-15T09:15:29Z</time>
      </trkpt>
      <trkpt lat="45.4935" lon="6.73664">
        <ele>2690.3</ele>
        <time>2021-08-15T09:15:30Z</time>
      </trkpt>
      <trkpt lat="45.4935" lon="6.73664">
        <ele>2690.3</ele>
        <time>2021-08-15T09:15:31Z</time>
      </trkpt>
      <trkpt lat="45.4935" lon="6.73664">
        <ele>2690.3</ele>
        <time>2021-08-15T09:15:32Z</time>
      </trkpt>
      <trkpt lat="45.4935" lon="6.73664">
        <ele>2690.3</ele>
        <time>2021-08-15T09:15:33Z</time>
      </trkpt>
      <trkpt lat="45.4935" lon="6.73664">
        <ele>2690.3</ele>
        <time>2021-08-15T09:15:34Z</time>
      </trkpt>
      <trkpt lat="45.4935" lon="6.73664">
        <ele>2690.3</ele>
        <time>2021-08-15T09:15:35Z</time>
      </trkpt>
      <trkpt lat="45.4935" lon="6.73664">
        <ele>2690.3</ele>
        <time>2021-08-15T09:15:36Z</time>
      </trkpt>
      <trkpt lat="45.4935" lon="6.73664">
        <ele>2690.3</ele>
        <time>2021-08-15T09:15:37Z</time>
      </trkpt>
      <trkpt lat="45.4935" lon="6.73664">
        <ele>2690.3</ele>
        <time>2021-08-15T09:15:38Z</time>
      </trkpt>
      <trkpt lat="45.4935" lon="6.73664">
        <ele>2690.3</ele>
        <time>2021-08-15T09:15:39Z</time>
      </trkpt>
      <trkpt lat="45.4935" lon="6.73664">
        <ele>2690.3</ele>
        <time>2021-08-15T09:15:40Z</time>
      </trkpt>
      <trkpt lat="45.4935" lon="6.73664">
        <ele>2690.3</ele>
        <time>2021-08-15T09:15:41Z</time>
      </trkpt>
      <trkpt lat="45.4935" lon="6.73664">
        <ele>2690.3</ele>
        <time>2021-08-15T09:15:42Z</time>
      </trkpt>
      <trkpt lat="45.4935" lon="6.73664">
        <ele>2690.3</ele>
        <time>2021-08-15T09:15:43Z</time>
      </trkpt>
      <trkpt lat="45.4935" lon="6.73664">
        <ele>2690.3</ele>
        <time>2021-08-15T09:15:44Z</time>
      </trkpt>
      <trkpt lat="45.4935" lon="6.73664">
        <ele>2690.3</ele>
        <time>2021-08-15T09:15:45Z</time>
      </trkpt>
      <trkpt lat="45.4935" lon="6.73664">
        <ele>2690.3</ele>
        <time>2021-08-15T09:15:46Z</time>
      </trkpt>
      <trkpt lat="45.4935" lon="6.73664">
        <ele>2690.3</ele>
        <time>2021-08-15T09:15:47Z</time>
      </trkpt>
      <trkpt lat="45.4935" lon="6.73664">
        <ele>2690.3</ele>
        <time>2021-08-15T09:15:48Z</time>
      </trkpt>
      <trkpt lat="45.4935" lon="6.73664">
        <ele>2690.3</ele>
        <time>2021-08-15T09:15:49Z</time>
      </trkpt>
      <trkpt lat="45.4935" lon="6.73664">
        <ele>2690.3</ele>
        <time>2021-08-15T09:15:50Z</time>
      </trkpt>
      <trkpt lat="45.4935" lon="6.73664">
        <ele>2690.3</ele>
        <time>2021-08-15T09:15:51Z</time>
      </trkpt>
      <trkpt lat="45.4935" lon="6.73664">
        <ele>2690.3</ele>
        <time>2021-08-15T09:15:52Z</time>
      </trkpt>
      <trkpt lat="45.4935" lon="6.73664">
        <ele>2690.3</ele>
        <time>2021-08-15T09:15:53Z</time>
      </trkpt>
      <trkpt lat="45.4935" lon="6.73664">
        <ele>2690.3</ele>
        <time>2021-08-15T09:15:54Z</time>
      </trkpt>
      <trkpt lat="45.4935" lon="6.73664">
        <ele>2690.3</ele>
        <time>2021-08-15T09:15:55Z</time>
      </trkpt>
      <trkpt lat="45.4935" lon="6.73664">
        <ele>2690.3</ele>
        <time>2021-08-15T09:15:56Z</time>
      </trkpt>
      <trkpt lat="45.4935" lon="6.73664">
        <ele>2690.3</ele>
        <time>2021-08-15T09:15:57Z</time>
      </trkpt>
      <trkpt lat="45.4935" lon="6.73664">
        <ele>2690.3</ele>
        <time>2021-08-15T09:15:58Z</time>
      </trkpt>
      <trkpt lat="45.4935" lon="6.73664">
        <ele>2690.3</ele>
        <time>2021-08-15T09:15:59Z</time>
      </trkpt>
      <trkpt lat="45.4935" lon="6.73664">
        <ele>2690.3</ele>
        <time>2021-08-15T09:16:00Z</time>
      </trkpt>
      <trkpt lat="45.4935" lon="6.73664">
        <ele>2690.3</ele>
        <time>2021-08-15T09:16:01Z</time>
      </trkpt>
      <trkpt lat="45.4935" lon="6.73664">
        <ele>2690.3</ele>
        <time>2021-08-15T09:16:02Z</time>
      </trkpt>
      <trkpt lat="45.4935" lon="6.73664">
        <ele>2690.3</ele>
        <time>2021-08-15T09:16:03Z</time>
      </trkpt>
      <trkpt lat="45.4935" lon="6.73664">
        <ele>2690.3</ele>
        <time>2021-08-15T09:16:04Z</time>
      </trkpt>
      <trkpt lat="45.4935" lon="6.73664">
        <ele>2690.3</ele>
        <time>2021-08-15T09:16:05Z</time>
      </trkpt>
      <trkpt lat="45.4935" lon="6.73664">
        <ele>2690.3</ele>
        <time>2021-08-15T09:16:06Z</time>
      </trkpt>
      <trkpt lat="45.4935" lon="6.73664">
        <ele>2690.3</ele>
        <time>2021-08-15T09:16:07Z</time>
      </trkpt>
      <trkpt lat="45.4935" lon="6.73664">
        <ele>2690.3</ele>
        <time>2021-08-15T09:16:08Z</time>
      </trkpt>
      <trkpt lat="45.4935" lon="6.73664">
        <ele>2690.3</ele>
        <time>2021-08-15T09:16:09Z</time>
      </trkpt>
      <trkpt lat="45.4935" lon="6.73664">
        <ele>2690.3</ele>
        <time>2021-08-15T09:16:10Z</time>
      </trkpt>
      <trkpt lat="45.4935" lon="6.73664">
        <ele>2690.3</ele>
        <time>2021-08-15T09:16:11Z</time>
      </trkpt>
      <trkpt lat="45.4935" lon="6.73664">
        <ele>2690.3</ele>
        <time>2021-08-15T09:16:12Z</time>
      </trkpt>
      <trkpt lat="45.4935" lon="6.73664">
        <ele>2690.3</ele>
        <time>2021-08-15T09:16:13Z</time>
      </trkpt>
      <trkpt lat="45.4935" lon="6.73664">
        <ele>2690.3</ele>
        <time>2021-08-15T09:16:14Z</time>
      </trkpt>
      <trkpt lat="45.4935" lon="6.73664">
        <ele>2690.3</ele>
        <time>2021-08-15T09:16:15Z</time>
      </trkpt>
      <trkpt lat="45.4935" lon="6.73664">
        <ele>2690.3</ele>
        <time>2021-08-15T09:16:16Z</time>
      </trkpt>
      <trkpt lat="45.4935" lon="6.73664">
        <ele>2690.3</ele>
        <time>2021-08-15T09:16:17Z</time>
      </trkpt>
      <trkpt lat="45.4935" lon="6.73664">
        <ele>2690.3</ele>
        <time>2021-08-15T09:16:18Z</time>
      </trkpt>
      <trkpt lat="45.4935" lon="6.73664">
        <ele>2690.3</ele>
        <time>2021-08-15T09:16:19Z</time>
      </trkpt>
      <trkpt lat="45.4935" lon="6.73664">
        <ele>2690.3</ele>
        <time>2021-08-15T09:16:20Z</time>
      </trkpt>
      <trkpt lat="45.4935" lon="6.73664">
        <ele>2690.3</ele>
        <time>2021-08-15T09:16:21Z</time>
      </trkpt>
      <trkpt lat="45.4935" lon="6.73664">
        <ele>2690.3</ele>
        <time>2021-08-15T09:16:22Z</time>
      </trkpt>
      <trkpt lat="45.4935" lon="6.73664">
        <ele>2690.3</ele>
        <time>2021-08-15T09:16:23Z</time>
      </trkpt>
      <trkpt lat="45.4935" lon="6.73664">
        <ele>2690.3</ele>
        <time>2021-08-15T09:16:24Z</time>
      </trkpt>
      <trkpt lat="45.4935" lon="6.73664">
        <ele>2690.3</ele>
        <time>2021-08-15T09:16:25Z</time>
      </trkpt>
      <trkpt lat="45.4935" lon="6.73664">
        <ele>2690.3</ele>
        <time>2021-08-15T09:16:26Z</time>
      </trkpt>
      <trkpt lat="45.4935" lon="6.73664">
        <ele>2690.3</ele>
        <time>2021-08-15T09:16:27Z</time>
      </trkpt>
      <trkpt lat="45.4935" lon="6.73664">
        <ele>2690.3</ele>
        <time>2021-08-15T09:16:28Z</time>
      </trkpt>
      <trkpt lat="45.4935" lon="6.73664">
        <ele>2690.3</ele>
        <time>2021-08-15T09:16:29Z</time>
      </trkpt>
      <trkpt lat="45.4935" lon="6.73664">
        <ele>2690.3</ele>
        <time>2021-08-15T09:16:30Z</time>
      </trkpt>
      <trkpt lat="45.4935" lon="6.73664">
        <ele>2690.3</ele>
        <time>2021-08-15T09:16:31Z</time>
      </trkpt>
      <trkpt lat="45.4935" lon="6.73664">
        <ele>2690.3</ele>
        <time>2021-08-15T09:16:32Z</time>
      </trkpt>
      <trkpt lat="45.4935" lon="6.73664">
        <ele>2690.3</ele>
        <time>2021-08-15T09:16:33Z</time>
      </trkpt>
      <trkpt lat="45.4935" lon="6.73664">
        <ele>2690.3</ele>
        <time>2021-08-15T09:16:34Z</time>
      </trkpt>
      <trkpt lat="45.4935" lon="6.73663">
        <ele>2691.2</ele>
        <time>2021-08-15T09:16:35Z</time>
      </trkpt>
      <trkpt lat="45.49349" lon="6.73662">
        <ele>2691.2</ele>
        <time>2021-08-15T09:16:36Z</time>
      </trkpt>
      <trkpt lat="45.49349" lon="6.7366">
        <ele>2691.2</ele>
        <time>2021-08-15T09:16:37Z</time>
      </trkpt>
      <trkpt lat="45.49349" lon="6.7366">
        <ele>2691.2</ele>
        <time>2021-08-15T09:16:38Z</time>
      </trkpt>
      <trkpt lat="45.49349" lon="6.7366">
        <ele>2691.2</ele>
        <time>2021-08-15T09:16:39Z</time>
      </trkpt>
      <trkpt lat="45.49349" lon="6.7366">
        <ele>2691.2</ele>
        <time>2021-08-15T09:16:40Z</time>
      </trkpt>
      <trkpt lat="45.49349" lon="6.7366">
        <ele>2691.2</ele>
        <time>2021-08-15T09:16:41Z</time>
      </trkpt>
      <trkpt lat="45.49349" lon="6.73659">
        <ele>2691.2</ele>
        <time>2021-08-15T09:16:42Z</time>
      </trkpt>
      <trkpt lat="45.49349" lon="6.73659">
        <ele>2692.1</ele>
        <time>2021-08-15T09:16:43Z</time>
      </trkpt>
      <trkpt lat="45.49349" lon="6.73658">
        <ele>2692.1</ele>
        <time>2021-08-15T09:16:44Z</time>
      </trkpt>
      <trkpt lat="45.49349" lon="6.73657">
        <ele>2692.1</ele>
        <time>2021-08-15T09:16:45Z</time>
      </trkpt>
      <trkpt lat="45.49349" lon="6.73656">
        <ele>2692.1</ele>
        <time>2021-08-15T09:16:46Z</time>
      </trkpt>
      <trkpt lat="45.49349" lon="6.73655">
        <ele>2692.1</ele>
        <time>2021-08-15T09:16:47Z</time>
      </trkpt>
      <trkpt lat="45.49349" lon="6.73655">
        <ele>2692.8</ele>
        <time>2021-08-15T09:16:48Z</time>
      </trkpt>
      <trkpt lat="45.49349" lon="6.73655">
        <ele>2692.8</ele>
        <time>2021-08-15T09:16:49Z</time>
      </trkpt>
      <trkpt lat="45.49349" lon="6.73655">
        <ele>2692.8</ele>
        <time>2021-08-15T09:16:50Z</time>
      </trkpt>
      <trkpt lat="45.49349" lon="6.73656">
        <ele>2692.1</ele>
        <time>2021-08-15T09:16:51Z</time>
      </trkpt>
      <trkpt lat="45.4935" lon="6.73656">
        <ele>2692.1</ele>
        <time>2021-08-15T09:16:52Z</time>
      </trkpt>
      <trkpt lat="45.4935" lon="6.73657">
        <ele>2692.1</ele>
        <time>2021-08-15T09:16:53Z</time>
      </trkpt>
      <trkpt lat="45.4935" lon="6.73657">
        <ele>2692.1</ele>
        <time>2021-08-15T09:16:54Z</time>
      </trkpt>
      <trkpt lat="45.4935" lon="6.73658">
        <ele>2692.1</ele>
        <time>2021-08-15T09:16:55Z</time>
      </trkpt>
      <trkpt lat="45.4935" lon="6.73658">
        <ele>2692.1</ele>
        <time>2021-08-15T09:16:56Z</time>
      </trkpt>
      <trkpt lat="45.4935" lon="6.73658">
        <ele>2692.1</ele>
        <time>2021-08-15T09:16:57Z</time>
      </trkpt>
      <trkpt lat="45.4935" lon="6.73658">
        <ele>2692.1</ele>
        <time>2021-08-15T09:16:58Z</time>
      </trkpt>
      <trkpt lat="45.4935" lon="6.73658">
        <ele>2692.1</ele>
        <time>2021-08-15T09:16:59Z</time>
      </trkpt>
      <trkpt lat="45.4935" lon="6.73658">
        <ele>2692.1</ele>
        <time>2021-08-15T09:17:00Z</time>
      </trkpt>
      <trkpt lat="45.4935" lon="6.73658">
        <ele>2692.1</ele>
        <time>2021-08-15T09:17:01Z</time>
      </trkpt>
      <trkpt lat="45.4935" lon="6.73658">
        <ele>2692.1</ele>
        <time>2021-08-15T09:17:02Z</time>
      </trkpt>
      <trkpt lat="45.4935" lon="6.73658">
        <ele>2692.1</ele>
        <time>2021-08-15T09:17:03Z</time>
      </trkpt>
      <trkpt lat="45.4935" lon="6.73658">
        <ele>2692.1</ele>
        <time>2021-08-15T09:17:04Z</time>
      </trkpt>
      <trkpt lat="45.4935" lon="6.73658">
        <ele>2692.1</ele>
        <time>2021-08-15T09:17:05Z</time>
      </trkpt>
      <trkpt lat="45.4935" lon="6.73658">
        <ele>2692.1</ele>
        <time>2021-08-15T09:17:06Z</time>
      </trkpt>
      <trkpt lat="45.4935" lon="6.73658">
        <ele>2692.1</ele>
        <time>2021-08-15T09:17:07Z</time>
      </trkpt>
      <trkpt lat="45.4935" lon="6.73658">
        <ele>2692.1</ele>
        <time>2021-08-15T09:17:08Z</time>
      </trkpt>
      <trkpt lat="45.4935" lon="6.73658">
        <ele>2692.1</ele>
        <time>2021-08-15T09:17:09Z</time>
      </trkpt>
      <trkpt lat="45.4935" lon="6.73658">
        <ele>2692.1</ele>
        <time>2021-08-15T09:17:10Z</time>
      </trkpt>
      <trkpt lat="45.4935" lon="6.73658">
        <ele>2692.1</ele>
        <time>2021-08-15T09:17:11Z</time>
      </trkpt>
      <trkpt lat="45.4935" lon="6.73658">
        <ele>2692.1</ele>
        <time>2021-08-15T09:17:12Z</time>
      </trkpt>
      <trkpt lat="45.4935" lon="6.73658">
        <ele>2692.1</ele>
        <time>2021-08-15T09:17:13Z</time>
      </trkpt>
      <trkpt lat="45.4935" lon="6.73658">
        <ele>2692.1</ele>
        <time>2021-08-15T09:17:14Z</time>
      </trkpt>
      <trkpt lat="45.4935" lon="6.73658">
        <ele>2692.1</ele>
        <time>2021-08-15T09:17:15Z</time>
      </trkpt>
      <trkpt lat="45.4935" lon="6.73658">
        <ele>2692.1</ele>
        <time>2021-08-15T09:17:16Z</time>
      </trkpt>
      <trkpt lat="45.4935" lon="6.73658">
        <ele>2692.1</ele>
        <time>2021-08-15T09:17:17Z</time>
      </trkpt>
      <trkpt lat="45.4935" lon="6.73658">
        <ele>2692.1</ele>
        <time>2021-08-15T09:17:18Z</time>
      </trkpt>
      <trkpt lat="45.4935" lon="6.73658">
        <ele>2692.1</ele>
        <time>2021-08-15T09:17:19Z</time>
      </trkpt>
      <trkpt lat="45.4935" lon="6.73658">
        <ele>2692.1</ele>
        <time>2021-08-15T09:17:20Z</time>
      </trkpt>
      <trkpt lat="45.4935" lon="6.73658">
        <ele>2692.1</ele>
        <time>2021-08-15T09:17:21Z</time>
      </trkpt>
      <trkpt lat="45.4935" lon="6.73658">
        <ele>2692.1</ele>
        <time>2021-08-15T09:17:22Z</time>
      </trkpt>
      <trkpt lat="45.4935" lon="6.73658">
        <ele>2692.1</ele>
        <time>2021-08-15T09:17:23Z</time>
      </trkpt>
      <trkpt lat="45.4935" lon="6.73658">
        <ele>2692.1</ele>
        <time>2021-08-15T09:17:24Z</time>
      </trkpt>
      <trkpt lat="45.4935" lon="6.73658">
        <ele>2692.1</ele>
        <time>2021-08-15T09:17:25Z</time>
      </trkpt>
      <trkpt lat="45.4935" lon="6.73658">
        <ele>2692.1</ele>
        <time>2021-08-15T09:17:26Z</time>
      </trkpt>
      <trkpt lat="45.4935" lon="6.73658">
        <ele>2692.1</ele>
        <time>2021-08-15T09:17:27Z</time>
      </trkpt>
      <trkpt lat="45.4935" lon="6.73658">
        <ele>2692.1</ele>
        <time>2021-08-15T09:17:28Z</time>
      </trkpt>
      <trkpt lat="45.4935" lon="6.73658">
        <ele>2692.1</ele>
        <time>2021-08-15T09:17:29Z</time>
      </trkpt>
      <trkpt lat="45.4935" lon="6.73658">
        <ele>2692.1</ele>
        <time>2021-08-15T09:17:30Z</time>
      </trkpt>
      <trkpt lat="45.4935" lon="6.73658">
        <ele>2692.1</ele>
        <time>2021-08-15T09:17:31Z</time>
      </trkpt>
      <trkpt lat="45.4935" lon="6.73658">
        <ele>2692.1</ele>
        <time>2021-08-15T09:17:32Z</time>
      </trkpt>
      <trkpt lat="45.4935" lon="6.73658">
        <ele>2692.1</ele>
        <time>2021-08-15T09:17:33Z</time>
      </trkpt>
      <trkpt lat="45.4935" lon="6.73658">
        <ele>2692.1</ele>
        <time>2021-08-15T09:17:34Z</time>
      </trkpt>
      <trkpt lat="45.4935" lon="6.73657">
        <ele>2692.1</ele>
        <time>2021-08-15T09:17:35Z</time>
      </trkpt>
      <trkpt lat="45.4935" lon="6.73657">
        <ele>2692.1</ele>
        <time>2021-08-15T09:17:36Z</time>
      </trkpt>
      <trkpt lat="45.4935" lon="6.73657">
        <ele>2692.1</ele>
        <time>2021-08-15T09:17:37Z</time>
      </trkpt>
      <trkpt lat="45.4935" lon="6.73657">
        <ele>2692.1</ele>
        <time>2021-08-15T09:17:38Z</time>
      </trkpt>
      <trkpt lat="45.4935" lon="6.73656">
        <ele>2692.1</ele>
        <time>2021-08-15T09:17:39Z</time>
      </trkpt>
      <trkpt lat="45.4935" lon="6.73655">
        <ele>2691.2</ele>
        <time>2021-08-15T09:17:40Z</time>
      </trkpt>
      <trkpt lat="45.4935" lon="6.73655">
        <ele>2691.9</ele>
        <time>2021-08-15T09:17:41Z</time>
      </trkpt>
      <trkpt lat="45.4935" lon="6.73654">
        <ele>2691.9</ele>
        <time>2021-08-15T09:17:42Z</time>
      </trkpt>
      <trkpt lat="45.49351" lon="6.73653">
        <ele>2691.9</ele>
        <time>2021-08-15T09:17:43Z</time>
      </trkpt>
      <trkpt lat="45.49351" lon="6.73652">
        <ele>2691.9</ele>
        <time>2021-08-15T09:17:44Z</time>
      </trkpt>
      <trkpt lat="45.49351" lon="6.73651">
        <ele>2692.5</ele>
        <time>2021-08-15T09:17:45Z</time>
      </trkpt>
      <trkpt lat="45.49351" lon="6.73649">
        <ele>2692.5</ele>
        <time>2021-08-15T09:17:46Z</time>
      </trkpt>
      <trkpt lat="45.49351" lon="6.73648">
        <ele>2692.5</ele>
        <time>2021-08-15T09:17:47Z</time>
      </trkpt>
      <trkpt lat="45.49351" lon="6.73647">
        <ele>2692.5</ele>
        <time>2021-08-15T09:17:48Z</time>
      </trkpt>
      <trkpt lat="45.49351" lon="6.73645">
        <ele>2693.1</ele>
        <time>2021-08-15T09:17:49Z</time>
      </trkpt>
      <trkpt lat="45.49352" lon="6.73644">
        <ele>2693.1</ele>
        <time>2021-08-15T09:17:50Z</time>
      </trkpt>
      <trkpt lat="45.49352" lon="6.73642">
        <ele>2693.1</ele>
        <time>2021-08-15T09:17:51Z</time>
      </trkpt>
      <trkpt lat="45.49352" lon="6.73641">
        <ele>2693.6</ele>
        <time>2021-08-15T09:17:52Z</time>
      </trkpt>
      <trkpt lat="45.49352" lon="6.7364">
        <ele>2693.6</ele>
        <time>2021-08-15T09:17:53Z</time>
      </trkpt>
      <trkpt lat="45.49353" lon="6.73639">
        <ele>2693.6</ele>
        <time>2021-08-15T09:17:54Z</time>
      </trkpt>
      <trkpt lat="45.49353" lon="6.73638">
        <ele>2693.6</ele>
        <time>2021-08-15T09:17:55Z</time>
      </trkpt>
      <trkpt lat="45.49354" lon="6.73637">
        <ele>2693.3</ele>
        <time>2021-08-15T09:17:56Z</time>
      </trkpt>
      <trkpt lat="45.49354" lon="6.73636">
        <ele>2693.3</ele>
        <time>2021-08-15T09:17:57Z</time>
      </trkpt>
      <trkpt lat="45.49354" lon="6.73635">
        <ele>2693.3</ele>
        <time>2021-08-15T09:17:58Z</time>
      </trkpt>
      <trkpt lat="45.49355" lon="6.73634">
        <ele>2693.3</ele>
        <time>2021-08-15T09:17:59Z</time>
      </trkpt>
      <trkpt lat="45.49355" lon="6.73633">
        <ele>2693.8</ele>
        <time>2021-08-15T09:18:00Z</time>
      </trkpt>
      <trkpt lat="45.49355" lon="6.73633">
        <ele>2693.8</ele>
        <time>2021-08-15T09:18:01Z</time>
      </trkpt>
      <trkpt lat="45.49356" lon="6.73632">
        <ele>2693.8</ele>
        <time>2021-08-15T09:18:02Z</time>
      </trkpt>
      <trkpt lat="45.49356" lon="6.73631">
        <ele>2693.8</ele>
        <time>2021-08-15T09:18:03Z</time>
      </trkpt>
      <trkpt lat="45.49357" lon="6.7363">
        <ele>2693</ele>
        <time>2021-08-15T09:18:04Z</time>
      </trkpt>
      <trkpt lat="45.49357" lon="6.73629">
        <ele>2693.5</ele>
        <time>2021-08-15T09:18:05Z</time>
      </trkpt>
      <trkpt lat="45.49357" lon="6.73628">
        <ele>2693.5</ele>
        <time>2021-08-15T09:18:06Z</time>
      </trkpt>
      <trkpt lat="45.49357" lon="6.73627">
        <ele>2693.5</ele>
        <time>2021-08-15T09:18:07Z</time>
      </trkpt>
      <trkpt lat="45.49358" lon="6.73626">
        <ele>2693.5</ele>
        <time>2021-08-15T09:18:08Z</time>
      </trkpt>
      <trkpt lat="45.49358" lon="6.73626">
        <ele>2693.5</ele>
        <time>2021-08-15T09:18:09Z</time>
      </trkpt>
      <trkpt lat="45.49358" lon="6.73625">
        <ele>2694</ele>
        <time>2021-08-15T09:18:10Z</time>
      </trkpt>
      <trkpt lat="45.49358" lon="6.73624">
        <ele>2694</ele>
        <time>2021-08-15T09:18:11Z</time>
      </trkpt>
      <trkpt lat="45.49359" lon="6.73623">
        <ele>2694</ele>
        <time>2021-08-15T09:18:12Z</time>
      </trkpt>
      <trkpt lat="45.49359" lon="6.73622">
        <ele>2694</ele>
        <time>2021-08-15T09:18:13Z</time>
      </trkpt>
      <trkpt lat="45.49359" lon="6.7362">
        <ele>2694.4</ele>
        <time>2021-08-15T09:18:14Z</time>
      </trkpt>
      <trkpt lat="45.49359" lon="6.73619">
        <ele>2694.4</ele>
        <time>2021-08-15T09:18:15Z</time>
      </trkpt>
      <trkpt lat="45.49359" lon="6.73618">
        <ele>2694.4</ele>
        <time>2021-08-15T09:18:16Z</time>
      </trkpt>
      <trkpt lat="45.49359" lon="6.73617">
        <ele>2694.4</ele>
        <time>2021-08-15T09:18:17Z</time>
      </trkpt>
      <trkpt lat="45.49359" lon="6.73616">
        <ele>2694.8</ele>
        <time>2021-08-15T09:18:18Z</time>
      </trkpt>
      <trkpt lat="45.49359" lon="6.73615">
        <ele>2694.8</ele>
        <time>2021-08-15T09:18:19Z</time>
      </trkpt>
      <trkpt lat="45.49359" lon="6.73614">
        <ele>2694.8</ele>
        <time>2021-08-15T09:18:20Z</time>
      </trkpt>
      <trkpt lat="45.49359" lon="6.73612">
        <ele>2694</ele>
        <time>2021-08-15T09:18:21Z</time>
      </trkpt>
      <trkpt lat="45.4936" lon="6.73611">
        <ele>2694.3</ele>
        <time>2021-08-15T09:18:22Z</time>
      </trkpt>
      <trkpt lat="45.4936" lon="6.7361">
        <ele>2694.3</ele>
        <time>2021-08-15T09:18:23Z</time>
      </trkpt>
      <trkpt lat="45.4936" lon="6.73609">
        <ele>2694.3</ele>
        <time>2021-08-15T09:18:24Z</time>
      </trkpt>
      <trkpt lat="45.4936" lon="6.73607">
        <ele>2694.6</ele>
        <time>2021-08-15T09:18:25Z</time>
      </trkpt>
      <trkpt lat="45.4936" lon="6.73606">
        <ele>2694.6</ele>
        <time>2021-08-15T09:18:26Z</time>
      </trkpt>
      <trkpt lat="45.4936" lon="6.73606">
        <ele>2694.6</ele>
        <time>2021-08-15T09:18:27Z</time>
      </trkpt>
      <trkpt lat="45.49361" lon="6.73605">
        <ele>2694.6</ele>
        <time>2021-08-15T09:18:28Z</time>
      </trkpt>
      <trkpt lat="45.49361" lon="6.73604">
        <ele>2694.6</ele>
        <time>2021-08-15T09:18:29Z</time>
      </trkpt>
      <trkpt lat="45.49361" lon="6.73604">
        <ele>2694.6</ele>
        <time>2021-08-15T09:18:30Z</time>
      </trkpt>
      <trkpt lat="45.49361" lon="6.73603">
        <ele>2694.8</ele>
        <time>2021-08-15T09:18:31Z</time>
      </trkpt>
      <trkpt lat="45.49361" lon="6.73603">
        <ele>2694.8</ele>
        <time>2021-08-15T09:18:32Z</time>
      </trkpt>
      <trkpt lat="45.49362" lon="6.73602">
        <ele>2694.8</ele>
        <time>2021-08-15T09:18:33Z</time>
      </trkpt>
      <trkpt lat="45.49362" lon="6.73602">
        <ele>2694.8</ele>
        <time>2021-08-15T09:18:34Z</time>
      </trkpt>
      <trkpt lat="45.49362" lon="6.73601">
        <ele>2694.8</ele>
        <time>2021-08-15T09:18:35Z</time>
      </trkpt>
      <trkpt lat="45.49362" lon="6.736">
        <ele>2694.8</ele>
        <time>2021-08-15T09:18:36Z</time>
      </trkpt>
      <trkpt lat="45.49363" lon="6.73599">
        <ele>2694.2</ele>
        <time>2021-08-15T09:18:37Z</time>
      </trkpt>
      <trkpt lat="45.49363" lon="6.73598">
        <ele>2694.2</ele>
        <time>2021-08-15T09:18:38Z</time>
      </trkpt>
      <trkpt lat="45.49363" lon="6.73597">
        <ele>2694.2</ele>
        <time>2021-08-15T09:18:39Z</time>
      </trkpt>
      <trkpt lat="45.49363" lon="6.73596">
        <ele>2694.2</ele>
        <time>2021-08-15T09:18:40Z</time>
      </trkpt>
      <trkpt lat="45.49363" lon="6.73595">
        <ele>2694.4</ele>
        <time>2021-08-15T09:18:41Z</time>
      </trkpt>
      <trkpt lat="45.49364" lon="6.73594">
        <ele>2694.4</ele>
        <time>2021-08-15T09:18:42Z</time>
      </trkpt>
      <trkpt lat="45.49364" lon="6.73593">
        <ele>2694.4</ele>
        <time>2021-08-15T09:18:43Z</time>
      </trkpt>
      <trkpt lat="45.49364" lon="6.73592">
        <ele>2694.4</ele>
        <time>2021-08-15T09:18:44Z</time>
      </trkpt>
      <trkpt lat="45.49364" lon="6.73591">
        <ele>2694.4</ele>
        <time>2021-08-15T09:18:45Z</time>
      </trkpt>
      <trkpt lat="45.49364" lon="6.7359">
        <ele>2694.5</ele>
        <time>2021-08-15T09:18:46Z</time>
      </trkpt>
      <trkpt lat="45.49364" lon="6.73589">
        <ele>2694.5</ele>
        <time>2021-08-15T09:18:47Z</time>
      </trkpt>
      <trkpt lat="45.49364" lon="6.73588">
        <ele>2694.5</ele>
        <time>2021-08-15T09:18:48Z</time>
      </trkpt>
      <trkpt lat="45.49364" lon="6.73587">
        <ele>2694.5</ele>
        <time>2021-08-15T09:18:49Z</time>
      </trkpt>
      <trkpt lat="45.49365" lon="6.73586">
        <ele>2694.5</ele>
        <time>2021-08-15T09:18:50Z</time>
      </trkpt>
      <trkpt lat="45.49365" lon="6.73585">
        <ele>2694.6</ele>
        <time>2021-08-15T09:18:51Z</time>
      </trkpt>
      <trkpt lat="45.49365" lon="6.73584">
        <ele>2694.6</ele>
        <time>2021-08-15T09:18:52Z</time>
      </trkpt>
      <trkpt lat="45.49365" lon="6.73583">
        <ele>2694.6</ele>
        <time>2021-08-15T09:18:53Z</time>
      </trkpt>
      <trkpt lat="45.49366" lon="6.73582">
        <ele>2694</ele>
        <time>2021-08-15T09:18:54Z</time>
      </trkpt>
      <trkpt lat="45.49366" lon="6.73581">
        <ele>2694.1</ele>
        <time>2021-08-15T09:18:55Z</time>
      </trkpt>
      <trkpt lat="45.49366" lon="6.7358">
        <ele>2694.1</ele>
        <time>2021-08-15T09:18:56Z</time>
      </trkpt>
      <trkpt lat="45.49367" lon="6.73579">
        <ele>2694.1</ele>
        <time>2021-08-15T09:18:57Z</time>
      </trkpt>
      <trkpt lat="45.49367" lon="6.73578">
        <ele>2694.1</ele>
        <time>2021-08-15T09:18:58Z</time>
      </trkpt>
      <trkpt lat="45.49367" lon="6.73577">
        <ele>2694.2</ele>
        <time>2021-08-15T09:18:59Z</time>
      </trkpt>
      <trkpt lat="45.49368" lon="6.73576">
        <ele>2694.2</ele>
        <time>2021-08-15T09:19:00Z</time>
      </trkpt>
      <trkpt lat="45.49368" lon="6.73575">
        <ele>2694.2</ele>
        <time>2021-08-15T09:19:01Z</time>
      </trkpt>
      <trkpt lat="45.49369" lon="6.73574">
        <ele>2693.6</ele>
        <time>2021-08-15T09:19:02Z</time>
      </trkpt>
      <trkpt lat="45.49369" lon="6.73573">
        <ele>2693.7</ele>
        <time>2021-08-15T09:19:03Z</time>
      </trkpt>
      <trkpt lat="45.4937" lon="6.73572">
        <ele>2693.7</ele>
        <time>2021-08-15T09:19:04Z</time>
      </trkpt>
      <trkpt lat="45.4937" lon="6.73571">
        <ele>2693.7</ele>
        <time>2021-08-15T09:19:05Z</time>
      </trkpt>
      <trkpt lat="45.4937" lon="6.7357">
        <ele>2693.7</ele>
        <time>2021-08-15T09:19:06Z</time>
      </trkpt>
      <trkpt lat="45.49371" lon="6.73569">
        <ele>2693.7</ele>
        <time>2021-08-15T09:19:07Z</time>
      </trkpt>
      <trkpt lat="45.49371" lon="6.73569">
        <ele>2693.8</ele>
        <time>2021-08-15T09:19:08Z</time>
      </trkpt>
      <trkpt lat="45.49371" lon="6.73568">
        <ele>2693.8</ele>
        <time>2021-08-15T09:19:09Z</time>
      </trkpt>
      <trkpt lat="45.49372" lon="6.73567">
        <ele>2693.2</ele>
        <time>2021-08-15T09:19:10Z</time>
      </trkpt>
      <trkpt lat="45.49372" lon="6.73567">
        <ele>2693.2</ele>
        <time>2021-08-15T09:19:11Z</time>
      </trkpt>
      <trkpt lat="45.49372" lon="6.73567">
        <ele>2693.2</ele>
        <time>2021-08-15T09:19:12Z</time>
      </trkpt>
      <trkpt lat="45.49372" lon="6.73566">
        <ele>2693.2</ele>
        <time>2021-08-15T09:19:13Z</time>
      </trkpt>
      <trkpt lat="45.49372" lon="6.73566">
        <ele>2693.2</ele>
        <time>2021-08-15T09:19:14Z</time>
      </trkpt>
      <trkpt lat="45.49372" lon="6.73566">
        <ele>2693.2</ele>
        <time>2021-08-15T09:19:15Z</time>
      </trkpt>
      <trkpt lat="45.49372" lon="6.73566">
        <ele>2693.2</ele>
        <time>2021-08-15T09:19:16Z</time>
      </trkpt>
      <trkpt lat="45.49372" lon="6.73566">
        <ele>2693.2</ele>
        <time>2021-08-15T09:19:17Z</time>
      </trkpt>
      <trkpt lat="45.49372" lon="6.73566">
        <ele>2693.2</ele>
        <time>2021-08-15T09:19:18Z</time>
      </trkpt>
      <trkpt lat="45.49372" lon="6.73565">
        <ele>2693.2</ele>
        <time>2021-08-15T09:19:19Z</time>
      </trkpt>
      <trkpt lat="45.49372" lon="6.73565">
        <ele>2693.2</ele>
        <time>2021-08-15T09:19:20Z</time>
      </trkpt>
      <trkpt lat="45.49372" lon="6.73565">
        <ele>2693.3</ele>
        <time>2021-08-15T09:19:21Z</time>
      </trkpt>
      <trkpt lat="45.49372" lon="6.73565">
        <ele>2693.3</ele>
        <time>2021-08-15T09:19:22Z</time>
      </trkpt>
      <trkpt lat="45.49372" lon="6.73564">
        <ele>2693.3</ele>
        <time>2021-08-15T09:19:23Z</time>
      </trkpt>
      <trkpt lat="45.49373" lon="6.73564">
        <ele>2693.3</ele>
        <time>2021-08-15T09:19:24Z</time>
      </trkpt>
      <trkpt lat="45.49373" lon="6.73563">
        <ele>2693.3</ele>
        <time>2021-08-15T09:19:25Z</time>
      </trkpt>
      <trkpt lat="45.49373" lon="6.73562">
        <ele>2693.3</ele>
        <time>2021-08-15T09:19:26Z</time>
      </trkpt>
      <trkpt lat="45.49373" lon="6.73561">
        <ele>2693.3</ele>
        <time>2021-08-15T09:19:27Z</time>
      </trkpt>
      <trkpt lat="45.49374" lon="6.7356">
        <ele>2693.3</ele>
        <time>2021-08-15T09:19:28Z</time>
      </trkpt>
      <trkpt lat="45.49374" lon="6.73559">
        <ele>2693.3</ele>
        <time>2021-08-15T09:19:29Z</time>
      </trkpt>
      <trkpt lat="45.49374" lon="6.73558">
        <ele>2693.3</ele>
        <time>2021-08-15T09:19:30Z</time>
      </trkpt>
      <trkpt lat="45.49374" lon="6.73557">
        <ele>2692.7</ele>
        <time>2021-08-15T09:19:31Z</time>
      </trkpt>
      <trkpt lat="45.49375" lon="6.73556">
        <ele>2692.7</ele>
        <time>2021-08-15T09:19:32Z</time>
      </trkpt>
      <trkpt lat="45.49375" lon="6.73554">
        <ele>2692.7</ele>
        <time>2021-08-15T09:19:33Z</time>
      </trkpt>
      <trkpt lat="45.49375" lon="6.73553">
        <ele>2692.7</ele>
        <time>2021-08-15T09:19:34Z</time>
      </trkpt>
      <trkpt lat="45.49375" lon="6.73551">
        <ele>2692.7</ele>
        <time>2021-08-15T09:19:35Z</time>
      </trkpt>
      <trkpt lat="45.49376" lon="6.7355">
        <ele>2692.7</ele>
        <time>2021-08-15T09:19:36Z</time>
      </trkpt>
      <trkpt lat="45.49376" lon="6.73548">
        <ele>2692.7</ele>
        <time>2021-08-15T09:19:37Z</time>
      </trkpt>
      <trkpt lat="45.49376" lon="6.73547">
        <ele>2692.7</ele>
        <time>2021-08-15T09:19:38Z</time>
      </trkpt>
      <trkpt lat="45.49376" lon="6.73545">
        <ele>2692.7</ele>
        <time>2021-08-15T09:19:39Z</time>
      </trkpt>
      <trkpt lat="45.49376" lon="6.73544">
        <ele>2692.7</ele>
        <time>2021-08-15T09:19:40Z</time>
      </trkpt>
      <trkpt lat="45.49376" lon="6.73542">
        <ele>2692.6</ele>
        <time>2021-08-15T09:19:41Z</time>
      </trkpt>
      <trkpt lat="45.49377" lon="6.73541">
        <ele>2692.6</ele>
        <time>2021-08-15T09:19:42Z</time>
      </trkpt>
      <trkpt lat="45.49377" lon="6.7354">
        <ele>2692.6</ele>
        <time>2021-08-15T09:19:43Z</time>
      </trkpt>
      <trkpt lat="45.49377" lon="6.73538">
        <ele>2692.4</ele>
        <time>2021-08-15T09:19:44Z</time>
      </trkpt>
      <trkpt lat="45.49377" lon="6.73537">
        <ele>2692.4</ele>
        <time>2021-08-15T09:19:45Z</time>
      </trkpt>
      <trkpt lat="45.49377" lon="6.73536">
        <ele>2692.4</ele>
        <time>2021-08-15T09:19:46Z</time>
      </trkpt>
      <trkpt lat="45.49377" lon="6.73535">
        <ele>2692.4</ele>
        <time>2021-08-15T09:19:47Z</time>
      </trkpt>
      <trkpt lat="45.49377" lon="6.73534">
        <ele>2692.1</ele>
        <time>2021-08-15T09:19:48Z</time>
      </trkpt>
      <trkpt lat="45.49377" lon="6.73533">
        <ele>2692.1</ele>
        <time>2021-08-15T09:19:49Z</time>
      </trkpt>
      <trkpt lat="45.49377" lon="6.73532">
        <ele>2692.1</ele>
        <time>2021-08-15T09:19:50Z</time>
      </trkpt>
      <trkpt lat="45.49377" lon="6.73531">
        <ele>2692.1</ele>
        <time>2021-08-15T09:19:51Z</time>
      </trkpt>
      <trkpt lat="45.49377" lon="6.7353">
        <ele>2691.8</ele>
        <time>2021-08-15T09:19:52Z</time>
      </trkpt>
      <trkpt lat="45.49377" lon="6.73529">
        <ele>2691.8</ele>
        <time>2021-08-15T09:19:53Z</time>
      </trkpt>
      <trkpt lat="45.49376" lon="6.73528">
        <ele>2691.8</ele>
        <time>2021-08-15T09:19:54Z</time>
      </trkpt>
      <trkpt lat="45.49376" lon="6.73527">
        <ele>2691.8</ele>
        <time>2021-08-15T09:19:55Z</time>
      </trkpt>
      <trkpt lat="45.49376" lon="6.73526">
        <ele>2691.5</ele>
        <time>2021-08-15T09:19:56Z</time>
      </trkpt>
      <trkpt lat="45.49376" lon="6.73525">
        <ele>2691.5</ele>
        <time>2021-08-15T09:19:57Z</time>
      </trkpt>
      <trkpt lat="45.49375" lon="6.73524">
        <ele>2691.5</ele>
        <time>2021-08-15T09:19:58Z</time>
      </trkpt>
      <trkpt lat="45.49375" lon="6.73523">
        <ele>2691.5</ele>
        <time>2021-08-15T09:19:59Z</time>
      </trkpt>
      <trkpt lat="45.49374" lon="6.73522">
        <ele>2691.7</ele>
        <time>2021-08-15T09:20:00Z</time>
      </trkpt>
      <trkpt lat="45.49374" lon="6.73521">
        <ele>2691.7</ele>
        <time>2021-08-15T09:20:01Z</time>
      </trkpt>
      <trkpt lat="45.49373" lon="6.73519">
        <ele>2691.7</ele>
        <time>2021-08-15T09:20:02Z</time>
      </trkpt>
      <trkpt lat="45.49372" lon="6.73518">
        <ele>2691.7</ele>
        <time>2021-08-15T09:20:03Z</time>
      </trkpt>
      <trkpt lat="45.49372" lon="6.73517">
        <ele>2691.4</ele>
        <time>2021-08-15T09:20:04Z</time>
      </trkpt>
      <trkpt lat="45.49371" lon="6.73516">
        <ele>2691.9</ele>
        <time>2021-08-15T09:20:05Z</time>
      </trkpt>
      <trkpt lat="45.49371" lon="6.73515">
        <ele>2691.9</ele>
        <time>2021-08-15T09:20:06Z</time>
      </trkpt>
      <trkpt lat="45.4937" lon="6.73514">
        <ele>2691.9</ele>
        <time>2021-08-15T09:20:07Z</time>
      </trkpt>
      <trkpt lat="45.4937" lon="6.73513">
        <ele>2691.5</ele>
        <time>2021-08-15T09:20:08Z</time>
      </trkpt>
      <trkpt lat="45.4937" lon="6.73512">
        <ele>2691.5</ele>
        <time>2021-08-15T09:20:09Z</time>
      </trkpt>
      <trkpt lat="45.4937" lon="6.73512">
        <ele>2691.5</ele>
        <time>2021-08-15T09:20:10Z</time>
      </trkpt>
      <trkpt lat="45.49369" lon="6.73511">
        <ele>2691.5</ele>
        <time>2021-08-15T09:20:11Z</time>
      </trkpt>
      <trkpt lat="45.49369" lon="6.73511">
        <ele>2691.5</ele>
        <time>2021-08-15T09:20:12Z</time>
      </trkpt>
      <trkpt lat="45.49369" lon="6.7351">
        <ele>2691.5</ele>
        <time>2021-08-15T09:20:13Z</time>
      </trkpt>
      <trkpt lat="45.49369" lon="6.7351">
        <ele>2691.5</ele>
        <time>2021-08-15T09:20:14Z</time>
      </trkpt>
      <trkpt lat="45.49369" lon="6.7351">
        <ele>2691.5</ele>
        <time>2021-08-15T09:20:15Z</time>
      </trkpt>
      <trkpt lat="45.49369" lon="6.7351">
        <ele>2691.5</ele>
        <time>2021-08-15T09:20:16Z</time>
      </trkpt>
      <trkpt lat="45.49369" lon="6.7351">
        <ele>2691.5</ele>
        <time>2021-08-15T09:20:17Z</time>
      </trkpt>
      <trkpt lat="45.49369" lon="6.7351">
        <ele>2691.5</ele>
        <time>2021-08-15T09:20:18Z</time>
      </trkpt>
      <trkpt lat="45.49369" lon="6.7351">
        <ele>2691.5</ele>
        <time>2021-08-15T09:20:19Z</time>
      </trkpt>
      <trkpt lat="45.49369" lon="6.7351">
        <ele>2691.5</ele>
        <time>2021-08-15T09:20:20Z</time>
      </trkpt>
      <trkpt lat="45.49369" lon="6.7351">
        <ele>2691.5</ele>
        <time>2021-08-15T09:20:21Z</time>
      </trkpt>
      <trkpt lat="45.49369" lon="6.73511">
        <ele>2691.5</ele>
        <time>2021-08-15T09:20:22Z</time>
      </trkpt>
      <trkpt lat="45.4937" lon="6.73511">
        <ele>2691.5</ele>
        <time>2021-08-15T09:20:23Z</time>
      </trkpt>
      <trkpt lat="45.4937" lon="6.73511">
        <ele>2691.5</ele>
        <time>2021-08-15T09:20:24Z</time>
      </trkpt>
      <trkpt lat="45.4937" lon="6.73511">
        <ele>2691.5</ele>
        <time>2021-08-15T09:20:25Z</time>
      </trkpt>
      <trkpt lat="45.4937" lon="6.73511">
        <ele>2691.5</ele>
        <time>2021-08-15T09:20:26Z</time>
      </trkpt>
      <trkpt lat="45.4937" lon="6.73511">
        <ele>2691.5</ele>
        <time>2021-08-15T09:20:27Z</time>
      </trkpt>
      <trkpt lat="45.4937" lon="6.73511">
        <ele>2691.5</ele>
        <time>2021-08-15T09:20:28Z</time>
      </trkpt>
      <trkpt lat="45.4937" lon="6.73512">
        <ele>2691.5</ele>
        <time>2021-08-15T09:20:29Z</time>
      </trkpt>
      <trkpt lat="45.49369" lon="6.73512">
        <ele>2691.5</ele>
        <time>2021-08-15T09:20:30Z</time>
      </trkpt>
      <trkpt lat="45.49369" lon="6.73512">
        <ele>2691.5</ele>
        <time>2021-08-15T09:20:31Z</time>
      </trkpt>
      <trkpt lat="45.49368" lon="6.73512">
        <ele>2692</ele>
        <time>2021-08-15T09:20:32Z</time>
      </trkpt>
      <trkpt lat="45.49368" lon="6.73512">
        <ele>2692</ele>
        <time>2021-08-15T09:20:33Z</time>
      </trkpt>
      <trkpt lat="45.49367" lon="6.73512">
        <ele>2692</ele>
        <time>2021-08-15T09:20:34Z</time>
      </trkpt>
      <trkpt lat="45.49366" lon="6.73512">
        <ele>2692</ele>
        <time>2021-08-15T09:20:35Z</time>
      </trkpt>
      <trkpt lat="45.49365" lon="6.73512">
        <ele>2692.5</ele>
        <time>2021-08-15T09:20:36Z</time>
      </trkpt>
      <trkpt lat="45.49364" lon="6.73512">
        <ele>2692.5</ele>
        <time>2021-08-15T09:20:37Z</time>
      </trkpt>
      <trkpt lat="45.49363" lon="6.73513">
        <ele>2692.5</ele>
        <time>2021-08-15T09:20:38Z</time>
      </trkpt>
      <trkpt lat="45.49362" lon="6.73513">
        <ele>2693</ele>
        <time>2021-08-15T09:20:39Z</time>
      </trkpt>
      <trkpt lat="45.49361" lon="6.73513">
        <ele>2693</ele>
        <time>2021-08-15T09:20:40Z</time>
      </trkpt>
      <trkpt lat="45.4936" lon="6.73513">
        <ele>2693</ele>
        <time>2021-08-15T09:20:41Z</time>
      </trkpt>
      <trkpt lat="45.49359" lon="6.73513">
        <ele>2693.5</ele>
        <time>2021-08-15T09:20:42Z</time>
      </trkpt>
      <trkpt lat="45.49358" lon="6.73514">
        <ele>2694.1</ele>
        <time>2021-08-15T09:20:43Z</time>
      </trkpt>
      <trkpt lat="45.49357" lon="6.73514">
        <ele>2694.1</ele>
        <time>2021-08-15T09:20:44Z</time>
      </trkpt>
      <trkpt lat="45.49356" lon="6.73514">
        <ele>2694.1</ele>
        <time>2021-08-15T09:20:45Z</time>
      </trkpt>
      <trkpt lat="45.49356" lon="6.73514">
        <ele>2694.5</ele>
        <time>2021-08-15T09:20:46Z</time>
      </trkpt>
      <trkpt lat="45.49355" lon="6.73515">
        <ele>2694.5</ele>
        <time>2021-08-15T09:20:47Z</time>
      </trkpt>
      <trkpt lat="45.49354" lon="6.73515">
        <ele>2694.5</ele>
        <time>2021-08-15T09:20:48Z</time>
      </trkpt>
      <trkpt lat="45.49353" lon="6.73515">
        <ele>2694.9</ele>
        <time>2021-08-15T09:20:49Z</time>
      </trkpt>
      <trkpt lat="45.49352" lon="6.73515">
        <ele>2694.9</ele>
        <time>2021-08-15T09:20:50Z</time>
      </trkpt>
      <trkpt lat="45.49351" lon="6.73516">
        <ele>2694.9</ele>
        <time>2021-08-15T09:20:51Z</time>
      </trkpt>
      <trkpt lat="45.4935" lon="6.73516">
        <ele>2694.9</ele>
        <time>2021-08-15T09:20:52Z</time>
      </trkpt>
      <trkpt lat="45.4935" lon="6.73516">
        <ele>2695.2</ele>
        <time>2021-08-15T09:20:53Z</time>
      </trkpt>
      <trkpt lat="45.49349" lon="6.73517">
        <ele>2695.2</ele>
        <time>2021-08-15T09:20:54Z</time>
      </trkpt>
      <trkpt lat="45.49348" lon="6.73517">
        <ele>2695.2</ele>
        <time>2021-08-15T09:20:55Z</time>
      </trkpt>
      <trkpt lat="45.49347" lon="6.73517">
        <ele>2695.3</ele>
        <time>2021-08-15T09:20:56Z</time>
      </trkpt>
      <trkpt lat="45.49346" lon="6.73517">
        <ele>2695.3</ele>
        <time>2021-08-15T09:20:57Z</time>
      </trkpt>
      <trkpt lat="45.49345" lon="6.73518">
        <ele>2695.3</ele>
        <time>2021-08-15T09:20:58Z</time>
      </trkpt>
      <trkpt lat="45.49344" lon="6.73518">
        <ele>2695.4</ele>
        <time>2021-08-15T09:20:59Z</time>
      </trkpt>
      <trkpt lat="45.49343" lon="6.73518">
        <ele>2695.9</ele>
        <time>2021-08-15T09:21:00Z</time>
      </trkpt>
      <trkpt lat="45.49342" lon="6.73518">
        <ele>2695.9</ele>
        <time>2021-08-15T09:21:01Z</time>
      </trkpt>
      <trkpt lat="45.49341" lon="6.73518">
        <ele>2695.9</ele>
        <time>2021-08-15T09:21:02Z</time>
      </trkpt>
      <trkpt lat="45.4934" lon="6.73518">
        <ele>2695.9</ele>
        <time>2021-08-15T09:21:03Z</time>
      </trkpt>
      <trkpt lat="45.49339" lon="6.73518">
        <ele>2695.9</ele>
        <time>2021-08-15T09:21:04Z</time>
      </trkpt>
      <trkpt lat="45.49338" lon="6.73518">
        <ele>2695.7</ele>
        <time>2021-08-15T09:21:05Z</time>
      </trkpt>
      <trkpt lat="45.49337" lon="6.73518">
        <ele>2695.7</ele>
        <time>2021-08-15T09:21:06Z</time>
      </trkpt>
      <trkpt lat="45.49336" lon="6.73518">
        <ele>2695.7</ele>
        <time>2021-08-15T09:21:07Z</time>
      </trkpt>
      <trkpt lat="45.49335" lon="6.73518">
        <ele>2695.5</ele>
        <time>2021-08-15T09:21:08Z</time>
      </trkpt>
      <trkpt lat="45.49334" lon="6.73518">
        <ele>2695.5</ele>
        <time>2021-08-15T09:21:09Z</time>
      </trkpt>
      <trkpt lat="45.49333" lon="6.73518">
        <ele>2695.5</ele>
        <time>2021-08-15T09:21:10Z</time>
      </trkpt>
      <trkpt lat="45.49332" lon="6.73518">
        <ele>2695.3</ele>
        <time>2021-08-15T09:21:11Z</time>
      </trkpt>
      <trkpt lat="45.49331" lon="6.73518">
        <ele>2695.3</ele>
        <time>2021-08-15T09:21:12Z</time>
      </trkpt>
      <trkpt lat="45.4933" lon="6.73518">
        <ele>2695.3</ele>
        <time>2021-08-15T09:21:13Z</time>
      </trkpt>
      <trkpt lat="45.49329" lon="6.73518">
        <ele>2695</ele>
        <time>2021-08-15T09:21:14Z</time>
      </trkpt>
      <trkpt lat="45.49328" lon="6.73518">
        <ele>2695</ele>
        <time>2021-08-15T09:21:15Z</time>
      </trkpt>
      <trkpt lat="45.49327" lon="6.73518">
        <ele>2695</ele>
        <time>2021-08-15T09:21:16Z</time>
      </trkpt>
      <trkpt lat="45.49327" lon="6.73518">
        <ele>2695</ele>
        <time>2021-08-15T09:21:17Z</time>
      </trkpt>
      <trkpt lat="45.49326" lon="6.73518">
        <ele>2694.3</ele>
        <time>2021-08-15T09:21:18Z</time>
      </trkpt>
      <trkpt lat="45.49325" lon="6.73518">
        <ele>2694.3</ele>
        <time>2021-08-15T09:21:19Z</time>
      </trkpt>
      <trkpt lat="45.49325" lon="6.73518">
        <ele>2694.3</ele>
        <time>2021-08-15T09:21:20Z</time>
      </trkpt>
      <trkpt lat="45.49324" lon="6.73517">
        <ele>2694.3</ele>
        <time>2021-08-15T09:21:21Z</time>
      </trkpt>
      <trkpt lat="45.49324" lon="6.73517">
        <ele>2694.3</ele>
        <time>2021-08-15T09:21:22Z</time>
      </trkpt>
      <trkpt lat="45.49323" lon="6.73516">
        <ele>2694</ele>
        <time>2021-08-15T09:21:23Z</time>
      </trkpt>
      <trkpt lat="45.49323" lon="6.73516">
        <ele>2694</ele>
        <time>2021-08-15T09:21:24Z</time>
      </trkpt>
      <trkpt lat="45.49322" lon="6.73515">
        <ele>2694</ele>
        <time>2021-08-15T09:21:25Z</time>
      </trkpt>
      <trkpt lat="45.49322" lon="6.73513">
        <ele>2693.6</ele>
        <time>2021-08-15T09:21:26Z</time>
      </trkpt>
      <trkpt lat="45.49321" lon="6.73512">
        <ele>2693.6</ele>
        <time>2021-08-15T09:21:27Z</time>
      </trkpt>
      <trkpt lat="45.49321" lon="6.73511">
        <ele>2693.6</ele>
        <time>2021-08-15T09:21:28Z</time>
      </trkpt>
      <trkpt lat="45.4932" lon="6.7351">
        <ele>2693.3</ele>
        <time>2021-08-15T09:21:29Z</time>
      </trkpt>
      <trkpt lat="45.49319" lon="6.73509">
        <ele>2692.9</ele>
        <time>2021-08-15T09:21:30Z</time>
      </trkpt>
      <trkpt lat="45.49319" lon="6.73508">
        <ele>2692.9</ele>
        <time>2021-08-15T09:21:31Z</time>
      </trkpt>
      <trkpt lat="45.49318" lon="6.73508">
        <ele>2692.9</ele>
        <time>2021-08-15T09:21:32Z</time>
      </trkpt>
      <trkpt lat="45.49317" lon="6.73508">
        <ele>2692.7</ele>
        <time>2021-08-15T09:21:33Z</time>
      </trkpt>
      <trkpt lat="45.49316" lon="6.73508">
        <ele>2692.7</ele>
        <time>2021-08-15T09:21:34Z</time>
      </trkpt>
      <trkpt lat="45.49315" lon="6.73509">
        <ele>2692.7</ele>
        <time>2021-08-15T09:21:35Z</time>
      </trkpt>
      <trkpt lat="45.49314" lon="6.73509">
        <ele>2692.5</ele>
        <time>2021-08-15T09:21:36Z</time>
      </trkpt>
      <trkpt lat="45.49313" lon="6.73509">
        <ele>2692.5</ele>
        <time>2021-08-15T09:21:37Z</time>
      </trkpt>
      <trkpt lat="45.49312" lon="6.73509">
        <ele>2692.9</ele>
        <time>2021-08-15T09:21:38Z</time>
      </trkpt>
      <trkpt lat="45.49311" lon="6.7351">
        <ele>2692.9</ele>
        <time>2021-08-15T09:21:39Z</time>
      </trkpt>
      <trkpt lat="45.49311" lon="6.7351">
        <ele>2692.6</ele>
        <time>2021-08-15T09:21:40Z</time>
      </trkpt>
      <trkpt lat="45.4931" lon="6.7351">
        <ele>2692.6</ele>
        <time>2021-08-15T09:21:41Z</time>
      </trkpt>
      <trkpt lat="45.49309" lon="6.73509">
        <ele>2692.6</ele>
        <time>2021-08-15T09:21:42Z</time>
      </trkpt>
      <trkpt lat="45.49309" lon="6.73509">
        <ele>2692.6</ele>
        <time>2021-08-15T09:21:43Z</time>
      </trkpt>
      <trkpt lat="45.49308" lon="6.73509">
        <ele>2692</ele>
        <time>2021-08-15T09:21:44Z</time>
      </trkpt>
      <trkpt lat="45.49308" lon="6.73509">
        <ele>2692</ele>
        <time>2021-08-15T09:21:45Z</time>
      </trkpt>
      <trkpt lat="45.49307" lon="6.73508">
        <ele>2692</ele>
        <time>2021-08-15T09:21:46Z</time>
      </trkpt>
      <trkpt lat="45.49307" lon="6.73507">
        <ele>2692</ele>
        <time>2021-08-15T09:21:47Z</time>
      </trkpt>
      <trkpt lat="45.49306" lon="6.73507">
        <ele>2692</ele>
        <time>2021-08-15T09:21:48Z</time>
      </trkpt>
      <trkpt lat="45.49306" lon="6.73506">
        <ele>2692</ele>
        <time>2021-08-15T09:21:49Z</time>
      </trkpt>
      <trkpt lat="45.49305" lon="6.73506">
        <ele>2691.7</ele>
        <time>2021-08-15T09:21:50Z</time>
      </trkpt>
      <trkpt lat="45.49304" lon="6.73505">
        <ele>2691.7</ele>
        <time>2021-08-15T09:21:51Z</time>
      </trkpt>
      <trkpt lat="45.49304" lon="6.73504">
        <ele>2691.3</ele>
        <time>2021-08-15T09:21:52Z</time>
      </trkpt>
      <trkpt lat="45.49303" lon="6.73504">
        <ele>2691.3</ele>
        <time>2021-08-15T09:21:53Z</time>
      </trkpt>
      <trkpt lat="45.49303" lon="6.73503">
        <ele>2691.3</ele>
        <time>2021-08-15T09:21:54Z</time>
      </trkpt>
      <trkpt lat="45.49302" lon="6.73502">
        <ele>2691.3</ele>
        <time>2021-08-15T09:21:55Z</time>
      </trkpt>
      <trkpt lat="45.49302" lon="6.73501">
        <ele>2691</ele>
        <time>2021-08-15T09:21:56Z</time>
      </trkpt>
      <trkpt lat="45.49301" lon="6.73501">
        <ele>2691</ele>
        <time>2021-08-15T09:21:57Z</time>
      </trkpt>
      <trkpt lat="45.49301" lon="6.735">
        <ele>2690.5</ele>
        <time>2021-08-15T09:21:58Z</time>
      </trkpt>
      <trkpt lat="45.493" lon="6.73499">
        <ele>2690.5</ele>
        <time>2021-08-15T09:21:59Z</time>
      </trkpt>
      <trkpt lat="45.493" lon="6.73498">
        <ele>2690.5</ele>
        <time>2021-08-15T09:22:00Z</time>
      </trkpt>
      <trkpt lat="45.49299" lon="6.73497">
        <ele>2690.2</ele>
        <time>2021-08-15T09:22:01Z</time>
      </trkpt>
      <trkpt lat="45.49299" lon="6.73497">
        <ele>2690.2</ele>
        <time>2021-08-15T09:22:02Z</time>
      </trkpt>
      <trkpt lat="45.49298" lon="6.73496">
        <ele>2689.7</ele>
        <time>2021-08-15T09:22:03Z</time>
      </trkpt>
      <trkpt lat="45.49298" lon="6.73495">
        <ele>2689.7</ele>
        <time>2021-08-15T09:22:04Z</time>
      </trkpt>
      <trkpt lat="45.49297" lon="6.73494">
        <ele>2689.7</ele>
        <time>2021-08-15T09:22:05Z</time>
      </trkpt>
      <trkpt lat="45.49297" lon="6.73493">
        <ele>2689.7</ele>
        <time>2021-08-15T09:22:06Z</time>
      </trkpt>
      <trkpt lat="45.49296" lon="6.73492">
        <ele>2689.4</ele>
        <time>2021-08-15T09:22:07Z</time>
      </trkpt>
      <trkpt lat="45.49296" lon="6.73491">
        <ele>2688.8</ele>
        <time>2021-08-15T09:22:08Z</time>
      </trkpt>
      <trkpt lat="45.49295" lon="6.7349">
        <ele>2688.8</ele>
        <time>2021-08-15T09:22:09Z</time>
      </trkpt>
      <trkpt lat="45.49295" lon="6.73489">
        <ele>2688.8</ele>
        <time>2021-08-15T09:22:10Z</time>
      </trkpt>
      <trkpt lat="45.49294" lon="6.73489">
        <ele>2688.8</ele>
        <time>2021-08-15T09:22:11Z</time>
      </trkpt>
      <trkpt lat="45.49294" lon="6.73488">
        <ele>2688.8</ele>
        <time>2021-08-15T09:22:12Z</time>
      </trkpt>
      <trkpt lat="45.49293" lon="6.73487">
        <ele>2687.9</ele>
        <time>2021-08-15T09:22:13Z</time>
      </trkpt>
      <trkpt lat="45.49293" lon="6.73486">
        <ele>2687.9</ele>
        <time>2021-08-15T09:22:14Z</time>
      </trkpt>
      <trkpt lat="45.49292" lon="6.73485">
        <ele>2687.9</ele>
        <time>2021-08-15T09:22:15Z</time>
      </trkpt>
      <trkpt lat="45.49291" lon="6.73484">
        <ele>2687.9</ele>
        <time>2021-08-15T09:22:16Z</time>
      </trkpt>
      <trkpt lat="45.49291" lon="6.73484">
        <ele>2687.9</ele>
        <time>2021-08-15T09:22:17Z</time>
      </trkpt>
      <trkpt lat="45.4929" lon="6.73483">
        <ele>2687</ele>
        <time>2021-08-15T09:22:18Z</time>
      </trkpt>
      <trkpt lat="45.4929" lon="6.73482">
        <ele>2687</ele>
        <time>2021-08-15T09:22:19Z</time>
      </trkpt>
      <trkpt lat="45.49289" lon="6.73481">
        <ele>2687</ele>
        <time>2021-08-15T09:22:20Z</time>
      </trkpt>
      <trkpt lat="45.49288" lon="6.73481">
        <ele>2687</ele>
        <time>2021-08-15T09:22:21Z</time>
      </trkpt>
      <trkpt lat="45.49287" lon="6.7348">
        <ele>2687</ele>
        <time>2021-08-15T09:22:22Z</time>
      </trkpt>
      <trkpt lat="45.49287" lon="6.73479">
        <ele>2686.6</ele>
        <time>2021-08-15T09:22:23Z</time>
      </trkpt>
      <trkpt lat="45.49286" lon="6.73479">
        <ele>2686</ele>
        <time>2021-08-15T09:22:24Z</time>
      </trkpt>
      <trkpt lat="45.49285" lon="6.73478">
        <ele>2686</ele>
        <time>2021-08-15T09:22:25Z</time>
      </trkpt>
      <trkpt lat="45.49284" lon="6.73478">
        <ele>2686</ele>
        <time>2021-08-15T09:22:26Z</time>
      </trkpt>
      <trkpt lat="45.49284" lon="6.73477">
        <ele>2685.5</ele>
        <time>2021-08-15T09:22:27Z</time>
      </trkpt>
      <trkpt lat="45.49283" lon="6.73476">
        <ele>2685.5</ele>
        <time>2021-08-15T09:22:28Z</time>
      </trkpt>
      <trkpt lat="45.49282" lon="6.73476">
        <ele>2685.5</ele>
        <time>2021-08-15T09:22:29Z</time>
      </trkpt>
      <trkpt lat="45.49281" lon="6.73475">
        <ele>2685</ele>
        <time>2021-08-15T09:22:30Z</time>
      </trkpt>
      <trkpt lat="45.4928" lon="6.73475">
        <ele>2684.5</ele>
        <time>2021-08-15T09:22:31Z</time>
      </trkpt>
      <trkpt lat="45.49279" lon="6.73474">
        <ele>2684.5</ele>
        <time>2021-08-15T09:22:32Z</time>
      </trkpt>
      <trkpt lat="45.49279" lon="6.73474">
        <ele>2684.5</ele>
        <time>2021-08-15T09:22:33Z</time>
      </trkpt>
      <trkpt lat="45.49278" lon="6.73473">
        <ele>2683.9</ele>
        <time>2021-08-15T09:22:34Z</time>
      </trkpt>
      <trkpt lat="45.49277" lon="6.73473">
        <ele>2683.9</ele>
        <time>2021-08-15T09:22:35Z</time>
      </trkpt>
      <trkpt lat="45.49276" lon="6.73472">
        <ele>2683.9</ele>
        <time>2021-08-15T09:22:36Z</time>
      </trkpt>
      <trkpt lat="45.49275" lon="6.73472">
        <ele>2683.9</ele>
        <time>2021-08-15T09:22:37Z</time>
      </trkpt>
      <trkpt lat="45.49275" lon="6.73471">
        <ele>2683.3</ele>
        <time>2021-08-15T09:22:38Z</time>
      </trkpt>
      <trkpt lat="45.49274" lon="6.7347">
        <ele>2682.9</ele>
        <time>2021-08-15T09:22:39Z</time>
      </trkpt>
      <trkpt lat="45.49273" lon="6.7347">
        <ele>2682.9</ele>
        <time>2021-08-15T09:22:40Z</time>
      </trkpt>
      <trkpt lat="45.49272" lon="6.73469">
        <ele>2682.9</ele>
        <time>2021-08-15T09:22:41Z</time>
      </trkpt>
      <trkpt lat="45.49271" lon="6.73469">
        <ele>2682.3</ele>
        <time>2021-08-15T09:22:42Z</time>
      </trkpt>
      <trkpt lat="45.49271" lon="6.73468">
        <ele>2682.3</ele>
        <time>2021-08-15T09:22:43Z</time>
      </trkpt>
      <trkpt lat="45.4927" lon="6.73468">
        <ele>2682.3</ele>
        <time>2021-08-15T09:22:44Z</time>
      </trkpt>
      <trkpt lat="45.49269" lon="6.73467">
        <ele>2682.3</ele>
        <time>2021-08-15T09:22:45Z</time>
      </trkpt>
      <trkpt lat="45.49268" lon="6.73466">
        <ele>2681.7</ele>
        <time>2021-08-15T09:22:46Z</time>
      </trkpt>
      <trkpt lat="45.49268" lon="6.73466">
        <ele>2681.3</ele>
        <time>2021-08-15T09:22:47Z</time>
      </trkpt>
      <trkpt lat="45.49267" lon="6.73465">
        <ele>2681.3</ele>
        <time>2021-08-15T09:22:48Z</time>
      </trkpt>
      <trkpt lat="45.49266" lon="6.73464">
        <ele>2681.3</ele>
        <time>2021-08-15T09:22:49Z</time>
      </trkpt>
      <trkpt lat="45.49266" lon="6.73464">
        <ele>2680.8</ele>
        <time>2021-08-15T09:22:50Z</time>
      </trkpt>
      <trkpt lat="45.49265" lon="6.73463">
        <ele>2680.8</ele>
        <time>2021-08-15T09:22:51Z</time>
      </trkpt>
      <trkpt lat="45.49264" lon="6.73463">
        <ele>2680.8</ele>
        <time>2021-08-15T09:22:52Z</time>
      </trkpt>
      <trkpt lat="45.49263" lon="6.73462">
        <ele>2680.2</ele>
        <time>2021-08-15T09:22:53Z</time>
      </trkpt>
      <trkpt lat="45.49263" lon="6.73461">
        <ele>2679.8</ele>
        <time>2021-08-15T09:22:54Z</time>
      </trkpt>
      <trkpt lat="45.49262" lon="6.73461">
        <ele>2679.8</ele>
        <time>2021-08-15T09:22:55Z</time>
      </trkpt>
      <trkpt lat="45.49261" lon="6.7346">
        <ele>2679.8</ele>
        <time>2021-08-15T09:22:56Z</time>
      </trkpt>
      <trkpt lat="45.4926" lon="6.7346">
        <ele>2679.8</ele>
        <time>2021-08-15T09:22:57Z</time>
      </trkpt>
      <trkpt lat="45.4926" lon="6.73459">
        <ele>2679.3</ele>
        <time>2021-08-15T09:22:58Z</time>
      </trkpt>
      <trkpt lat="45.49259" lon="6.73458">
        <ele>2679.3</ele>
        <time>2021-08-15T09:22:59Z</time>
      </trkpt>
      <trkpt lat="45.49258" lon="6.73458">
        <ele>2679.3</ele>
        <time>2021-08-15T09:23:00Z</time>
      </trkpt>
      <trkpt lat="45.49257" lon="6.73457">
        <ele>2678.9</ele>
        <time>2021-08-15T09:23:01Z</time>
      </trkpt>
      <trkpt lat="45.49256" lon="6.73457">
        <ele>2678.4</ele>
        <time>2021-08-15T09:23:02Z</time>
      </trkpt>
      <trkpt lat="45.49256" lon="6.73456">
        <ele>2678.4</ele>
        <time>2021-08-15T09:23:03Z</time>
      </trkpt>
      <trkpt lat="45.49255" lon="6.73456">
        <ele>2678.4</ele>
        <time>2021-08-15T09:23:04Z</time>
      </trkpt>
      <trkpt lat="45.49254" lon="6.73455">
        <ele>2678.4</ele>
        <time>2021-08-15T09:23:05Z</time>
      </trkpt>
      <trkpt lat="45.49253" lon="6.73455">
        <ele>2677.8</ele>
        <time>2021-08-15T09:23:06Z</time>
      </trkpt>
      <trkpt lat="45.49253" lon="6.73454">
        <ele>2677.8</ele>
        <time>2021-08-15T09:23:07Z</time>
      </trkpt>
      <trkpt lat="45.49252" lon="6.73454">
        <ele>2677.8</ele>
        <time>2021-08-15T09:23:08Z</time>
      </trkpt>
      <trkpt lat="45.49252" lon="6.73454">
        <ele>2677.8</ele>
        <time>2021-08-15T09:23:09Z</time>
      </trkpt>
      <trkpt lat="45.49251" lon="6.73454">
        <ele>2677.1</ele>
        <time>2021-08-15T09:23:10Z</time>
      </trkpt>
      <trkpt lat="45.49251" lon="6.73453">
        <ele>2677.1</ele>
        <time>2021-08-15T09:23:11Z</time>
      </trkpt>
      <trkpt lat="45.4925" lon="6.73453">
        <ele>2676.8</ele>
        <time>2021-08-15T09:23:12Z</time>
      </trkpt>
      <trkpt lat="45.4925" lon="6.73453">
        <ele>2676.8</ele>
        <time>2021-08-15T09:23:13Z</time>
      </trkpt>
      <trkpt lat="45.49249" lon="6.73453">
        <ele>2676.8</ele>
        <time>2021-08-15T09:23:14Z</time>
      </trkpt>
      <trkpt lat="45.49249" lon="6.73453">
        <ele>2676.8</ele>
        <time>2021-08-15T09:23:15Z</time>
      </trkpt>
      <trkpt lat="45.49248" lon="6.73453">
        <ele>2676.8</ele>
        <time>2021-08-15T09:23:16Z</time>
      </trkpt>
      <trkpt lat="45.49248" lon="6.73453">
        <ele>2676.2</ele>
        <time>2021-08-15T09:23:17Z</time>
      </trkpt>
      <trkpt lat="45.49247" lon="6.73453">
        <ele>2676.2</ele>
        <time>2021-08-15T09:23:18Z</time>
      </trkpt>
      <trkpt lat="45.49247" lon="6.73452">
        <ele>2676.2</ele>
        <time>2021-08-15T09:23:19Z</time>
      </trkpt>
      <trkpt lat="45.49246" lon="6.73452">
        <ele>2676.2</ele>
        <time>2021-08-15T09:23:20Z</time>
      </trkpt>
      <trkpt lat="45.49246" lon="6.73452">
        <ele>2676.2</ele>
        <time>2021-08-15T09:23:21Z</time>
      </trkpt>
      <trkpt lat="45.49245" lon="6.73452">
        <ele>2676.2</ele>
        <time>2021-08-15T09:23:22Z</time>
      </trkpt>
      <trkpt lat="45.49245" lon="6.73451">
        <ele>2675.6</ele>
        <time>2021-08-15T09:23:23Z</time>
      </trkpt>
      <trkpt lat="45.49244" lon="6.73451">
        <ele>2675.6</ele>
        <time>2021-08-15T09:23:24Z</time>
      </trkpt>
      <trkpt lat="45.49243" lon="6.73451">
        <ele>2675.6</ele>
        <time>2021-08-15T09:23:25Z</time>
      </trkpt>
      <trkpt lat="45.49242" lon="6.7345">
        <ele>2675.6</ele>
        <time>2021-08-15T09:23:26Z</time>
      </trkpt>
      <trkpt lat="45.49241" lon="6.7345">
        <ele>2675</ele>
        <time>2021-08-15T09:23:27Z</time>
      </trkpt>
      <trkpt lat="45.4924" lon="6.73449">
        <ele>2675</ele>
        <time>2021-08-15T09:23:28Z</time>
      </trkpt>
      <trkpt lat="45.4924" lon="6.73449">
        <ele>2674.7</ele>
        <time>2021-08-15T09:23:29Z</time>
      </trkpt>
      <trkpt lat="45.49239" lon="6.73448">
        <ele>2674.2</ele>
        <time>2021-08-15T09:23:30Z</time>
      </trkpt>
      <trkpt lat="45.49238" lon="6.73447">
        <ele>2674.2</ele>
        <time>2021-08-15T09:23:31Z</time>
      </trkpt>
      <trkpt lat="45.49237" lon="6.73446">
        <ele>2674.2</ele>
        <time>2021-08-15T09:23:32Z</time>
      </trkpt>
      <trkpt lat="45.49237" lon="6.73446">
        <ele>2674.2</ele>
        <time>2021-08-15T09:23:33Z</time>
      </trkpt>
      <trkpt lat="45.49236" lon="6.73446">
        <ele>2674.2</ele>
        <time>2021-08-15T09:23:34Z</time>
      </trkpt>
      <trkpt lat="45.49236" lon="6.73446">
        <ele>2673.6</ele>
        <time>2021-08-15T09:23:35Z</time>
      </trkpt>
      <trkpt lat="45.49235" lon="6.73446">
        <ele>2673.6</ele>
        <time>2021-08-15T09:23:36Z</time>
      </trkpt>
      <trkpt lat="45.49235" lon="6.73446">
        <ele>2673.6</ele>
        <time>2021-08-15T09:23:37Z</time>
      </trkpt>
      <trkpt lat="45.49234" lon="6.73446">
        <ele>2673.6</ele>
        <time>2021-08-15T09:23:38Z</time>
      </trkpt>
      <trkpt lat="45.49234" lon="6.73446">
        <ele>2673.6</ele>
        <time>2021-08-15T09:23:39Z</time>
      </trkpt>
      <trkpt lat="45.49234" lon="6.73446">
        <ele>2673.6</ele>
        <time>2021-08-15T09:23:40Z</time>
      </trkpt>
      <trkpt lat="45.49234" lon="6.73446">
        <ele>2673.6</ele>
        <time>2021-08-15T09:23:41Z</time>
      </trkpt>
      <trkpt lat="45.49233" lon="6.73446">
        <ele>2673.6</ele>
        <time>2021-08-15T09:23:42Z</time>
      </trkpt>
      <trkpt lat="45.49233" lon="6.73446">
        <ele>2673.6</ele>
        <time>2021-08-15T09:23:43Z</time>
      </trkpt>
      <trkpt lat="45.49233" lon="6.73446">
        <ele>2673.6</ele>
        <time>2021-08-15T09:23:44Z</time>
      </trkpt>
      <trkpt lat="45.49233" lon="6.73446">
        <ele>2673.6</ele>
        <time>2021-08-15T09:23:45Z</time>
      </trkpt>
      <trkpt lat="45.49233" lon="6.73446">
        <ele>2672.9</ele>
        <time>2021-08-15T09:23:46Z</time>
      </trkpt>
      <trkpt lat="45.49233" lon="6.73446">
        <ele>2672.9</ele>
        <time>2021-08-15T09:23:47Z</time>
      </trkpt>
      <trkpt lat="45.49233" lon="6.73446">
        <ele>2672.9</ele>
        <time>2021-08-15T09:23:48Z</time>
      </trkpt>
      <trkpt lat="45.49233" lon="6.73446">
        <ele>2672.9</ele>
        <time>2021-08-15T09:23:49Z</time>
      </trkpt>
      <trkpt lat="45.49233" lon="6.73446">
        <ele>2672.9</ele>
        <time>2021-08-15T09:23:50Z</time>
      </trkpt>
      <trkpt lat="45.49233" lon="6.73446">
        <ele>2673.6</ele>
        <time>2021-08-15T09:23:51Z</time>
      </trkpt>
      <trkpt lat="45.49233" lon="6.73446">
        <ele>2673.6</ele>
        <time>2021-08-15T09:23:52Z</time>
      </trkpt>
      <trkpt lat="45.49233" lon="6.73446">
        <ele>2673.6</ele>
        <time>2021-08-15T09:23:53Z</time>
      </trkpt>
      <trkpt lat="45.49233" lon="6.73446">
        <ele>2673.6</ele>
        <time>2021-08-15T09:23:54Z</time>
      </trkpt>
      <trkpt lat="45.49233" lon="6.73446">
        <ele>2673.6</ele>
        <time>2021-08-15T09:23:55Z</time>
      </trkpt>
      <trkpt lat="45.49233" lon="6.73446">
        <ele>2673.6</ele>
        <time>2021-08-15T09:23:56Z</time>
      </trkpt>
      <trkpt lat="45.49233" lon="6.73446">
        <ele>2673.6</ele>
        <time>2021-08-15T09:23:57Z</time>
      </trkpt>
      <trkpt lat="45.49233" lon="6.73446">
        <ele>2673.6</ele>
        <time>2021-08-15T09:23:58Z</time>
      </trkpt>
      <trkpt lat="45.49233" lon="6.73446">
        <ele>2672.9</ele>
        <time>2021-08-15T09:23:59Z</time>
      </trkpt>
      <trkpt lat="45.49233" lon="6.73446">
        <ele>2672.9</ele>
        <time>2021-08-15T09:24:00Z</time>
      </trkpt>
      <trkpt lat="45.49233" lon="6.73446">
        <ele>2672.9</ele>
        <time>2021-08-15T09:24:01Z</time>
      </trkpt>
      <trkpt lat="45.49233" lon="6.73446">
        <ele>2672.9</ele>
        <time>2021-08-15T09:24:02Z</time>
      </trkpt>
      <trkpt lat="45.49233" lon="6.73446">
        <ele>2672.9</ele>
        <time>2021-08-15T09:24:03Z</time>
      </trkpt>
      <trkpt lat="45.49233" lon="6.73446">
        <ele>2672.9</ele>
        <time>2021-08-15T09:24:04Z</time>
      </trkpt>
      <trkpt lat="45.49233" lon="6.73446">
        <ele>2672.9</ele>
        <time>2021-08-15T09:24:05Z</time>
      </trkpt>
      <trkpt lat="45.49232" lon="6.73446">
        <ele>2672.9</ele>
        <time>2021-08-15T09:24:06Z</time>
      </trkpt>
      <trkpt lat="45.49232" lon="6.73446">
        <ele>2672.9</ele>
        <time>2021-08-15T09:24:07Z</time>
      </trkpt>
      <trkpt lat="45.49231" lon="6.73445">
        <ele>2672.8</ele>
        <time>2021-08-15T09:24:08Z</time>
      </trkpt>
      <trkpt lat="45.49231" lon="6.73444">
        <ele>2672.8</ele>
        <time>2021-08-15T09:24:09Z</time>
      </trkpt>
      <trkpt lat="45.49231" lon="6.73443">
        <ele>2672.8</ele>
        <time>2021-08-15T09:24:10Z</time>
      </trkpt>
      <trkpt lat="45.49231" lon="6.73443">
        <ele>2672.8</ele>
        <time>2021-08-15T09:24:11Z</time>
      </trkpt>
      <trkpt lat="45.49231" lon="6.73443">
        <ele>2672.8</ele>
        <time>2021-08-15T09:24:12Z</time>
      </trkpt>
      <trkpt lat="45.49231" lon="6.73443">
        <ele>2672.8</ele>
        <time>2021-08-15T09:24:13Z</time>
      </trkpt>
      <trkpt lat="45.49231" lon="6.73443">
        <ele>2672.8</ele>
        <time>2021-08-15T09:24:14Z</time>
      </trkpt>
      <trkpt lat="45.49231" lon="6.73442">
        <ele>2672.8</ele>
        <time>2021-08-15T09:24:15Z</time>
      </trkpt>
      <trkpt lat="45.49231" lon="6.73441">
        <ele>2672.8</ele>
        <time>2021-08-15T09:24:16Z</time>
      </trkpt>
      <trkpt lat="45.49231" lon="6.73441">
        <ele>2672.8</ele>
        <time>2021-08-15T09:24:17Z</time>
      </trkpt>
      <trkpt lat="45.49231" lon="6.7344">
        <ele>2672.6</ele>
        <time>2021-08-15T09:24:18Z</time>
      </trkpt>
      <trkpt lat="45.49231" lon="6.7344">
        <ele>2672.6</ele>
        <time>2021-08-15T09:24:19Z</time>
      </trkpt>
      <trkpt lat="45.49231" lon="6.73439">
        <ele>2672.6</ele>
        <time>2021-08-15T09:24:20Z</time>
      </trkpt>
      <trkpt lat="45.49231" lon="6.73439">
        <ele>2672.6</ele>
        <time>2021-08-15T09:24:21Z</time>
      </trkpt>
      <trkpt lat="45.49231" lon="6.73439">
        <ele>2672.6</ele>
        <time>2021-08-15T09:24:22Z</time>
      </trkpt>
      <trkpt lat="45.49231" lon="6.73439">
        <ele>2672.6</ele>
        <time>2021-08-15T09:24:23Z</time>
      </trkpt>
      <trkpt lat="45.49231" lon="6.73439">
        <ele>2672.6</ele>
        <time>2021-08-15T09:24:24Z</time>
      </trkpt>
      <trkpt lat="45.49231" lon="6.73439">
        <ele>2672.6</ele>
        <time>2021-08-15T09:24:25Z</time>
      </trkpt>
      <trkpt lat="45.49231" lon="6.73439">
        <ele>2672.6</ele>
        <time>2021-08-15T09:24:26Z</time>
      </trkpt>
      <trkpt lat="45.49231" lon="6.73439">
        <ele>2672.6</ele>
        <time>2021-08-15T09:24:27Z</time>
      </trkpt>
      <trkpt lat="45.49231" lon="6.73439">
        <ele>2672.6</ele>
        <time>2021-08-15T09:24:28Z</time>
      </trkpt>
      <trkpt lat="45.49231" lon="6.73439">
        <ele>2672.6</ele>
        <time>2021-08-15T09:24:29Z</time>
      </trkpt>
      <trkpt lat="45.49231" lon="6.73439">
        <ele>2672.6</ele>
        <time>2021-08-15T09:24:30Z</time>
      </trkpt>
      <trkpt lat="45.49231" lon="6.73439">
        <ele>2672.6</ele>
        <time>2021-08-15T09:24:31Z</time>
      </trkpt>
      <trkpt lat="45.49231" lon="6.73439">
        <ele>2672.6</ele>
        <time>2021-08-15T09:24:32Z</time>
      </trkpt>
      <trkpt lat="45.49231" lon="6.73439">
        <ele>2672.6</ele>
        <time>2021-08-15T09:24:33Z</time>
      </trkpt>
      <trkpt lat="45.49231" lon="6.73439">
        <ele>2672.6</ele>
        <time>2021-08-15T09:24:34Z</time>
      </trkpt>
      <trkpt lat="45.49231" lon="6.73439">
        <ele>2672.6</ele>
        <time>2021-08-15T09:24:35Z</time>
      </trkpt>
      <trkpt lat="45.49231" lon="6.73439">
        <ele>2672.6</ele>
        <time>2021-08-15T09:24:36Z</time>
      </trkpt>
      <trkpt lat="45.49231" lon="6.73439">
        <ele>2672.6</ele>
        <time>2021-08-15T09:24:37Z</time>
      </trkpt>
      <trkpt lat="45.49231" lon="6.73438">
        <ele>2672.6</ele>
        <time>2021-08-15T09:24:38Z</time>
      </trkpt>
      <trkpt lat="45.49231" lon="6.73438">
        <ele>2672.6</ele>
        <time>2021-08-15T09:24:39Z</time>
      </trkpt>
      <trkpt lat="45.49231" lon="6.73438">
        <ele>2672.6</ele>
        <time>2021-08-15T09:24:40Z</time>
      </trkpt>
      <trkpt lat="45.49231" lon="6.73437">
        <ele>2672.6</ele>
        <time>2021-08-15T09:24:41Z</time>
      </trkpt>
      <trkpt lat="45.49231" lon="6.73437">
        <ele>2672.6</ele>
        <time>2021-08-15T09:24:42Z</time>
      </trkpt>
      <trkpt lat="45.4923" lon="6.73436">
        <ele>2672.3</ele>
        <time>2021-08-15T09:24:43Z</time>
      </trkpt>
      <trkpt lat="45.4923" lon="6.73435">
        <ele>2672.3</ele>
        <time>2021-08-15T09:24:44Z</time>
      </trkpt>
      <trkpt lat="45.4923" lon="6.73435">
        <ele>2672.3</ele>
        <time>2021-08-15T09:24:45Z</time>
      </trkpt>
      <trkpt lat="45.4923" lon="6.73434">
        <ele>2672.3</ele>
        <time>2021-08-15T09:24:46Z</time>
      </trkpt>
      <trkpt lat="45.4923" lon="6.73433">
        <ele>2671.7</ele>
        <time>2021-08-15T09:24:47Z</time>
      </trkpt>
      <trkpt lat="45.4923" lon="6.73433">
        <ele>2671.7</ele>
        <time>2021-08-15T09:24:48Z</time>
      </trkpt>
      <trkpt lat="45.4923" lon="6.73432">
        <ele>2671.5</ele>
        <time>2021-08-15T09:24:49Z</time>
      </trkpt>
      <trkpt lat="45.49229" lon="6.73431">
        <ele>2671.5</ele>
        <time>2021-08-15T09:24:50Z</time>
      </trkpt>
      <trkpt lat="45.49229" lon="6.7343">
        <ele>2671.5</ele>
        <time>2021-08-15T09:24:51Z</time>
      </trkpt>
      <trkpt lat="45.49229" lon="6.7343">
        <ele>2671.5</ele>
        <time>2021-08-15T09:24:52Z</time>
      </trkpt>
      <trkpt lat="45.49228" lon="6.73429">
        <ele>2671.5</ele>
        <time>2021-08-15T09:24:53Z</time>
      </trkpt>
      <trkpt lat="45.49228" lon="6.73428">
        <ele>2671.5</ele>
        <time>2021-08-15T09:24:54Z</time>
      </trkpt>
      <trkpt lat="45.49227" lon="6.73428">
        <ele>2671.3</ele>
        <time>2021-08-15T09:24:55Z</time>
      </trkpt>
      <trkpt lat="45.49227" lon="6.73427">
        <ele>2670.7</ele>
        <time>2021-08-15T09:24:56Z</time>
      </trkpt>
      <trkpt lat="45.49226" lon="6.73427">
        <ele>2670.7</ele>
        <time>2021-08-15T09:24:57Z</time>
      </trkpt>
      <trkpt lat="45.49225" lon="6.73426">
        <ele>2670.7</ele>
        <time>2021-08-15T09:24:58Z</time>
      </trkpt>
      <trkpt lat="45.49225" lon="6.73426">
        <ele>2670.7</ele>
        <time>2021-08-15T09:24:59Z</time>
      </trkpt>
      <trkpt lat="45.49224" lon="6.73426">
        <ele>2670.7</ele>
        <time>2021-08-15T09:25:00Z</time>
      </trkpt>
      <trkpt lat="45.49223" lon="6.73425">
        <ele>2670.6</ele>
        <time>2021-08-15T09:25:01Z</time>
      </trkpt>
      <trkpt lat="45.49223" lon="6.73425">
        <ele>2670.6</ele>
        <time>2021-08-15T09:25:02Z</time>
      </trkpt>
      <trkpt lat="45.49222" lon="6.73425">
        <ele>2670.5</ele>
        <time>2021-08-15T09:25:03Z</time>
      </trkpt>
      <trkpt lat="45.49221" lon="6.73425">
        <ele>2670.4</ele>
        <time>2021-08-15T09:25:04Z</time>
      </trkpt>
      <trkpt lat="45.4922" lon="6.73424">
        <ele>2670.4</ele>
        <time>2021-08-15T09:25:05Z</time>
      </trkpt>
      <trkpt lat="45.4922" lon="6.73423">
        <ele>2670.3</ele>
        <time>2021-08-15T09:25:06Z</time>
      </trkpt>
      <trkpt lat="45.49219" lon="6.73422">
        <ele>2670.3</ele>
        <time>2021-08-15T09:25:07Z</time>
      </trkpt>
      <trkpt lat="45.49218" lon="6.73421">
        <ele>2670.2</ele>
        <time>2021-08-15T09:25:08Z</time>
      </trkpt>
      <trkpt lat="45.49218" lon="6.7342">
        <ele>2670.1</ele>
        <time>2021-08-15T09:25:09Z</time>
      </trkpt>
      <trkpt lat="45.49217" lon="6.73419">
        <ele>2670</ele>
        <time>2021-08-15T09:25:10Z</time>
      </trkpt>
      <trkpt lat="45.49217" lon="6.73417">
        <ele>2669.9</ele>
        <time>2021-08-15T09:25:11Z</time>
      </trkpt>
      <trkpt lat="45.49216" lon="6.73416">
        <ele>2669.8</ele>
        <time>2021-08-15T09:25:12Z</time>
      </trkpt>
      <trkpt lat="45.49216" lon="6.73414">
        <ele>2669.7</ele>
        <time>2021-08-15T09:25:13Z</time>
      </trkpt>
      <trkpt lat="45.49215" lon="6.73412">
        <ele>2669.6</ele>
        <time>2021-08-15T09:25:14Z</time>
      </trkpt>
      <trkpt lat="45.49214" lon="6.73411">
        <ele>2669.5</ele>
        <time>2021-08-15T09:25:15Z</time>
      </trkpt>
      <trkpt lat="45.49214" lon="6.7341">
        <ele>2669.4</ele>
        <time>2021-08-15T09:25:16Z</time>
      </trkpt>
      <trkpt lat="45.49213" lon="6.73408">
        <ele>2669.3</ele>
        <time>2021-08-15T09:25:17Z</time>
      </trkpt>
      <trkpt lat="45.49213" lon="6.73407">
        <ele>2669.2</ele>
        <time>2021-08-15T09:25:18Z</time>
      </trkpt>
      <trkpt lat="45.49212" lon="6.73406">
        <ele>2669.2</ele>
        <time>2021-08-15T09:25:19Z</time>
      </trkpt>
      <trkpt lat="45.49212" lon="6.73405">
        <ele>2669.1</ele>
        <time>2021-08-15T09:25:20Z</time>
      </trkpt>
      <trkpt lat="45.49211" lon="6.73404">
        <ele>2669</ele>
        <time>2021-08-15T09:25:21Z</time>
      </trkpt>
      <trkpt lat="45.49211" lon="6.73403">
        <ele>2669</ele>
        <time>2021-08-15T09:25:22Z</time>
      </trkpt>
      <trkpt lat="45.49211" lon="6.73403">
        <ele>2668.9</ele>
        <time>2021-08-15T09:25:23Z</time>
      </trkpt>
      <trkpt lat="45.4921" lon="6.73402">
        <ele>2668.9</ele>
        <time>2021-08-15T09:25:24Z</time>
      </trkpt>
      <trkpt lat="45.4921" lon="6.73402">
        <ele>2668.8</ele>
        <time>2021-08-15T09:25:25Z</time>
      </trkpt>
      <trkpt lat="45.4921" lon="6.73401">
        <ele>2668.8</ele>
        <time>2021-08-15T09:25:26Z</time>
      </trkpt>
      <trkpt lat="45.49209" lon="6.73401">
        <ele>2668.7</ele>
        <time>2021-08-15T09:25:27Z</time>
      </trkpt>
      <trkpt lat="45.49209" lon="6.73401">
        <ele>2668.7</ele>
        <time>2021-08-15T09:25:28Z</time>
      </trkpt>
      <trkpt lat="45.49209" lon="6.73401">
        <ele>2668.7</ele>
        <time>2021-08-15T09:25:29Z</time>
      </trkpt>
      <trkpt lat="45.49209" lon="6.73401">
        <ele>2668.7</ele>
        <time>2021-08-15T09:25:30Z</time>
      </trkpt>
      <trkpt lat="45.49209" lon="6.73401">
        <ele>2668.7</ele>
        <time>2021-08-15T09:25:31Z</time>
      </trkpt>
      <trkpt lat="45.49209" lon="6.73401">
        <ele>2668.7</ele>
        <time>2021-08-15T09:25:32Z</time>
      </trkpt>
      <trkpt lat="45.49209" lon="6.73401">
        <ele>2668.7</ele>
        <time>2021-08-15T09:25:33Z</time>
      </trkpt>
      <trkpt lat="45.49209" lon="6.73401">
        <ele>2668.7</ele>
        <time>2021-08-15T09:25:34Z</time>
      </trkpt>
      <trkpt lat="45.49209" lon="6.73401">
        <ele>2668.7</ele>
        <time>2021-08-15T09:25:35Z</time>
      </trkpt>
      <trkpt lat="45.49209" lon="6.73401">
        <ele>2668.7</ele>
        <time>2021-08-15T09:25:36Z</time>
      </trkpt>
      <trkpt lat="45.49209" lon="6.73401">
        <ele>2668.7</ele>
        <time>2021-08-15T09:25:37Z</time>
      </trkpt>
      <trkpt lat="45.49209" lon="6.73401">
        <ele>2668.6</ele>
        <time>2021-08-15T09:25:38Z</time>
      </trkpt>
      <trkpt lat="45.49209" lon="6.73401">
        <ele>2668.6</ele>
        <time>2021-08-15T09:25:39Z</time>
      </trkpt>
      <trkpt lat="45.49209" lon="6.73401">
        <ele>2668.6</ele>
        <time>2021-08-15T09:25:40Z</time>
      </trkpt>
      <trkpt lat="45.49209" lon="6.73401">
        <ele>2668.6</ele>
        <time>2021-08-15T09:25:41Z</time>
      </trkpt>
      <trkpt lat="45.49209" lon="6.73401">
        <ele>2668.6</ele>
        <time>2021-08-15T09:25:42Z</time>
      </trkpt>
      <trkpt lat="45.49209" lon="6.73401">
        <ele>2668.6</ele>
        <time>2021-08-15T09:25:43Z</time>
      </trkpt>
      <trkpt lat="45.49209" lon="6.73401">
        <ele>2668.6</ele>
        <time>2021-08-15T09:25:44Z</time>
      </trkpt>
      <trkpt lat="45.49209" lon="6.73401">
        <ele>2668.6</ele>
        <time>2021-08-15T09:25:45Z</time>
      </trkpt>
      <trkpt lat="45.49209" lon="6.73401">
        <ele>2668.6</ele>
        <time>2021-08-15T09:25:46Z</time>
      </trkpt>
      <trkpt lat="45.49209" lon="6.73401">
        <ele>2668.6</ele>
        <time>2021-08-15T09:25:47Z</time>
      </trkpt>
      <trkpt lat="45.49209" lon="6.73401">
        <ele>2668.6</ele>
        <time>2021-08-15T09:25:48Z</time>
      </trkpt>
      <trkpt lat="45.49209" lon="6.73401">
        <ele>2668.6</ele>
        <time>2021-08-15T09:25:49Z</time>
      </trkpt>
      <trkpt lat="45.49209" lon="6.73401">
        <ele>2668.6</ele>
        <time>2021-08-15T09:25:50Z</time>
      </trkpt>
      <trkpt lat="45.49209" lon="6.73401">
        <ele>2668.6</ele>
        <time>2021-08-15T09:25:51Z</time>
      </trkpt>
      <trkpt lat="45.49209" lon="6.73401">
        <ele>2668.6</ele>
        <time>2021-08-15T09:25:52Z</time>
      </trkpt>
      <trkpt lat="45.49209" lon="6.73401">
        <ele>2668.6</ele>
        <time>2021-08-15T09:25:53Z</time>
      </trkpt>
      <trkpt lat="45.49209" lon="6.73401">
        <ele>2668.6</ele>
        <time>2021-08-15T09:25:54Z</time>
      </trkpt>
      <trkpt lat="45.49209" lon="6.73401">
        <ele>2668.6</ele>
        <time>2021-08-15T09:25:55Z</time>
      </trkpt>
      <trkpt lat="45.49209" lon="6.73401">
        <ele>2668.6</ele>
        <time>2021-08-15T09:25:56Z</time>
      </trkpt>
      <trkpt lat="45.49209" lon="6.73401">
        <ele>2668.6</ele>
        <time>2021-08-15T09:25:57Z</time>
      </trkpt>
      <trkpt lat="45.49209" lon="6.73401">
        <ele>2668.6</ele>
        <time>2021-08-15T09:25:58Z</time>
      </trkpt>
      <trkpt lat="45.49209" lon="6.73401">
        <ele>2668.6</ele>
        <time>2021-08-15T09:25:59Z</time>
      </trkpt>
      <trkpt lat="45.49209" lon="6.734">
        <ele>2668.5</ele>
        <time>2021-08-15T09:26:00Z</time>
      </trkpt>
      <trkpt lat="45.49209" lon="6.734">
        <ele>2668.5</ele>
        <time>2021-08-15T09:26:01Z</time>
      </trkpt>
      <trkpt lat="45.49209" lon="6.73399">
        <ele>2668.5</ele>
        <time>2021-08-15T09:26:02Z</time>
      </trkpt>
      <trkpt lat="45.49208" lon="6.73399">
        <ele>2668.4</ele>
        <time>2021-08-15T09:26:03Z</time>
      </trkpt>
      <trkpt lat="45.49208" lon="6.73398">
        <ele>2668.3</ele>
        <time>2021-08-15T09:26:04Z</time>
      </trkpt>
      <trkpt lat="45.49207" lon="6.73397">
        <ele>2668.2</ele>
        <time>2021-08-15T09:26:05Z</time>
      </trkpt>
      <trkpt lat="45.49207" lon="6.73396">
        <ele>2668.2</ele>
        <time>2021-08-15T09:26:06Z</time>
      </trkpt>
      <trkpt lat="45.49206" lon="6.73396">
        <ele>2668.1</ele>
        <time>2021-08-15T09:26:07Z</time>
      </trkpt>
      <trkpt lat="45.49205" lon="6.73395">
        <ele>2668</ele>
        <time>2021-08-15T09:26:08Z</time>
      </trkpt>
      <trkpt lat="45.49205" lon="6.73395">
        <ele>2667.9</ele>
        <time>2021-08-15T09:26:09Z</time>
      </trkpt>
      <trkpt lat="45.49204" lon="6.73394">
        <ele>2667.9</ele>
        <time>2021-08-15T09:26:10Z</time>
      </trkpt>
      <trkpt lat="45.49203" lon="6.73394">
        <ele>2667.8</ele>
        <time>2021-08-15T09:26:11Z</time>
      </trkpt>
      <trkpt lat="45.49203" lon="6.73393">
        <ele>2667.7</ele>
        <time>2021-08-15T09:26:12Z</time>
      </trkpt>
      <trkpt lat="45.49202" lon="6.73393">
        <ele>2667.7</ele>
        <time>2021-08-15T09:26:13Z</time>
      </trkpt>
      <trkpt lat="45.49201" lon="6.73393">
        <ele>2667.6</ele>
        <time>2021-08-15T09:26:14Z</time>
      </trkpt>
      <trkpt lat="45.49201" lon="6.73392">
        <ele>2667.5</ele>
        <time>2021-08-15T09:26:15Z</time>
      </trkpt>
      <trkpt lat="45.492" lon="6.73392">
        <ele>2667.4</ele>
        <time>2021-08-15T09:26:16Z</time>
      </trkpt>
      <trkpt lat="45.49199" lon="6.73391">
        <ele>2667.4</ele>
        <time>2021-08-15T09:26:17Z</time>
      </trkpt>
      <trkpt lat="45.49199" lon="6.7339">
        <ele>2667.2</ele>
        <time>2021-08-15T09:26:18Z</time>
      </trkpt>
      <trkpt lat="45.49198" lon="6.7339">
        <ele>2667.2</ele>
        <time>2021-08-15T09:26:19Z</time>
      </trkpt>
      <trkpt lat="45.49198" lon="6.73389">
        <ele>2667.1</ele>
        <time>2021-08-15T09:26:20Z</time>
      </trkpt>
      <trkpt lat="45.49197" lon="6.73388">
        <ele>2667</ele>
        <time>2021-08-15T09:26:21Z</time>
      </trkpt>
      <trkpt lat="45.49196" lon="6.73387">
        <ele>2666.9</ele>
        <time>2021-08-15T09:26:22Z</time>
      </trkpt>
      <trkpt lat="45.49196" lon="6.73386">
        <ele>2666.8</ele>
        <time>2021-08-15T09:26:23Z</time>
      </trkpt>
      <trkpt lat="45.49195" lon="6.73386">
        <ele>2666.7</ele>
        <time>2021-08-15T09:26:24Z</time>
      </trkpt>
      <trkpt lat="45.49195" lon="6.73385">
        <ele>2666.7</ele>
        <time>2021-08-15T09:26:25Z</time>
      </trkpt>
      <trkpt lat="45.49195" lon="6.73384">
        <ele>2666.6</ele>
        <time>2021-08-15T09:26:26Z</time>
      </trkpt>
      <trkpt lat="45.49194" lon="6.73384">
        <ele>2666.6</ele>
        <time>2021-08-15T09:26:27Z</time>
      </trkpt>
      <trkpt lat="45.49194" lon="6.73383">
        <ele>2666.5</ele>
        <time>2021-08-15T09:26:28Z</time>
      </trkpt>
      <trkpt lat="45.49194" lon="6.73383">
        <ele>2666.5</ele>
        <time>2021-08-15T09:26:29Z</time>
      </trkpt>
      <trkpt lat="45.49194" lon="6.73382">
        <ele>2666.4</ele>
        <time>2021-08-15T09:26:30Z</time>
      </trkpt>
      <trkpt lat="45.49194" lon="6.73382">
        <ele>2666.4</ele>
        <time>2021-08-15T09:26:31Z</time>
      </trkpt>
      <trkpt lat="45.49194" lon="6.73382">
        <ele>2666.4</ele>
        <time>2021-08-15T09:26:32Z</time>
      </trkpt>
      <trkpt lat="45.49194" lon="6.73381">
        <ele>2666.4</ele>
        <time>2021-08-15T09:26:33Z</time>
      </trkpt>
      <trkpt lat="45.49194" lon="6.73381">
        <ele>2666.3</ele>
        <time>2021-08-15T09:26:34Z</time>
      </trkpt>
      <trkpt lat="45.49193" lon="6.73381">
        <ele>2666.3</ele>
        <time>2021-08-15T09:26:35Z</time>
      </trkpt>
      <trkpt lat="45.49193" lon="6.7338">
        <ele>2666.3</ele>
        <time>2021-08-15T09:26:36Z</time>
      </trkpt>
      <trkpt lat="45.49193" lon="6.7338">
        <ele>2666.2</ele>
        <time>2021-08-15T09:26:37Z</time>
      </trkpt>
      <trkpt lat="45.49193" lon="6.7338">
        <ele>2666.2</ele>
        <time>2021-08-15T09:26:38Z</time>
      </trkpt>
      <trkpt lat="45.49192" lon="6.73379">
        <ele>2666.1</ele>
        <time>2021-08-15T09:26:39Z</time>
      </trkpt>
      <trkpt lat="45.49192" lon="6.73379">
        <ele>2666.1</ele>
        <time>2021-08-15T09:26:40Z</time>
      </trkpt>
      <trkpt lat="45.49191" lon="6.73378">
        <ele>2666</ele>
        <time>2021-08-15T09:26:41Z</time>
      </trkpt>
      <trkpt lat="45.49191" lon="6.73378">
        <ele>2665.9</ele>
        <time>2021-08-15T09:26:42Z</time>
      </trkpt>
      <trkpt lat="45.4919" lon="6.73378">
        <ele>2665.9</ele>
        <time>2021-08-15T09:26:43Z</time>
      </trkpt>
      <trkpt lat="45.49189" lon="6.73377">
        <ele>2665.8</ele>
        <time>2021-08-15T09:26:44Z</time>
      </trkpt>
      <trkpt lat="45.49189" lon="6.73377">
        <ele>2665.7</ele>
        <time>2021-08-15T09:26:45Z</time>
      </trkpt>
      <trkpt lat="45.49188" lon="6.73376">
        <ele>2665.7</ele>
        <time>2021-08-15T09:26:46Z</time>
      </trkpt>
      <trkpt lat="45.49188" lon="6.73376">
        <ele>2665.6</ele>
        <time>2021-08-15T09:26:47Z</time>
      </trkpt>
      <trkpt lat="45.49187" lon="6.73375">
        <ele>2665.5</ele>
        <time>2021-08-15T09:26:48Z</time>
      </trkpt>
      <trkpt lat="45.49186" lon="6.73375">
        <ele>2665.4</ele>
        <time>2021-08-15T09:26:49Z</time>
      </trkpt>
      <trkpt lat="45.49185" lon="6.73374">
        <ele>2665.3</ele>
        <time>2021-08-15T09:26:50Z</time>
      </trkpt>
      <trkpt lat="45.49185" lon="6.73374">
        <ele>2665.2</ele>
        <time>2021-08-15T09:26:51Z</time>
      </trkpt>
      <trkpt lat="45.49184" lon="6.73373">
        <ele>2665.1</ele>
        <time>2021-08-15T09:26:52Z</time>
      </trkpt>
      <trkpt lat="45.49183" lon="6.73373">
        <ele>2665</ele>
        <time>2021-08-15T09:26:53Z</time>
      </trkpt>
      <trkpt lat="45.49182" lon="6.73372">
        <ele>2664.9</ele>
        <time>2021-08-15T09:26:54Z</time>
      </trkpt>
      <trkpt lat="45.49182" lon="6.73372">
        <ele>2664.8</ele>
        <time>2021-08-15T09:26:55Z</time>
      </trkpt>
      <trkpt lat="45.49181" lon="6.73371">
        <ele>2664.7</ele>
        <time>2021-08-15T09:26:56Z</time>
      </trkpt>
      <trkpt lat="45.4918" lon="6.73371">
        <ele>2664.6</ele>
        <time>2021-08-15T09:26:57Z</time>
      </trkpt>
      <trkpt lat="45.49179" lon="6.73371">
        <ele>2664.5</ele>
        <time>2021-08-15T09:26:58Z</time>
      </trkpt>
      <trkpt lat="45.49179" lon="6.7337">
        <ele>2664.4</ele>
        <time>2021-08-15T09:26:59Z</time>
      </trkpt>
      <trkpt lat="45.49178" lon="6.7337">
        <ele>2664.4</ele>
        <time>2021-08-15T09:27:00Z</time>
      </trkpt>
      <trkpt lat="45.49177" lon="6.73369">
        <ele>2664.3</ele>
        <time>2021-08-15T09:27:01Z</time>
      </trkpt>
      <trkpt lat="45.49177" lon="6.73369">
        <ele>2664.2</ele>
        <time>2021-08-15T09:27:02Z</time>
      </trkpt>
      <trkpt lat="45.49176" lon="6.73368">
        <ele>2664.1</ele>
        <time>2021-08-15T09:27:03Z</time>
      </trkpt>
      <trkpt lat="45.49175" lon="6.73368">
        <ele>2664.1</ele>
        <time>2021-08-15T09:27:04Z</time>
      </trkpt>
      <trkpt lat="45.49175" lon="6.73368">
        <ele>2664</ele>
        <time>2021-08-15T09:27:05Z</time>
      </trkpt>
      <trkpt lat="45.49174" lon="6.73367">
        <ele>2663.9</ele>
        <time>2021-08-15T09:27:06Z</time>
      </trkpt>
      <trkpt lat="45.49173" lon="6.73367">
        <ele>2663.8</ele>
        <time>2021-08-15T09:27:07Z</time>
      </trkpt>
      <trkpt lat="45.49173" lon="6.73366">
        <ele>2663.8</ele>
        <time>2021-08-15T09:27:08Z</time>
      </trkpt>
      <trkpt lat="45.49172" lon="6.73366">
        <ele>2663.7</ele>
        <time>2021-08-15T09:27:09Z</time>
      </trkpt>
      <trkpt lat="45.49171" lon="6.73365">
        <ele>2663.6</ele>
        <time>2021-08-15T09:27:10Z</time>
      </trkpt>
      <trkpt lat="45.49171" lon="6.73365">
        <ele>2663.5</ele>
        <time>2021-08-15T09:27:11Z</time>
      </trkpt>
      <trkpt lat="45.4917" lon="6.73364">
        <ele>2663.5</ele>
        <time>2021-08-15T09:27:12Z</time>
      </trkpt>
      <trkpt lat="45.49169" lon="6.73364">
        <ele>2663.4</ele>
        <time>2021-08-15T09:27:13Z</time>
      </trkpt>
      <trkpt lat="45.49169" lon="6.73363">
        <ele>2663.3</ele>
        <time>2021-08-15T09:27:14Z</time>
      </trkpt>
      <trkpt lat="45.49168" lon="6.73363">
        <ele>2663.2</ele>
        <time>2021-08-15T09:27:15Z</time>
      </trkpt>
      <trkpt lat="45.49167" lon="6.73362">
        <ele>2663.2</ele>
        <time>2021-08-15T09:27:16Z</time>
      </trkpt>
      <trkpt lat="45.49167" lon="6.73362">
        <ele>2663.1</ele>
        <time>2021-08-15T09:27:17Z</time>
      </trkpt>
      <trkpt lat="45.49166" lon="6.73361">
        <ele>2663</ele>
        <time>2021-08-15T09:27:18Z</time>
      </trkpt>
      <trkpt lat="45.49165" lon="6.73361">
        <ele>2662.9</ele>
        <time>2021-08-15T09:27:19Z</time>
      </trkpt>
      <trkpt lat="45.49165" lon="6.7336">
        <ele>2662.8</ele>
        <time>2021-08-15T09:27:20Z</time>
      </trkpt>
      <trkpt lat="45.49164" lon="6.73359">
        <ele>2662.8</ele>
        <time>2021-08-15T09:27:21Z</time>
      </trkpt>
      <trkpt lat="45.49163" lon="6.73359">
        <ele>2662.7</ele>
        <time>2021-08-15T09:27:22Z</time>
      </trkpt>
      <trkpt lat="45.49163" lon="6.73358">
        <ele>2662.6</ele>
        <time>2021-08-15T09:27:23Z</time>
      </trkpt>
      <trkpt lat="45.49162" lon="6.73358">
        <ele>2662.5</ele>
        <time>2021-08-15T09:27:24Z</time>
      </trkpt>
      <trkpt lat="45.49161" lon="6.73357">
        <ele>2662.5</ele>
        <time>2021-08-15T09:27:25Z</time>
      </trkpt>
      <trkpt lat="45.49161" lon="6.73356">
        <ele>2662.4</ele>
        <time>2021-08-15T09:27:26Z</time>
      </trkpt>
      <trkpt lat="45.4916" lon="6.73356">
        <ele>2662.3</ele>
        <time>2021-08-15T09:27:27Z</time>
      </trkpt>
      <trkpt lat="45.4916" lon="6.73355">
        <ele>2662.2</ele>
        <time>2021-08-15T09:27:28Z</time>
      </trkpt>
      <trkpt lat="45.49159" lon="6.73355">
        <ele>2662.1</ele>
        <time>2021-08-15T09:27:29Z</time>
      </trkpt>
      <trkpt lat="45.49158" lon="6.73354">
        <ele>2662.1</ele>
        <time>2021-08-15T09:27:30Z</time>
      </trkpt>
      <trkpt lat="45.49158" lon="6.73353">
        <ele>2662</ele>
        <time>2021-08-15T09:27:31Z</time>
      </trkpt>
      <trkpt lat="45.49157" lon="6.73353">
        <ele>2661.9</ele>
        <time>2021-08-15T09:27:32Z</time>
      </trkpt>
      <trkpt lat="45.49156" lon="6.73352">
        <ele>2661.8</ele>
        <time>2021-08-15T09:27:33Z</time>
      </trkpt>
      <trkpt lat="45.49156" lon="6.73352">
        <ele>2661.8</ele>
        <time>2021-08-15T09:27:34Z</time>
      </trkpt>
      <trkpt lat="45.49155" lon="6.73352">
        <ele>2661.7</ele>
        <time>2021-08-15T09:27:35Z</time>
      </trkpt>
      <trkpt lat="45.49155" lon="6.73351">
        <ele>2661.6</ele>
        <time>2021-08-15T09:27:36Z</time>
      </trkpt>
      <trkpt lat="45.49154" lon="6.73351">
        <ele>2661.5</ele>
        <time>2021-08-15T09:27:37Z</time>
      </trkpt>
      <trkpt lat="45.49153" lon="6.7335">
        <ele>2661.5</ele>
        <time>2021-08-15T09:27:38Z</time>
      </trkpt>
      <trkpt lat="45.49153" lon="6.7335">
        <ele>2661.4</ele>
        <time>2021-08-15T09:27:39Z</time>
      </trkpt>
      <trkpt lat="45.49152" lon="6.7335">
        <ele>2661.3</ele>
        <time>2021-08-15T09:27:40Z</time>
      </trkpt>
      <trkpt lat="45.49151" lon="6.73349">
        <ele>2661.3</ele>
        <time>2021-08-15T09:27:41Z</time>
      </trkpt>
      <trkpt lat="45.49151" lon="6.73349">
        <ele>2661.2</ele>
        <time>2021-08-15T09:27:42Z</time>
      </trkpt>
      <trkpt lat="45.4915" lon="6.73348">
        <ele>2661.1</ele>
        <time>2021-08-15T09:27:43Z</time>
      </trkpt>
      <trkpt lat="45.4915" lon="6.73348">
        <ele>2661</ele>
        <time>2021-08-15T09:27:44Z</time>
      </trkpt>
      <trkpt lat="45.49149" lon="6.73347">
        <ele>2660.9</ele>
        <time>2021-08-15T09:27:45Z</time>
      </trkpt>
      <trkpt lat="45.49148" lon="6.73346">
        <ele>2660.8</ele>
        <time>2021-08-15T09:27:46Z</time>
      </trkpt>
      <trkpt lat="45.49148" lon="6.73345">
        <ele>2660.7</ele>
        <time>2021-08-15T09:27:47Z</time>
      </trkpt>
      <trkpt lat="45.49147" lon="6.73345">
        <ele>2660.6</ele>
        <time>2021-08-15T09:27:48Z</time>
      </trkpt>
      <trkpt lat="45.49146" lon="6.73344">
        <ele>2660.5</ele>
        <time>2021-08-15T09:27:49Z</time>
      </trkpt>
      <trkpt lat="45.49146" lon="6.73343">
        <ele>2660.4</ele>
        <time>2021-08-15T09:27:50Z</time>
      </trkpt>
      <trkpt lat="45.49145" lon="6.73342">
        <ele>2660.3</ele>
        <time>2021-08-15T09:27:51Z</time>
      </trkpt>
      <trkpt lat="45.49144" lon="6.73341">
        <ele>2660.2</ele>
        <time>2021-08-15T09:27:52Z</time>
      </trkpt>
      <trkpt lat="45.49143" lon="6.73341">
        <ele>2660.1</ele>
        <time>2021-08-15T09:27:53Z</time>
      </trkpt>
      <trkpt lat="45.49143" lon="6.7334">
        <ele>2660</ele>
        <time>2021-08-15T09:27:54Z</time>
      </trkpt>
      <trkpt lat="45.49142" lon="6.7334">
        <ele>2659.9</ele>
        <time>2021-08-15T09:27:55Z</time>
      </trkpt>
      <trkpt lat="45.49141" lon="6.7334">
        <ele>2659.7</ele>
        <time>2021-08-15T09:27:56Z</time>
      </trkpt>
      <trkpt lat="45.4914" lon="6.7334">
        <ele>2659.6</ele>
        <time>2021-08-15T09:27:57Z</time>
      </trkpt>
      <trkpt lat="45.49139" lon="6.7334">
        <ele>2659.5</ele>
        <time>2021-08-15T09:27:58Z</time>
      </trkpt>
      <trkpt lat="45.49138" lon="6.7334">
        <ele>2659.5</ele>
        <time>2021-08-15T09:27:59Z</time>
      </trkpt>
      <trkpt lat="45.49138" lon="6.7334">
        <ele>2659.4</ele>
        <time>2021-08-15T09:28:00Z</time>
      </trkpt>
      <trkpt lat="45.49138" lon="6.7334">
        <ele>2659.4</ele>
        <time>2021-08-15T09:28:01Z</time>
      </trkpt>
      <trkpt lat="45.49137" lon="6.7334">
        <ele>2659.3</ele>
        <time>2021-08-15T09:28:02Z</time>
      </trkpt>
      <trkpt lat="45.49137" lon="6.7334">
        <ele>2659.3</ele>
        <time>2021-08-15T09:28:03Z</time>
      </trkpt>
      <trkpt lat="45.49137" lon="6.7334">
        <ele>2659.3</ele>
        <time>2021-08-15T09:28:04Z</time>
      </trkpt>
      <trkpt lat="45.49137" lon="6.7334">
        <ele>2659.2</ele>
        <time>2021-08-15T09:28:05Z</time>
      </trkpt>
      <trkpt lat="45.49136" lon="6.7334">
        <ele>2659.2</ele>
        <time>2021-08-15T09:28:06Z</time>
      </trkpt>
      <trkpt lat="45.49136" lon="6.7334">
        <ele>2659.2</ele>
        <time>2021-08-15T09:28:07Z</time>
      </trkpt>
      <trkpt lat="45.49136" lon="6.7334">
        <ele>2659.1</ele>
        <time>2021-08-15T09:28:08Z</time>
      </trkpt>
      <trkpt lat="45.49135" lon="6.73339">
        <ele>2659</ele>
        <time>2021-08-15T09:28:09Z</time>
      </trkpt>
      <trkpt lat="45.49135" lon="6.73339">
        <ele>2659</ele>
        <time>2021-08-15T09:28:10Z</time>
      </trkpt>
      <trkpt lat="45.49134" lon="6.73339">
        <ele>2658.9</ele>
        <time>2021-08-15T09:28:11Z</time>
      </trkpt>
      <trkpt lat="45.49134" lon="6.73338">
        <ele>2658.8</ele>
        <time>2021-08-15T09:28:12Z</time>
      </trkpt>
      <trkpt lat="45.49133" lon="6.73338">
        <ele>2658.7</ele>
        <time>2021-08-15T09:28:13Z</time>
      </trkpt>
      <trkpt lat="45.49133" lon="6.73337">
        <ele>2658.7</ele>
        <time>2021-08-15T09:28:14Z</time>
      </trkpt>
      <trkpt lat="45.49132" lon="6.73337">
        <ele>2658.6</ele>
        <time>2021-08-15T09:28:15Z</time>
      </trkpt>
      <trkpt lat="45.49132" lon="6.73336">
        <ele>2658.5</ele>
        <time>2021-08-15T09:28:16Z</time>
      </trkpt>
      <trkpt lat="45.49131" lon="6.73336">
        <ele>2658.5</ele>
        <time>2021-08-15T09:28:17Z</time>
      </trkpt>
      <trkpt lat="45.49131" lon="6.73336">
        <ele>2658.5</ele>
        <time>2021-08-15T09:28:18Z</time>
      </trkpt>
      <trkpt lat="45.49131" lon="6.73336">
        <ele>2658.4</ele>
        <time>2021-08-15T09:28:19Z</time>
      </trkpt>
      <trkpt lat="45.49131" lon="6.73335">
        <ele>2658.4</ele>
        <time>2021-08-15T09:28:20Z</time>
      </trkpt>
      <trkpt lat="45.49131" lon="6.73335">
        <ele>2658.4</ele>
        <time>2021-08-15T09:28:21Z</time>
      </trkpt>
      <trkpt lat="45.49131" lon="6.73335">
        <ele>2658.4</ele>
        <time>2021-08-15T09:28:22Z</time>
      </trkpt>
      <trkpt lat="45.49131" lon="6.73335">
        <ele>2658.4</ele>
        <time>2021-08-15T09:28:23Z</time>
      </trkpt>
      <trkpt lat="45.49131" lon="6.73335">
        <ele>2658.4</ele>
        <time>2021-08-15T09:28:24Z</time>
      </trkpt>
      <trkpt lat="45.49131" lon="6.73335">
        <ele>2658.4</ele>
        <time>2021-08-15T09:28:25Z</time>
      </trkpt>
      <trkpt lat="45.49131" lon="6.73335">
        <ele>2658.4</ele>
        <time>2021-08-15T09:28:26Z</time>
      </trkpt>
      <trkpt lat="45.49131" lon="6.73335">
        <ele>2658.3</ele>
        <time>2021-08-15T09:28:27Z</time>
      </trkpt>
      <trkpt lat="45.49131" lon="6.73335">
        <ele>2658.3</ele>
        <time>2021-08-15T09:28:28Z</time>
      </trkpt>
      <trkpt lat="45.49131" lon="6.73335">
        <ele>2658.3</ele>
        <time>2021-08-15T09:28:29Z</time>
      </trkpt>
      <trkpt lat="45.49131" lon="6.73335">
        <ele>2658.3</ele>
        <time>2021-08-15T09:28:30Z</time>
      </trkpt>
      <trkpt lat="45.49131" lon="6.73335">
        <ele>2658.3</ele>
        <time>2021-08-15T09:28:31Z</time>
      </trkpt>
      <trkpt lat="45.49131" lon="6.73335">
        <ele>2658.3</ele>
        <time>2021-08-15T09:28:32Z</time>
      </trkpt>
      <trkpt lat="45.49131" lon="6.73335">
        <ele>2658.3</ele>
        <time>2021-08-15T09:28:33Z</time>
      </trkpt>
      <trkpt lat="45.49131" lon="6.73335">
        <ele>2658.3</ele>
        <time>2021-08-15T09:28:34Z</time>
      </trkpt>
      <trkpt lat="45.49131" lon="6.73335">
        <ele>2658.3</ele>
        <time>2021-08-15T09:28:35Z</time>
      </trkpt>
      <trkpt lat="45.49131" lon="6.73335">
        <ele>2658.3</ele>
        <time>2021-08-15T09:28:36Z</time>
      </trkpt>
      <trkpt lat="45.49131" lon="6.73335">
        <ele>2658.3</ele>
        <time>2021-08-15T09:28:37Z</time>
      </trkpt>
      <trkpt lat="45.49131" lon="6.73335">
        <ele>2658.3</ele>
        <time>2021-08-15T09:28:38Z</time>
      </trkpt>
      <trkpt lat="45.49131" lon="6.73335">
        <ele>2658.3</ele>
        <time>2021-08-15T09:28:39Z</time>
      </trkpt>
      <trkpt lat="45.49131" lon="6.73335">
        <ele>2658.3</ele>
        <time>2021-08-15T09:28:40Z</time>
      </trkpt>
      <trkpt lat="45.49131" lon="6.73335">
        <ele>2658.3</ele>
        <time>2021-08-15T09:28:41Z</time>
      </trkpt>
      <trkpt lat="45.49131" lon="6.73335">
        <ele>2658.3</ele>
        <time>2021-08-15T09:28:42Z</time>
      </trkpt>
      <trkpt lat="45.49131" lon="6.73335">
        <ele>2658.3</ele>
        <time>2021-08-15T09:28:43Z</time>
      </trkpt>
      <trkpt lat="45.49131" lon="6.73335">
        <ele>2658.3</ele>
        <time>2021-08-15T09:28:44Z</time>
      </trkpt>
      <trkpt lat="45.49131" lon="6.73335">
        <ele>2658.3</ele>
        <time>2021-08-15T09:28:45Z</time>
      </trkpt>
      <trkpt lat="45.49131" lon="6.73335">
        <ele>2658.3</ele>
        <time>2021-08-15T09:28:46Z</time>
      </trkpt>
      <trkpt lat="45.49131" lon="6.73335">
        <ele>2658.2</ele>
        <time>2021-08-15T09:28:47Z</time>
      </trkpt>
      <trkpt lat="45.4913" lon="6.73335">
        <ele>2658.2</ele>
        <time>2021-08-15T09:28:48Z</time>
      </trkpt>
      <trkpt lat="45.4913" lon="6.73335">
        <ele>2658.2</ele>
        <time>2021-08-15T09:28:49Z</time>
      </trkpt>
      <trkpt lat="45.4913" lon="6.73334">
        <ele>2658.1</ele>
        <time>2021-08-15T09:28:50Z</time>
      </trkpt>
      <trkpt lat="45.49129" lon="6.73334">
        <ele>2658.1</ele>
        <time>2021-08-15T09:28:51Z</time>
      </trkpt>
      <trkpt lat="45.49129" lon="6.73333">
        <ele>2658</ele>
        <time>2021-08-15T09:28:52Z</time>
      </trkpt>
      <trkpt lat="45.49129" lon="6.73333">
        <ele>2658</ele>
        <time>2021-08-15T09:28:53Z</time>
      </trkpt>
      <trkpt lat="45.49129" lon="6.73333">
        <ele>2658</ele>
        <time>2021-08-15T09:28:54Z</time>
      </trkpt>
      <trkpt lat="45.49128" lon="6.73332">
        <ele>2657.9</ele>
        <time>2021-08-15T09:28:55Z</time>
      </trkpt>
      <trkpt lat="45.49128" lon="6.73332">
        <ele>2657.9</ele>
        <time>2021-08-15T09:28:56Z</time>
      </trkpt>
      <trkpt lat="45.49128" lon="6.73332">
        <ele>2657.8</ele>
        <time>2021-08-15T09:28:57Z</time>
      </trkpt>
      <trkpt lat="45.49127" lon="6.73331">
        <ele>2657.8</ele>
        <time>2021-08-15T09:28:58Z</time>
      </trkpt>
      <trkpt lat="45.49127" lon="6.73331">
        <ele>2657.7</ele>
        <time>2021-08-15T09:28:59Z</time>
      </trkpt>
      <trkpt lat="45.49127" lon="6.7333">
        <ele>2657.6</ele>
        <time>2021-08-15T09:29:00Z</time>
      </trkpt>
      <trkpt lat="45.49126" lon="6.7333">
        <ele>2657.6</ele>
        <time>2021-08-15T09:29:01Z</time>
      </trkpt>
      <trkpt lat="45.49126" lon="6.7333">
        <ele>2657.5</ele>
        <time>2021-08-15T09:29:02Z</time>
      </trkpt>
      <trkpt lat="45.49125" lon="6.73329">
        <ele>2657.4</ele>
        <time>2021-08-15T09:29:03Z</time>
      </trkpt>
      <trkpt lat="45.49125" lon="6.73329">
        <ele>2657.4</ele>
        <time>2021-08-15T09:29:04Z</time>
      </trkpt>
      <trkpt lat="45.49124" lon="6.73329">
        <ele>2657.3</ele>
        <time>2021-08-15T09:29:05Z</time>
      </trkpt>
      <trkpt lat="45.49124" lon="6.73329">
        <ele>2657.3</ele>
        <time>2021-08-15T09:29:06Z</time>
      </trkpt>
      <trkpt lat="45.49123" lon="6.73329">
        <ele>2657.2</ele>
        <time>2021-08-15T09:29:07Z</time>
      </trkpt>
      <trkpt lat="45.49123" lon="6.73328">
        <ele>2657.2</ele>
        <time>2021-08-15T09:29:08Z</time>
      </trkpt>
      <trkpt lat="45.49122" lon="6.73328">
        <ele>2657</ele>
        <time>2021-08-15T09:29:09Z</time>
      </trkpt>
      <trkpt lat="45.49121" lon="6.73327">
        <ele>2656.9</ele>
        <time>2021-08-15T09:29:10Z</time>
      </trkpt>
      <trkpt lat="45.4912" lon="6.73327">
        <ele>2656.9</ele>
        <time>2021-08-15T09:29:11Z</time>
      </trkpt>
      <trkpt lat="45.4912" lon="6.73326">
        <ele>2656.8</ele>
        <time>2021-08-15T09:29:12Z</time>
      </trkpt>
      <trkpt lat="45.49119" lon="6.73326">
        <ele>2656.7</ele>
        <time>2021-08-15T09:29:13Z</time>
      </trkpt>
      <trkpt lat="45.49118" lon="6.73325">
        <ele>2656.6</ele>
        <time>2021-08-15T09:29:14Z</time>
      </trkpt>
      <trkpt lat="45.49118" lon="6.73325">
        <ele>2656.5</ele>
        <time>2021-08-15T09:29:15Z</time>
      </trkpt>
      <trkpt lat="45.49117" lon="6.73324">
        <ele>2656.4</ele>
        <time>2021-08-15T09:29:16Z</time>
      </trkpt>
      <trkpt lat="45.49116" lon="6.73324">
        <ele>2656.3</ele>
        <time>2021-08-15T09:29:17Z</time>
      </trkpt>
      <trkpt lat="45.49116" lon="6.73323">
        <ele>2656.2</ele>
        <time>2021-08-15T09:29:18Z</time>
      </trkpt>
      <trkpt lat="45.49115" lon="6.73323">
        <ele>2656.2</ele>
        <time>2021-08-15T09:29:19Z</time>
      </trkpt>
      <trkpt lat="45.49114" lon="6.73322">
        <ele>2656.1</ele>
        <time>2021-08-15T09:29:20Z</time>
      </trkpt>
      <trkpt lat="45.49114" lon="6.73322">
        <ele>2656</ele>
        <time>2021-08-15T09:29:21Z</time>
      </trkpt>
      <trkpt lat="45.49113" lon="6.73321">
        <ele>2655.9</ele>
        <time>2021-08-15T09:29:22Z</time>
      </trkpt>
      <trkpt lat="45.49112" lon="6.73321">
        <ele>2655.8</ele>
        <time>2021-08-15T09:29:23Z</time>
      </trkpt>
      <trkpt lat="45.49111" lon="6.7332">
        <ele>2655.7</ele>
        <time>2021-08-15T09:29:24Z</time>
      </trkpt>
      <trkpt lat="45.49111" lon="6.7332">
        <ele>2655.6</ele>
        <time>2021-08-15T09:29:25Z</time>
      </trkpt>
      <trkpt lat="45.4911" lon="6.73319">
        <ele>2655.6</ele>
        <time>2021-08-15T09:29:26Z</time>
      </trkpt>
      <trkpt lat="45.49109" lon="6.73319">
        <ele>2655.5</ele>
        <time>2021-08-15T09:29:27Z</time>
      </trkpt>
      <trkpt lat="45.49109" lon="6.73318">
        <ele>2655.4</ele>
        <time>2021-08-15T09:29:28Z</time>
      </trkpt>
      <trkpt lat="45.49108" lon="6.73318">
        <ele>2655.3</ele>
        <time>2021-08-15T09:29:29Z</time>
      </trkpt>
      <trkpt lat="45.49107" lon="6.73317">
        <ele>2655.2</ele>
        <time>2021-08-15T09:29:30Z</time>
      </trkpt>
      <trkpt lat="45.49107" lon="6.73317">
        <ele>2655.1</ele>
        <time>2021-08-15T09:29:31Z</time>
      </trkpt>
      <trkpt lat="45.49106" lon="6.73316">
        <ele>2655</ele>
        <time>2021-08-15T09:29:32Z</time>
      </trkpt>
      <trkpt lat="45.49105" lon="6.73316">
        <ele>2655</ele>
        <time>2021-08-15T09:29:33Z</time>
      </trkpt>
      <trkpt lat="45.49104" lon="6.73315">
        <ele>2654.9</ele>
        <time>2021-08-15T09:29:34Z</time>
      </trkpt>
      <trkpt lat="45.49104" lon="6.73315">
        <ele>2654.8</ele>
        <time>2021-08-15T09:29:35Z</time>
      </trkpt>
      <trkpt lat="45.49103" lon="6.73314">
        <ele>2654.7</ele>
        <time>2021-08-15T09:29:36Z</time>
      </trkpt>
      <trkpt lat="45.49102" lon="6.73314">
        <ele>2654.6</ele>
        <time>2021-08-15T09:29:37Z</time>
      </trkpt>
      <trkpt lat="45.49102" lon="6.73313">
        <ele>2654.5</ele>
        <time>2021-08-15T09:29:38Z</time>
      </trkpt>
      <trkpt lat="45.49101" lon="6.73313">
        <ele>2654.4</ele>
        <time>2021-08-15T09:29:39Z</time>
      </trkpt>
      <trkpt lat="45.491" lon="6.73312">
        <ele>2654.3</ele>
        <time>2021-08-15T09:29:40Z</time>
      </trkpt>
      <trkpt lat="45.491" lon="6.73312">
        <ele>2654.3</ele>
        <time>2021-08-15T09:29:41Z</time>
      </trkpt>
      <trkpt lat="45.49099" lon="6.73311">
        <ele>2654.2</ele>
        <time>2021-08-15T09:29:42Z</time>
      </trkpt>
      <trkpt lat="45.49098" lon="6.73311">
        <ele>2654.1</ele>
        <time>2021-08-15T09:29:43Z</time>
      </trkpt>
      <trkpt lat="45.49098" lon="6.7331">
        <ele>2654</ele>
        <time>2021-08-15T09:29:44Z</time>
      </trkpt>
      <trkpt lat="45.49097" lon="6.7331">
        <ele>2653.9</ele>
        <time>2021-08-15T09:29:45Z</time>
      </trkpt>
      <trkpt lat="45.49096" lon="6.73309">
        <ele>2653.8</ele>
        <time>2021-08-15T09:29:46Z</time>
      </trkpt>
      <trkpt lat="45.49095" lon="6.73309">
        <ele>2653.7</ele>
        <time>2021-08-15T09:29:47Z</time>
      </trkpt>
      <trkpt lat="45.49095" lon="6.73308">
        <ele>2653.6</ele>
        <time>2021-08-15T09:29:48Z</time>
      </trkpt>
      <trkpt lat="45.49094" lon="6.73308">
        <ele>2653.5</ele>
        <time>2021-08-15T09:29:49Z</time>
      </trkpt>
      <trkpt lat="45.49093" lon="6.73307">
        <ele>2653.4</ele>
        <time>2021-08-15T09:29:50Z</time>
      </trkpt>
      <trkpt lat="45.49093" lon="6.73307">
        <ele>2653.4</ele>
        <time>2021-08-15T09:29:51Z</time>
      </trkpt>
      <trkpt lat="45.49092" lon="6.73306">
        <ele>2653.3</ele>
        <time>2021-08-15T09:29:52Z</time>
      </trkpt>
      <trkpt lat="45.49091" lon="6.73305">
        <ele>2653.2</ele>
        <time>2021-08-15T09:29:53Z</time>
      </trkpt>
      <trkpt lat="45.49091" lon="6.73305">
        <ele>2653.1</ele>
        <time>2021-08-15T09:29:54Z</time>
      </trkpt>
      <trkpt lat="45.4909" lon="6.73304">
        <ele>2653</ele>
        <time>2021-08-15T09:29:55Z</time>
      </trkpt>
      <trkpt lat="45.49089" lon="6.73304">
        <ele>2652.9</ele>
        <time>2021-08-15T09:29:56Z</time>
      </trkpt>
      <trkpt lat="45.49088" lon="6.73303">
        <ele>2652.8</ele>
        <time>2021-08-15T09:29:57Z</time>
      </trkpt>
      <trkpt lat="45.49088" lon="6.73303">
        <ele>2652.7</ele>
        <time>2021-08-15T09:29:58Z</time>
      </trkpt>
      <trkpt lat="45.49087" lon="6.73302">
        <ele>2652.6</ele>
        <time>2021-08-15T09:29:59Z</time>
      </trkpt>
      <trkpt lat="45.49086" lon="6.73302">
        <ele>2652.5</ele>
        <time>2021-08-15T09:30:00Z</time>
      </trkpt>
      <trkpt lat="45.49086" lon="6.73301">
        <ele>2652.4</ele>
        <time>2021-08-15T09:30:01Z</time>
      </trkpt>
      <trkpt lat="45.49085" lon="6.73301">
        <ele>2652.3</ele>
        <time>2021-08-15T09:30:02Z</time>
      </trkpt>
      <trkpt lat="45.49084" lon="6.733">
        <ele>2652.3</ele>
        <time>2021-08-15T09:30:03Z</time>
      </trkpt>
      <trkpt lat="45.49084" lon="6.733">
        <ele>2652.2</ele>
        <time>2021-08-15T09:30:04Z</time>
      </trkpt>
      <trkpt lat="45.49083" lon="6.73299">
        <ele>2652.1</ele>
        <time>2021-08-15T09:30:05Z</time>
      </trkpt>
      <trkpt lat="45.49082" lon="6.73299">
        <ele>2652</ele>
        <time>2021-08-15T09:30:06Z</time>
      </trkpt>
      <trkpt lat="45.49082" lon="6.73298">
        <ele>2651.9</ele>
        <time>2021-08-15T09:30:07Z</time>
      </trkpt>
      <trkpt lat="45.49081" lon="6.73298">
        <ele>2651.8</ele>
        <time>2021-08-15T09:30:08Z</time>
      </trkpt>
      <trkpt lat="45.4908" lon="6.73297">
        <ele>2651.7</ele>
        <time>2021-08-15T09:30:09Z</time>
      </trkpt>
      <trkpt lat="45.49079" lon="6.73297">
        <ele>2651.6</ele>
        <time>2021-08-15T09:30:10Z</time>
      </trkpt>
      <trkpt lat="45.49079" lon="6.73296">
        <ele>2651.5</ele>
        <time>2021-08-15T09:30:11Z</time>
      </trkpt>
      <trkpt lat="45.49078" lon="6.73296">
        <ele>2651.5</ele>
        <time>2021-08-15T09:30:12Z</time>
      </trkpt>
      <trkpt lat="45.49077" lon="6.73295">
        <ele>2651.4</ele>
        <time>2021-08-15T09:30:13Z</time>
      </trkpt>
      <trkpt lat="45.49077" lon="6.73295">
        <ele>2651.3</ele>
        <time>2021-08-15T09:30:14Z</time>
      </trkpt>
      <trkpt lat="45.49076" lon="6.73294">
        <ele>2651.2</ele>
        <time>2021-08-15T09:30:15Z</time>
      </trkpt>
      <trkpt lat="45.49075" lon="6.73294">
        <ele>2651.1</ele>
        <time>2021-08-15T09:30:16Z</time>
      </trkpt>
      <trkpt lat="45.49075" lon="6.73293">
        <ele>2651</ele>
        <time>2021-08-15T09:30:17Z</time>
      </trkpt>
      <trkpt lat="45.49074" lon="6.73293">
        <ele>2651</ele>
        <time>2021-08-15T09:30:18Z</time>
      </trkpt>
      <trkpt lat="45.49073" lon="6.73292">
        <ele>2650.9</ele>
        <time>2021-08-15T09:30:19Z</time>
      </trkpt>
      <trkpt lat="45.49072" lon="6.73292">
        <ele>2650.8</ele>
        <time>2021-08-15T09:30:20Z</time>
      </trkpt>
      <trkpt lat="45.49072" lon="6.73291">
        <ele>2650.7</ele>
        <time>2021-08-15T09:30:21Z</time>
      </trkpt>
      <trkpt lat="45.49071" lon="6.73291">
        <ele>2650.6</ele>
        <time>2021-08-15T09:30:22Z</time>
      </trkpt>
      <trkpt lat="45.4907" lon="6.7329">
        <ele>2650.5</ele>
        <time>2021-08-15T09:30:23Z</time>
      </trkpt>
      <trkpt lat="45.4907" lon="6.7329">
        <ele>2650.5</ele>
        <time>2021-08-15T09:30:24Z</time>
      </trkpt>
      <trkpt lat="45.49069" lon="6.73289">
        <ele>2650.4</ele>
        <time>2021-08-15T09:30:25Z</time>
      </trkpt>
      <trkpt lat="45.49068" lon="6.73289">
        <ele>2650.3</ele>
        <time>2021-08-15T09:30:26Z</time>
      </trkpt>
      <trkpt lat="45.49068" lon="6.73288">
        <ele>2650.2</ele>
        <time>2021-08-15T09:30:27Z</time>
      </trkpt>
      <trkpt lat="45.49067" lon="6.73287">
        <ele>2650.2</ele>
        <time>2021-08-15T09:30:28Z</time>
      </trkpt>
      <trkpt lat="45.49067" lon="6.73287">
        <ele>2650.1</ele>
        <time>2021-08-15T09:30:29Z</time>
      </trkpt>
      <trkpt lat="45.49066" lon="6.73286">
        <ele>2650</ele>
        <time>2021-08-15T09:30:30Z</time>
      </trkpt>
      <trkpt lat="45.49065" lon="6.73286">
        <ele>2650</ele>
        <time>2021-08-15T09:30:31Z</time>
      </trkpt>
      <trkpt lat="45.49065" lon="6.73285">
        <ele>2649.9</ele>
        <time>2021-08-15T09:30:32Z</time>
      </trkpt>
      <trkpt lat="45.49064" lon="6.73285">
        <ele>2649.8</ele>
        <time>2021-08-15T09:30:33Z</time>
      </trkpt>
      <trkpt lat="45.49064" lon="6.73284">
        <ele>2649.8</ele>
        <time>2021-08-15T09:30:34Z</time>
      </trkpt>
      <trkpt lat="45.49063" lon="6.73284">
        <ele>2649.7</ele>
        <time>2021-08-15T09:30:35Z</time>
      </trkpt>
      <trkpt lat="45.49063" lon="6.73283">
        <ele>2649.6</ele>
        <time>2021-08-15T09:30:36Z</time>
      </trkpt>
      <trkpt lat="45.49062" lon="6.73283">
        <ele>2649.6</ele>
        <time>2021-08-15T09:30:37Z</time>
      </trkpt>
      <trkpt lat="45.49062" lon="6.73282">
        <ele>2649.5</ele>
        <time>2021-08-15T09:30:38Z</time>
      </trkpt>
      <trkpt lat="45.49061" lon="6.73281">
        <ele>2649.5</ele>
        <time>2021-08-15T09:30:39Z</time>
      </trkpt>
      <trkpt lat="45.49061" lon="6.73281">
        <ele>2649.4</ele>
        <time>2021-08-15T09:30:40Z</time>
      </trkpt>
      <trkpt lat="45.4906" lon="6.7328">
        <ele>2649.4</ele>
        <time>2021-08-15T09:30:41Z</time>
      </trkpt>
      <trkpt lat="45.4906" lon="6.7328">
        <ele>2649.3</ele>
        <time>2021-08-15T09:30:42Z</time>
      </trkpt>
      <trkpt lat="45.49059" lon="6.73279">
        <ele>2649.3</ele>
        <time>2021-08-15T09:30:43Z</time>
      </trkpt>
      <trkpt lat="45.49059" lon="6.73278">
        <ele>2649.2</ele>
        <time>2021-08-15T09:30:44Z</time>
      </trkpt>
      <trkpt lat="45.49058" lon="6.73278">
        <ele>2649.1</ele>
        <time>2021-08-15T09:30:45Z</time>
      </trkpt>
      <trkpt lat="45.49058" lon="6.73277">
        <ele>2649.1</ele>
        <time>2021-08-15T09:30:46Z</time>
      </trkpt>
      <trkpt lat="45.49057" lon="6.73276">
        <ele>2649</ele>
        <time>2021-08-15T09:30:47Z</time>
      </trkpt>
      <trkpt lat="45.49057" lon="6.73276">
        <ele>2649</ele>
        <time>2021-08-15T09:30:48Z</time>
      </trkpt>
      <trkpt lat="45.49056" lon="6.73275">
        <ele>2648.9</ele>
        <time>2021-08-15T09:30:49Z</time>
      </trkpt>
      <trkpt lat="45.49056" lon="6.73275">
        <ele>2648.9</ele>
        <time>2021-08-15T09:30:50Z</time>
      </trkpt>
      <trkpt lat="45.49055" lon="6.73274">
        <ele>2648.8</ele>
        <time>2021-08-15T09:30:51Z</time>
      </trkpt>
      <trkpt lat="45.49055" lon="6.73274">
        <ele>2648.8</ele>
        <time>2021-08-15T09:30:52Z</time>
      </trkpt>
      <trkpt lat="45.49054" lon="6.73273">
        <ele>2648.7</ele>
        <time>2021-08-15T09:30:53Z</time>
      </trkpt>
      <trkpt lat="45.49054" lon="6.73272">
        <ele>2648.7</ele>
        <time>2021-08-15T09:30:54Z</time>
      </trkpt>
      <trkpt lat="45.49053" lon="6.73272">
        <ele>2648.6</ele>
        <time>2021-08-15T09:30:55Z</time>
      </trkpt>
      <trkpt lat="45.49052" lon="6.73271">
        <ele>2648.6</ele>
        <time>2021-08-15T09:30:56Z</time>
      </trkpt>
      <trkpt lat="45.49052" lon="6.73271">
        <ele>2648.5</ele>
        <time>2021-08-15T09:30:57Z</time>
      </trkpt>
      <trkpt lat="45.49051" lon="6.7327">
        <ele>2648.4</ele>
        <time>2021-08-15T09:30:58Z</time>
      </trkpt>
      <trkpt lat="45.49051" lon="6.7327">
        <ele>2648.4</ele>
        <time>2021-08-15T09:30:59Z</time>
      </trkpt>
      <trkpt lat="45.4905" lon="6.73269">
        <ele>2648.3</ele>
        <time>2021-08-15T09:31:00Z</time>
      </trkpt>
      <trkpt lat="45.49049" lon="6.73269">
        <ele>2648.3</ele>
        <time>2021-08-15T09:31:01Z</time>
      </trkpt>
      <trkpt lat="45.49049" lon="6.73268">
        <ele>2648.2</ele>
        <time>2021-08-15T09:31:02Z</time>
      </trkpt>
      <trkpt lat="45.49048" lon="6.73268">
        <ele>2648.2</ele>
        <time>2021-08-15T09:31:03Z</time>
      </trkpt>
      <trkpt lat="45.49047" lon="6.73267">
        <ele>2648.1</ele>
        <time>2021-08-15T09:31:04Z</time>
      </trkpt>
      <trkpt lat="45.49047" lon="6.73267">
        <ele>2648</ele>
        <time>2021-08-15T09:31:05Z</time>
      </trkpt>
      <trkpt lat="45.49046" lon="6.73266">
        <ele>2648</ele>
        <time>2021-08-15T09:31:06Z</time>
      </trkpt>
      <trkpt lat="45.49045" lon="6.73266">
        <ele>2647.9</ele>
        <time>2021-08-15T09:31:07Z</time>
      </trkpt>
      <trkpt lat="45.49044" lon="6.73265">
        <ele>2647.9</ele>
        <time>2021-08-15T09:31:08Z</time>
      </trkpt>
      <trkpt lat="45.49044" lon="6.73265">
        <ele>2647.8</ele>
        <time>2021-08-15T09:31:09Z</time>
      </trkpt>
      <trkpt lat="45.49043" lon="6.73264">
        <ele>2647.7</ele>
        <time>2021-08-15T09:31:10Z</time>
      </trkpt>
      <trkpt lat="45.49042" lon="6.73264">
        <ele>2647.7</ele>
        <time>2021-08-15T09:31:11Z</time>
      </trkpt>
      <trkpt lat="45.49042" lon="6.73263">
        <ele>2647.6</ele>
        <time>2021-08-15T09:31:12Z</time>
      </trkpt>
      <trkpt lat="45.49041" lon="6.73263">
        <ele>2647.6</ele>
        <time>2021-08-15T09:31:13Z</time>
      </trkpt>
      <trkpt lat="45.4904" lon="6.73262">
        <ele>2647.5</ele>
        <time>2021-08-15T09:31:14Z</time>
      </trkpt>
      <trkpt lat="45.49039" lon="6.73262">
        <ele>2647.4</ele>
        <time>2021-08-15T09:31:15Z</time>
      </trkpt>
      <trkpt lat="45.49039" lon="6.73261">
        <ele>2647.4</ele>
        <time>2021-08-15T09:31:16Z</time>
      </trkpt>
      <trkpt lat="45.49038" lon="6.7326">
        <ele>2647.3</ele>
        <time>2021-08-15T09:31:17Z</time>
      </trkpt>
      <trkpt lat="45.49037" lon="6.7326">
        <ele>2647.2</ele>
        <time>2021-08-15T09:31:18Z</time>
      </trkpt>
      <trkpt lat="45.49036" lon="6.73259">
        <ele>2647.2</ele>
        <time>2021-08-15T09:31:19Z</time>
      </trkpt>
      <trkpt lat="45.49036" lon="6.73259">
        <ele>2647.1</ele>
        <time>2021-08-15T09:31:20Z</time>
      </trkpt>
      <trkpt lat="45.49035" lon="6.73258">
        <ele>2647</ele>
        <time>2021-08-15T09:31:21Z</time>
      </trkpt>
      <trkpt lat="45.49034" lon="6.73258">
        <ele>2646.9</ele>
        <time>2021-08-15T09:31:22Z</time>
      </trkpt>
      <trkpt lat="45.49033" lon="6.73258">
        <ele>2646.8</ele>
        <time>2021-08-15T09:31:23Z</time>
      </trkpt>
      <trkpt lat="45.49032" lon="6.73257">
        <ele>2646.8</ele>
        <time>2021-08-15T09:31:24Z</time>
      </trkpt>
      <trkpt lat="45.49031" lon="6.73257">
        <ele>2646.7</ele>
        <time>2021-08-15T09:31:25Z</time>
      </trkpt>
      <trkpt lat="45.4903" lon="6.73256">
        <ele>2646.6</ele>
        <time>2021-08-15T09:31:26Z</time>
      </trkpt>
      <trkpt lat="45.49029" lon="6.73256">
        <ele>2646.5</ele>
        <time>2021-08-15T09:31:27Z</time>
      </trkpt>
      <trkpt lat="45.49029" lon="6.73256">
        <ele>2646.4</ele>
        <time>2021-08-15T09:31:28Z</time>
      </trkpt>
      <trkpt lat="45.49028" lon="6.73255">
        <ele>2646.4</ele>
        <time>2021-08-15T09:31:29Z</time>
      </trkpt>
      <trkpt lat="45.49027" lon="6.73255">
        <ele>2646.3</ele>
        <time>2021-08-15T09:31:30Z</time>
      </trkpt>
      <trkpt lat="45.49026" lon="6.73255">
        <ele>2646.2</ele>
        <time>2021-08-15T09:31:31Z</time>
      </trkpt>
      <trkpt lat="45.49026" lon="6.73255">
        <ele>2646.2</ele>
        <time>2021-08-15T09:31:32Z</time>
      </trkpt>
      <trkpt lat="45.49025" lon="6.73254">
        <ele>2646.1</ele>
        <time>2021-08-15T09:31:33Z</time>
      </trkpt>
      <trkpt lat="45.49025" lon="6.73254">
        <ele>2646.1</ele>
        <time>2021-08-15T09:31:34Z</time>
      </trkpt>
      <trkpt lat="45.49025" lon="6.73254">
        <ele>2646.1</ele>
        <time>2021-08-15T09:31:35Z</time>
      </trkpt>
      <trkpt lat="45.49024" lon="6.73254">
        <ele>2646</ele>
        <time>2021-08-15T09:31:36Z</time>
      </trkpt>
      <trkpt lat="45.49024" lon="6.73254">
        <ele>2646</ele>
        <time>2021-08-15T09:31:37Z</time>
      </trkpt>
      <trkpt lat="45.49024" lon="6.73254">
        <ele>2646</ele>
        <time>2021-08-15T09:31:38Z</time>
      </trkpt>
      <trkpt lat="45.49024" lon="6.73254">
        <ele>2646</ele>
        <time>2021-08-15T09:31:39Z</time>
      </trkpt>
      <trkpt lat="45.49024" lon="6.73254">
        <ele>2646</ele>
        <time>2021-08-15T09:31:40Z</time>
      </trkpt>
      <trkpt lat="45.49024" lon="6.73254">
        <ele>2646</ele>
        <time>2021-08-15T09:31:41Z</time>
      </trkpt>
      <trkpt lat="45.49024" lon="6.73254">
        <ele>2646</ele>
        <time>2021-08-15T09:31:42Z</time>
      </trkpt>
      <trkpt lat="45.49024" lon="6.73254">
        <ele>2646</ele>
        <time>2021-08-15T09:31:43Z</time>
      </trkpt>
      <trkpt lat="45.49024" lon="6.73254">
        <ele>2646</ele>
        <time>2021-08-15T09:31:44Z</time>
      </trkpt>
      <trkpt lat="45.49024" lon="6.73254">
        <ele>2646</ele>
        <time>2021-08-15T09:31:45Z</time>
      </trkpt>
      <trkpt lat="45.49024" lon="6.73254">
        <ele>2646</ele>
        <time>2021-08-15T09:31:46Z</time>
      </trkpt>
      <trkpt lat="45.49024" lon="6.73254">
        <ele>2646</ele>
        <time>2021-08-15T09:31:47Z</time>
      </trkpt>
      <trkpt lat="45.49024" lon="6.73254">
        <ele>2646</ele>
        <time>2021-08-15T09:31:48Z</time>
      </trkpt>
      <trkpt lat="45.49024" lon="6.73254">
        <ele>2645.9</ele>
        <time>2021-08-15T09:31:49Z</time>
      </trkpt>
      <trkpt lat="45.49024" lon="6.73253">
        <ele>2645.9</ele>
        <time>2021-08-15T09:31:50Z</time>
      </trkpt>
      <trkpt lat="45.49023" lon="6.73253">
        <ele>2645.9</ele>
        <time>2021-08-15T09:31:51Z</time>
      </trkpt>
      <trkpt lat="45.49023" lon="6.73253">
        <ele>2645.9</ele>
        <time>2021-08-15T09:31:52Z</time>
      </trkpt>
      <trkpt lat="45.49023" lon="6.73252">
        <ele>2645.8</ele>
        <time>2021-08-15T09:31:53Z</time>
      </trkpt>
      <trkpt lat="45.49023" lon="6.73252">
        <ele>2645.8</ele>
        <time>2021-08-15T09:31:54Z</time>
      </trkpt>
      <trkpt lat="45.49022" lon="6.73251">
        <ele>2645.7</ele>
        <time>2021-08-15T09:31:55Z</time>
      </trkpt>
      <trkpt lat="45.49022" lon="6.73251">
        <ele>2645.7</ele>
        <time>2021-08-15T09:31:56Z</time>
      </trkpt>
      <trkpt lat="45.49021" lon="6.7325">
        <ele>2645.6</ele>
        <time>2021-08-15T09:31:57Z</time>
      </trkpt>
      <trkpt lat="45.49021" lon="6.73249">
        <ele>2645.5</ele>
        <time>2021-08-15T09:31:58Z</time>
      </trkpt>
      <trkpt lat="45.4902" lon="6.73249">
        <ele>2645.5</ele>
        <time>2021-08-15T09:31:59Z</time>
      </trkpt>
      <trkpt lat="45.4902" lon="6.73248">
        <ele>2645.4</ele>
        <time>2021-08-15T09:32:00Z</time>
      </trkpt>
      <trkpt lat="45.49019" lon="6.73247">
        <ele>2645.4</ele>
        <time>2021-08-15T09:32:01Z</time>
      </trkpt>
      <trkpt lat="45.49019" lon="6.73247">
        <ele>2645.3</ele>
        <time>2021-08-15T09:32:02Z</time>
      </trkpt>
      <trkpt lat="45.49019" lon="6.73246">
        <ele>2645.2</ele>
        <time>2021-08-15T09:32:03Z</time>
      </trkpt>
      <trkpt lat="45.49018" lon="6.73245">
        <ele>2645.2</ele>
        <time>2021-08-15T09:32:04Z</time>
      </trkpt>
      <trkpt lat="45.49018" lon="6.73245">
        <ele>2645.1</ele>
        <time>2021-08-15T09:32:05Z</time>
      </trkpt>
      <trkpt lat="45.49017" lon="6.73244">
        <ele>2645.1</ele>
        <time>2021-08-15T09:32:06Z</time>
      </trkpt>
      <trkpt lat="45.49017" lon="6.73244">
        <ele>2645</ele>
        <time>2021-08-15T09:32:07Z</time>
      </trkpt>
      <trkpt lat="45.49016" lon="6.73243">
        <ele>2645</ele>
        <time>2021-08-15T09:32:08Z</time>
      </trkpt>
      <trkpt lat="45.49016" lon="6.73243">
        <ele>2644.9</ele>
        <time>2021-08-15T09:32:09Z</time>
      </trkpt>
      <trkpt lat="45.49016" lon="6.73242">
        <ele>2644.9</ele>
        <time>2021-08-15T09:32:10Z</time>
      </trkpt>
      <trkpt lat="45.49015" lon="6.73242">
        <ele>2644.8</ele>
        <time>2021-08-15T09:32:11Z</time>
      </trkpt>
      <trkpt lat="45.49015" lon="6.73242">
        <ele>2644.8</ele>
        <time>2021-08-15T09:32:12Z</time>
      </trkpt>
      <trkpt lat="45.49014" lon="6.73241">
        <ele>2644.7</ele>
        <time>2021-08-15T09:32:13Z</time>
      </trkpt>
      <trkpt lat="45.49014" lon="6.73241">
        <ele>2644.7</ele>
        <time>2021-08-15T09:32:14Z</time>
      </trkpt>
      <trkpt lat="45.49013" lon="6.73241">
        <ele>2644.6</ele>
        <time>2021-08-15T09:32:15Z</time>
      </trkpt>
      <trkpt lat="45.49013" lon="6.7324">
        <ele>2644.5</ele>
        <time>2021-08-15T09:32:16Z</time>
      </trkpt>
      <trkpt lat="45.49012" lon="6.7324">
        <ele>2644.5</ele>
        <time>2021-08-15T09:32:17Z</time>
      </trkpt>
      <trkpt lat="45.49012" lon="6.7324">
        <ele>2644.4</ele>
        <time>2021-08-15T09:32:18Z</time>
      </trkpt>
      <trkpt lat="45.49011" lon="6.73239">
        <ele>2644.4</ele>
        <time>2021-08-15T09:32:19Z</time>
      </trkpt>
      <trkpt lat="45.49011" lon="6.73239">
        <ele>2644.3</ele>
        <time>2021-08-15T09:32:20Z</time>
      </trkpt>
      <trkpt lat="45.4901" lon="6.73238">
        <ele>2644.2</ele>
        <time>2021-08-15T09:32:21Z</time>
      </trkpt>
      <trkpt lat="45.4901" lon="6.73238">
        <ele>2644.2</ele>
        <time>2021-08-15T09:32:22Z</time>
      </trkpt>
      <trkpt lat="45.49009" lon="6.73238">
        <ele>2644.1</ele>
        <time>2021-08-15T09:32:23Z</time>
      </trkpt>
      <trkpt lat="45.49008" lon="6.73237">
        <ele>2644</ele>
        <time>2021-08-15T09:32:24Z</time>
      </trkpt>
      <trkpt lat="45.49008" lon="6.73237">
        <ele>2643.9</ele>
        <time>2021-08-15T09:32:25Z</time>
      </trkpt>
      <trkpt lat="45.49007" lon="6.73236">
        <ele>2643.9</ele>
        <time>2021-08-15T09:32:26Z</time>
      </trkpt>
      <trkpt lat="45.49007" lon="6.73236">
        <ele>2643.8</ele>
        <time>2021-08-15T09:32:27Z</time>
      </trkpt>
      <trkpt lat="45.49006" lon="6.73235">
        <ele>2643.7</ele>
        <time>2021-08-15T09:32:28Z</time>
      </trkpt>
      <trkpt lat="45.49006" lon="6.73235">
        <ele>2643.7</ele>
        <time>2021-08-15T09:32:29Z</time>
      </trkpt>
      <trkpt lat="45.49005" lon="6.73234">
        <ele>2643.8</ele>
        <time>2021-08-15T09:32:30Z</time>
      </trkpt>
      <trkpt lat="45.49005" lon="6.73234">
        <ele>2643.8</ele>
        <time>2021-08-15T09:32:31Z</time>
      </trkpt>
      <trkpt lat="45.49005" lon="6.73234">
        <ele>2643.9</ele>
        <time>2021-08-15T09:32:32Z</time>
      </trkpt>
      <trkpt lat="45.49004" lon="6.73233">
        <ele>2643.9</ele>
        <time>2021-08-15T09:32:33Z</time>
      </trkpt>
      <trkpt lat="45.49004" lon="6.73233">
        <ele>2643.9</ele>
        <time>2021-08-15T09:32:34Z</time>
      </trkpt>
      <trkpt lat="45.49004" lon="6.73233">
        <ele>2644</ele>
        <time>2021-08-15T09:32:35Z</time>
      </trkpt>
      <trkpt lat="45.49004" lon="6.73233">
        <ele>2644</ele>
        <time>2021-08-15T09:32:36Z</time>
      </trkpt>
      <trkpt lat="45.49004" lon="6.73233">
        <ele>2644</ele>
        <time>2021-08-15T09:32:37Z</time>
      </trkpt>
      <trkpt lat="45.49003" lon="6.73233">
        <ele>2644</ele>
        <time>2021-08-15T09:32:38Z</time>
      </trkpt>
      <trkpt lat="45.49003" lon="6.73233">
        <ele>2644.1</ele>
        <time>2021-08-15T09:32:39Z</time>
      </trkpt>
      <trkpt lat="45.49003" lon="6.73233">
        <ele>2644.1</ele>
        <time>2021-08-15T09:32:40Z</time>
      </trkpt>
      <trkpt lat="45.49003" lon="6.73232">
        <ele>2644.1</ele>
        <time>2021-08-15T09:32:41Z</time>
      </trkpt>
      <trkpt lat="45.49003" lon="6.73232">
        <ele>2644.1</ele>
        <time>2021-08-15T09:32:42Z</time>
      </trkpt>
      <trkpt lat="45.49003" lon="6.73232">
        <ele>2644.1</ele>
        <time>2021-08-15T09:32:43Z</time>
      </trkpt>
      <trkpt lat="45.49003" lon="6.73233">
        <ele>2644.1</ele>
        <time>2021-08-15T09:32:44Z</time>
      </trkpt>
      <trkpt lat="45.49003" lon="6.73233">
        <ele>2644.1</ele>
        <time>2021-08-15T09:32:45Z</time>
      </trkpt>
      <trkpt lat="45.49003" lon="6.73233">
        <ele>2644.1</ele>
        <time>2021-08-15T09:32:46Z</time>
      </trkpt>
      <trkpt lat="45.49003" lon="6.73233">
        <ele>2644.1</ele>
        <time>2021-08-15T09:32:47Z</time>
      </trkpt>
      <trkpt lat="45.49003" lon="6.73233">
        <ele>2644.1</ele>
        <time>2021-08-15T09:32:48Z</time>
      </trkpt>
      <trkpt lat="45.49003" lon="6.73233">
        <ele>2644.1</ele>
        <time>2021-08-15T09:32:49Z</time>
      </trkpt>
      <trkpt lat="45.49003" lon="6.73233">
        <ele>2644.1</ele>
        <time>2021-08-15T09:32:50Z</time>
      </trkpt>
      <trkpt lat="45.49003" lon="6.73233">
        <ele>2644.1</ele>
        <time>2021-08-15T09:32:51Z</time>
      </trkpt>
      <trkpt lat="45.49003" lon="6.73233">
        <ele>2644.1</ele>
        <time>2021-08-15T09:32:52Z</time>
      </trkpt>
      <trkpt lat="45.49003" lon="6.73233">
        <ele>2644.1</ele>
        <time>2021-08-15T09:32:53Z</time>
      </trkpt>
      <trkpt lat="45.49003" lon="6.73233">
        <ele>2644.1</ele>
        <time>2021-08-15T09:32:54Z</time>
      </trkpt>
      <trkpt lat="45.49003" lon="6.73233">
        <ele>2644.1</ele>
        <time>2021-08-15T09:32:55Z</time>
      </trkpt>
      <trkpt lat="45.49003" lon="6.73233">
        <ele>2644.1</ele>
        <time>2021-08-15T09:32:56Z</time>
      </trkpt>
      <trkpt lat="45.49003" lon="6.73233">
        <ele>2644.1</ele>
        <time>2021-08-15T09:32:57Z</time>
      </trkpt>
      <trkpt lat="45.49003" lon="6.73233">
        <ele>2644.1</ele>
        <time>2021-08-15T09:32:58Z</time>
      </trkpt>
      <trkpt lat="45.49003" lon="6.73233">
        <ele>2644.1</ele>
        <time>2021-08-15T09:32:59Z</time>
      </trkpt>
      <trkpt lat="45.49003" lon="6.73233">
        <ele>2644.1</ele>
        <time>2021-08-15T09:33:00Z</time>
      </trkpt>
      <trkpt lat="45.49003" lon="6.73233">
        <ele>2644.1</ele>
        <time>2021-08-15T09:33:01Z</time>
      </trkpt>
      <trkpt lat="45.49003" lon="6.73233">
        <ele>2644.1</ele>
        <time>2021-08-15T09:33:02Z</time>
      </trkpt>
      <trkpt lat="45.49003" lon="6.73233">
        <ele>2644.1</ele>
        <time>2021-08-15T09:33:03Z</time>
      </trkpt>
      <trkpt lat="45.49003" lon="6.73233">
        <ele>2644.1</ele>
        <time>2021-08-15T09:33:04Z</time>
      </trkpt>
      <trkpt lat="45.49003" lon="6.73233">
        <ele>2644.2</ele>
        <time>2021-08-15T09:33:05Z</time>
      </trkpt>
      <trkpt lat="45.49003" lon="6.73233">
        <ele>2644.2</ele>
        <time>2021-08-15T09:33:06Z</time>
      </trkpt>
      <trkpt lat="45.49003" lon="6.73233">
        <ele>2644.2</ele>
        <time>2021-08-15T09:33:07Z</time>
      </trkpt>
      <trkpt lat="45.49003" lon="6.73233">
        <ele>2644.2</ele>
        <time>2021-08-15T09:33:08Z</time>
      </trkpt>
      <trkpt lat="45.49003" lon="6.73233">
        <ele>2644.2</ele>
        <time>2021-08-15T09:33:09Z</time>
      </trkpt>
      <trkpt lat="45.49003" lon="6.73233">
        <ele>2644.2</ele>
        <time>2021-08-15T09:33:10Z</time>
      </trkpt>
      <trkpt lat="45.49003" lon="6.73233">
        <ele>2644.2</ele>
        <time>2021-08-15T09:33:11Z</time>
      </trkpt>
      <trkpt lat="45.49003" lon="6.73233">
        <ele>2644.2</ele>
        <time>2021-08-15T09:33:12Z</time>
      </trkpt>
      <trkpt lat="45.49003" lon="6.73233">
        <ele>2644.2</ele>
        <time>2021-08-15T09:33:13Z</time>
      </trkpt>
      <trkpt lat="45.49003" lon="6.73233">
        <ele>2644.2</ele>
        <time>2021-08-15T09:33:14Z</time>
      </trkpt>
      <trkpt lat="45.49003" lon="6.73233">
        <ele>2644.2</ele>
        <time>2021-08-15T09:33:15Z</time>
      </trkpt>
      <trkpt lat="45.49003" lon="6.73233">
        <ele>2644.2</ele>
        <time>2021-08-15T09:33:16Z</time>
      </trkpt>
      <trkpt lat="45.49003" lon="6.73233">
        <ele>2644.2</ele>
        <time>2021-08-15T09:33:17Z</time>
      </trkpt>
      <trkpt lat="45.49003" lon="6.73233">
        <ele>2644.2</ele>
        <time>2021-08-15T09:33:18Z</time>
      </trkpt>
      <trkpt lat="45.49003" lon="6.73233">
        <ele>2644.2</ele>
        <time>2021-08-15T09:33:19Z</time>
      </trkpt>
      <trkpt lat="45.49003" lon="6.73233">
        <ele>2644.2</ele>
        <time>2021-08-15T09:33:20Z</time>
      </trkpt>
      <trkpt lat="45.49003" lon="6.73233">
        <ele>2644.2</ele>
        <time>2021-08-15T09:33:21Z</time>
      </trkpt>
      <trkpt lat="45.49003" lon="6.73233">
        <ele>2644.2</ele>
        <time>2021-08-15T09:33:22Z</time>
      </trkpt>
      <trkpt lat="45.49003" lon="6.73233">
        <ele>2644.2</ele>
        <time>2021-08-15T09:33:23Z</time>
      </trkpt>
      <trkpt lat="45.49003" lon="6.73233">
        <ele>2644.2</ele>
        <time>2021-08-15T09:33:24Z</time>
      </trkpt>
      <trkpt lat="45.49003" lon="6.73233">
        <ele>2644.2</ele>
        <time>2021-08-15T09:33:25Z</time>
      </trkpt>
      <trkpt lat="45.49003" lon="6.73233">
        <ele>2644.2</ele>
        <time>2021-08-15T09:33:26Z</time>
      </trkpt>
      <trkpt lat="45.49003" lon="6.73233">
        <ele>2644.2</ele>
        <time>2021-08-15T09:33:27Z</time>
      </trkpt>
      <trkpt lat="45.49003" lon="6.73233">
        <ele>2644.2</ele>
        <time>2021-08-15T09:33:28Z</time>
      </trkpt>
      <trkpt lat="45.49003" lon="6.73233">
        <ele>2644.2</ele>
        <time>2021-08-15T09:33:29Z</time>
      </trkpt>
      <trkpt lat="45.49003" lon="6.73233">
        <ele>2644.2</ele>
        <time>2021-08-15T09:33:30Z</time>
      </trkpt>
      <trkpt lat="45.49003" lon="6.73233">
        <ele>2644.2</ele>
        <time>2021-08-15T09:33:31Z</time>
      </trkpt>
      <trkpt lat="45.49003" lon="6.73233">
        <ele>2644.2</ele>
        <time>2021-08-15T09:33:32Z</time>
      </trkpt>
      <trkpt lat="45.49003" lon="6.73233">
        <ele>2644.2</ele>
        <time>2021-08-15T09:33:33Z</time>
      </trkpt>
      <trkpt lat="45.49003" lon="6.73233">
        <ele>2644.2</ele>
        <time>2021-08-15T09:33:34Z</time>
      </trkpt>
      <trkpt lat="45.49003" lon="6.73233">
        <ele>2644.2</ele>
        <time>2021-08-15T09:33:35Z</time>
      </trkpt>
      <trkpt lat="45.49003" lon="6.73233">
        <ele>2644.2</ele>
        <time>2021-08-15T09:33:36Z</time>
      </trkpt>
      <trkpt lat="45.49003" lon="6.73232">
        <ele>2644.2</ele>
        <time>2021-08-15T09:33:37Z</time>
      </trkpt>
      <trkpt lat="45.49003" lon="6.73232">
        <ele>2644.2</ele>
        <time>2021-08-15T09:33:38Z</time>
      </trkpt>
      <trkpt lat="45.49002" lon="6.73232">
        <ele>2644.3</ele>
        <time>2021-08-15T09:33:39Z</time>
      </trkpt>
      <trkpt lat="45.49002" lon="6.73232">
        <ele>2644.3</ele>
        <time>2021-08-15T09:33:40Z</time>
      </trkpt>
      <trkpt lat="45.49002" lon="6.73232">
        <ele>2644.3</ele>
        <time>2021-08-15T09:33:41Z</time>
      </trkpt>
      <trkpt lat="45.49002" lon="6.73232">
        <ele>2644.3</ele>
        <time>2021-08-15T09:33:42Z</time>
      </trkpt>
      <trkpt lat="45.49003" lon="6.73232">
        <ele>2644.3</ele>
        <time>2021-08-15T09:33:43Z</time>
      </trkpt>
      <trkpt lat="45.49003" lon="6.73232">
        <ele>2644.3</ele>
        <time>2021-08-15T09:33:44Z</time>
      </trkpt>
      <trkpt lat="45.49003" lon="6.73232">
        <ele>2644.3</ele>
        <time>2021-08-15T09:33:45Z</time>
      </trkpt>
      <trkpt lat="45.49003" lon="6.73232">
        <ele>2644.3</ele>
        <time>2021-08-15T09:33:46Z</time>
      </trkpt>
      <trkpt lat="45.49003" lon="6.73233">
        <ele>2644.3</ele>
        <time>2021-08-15T09:33:47Z</time>
      </trkpt>
      <trkpt lat="45.49003" lon="6.73233">
        <ele>2644.3</ele>
        <time>2021-08-15T09:33:48Z</time>
      </trkpt>
      <trkpt lat="45.49003" lon="6.73233">
        <ele>2644.4</ele>
        <time>2021-08-15T09:33:49Z</time>
      </trkpt>
      <trkpt lat="45.49004" lon="6.73233">
        <ele>2644.4</ele>
        <time>2021-08-15T09:33:50Z</time>
      </trkpt>
      <trkpt lat="45.49004" lon="6.73233">
        <ele>2644.4</ele>
        <time>2021-08-15T09:33:51Z</time>
      </trkpt>
      <trkpt lat="45.49004" lon="6.73233">
        <ele>2644.5</ele>
        <time>2021-08-15T09:33:52Z</time>
      </trkpt>
      <trkpt lat="45.49005" lon="6.73233">
        <ele>2644.5</ele>
        <time>2021-08-15T09:33:53Z</time>
      </trkpt>
      <trkpt lat="45.49005" lon="6.73234">
        <ele>2644.6</ele>
        <time>2021-08-15T09:33:54Z</time>
      </trkpt>
      <trkpt lat="45.49006" lon="6.73234">
        <ele>2644.6</ele>
        <time>2021-08-15T09:33:55Z</time>
      </trkpt>
      <trkpt lat="45.49006" lon="6.73234">
        <ele>2644.7</ele>
        <time>2021-08-15T09:33:56Z</time>
      </trkpt>
      <trkpt lat="45.49006" lon="6.73234">
        <ele>2644.7</ele>
        <time>2021-08-15T09:33:57Z</time>
      </trkpt>
      <trkpt lat="45.49007" lon="6.73235">
        <ele>2644.7</ele>
        <time>2021-08-15T09:33:58Z</time>
      </trkpt>
      <trkpt lat="45.49007" lon="6.73235">
        <ele>2644.8</ele>
        <time>2021-08-15T09:33:59Z</time>
      </trkpt>
      <trkpt lat="45.49008" lon="6.73235">
        <ele>2644.8</ele>
        <time>2021-08-15T09:34:00Z</time>
      </trkpt>
      <trkpt lat="45.49008" lon="6.73236">
        <ele>2644.9</ele>
        <time>2021-08-15T09:34:01Z</time>
      </trkpt>
      <trkpt lat="45.49008" lon="6.73236">
        <ele>2644.9</ele>
        <time>2021-08-15T09:34:02Z</time>
      </trkpt>
      <trkpt lat="45.49009" lon="6.73237">
        <ele>2645</ele>
        <time>2021-08-15T09:34:03Z</time>
      </trkpt>
      <trkpt lat="45.49009" lon="6.73237">
        <ele>2645</ele>
        <time>2021-08-15T09:34:04Z</time>
      </trkpt>
      <trkpt lat="45.49009" lon="6.73238">
        <ele>2645.1</ele>
        <time>2021-08-15T09:34:05Z</time>
      </trkpt>
      <trkpt lat="45.4901" lon="6.73238">
        <ele>2645.1</ele>
        <time>2021-08-15T09:34:06Z</time>
      </trkpt>
      <trkpt lat="45.4901" lon="6.73239">
        <ele>2645.2</ele>
        <time>2021-08-15T09:34:07Z</time>
      </trkpt>
      <trkpt lat="45.49011" lon="6.73239">
        <ele>2645.2</ele>
        <time>2021-08-15T09:34:08Z</time>
      </trkpt>
      <trkpt lat="45.49011" lon="6.7324">
        <ele>2645.3</ele>
        <time>2021-08-15T09:34:09Z</time>
      </trkpt>
      <trkpt lat="45.49012" lon="6.7324">
        <ele>2645.3</ele>
        <time>2021-08-15T09:34:10Z</time>
      </trkpt>
      <trkpt lat="45.49012" lon="6.73241">
        <ele>2645.4</ele>
        <time>2021-08-15T09:34:11Z</time>
      </trkpt>
      <trkpt lat="45.49013" lon="6.73241">
        <ele>2645.4</ele>
        <time>2021-08-15T09:34:12Z</time>
      </trkpt>
      <trkpt lat="45.49013" lon="6.73242">
        <ele>2645.5</ele>
        <time>2021-08-15T09:34:13Z</time>
      </trkpt>
      <trkpt lat="45.49014" lon="6.73243">
        <ele>2645.6</ele>
        <time>2021-08-15T09:34:14Z</time>
      </trkpt>
      <trkpt lat="45.49014" lon="6.73243">
        <ele>2645.6</ele>
        <time>2021-08-15T09:34:15Z</time>
      </trkpt>
      <trkpt lat="45.49015" lon="6.73244">
        <ele>2645.7</ele>
        <time>2021-08-15T09:34:16Z</time>
      </trkpt>
      <trkpt lat="45.49015" lon="6.73244">
        <ele>2645.7</ele>
        <time>2021-08-15T09:34:17Z</time>
      </trkpt>
      <trkpt lat="45.49016" lon="6.73244">
        <ele>2645.8</ele>
        <time>2021-08-15T09:34:18Z</time>
      </trkpt>
      <trkpt lat="45.49016" lon="6.73245">
        <ele>2645.8</ele>
        <time>2021-08-15T09:34:19Z</time>
      </trkpt>
      <trkpt lat="45.49016" lon="6.73245">
        <ele>2645.8</ele>
        <time>2021-08-15T09:34:20Z</time>
      </trkpt>
      <trkpt lat="45.49016" lon="6.73245">
        <ele>2645.8</ele>
        <time>2021-08-15T09:34:21Z</time>
      </trkpt>
      <trkpt lat="45.49016" lon="6.73245">
        <ele>2645.8</ele>
        <time>2021-08-15T09:34:22Z</time>
      </trkpt>
      <trkpt lat="45.49016" lon="6.73245">
        <ele>2645.8</ele>
        <time>2021-08-15T09:34:23Z</time>
      </trkpt>
      <trkpt lat="45.49016" lon="6.73245">
        <ele>2645.8</ele>
        <time>2021-08-15T09:34:24Z</time>
      </trkpt>
      <trkpt lat="45.49016" lon="6.73245">
        <ele>2645.8</ele>
        <time>2021-08-15T09:34:25Z</time>
      </trkpt>
      <trkpt lat="45.49016" lon="6.73245">
        <ele>2645.9</ele>
        <time>2021-08-15T09:34:26Z</time>
      </trkpt>
      <trkpt lat="45.49017" lon="6.73246">
        <ele>2645.9</ele>
        <time>2021-08-15T09:34:27Z</time>
      </trkpt>
      <trkpt lat="45.49017" lon="6.73246">
        <ele>2646</ele>
        <time>2021-08-15T09:34:28Z</time>
      </trkpt>
      <trkpt lat="45.49018" lon="6.73247">
        <ele>2646</ele>
        <time>2021-08-15T09:34:29Z</time>
      </trkpt>
      <trkpt lat="45.49018" lon="6.73248">
        <ele>2646.1</ele>
        <time>2021-08-15T09:34:30Z</time>
      </trkpt>
      <trkpt lat="45.49019" lon="6.73249">
        <ele>2646.2</ele>
        <time>2021-08-15T09:34:31Z</time>
      </trkpt>
      <trkpt lat="45.4902" lon="6.73249">
        <ele>2646.3</ele>
        <time>2021-08-15T09:34:32Z</time>
      </trkpt>
      <trkpt lat="45.49021" lon="6.7325">
        <ele>2646.4</ele>
        <time>2021-08-15T09:34:33Z</time>
      </trkpt>
      <trkpt lat="45.49022" lon="6.73251">
        <ele>2646.5</ele>
        <time>2021-08-15T09:34:34Z</time>
      </trkpt>
      <trkpt lat="45.49023" lon="6.73251">
        <ele>2646.6</ele>
        <time>2021-08-15T09:34:35Z</time>
      </trkpt>
      <trkpt lat="45.49024" lon="6.73252">
        <ele>2646.7</ele>
        <time>2021-08-15T09:34:36Z</time>
      </trkpt>
      <trkpt lat="45.49025" lon="6.73253">
        <ele>2646.8</ele>
        <time>2021-08-15T09:34:37Z</time>
      </trkpt>
      <trkpt lat="45.49026" lon="6.73253">
        <ele>2646.9</ele>
        <time>2021-08-15T09:34:38Z</time>
      </trkpt>
      <trkpt lat="45.49027" lon="6.73254">
        <ele>2647</ele>
        <time>2021-08-15T09:34:39Z</time>
      </trkpt>
      <trkpt lat="45.49028" lon="6.73254">
        <ele>2647.1</ele>
        <time>2021-08-15T09:34:40Z</time>
      </trkpt>
      <trkpt lat="45.49029" lon="6.73255">
        <ele>2647.2</ele>
        <time>2021-08-15T09:34:41Z</time>
      </trkpt>
      <trkpt lat="45.49031" lon="6.73255">
        <ele>2647.3</ele>
        <time>2021-08-15T09:34:42Z</time>
      </trkpt>
      <trkpt lat="45.49032" lon="6.73256">
        <ele>2647.3</ele>
        <time>2021-08-15T09:34:43Z</time>
      </trkpt>
      <trkpt lat="45.49033" lon="6.73256">
        <ele>2647.4</ele>
        <time>2021-08-15T09:34:44Z</time>
      </trkpt>
      <trkpt lat="45.49034" lon="6.73257">
        <ele>2647.5</ele>
        <time>2021-08-15T09:34:45Z</time>
      </trkpt>
      <trkpt lat="45.49035" lon="6.73257">
        <ele>2647.6</ele>
        <time>2021-08-15T09:34:46Z</time>
      </trkpt>
      <trkpt lat="45.49036" lon="6.73257">
        <ele>2647.7</ele>
        <time>2021-08-15T09:34:47Z</time>
      </trkpt>
      <trkpt lat="45.49037" lon="6.73258">
        <ele>2647.8</ele>
        <time>2021-08-15T09:34:48Z</time>
      </trkpt>
      <trkpt lat="45.49038" lon="6.73258">
        <ele>2647.9</ele>
        <time>2021-08-15T09:34:49Z</time>
      </trkpt>
      <trkpt lat="45.49039" lon="6.73259">
        <ele>2647.9</ele>
        <time>2021-08-15T09:34:50Z</time>
      </trkpt>
      <trkpt lat="45.49041" lon="6.73259">
        <ele>2648</ele>
        <time>2021-08-15T09:34:51Z</time>
      </trkpt>
      <trkpt lat="45.49042" lon="6.7326">
        <ele>2648.1</ele>
        <time>2021-08-15T09:34:52Z</time>
      </trkpt>
      <trkpt lat="45.49043" lon="6.73261">
        <ele>2648.2</ele>
        <time>2021-08-15T09:34:53Z</time>
      </trkpt>
      <trkpt lat="45.49044" lon="6.73261">
        <ele>2648.3</ele>
        <time>2021-08-15T09:34:54Z</time>
      </trkpt>
      <trkpt lat="45.49045" lon="6.73262">
        <ele>2648.4</ele>
        <time>2021-08-15T09:34:55Z</time>
      </trkpt>
      <trkpt lat="45.49046" lon="6.73263">
        <ele>2648.5</ele>
        <time>2021-08-15T09:34:56Z</time>
      </trkpt>
      <trkpt lat="45.49047" lon="6.73263">
        <ele>2648.5</ele>
        <time>2021-08-15T09:34:57Z</time>
      </trkpt>
      <trkpt lat="45.49048" lon="6.73264">
        <ele>2648.6</ele>
        <time>2021-08-15T09:34:58Z</time>
      </trkpt>
      <trkpt lat="45.49049" lon="6.73265">
        <ele>2648.7</ele>
        <time>2021-08-15T09:34:59Z</time>
      </trkpt>
      <trkpt lat="45.4905" lon="6.73265">
        <ele>2648.8</ele>
        <time>2021-08-15T09:35:00Z</time>
      </trkpt>
      <trkpt lat="45.49051" lon="6.73266">
        <ele>2648.9</ele>
        <time>2021-08-15T09:35:01Z</time>
      </trkpt>
      <trkpt lat="45.49052" lon="6.73267">
        <ele>2648.9</ele>
        <time>2021-08-15T09:35:02Z</time>
      </trkpt>
      <trkpt lat="45.49053" lon="6.73267">
        <ele>2649</ele>
        <time>2021-08-15T09:35:03Z</time>
      </trkpt>
      <trkpt lat="45.49054" lon="6.73268">
        <ele>2649.1</ele>
        <time>2021-08-15T09:35:04Z</time>
      </trkpt>
      <trkpt lat="45.49054" lon="6.73269">
        <ele>2649.1</ele>
        <time>2021-08-15T09:35:05Z</time>
      </trkpt>
      <trkpt lat="45.49055" lon="6.73269">
        <ele>2649.2</ele>
        <time>2021-08-15T09:35:06Z</time>
      </trkpt>
      <trkpt lat="45.49055" lon="6.7327">
        <ele>2649.3</ele>
        <time>2021-08-15T09:35:07Z</time>
      </trkpt>
      <trkpt lat="45.49056" lon="6.7327">
        <ele>2649.3</ele>
        <time>2021-08-15T09:35:08Z</time>
      </trkpt>
      <trkpt lat="45.49056" lon="6.73271">
        <ele>2649.4</ele>
        <time>2021-08-15T09:35:09Z</time>
      </trkpt>
      <trkpt lat="45.49057" lon="6.73272">
        <ele>2649.4</ele>
        <time>2021-08-15T09:35:10Z</time>
      </trkpt>
      <trkpt lat="45.49057" lon="6.73272">
        <ele>2649.4</ele>
        <time>2021-08-15T09:35:11Z</time>
      </trkpt>
      <trkpt lat="45.49057" lon="6.73273">
        <ele>2649.5</ele>
        <time>2021-08-15T09:35:12Z</time>
      </trkpt>
      <trkpt lat="45.49057" lon="6.73273">
        <ele>2649.5</ele>
        <time>2021-08-15T09:35:13Z</time>
      </trkpt>
      <trkpt lat="45.49057" lon="6.73274">
        <ele>2649.6</ele>
        <time>2021-08-15T09:35:14Z</time>
      </trkpt>
      <trkpt lat="45.49058" lon="6.73274">
        <ele>2649.6</ele>
        <time>2021-08-15T09:35:15Z</time>
      </trkpt>
      <trkpt lat="45.49058" lon="6.73275">
        <ele>2649.6</ele>
        <time>2021-08-15T09:35:16Z</time>
      </trkpt>
      <trkpt lat="45.49058" lon="6.73276">
        <ele>2649.7</ele>
        <time>2021-08-15T09:35:17Z</time>
      </trkpt>
      <trkpt lat="45.49059" lon="6.73276">
        <ele>2649.7</ele>
        <time>2021-08-15T09:35:18Z</time>
      </trkpt>
      <trkpt lat="45.49059" lon="6.73277">
        <ele>2649.8</ele>
        <time>2021-08-15T09:35:19Z</time>
      </trkpt>
      <trkpt lat="45.49059" lon="6.73278">
        <ele>2649.9</ele>
        <time>2021-08-15T09:35:20Z</time>
      </trkpt>
      <trkpt lat="45.4906" lon="6.73279">
        <ele>2650</ele>
        <time>2021-08-15T09:35:21Z</time>
      </trkpt>
      <trkpt lat="45.49061" lon="6.7328">
        <ele>2650</ele>
        <time>2021-08-15T09:35:22Z</time>
      </trkpt>
      <trkpt lat="45.49062" lon="6.73281">
        <ele>2650.1</ele>
        <time>2021-08-15T09:35:23Z</time>
      </trkpt>
      <trkpt lat="45.49063" lon="6.73282">
        <ele>2650.2</ele>
        <time>2021-08-15T09:35:24Z</time>
      </trkpt>
      <trkpt lat="45.49063" lon="6.73283">
        <ele>2650.4</ele>
        <time>2021-08-15T09:35:25Z</time>
      </trkpt>
      <trkpt lat="45.49064" lon="6.73284">
        <ele>2650.5</ele>
        <time>2021-08-15T09:35:26Z</time>
      </trkpt>
      <trkpt lat="45.49065" lon="6.73285">
        <ele>2650.6</ele>
        <time>2021-08-15T09:35:27Z</time>
      </trkpt>
      <trkpt lat="45.49066" lon="6.73285">
        <ele>2650.7</ele>
        <time>2021-08-15T09:35:28Z</time>
      </trkpt>
      <trkpt lat="45.49068" lon="6.73286">
        <ele>2650.8</ele>
        <time>2021-08-15T09:35:29Z</time>
      </trkpt>
      <trkpt lat="45.49069" lon="6.73287">
        <ele>2650.9</ele>
        <time>2021-08-15T09:35:30Z</time>
      </trkpt>
      <trkpt lat="45.4907" lon="6.73288">
        <ele>2651.1</ele>
        <time>2021-08-15T09:35:31Z</time>
      </trkpt>
      <trkpt lat="45.49071" lon="6.73289">
        <ele>2651.2</ele>
        <time>2021-08-15T09:35:32Z</time>
      </trkpt>
      <trkpt lat="45.49072" lon="6.73289">
        <ele>2651.3</ele>
        <time>2021-08-15T09:35:33Z</time>
      </trkpt>
      <trkpt lat="45.49073" lon="6.7329">
        <ele>2651.4</ele>
        <time>2021-08-15T09:35:34Z</time>
      </trkpt>
      <trkpt lat="45.49074" lon="6.7329">
        <ele>2651.5</ele>
        <time>2021-08-15T09:35:35Z</time>
      </trkpt>
      <trkpt lat="45.49075" lon="6.73291">
        <ele>2651.6</ele>
        <time>2021-08-15T09:35:36Z</time>
      </trkpt>
      <trkpt lat="45.49076" lon="6.73291">
        <ele>2651.7</ele>
        <time>2021-08-15T09:35:37Z</time>
      </trkpt>
      <trkpt lat="45.49077" lon="6.73292">
        <ele>2651.9</ele>
        <time>2021-08-15T09:35:38Z</time>
      </trkpt>
      <trkpt lat="45.49077" lon="6.73292">
        <ele>2652</ele>
        <time>2021-08-15T09:35:39Z</time>
      </trkpt>
      <trkpt lat="45.49078" lon="6.73292">
        <ele>2652.1</ele>
        <time>2021-08-15T09:35:40Z</time>
      </trkpt>
      <trkpt lat="45.49079" lon="6.73293">
        <ele>2652.2</ele>
        <time>2021-08-15T09:35:41Z</time>
      </trkpt>
      <trkpt lat="45.4908" lon="6.73293">
        <ele>2652.2</ele>
        <time>2021-08-15T09:35:42Z</time>
      </trkpt>
      <trkpt lat="45.49081" lon="6.73294">
        <ele>2652.3</ele>
        <time>2021-08-15T09:35:43Z</time>
      </trkpt>
      <trkpt lat="45.49082" lon="6.73294">
        <ele>2652.4</ele>
        <time>2021-08-15T09:35:44Z</time>
      </trkpt>
      <trkpt lat="45.49082" lon="6.73294">
        <ele>2652.5</ele>
        <time>2021-08-15T09:35:45Z</time>
      </trkpt>
      <trkpt lat="45.49083" lon="6.73295">
        <ele>2652.6</ele>
        <time>2021-08-15T09:35:46Z</time>
      </trkpt>
      <trkpt lat="45.49084" lon="6.73295">
        <ele>2652.7</ele>
        <time>2021-08-15T09:35:47Z</time>
      </trkpt>
      <trkpt lat="45.49084" lon="6.73296">
        <ele>2652.8</ele>
        <time>2021-08-15T09:35:48Z</time>
      </trkpt>
      <trkpt lat="45.49085" lon="6.73296">
        <ele>2652.8</ele>
        <time>2021-08-15T09:35:49Z</time>
      </trkpt>
      <trkpt lat="45.49085" lon="6.73297">
        <ele>2652.9</ele>
        <time>2021-08-15T09:35:50Z</time>
      </trkpt>
      <trkpt lat="45.49086" lon="6.73298">
        <ele>2653</ele>
        <time>2021-08-15T09:35:51Z</time>
      </trkpt>
      <trkpt lat="45.49086" lon="6.73298">
        <ele>2653</ele>
        <time>2021-08-15T09:35:52Z</time>
      </trkpt>
      <trkpt lat="45.49086" lon="6.73299">
        <ele>2653.1</ele>
        <time>2021-08-15T09:35:53Z</time>
      </trkpt>
      <trkpt lat="45.49087" lon="6.73299">
        <ele>2653.1</ele>
        <time>2021-08-15T09:35:54Z</time>
      </trkpt>
      <trkpt lat="45.49087" lon="6.733">
        <ele>2653.2</ele>
        <time>2021-08-15T09:35:55Z</time>
      </trkpt>
      <trkpt lat="45.49087" lon="6.733">
        <ele>2653.2</ele>
        <time>2021-08-15T09:35:56Z</time>
      </trkpt>
      <trkpt lat="45.49087" lon="6.733">
        <ele>2653.3</ele>
        <time>2021-08-15T09:35:57Z</time>
      </trkpt>
      <trkpt lat="45.49087" lon="6.733">
        <ele>2653.3</ele>
        <time>2021-08-15T09:35:58Z</time>
      </trkpt>
      <trkpt lat="45.49088" lon="6.73301">
        <ele>2653.3</ele>
        <time>2021-08-15T09:35:59Z</time>
      </trkpt>
      <trkpt lat="45.49088" lon="6.73301">
        <ele>2653.3</ele>
        <time>2021-08-15T09:36:00Z</time>
      </trkpt>
      <trkpt lat="45.49088" lon="6.73301">
        <ele>2653.3</ele>
        <time>2021-08-15T09:36:01Z</time>
      </trkpt>
      <trkpt lat="45.49088" lon="6.73301">
        <ele>2653.4</ele>
        <time>2021-08-15T09:36:02Z</time>
      </trkpt>
      <trkpt lat="45.49089" lon="6.73302">
        <ele>2653.4</ele>
        <time>2021-08-15T09:36:03Z</time>
      </trkpt>
      <trkpt lat="45.49089" lon="6.73302">
        <ele>2653.5</ele>
        <time>2021-08-15T09:36:04Z</time>
      </trkpt>
      <trkpt lat="45.4909" lon="6.73303">
        <ele>2653.6</ele>
        <time>2021-08-15T09:36:05Z</time>
      </trkpt>
      <trkpt lat="45.49091" lon="6.73304">
        <ele>2653.8</ele>
        <time>2021-08-15T09:36:06Z</time>
      </trkpt>
      <trkpt lat="45.49092" lon="6.73305">
        <ele>2653.9</ele>
        <time>2021-08-15T09:36:07Z</time>
      </trkpt>
      <trkpt lat="45.49093" lon="6.73307">
        <ele>2654</ele>
        <time>2021-08-15T09:36:08Z</time>
      </trkpt>
      <trkpt lat="45.49094" lon="6.73307">
        <ele>2654.2</ele>
        <time>2021-08-15T09:36:09Z</time>
      </trkpt>
      <trkpt lat="45.49095" lon="6.73308">
        <ele>2654.3</ele>
        <time>2021-08-15T09:36:10Z</time>
      </trkpt>
      <trkpt lat="45.49096" lon="6.73309">
        <ele>2654.4</ele>
        <time>2021-08-15T09:36:11Z</time>
      </trkpt>
      <trkpt lat="45.49097" lon="6.7331">
        <ele>2654.6</ele>
        <time>2021-08-15T09:36:12Z</time>
      </trkpt>
      <trkpt lat="45.49098" lon="6.7331">
        <ele>2654.7</ele>
        <time>2021-08-15T09:36:13Z</time>
      </trkpt>
      <trkpt lat="45.49099" lon="6.73311">
        <ele>2654.8</ele>
        <time>2021-08-15T09:36:14Z</time>
      </trkpt>
      <trkpt lat="45.491" lon="6.73311">
        <ele>2654.9</ele>
        <time>2021-08-15T09:36:15Z</time>
      </trkpt>
      <trkpt lat="45.49101" lon="6.73312">
        <ele>2655</ele>
        <time>2021-08-15T09:36:16Z</time>
      </trkpt>
      <trkpt lat="45.49102" lon="6.73312">
        <ele>2655.1</ele>
        <time>2021-08-15T09:36:17Z</time>
      </trkpt>
      <trkpt lat="45.49103" lon="6.73313">
        <ele>2655.2</ele>
        <time>2021-08-15T09:36:18Z</time>
      </trkpt>
      <trkpt lat="45.49104" lon="6.73313">
        <ele>2655.3</ele>
        <time>2021-08-15T09:36:19Z</time>
      </trkpt>
      <trkpt lat="45.49105" lon="6.73314">
        <ele>2655.4</ele>
        <time>2021-08-15T09:36:20Z</time>
      </trkpt>
      <trkpt lat="45.49106" lon="6.73314">
        <ele>2655.5</ele>
        <time>2021-08-15T09:36:21Z</time>
      </trkpt>
      <trkpt lat="45.49107" lon="6.73315">
        <ele>2655.6</ele>
        <time>2021-08-15T09:36:22Z</time>
      </trkpt>
      <trkpt lat="45.49107" lon="6.73315">
        <ele>2655.7</ele>
        <time>2021-08-15T09:36:23Z</time>
      </trkpt>
      <trkpt lat="45.49108" lon="6.73316">
        <ele>2655.8</ele>
        <time>2021-08-15T09:36:24Z</time>
      </trkpt>
      <trkpt lat="45.49109" lon="6.73316">
        <ele>2655.9</ele>
        <time>2021-08-15T09:36:25Z</time>
      </trkpt>
      <trkpt lat="45.4911" lon="6.73317">
        <ele>2656</ele>
        <time>2021-08-15T09:36:26Z</time>
      </trkpt>
      <trkpt lat="45.49111" lon="6.73317">
        <ele>2656.1</ele>
        <time>2021-08-15T09:36:27Z</time>
      </trkpt>
      <trkpt lat="45.49111" lon="6.73318">
        <ele>2656.2</ele>
        <time>2021-08-15T09:36:28Z</time>
      </trkpt>
      <trkpt lat="45.49112" lon="6.73318">
        <ele>2656.3</ele>
        <time>2021-08-15T09:36:29Z</time>
      </trkpt>
      <trkpt lat="45.49113" lon="6.73319">
        <ele>2656.4</ele>
        <time>2021-08-15T09:36:30Z</time>
      </trkpt>
      <trkpt lat="45.49113" lon="6.73319">
        <ele>2656.4</ele>
        <time>2021-08-15T09:36:31Z</time>
      </trkpt>
      <trkpt lat="45.49114" lon="6.7332">
        <ele>2656.5</ele>
        <time>2021-08-15T09:36:32Z</time>
      </trkpt>
      <trkpt lat="45.49114" lon="6.7332">
        <ele>2656.6</ele>
        <time>2021-08-15T09:36:33Z</time>
      </trkpt>
      <trkpt lat="45.49115" lon="6.73321">
        <ele>2656.6</ele>
        <time>2021-08-15T09:36:34Z</time>
      </trkpt>
      <trkpt lat="45.49115" lon="6.73321">
        <ele>2656.7</ele>
        <time>2021-08-15T09:36:35Z</time>
      </trkpt>
      <trkpt lat="45.49116" lon="6.73321">
        <ele>2656.7</ele>
        <time>2021-08-15T09:36:36Z</time>
      </trkpt>
      <trkpt lat="45.49116" lon="6.73322">
        <ele>2656.8</ele>
        <time>2021-08-15T09:36:37Z</time>
      </trkpt>
      <trkpt lat="45.49117" lon="6.73322">
        <ele>2656.9</ele>
        <time>2021-08-15T09:36:38Z</time>
      </trkpt>
      <trkpt lat="45.49117" lon="6.73323">
        <ele>2656.9</ele>
        <time>2021-08-15T09:36:39Z</time>
      </trkpt>
      <trkpt lat="45.49118" lon="6.73323">
        <ele>2657</ele>
        <time>2021-08-15T09:36:40Z</time>
      </trkpt>
      <trkpt lat="45.49118" lon="6.73324">
        <ele>2657</ele>
        <time>2021-08-15T09:36:41Z</time>
      </trkpt>
      <trkpt lat="45.49118" lon="6.73324">
        <ele>2657.1</ele>
        <time>2021-08-15T09:36:42Z</time>
      </trkpt>
      <trkpt lat="45.49119" lon="6.73325">
        <ele>2657.1</ele>
        <time>2021-08-15T09:36:43Z</time>
      </trkpt>
      <trkpt lat="45.49119" lon="6.73325">
        <ele>2657.2</ele>
        <time>2021-08-15T09:36:44Z</time>
      </trkpt>
      <trkpt lat="45.49119" lon="6.73326">
        <ele>2657.2</ele>
        <time>2021-08-15T09:36:45Z</time>
      </trkpt>
      <trkpt lat="45.4912" lon="6.73326">
        <ele>2657.3</ele>
        <time>2021-08-15T09:36:46Z</time>
      </trkpt>
      <trkpt lat="45.4912" lon="6.73327">
        <ele>2657.4</ele>
        <time>2021-08-15T09:36:47Z</time>
      </trkpt>
      <trkpt lat="45.49121" lon="6.73327">
        <ele>2657.4</ele>
        <time>2021-08-15T09:36:48Z</time>
      </trkpt>
      <trkpt lat="45.49121" lon="6.73328">
        <ele>2657.5</ele>
        <time>2021-08-15T09:36:49Z</time>
      </trkpt>
      <trkpt lat="45.49122" lon="6.73328">
        <ele>2657.6</ele>
        <time>2021-08-15T09:36:50Z</time>
      </trkpt>
      <trkpt lat="45.49123" lon="6.73328">
        <ele>2657.7</ele>
        <time>2021-08-15T09:36:51Z</time>
      </trkpt>
      <trkpt lat="45.49123" lon="6.73329">
        <ele>2657.7</ele>
        <time>2021-08-15T09:36:52Z</time>
      </trkpt>
      <trkpt lat="45.49124" lon="6.73329">
        <ele>2657.8</ele>
        <time>2021-08-15T09:36:53Z</time>
      </trkpt>
      <trkpt lat="45.49124" lon="6.73329">
        <ele>2657.9</ele>
        <time>2021-08-15T09:36:54Z</time>
      </trkpt>
      <trkpt lat="45.49125" lon="6.73329">
        <ele>2658</ele>
        <time>2021-08-15T09:36:55Z</time>
      </trkpt>
      <trkpt lat="45.49126" lon="6.7333">
        <ele>2658</ele>
        <time>2021-08-15T09:36:56Z</time>
      </trkpt>
      <trkpt lat="45.49126" lon="6.7333">
        <ele>2658.1</ele>
        <time>2021-08-15T09:36:57Z</time>
      </trkpt>
      <trkpt lat="45.49127" lon="6.7333">
        <ele>2658.1</ele>
        <time>2021-08-15T09:36:58Z</time>
      </trkpt>
      <trkpt lat="45.49127" lon="6.7333">
        <ele>2658.2</ele>
        <time>2021-08-15T09:36:59Z</time>
      </trkpt>
      <trkpt lat="45.49127" lon="6.7333">
        <ele>2658.2</ele>
        <time>2021-08-15T09:37:00Z</time>
      </trkpt>
      <trkpt lat="45.49127" lon="6.73331">
        <ele>2658.2</ele>
        <time>2021-08-15T09:37:01Z</time>
      </trkpt>
      <trkpt lat="45.49127" lon="6.73331">
        <ele>2658.2</ele>
        <time>2021-08-15T09:37:02Z</time>
      </trkpt>
      <trkpt lat="45.49128" lon="6.73331">
        <ele>2658.3</ele>
        <time>2021-08-15T09:37:03Z</time>
      </trkpt>
      <trkpt lat="45.49128" lon="6.73331">
        <ele>2658.3</ele>
        <time>2021-08-15T09:37:04Z</time>
      </trkpt>
      <trkpt lat="45.49128" lon="6.73331">
        <ele>2658.3</ele>
        <time>2021-08-15T09:37:05Z</time>
      </trkpt>
      <trkpt lat="45.49128" lon="6.73331">
        <ele>2658.3</ele>
        <time>2021-08-15T09:37:06Z</time>
      </trkpt>
      <trkpt lat="45.49128" lon="6.73331">
        <ele>2658.3</ele>
        <time>2021-08-15T09:37:07Z</time>
      </trkpt>
      <trkpt lat="45.49128" lon="6.73331">
        <ele>2658.3</ele>
        <time>2021-08-15T09:37:08Z</time>
      </trkpt>
      <trkpt lat="45.49128" lon="6.73331">
        <ele>2658.3</ele>
        <time>2021-08-15T09:37:09Z</time>
      </trkpt>
      <trkpt lat="45.49128" lon="6.73331">
        <ele>2658.3</ele>
        <time>2021-08-15T09:37:10Z</time>
      </trkpt>
      <trkpt lat="45.49128" lon="6.73331">
        <ele>2658.3</ele>
        <time>2021-08-15T09:37:11Z</time>
      </trkpt>
      <trkpt lat="45.49128" lon="6.73331">
        <ele>2658.3</ele>
        <time>2021-08-15T09:37:12Z</time>
      </trkpt>
      <trkpt lat="45.49128" lon="6.73331">
        <ele>2658.3</ele>
        <time>2021-08-15T09:37:13Z</time>
      </trkpt>
      <trkpt lat="45.49128" lon="6.73331">
        <ele>2658.3</ele>
        <time>2021-08-15T09:37:14Z</time>
      </trkpt>
      <trkpt lat="45.49128" lon="6.73331">
        <ele>2658.3</ele>
        <time>2021-08-15T09:37:15Z</time>
      </trkpt>
      <trkpt lat="45.49128" lon="6.73331">
        <ele>2658.3</ele>
        <time>2021-08-15T09:37:16Z</time>
      </trkpt>
      <trkpt lat="45.49128" lon="6.73331">
        <ele>2658.4</ele>
        <time>2021-08-15T09:37:17Z</time>
      </trkpt>
      <trkpt lat="45.49128" lon="6.73331">
        <ele>2658.4</ele>
        <time>2021-08-15T09:37:18Z</time>
      </trkpt>
      <trkpt lat="45.49129" lon="6.73331">
        <ele>2658.4</ele>
        <time>2021-08-15T09:37:19Z</time>
      </trkpt>
      <trkpt lat="45.49129" lon="6.73331">
        <ele>2658.4</ele>
        <time>2021-08-15T09:37:20Z</time>
      </trkpt>
      <trkpt lat="45.49129" lon="6.73331">
        <ele>2658.5</ele>
        <time>2021-08-15T09:37:21Z</time>
      </trkpt>
      <trkpt lat="45.49129" lon="6.73331">
        <ele>2658.5</ele>
        <time>2021-08-15T09:37:22Z</time>
      </trkpt>
      <trkpt lat="45.4913" lon="6.73331">
        <ele>2658.5</ele>
        <time>2021-08-15T09:37:23Z</time>
      </trkpt>
      <trkpt lat="45.4913" lon="6.73331">
        <ele>2658.6</ele>
        <time>2021-08-15T09:37:24Z</time>
      </trkpt>
      <trkpt lat="45.49131" lon="6.73332">
        <ele>2658.6</ele>
        <time>2021-08-15T09:37:25Z</time>
      </trkpt>
      <trkpt lat="45.49131" lon="6.73332">
        <ele>2658.7</ele>
        <time>2021-08-15T09:37:26Z</time>
      </trkpt>
      <trkpt lat="45.49131" lon="6.73332">
        <ele>2658.7</ele>
        <time>2021-08-15T09:37:27Z</time>
      </trkpt>
      <trkpt lat="45.49132" lon="6.73332">
        <ele>2658.8</ele>
        <time>2021-08-15T09:37:28Z</time>
      </trkpt>
      <trkpt lat="45.49132" lon="6.73332">
        <ele>2658.9</ele>
        <time>2021-08-15T09:37:29Z</time>
      </trkpt>
      <trkpt lat="45.49133" lon="6.73333">
        <ele>2658.9</ele>
        <time>2021-08-15T09:37:30Z</time>
      </trkpt>
      <trkpt lat="45.49133" lon="6.73333">
        <ele>2659</ele>
        <time>2021-08-15T09:37:31Z</time>
      </trkpt>
      <trkpt lat="45.49134" lon="6.73333">
        <ele>2659</ele>
        <time>2021-08-15T09:37:32Z</time>
      </trkpt>
      <trkpt lat="45.49134" lon="6.73334">
        <ele>2659.1</ele>
        <time>2021-08-15T09:37:33Z</time>
      </trkpt>
      <trkpt lat="45.49135" lon="6.73334">
        <ele>2659.2</ele>
        <time>2021-08-15T09:37:34Z</time>
      </trkpt>
      <trkpt lat="45.49135" lon="6.73334">
        <ele>2659.2</ele>
        <time>2021-08-15T09:37:35Z</time>
      </trkpt>
      <trkpt lat="45.49135" lon="6.73335">
        <ele>2659.3</ele>
        <time>2021-08-15T09:37:36Z</time>
      </trkpt>
      <trkpt lat="45.49136" lon="6.73335">
        <ele>2659.3</ele>
        <time>2021-08-15T09:37:37Z</time>
      </trkpt>
      <trkpt lat="45.49136" lon="6.73335">
        <ele>2659.4</ele>
        <time>2021-08-15T09:37:38Z</time>
      </trkpt>
      <trkpt lat="45.49136" lon="6.73335">
        <ele>2659.4</ele>
        <time>2021-08-15T09:37:39Z</time>
      </trkpt>
      <trkpt lat="45.49137" lon="6.73335">
        <ele>2659.4</ele>
        <time>2021-08-15T09:37:40Z</time>
      </trkpt>
      <trkpt lat="45.49137" lon="6.73336">
        <ele>2659.5</ele>
        <time>2021-08-15T09:37:41Z</time>
      </trkpt>
      <trkpt lat="45.49137" lon="6.73336">
        <ele>2659.5</ele>
        <time>2021-08-15T09:37:42Z</time>
      </trkpt>
      <trkpt lat="45.49137" lon="6.73336">
        <ele>2659.5</ele>
        <time>2021-08-15T09:37:43Z</time>
      </trkpt>
      <trkpt lat="45.49137" lon="6.73336">
        <ele>2659.5</ele>
        <time>2021-08-15T09:37:44Z</time>
      </trkpt>
      <trkpt lat="45.49137" lon="6.73336">
        <ele>2659.5</ele>
        <time>2021-08-15T09:37:45Z</time>
      </trkpt>
      <trkpt lat="45.49137" lon="6.73336">
        <ele>2659.5</ele>
        <time>2021-08-15T09:37:46Z</time>
      </trkpt>
      <trkpt lat="45.49138" lon="6.73336">
        <ele>2659.6</ele>
        <time>2021-08-15T09:37:47Z</time>
      </trkpt>
      <trkpt lat="45.49138" lon="6.73337">
        <ele>2659.7</ele>
        <time>2021-08-15T09:37:48Z</time>
      </trkpt>
      <trkpt lat="45.49139" lon="6.73337">
        <ele>2659.8</ele>
        <time>2021-08-15T09:37:49Z</time>
      </trkpt>
      <trkpt lat="45.4914" lon="6.73338">
        <ele>2659.9</ele>
        <time>2021-08-15T09:37:50Z</time>
      </trkpt>
      <trkpt lat="45.49141" lon="6.73338">
        <ele>2660</ele>
        <time>2021-08-15T09:37:51Z</time>
      </trkpt>
      <trkpt lat="45.49142" lon="6.73339">
        <ele>2660.1</ele>
        <time>2021-08-15T09:37:52Z</time>
      </trkpt>
      <trkpt lat="45.49142" lon="6.73339">
        <ele>2660.2</ele>
        <time>2021-08-15T09:37:53Z</time>
      </trkpt>
      <trkpt lat="45.49143" lon="6.73339">
        <ele>2660.2</ele>
        <time>2021-08-15T09:37:54Z</time>
      </trkpt>
      <trkpt lat="45.49143" lon="6.73339">
        <ele>2660.2</ele>
        <time>2021-08-15T09:37:55Z</time>
      </trkpt>
      <trkpt lat="45.49143" lon="6.73339">
        <ele>2660.2</ele>
        <time>2021-08-15T09:37:56Z</time>
      </trkpt>
      <trkpt lat="45.49143" lon="6.73339">
        <ele>2660.2</ele>
        <time>2021-08-15T09:37:57Z</time>
      </trkpt>
      <trkpt lat="45.49144" lon="6.73339">
        <ele>2660.3</ele>
        <time>2021-08-15T09:37:58Z</time>
      </trkpt>
      <trkpt lat="45.49144" lon="6.73339">
        <ele>2660.3</ele>
        <time>2021-08-15T09:37:59Z</time>
      </trkpt>
      <trkpt lat="45.49145" lon="6.73339">
        <ele>2660.4</ele>
        <time>2021-08-15T09:38:00Z</time>
      </trkpt>
      <trkpt lat="45.49145" lon="6.73339">
        <ele>2660.5</ele>
        <time>2021-08-15T09:38:01Z</time>
      </trkpt>
      <trkpt lat="45.49146" lon="6.73339">
        <ele>2660.6</ele>
        <time>2021-08-15T09:38:02Z</time>
      </trkpt>
      <trkpt lat="45.49147" lon="6.73339">
        <ele>2660.6</ele>
        <time>2021-08-15T09:38:03Z</time>
      </trkpt>
      <trkpt lat="45.49147" lon="6.7334">
        <ele>2660.7</ele>
        <time>2021-08-15T09:38:04Z</time>
      </trkpt>
      <trkpt lat="45.49148" lon="6.7334">
        <ele>2660.8</ele>
        <time>2021-08-15T09:38:05Z</time>
      </trkpt>
      <trkpt lat="45.49149" lon="6.73341">
        <ele>2660.9</ele>
        <time>2021-08-15T09:38:06Z</time>
      </trkpt>
      <trkpt lat="45.4915" lon="6.73341">
        <ele>2661</ele>
        <time>2021-08-15T09:38:07Z</time>
      </trkpt>
      <trkpt lat="45.4915" lon="6.73342">
        <ele>2661.1</ele>
        <time>2021-08-15T09:38:08Z</time>
      </trkpt>
      <trkpt lat="45.49151" lon="6.73343">
        <ele>2661.2</ele>
        <time>2021-08-15T09:38:09Z</time>
      </trkpt>
      <trkpt lat="45.49152" lon="6.73344">
        <ele>2661.3</ele>
        <time>2021-08-15T09:38:10Z</time>
      </trkpt>
      <trkpt lat="45.49152" lon="6.73345">
        <ele>2661.4</ele>
        <time>2021-08-15T09:38:11Z</time>
      </trkpt>
      <trkpt lat="45.49153" lon="6.73346">
        <ele>2661.5</ele>
        <time>2021-08-15T09:38:12Z</time>
      </trkpt>
      <trkpt lat="45.49153" lon="6.73346">
        <ele>2661.5</ele>
        <time>2021-08-15T09:38:13Z</time>
      </trkpt>
      <trkpt lat="45.49154" lon="6.73347">
        <ele>2661.6</ele>
        <time>2021-08-15T09:38:14Z</time>
      </trkpt>
      <trkpt lat="45.49154" lon="6.73348">
        <ele>2661.7</ele>
        <time>2021-08-15T09:38:15Z</time>
      </trkpt>
      <trkpt lat="45.49155" lon="6.73349">
        <ele>2661.8</ele>
        <time>2021-08-15T09:38:16Z</time>
      </trkpt>
      <trkpt lat="45.49155" lon="6.73349">
        <ele>2661.9</ele>
        <time>2021-08-15T09:38:17Z</time>
      </trkpt>
      <trkpt lat="45.49156" lon="6.7335">
        <ele>2661.9</ele>
        <time>2021-08-15T09:38:18Z</time>
      </trkpt>
      <trkpt lat="45.49157" lon="6.7335">
        <ele>2662</ele>
        <time>2021-08-15T09:38:19Z</time>
      </trkpt>
      <trkpt lat="45.49157" lon="6.73351">
        <ele>2662.1</ele>
        <time>2021-08-15T09:38:20Z</time>
      </trkpt>
      <trkpt lat="45.49158" lon="6.73351">
        <ele>2662.1</ele>
        <time>2021-08-15T09:38:21Z</time>
      </trkpt>
      <trkpt lat="45.49159" lon="6.73351">
        <ele>2662.2</ele>
        <time>2021-08-15T09:38:22Z</time>
      </trkpt>
      <trkpt lat="45.49159" lon="6.73352">
        <ele>2662.3</ele>
        <time>2021-08-15T09:38:23Z</time>
      </trkpt>
      <trkpt lat="45.4916" lon="6.73352">
        <ele>2662.4</ele>
        <time>2021-08-15T09:38:24Z</time>
      </trkpt>
      <trkpt lat="45.49161" lon="6.73352">
        <ele>2662.4</ele>
        <time>2021-08-15T09:38:25Z</time>
      </trkpt>
      <trkpt lat="45.49161" lon="6.73352">
        <ele>2662.5</ele>
        <time>2021-08-15T09:38:26Z</time>
      </trkpt>
      <trkpt lat="45.49162" lon="6.73353">
        <ele>2662.5</ele>
        <time>2021-08-15T09:38:27Z</time>
      </trkpt>
      <trkpt lat="45.49162" lon="6.73353">
        <ele>2662.6</ele>
        <time>2021-08-15T09:38:28Z</time>
      </trkpt>
      <trkpt lat="45.49163" lon="6.73354">
        <ele>2662.7</ele>
        <time>2021-08-15T09:38:29Z</time>
      </trkpt>
      <trkpt lat="45.49164" lon="6.73354">
        <ele>2662.7</ele>
        <time>2021-08-15T09:38:30Z</time>
      </trkpt>
      <trkpt lat="45.49164" lon="6.73354">
        <ele>2662.8</ele>
        <time>2021-08-15T09:38:31Z</time>
      </trkpt>
      <trkpt lat="45.49165" lon="6.73355">
        <ele>2662.8</ele>
        <time>2021-08-15T09:38:32Z</time>
      </trkpt>
      <trkpt lat="45.49165" lon="6.73355">
        <ele>2662.9</ele>
        <time>2021-08-15T09:38:33Z</time>
      </trkpt>
      <trkpt lat="45.49165" lon="6.73356">
        <ele>2662.9</ele>
        <time>2021-08-15T09:38:34Z</time>
      </trkpt>
      <trkpt lat="45.49166" lon="6.73356">
        <ele>2663</ele>
        <time>2021-08-15T09:38:35Z</time>
      </trkpt>
      <trkpt lat="45.49166" lon="6.73357">
        <ele>2663</ele>
        <time>2021-08-15T09:38:36Z</time>
      </trkpt>
      <trkpt lat="45.49167" lon="6.73357">
        <ele>2663.1</ele>
        <time>2021-08-15T09:38:37Z</time>
      </trkpt>
      <trkpt lat="45.49167" lon="6.73358">
        <ele>2663.2</ele>
        <time>2021-08-15T09:38:38Z</time>
      </trkpt>
      <trkpt lat="45.49168" lon="6.73358">
        <ele>2663.2</ele>
        <time>2021-08-15T09:38:39Z</time>
      </trkpt>
      <trkpt lat="45.49168" lon="6.73359">
        <ele>2663.3</ele>
        <time>2021-08-15T09:38:40Z</time>
      </trkpt>
      <trkpt lat="45.49168" lon="6.73359">
        <ele>2663.3</ele>
        <time>2021-08-15T09:38:41Z</time>
      </trkpt>
      <trkpt lat="45.49169" lon="6.7336">
        <ele>2663.4</ele>
        <time>2021-08-15T09:38:42Z</time>
      </trkpt>
      <trkpt lat="45.49169" lon="6.7336">
        <ele>2663.4</ele>
        <time>2021-08-15T09:38:43Z</time>
      </trkpt>
      <trkpt lat="45.4917" lon="6.73361">
        <ele>2663.5</ele>
        <time>2021-08-15T09:38:44Z</time>
      </trkpt>
      <trkpt lat="45.4917" lon="6.73361">
        <ele>2663.5</ele>
        <time>2021-08-15T09:38:45Z</time>
      </trkpt>
      <trkpt lat="45.49171" lon="6.73362">
        <ele>2663.6</ele>
        <time>2021-08-15T09:38:46Z</time>
      </trkpt>
      <trkpt lat="45.49171" lon="6.73362">
        <ele>2663.7</ele>
        <time>2021-08-15T09:38:47Z</time>
      </trkpt>
      <trkpt lat="45.49172" lon="6.73363">
        <ele>2663.7</ele>
        <time>2021-08-15T09:38:48Z</time>
      </trkpt>
      <trkpt lat="45.49172" lon="6.73363">
        <ele>2663.8</ele>
        <time>2021-08-15T09:38:49Z</time>
      </trkpt>
      <trkpt lat="45.49173" lon="6.73364">
        <ele>2663.8</ele>
        <time>2021-08-15T09:38:50Z</time>
      </trkpt>
      <trkpt lat="45.49173" lon="6.73364">
        <ele>2663.9</ele>
        <time>2021-08-15T09:38:51Z</time>
      </trkpt>
      <trkpt lat="45.49174" lon="6.73365">
        <ele>2663.9</ele>
        <time>2021-08-15T09:38:52Z</time>
      </trkpt>
      <trkpt lat="45.49174" lon="6.73365">
        <ele>2664</ele>
        <time>2021-08-15T09:38:53Z</time>
      </trkpt>
      <trkpt lat="45.49175" lon="6.73365">
        <ele>2664.1</ele>
        <time>2021-08-15T09:38:54Z</time>
      </trkpt>
      <trkpt lat="45.49175" lon="6.73366">
        <ele>2664.1</ele>
        <time>2021-08-15T09:38:55Z</time>
      </trkpt>
      <trkpt lat="45.49176" lon="6.73366">
        <ele>2664.2</ele>
        <time>2021-08-15T09:38:56Z</time>
      </trkpt>
      <trkpt lat="45.49177" lon="6.73366">
        <ele>2664.3</ele>
        <time>2021-08-15T09:38:57Z</time>
      </trkpt>
      <trkpt lat="45.49177" lon="6.73367">
        <ele>2664.3</ele>
        <time>2021-08-15T09:38:58Z</time>
      </trkpt>
      <trkpt lat="45.49178" lon="6.73367">
        <ele>2664.4</ele>
        <time>2021-08-15T09:38:59Z</time>
      </trkpt>
      <trkpt lat="45.49178" lon="6.73367">
        <ele>2664.4</ele>
        <time>2021-08-15T09:39:00Z</time>
      </trkpt>
      <trkpt lat="45.49179" lon="6.73368">
        <ele>2664.5</ele>
        <time>2021-08-15T09:39:01Z</time>
      </trkpt>
      <trkpt lat="45.4918" lon="6.73368">
        <ele>2664.6</ele>
        <time>2021-08-15T09:39:02Z</time>
      </trkpt>
      <trkpt lat="45.4918" lon="6.73368">
        <ele>2664.6</ele>
        <time>2021-08-15T09:39:03Z</time>
      </trkpt>
      <trkpt lat="45.49181" lon="6.73369">
        <ele>2664.7</ele>
        <time>2021-08-15T09:39:04Z</time>
      </trkpt>
      <trkpt lat="45.49182" lon="6.73369">
        <ele>2664.8</ele>
        <time>2021-08-15T09:39:05Z</time>
      </trkpt>
      <trkpt lat="45.49182" lon="6.73369">
        <ele>2664.9</ele>
        <time>2021-08-15T09:39:06Z</time>
      </trkpt>
      <trkpt lat="45.49183" lon="6.7337">
        <ele>2664.9</ele>
        <time>2021-08-15T09:39:07Z</time>
      </trkpt>
      <trkpt lat="45.49184" lon="6.7337">
        <ele>2665</ele>
        <time>2021-08-15T09:39:08Z</time>
      </trkpt>
      <trkpt lat="45.49184" lon="6.7337">
        <ele>2665.1</ele>
        <time>2021-08-15T09:39:09Z</time>
      </trkpt>
      <trkpt lat="45.49185" lon="6.73371">
        <ele>2665.1</ele>
        <time>2021-08-15T09:39:10Z</time>
      </trkpt>
      <trkpt lat="45.49185" lon="6.73371">
        <ele>2665.2</ele>
        <time>2021-08-15T09:39:11Z</time>
      </trkpt>
      <trkpt lat="45.49186" lon="6.73371">
        <ele>2665.3</ele>
        <time>2021-08-15T09:39:12Z</time>
      </trkpt>
      <trkpt lat="45.49187" lon="6.73372">
        <ele>2665.3</ele>
        <time>2021-08-15T09:39:13Z</time>
      </trkpt>
      <trkpt lat="45.49187" lon="6.73372">
        <ele>2665.4</ele>
        <time>2021-08-15T09:39:14Z</time>
      </trkpt>
      <trkpt lat="45.49188" lon="6.73372">
        <ele>2665.5</ele>
        <time>2021-08-15T09:39:15Z</time>
      </trkpt>
      <trkpt lat="45.49188" lon="6.73373">
        <ele>2665.5</ele>
        <time>2021-08-15T09:39:16Z</time>
      </trkpt>
      <trkpt lat="45.49189" lon="6.73373">
        <ele>2665.6</ele>
        <time>2021-08-15T09:39:17Z</time>
      </trkpt>
      <trkpt lat="45.4919" lon="6.73374">
        <ele>2665.7</ele>
        <time>2021-08-15T09:39:18Z</time>
      </trkpt>
      <trkpt lat="45.4919" lon="6.73374">
        <ele>2665.7</ele>
        <time>2021-08-15T09:39:19Z</time>
      </trkpt>
      <trkpt lat="45.49191" lon="6.73375">
        <ele>2665.8</ele>
        <time>2021-08-15T09:39:20Z</time>
      </trkpt>
      <trkpt lat="45.49191" lon="6.73375">
        <ele>2665.9</ele>
        <time>2021-08-15T09:39:21Z</time>
      </trkpt>
      <trkpt lat="45.49192" lon="6.73376">
        <ele>2665.9</ele>
        <time>2021-08-15T09:39:22Z</time>
      </trkpt>
      <trkpt lat="45.49192" lon="6.73376">
        <ele>2666</ele>
        <time>2021-08-15T09:39:23Z</time>
      </trkpt>
      <trkpt lat="45.49193" lon="6.73377">
        <ele>2666.1</ele>
        <time>2021-08-15T09:39:24Z</time>
      </trkpt>
      <trkpt lat="45.49194" lon="6.73377">
        <ele>2666.1</ele>
        <time>2021-08-15T09:39:25Z</time>
      </trkpt>
      <trkpt lat="45.49194" lon="6.73378">
        <ele>2666.2</ele>
        <time>2021-08-15T09:39:26Z</time>
      </trkpt>
      <trkpt lat="45.49195" lon="6.73379">
        <ele>2666.3</ele>
        <time>2021-08-15T09:39:27Z</time>
      </trkpt>
      <trkpt lat="45.49195" lon="6.73379">
        <ele>2666.4</ele>
        <time>2021-08-15T09:39:28Z</time>
      </trkpt>
      <trkpt lat="45.49196" lon="6.7338">
        <ele>2666.4</ele>
        <time>2021-08-15T09:39:29Z</time>
      </trkpt>
      <trkpt lat="45.49196" lon="6.73381">
        <ele>2666.5</ele>
        <time>2021-08-15T09:39:30Z</time>
      </trkpt>
      <trkpt lat="45.49197" lon="6.73382">
        <ele>2666.6</ele>
        <time>2021-08-15T09:39:31Z</time>
      </trkpt>
      <trkpt lat="45.49197" lon="6.73382">
        <ele>2666.7</ele>
        <time>2021-08-15T09:39:32Z</time>
      </trkpt>
      <trkpt lat="45.49198" lon="6.73383">
        <ele>2666.7</ele>
        <time>2021-08-15T09:39:33Z</time>
      </trkpt>
      <trkpt lat="45.49198" lon="6.73384">
        <ele>2666.8</ele>
        <time>2021-08-15T09:39:34Z</time>
      </trkpt>
      <trkpt lat="45.49199" lon="6.73385">
        <ele>2666.9</ele>
        <time>2021-08-15T09:39:35Z</time>
      </trkpt>
      <trkpt lat="45.49199" lon="6.73386">
        <ele>2667</ele>
        <time>2021-08-15T09:39:36Z</time>
      </trkpt>
      <trkpt lat="45.492" lon="6.73386">
        <ele>2667</ele>
        <time>2021-08-15T09:39:37Z</time>
      </trkpt>
      <trkpt lat="45.492" lon="6.73387">
        <ele>2667.1</ele>
        <time>2021-08-15T09:39:38Z</time>
      </trkpt>
      <trkpt lat="45.49201" lon="6.73388">
        <ele>2667.2</ele>
        <time>2021-08-15T09:39:39Z</time>
      </trkpt>
      <trkpt lat="45.49201" lon="6.73388">
        <ele>2667.2</ele>
        <time>2021-08-15T09:39:40Z</time>
      </trkpt>
      <trkpt lat="45.49201" lon="6.73389">
        <ele>2667.3</ele>
        <time>2021-08-15T09:39:41Z</time>
      </trkpt>
      <trkpt lat="45.49202" lon="6.7339">
        <ele>2667.4</ele>
        <time>2021-08-15T09:39:42Z</time>
      </trkpt>
      <trkpt lat="45.49202" lon="6.7339">
        <ele>2667.4</ele>
        <time>2021-08-15T09:39:43Z</time>
      </trkpt>
      <trkpt lat="45.49203" lon="6.73391">
        <ele>2667.5</ele>
        <time>2021-08-15T09:39:44Z</time>
      </trkpt>
      <trkpt lat="45.49203" lon="6.73391">
        <ele>2667.6</ele>
        <time>2021-08-15T09:39:45Z</time>
      </trkpt>
      <trkpt lat="45.49204" lon="6.73392">
        <ele>2667.6</ele>
        <time>2021-08-15T09:39:46Z</time>
      </trkpt>
      <trkpt lat="45.49204" lon="6.73392">
        <ele>2667.7</ele>
        <time>2021-08-15T09:39:47Z</time>
      </trkpt>
      <trkpt lat="45.49204" lon="6.73392">
        <ele>2667.7</ele>
        <time>2021-08-15T09:39:48Z</time>
      </trkpt>
      <trkpt lat="45.49205" lon="6.73393">
        <ele>2667.8</ele>
        <time>2021-08-15T09:39:49Z</time>
      </trkpt>
      <trkpt lat="45.49205" lon="6.73393">
        <ele>2667.8</ele>
        <time>2021-08-15T09:39:50Z</time>
      </trkpt>
      <trkpt lat="45.49206" lon="6.73393">
        <ele>2667.8</ele>
        <time>2021-08-15T09:39:51Z</time>
      </trkpt>
      <trkpt lat="45.49206" lon="6.73394">
        <ele>2667.9</ele>
        <time>2021-08-15T09:39:52Z</time>
      </trkpt>
      <trkpt lat="45.49207" lon="6.73394">
        <ele>2667.9</ele>
        <time>2021-08-15T09:39:53Z</time>
      </trkpt>
      <trkpt lat="45.49207" lon="6.73394">
        <ele>2668</ele>
        <time>2021-08-15T09:39:54Z</time>
      </trkpt>
      <trkpt lat="45.49208" lon="6.73395">
        <ele>2668</ele>
        <time>2021-08-15T09:39:55Z</time>
      </trkpt>
      <trkpt lat="45.49208" lon="6.73395">
        <ele>2668.1</ele>
        <time>2021-08-15T09:39:56Z</time>
      </trkpt>
      <trkpt lat="45.49209" lon="6.73396">
        <ele>2668.1</ele>
        <time>2021-08-15T09:39:57Z</time>
      </trkpt>
      <trkpt lat="45.49209" lon="6.73396">
        <ele>2668.2</ele>
        <time>2021-08-15T09:39:58Z</time>
      </trkpt>
      <trkpt lat="45.49209" lon="6.73397">
        <ele>2668.3</ele>
        <time>2021-08-15T09:39:59Z</time>
      </trkpt>
      <trkpt lat="45.4921" lon="6.73397">
        <ele>2668.3</ele>
        <time>2021-08-15T09:40:00Z</time>
      </trkpt>
      <trkpt lat="45.4921" lon="6.73398">
        <ele>2668.4</ele>
        <time>2021-08-15T09:40:01Z</time>
      </trkpt>
      <trkpt lat="45.49211" lon="6.73399">
        <ele>2668.4</ele>
        <time>2021-08-15T09:40:02Z</time>
      </trkpt>
      <trkpt lat="45.49211" lon="6.73399">
        <ele>2668.5</ele>
        <time>2021-08-15T09:40:03Z</time>
      </trkpt>
      <trkpt lat="45.49212" lon="6.734">
        <ele>2668.6</ele>
        <time>2021-08-15T09:40:04Z</time>
      </trkpt>
      <trkpt lat="45.49212" lon="6.73401">
        <ele>2668.6</ele>
        <time>2021-08-15T09:40:05Z</time>
      </trkpt>
      <trkpt lat="45.49212" lon="6.73401">
        <ele>2668.7</ele>
        <time>2021-08-15T09:40:06Z</time>
      </trkpt>
      <trkpt lat="45.49213" lon="6.73402">
        <ele>2668.7</ele>
        <time>2021-08-15T09:40:07Z</time>
      </trkpt>
      <trkpt lat="45.49213" lon="6.73402">
        <ele>2668.8</ele>
        <time>2021-08-15T09:40:08Z</time>
      </trkpt>
      <trkpt lat="45.49213" lon="6.73403">
        <ele>2668.8</ele>
        <time>2021-08-15T09:40:09Z</time>
      </trkpt>
      <trkpt lat="45.49213" lon="6.73403">
        <ele>2668.8</ele>
        <time>2021-08-15T09:40:10Z</time>
      </trkpt>
      <trkpt lat="45.49213" lon="6.73403">
        <ele>2668.8</ele>
        <time>2021-08-15T09:40:11Z</time>
      </trkpt>
      <trkpt lat="45.49213" lon="6.73404">
        <ele>2668.9</ele>
        <time>2021-08-15T09:40:12Z</time>
      </trkpt>
      <trkpt lat="45.49213" lon="6.73404">
        <ele>2668.9</ele>
        <time>2021-08-15T09:40:13Z</time>
      </trkpt>
      <trkpt lat="45.49213" lon="6.73404">
        <ele>2668.9</ele>
        <time>2021-08-15T09:40:14Z</time>
      </trkpt>
      <trkpt lat="45.49213" lon="6.73404">
        <ele>2668.9</ele>
        <time>2021-08-15T09:40:15Z</time>
      </trkpt>
      <trkpt lat="45.49213" lon="6.73404">
        <ele>2668.9</ele>
        <time>2021-08-15T09:40:16Z</time>
      </trkpt>
      <trkpt lat="45.49213" lon="6.73404">
        <ele>2668.9</ele>
        <time>2021-08-15T09:40:17Z</time>
      </trkpt>
      <trkpt lat="45.49213" lon="6.73404">
        <ele>2668.9</ele>
        <time>2021-08-15T09:40:18Z</time>
      </trkpt>
      <trkpt lat="45.49213" lon="6.73404">
        <ele>2668.9</ele>
        <time>2021-08-15T09:40:19Z</time>
      </trkpt>
      <trkpt lat="45.49213" lon="6.73404">
        <ele>2668.9</ele>
        <time>2021-08-15T09:40:20Z</time>
      </trkpt>
      <trkpt lat="45.49213" lon="6.73405">
        <ele>2669</ele>
        <time>2021-08-15T09:40:21Z</time>
      </trkpt>
      <trkpt lat="45.49213" lon="6.73405">
        <ele>2669</ele>
        <time>2021-08-15T09:40:22Z</time>
      </trkpt>
      <trkpt lat="45.49213" lon="6.73405">
        <ele>2669</ele>
        <time>2021-08-15T09:40:23Z</time>
      </trkpt>
      <trkpt lat="45.49213" lon="6.73405">
        <ele>2669</ele>
        <time>2021-08-15T09:40:24Z</time>
      </trkpt>
      <trkpt lat="45.49213" lon="6.73406">
        <ele>2669</ele>
        <time>2021-08-15T09:40:25Z</time>
      </trkpt>
      <trkpt lat="45.49213" lon="6.73406">
        <ele>2669.1</ele>
        <time>2021-08-15T09:40:26Z</time>
      </trkpt>
      <trkpt lat="45.49213" lon="6.73406">
        <ele>2669.1</ele>
        <time>2021-08-15T09:40:27Z</time>
      </trkpt>
      <trkpt lat="45.49213" lon="6.73406">
        <ele>2669.1</ele>
        <time>2021-08-15T09:40:28Z</time>
      </trkpt>
      <trkpt lat="45.49213" lon="6.73407">
        <ele>2669.1</ele>
        <time>2021-08-15T09:40:29Z</time>
      </trkpt>
      <trkpt lat="45.49213" lon="6.73407">
        <ele>2669.1</ele>
        <time>2021-08-15T09:40:30Z</time>
      </trkpt>
      <trkpt lat="45.49213" lon="6.73407">
        <ele>2669.1</ele>
        <time>2021-08-15T09:40:31Z</time>
      </trkpt>
      <trkpt lat="45.49213" lon="6.73407">
        <ele>2669.1</ele>
        <time>2021-08-15T09:40:32Z</time>
      </trkpt>
      <trkpt lat="45.49213" lon="6.73407">
        <ele>2669.1</ele>
        <time>2021-08-15T09:40:33Z</time>
      </trkpt>
      <trkpt lat="45.49213" lon="6.73407">
        <ele>2669.1</ele>
        <time>2021-08-15T09:40:34Z</time>
      </trkpt>
      <trkpt lat="45.49213" lon="6.73407">
        <ele>2669.1</ele>
        <time>2021-08-15T09:40:35Z</time>
      </trkpt>
      <trkpt lat="45.49213" lon="6.73407">
        <ele>2669.2</ele>
        <time>2021-08-15T09:40:36Z</time>
      </trkpt>
      <trkpt lat="45.49213" lon="6.73407">
        <ele>2669.2</ele>
        <time>2021-08-15T09:40:37Z</time>
      </trkpt>
      <trkpt lat="45.49213" lon="6.73407">
        <ele>2669.2</ele>
        <time>2021-08-15T09:40:38Z</time>
      </trkpt>
      <trkpt lat="45.49213" lon="6.73407">
        <ele>2669.2</ele>
        <time>2021-08-15T09:40:39Z</time>
      </trkpt>
      <trkpt lat="45.49213" lon="6.73407">
        <ele>2669.2</ele>
        <time>2021-08-15T09:40:40Z</time>
      </trkpt>
      <trkpt lat="45.49213" lon="6.73407">
        <ele>2669.2</ele>
        <time>2021-08-15T09:40:41Z</time>
      </trkpt>
      <trkpt lat="45.49213" lon="6.73407">
        <ele>2669.2</ele>
        <time>2021-08-15T09:40:42Z</time>
      </trkpt>
      <trkpt lat="45.49213" lon="6.73407">
        <ele>2669.2</ele>
        <time>2021-08-15T09:40:43Z</time>
      </trkpt>
      <trkpt lat="45.49213" lon="6.73407">
        <ele>2669.2</ele>
        <time>2021-08-15T09:40:44Z</time>
      </trkpt>
      <trkpt lat="45.49213" lon="6.73407">
        <ele>2669.2</ele>
        <time>2021-08-15T09:40:45Z</time>
      </trkpt>
      <trkpt lat="45.49213" lon="6.73407">
        <ele>2669.2</ele>
        <time>2021-08-15T09:40:46Z</time>
      </trkpt>
      <trkpt lat="45.49213" lon="6.73407">
        <ele>2669.2</ele>
        <time>2021-08-15T09:40:47Z</time>
      </trkpt>
      <trkpt lat="45.49213" lon="6.73407">
        <ele>2669.2</ele>
        <time>2021-08-15T09:40:48Z</time>
      </trkpt>
      <trkpt lat="45.49213" lon="6.73407">
        <ele>2669.2</ele>
        <time>2021-08-15T09:40:49Z</time>
      </trkpt>
      <trkpt lat="45.49213" lon="6.73407">
        <ele>2669.2</ele>
        <time>2021-08-15T09:40:50Z</time>
      </trkpt>
      <trkpt lat="45.49213" lon="6.73407">
        <ele>2669.2</ele>
        <time>2021-08-15T09:40:51Z</time>
      </trkpt>
      <trkpt lat="45.49213" lon="6.73407">
        <ele>2669.2</ele>
        <time>2021-08-15T09:40:52Z</time>
      </trkpt>
      <trkpt lat="45.49213" lon="6.73407">
        <ele>2669.2</ele>
        <time>2021-08-15T09:40:53Z</time>
      </trkpt>
      <trkpt lat="45.49213" lon="6.73407">
        <ele>2669.2</ele>
        <time>2021-08-15T09:40:54Z</time>
      </trkpt>
      <trkpt lat="45.49213" lon="6.73407">
        <ele>2669.2</ele>
        <time>2021-08-15T09:40:55Z</time>
      </trkpt>
      <trkpt lat="45.49213" lon="6.73407">
        <ele>2669.2</ele>
        <time>2021-08-15T09:40:56Z</time>
      </trkpt>
      <trkpt lat="45.49213" lon="6.73407">
        <ele>2669.2</ele>
        <time>2021-08-15T09:40:57Z</time>
      </trkpt>
      <trkpt lat="45.49213" lon="6.73407">
        <ele>2669.2</ele>
        <time>2021-08-15T09:40:58Z</time>
      </trkpt>
      <trkpt lat="45.49213" lon="6.73407">
        <ele>2669.2</ele>
        <time>2021-08-15T09:40:59Z</time>
      </trkpt>
      <trkpt lat="45.49213" lon="6.73407">
        <ele>2669.2</ele>
        <time>2021-08-15T09:41:00Z</time>
      </trkpt>
      <trkpt lat="45.49213" lon="6.73407">
        <ele>2669.2</ele>
        <time>2021-08-15T09:41:01Z</time>
      </trkpt>
      <trkpt lat="45.49213" lon="6.73407">
        <ele>2669.2</ele>
        <time>2021-08-15T09:41:02Z</time>
      </trkpt>
      <trkpt lat="45.49213" lon="6.73407">
        <ele>2669.2</ele>
        <time>2021-08-15T09:41:03Z</time>
      </trkpt>
      <trkpt lat="45.49213" lon="6.73407">
        <ele>2669.2</ele>
        <time>2021-08-15T09:41:04Z</time>
      </trkpt>
      <trkpt lat="45.49213" lon="6.73407">
        <ele>2669.2</ele>
        <time>2021-08-15T09:41:05Z</time>
      </trkpt>
      <trkpt lat="45.49213" lon="6.73407">
        <ele>2669.2</ele>
        <time>2021-08-15T09:41:06Z</time>
      </trkpt>
      <trkpt lat="45.49213" lon="6.73407">
        <ele>2669.2</ele>
        <time>2021-08-15T09:41:07Z</time>
      </trkpt>
      <trkpt lat="45.49213" lon="6.73407">
        <ele>2669.2</ele>
        <time>2021-08-15T09:41:08Z</time>
      </trkpt>
      <trkpt lat="45.49213" lon="6.73407">
        <ele>2669.2</ele>
        <time>2021-08-15T09:41:09Z</time>
      </trkpt>
      <trkpt lat="45.49213" lon="6.73407">
        <ele>2669.2</ele>
        <time>2021-08-15T09:41:10Z</time>
      </trkpt>
      <trkpt lat="45.49213" lon="6.73407">
        <ele>2669.2</ele>
        <time>2021-08-15T09:41:11Z</time>
      </trkpt>
      <trkpt lat="45.49213" lon="6.73407">
        <ele>2669.2</ele>
        <time>2021-08-15T09:41:12Z</time>
      </trkpt>
      <trkpt lat="45.49213" lon="6.73407">
        <ele>2669.2</ele>
        <time>2021-08-15T09:41:13Z</time>
      </trkpt>
      <trkpt lat="45.49213" lon="6.73407">
        <ele>2669.2</ele>
        <time>2021-08-15T09:41:14Z</time>
      </trkpt>
      <trkpt lat="45.49213" lon="6.73407">
        <ele>2669.2</ele>
        <time>2021-08-15T09:41:15Z</time>
      </trkpt>
      <trkpt lat="45.49213" lon="6.73407">
        <ele>2669.2</ele>
        <time>2021-08-15T09:41:16Z</time>
      </trkpt>
      <trkpt lat="45.49213" lon="6.73407">
        <ele>2669.2</ele>
        <time>2021-08-15T09:41:17Z</time>
      </trkpt>
      <trkpt lat="45.49213" lon="6.73407">
        <ele>2669.2</ele>
        <time>2021-08-15T09:41:18Z</time>
      </trkpt>
      <trkpt lat="45.49213" lon="6.73407">
        <ele>2669.2</ele>
        <time>2021-08-15T09:41:19Z</time>
      </trkpt>
      <trkpt lat="45.49213" lon="6.73407">
        <ele>2669.2</ele>
        <time>2021-08-15T09:41:20Z</time>
      </trkpt>
      <trkpt lat="45.49213" lon="6.73407">
        <ele>2669.2</ele>
        <time>2021-08-15T09:41:21Z</time>
      </trkpt>
      <trkpt lat="45.49213" lon="6.73407">
        <ele>2669.2</ele>
        <time>2021-08-15T09:41:22Z</time>
      </trkpt>
      <trkpt lat="45.49213" lon="6.73407">
        <ele>2669.2</ele>
        <time>2021-08-15T09:41:23Z</time>
      </trkpt>
      <trkpt lat="45.49213" lon="6.73407">
        <ele>2669.2</ele>
        <time>2021-08-15T09:41:24Z</time>
      </trkpt>
      <trkpt lat="45.49213" lon="6.73407">
        <ele>2669.2</ele>
        <time>2021-08-15T09:41:25Z</time>
      </trkpt>
      <trkpt lat="45.49213" lon="6.73407">
        <ele>2669.2</ele>
        <time>2021-08-15T09:41:26Z</time>
      </trkpt>
      <trkpt lat="45.49213" lon="6.73407">
        <ele>2669.2</ele>
        <time>2021-08-15T09:41:27Z</time>
      </trkpt>
      <trkpt lat="45.49213" lon="6.73407">
        <ele>2669.2</ele>
        <time>2021-08-15T09:41:28Z</time>
      </trkpt>
      <trkpt lat="45.49213" lon="6.73407">
        <ele>2669.2</ele>
        <time>2021-08-15T09:41:29Z</time>
      </trkpt>
      <trkpt lat="45.49213" lon="6.73407">
        <ele>2669.2</ele>
        <time>2021-08-15T09:41:30Z</time>
      </trkpt>
      <trkpt lat="45.49213" lon="6.73407">
        <ele>2669.2</ele>
        <time>2021-08-15T09:41:31Z</time>
      </trkpt>
      <trkpt lat="45.49213" lon="6.73407">
        <ele>2669.2</ele>
        <time>2021-08-15T09:41:32Z</time>
      </trkpt>
      <trkpt lat="45.49213" lon="6.73407">
        <ele>2669.2</ele>
        <time>2021-08-15T09:41:33Z</time>
      </trkpt>
      <trkpt lat="45.49213" lon="6.73407">
        <ele>2669.2</ele>
        <time>2021-08-15T09:41:34Z</time>
      </trkpt>
      <trkpt lat="45.49213" lon="6.73407">
        <ele>2669.2</ele>
        <time>2021-08-15T09:41:35Z</time>
      </trkpt>
      <trkpt lat="45.49213" lon="6.73407">
        <ele>2669.2</ele>
        <time>2021-08-15T09:41:36Z</time>
      </trkpt>
      <trkpt lat="45.49213" lon="6.73407">
        <ele>2669.2</ele>
        <time>2021-08-15T09:41:37Z</time>
      </trkpt>
      <trkpt lat="45.49213" lon="6.73407">
        <ele>2669.2</ele>
        <time>2021-08-15T09:41:38Z</time>
      </trkpt>
      <trkpt lat="45.49213" lon="6.73407">
        <ele>2669.2</ele>
        <time>2021-08-15T09:41:39Z</time>
      </trkpt>
      <trkpt lat="45.49213" lon="6.73407">
        <ele>2669.2</ele>
        <time>2021-08-15T09:41:40Z</time>
      </trkpt>
      <trkpt lat="45.49213" lon="6.73407">
        <ele>2669.2</ele>
        <time>2021-08-15T09:41:41Z</time>
      </trkpt>
      <trkpt lat="45.49213" lon="6.73407">
        <ele>2669.2</ele>
        <time>2021-08-15T09:41:42Z</time>
      </trkpt>
      <trkpt lat="45.49213" lon="6.73407">
        <ele>2669.2</ele>
        <time>2021-08-15T09:41:43Z</time>
      </trkpt>
      <trkpt lat="45.49213" lon="6.73407">
        <ele>2669.2</ele>
        <time>2021-08-15T09:41:44Z</time>
      </trkpt>
      <trkpt lat="45.49213" lon="6.73407">
        <ele>2669.2</ele>
        <time>2021-08-15T09:41:45Z</time>
      </trkpt>
      <trkpt lat="45.49213" lon="6.73407">
        <ele>2669.2</ele>
        <time>2021-08-15T09:41:46Z</time>
      </trkpt>
      <trkpt lat="45.49213" lon="6.73407">
        <ele>2669.2</ele>
        <time>2021-08-15T09:41:47Z</time>
      </trkpt>
      <trkpt lat="45.49213" lon="6.73407">
        <ele>2669.2</ele>
        <time>2021-08-15T09:41:48Z</time>
      </trkpt>
      <trkpt lat="45.49213" lon="6.73407">
        <ele>2669.2</ele>
        <time>2021-08-15T09:41:49Z</time>
      </trkpt>
      <trkpt lat="45.49213" lon="6.73407">
        <ele>2669.2</ele>
        <time>2021-08-15T09:41:50Z</time>
      </trkpt>
      <trkpt lat="45.49213" lon="6.73407">
        <ele>2669.2</ele>
        <time>2021-08-15T09:41:51Z</time>
      </trkpt>
      <trkpt lat="45.49213" lon="6.73407">
        <ele>2669.2</ele>
        <time>2021-08-15T09:41:52Z</time>
      </trkpt>
      <trkpt lat="45.49213" lon="6.73407">
        <ele>2669.2</ele>
        <time>2021-08-15T09:41:53Z</time>
      </trkpt>
      <trkpt lat="45.49213" lon="6.73407">
        <ele>2669.2</ele>
        <time>2021-08-15T09:41:54Z</time>
      </trkpt>
      <trkpt lat="45.49213" lon="6.73407">
        <ele>2669.2</ele>
        <time>2021-08-15T09:41:55Z</time>
      </trkpt>
      <trkpt lat="45.49213" lon="6.73407">
        <ele>2669.2</ele>
        <time>2021-08-15T09:41:56Z</time>
      </trkpt>
      <trkpt lat="45.49213" lon="6.73407">
        <ele>2669.2</ele>
        <time>2021-08-15T09:41:57Z</time>
      </trkpt>
      <trkpt lat="45.49213" lon="6.73407">
        <ele>2669.2</ele>
        <time>2021-08-15T09:41:58Z</time>
      </trkpt>
      <trkpt lat="45.49213" lon="6.73407">
        <ele>2669.2</ele>
        <time>2021-08-15T09:41:59Z</time>
      </trkpt>
      <trkpt lat="45.49213" lon="6.73407">
        <ele>2669.2</ele>
        <time>2021-08-15T09:42:00Z</time>
      </trkpt>
      <trkpt lat="45.49213" lon="6.73407">
        <ele>2669.2</ele>
        <time>2021-08-15T09:42:01Z</time>
      </trkpt>
      <trkpt lat="45.49213" lon="6.73407">
        <ele>2669.2</ele>
        <time>2021-08-15T09:42:02Z</time>
      </trkpt>
      <trkpt lat="45.49213" lon="6.73407">
        <ele>2669.2</ele>
        <time>2021-08-15T09:42:03Z</time>
      </trkpt>
      <trkpt lat="45.49213" lon="6.73407">
        <ele>2669.2</ele>
        <time>2021-08-15T09:42:04Z</time>
      </trkpt>
      <trkpt lat="45.49213" lon="6.73407">
        <ele>2669.2</ele>
        <time>2021-08-15T09:42:05Z</time>
      </trkpt>
      <trkpt lat="45.49213" lon="6.73407">
        <ele>2669.2</ele>
        <time>2021-08-15T09:42:06Z</time>
      </trkpt>
      <trkpt lat="45.49213" lon="6.73407">
        <ele>2669.2</ele>
        <time>2021-08-15T09:42:07Z</time>
      </trkpt>
      <trkpt lat="45.49213" lon="6.73407">
        <ele>2669.2</ele>
        <time>2021-08-15T09:42:08Z</time>
      </trkpt>
      <trkpt lat="45.49213" lon="6.73407">
        <ele>2669.2</ele>
        <time>2021-08-15T09:42:09Z</time>
      </trkpt>
      <trkpt lat="45.49213" lon="6.73407">
        <ele>2669.2</ele>
        <time>2021-08-15T09:42:10Z</time>
      </trkpt>
      <trkpt lat="45.49213" lon="6.73407">
        <ele>2669.2</ele>
        <time>2021-08-15T09:42:11Z</time>
      </trkpt>
      <trkpt lat="45.49213" lon="6.73407">
        <ele>2669.2</ele>
        <time>2021-08-15T09:42:12Z</time>
      </trkpt>
      <trkpt lat="45.49213" lon="6.73407">
        <ele>2669.2</ele>
        <time>2021-08-15T09:42:13Z</time>
      </trkpt>
      <trkpt lat="45.49213" lon="6.73407">
        <ele>2669.2</ele>
        <time>2021-08-15T09:42:14Z</time>
      </trkpt>
      <trkpt lat="45.49213" lon="6.73407">
        <ele>2669.2</ele>
        <time>2021-08-15T09:42:15Z</time>
      </trkpt>
      <trkpt lat="45.49213" lon="6.73407">
        <ele>2669.2</ele>
        <time>2021-08-15T09:42:16Z</time>
      </trkpt>
      <trkpt lat="45.49213" lon="6.73407">
        <ele>2669.2</ele>
        <time>2021-08-15T09:42:17Z</time>
      </trkpt>
      <trkpt lat="45.49213" lon="6.73407">
        <ele>2669.2</ele>
        <time>2021-08-15T09:42:18Z</time>
      </trkpt>
      <trkpt lat="45.49213" lon="6.73407">
        <ele>2669.2</ele>
        <time>2021-08-15T09:42:19Z</time>
      </trkpt>
      <trkpt lat="45.49213" lon="6.73407">
        <ele>2669.2</ele>
        <time>2021-08-15T09:42:20Z</time>
      </trkpt>
      <trkpt lat="45.49213" lon="6.73407">
        <ele>2669.2</ele>
        <time>2021-08-15T09:42:21Z</time>
      </trkpt>
      <trkpt lat="45.49213" lon="6.73407">
        <ele>2669.2</ele>
        <time>2021-08-15T09:42:22Z</time>
      </trkpt>
      <trkpt lat="45.49213" lon="6.73407">
        <ele>2669.2</ele>
        <time>2021-08-15T09:42:23Z</time>
      </trkpt>
      <trkpt lat="45.49213" lon="6.73407">
        <ele>2669.2</ele>
        <time>2021-08-15T09:42:24Z</time>
      </trkpt>
      <trkpt lat="45.49213" lon="6.73407">
        <ele>2669.2</ele>
        <time>2021-08-15T09:42:25Z</time>
      </trkpt>
      <trkpt lat="45.49213" lon="6.73407">
        <ele>2669.2</ele>
        <time>2021-08-15T09:42:26Z</time>
      </trkpt>
      <trkpt lat="45.49213" lon="6.73407">
        <ele>2669.2</ele>
        <time>2021-08-15T09:42:27Z</time>
      </trkpt>
      <trkpt lat="45.49213" lon="6.73407">
        <ele>2669.2</ele>
        <time>2021-08-15T09:42:28Z</time>
      </trkpt>
      <trkpt lat="45.49213" lon="6.73407">
        <ele>2669.2</ele>
        <time>2021-08-15T09:42:29Z</time>
      </trkpt>
      <trkpt lat="45.49213" lon="6.73407">
        <ele>2669.2</ele>
        <time>2021-08-15T09:42:30Z</time>
      </trkpt>
      <trkpt lat="45.49213" lon="6.73407">
        <ele>2669.2</ele>
        <time>2021-08-15T09:42:31Z</time>
      </trkpt>
      <trkpt lat="45.49213" lon="6.73407">
        <ele>2669.2</ele>
        <time>2021-08-15T09:42:32Z</time>
      </trkpt>
      <trkpt lat="45.49213" lon="6.73407">
        <ele>2669.2</ele>
        <time>2021-08-15T09:42:33Z</time>
      </trkpt>
      <trkpt lat="45.49213" lon="6.73407">
        <ele>2669.2</ele>
        <time>2021-08-15T09:42:34Z</time>
      </trkpt>
      <trkpt lat="45.49213" lon="6.73407">
        <ele>2669.2</ele>
        <time>2021-08-15T09:42:35Z</time>
      </trkpt>
      <trkpt lat="45.49213" lon="6.73407">
        <ele>2669.2</ele>
        <time>2021-08-15T09:42:36Z</time>
      </trkpt>
      <trkpt lat="45.49213" lon="6.73407">
        <ele>2669.2</ele>
        <time>2021-08-15T09:42:37Z</time>
      </trkpt>
      <trkpt lat="45.49213" lon="6.73407">
        <ele>2669.2</ele>
        <time>2021-08-15T09:42:38Z</time>
      </trkpt>
      <trkpt lat="45.49213" lon="6.73407">
        <ele>2669.2</ele>
        <time>2021-08-15T09:42:39Z</time>
      </trkpt>
      <trkpt lat="45.49213" lon="6.73407">
        <ele>2669.2</ele>
        <time>2021-08-15T09:42:40Z</time>
      </trkpt>
      <trkpt lat="45.49213" lon="6.73407">
        <ele>2669.2</ele>
        <time>2021-08-15T09:42:41Z</time>
      </trkpt>
      <trkpt lat="45.49213" lon="6.73407">
        <ele>2669.2</ele>
        <time>2021-08-15T09:42:42Z</time>
      </trkpt>
      <trkpt lat="45.49213" lon="6.73407">
        <ele>2669.2</ele>
        <time>2021-08-15T09:42:43Z</time>
      </trkpt>
      <trkpt lat="45.49213" lon="6.73407">
        <ele>2669.2</ele>
        <time>2021-08-15T09:42:44Z</time>
      </trkpt>
      <trkpt lat="45.49213" lon="6.73407">
        <ele>2669.2</ele>
        <time>2021-08-15T09:42:45Z</time>
      </trkpt>
      <trkpt lat="45.49213" lon="6.73407">
        <ele>2669.2</ele>
        <time>2021-08-15T09:42:46Z</time>
      </trkpt>
      <trkpt lat="45.49213" lon="6.73407">
        <ele>2669.2</ele>
        <time>2021-08-15T09:42:47Z</time>
      </trkpt>
      <trkpt lat="45.49213" lon="6.73407">
        <ele>2669.2</ele>
        <time>2021-08-15T09:42:48Z</time>
      </trkpt>
      <trkpt lat="45.49213" lon="6.73407">
        <ele>2669.2</ele>
        <time>2021-08-15T09:42:49Z</time>
      </trkpt>
      <trkpt lat="45.49213" lon="6.73407">
        <ele>2669.2</ele>
        <time>2021-08-15T09:42:50Z</time>
      </trkpt>
      <trkpt lat="45.49213" lon="6.73407">
        <ele>2669.2</ele>
        <time>2021-08-15T09:42:51Z</time>
      </trkpt>
      <trkpt lat="45.49213" lon="6.73407">
        <ele>2669.2</ele>
        <time>2021-08-15T09:42:52Z</time>
      </trkpt>
      <trkpt lat="45.49213" lon="6.73407">
        <ele>2669.2</ele>
        <time>2021-08-15T09:42:53Z</time>
      </trkpt>
      <trkpt lat="45.49213" lon="6.73407">
        <ele>2669.2</ele>
        <time>2021-08-15T09:42:54Z</time>
      </trkpt>
      <trkpt lat="45.49213" lon="6.73407">
        <ele>2669.2</ele>
        <time>2021-08-15T09:42:55Z</time>
      </trkpt>
      <trkpt lat="45.49213" lon="6.73407">
        <ele>2669.2</ele>
        <time>2021-08-15T09:42:56Z</time>
      </trkpt>
      <trkpt lat="45.49213" lon="6.73407">
        <ele>2669.2</ele>
        <time>2021-08-15T09:42:57Z</time>
      </trkpt>
      <trkpt lat="45.49213" lon="6.73407">
        <ele>2669.2</ele>
        <time>2021-08-15T09:42:58Z</time>
      </trkpt>
      <trkpt lat="45.49213" lon="6.73407">
        <ele>2669.2</ele>
        <time>2021-08-15T09:42:59Z</time>
      </trkpt>
      <trkpt lat="45.49213" lon="6.73407">
        <ele>2669.2</ele>
        <time>2021-08-15T09:43:00Z</time>
      </trkpt>
      <trkpt lat="45.49213" lon="6.73407">
        <ele>2669.2</ele>
        <time>2021-08-15T09:43:01Z</time>
      </trkpt>
      <trkpt lat="45.49213" lon="6.73407">
        <ele>2669.2</ele>
        <time>2021-08-15T09:43:02Z</time>
      </trkpt>
      <trkpt lat="45.49213" lon="6.73407">
        <ele>2669.2</ele>
        <time>2021-08-15T09:43:03Z</time>
      </trkpt>
      <trkpt lat="45.49213" lon="6.73407">
        <ele>2669.2</ele>
        <time>2021-08-15T09:43:04Z</time>
      </trkpt>
      <trkpt lat="45.49213" lon="6.73407">
        <ele>2669.2</ele>
        <time>2021-08-15T09:43:05Z</time>
      </trkpt>
      <trkpt lat="45.49213" lon="6.73407">
        <ele>2669.2</ele>
        <time>2021-08-15T09:43:06Z</time>
      </trkpt>
      <trkpt lat="45.49213" lon="6.73407">
        <ele>2669.2</ele>
        <time>2021-08-15T09:43:07Z</time>
      </trkpt>
      <trkpt lat="45.49213" lon="6.73407">
        <ele>2669.2</ele>
        <time>2021-08-15T09:43:08Z</time>
      </trkpt>
      <trkpt lat="45.49213" lon="6.73407">
        <ele>2669.2</ele>
        <time>2021-08-15T09:43:09Z</time>
      </trkpt>
      <trkpt lat="45.49213" lon="6.73407">
        <ele>2669.2</ele>
        <time>2021-08-15T09:43:10Z</time>
      </trkpt>
      <trkpt lat="45.49213" lon="6.73407">
        <ele>2669.2</ele>
        <time>2021-08-15T09:43:11Z</time>
      </trkpt>
      <trkpt lat="45.49213" lon="6.73407">
        <ele>2669.2</ele>
        <time>2021-08-15T09:43:12Z</time>
      </trkpt>
      <trkpt lat="45.49213" lon="6.73407">
        <ele>2669.2</ele>
        <time>2021-08-15T09:43:13Z</time>
      </trkpt>
      <trkpt lat="45.49213" lon="6.73407">
        <ele>2669.2</ele>
        <time>2021-08-15T09:43:14Z</time>
      </trkpt>
      <trkpt lat="45.49213" lon="6.73407">
        <ele>2669.2</ele>
        <time>2021-08-15T09:43:15Z</time>
      </trkpt>
      <trkpt lat="45.49213" lon="6.73407">
        <ele>2669.2</ele>
        <time>2021-08-15T09:43:16Z</time>
      </trkpt>
      <trkpt lat="45.49213" lon="6.73407">
        <ele>2669.2</ele>
        <time>2021-08-15T09:43:17Z</time>
      </trkpt>
      <trkpt lat="45.49213" lon="6.73407">
        <ele>2669.2</ele>
        <time>2021-08-15T09:43:18Z</time>
      </trkpt>
      <trkpt lat="45.49213" lon="6.73407">
        <ele>2669.2</ele>
        <time>2021-08-15T09:43:19Z</time>
      </trkpt>
      <trkpt lat="45.49213" lon="6.73407">
        <ele>2669.2</ele>
        <time>2021-08-15T09:43:20Z</time>
      </trkpt>
      <trkpt lat="45.49213" lon="6.73407">
        <ele>2669.2</ele>
        <time>2021-08-15T09:43:21Z</time>
      </trkpt>
      <trkpt lat="45.49213" lon="6.73407">
        <ele>2669.2</ele>
        <time>2021-08-15T09:43:22Z</time>
      </trkpt>
      <trkpt lat="45.49213" lon="6.73407">
        <ele>2669.2</ele>
        <time>2021-08-15T09:43:23Z</time>
      </trkpt>
      <trkpt lat="45.49213" lon="6.73407">
        <ele>2669.2</ele>
        <time>2021-08-15T09:43:24Z</time>
      </trkpt>
      <trkpt lat="45.49213" lon="6.73407">
        <ele>2669.2</ele>
        <time>2021-08-15T09:43:25Z</time>
      </trkpt>
      <trkpt lat="45.49213" lon="6.73407">
        <ele>2669.2</ele>
        <time>2021-08-15T09:43:26Z</time>
      </trkpt>
      <trkpt lat="45.49213" lon="6.73407">
        <ele>2669.2</ele>
        <time>2021-08-15T09:43:27Z</time>
      </trkpt>
      <trkpt lat="45.49213" lon="6.73407">
        <ele>2669.2</ele>
        <time>2021-08-15T09:43:28Z</time>
      </trkpt>
      <trkpt lat="45.49213" lon="6.73407">
        <ele>2669.2</ele>
        <time>2021-08-15T09:43:29Z</time>
      </trkpt>
      <trkpt lat="45.49213" lon="6.73407">
        <ele>2669.2</ele>
        <time>2021-08-15T09:43:30Z</time>
      </trkpt>
      <trkpt lat="45.49213" lon="6.73407">
        <ele>2669.2</ele>
        <time>2021-08-15T09:43:31Z</time>
      </trkpt>
      <trkpt lat="45.49213" lon="6.73407">
        <ele>2669.2</ele>
        <time>2021-08-15T09:43:32Z</time>
      </trkpt>
      <trkpt lat="45.49213" lon="6.73407">
        <ele>2669.2</ele>
        <time>2021-08-15T09:43:33Z</time>
      </trkpt>
      <trkpt lat="45.49213" lon="6.73407">
        <ele>2669.2</ele>
        <time>2021-08-15T09:43:34Z</time>
      </trkpt>
      <trkpt lat="45.49213" lon="6.73407">
        <ele>2669.2</ele>
        <time>2021-08-15T09:43:35Z</time>
      </trkpt>
      <trkpt lat="45.49213" lon="6.73407">
        <ele>2669.2</ele>
        <time>2021-08-15T09:43:36Z</time>
      </trkpt>
      <trkpt lat="45.49213" lon="6.73407">
        <ele>2669.2</ele>
        <time>2021-08-15T09:43:37Z</time>
      </trkpt>
      <trkpt lat="45.49213" lon="6.73407">
        <ele>2669.2</ele>
        <time>2021-08-15T09:43:38Z</time>
      </trkpt>
      <trkpt lat="45.49213" lon="6.73407">
        <ele>2669.2</ele>
        <time>2021-08-15T09:43:39Z</time>
      </trkpt>
      <trkpt lat="45.49213" lon="6.73407">
        <ele>2669.2</ele>
        <time>2021-08-15T09:43:40Z</time>
      </trkpt>
      <trkpt lat="45.49213" lon="6.73407">
        <ele>2669.2</ele>
        <time>2021-08-15T09:43:41Z</time>
      </trkpt>
      <trkpt lat="45.49213" lon="6.73407">
        <ele>2669.2</ele>
        <time>2021-08-15T09:43:42Z</time>
      </trkpt>
      <trkpt lat="45.49213" lon="6.73407">
        <ele>2669.2</ele>
        <time>2021-08-15T09:43:43Z</time>
      </trkpt>
      <trkpt lat="45.49213" lon="6.73407">
        <ele>2669.2</ele>
        <time>2021-08-15T09:43:44Z</time>
      </trkpt>
      <trkpt lat="45.49213" lon="6.73407">
        <ele>2669.2</ele>
        <time>2021-08-15T09:43:45Z</time>
      </trkpt>
      <trkpt lat="45.49213" lon="6.73407">
        <ele>2669.2</ele>
        <time>2021-08-15T09:43:46Z</time>
      </trkpt>
      <trkpt lat="45.49213" lon="6.73407">
        <ele>2669.2</ele>
        <time>2021-08-15T09:43:47Z</time>
      </trkpt>
      <trkpt lat="45.49213" lon="6.73407">
        <ele>2669.2</ele>
        <time>2021-08-15T09:43:48Z</time>
      </trkpt>
      <trkpt lat="45.49213" lon="6.73407">
        <ele>2669.2</ele>
        <time>2021-08-15T09:43:49Z</time>
      </trkpt>
      <trkpt lat="45.49213" lon="6.73407">
        <ele>2669.2</ele>
        <time>2021-08-15T09:43:50Z</time>
      </trkpt>
      <trkpt lat="45.49213" lon="6.73407">
        <ele>2669.2</ele>
        <time>2021-08-15T09:43:51Z</time>
      </trkpt>
      <trkpt lat="45.49213" lon="6.73407">
        <ele>2669.2</ele>
        <time>2021-08-15T09:43:52Z</time>
      </trkpt>
      <trkpt lat="45.49213" lon="6.73407">
        <ele>2669.2</ele>
        <time>2021-08-15T09:43:53Z</time>
      </trkpt>
      <trkpt lat="45.49213" lon="6.73407">
        <ele>2669.2</ele>
        <time>2021-08-15T09:43:54Z</time>
      </trkpt>
      <trkpt lat="45.49213" lon="6.73407">
        <ele>2669.2</ele>
        <time>2021-08-15T09:43:55Z</time>
      </trkpt>
      <trkpt lat="45.49213" lon="6.73407">
        <ele>2669.2</ele>
        <time>2021-08-15T09:43:56Z</time>
      </trkpt>
      <trkpt lat="45.49213" lon="6.73407">
        <ele>2669.2</ele>
        <time>2021-08-15T09:43:57Z</time>
      </trkpt>
      <trkpt lat="45.49213" lon="6.73407">
        <ele>2669.2</ele>
        <time>2021-08-15T09:43:58Z</time>
      </trkpt>
      <trkpt lat="45.49213" lon="6.73407">
        <ele>2669.2</ele>
        <time>2021-08-15T09:43:59Z</time>
      </trkpt>
      <trkpt lat="45.49213" lon="6.73407">
        <ele>2669.2</ele>
        <time>2021-08-15T09:44:00Z</time>
      </trkpt>
      <trkpt lat="45.49213" lon="6.73407">
        <ele>2669.2</ele>
        <time>2021-08-15T09:44:01Z</time>
      </trkpt>
      <trkpt lat="45.49213" lon="6.73407">
        <ele>2669.2</ele>
        <time>2021-08-15T09:44:02Z</time>
      </trkpt>
      <trkpt lat="45.49213" lon="6.73407">
        <ele>2669.2</ele>
        <time>2021-08-15T09:44:03Z</time>
      </trkpt>
      <trkpt lat="45.49213" lon="6.73407">
        <ele>2669.2</ele>
        <time>2021-08-15T09:44:04Z</time>
      </trkpt>
      <trkpt lat="45.49213" lon="6.73407">
        <ele>2669.2</ele>
        <time>2021-08-15T09:44:05Z</time>
      </trkpt>
      <trkpt lat="45.49213" lon="6.73407">
        <ele>2669.2</ele>
        <time>2021-08-15T09:44:06Z</time>
      </trkpt>
      <trkpt lat="45.49213" lon="6.73407">
        <ele>2669.2</ele>
        <time>2021-08-15T09:44:07Z</time>
      </trkpt>
      <trkpt lat="45.49213" lon="6.73407">
        <ele>2669.2</ele>
        <time>2021-08-15T09:44:08Z</time>
      </trkpt>
      <trkpt lat="45.49213" lon="6.73407">
        <ele>2669.2</ele>
        <time>2021-08-15T09:44:09Z</time>
      </trkpt>
      <trkpt lat="45.49213" lon="6.73407">
        <ele>2669.2</ele>
        <time>2021-08-15T09:44:10Z</time>
      </trkpt>
      <trkpt lat="45.49213" lon="6.73407">
        <ele>2669.2</ele>
        <time>2021-08-15T09:44:11Z</time>
      </trkpt>
      <trkpt lat="45.49213" lon="6.73407">
        <ele>2669.2</ele>
        <time>2021-08-15T09:44:12Z</time>
      </trkpt>
      <trkpt lat="45.49213" lon="6.73407">
        <ele>2669.2</ele>
        <time>2021-08-15T09:44:13Z</time>
      </trkpt>
      <trkpt lat="45.49213" lon="6.73407">
        <ele>2669.2</ele>
        <time>2021-08-15T09:44:14Z</time>
      </trkpt>
      <trkpt lat="45.49213" lon="6.73407">
        <ele>2669.2</ele>
        <time>2021-08-15T09:44:15Z</time>
      </trkpt>
      <trkpt lat="45.49213" lon="6.73407">
        <ele>2669.2</ele>
        <time>2021-08-15T09:44:16Z</time>
      </trkpt>
      <trkpt lat="45.49213" lon="6.73407">
        <ele>2669.2</ele>
        <time>2021-08-15T09:44:17Z</time>
      </trkpt>
      <trkpt lat="45.49213" lon="6.73407">
        <ele>2669.2</ele>
        <time>2021-08-15T09:44:18Z</time>
      </trkpt>
      <trkpt lat="45.49213" lon="6.73407">
        <ele>2669.2</ele>
        <time>2021-08-15T09:44:19Z</time>
      </trkpt>
      <trkpt lat="45.49213" lon="6.73407">
        <ele>2669.2</ele>
        <time>2021-08-15T09:44:20Z</time>
      </trkpt>
      <trkpt lat="45.49213" lon="6.73407">
        <ele>2669.2</ele>
        <time>2021-08-15T09:44:21Z</time>
      </trkpt>
      <trkpt lat="45.49213" lon="6.73407">
        <ele>2669.2</ele>
        <time>2021-08-15T09:44:22Z</time>
      </trkpt>
      <trkpt lat="45.49213" lon="6.73407">
        <ele>2669.2</ele>
        <time>2021-08-15T09:44:23Z</time>
      </trkpt>
      <trkpt lat="45.49213" lon="6.73407">
        <ele>2669.2</ele>
        <time>2021-08-15T09:44:24Z</time>
      </trkpt>
      <trkpt lat="45.49213" lon="6.73407">
        <ele>2669.2</ele>
        <time>2021-08-15T09:44:25Z</time>
      </trkpt>
      <trkpt lat="45.49213" lon="6.73407">
        <ele>2669.2</ele>
        <time>2021-08-15T09:44:26Z</time>
      </trkpt>
      <trkpt lat="45.49213" lon="6.73407">
        <ele>2669.2</ele>
        <time>2021-08-15T09:44:27Z</time>
      </trkpt>
      <trkpt lat="45.49213" lon="6.73407">
        <ele>2669.2</ele>
        <time>2021-08-15T09:44:28Z</time>
      </trkpt>
      <trkpt lat="45.49213" lon="6.73407">
        <ele>2669.2</ele>
        <time>2021-08-15T09:44:29Z</time>
      </trkpt>
      <trkpt lat="45.49213" lon="6.73407">
        <ele>2669.2</ele>
        <time>2021-08-15T09:44:30Z</time>
      </trkpt>
      <trkpt lat="45.49213" lon="6.73407">
        <ele>2669.2</ele>
        <time>2021-08-15T09:44:31Z</time>
      </trkpt>
      <trkpt lat="45.49213" lon="6.73407">
        <ele>2669.2</ele>
        <time>2021-08-15T09:44:32Z</time>
      </trkpt>
      <trkpt lat="45.49213" lon="6.73407">
        <ele>2669.2</ele>
        <time>2021-08-15T09:44:33Z</time>
      </trkpt>
      <trkpt lat="45.49213" lon="6.73407">
        <ele>2669.2</ele>
        <time>2021-08-15T09:44:34Z</time>
      </trkpt>
      <trkpt lat="45.49213" lon="6.73407">
        <ele>2669.2</ele>
        <time>2021-08-15T09:44:35Z</time>
      </trkpt>
      <trkpt lat="45.49213" lon="6.73407">
        <ele>2669.2</ele>
        <time>2021-08-15T09:44:36Z</time>
      </trkpt>
      <trkpt lat="45.49213" lon="6.73407">
        <ele>2669.2</ele>
        <time>2021-08-15T09:44:37Z</time>
      </trkpt>
      <trkpt lat="45.49213" lon="6.73407">
        <ele>2669.2</ele>
        <time>2021-08-15T09:44:38Z</time>
      </trkpt>
      <trkpt lat="45.49213" lon="6.73407">
        <ele>2669.2</ele>
        <time>2021-08-15T09:44:39Z</time>
      </trkpt>
      <trkpt lat="45.49213" lon="6.73407">
        <ele>2669.2</ele>
        <time>2021-08-15T09:44:40Z</time>
      </trkpt>
      <trkpt lat="45.49213" lon="6.73407">
        <ele>2669.2</ele>
        <time>2021-08-15T09:44:41Z</time>
      </trkpt>
      <trkpt lat="45.49213" lon="6.73407">
        <ele>2669.2</ele>
        <time>2021-08-15T09:44:42Z</time>
      </trkpt>
      <trkpt lat="45.49213" lon="6.73407">
        <ele>2669.2</ele>
        <time>2021-08-15T09:44:43Z</time>
      </trkpt>
      <trkpt lat="45.49213" lon="6.73407">
        <ele>2669.2</ele>
        <time>2021-08-15T09:44:44Z</time>
      </trkpt>
      <trkpt lat="45.49213" lon="6.73407">
        <ele>2669.2</ele>
        <time>2021-08-15T09:44:45Z</time>
      </trkpt>
      <trkpt lat="45.49213" lon="6.73407">
        <ele>2669.2</ele>
        <time>2021-08-15T09:44:46Z</time>
      </trkpt>
      <trkpt lat="45.49213" lon="6.73407">
        <ele>2669.2</ele>
        <time>2021-08-15T09:44:47Z</time>
      </trkpt>
      <trkpt lat="45.49213" lon="6.73407">
        <ele>2669.2</ele>
        <time>2021-08-15T09:44:48Z</time>
      </trkpt>
      <trkpt lat="45.49213" lon="6.73407">
        <ele>2669.2</ele>
        <time>2021-08-15T09:44:49Z</time>
      </trkpt>
      <trkpt lat="45.49213" lon="6.73407">
        <ele>2669.2</ele>
        <time>2021-08-15T09:44:50Z</time>
      </trkpt>
      <trkpt lat="45.49213" lon="6.73407">
        <ele>2669.2</ele>
        <time>2021-08-15T09:44:51Z</time>
      </trkpt>
      <trkpt lat="45.49213" lon="6.73407">
        <ele>2669.2</ele>
        <time>2021-08-15T09:44:52Z</time>
      </trkpt>
      <trkpt lat="45.49213" lon="6.73407">
        <ele>2669.2</ele>
        <time>2021-08-15T09:44:53Z</time>
      </trkpt>
      <trkpt lat="45.49213" lon="6.73407">
        <ele>2669.2</ele>
        <time>2021-08-15T09:44:54Z</time>
      </trkpt>
      <trkpt lat="45.49213" lon="6.73407">
        <ele>2669.2</ele>
        <time>2021-08-15T09:44:55Z</time>
      </trkpt>
      <trkpt lat="45.49213" lon="6.73407">
        <ele>2669.2</ele>
        <time>2021-08-15T09:44:56Z</time>
      </trkpt>
      <trkpt lat="45.49213" lon="6.73407">
        <ele>2669.2</ele>
        <time>2021-08-15T09:44:57Z</time>
      </trkpt>
      <trkpt lat="45.49213" lon="6.73407">
        <ele>2669.2</ele>
        <time>2021-08-15T09:44:58Z</time>
      </trkpt>
      <trkpt lat="45.49213" lon="6.73407">
        <ele>2669.2</ele>
        <time>2021-08-15T09:44:59Z</time>
      </trkpt>
      <trkpt lat="45.49213" lon="6.73407">
        <ele>2669.2</ele>
        <time>2021-08-15T09:45:00Z</time>
      </trkpt>
      <trkpt lat="45.49213" lon="6.73407">
        <ele>2669.2</ele>
        <time>2021-08-15T09:45:01Z</time>
      </trkpt>
      <trkpt lat="45.49213" lon="6.73407">
        <ele>2669.2</ele>
        <time>2021-08-15T09:45:02Z</time>
      </trkpt>
      <trkpt lat="45.49213" lon="6.73407">
        <ele>2669.2</ele>
        <time>2021-08-15T09:45:03Z</time>
      </trkpt>
      <trkpt lat="45.49213" lon="6.73407">
        <ele>2669.2</ele>
        <time>2021-08-15T09:45:04Z</time>
      </trkpt>
      <trkpt lat="45.49213" lon="6.73407">
        <ele>2669.2</ele>
        <time>2021-08-15T09:45:05Z</time>
      </trkpt>
      <trkpt lat="45.49213" lon="6.73407">
        <ele>2669.2</ele>
        <time>2021-08-15T09:45:06Z</time>
      </trkpt>
      <trkpt lat="45.49213" lon="6.73407">
        <ele>2669.2</ele>
        <time>2021-08-15T09:45:07Z</time>
      </trkpt>
      <trkpt lat="45.49213" lon="6.73407">
        <ele>2669.2</ele>
        <time>2021-08-15T09:45:08Z</time>
      </trkpt>
      <trkpt lat="45.49213" lon="6.73407">
        <ele>2669.2</ele>
        <time>2021-08-15T09:45:09Z</time>
      </trkpt>
      <trkpt lat="45.49213" lon="6.73407">
        <ele>2669.2</ele>
        <time>2021-08-15T09:45:10Z</time>
      </trkpt>
      <trkpt lat="45.49213" lon="6.73407">
        <ele>2669.2</ele>
        <time>2021-08-15T09:45:11Z</time>
      </trkpt>
      <trkpt lat="45.49213" lon="6.73407">
        <ele>2669.2</ele>
        <time>2021-08-15T09:45:12Z</time>
      </trkpt>
      <trkpt lat="45.49213" lon="6.73407">
        <ele>2669.2</ele>
        <time>2021-08-15T09:45:13Z</time>
      </trkpt>
      <trkpt lat="45.49213" lon="6.73407">
        <ele>2669.2</ele>
        <time>2021-08-15T09:45:14Z</time>
      </trkpt>
      <trkpt lat="45.49213" lon="6.73407">
        <ele>2669.2</ele>
        <time>2021-08-15T09:45:15Z</time>
      </trkpt>
      <trkpt lat="45.49213" lon="6.73407">
        <ele>2669.2</ele>
        <time>2021-08-15T09:45:16Z</time>
      </trkpt>
      <trkpt lat="45.49213" lon="6.73407">
        <ele>2669.2</ele>
        <time>2021-08-15T09:45:17Z</time>
      </trkpt>
      <trkpt lat="45.49213" lon="6.73407">
        <ele>2669.2</ele>
        <time>2021-08-15T09:45:18Z</time>
      </trkpt>
      <trkpt lat="45.49213" lon="6.73407">
        <ele>2669.2</ele>
        <time>2021-08-15T09:45:19Z</time>
      </trkpt>
      <trkpt lat="45.49213" lon="6.73407">
        <ele>2669.2</ele>
        <time>2021-08-15T09:45:20Z</time>
      </trkpt>
      <trkpt lat="45.49213" lon="6.73407">
        <ele>2669.2</ele>
        <time>2021-08-15T09:45:21Z</time>
      </trkpt>
      <trkpt lat="45.49213" lon="6.73407">
        <ele>2669.2</ele>
        <time>2021-08-15T09:45:22Z</time>
      </trkpt>
      <trkpt lat="45.49213" lon="6.73407">
        <ele>2669.2</ele>
        <time>2021-08-15T09:45:23Z</time>
      </trkpt>
      <trkpt lat="45.49213" lon="6.73407">
        <ele>2669.3</ele>
        <time>2021-08-15T09:45:24Z</time>
      </trkpt>
      <trkpt lat="45.49213" lon="6.73407">
        <ele>2669.4</ele>
        <time>2021-08-15T09:45:25Z</time>
      </trkpt>
      <trkpt lat="45.49213" lon="6.73407">
        <ele>2669.5</ele>
        <time>2021-08-15T09:45:26Z</time>
      </trkpt>
      <trkpt lat="45.49213" lon="6.73407">
        <ele>2669.6</ele>
        <time>2021-08-15T09:45:27Z</time>
      </trkpt>
      <trkpt lat="45.49213" lon="6.73407">
        <ele>2669.7</ele>
        <time>2021-08-15T09:45:28Z</time>
      </trkpt>
      <trkpt lat="45.49213" lon="6.73407">
        <ele>2669.8</ele>
        <time>2021-08-15T09:45:29Z</time>
      </trkpt>
      <trkpt lat="45.49213" lon="6.73407">
        <ele>2669.9</ele>
        <time>2021-08-15T09:45:30Z</time>
      </trkpt>
      <trkpt lat="45.49213" lon="6.73407">
        <ele>2670</ele>
        <time>2021-08-15T09:45:31Z</time>
      </trkpt>
      <trkpt lat="45.49213" lon="6.73407">
        <ele>2670.1</ele>
        <time>2021-08-15T09:45:32Z</time>
      </trkpt>
      <trkpt lat="45.49213" lon="6.73407">
        <ele>2670.2</ele>
        <time>2021-08-15T09:45:33Z</time>
      </trkpt>
      <trkpt lat="45.49213" lon="6.73407">
        <ele>2670.3</ele>
        <time>2021-08-15T09:45:34Z</time>
      </trkpt>
      <trkpt lat="45.49213" lon="6.73407">
        <ele>2670.4</ele>
        <time>2021-08-15T09:45:35Z</time>
      </trkpt>
      <trkpt lat="45.49213" lon="6.73407">
        <ele>2670.5</ele>
        <time>2021-08-15T09:45:36Z</time>
      </trkpt>
      <trkpt lat="45.49213" lon="6.73407">
        <ele>2670.6</ele>
        <time>2021-08-15T09:45:37Z</time>
      </trkpt>
      <trkpt lat="45.49213" lon="6.73407">
        <ele>2670.7</ele>
        <time>2021-08-15T09:45:38Z</time>
      </trkpt>
      <trkpt lat="45.49213" lon="6.73407">
        <ele>2670.8</ele>
        <time>2021-08-15T09:45:39Z</time>
      </trkpt>
      <trkpt lat="45.49213" lon="6.73407">
        <ele>2671</ele>
        <time>2021-08-15T09:45:40Z</time>
      </trkpt>
      <trkpt lat="45.49213" lon="6.73407">
        <ele>2671.1</ele>
        <time>2021-08-15T09:45:41Z</time>
      </trkpt>
      <trkpt lat="45.49213" lon="6.73407">
        <ele>2671.2</ele>
        <time>2021-08-15T09:45:42Z</time>
      </trkpt>
      <trkpt lat="45.49213" lon="6.73407">
        <ele>2671.3</ele>
        <time>2021-08-15T09:45:43Z</time>
      </trkpt>
      <trkpt lat="45.49213" lon="6.73407">
        <ele>2671.4</ele>
        <time>2021-08-15T09:45:44Z</time>
      </trkpt>
      <trkpt lat="45.49213" lon="6.73407">
        <ele>2671.5</ele>
        <time>2021-08-15T09:45:45Z</time>
      </trkpt>
      <trkpt lat="45.49213" lon="6.73407">
        <ele>2671.6</ele>
        <time>2021-08-15T09:45:46Z</time>
      </trkpt>
      <trkpt lat="45.49213" lon="6.73407">
        <ele>2671.7</ele>
        <time>2021-08-15T09:45:47Z</time>
      </trkpt>
      <trkpt lat="45.49213" lon="6.73407">
        <ele>2671.8</ele>
        <time>2021-08-15T09:45:48Z</time>
      </trkpt>
      <trkpt lat="45.49213" lon="6.73407">
        <ele>2671.9</ele>
        <time>2021-08-15T09:45:49Z</time>
      </trkpt>
      <trkpt lat="45.49213" lon="6.73407">
        <ele>2672</ele>
        <time>2021-08-15T09:45:50Z</time>
      </trkpt>
      <trkpt lat="45.49213" lon="6.73407">
        <ele>2672.1</ele>
        <time>2021-08-15T09:45:51Z</time>
      </trkpt>
      <trkpt lat="45.49213" lon="6.73407">
        <ele>2672.2</ele>
        <time>2021-08-15T09:45:52Z</time>
      </trkpt>
      <trkpt lat="45.49213" lon="6.73407">
        <ele>2672.3</ele>
        <time>2021-08-15T09:45:53Z</time>
      </trkpt>
      <trkpt lat="45.49213" lon="6.73407">
        <ele>2672.4</ele>
        <time>2021-08-15T09:45:54Z</time>
      </trkpt>
      <trkpt lat="45.49213" lon="6.73407">
        <ele>2672.5</ele>
        <time>2021-08-15T09:45:55Z</time>
      </trkpt>
      <trkpt lat="45.49213" lon="6.73407">
        <ele>2672.6</ele>
        <time>2021-08-15T09:45:56Z</time>
      </trkpt>
      <trkpt lat="45.49213" lon="6.73407">
        <ele>2672.7</ele>
        <time>2021-08-15T09:45:57Z</time>
      </trkpt>
      <trkpt lat="45.49213" lon="6.73407">
        <ele>2672.8</ele>
        <time>2021-08-15T09:45:58Z</time>
      </trkpt>
      <trkpt lat="45.49213" lon="6.73407">
        <ele>2672.9</ele>
        <time>2021-08-15T09:45:59Z</time>
      </trkpt>
      <trkpt lat="45.49213" lon="6.73407">
        <ele>2673</ele>
        <time>2021-08-15T09:46:00Z</time>
      </trkpt>
      <trkpt lat="45.49213" lon="6.73407">
        <ele>2673.1</ele>
        <time>2021-08-15T09:46:01Z</time>
      </trkpt>
      <trkpt lat="45.49213" lon="6.73407">
        <ele>2673.2</ele>
        <time>2021-08-15T09:46:02Z</time>
      </trkpt>
      <trkpt lat="45.49213" lon="6.73407">
        <ele>2673.3</ele>
        <time>2021-08-15T09:46:03Z</time>
      </trkpt>
      <trkpt lat="45.49213" lon="6.73407">
        <ele>2673.4</ele>
        <time>2021-08-15T09:46:04Z</time>
      </trkpt>
      <trkpt lat="45.49213" lon="6.73407">
        <ele>2673.5</ele>
        <time>2021-08-15T09:46:05Z</time>
      </trkpt>
      <trkpt lat="45.49213" lon="6.73407">
        <ele>2673.6</ele>
        <time>2021-08-15T09:46:06Z</time>
      </trkpt>
      <trkpt lat="45.49213" lon="6.73407">
        <ele>2673.7</ele>
        <time>2021-08-15T09:46:07Z</time>
      </trkpt>
      <trkpt lat="45.49213" lon="6.73407">
        <ele>2673.8</ele>
        <time>2021-08-15T09:46:08Z</time>
      </trkpt>
      <trkpt lat="45.49213" lon="6.73407">
        <ele>2673.9</ele>
        <time>2021-08-15T09:46:09Z</time>
      </trkpt>
      <trkpt lat="45.49213" lon="6.73407">
        <ele>2674</ele>
        <time>2021-08-15T09:46:10Z</time>
      </trkpt>
      <trkpt lat="45.49213" lon="6.73407">
        <ele>2674.1</ele>
        <time>2021-08-15T09:46:11Z</time>
      </trkpt>
      <trkpt lat="45.49213" lon="6.73407">
        <ele>2674.2</ele>
        <time>2021-08-15T09:46:12Z</time>
      </trkpt>
      <trkpt lat="45.49213" lon="6.73407">
        <ele>2674.4</ele>
        <time>2021-08-15T09:46:13Z</time>
      </trkpt>
      <trkpt lat="45.49213" lon="6.73407">
        <ele>2674.5</ele>
        <time>2021-08-15T09:46:14Z</time>
      </trkpt>
      <trkpt lat="45.49213" lon="6.73407">
        <ele>2674.6</ele>
        <time>2021-08-15T09:46:15Z</time>
      </trkpt>
      <trkpt lat="45.49213" lon="6.73407">
        <ele>2674.7</ele>
        <time>2021-08-15T09:46:16Z</time>
      </trkpt>
      <trkpt lat="45.49213" lon="6.73407">
        <ele>2674.8</ele>
        <time>2021-08-15T09:46:17Z</time>
      </trkpt>
      <trkpt lat="45.49213" lon="6.73407">
        <ele>2674.9</ele>
        <time>2021-08-15T09:46:18Z</time>
      </trkpt>
      <trkpt lat="45.49213" lon="6.73407">
        <ele>2675</ele>
        <time>2021-08-15T09:46:19Z</time>
      </trkpt>
      <trkpt lat="45.49213" lon="6.73407">
        <ele>2675.1</ele>
        <time>2021-08-15T09:46:20Z</time>
      </trkpt>
      <trkpt lat="45.49213" lon="6.73407">
        <ele>2675.2</ele>
        <time>2021-08-15T09:46:21Z</time>
      </trkpt>
      <trkpt lat="45.49213" lon="6.73407">
        <ele>2675.3</ele>
        <time>2021-08-15T09:46:22Z</time>
      </trkpt>
      <trkpt lat="45.49213" lon="6.73407">
        <ele>2675.4</ele>
        <time>2021-08-15T09:46:23Z</time>
      </trkpt>
      <trkpt lat="45.49213" lon="6.73407">
        <ele>2675.5</ele>
        <time>2021-08-15T09:46:24Z</time>
      </trkpt>
      <trkpt lat="45.49213" lon="6.73407">
        <ele>2675.6</ele>
        <time>2021-08-15T09:46:25Z</time>
      </trkpt>
      <trkpt lat="45.49213" lon="6.73407">
        <ele>2675.7</ele>
        <time>2021-08-15T09:46:26Z</time>
      </trkpt>
      <trkpt lat="45.49213" lon="6.73407">
        <ele>2675.8</ele>
        <time>2021-08-15T09:46:27Z</time>
      </trkpt>
      <trkpt lat="45.49213" lon="6.73407">
        <ele>2675.9</ele>
        <time>2021-08-15T09:46:28Z</time>
      </trkpt>
      <trkpt lat="45.49213" lon="6.73407">
        <ele>2676</ele>
        <time>2021-08-15T09:46:29Z</time>
      </trkpt>
      <trkpt lat="45.49213" lon="6.73407">
        <ele>2676.1</ele>
        <time>2021-08-15T09:46:30Z</time>
      </trkpt>
      <trkpt lat="45.49213" lon="6.73407">
        <ele>2676.2</ele>
        <time>2021-08-15T09:46:31Z</time>
      </trkpt>
      <trkpt lat="45.49213" lon="6.73407">
        <ele>2676.3</ele>
        <time>2021-08-15T09:46:32Z</time>
      </trkpt>
      <trkpt lat="45.49213" lon="6.73407">
        <ele>2676.4</ele>
        <time>2021-08-15T09:46:33Z</time>
      </trkpt>
      <trkpt lat="45.49213" lon="6.73407">
        <ele>2676.5</ele>
        <time>2021-08-15T09:46:34Z</time>
      </trkpt>
      <trkpt lat="45.49213" lon="6.73407">
        <ele>2676.6</ele>
        <time>2021-08-15T09:46:35Z</time>
      </trkpt>
      <trkpt lat="45.49213" lon="6.73407">
        <ele>2676.7</ele>
        <time>2021-08-15T09:46:36Z</time>
      </trkpt>
      <trkpt lat="45.49213" lon="6.73407">
        <ele>2676.8</ele>
        <time>2021-08-15T09:46:37Z</time>
      </trkpt>
      <trkpt lat="45.49213" lon="6.73407">
        <ele>2676.9</ele>
        <time>2021-08-15T09:46:38Z</time>
      </trkpt>
      <trkpt lat="45.49213" lon="6.73407">
        <ele>2677</ele>
        <time>2021-08-15T09:46:39Z</time>
      </trkpt>
      <trkpt lat="45.49213" lon="6.73407">
        <ele>2677.1</ele>
        <time>2021-08-15T09:46:40Z</time>
      </trkpt>
      <trkpt lat="45.49213" lon="6.73407">
        <ele>2677.2</ele>
        <time>2021-08-15T09:46:41Z</time>
      </trkpt>
      <trkpt lat="45.49213" lon="6.73407">
        <ele>2677.3</ele>
        <time>2021-08-15T09:46:42Z</time>
      </trkpt>
      <trkpt lat="45.49213" lon="6.73407">
        <ele>2677.4</ele>
        <time>2021-08-15T09:46:43Z</time>
      </trkpt>
      <trkpt lat="45.49213" lon="6.73407">
        <ele>2677.5</ele>
        <time>2021-08-15T09:46:44Z</time>
      </trkpt>
      <trkpt lat="45.49213" lon="6.73407">
        <ele>2677.6</ele>
        <time>2021-08-15T09:46:45Z</time>
      </trkpt>
      <trkpt lat="45.49213" lon="6.73407">
        <ele>2677.7</ele>
        <time>2021-08-15T09:46:46Z</time>
      </trkpt>
      <trkpt lat="45.49213" lon="6.73407">
        <ele>2677.9</ele>
        <time>2021-08-15T09:46:47Z</time>
      </trkpt>
      <trkpt lat="45.49213" lon="6.73407">
        <ele>2678</ele>
        <time>2021-08-15T09:46:48Z</time>
      </trkpt>
      <trkpt lat="45.49213" lon="6.73407">
        <ele>2678.1</ele>
        <time>2021-08-15T09:46:49Z</time>
      </trkpt>
      <trkpt lat="45.49213" lon="6.73407">
        <ele>2678.2</ele>
        <time>2021-08-15T09:46:50Z</time>
      </trkpt>
      <trkpt lat="45.49213" lon="6.73407">
        <ele>2678.3</ele>
        <time>2021-08-15T09:46:51Z</time>
      </trkpt>
      <trkpt lat="45.49213" lon="6.73407">
        <ele>2678.4</ele>
        <time>2021-08-15T09:46:52Z</time>
      </trkpt>
      <trkpt lat="45.49213" lon="6.73407">
        <ele>2678.5</ele>
        <time>2021-08-15T09:46:53Z</time>
      </trkpt>
      <trkpt lat="45.49213" lon="6.73407">
        <ele>2678.6</ele>
        <time>2021-08-15T09:46:54Z</time>
      </trkpt>
      <trkpt lat="45.49213" lon="6.73407">
        <ele>2678.7</ele>
        <time>2021-08-15T09:46:55Z</time>
      </trkpt>
      <trkpt lat="45.49213" lon="6.73407">
        <ele>2678.8</ele>
        <time>2021-08-15T09:46:56Z</time>
      </trkpt>
      <trkpt lat="45.49213" lon="6.73407">
        <ele>2678.9</ele>
        <time>2021-08-15T09:46:57Z</time>
      </trkpt>
      <trkpt lat="45.49213" lon="6.73407">
        <ele>2679</ele>
        <time>2021-08-15T09:46:58Z</time>
      </trkpt>
      <trkpt lat="45.49213" lon="6.73407">
        <ele>2679.1</ele>
        <time>2021-08-15T09:46:59Z</time>
      </trkpt>
      <trkpt lat="45.49213" lon="6.73407">
        <ele>2679.2</ele>
        <time>2021-08-15T09:47:00Z</time>
      </trkpt>
      <trkpt lat="45.49213" lon="6.73407">
        <ele>2679.3</ele>
        <time>2021-08-15T09:47:01Z</time>
      </trkpt>
      <trkpt lat="45.49213" lon="6.73407">
        <ele>2679.4</ele>
        <time>2021-08-15T09:47:02Z</time>
      </trkpt>
      <trkpt lat="45.49213" lon="6.73407">
        <ele>2679.5</ele>
        <time>2021-08-15T09:47:03Z</time>
      </trkpt>
      <trkpt lat="45.49213" lon="6.73407">
        <ele>2679.5</ele>
        <time>2021-08-15T09:47:04Z</time>
      </trkpt>
      <trkpt lat="45.49213" lon="6.73407">
        <ele>2679.5</ele>
        <time>2021-08-15T09:47:05Z</time>
      </trkpt>
      <trkpt lat="45.49213" lon="6.73407">
        <ele>2679.5</ele>
        <time>2021-08-15T09:47:06Z</time>
      </trkpt>
      <trkpt lat="45.49213" lon="6.73407">
        <ele>2679.5</ele>
        <time>2021-08-15T09:47:07Z</time>
      </trkpt>
      <trkpt lat="45.49213" lon="6.73407">
        <ele>2679.5</ele>
        <time>2021-08-15T09:47:08Z</time>
      </trkpt>
      <trkpt lat="45.49213" lon="6.73407">
        <ele>2679.5</ele>
        <time>2021-08-15T09:47:09Z</time>
      </trkpt>
      <trkpt lat="45.49213" lon="6.73407">
        <ele>2679.5</ele>
        <time>2021-08-15T09:47:10Z</time>
      </trkpt>
      <trkpt lat="45.49213" lon="6.73407">
        <ele>2679.5</ele>
        <time>2021-08-15T09:47:11Z</time>
      </trkpt>
      <trkpt lat="45.49213" lon="6.73407">
        <ele>2679.5</ele>
        <time>2021-08-15T09:47:12Z</time>
      </trkpt>
      <trkpt lat="45.49213" lon="6.73407">
        <ele>2679.5</ele>
        <time>2021-08-15T09:47:13Z</time>
      </trkpt>
      <trkpt lat="45.49213" lon="6.73407">
        <ele>2679.5</ele>
        <time>2021-08-15T09:47:14Z</time>
      </trkpt>
      <trkpt lat="45.49213" lon="6.73407">
        <ele>2679.5</ele>
        <time>2021-08-15T09:47:15Z</time>
      </trkpt>
      <trkpt lat="45.49213" lon="6.73407">
        <ele>2679.5</ele>
        <time>2021-08-15T09:47:16Z</time>
      </trkpt>
      <trkpt lat="45.49213" lon="6.73407">
        <ele>2679.5</ele>
        <time>2021-08-15T09:47:17Z</time>
      </trkpt>
      <trkpt lat="45.49213" lon="6.73407">
        <ele>2679.5</ele>
        <time>2021-08-15T09:47:18Z</time>
      </trkpt>
      <trkpt lat="45.49213" lon="6.73407">
        <ele>2679.5</ele>
        <time>2021-08-15T09:47:19Z</time>
      </trkpt>
      <trkpt lat="45.49213" lon="6.73407">
        <ele>2679.5</ele>
        <time>2021-08-15T09:47:20Z</time>
      </trkpt>
      <trkpt lat="45.49213" lon="6.73407">
        <ele>2679.5</ele>
        <time>2021-08-15T09:47:21Z</time>
      </trkpt>
      <trkpt lat="45.49213" lon="6.73407">
        <ele>2679.5</ele>
        <time>2021-08-15T09:47:22Z</time>
      </trkpt>
      <trkpt lat="45.49213" lon="6.73407">
        <ele>2679.5</ele>
        <time>2021-08-15T09:47:23Z</time>
      </trkpt>
      <trkpt lat="45.49213" lon="6.73407">
        <ele>2679.5</ele>
        <time>2021-08-15T09:47:24Z</time>
      </trkpt>
      <trkpt lat="45.49213" lon="6.73407">
        <ele>2679.5</ele>
        <time>2021-08-15T09:47:25Z</time>
      </trkpt>
      <trkpt lat="45.49213" lon="6.73407">
        <ele>2679.5</ele>
        <time>2021-08-15T09:47:26Z</time>
      </trkpt>
      <trkpt lat="45.49213" lon="6.73407">
        <ele>2679.5</ele>
        <time>2021-08-15T09:47:27Z</time>
      </trkpt>
      <trkpt lat="45.49213" lon="6.73407">
        <ele>2679.5</ele>
        <time>2021-08-15T09:47:28Z</time>
      </trkpt>
      <trkpt lat="45.49213" lon="6.73407">
        <ele>2679.5</ele>
        <time>2021-08-15T09:47:29Z</time>
      </trkpt>
      <trkpt lat="45.49213" lon="6.73407">
        <ele>2679.5</ele>
        <time>2021-08-15T09:47:30Z</time>
      </trkpt>
      <trkpt lat="45.49213" lon="6.73407">
        <ele>2679.5</ele>
        <time>2021-08-15T09:47:31Z</time>
      </trkpt>
      <trkpt lat="45.49213" lon="6.73407">
        <ele>2679.5</ele>
        <time>2021-08-15T09:47:32Z</time>
      </trkpt>
      <trkpt lat="45.49213" lon="6.73407">
        <ele>2679.5</ele>
        <time>2021-08-15T09:47:33Z</time>
      </trkpt>
      <trkpt lat="45.49213" lon="6.73407">
        <ele>2679.5</ele>
        <time>2021-08-15T09:47:34Z</time>
      </trkpt>
      <trkpt lat="45.49213" lon="6.73407">
        <ele>2679.5</ele>
        <time>2021-08-15T09:47:35Z</time>
      </trkpt>
      <trkpt lat="45.49213" lon="6.73407">
        <ele>2679.5</ele>
        <time>2021-08-15T09:47:36Z</time>
      </trkpt>
      <trkpt lat="45.49213" lon="6.73407">
        <ele>2679.5</ele>
        <time>2021-08-15T09:47:37Z</time>
      </trkpt>
      <trkpt lat="45.49213" lon="6.73407">
        <ele>2679.5</ele>
        <time>2021-08-15T09:47:38Z</time>
      </trkpt>
      <trkpt lat="45.49213" lon="6.73407">
        <ele>2679.5</ele>
        <time>2021-08-15T09:47:39Z</time>
      </trkpt>
      <trkpt lat="45.49213" lon="6.73407">
        <ele>2679.5</ele>
        <time>2021-08-15T09:47:40Z</time>
      </trkpt>
      <trkpt lat="45.49213" lon="6.73407">
        <ele>2679.5</ele>
        <time>2021-08-15T09:47:41Z</time>
      </trkpt>
      <trkpt lat="45.49213" lon="6.73407">
        <ele>2679.5</ele>
        <time>2021-08-15T09:47:42Z</time>
      </trkpt>
      <trkpt lat="45.49213" lon="6.73407">
        <ele>2679.5</ele>
        <time>2021-08-15T09:47:43Z</time>
      </trkpt>
      <trkpt lat="45.49213" lon="6.73407">
        <ele>2679.5</ele>
        <time>2021-08-15T09:47:44Z</time>
      </trkpt>
      <trkpt lat="45.49213" lon="6.73407">
        <ele>2679.5</ele>
        <time>2021-08-15T09:47:45Z</time>
      </trkpt>
      <trkpt lat="45.49213" lon="6.73407">
        <ele>2679.5</ele>
        <time>2021-08-15T09:47:46Z</time>
      </trkpt>
      <trkpt lat="45.49213" lon="6.73407">
        <ele>2679.5</ele>
        <time>2021-08-15T09:47:47Z</time>
      </trkpt>
      <trkpt lat="45.49213" lon="6.73407">
        <ele>2679.5</ele>
        <time>2021-08-15T09:47:48Z</time>
      </trkpt>
      <trkpt lat="45.49213" lon="6.73407">
        <ele>2679.5</ele>
        <time>2021-08-15T09:47:49Z</time>
      </trkpt>
      <trkpt lat="45.49213" lon="6.73407">
        <ele>2679.5</ele>
        <time>2021-08-15T09:47:50Z</time>
      </trkpt>
      <trkpt lat="45.49213" lon="6.73407">
        <ele>2679.5</ele>
        <time>2021-08-15T09:47:51Z</time>
      </trkpt>
      <trkpt lat="45.49213" lon="6.73407">
        <ele>2679.5</ele>
        <time>2021-08-15T09:47:52Z</time>
      </trkpt>
      <trkpt lat="45.49213" lon="6.73407">
        <ele>2679.5</ele>
        <time>2021-08-15T09:47:53Z</time>
      </trkpt>
      <trkpt lat="45.49213" lon="6.73407">
        <ele>2679.5</ele>
        <time>2021-08-15T09:47:54Z</time>
      </trkpt>
      <trkpt lat="45.49213" lon="6.73407">
        <ele>2679.5</ele>
        <time>2021-08-15T09:47:55Z</time>
      </trkpt>
      <trkpt lat="45.49213" lon="6.73407">
        <ele>2679.5</ele>
        <time>2021-08-15T09:47:56Z</time>
      </trkpt>
      <trkpt lat="45.49213" lon="6.73407">
        <ele>2679.5</ele>
        <time>2021-08-15T09:47:57Z</time>
      </trkpt>
      <trkpt lat="45.49213" lon="6.73407">
        <ele>2679.5</ele>
        <time>2021-08-15T09:47:58Z</time>
      </trkpt>
      <trkpt lat="45.49213" lon="6.73407">
        <ele>2679.5</ele>
        <time>2021-08-15T09:47:59Z</time>
      </trkpt>
      <trkpt lat="45.49213" lon="6.73407">
        <ele>2679.5</ele>
        <time>2021-08-15T09:48:00Z</time>
      </trkpt>
      <trkpt lat="45.49213" lon="6.73407">
        <ele>2679.5</ele>
        <time>2021-08-15T09:48:01Z</time>
      </trkpt>
      <trkpt lat="45.49213" lon="6.73407">
        <ele>2679.5</ele>
        <time>2021-08-15T09:48:02Z</time>
      </trkpt>
      <trkpt lat="45.49213" lon="6.73407">
        <ele>2679.5</ele>
        <time>2021-08-15T09:48:03Z</time>
      </trkpt>
      <trkpt lat="45.49213" lon="6.73407">
        <ele>2679.5</ele>
        <time>2021-08-15T09:48:04Z</time>
      </trkpt>
      <trkpt lat="45.49213" lon="6.73407">
        <ele>2679.5</ele>
        <time>2021-08-15T09:48:05Z</time>
      </trkpt>
      <trkpt lat="45.49213" lon="6.73407">
        <ele>2679.5</ele>
        <time>2021-08-15T09:48:06Z</time>
      </trkpt>
      <trkpt lat="45.49213" lon="6.73407">
        <ele>2679.5</ele>
        <time>2021-08-15T09:48:07Z</time>
      </trkpt>
      <trkpt lat="45.49213" lon="6.73407">
        <ele>2679.5</ele>
        <time>2021-08-15T09:48:08Z</time>
      </trkpt>
      <trkpt lat="45.49213" lon="6.73407">
        <ele>2679.5</ele>
        <time>2021-08-15T09:48:09Z</time>
      </trkpt>
      <trkpt lat="45.49213" lon="6.73407">
        <ele>2679.5</ele>
        <time>2021-08-15T09:48:10Z</time>
      </trkpt>
      <trkpt lat="45.49213" lon="6.73407">
        <ele>2679.5</ele>
        <time>2021-08-15T09:48:11Z</time>
      </trkpt>
      <trkpt lat="45.49213" lon="6.73407">
        <ele>2679.5</ele>
        <time>2021-08-15T09:48:12Z</time>
      </trkpt>
      <trkpt lat="45.49213" lon="6.73407">
        <ele>2679.5</ele>
        <time>2021-08-15T09:48:13Z</time>
      </trkpt>
      <trkpt lat="45.49213" lon="6.73407">
        <ele>2679.5</ele>
        <time>2021-08-15T09:48:14Z</time>
      </trkpt>
      <trkpt lat="45.49213" lon="6.73407">
        <ele>2679.5</ele>
        <time>2021-08-15T09:48:15Z</time>
      </trkpt>
      <trkpt lat="45.49213" lon="6.73407">
        <ele>2679.5</ele>
        <time>2021-08-15T09:48:16Z</time>
      </trkpt>
      <trkpt lat="45.49213" lon="6.73407">
        <ele>2679.5</ele>
        <time>2021-08-15T09:48:17Z</time>
      </trkpt>
      <trkpt lat="45.49213" lon="6.73407">
        <ele>2679.5</ele>
        <time>2021-08-15T09:48:18Z</time>
      </trkpt>
      <trkpt lat="45.49213" lon="6.73407">
        <ele>2679.5</ele>
        <time>2021-08-15T09:48:19Z</time>
      </trkpt>
      <trkpt lat="45.49213" lon="6.73407">
        <ele>2679.5</ele>
        <time>2021-08-15T09:48:20Z</time>
      </trkpt>
      <trkpt lat="45.49213" lon="6.73407">
        <ele>2679.5</ele>
        <time>2021-08-15T09:48:21Z</time>
      </trkpt>
      <trkpt lat="45.49213" lon="6.73407">
        <ele>2679.5</ele>
        <time>2021-08-15T09:48:22Z</time>
      </trkpt>
      <trkpt lat="45.49213" lon="6.73407">
        <ele>2679.5</ele>
        <time>2021-08-15T09:48:23Z</time>
      </trkpt>
      <trkpt lat="45.49213" lon="6.73407">
        <ele>2679.5</ele>
        <time>2021-08-15T09:48:24Z</time>
      </trkpt>
      <trkpt lat="45.49213" lon="6.73407">
        <ele>2679.5</ele>
        <time>2021-08-15T09:48:25Z</time>
      </trkpt>
      <trkpt lat="45.49213" lon="6.73407">
        <ele>2679.5</ele>
        <time>2021-08-15T09:48:26Z</time>
      </trkpt>
      <trkpt lat="45.49213" lon="6.73407">
        <ele>2679.5</ele>
        <time>2021-08-15T09:48:27Z</time>
      </trkpt>
      <trkpt lat="45.49213" lon="6.73407">
        <ele>2679.5</ele>
        <time>2021-08-15T09:48:28Z</time>
      </trkpt>
      <trkpt lat="45.49213" lon="6.73407">
        <ele>2679.5</ele>
        <time>2021-08-15T09:48:29Z</time>
      </trkpt>
      <trkpt lat="45.49213" lon="6.73407">
        <ele>2679.5</ele>
        <time>2021-08-15T09:48:30Z</time>
      </trkpt>
      <trkpt lat="45.49213" lon="6.73407">
        <ele>2679.5</ele>
        <time>2021-08-15T09:48:31Z</time>
      </trkpt>
      <trkpt lat="45.49213" lon="6.73407">
        <ele>2679.5</ele>
        <time>2021-08-15T09:48:32Z</time>
      </trkpt>
      <trkpt lat="45.49213" lon="6.73407">
        <ele>2679.5</ele>
        <time>2021-08-15T09:48:33Z</time>
      </trkpt>
      <trkpt lat="45.49213" lon="6.73407">
        <ele>2679.5</ele>
        <time>2021-08-15T09:48:34Z</time>
      </trkpt>
      <trkpt lat="45.49213" lon="6.73407">
        <ele>2679.5</ele>
        <time>2021-08-15T09:48:35Z</time>
      </trkpt>
      <trkpt lat="45.49213" lon="6.73407">
        <ele>2679.5</ele>
        <time>2021-08-15T09:48:36Z</time>
      </trkpt>
      <trkpt lat="45.49213" lon="6.73407">
        <ele>2679.5</ele>
        <time>2021-08-15T09:48:37Z</time>
      </trkpt>
      <trkpt lat="45.49213" lon="6.73407">
        <ele>2679.5</ele>
        <time>2021-08-15T09:48:38Z</time>
      </trkpt>
      <trkpt lat="45.49213" lon="6.73407">
        <ele>2679.5</ele>
        <time>2021-08-15T09:48:39Z</time>
      </trkpt>
      <trkpt lat="45.49213" lon="6.73407">
        <ele>2679.5</ele>
        <time>2021-08-15T09:48:40Z</time>
      </trkpt>
      <trkpt lat="45.49213" lon="6.73407">
        <ele>2679.5</ele>
        <time>2021-08-15T09:48:41Z</time>
      </trkpt>
      <trkpt lat="45.49213" lon="6.73407">
        <ele>2679.5</ele>
        <time>2021-08-15T09:48:42Z</time>
      </trkpt>
      <trkpt lat="45.49213" lon="6.73407">
        <ele>2679.5</ele>
        <time>2021-08-15T09:48:43Z</time>
      </trkpt>
      <trkpt lat="45.49213" lon="6.73407">
        <ele>2679.5</ele>
        <time>2021-08-15T09:48:44Z</time>
      </trkpt>
      <trkpt lat="45.49213" lon="6.73407">
        <ele>2679.5</ele>
        <time>2021-08-15T09:48:45Z</time>
      </trkpt>
      <trkpt lat="45.49213" lon="6.73407">
        <ele>2679.5</ele>
        <time>2021-08-15T09:48:46Z</time>
      </trkpt>
      <trkpt lat="45.49213" lon="6.73407">
        <ele>2679.5</ele>
        <time>2021-08-15T09:48:47Z</time>
      </trkpt>
      <trkpt lat="45.49213" lon="6.73407">
        <ele>2679.5</ele>
        <time>2021-08-15T09:48:48Z</time>
      </trkpt>
      <trkpt lat="45.49213" lon="6.73407">
        <ele>2679.5</ele>
        <time>2021-08-15T09:48:49Z</time>
      </trkpt>
      <trkpt lat="45.49213" lon="6.73407">
        <ele>2679.5</ele>
        <time>2021-08-15T09:48:50Z</time>
      </trkpt>
      <trkpt lat="45.49213" lon="6.73407">
        <ele>2679.5</ele>
        <time>2021-08-15T09:48:51Z</time>
      </trkpt>
      <trkpt lat="45.49213" lon="6.73407">
        <ele>2679.5</ele>
        <time>2021-08-15T09:48:52Z</time>
      </trkpt>
      <trkpt lat="45.49213" lon="6.73407">
        <ele>2679.5</ele>
        <time>2021-08-15T09:48:53Z</time>
      </trkpt>
      <trkpt lat="45.49213" lon="6.73407">
        <ele>2679.5</ele>
        <time>2021-08-15T09:48:54Z</time>
      </trkpt>
      <trkpt lat="45.49213" lon="6.73407">
        <ele>2679.5</ele>
        <time>2021-08-15T09:48:55Z</time>
      </trkpt>
      <trkpt lat="45.49213" lon="6.73407">
        <ele>2679.5</ele>
        <time>2021-08-15T09:48:56Z</time>
      </trkpt>
      <trkpt lat="45.49213" lon="6.73407">
        <ele>2679.5</ele>
        <time>2021-08-15T09:48:57Z</time>
      </trkpt>
      <trkpt lat="45.49213" lon="6.73407">
        <ele>2679.5</ele>
        <time>2021-08-15T09:48:58Z</time>
      </trkpt>
      <trkpt lat="45.49213" lon="6.73407">
        <ele>2679.5</ele>
        <time>2021-08-15T09:48:59Z</time>
      </trkpt>
      <trkpt lat="45.49213" lon="6.73407">
        <ele>2679.5</ele>
        <time>2021-08-15T09:49:00Z</time>
      </trkpt>
      <trkpt lat="45.49213" lon="6.73407">
        <ele>2679.5</ele>
        <time>2021-08-15T09:49:01Z</time>
      </trkpt>
      <trkpt lat="45.49213" lon="6.73407">
        <ele>2679.5</ele>
        <time>2021-08-15T09:49:02Z</time>
      </trkpt>
      <trkpt lat="45.49213" lon="6.73407">
        <ele>2679.5</ele>
        <time>2021-08-15T09:49:03Z</time>
      </trkpt>
      <trkpt lat="45.49213" lon="6.73407">
        <ele>2679.5</ele>
        <time>2021-08-15T09:49:04Z</time>
      </trkpt>
      <trkpt lat="45.49213" lon="6.73407">
        <ele>2679.5</ele>
        <time>2021-08-15T09:49:05Z</time>
      </trkpt>
      <trkpt lat="45.49213" lon="6.73407">
        <ele>2679.5</ele>
        <time>2021-08-15T09:49:06Z</time>
      </trkpt>
      <trkpt lat="45.49213" lon="6.73407">
        <ele>2679.5</ele>
        <time>2021-08-15T09:49:07Z</time>
      </trkpt>
      <trkpt lat="45.49213" lon="6.73407">
        <ele>2679.5</ele>
        <time>2021-08-15T09:49:08Z</time>
      </trkpt>
      <trkpt lat="45.49213" lon="6.73407">
        <ele>2679.5</ele>
        <time>2021-08-15T09:49:09Z</time>
      </trkpt>
      <trkpt lat="45.49213" lon="6.73407">
        <ele>2679.5</ele>
        <time>2021-08-15T09:49:10Z</time>
      </trkpt>
      <trkpt lat="45.49213" lon="6.73407">
        <ele>2679.5</ele>
        <time>2021-08-15T09:49:11Z</time>
      </trkpt>
      <trkpt lat="45.49213" lon="6.73407">
        <ele>2679.4</ele>
        <time>2021-08-15T09:49:12Z</time>
      </trkpt>
      <trkpt lat="45.49213" lon="6.73407">
        <ele>2679.4</ele>
        <time>2021-08-15T09:49:13Z</time>
      </trkpt>
      <trkpt lat="45.49213" lon="6.73406">
        <ele>2679.4</ele>
        <time>2021-08-15T09:49:14Z</time>
      </trkpt>
      <trkpt lat="45.49213" lon="6.73406">
        <ele>2679.4</ele>
        <time>2021-08-15T09:49:15Z</time>
      </trkpt>
      <trkpt lat="45.49213" lon="6.73406">
        <ele>2679.4</ele>
        <time>2021-08-15T09:49:16Z</time>
      </trkpt>
      <trkpt lat="45.49213" lon="6.73406">
        <ele>2679.4</ele>
        <time>2021-08-15T09:49:17Z</time>
      </trkpt>
      <trkpt lat="45.49213" lon="6.73406">
        <ele>2679.4</ele>
        <time>2021-08-15T09:49:18Z</time>
      </trkpt>
      <trkpt lat="45.49213" lon="6.73406">
        <ele>2679.4</ele>
        <time>2021-08-15T09:49:19Z</time>
      </trkpt>
      <trkpt lat="45.49213" lon="6.73406">
        <ele>2679.4</ele>
        <time>2021-08-15T09:49:20Z</time>
      </trkpt>
      <trkpt lat="45.49213" lon="6.73406">
        <ele>2679.4</ele>
        <time>2021-08-15T09:49:21Z</time>
      </trkpt>
      <trkpt lat="45.49213" lon="6.73406">
        <ele>2679.3</ele>
        <time>2021-08-15T09:49:22Z</time>
      </trkpt>
      <trkpt lat="45.49213" lon="6.73406">
        <ele>2679.3</ele>
        <time>2021-08-15T09:49:23Z</time>
      </trkpt>
      <trkpt lat="45.49213" lon="6.73406">
        <ele>2679.3</ele>
        <time>2021-08-15T09:49:24Z</time>
      </trkpt>
      <trkpt lat="45.49213" lon="6.73406">
        <ele>2679.3</ele>
        <time>2021-08-15T09:49:25Z</time>
      </trkpt>
      <trkpt lat="45.49213" lon="6.73406">
        <ele>2679.3</ele>
        <time>2021-08-15T09:49:26Z</time>
      </trkpt>
      <trkpt lat="45.49213" lon="6.73406">
        <ele>2679.3</ele>
        <time>2021-08-15T09:49:27Z</time>
      </trkpt>
      <trkpt lat="45.49213" lon="6.73406">
        <ele>2679.3</ele>
        <time>2021-08-15T09:49:28Z</time>
      </trkpt>
      <trkpt lat="45.49213" lon="6.73406">
        <ele>2679.3</ele>
        <time>2021-08-15T09:49:29Z</time>
      </trkpt>
      <trkpt lat="45.49213" lon="6.73406">
        <ele>2679.3</ele>
        <time>2021-08-15T09:49:30Z</time>
      </trkpt>
      <trkpt lat="45.49213" lon="6.73405">
        <ele>2679.3</ele>
        <time>2021-08-15T09:49:31Z</time>
      </trkpt>
      <trkpt lat="45.49213" lon="6.73405">
        <ele>2679.3</ele>
        <time>2021-08-15T09:49:32Z</time>
      </trkpt>
      <trkpt lat="45.49213" lon="6.73405">
        <ele>2679.3</ele>
        <time>2021-08-15T09:49:33Z</time>
      </trkpt>
      <trkpt lat="45.49213" lon="6.73405">
        <ele>2679.3</ele>
        <time>2021-08-15T09:49:34Z</time>
      </trkpt>
      <trkpt lat="45.49213" lon="6.73405">
        <ele>2679.3</ele>
        <time>2021-08-15T09:49:35Z</time>
      </trkpt>
      <trkpt lat="45.49213" lon="6.73405">
        <ele>2679.3</ele>
        <time>2021-08-15T09:49:36Z</time>
      </trkpt>
      <trkpt lat="45.49213" lon="6.73405">
        <ele>2679.3</ele>
        <time>2021-08-15T09:49:37Z</time>
      </trkpt>
      <trkpt lat="45.49213" lon="6.73405">
        <ele>2679.3</ele>
        <time>2021-08-15T09:49:38Z</time>
      </trkpt>
      <trkpt lat="45.49213" lon="6.73405">
        <ele>2679.3</ele>
        <time>2021-08-15T09:49:39Z</time>
      </trkpt>
      <trkpt lat="45.49213" lon="6.73405">
        <ele>2679.3</ele>
        <time>2021-08-15T09:49:40Z</time>
      </trkpt>
      <trkpt lat="45.49213" lon="6.73405">
        <ele>2679.3</ele>
        <time>2021-08-15T09:49:41Z</time>
      </trkpt>
      <trkpt lat="45.49213" lon="6.73405">
        <ele>2679.3</ele>
        <time>2021-08-15T09:49:42Z</time>
      </trkpt>
      <trkpt lat="45.49213" lon="6.73405">
        <ele>2679.3</ele>
        <time>2021-08-15T09:49:43Z</time>
      </trkpt>
      <trkpt lat="45.49213" lon="6.73405">
        <ele>2679.3</ele>
        <time>2021-08-15T09:49:44Z</time>
      </trkpt>
      <trkpt lat="45.49213" lon="6.73405">
        <ele>2679.3</ele>
        <time>2021-08-15T09:49:45Z</time>
      </trkpt>
      <trkpt lat="45.49213" lon="6.73405">
        <ele>2679.3</ele>
        <time>2021-08-15T09:49:46Z</time>
      </trkpt>
      <trkpt lat="45.49213" lon="6.73405">
        <ele>2679.3</ele>
        <time>2021-08-15T09:49:47Z</time>
      </trkpt>
      <trkpt lat="45.49213" lon="6.73405">
        <ele>2679.3</ele>
        <time>2021-08-15T09:49:48Z</time>
      </trkpt>
      <trkpt lat="45.49213" lon="6.73405">
        <ele>2679.3</ele>
        <time>2021-08-15T09:49:49Z</time>
      </trkpt>
      <trkpt lat="45.49213" lon="6.73405">
        <ele>2679.3</ele>
        <time>2021-08-15T09:49:50Z</time>
      </trkpt>
      <trkpt lat="45.49213" lon="6.73405">
        <ele>2679.3</ele>
        <time>2021-08-15T09:49:51Z</time>
      </trkpt>
      <trkpt lat="45.49213" lon="6.73405">
        <ele>2679.3</ele>
        <time>2021-08-15T09:49:52Z</time>
      </trkpt>
      <trkpt lat="45.49213" lon="6.73405">
        <ele>2679.3</ele>
        <time>2021-08-15T09:49:53Z</time>
      </trkpt>
      <trkpt lat="45.49213" lon="6.73405">
        <ele>2679.3</ele>
        <time>2021-08-15T09:49:54Z</time>
      </trkpt>
      <trkpt lat="45.49213" lon="6.73405">
        <ele>2679.3</ele>
        <time>2021-08-15T09:49:55Z</time>
      </trkpt>
      <trkpt lat="45.49213" lon="6.73405">
        <ele>2679.3</ele>
        <time>2021-08-15T09:49:56Z</time>
      </trkpt>
      <trkpt lat="45.49213" lon="6.73405">
        <ele>2679.3</ele>
        <time>2021-08-15T09:49:57Z</time>
      </trkpt>
      <trkpt lat="45.49213" lon="6.73405">
        <ele>2679.3</ele>
        <time>2021-08-15T09:49:58Z</time>
      </trkpt>
      <trkpt lat="45.49213" lon="6.73405">
        <ele>2679.3</ele>
        <time>2021-08-15T09:49:59Z</time>
      </trkpt>
      <trkpt lat="45.49213" lon="6.73405">
        <ele>2679.3</ele>
        <time>2021-08-15T09:50:00Z</time>
      </trkpt>
      <trkpt lat="45.49213" lon="6.73405">
        <ele>2679.3</ele>
        <time>2021-08-15T09:50:01Z</time>
      </trkpt>
      <trkpt lat="45.49213" lon="6.73405">
        <ele>2679.3</ele>
        <time>2021-08-15T09:50:02Z</time>
      </trkpt>
      <trkpt lat="45.49213" lon="6.73405">
        <ele>2679.3</ele>
        <time>2021-08-15T09:50:03Z</time>
      </trkpt>
      <trkpt lat="45.49213" lon="6.73405">
        <ele>2679.3</ele>
        <time>2021-08-15T09:50:04Z</time>
      </trkpt>
      <trkpt lat="45.49213" lon="6.73405">
        <ele>2679.3</ele>
        <time>2021-08-15T09:50:05Z</time>
      </trkpt>
      <trkpt lat="45.49213" lon="6.73405">
        <ele>2679.3</ele>
        <time>2021-08-15T09:50:06Z</time>
      </trkpt>
      <trkpt lat="45.49213" lon="6.73405">
        <ele>2679.3</ele>
        <time>2021-08-15T09:50:07Z</time>
      </trkpt>
      <trkpt lat="45.49213" lon="6.73405">
        <ele>2679.3</ele>
        <time>2021-08-15T09:50:08Z</time>
      </trkpt>
      <trkpt lat="45.49213" lon="6.73405">
        <ele>2679.3</ele>
        <time>2021-08-15T09:50:09Z</time>
      </trkpt>
      <trkpt lat="45.49213" lon="6.73405">
        <ele>2679.3</ele>
        <time>2021-08-15T09:50:10Z</time>
      </trkpt>
      <trkpt lat="45.49213" lon="6.73405">
        <ele>2679.3</ele>
        <time>2021-08-15T09:50:11Z</time>
      </trkpt>
      <trkpt lat="45.49213" lon="6.73405">
        <ele>2679.3</ele>
        <time>2021-08-15T09:50:12Z</time>
      </trkpt>
      <trkpt lat="45.49213" lon="6.73405">
        <ele>2679.3</ele>
        <time>2021-08-15T09:50:13Z</time>
      </trkpt>
      <trkpt lat="45.49213" lon="6.73405">
        <ele>2679.3</ele>
        <time>2021-08-15T09:50:14Z</time>
      </trkpt>
      <trkpt lat="45.49213" lon="6.73405">
        <ele>2679.3</ele>
        <time>2021-08-15T09:50:15Z</time>
      </trkpt>
      <trkpt lat="45.49213" lon="6.73405">
        <ele>2679.3</ele>
        <time>2021-08-15T09:50:16Z</time>
      </trkpt>
      <trkpt lat="45.49213" lon="6.73405">
        <ele>2679.3</ele>
        <time>2021-08-15T09:50:17Z</time>
      </trkpt>
      <trkpt lat="45.49213" lon="6.73405">
        <ele>2679.3</ele>
        <time>2021-08-15T09:50:18Z</time>
      </trkpt>
      <trkpt lat="45.49213" lon="6.73405">
        <ele>2679.3</ele>
        <time>2021-08-15T09:50:19Z</time>
      </trkpt>
      <trkpt lat="45.49213" lon="6.73405">
        <ele>2679.3</ele>
        <time>2021-08-15T09:50:20Z</time>
      </trkpt>
      <trkpt lat="45.49213" lon="6.73405">
        <ele>2679.3</ele>
        <time>2021-08-15T09:50:21Z</time>
      </trkpt>
      <trkpt lat="45.49213" lon="6.73405">
        <ele>2679.3</ele>
        <time>2021-08-15T09:50:22Z</time>
      </trkpt>
      <trkpt lat="45.49213" lon="6.73405">
        <ele>2679.3</ele>
        <time>2021-08-15T09:50:23Z</time>
      </trkpt>
      <trkpt lat="45.49213" lon="6.73405">
        <ele>2679.3</ele>
        <time>2021-08-15T09:50:24Z</time>
      </trkpt>
      <trkpt lat="45.49213" lon="6.73405">
        <ele>2679.3</ele>
        <time>2021-08-15T09:50:25Z</time>
      </trkpt>
      <trkpt lat="45.49213" lon="6.73405">
        <ele>2679.3</ele>
        <time>2021-08-15T09:50:26Z</time>
      </trkpt>
      <trkpt lat="45.49213" lon="6.73405">
        <ele>2679.3</ele>
        <time>2021-08-15T09:50:27Z</time>
      </trkpt>
      <trkpt lat="45.49213" lon="6.73405">
        <ele>2679.3</ele>
        <time>2021-08-15T09:50:28Z</time>
      </trkpt>
      <trkpt lat="45.49213" lon="6.73405">
        <ele>2679.3</ele>
        <time>2021-08-15T09:50:29Z</time>
      </trkpt>
      <trkpt lat="45.49213" lon="6.73405">
        <ele>2679.3</ele>
        <time>2021-08-15T09:50:30Z</time>
      </trkpt>
      <trkpt lat="45.49213" lon="6.73405">
        <ele>2679.3</ele>
        <time>2021-08-15T09:50:31Z</time>
      </trkpt>
      <trkpt lat="45.49213" lon="6.73405">
        <ele>2679.3</ele>
        <time>2021-08-15T09:50:32Z</time>
      </trkpt>
      <trkpt lat="45.49213" lon="6.73405">
        <ele>2679.3</ele>
        <time>2021-08-15T09:50:33Z</time>
      </trkpt>
      <trkpt lat="45.49213" lon="6.73405">
        <ele>2679.3</ele>
        <time>2021-08-15T09:50:34Z</time>
      </trkpt>
      <trkpt lat="45.49213" lon="6.73405">
        <ele>2679.3</ele>
        <time>2021-08-15T09:50:35Z</time>
      </trkpt>
      <trkpt lat="45.49213" lon="6.73405">
        <ele>2679.3</ele>
        <time>2021-08-15T09:50:36Z</time>
      </trkpt>
      <trkpt lat="45.49213" lon="6.73405">
        <ele>2679.3</ele>
        <time>2021-08-15T09:50:37Z</time>
      </trkpt>
      <trkpt lat="45.49213" lon="6.73405">
        <ele>2679.3</ele>
        <time>2021-08-15T09:50:38Z</time>
      </trkpt>
      <trkpt lat="45.49213" lon="6.73405">
        <ele>2679.3</ele>
        <time>2021-08-15T09:50:39Z</time>
      </trkpt>
      <trkpt lat="45.49213" lon="6.73405">
        <ele>2679.3</ele>
        <time>2021-08-15T09:50:40Z</time>
      </trkpt>
      <trkpt lat="45.49213" lon="6.73405">
        <ele>2679.3</ele>
        <time>2021-08-15T09:50:41Z</time>
      </trkpt>
      <trkpt lat="45.49213" lon="6.73405">
        <ele>2679.3</ele>
        <time>2021-08-15T09:50:42Z</time>
      </trkpt>
      <trkpt lat="45.49213" lon="6.73405">
        <ele>2679.3</ele>
        <time>2021-08-15T09:50:43Z</time>
      </trkpt>
      <trkpt lat="45.49213" lon="6.73405">
        <ele>2679.3</ele>
        <time>2021-08-15T09:50:44Z</time>
      </trkpt>
      <trkpt lat="45.49213" lon="6.73405">
        <ele>2679.3</ele>
        <time>2021-08-15T09:50:45Z</time>
      </trkpt>
      <trkpt lat="45.49213" lon="6.73405">
        <ele>2679.3</ele>
        <time>2021-08-15T09:50:46Z</time>
      </trkpt>
      <trkpt lat="45.49213" lon="6.73405">
        <ele>2679.3</ele>
        <time>2021-08-15T09:50:47Z</time>
      </trkpt>
      <trkpt lat="45.49213" lon="6.73405">
        <ele>2679.3</ele>
        <time>2021-08-15T09:50:48Z</time>
      </trkpt>
      <trkpt lat="45.49213" lon="6.73405">
        <ele>2679.3</ele>
        <time>2021-08-15T09:50:49Z</time>
      </trkpt>
      <trkpt lat="45.49213" lon="6.73405">
        <ele>2679.3</ele>
        <time>2021-08-15T09:50:50Z</time>
      </trkpt>
      <trkpt lat="45.49213" lon="6.73405">
        <ele>2679.3</ele>
        <time>2021-08-15T09:50:51Z</time>
      </trkpt>
      <trkpt lat="45.49213" lon="6.73405">
        <ele>2679.3</ele>
        <time>2021-08-15T09:50:52Z</time>
      </trkpt>
      <trkpt lat="45.49213" lon="6.73405">
        <ele>2679.3</ele>
        <time>2021-08-15T09:50:53Z</time>
      </trkpt>
      <trkpt lat="45.49213" lon="6.73405">
        <ele>2679.3</ele>
        <time>2021-08-15T09:50:54Z</time>
      </trkpt>
      <trkpt lat="45.49213" lon="6.73405">
        <ele>2679.3</ele>
        <time>2021-08-15T09:50:55Z</time>
      </trkpt>
      <trkpt lat="45.49213" lon="6.73405">
        <ele>2679.3</ele>
        <time>2021-08-15T09:50:56Z</time>
      </trkpt>
      <trkpt lat="45.49213" lon="6.73405">
        <ele>2679.3</ele>
        <time>2021-08-15T09:50:57Z</time>
      </trkpt>
      <trkpt lat="45.49213" lon="6.73405">
        <ele>2679.3</ele>
        <time>2021-08-15T09:50:58Z</time>
      </trkpt>
      <trkpt lat="45.49213" lon="6.73405">
        <ele>2679.3</ele>
        <time>2021-08-15T09:50:59Z</time>
      </trkpt>
      <trkpt lat="45.49213" lon="6.73405">
        <ele>2679.3</ele>
        <time>2021-08-15T09:51:00Z</time>
      </trkpt>
      <trkpt lat="45.49213" lon="6.73405">
        <ele>2679.3</ele>
        <time>2021-08-15T09:51:01Z</time>
      </trkpt>
      <trkpt lat="45.49213" lon="6.73405">
        <ele>2679.3</ele>
        <time>2021-08-15T09:51:02Z</time>
      </trkpt>
      <trkpt lat="45.49213" lon="6.73405">
        <ele>2679.3</ele>
        <time>2021-08-15T09:51:03Z</time>
      </trkpt>
      <trkpt lat="45.49213" lon="6.73405">
        <ele>2679.3</ele>
        <time>2021-08-15T09:51:04Z</time>
      </trkpt>
      <trkpt lat="45.49213" lon="6.73405">
        <ele>2679.3</ele>
        <time>2021-08-15T09:51:05Z</time>
      </trkpt>
      <trkpt lat="45.49213" lon="6.73405">
        <ele>2679.3</ele>
        <time>2021-08-15T09:51:06Z</time>
      </trkpt>
      <trkpt lat="45.49213" lon="6.73405">
        <ele>2679.3</ele>
        <time>2021-08-15T09:51:07Z</time>
      </trkpt>
      <trkpt lat="45.49213" lon="6.73405">
        <ele>2679.3</ele>
        <time>2021-08-15T09:51:08Z</time>
      </trkpt>
      <trkpt lat="45.49213" lon="6.73405">
        <ele>2679.3</ele>
        <time>2021-08-15T09:51:09Z</time>
      </trkpt>
      <trkpt lat="45.49213" lon="6.73405">
        <ele>2679.3</ele>
        <time>2021-08-15T09:51:10Z</time>
      </trkpt>
      <trkpt lat="45.49213" lon="6.73405">
        <ele>2679.3</ele>
        <time>2021-08-15T09:51:11Z</time>
      </trkpt>
      <trkpt lat="45.49213" lon="6.73405">
        <ele>2679.3</ele>
        <time>2021-08-15T09:51:12Z</time>
      </trkpt>
      <trkpt lat="45.49213" lon="6.73405">
        <ele>2679.3</ele>
        <time>2021-08-15T09:51:13Z</time>
      </trkpt>
      <trkpt lat="45.49213" lon="6.73405">
        <ele>2679.3</ele>
        <time>2021-08-15T09:51:14Z</time>
      </trkpt>
      <trkpt lat="45.49213" lon="6.73405">
        <ele>2679.3</ele>
        <time>2021-08-15T09:51:15Z</time>
      </trkpt>
      <trkpt lat="45.49213" lon="6.73405">
        <ele>2679.3</ele>
        <time>2021-08-15T09:51:16Z</time>
      </trkpt>
      <trkpt lat="45.49213" lon="6.73405">
        <ele>2679.3</ele>
        <time>2021-08-15T09:51:17Z</time>
      </trkpt>
      <trkpt lat="45.49213" lon="6.73405">
        <ele>2679.3</ele>
        <time>2021-08-15T09:51:18Z</time>
      </trkpt>
      <trkpt lat="45.49213" lon="6.73405">
        <ele>2679.3</ele>
        <time>2021-08-15T09:51:19Z</time>
      </trkpt>
      <trkpt lat="45.49213" lon="6.73405">
        <ele>2679.3</ele>
        <time>2021-08-15T09:51:20Z</time>
      </trkpt>
      <trkpt lat="45.49213" lon="6.73405">
        <ele>2679.3</ele>
        <time>2021-08-15T09:51:21Z</time>
      </trkpt>
      <trkpt lat="45.49213" lon="6.73405">
        <ele>2679.3</ele>
        <time>2021-08-15T09:51:22Z</time>
      </trkpt>
      <trkpt lat="45.49213" lon="6.73405">
        <ele>2679.3</ele>
        <time>2021-08-15T09:51:23Z</time>
      </trkpt>
      <trkpt lat="45.49213" lon="6.73405">
        <ele>2679.3</ele>
        <time>2021-08-15T09:51:24Z</time>
      </trkpt>
      <trkpt lat="45.49213" lon="6.73405">
        <ele>2679.3</ele>
        <time>2021-08-15T09:51:25Z</time>
      </trkpt>
      <trkpt lat="45.49213" lon="6.73405">
        <ele>2679.3</ele>
        <time>2021-08-15T09:51:26Z</time>
      </trkpt>
      <trkpt lat="45.49213" lon="6.73405">
        <ele>2679.3</ele>
        <time>2021-08-15T09:51:27Z</time>
      </trkpt>
      <trkpt lat="45.49213" lon="6.73405">
        <ele>2679.3</ele>
        <time>2021-08-15T09:51:28Z</time>
      </trkpt>
      <trkpt lat="45.49213" lon="6.73405">
        <ele>2679.3</ele>
        <time>2021-08-15T09:51:29Z</time>
      </trkpt>
      <trkpt lat="45.49213" lon="6.73405">
        <ele>2679.3</ele>
        <time>2021-08-15T09:51:30Z</time>
      </trkpt>
      <trkpt lat="45.49213" lon="6.73405">
        <ele>2679.3</ele>
        <time>2021-08-15T09:51:31Z</time>
      </trkpt>
      <trkpt lat="45.49213" lon="6.73405">
        <ele>2679.3</ele>
        <time>2021-08-15T09:51:32Z</time>
      </trkpt>
      <trkpt lat="45.49213" lon="6.73405">
        <ele>2679.3</ele>
        <time>2021-08-15T09:51:33Z</time>
      </trkpt>
      <trkpt lat="45.49213" lon="6.73405">
        <ele>2679.3</ele>
        <time>2021-08-15T09:51:34Z</time>
      </trkpt>
      <trkpt lat="45.49213" lon="6.73405">
        <ele>2679.3</ele>
        <time>2021-08-15T09:51:35Z</time>
      </trkpt>
      <trkpt lat="45.49213" lon="6.73405">
        <ele>2679.3</ele>
        <time>2021-08-15T09:51:36Z</time>
      </trkpt>
      <trkpt lat="45.49213" lon="6.73405">
        <ele>2679.3</ele>
        <time>2021-08-15T09:51:37Z</time>
      </trkpt>
      <trkpt lat="45.49213" lon="6.73405">
        <ele>2679.3</ele>
        <time>2021-08-15T09:51:38Z</time>
      </trkpt>
      <trkpt lat="45.49213" lon="6.73405">
        <ele>2679.3</ele>
        <time>2021-08-15T09:51:39Z</time>
      </trkpt>
      <trkpt lat="45.49213" lon="6.73405">
        <ele>2679.3</ele>
        <time>2021-08-15T09:51:40Z</time>
      </trkpt>
      <trkpt lat="45.49213" lon="6.73405">
        <ele>2679.3</ele>
        <time>2021-08-15T09:51:41Z</time>
      </trkpt>
      <trkpt lat="45.49213" lon="6.73405">
        <ele>2679.3</ele>
        <time>2021-08-15T09:51:42Z</time>
      </trkpt>
      <trkpt lat="45.49213" lon="6.73405">
        <ele>2679.3</ele>
        <time>2021-08-15T09:51:43Z</time>
      </trkpt>
      <trkpt lat="45.49213" lon="6.73405">
        <ele>2679.3</ele>
        <time>2021-08-15T09:51:44Z</time>
      </trkpt>
      <trkpt lat="45.49213" lon="6.73405">
        <ele>2679.3</ele>
        <time>2021-08-15T09:51:45Z</time>
      </trkpt>
      <trkpt lat="45.49213" lon="6.73405">
        <ele>2679.3</ele>
        <time>2021-08-15T09:51:46Z</time>
      </trkpt>
      <trkpt lat="45.49213" lon="6.73405">
        <ele>2679.3</ele>
        <time>2021-08-15T09:51:47Z</time>
      </trkpt>
      <trkpt lat="45.49213" lon="6.73405">
        <ele>2679.3</ele>
        <time>2021-08-15T09:51:48Z</time>
      </trkpt>
      <trkpt lat="45.49213" lon="6.73405">
        <ele>2679.3</ele>
        <time>2021-08-15T09:51:49Z</time>
      </trkpt>
      <trkpt lat="45.49213" lon="6.73405">
        <ele>2679.3</ele>
        <time>2021-08-15T09:51:50Z</time>
      </trkpt>
      <trkpt lat="45.49213" lon="6.73405">
        <ele>2679.3</ele>
        <time>2021-08-15T09:51:51Z</time>
      </trkpt>
      <trkpt lat="45.49213" lon="6.73405">
        <ele>2679.3</ele>
        <time>2021-08-15T09:51:52Z</time>
      </trkpt>
      <trkpt lat="45.49213" lon="6.73405">
        <ele>2679.3</ele>
        <time>2021-08-15T09:51:53Z</time>
      </trkpt>
      <trkpt lat="45.49213" lon="6.73405">
        <ele>2679.3</ele>
        <time>2021-08-15T09:51:54Z</time>
      </trkpt>
      <trkpt lat="45.49213" lon="6.73405">
        <ele>2679.3</ele>
        <time>2021-08-15T09:51:55Z</time>
      </trkpt>
      <trkpt lat="45.49213" lon="6.73405">
        <ele>2679.3</ele>
        <time>2021-08-15T09:51:56Z</time>
      </trkpt>
      <trkpt lat="45.49213" lon="6.73405">
        <ele>2679.3</ele>
        <time>2021-08-15T09:51:57Z</time>
      </trkpt>
      <trkpt lat="45.49213" lon="6.73405">
        <ele>2679.3</ele>
        <time>2021-08-15T09:51:58Z</time>
      </trkpt>
      <trkpt lat="45.49213" lon="6.73405">
        <ele>2679.3</ele>
        <time>2021-08-15T09:51:59Z</time>
      </trkpt>
      <trkpt lat="45.49213" lon="6.73405">
        <ele>2679.3</ele>
        <time>2021-08-15T09:52:00Z</time>
      </trkpt>
      <trkpt lat="45.49213" lon="6.73405">
        <ele>2679.3</ele>
        <time>2021-08-15T09:52:01Z</time>
      </trkpt>
      <trkpt lat="45.49213" lon="6.73405">
        <ele>2679.3</ele>
        <time>2021-08-15T09:52:02Z</time>
      </trkpt>
      <trkpt lat="45.49213" lon="6.73405">
        <ele>2679.3</ele>
        <time>2021-08-15T09:52:03Z</time>
      </trkpt>
      <trkpt lat="45.49213" lon="6.73405">
        <ele>2679.3</ele>
        <time>2021-08-15T09:52:04Z</time>
      </trkpt>
      <trkpt lat="45.49213" lon="6.73405">
        <ele>2679.3</ele>
        <time>2021-08-15T09:52:05Z</time>
      </trkpt>
      <trkpt lat="45.49213" lon="6.73405">
        <ele>2679.3</ele>
        <time>2021-08-15T09:52:06Z</time>
      </trkpt>
      <trkpt lat="45.49213" lon="6.73405">
        <ele>2679.3</ele>
        <time>2021-08-15T09:52:07Z</time>
      </trkpt>
      <trkpt lat="45.49213" lon="6.73405">
        <ele>2679.3</ele>
        <time>2021-08-15T09:52:08Z</time>
      </trkpt>
      <trkpt lat="45.49213" lon="6.73405">
        <ele>2679.3</ele>
        <time>2021-08-15T09:52:09Z</time>
      </trkpt>
      <trkpt lat="45.49213" lon="6.73405">
        <ele>2679.3</ele>
        <time>2021-08-15T09:52:10Z</time>
      </trkpt>
      <trkpt lat="45.49213" lon="6.73405">
        <ele>2679.3</ele>
        <time>2021-08-15T09:52:11Z</time>
      </trkpt>
      <trkpt lat="45.49213" lon="6.73405">
        <ele>2679.3</ele>
        <time>2021-08-15T09:52:12Z</time>
      </trkpt>
      <trkpt lat="45.49213" lon="6.73405">
        <ele>2679.3</ele>
        <time>2021-08-15T09:52:13Z</time>
      </trkpt>
      <trkpt lat="45.49213" lon="6.73405">
        <ele>2679.3</ele>
        <time>2021-08-15T09:52:14Z</time>
      </trkpt>
      <trkpt lat="45.49213" lon="6.73405">
        <ele>2679.3</ele>
        <time>2021-08-15T09:52:15Z</time>
      </trkpt>
      <trkpt lat="45.49213" lon="6.73405">
        <ele>2679.3</ele>
        <time>2021-08-15T09:52:16Z</time>
      </trkpt>
      <trkpt lat="45.49213" lon="6.73405">
        <ele>2679.3</ele>
        <time>2021-08-15T09:52:17Z</time>
      </trkpt>
      <trkpt lat="45.49213" lon="6.73405">
        <ele>2679.3</ele>
        <time>2021-08-15T09:52:18Z</time>
      </trkpt>
      <trkpt lat="45.49213" lon="6.73405">
        <ele>2679.3</ele>
        <time>2021-08-15T09:52:19Z</time>
      </trkpt>
      <trkpt lat="45.49213" lon="6.73405">
        <ele>2679.3</ele>
        <time>2021-08-15T09:52:20Z</time>
      </trkpt>
      <trkpt lat="45.49213" lon="6.73405">
        <ele>2679.3</ele>
        <time>2021-08-15T09:52:21Z</time>
      </trkpt>
      <trkpt lat="45.49213" lon="6.73405">
        <ele>2679.3</ele>
        <time>2021-08-15T09:52:22Z</time>
      </trkpt>
      <trkpt lat="45.49213" lon="6.73405">
        <ele>2679.3</ele>
        <time>2021-08-15T09:52:23Z</time>
      </trkpt>
      <trkpt lat="45.49213" lon="6.73405">
        <ele>2679.3</ele>
        <time>2021-08-15T09:52:24Z</time>
      </trkpt>
      <trkpt lat="45.49213" lon="6.73405">
        <ele>2679.3</ele>
        <time>2021-08-15T09:52:25Z</time>
      </trkpt>
      <trkpt lat="45.49213" lon="6.73405">
        <ele>2679.3</ele>
        <time>2021-08-15T09:52:26Z</time>
      </trkpt>
      <trkpt lat="45.49213" lon="6.73405">
        <ele>2679.3</ele>
        <time>2021-08-15T09:52:27Z</time>
      </trkpt>
      <trkpt lat="45.49213" lon="6.73405">
        <ele>2679.3</ele>
        <time>2021-08-15T09:52:28Z</time>
      </trkpt>
      <trkpt lat="45.49213" lon="6.73405">
        <ele>2679.3</ele>
        <time>2021-08-15T09:52:29Z</time>
      </trkpt>
      <trkpt lat="45.49213" lon="6.73405">
        <ele>2679.3</ele>
        <time>2021-08-15T09:52:30Z</time>
      </trkpt>
      <trkpt lat="45.49213" lon="6.73405">
        <ele>2679.3</ele>
        <time>2021-08-15T09:52:31Z</time>
      </trkpt>
      <trkpt lat="45.49213" lon="6.73405">
        <ele>2679.3</ele>
        <time>2021-08-15T09:52:32Z</time>
      </trkpt>
      <trkpt lat="45.49213" lon="6.73405">
        <ele>2679.3</ele>
        <time>2021-08-15T09:52:33Z</time>
      </trkpt>
      <trkpt lat="45.49213" lon="6.73405">
        <ele>2679.3</ele>
        <time>2021-08-15T09:52:34Z</time>
      </trkpt>
      <trkpt lat="45.49213" lon="6.73405">
        <ele>2679.3</ele>
        <time>2021-08-15T09:52:35Z</time>
      </trkpt>
      <trkpt lat="45.49213" lon="6.73405">
        <ele>2679.3</ele>
        <time>2021-08-15T09:52:36Z</time>
      </trkpt>
      <trkpt lat="45.49213" lon="6.73405">
        <ele>2679.3</ele>
        <time>2021-08-15T09:52:37Z</time>
      </trkpt>
      <trkpt lat="45.49213" lon="6.73405">
        <ele>2679.3</ele>
        <time>2021-08-15T09:52:38Z</time>
      </trkpt>
      <trkpt lat="45.49213" lon="6.73405">
        <ele>2679.3</ele>
        <time>2021-08-15T09:52:39Z</time>
      </trkpt>
      <trkpt lat="45.49213" lon="6.73405">
        <ele>2679.3</ele>
        <time>2021-08-15T09:52:40Z</time>
      </trkpt>
      <trkpt lat="45.49213" lon="6.73405">
        <ele>2679.3</ele>
        <time>2021-08-15T09:52:41Z</time>
      </trkpt>
      <trkpt lat="45.49213" lon="6.73405">
        <ele>2679.3</ele>
        <time>2021-08-15T09:52:42Z</time>
      </trkpt>
      <trkpt lat="45.49213" lon="6.73405">
        <ele>2679.3</ele>
        <time>2021-08-15T09:52:43Z</time>
      </trkpt>
      <trkpt lat="45.49213" lon="6.73405">
        <ele>2679.3</ele>
        <time>2021-08-15T09:52:44Z</time>
      </trkpt>
      <trkpt lat="45.49213" lon="6.73405">
        <ele>2679.3</ele>
        <time>2021-08-15T09:52:45Z</time>
      </trkpt>
      <trkpt lat="45.49213" lon="6.73405">
        <ele>2679.3</ele>
        <time>2021-08-15T09:52:46Z</time>
      </trkpt>
      <trkpt lat="45.49213" lon="6.73405">
        <ele>2679.3</ele>
        <time>2021-08-15T09:52:47Z</time>
      </trkpt>
      <trkpt lat="45.49213" lon="6.73405">
        <ele>2679.3</ele>
        <time>2021-08-15T09:52:48Z</time>
      </trkpt>
      <trkpt lat="45.49213" lon="6.73405">
        <ele>2679.3</ele>
        <time>2021-08-15T09:52:49Z</time>
      </trkpt>
      <trkpt lat="45.49213" lon="6.73405">
        <ele>2679.3</ele>
        <time>2021-08-15T09:52:50Z</time>
      </trkpt>
      <trkpt lat="45.49213" lon="6.73405">
        <ele>2679.3</ele>
        <time>2021-08-15T09:52:51Z</time>
      </trkpt>
      <trkpt lat="45.49213" lon="6.73405">
        <ele>2679.3</ele>
        <time>2021-08-15T09:52:52Z</time>
      </trkpt>
      <trkpt lat="45.49213" lon="6.73405">
        <ele>2679.3</ele>
        <time>2021-08-15T09:52:53Z</time>
      </trkpt>
      <trkpt lat="45.49213" lon="6.73405">
        <ele>2679.3</ele>
        <time>2021-08-15T09:52:54Z</time>
      </trkpt>
      <trkpt lat="45.49213" lon="6.73405">
        <ele>2679.3</ele>
        <time>2021-08-15T09:52:55Z</time>
      </trkpt>
      <trkpt lat="45.49213" lon="6.73405">
        <ele>2679.3</ele>
        <time>2021-08-15T09:52:56Z</time>
      </trkpt>
      <trkpt lat="45.49213" lon="6.73405">
        <ele>2679.3</ele>
        <time>2021-08-15T09:52:57Z</time>
      </trkpt>
      <trkpt lat="45.49213" lon="6.73405">
        <ele>2679.3</ele>
        <time>2021-08-15T09:52:58Z</time>
      </trkpt>
      <trkpt lat="45.49213" lon="6.73405">
        <ele>2679.3</ele>
        <time>2021-08-15T09:52:59Z</time>
      </trkpt>
      <trkpt lat="45.49213" lon="6.73405">
        <ele>2679.3</ele>
        <time>2021-08-15T09:53:00Z</time>
      </trkpt>
      <trkpt lat="45.49213" lon="6.73405">
        <ele>2679.3</ele>
        <time>2021-08-15T09:53:01Z</time>
      </trkpt>
      <trkpt lat="45.49213" lon="6.73405">
        <ele>2679.3</ele>
        <time>2021-08-15T09:53:02Z</time>
      </trkpt>
      <trkpt lat="45.49213" lon="6.73405">
        <ele>2679.3</ele>
        <time>2021-08-15T09:53:03Z</time>
      </trkpt>
      <trkpt lat="45.49213" lon="6.73405">
        <ele>2679.3</ele>
        <time>2021-08-15T09:53:04Z</time>
      </trkpt>
      <trkpt lat="45.49213" lon="6.73405">
        <ele>2679.3</ele>
        <time>2021-08-15T09:53:05Z</time>
      </trkpt>
      <trkpt lat="45.49213" lon="6.73405">
        <ele>2679.3</ele>
        <time>2021-08-15T09:53:06Z</time>
      </trkpt>
      <trkpt lat="45.49213" lon="6.73405">
        <ele>2679.3</ele>
        <time>2021-08-15T09:53:07Z</time>
      </trkpt>
      <trkpt lat="45.49213" lon="6.73405">
        <ele>2679.3</ele>
        <time>2021-08-15T09:53:08Z</time>
      </trkpt>
      <trkpt lat="45.49213" lon="6.73405">
        <ele>2679.3</ele>
        <time>2021-08-15T09:53:09Z</time>
      </trkpt>
      <trkpt lat="45.49213" lon="6.73405">
        <ele>2679.3</ele>
        <time>2021-08-15T09:53:10Z</time>
      </trkpt>
      <trkpt lat="45.49213" lon="6.73405">
        <ele>2679.3</ele>
        <time>2021-08-15T09:53:11Z</time>
      </trkpt>
      <trkpt lat="45.49213" lon="6.73405">
        <ele>2679.3</ele>
        <time>2021-08-15T09:53:12Z</time>
      </trkpt>
      <trkpt lat="45.49213" lon="6.73405">
        <ele>2679.3</ele>
        <time>2021-08-15T09:53:13Z</time>
      </trkpt>
      <trkpt lat="45.49213" lon="6.73405">
        <ele>2679.3</ele>
        <time>2021-08-15T09:53:14Z</time>
      </trkpt>
      <trkpt lat="45.49213" lon="6.73405">
        <ele>2679.3</ele>
        <time>2021-08-15T09:53:15Z</time>
      </trkpt>
      <trkpt lat="45.49213" lon="6.73405">
        <ele>2679.3</ele>
        <time>2021-08-15T09:53:16Z</time>
      </trkpt>
      <trkpt lat="45.49213" lon="6.73405">
        <ele>2679.3</ele>
        <time>2021-08-15T09:53:17Z</time>
      </trkpt>
      <trkpt lat="45.49213" lon="6.73405">
        <ele>2679.3</ele>
        <time>2021-08-15T09:53:18Z</time>
      </trkpt>
      <trkpt lat="45.49213" lon="6.73405">
        <ele>2679.3</ele>
        <time>2021-08-15T09:53:19Z</time>
      </trkpt>
      <trkpt lat="45.49213" lon="6.73405">
        <ele>2679.3</ele>
        <time>2021-08-15T09:53:20Z</time>
      </trkpt>
      <trkpt lat="45.49213" lon="6.73405">
        <ele>2679.3</ele>
        <time>2021-08-15T09:53:21Z</time>
      </trkpt>
      <trkpt lat="45.49213" lon="6.73405">
        <ele>2679.3</ele>
        <time>2021-08-15T09:53:22Z</time>
      </trkpt>
      <trkpt lat="45.49213" lon="6.73405">
        <ele>2679.3</ele>
        <time>2021-08-15T09:53:23Z</time>
      </trkpt>
      <trkpt lat="45.49213" lon="6.73405">
        <ele>2679.3</ele>
        <time>2021-08-15T09:53:24Z</time>
      </trkpt>
      <trkpt lat="45.49213" lon="6.73405">
        <ele>2679.3</ele>
        <time>2021-08-15T09:53:25Z</time>
      </trkpt>
      <trkpt lat="45.49213" lon="6.73405">
        <ele>2679.3</ele>
        <time>2021-08-15T09:53:26Z</time>
      </trkpt>
      <trkpt lat="45.49213" lon="6.73405">
        <ele>2679.3</ele>
        <time>2021-08-15T09:53:27Z</time>
      </trkpt>
      <trkpt lat="45.49213" lon="6.73405">
        <ele>2679.3</ele>
        <time>2021-08-15T09:53:28Z</time>
      </trkpt>
      <trkpt lat="45.49213" lon="6.73405">
        <ele>2679.3</ele>
        <time>2021-08-15T09:53:29Z</time>
      </trkpt>
      <trkpt lat="45.49213" lon="6.73405">
        <ele>2679.3</ele>
        <time>2021-08-15T09:53:30Z</time>
      </trkpt>
      <trkpt lat="45.49213" lon="6.73405">
        <ele>2679.3</ele>
        <time>2021-08-15T09:53:31Z</time>
      </trkpt>
      <trkpt lat="45.49213" lon="6.73405">
        <ele>2679.3</ele>
        <time>2021-08-15T09:53:32Z</time>
      </trkpt>
      <trkpt lat="45.49213" lon="6.73405">
        <ele>2679.3</ele>
        <time>2021-08-15T09:53:33Z</time>
      </trkpt>
      <trkpt lat="45.49213" lon="6.73405">
        <ele>2679.3</ele>
        <time>2021-08-15T09:53:34Z</time>
      </trkpt>
      <trkpt lat="45.49213" lon="6.73405">
        <ele>2679.3</ele>
        <time>2021-08-15T09:53:35Z</time>
      </trkpt>
      <trkpt lat="45.49213" lon="6.73405">
        <ele>2679.3</ele>
        <time>2021-08-15T09:53:36Z</time>
      </trkpt>
      <trkpt lat="45.49213" lon="6.73405">
        <ele>2679.3</ele>
        <time>2021-08-15T09:53:37Z</time>
      </trkpt>
      <trkpt lat="45.49213" lon="6.73405">
        <ele>2679.3</ele>
        <time>2021-08-15T09:53:38Z</time>
      </trkpt>
      <trkpt lat="45.49213" lon="6.73405">
        <ele>2679.3</ele>
        <time>2021-08-15T09:53:39Z</time>
      </trkpt>
      <trkpt lat="45.49213" lon="6.73405">
        <ele>2679.3</ele>
        <time>2021-08-15T09:53:40Z</time>
      </trkpt>
      <trkpt lat="45.49213" lon="6.73405">
        <ele>2679.3</ele>
        <time>2021-08-15T09:53:41Z</time>
      </trkpt>
      <trkpt lat="45.49213" lon="6.73405">
        <ele>2679.3</ele>
        <time>2021-08-15T09:53:42Z</time>
      </trkpt>
      <trkpt lat="45.49213" lon="6.73405">
        <ele>2679.3</ele>
        <time>2021-08-15T09:53:43Z</time>
      </trkpt>
      <trkpt lat="45.49213" lon="6.73405">
        <ele>2679.3</ele>
        <time>2021-08-15T09:53:44Z</time>
      </trkpt>
      <trkpt lat="45.49213" lon="6.73405">
        <ele>2679.3</ele>
        <time>2021-08-15T09:53:45Z</time>
      </trkpt>
      <trkpt lat="45.49213" lon="6.73405">
        <ele>2679.3</ele>
        <time>2021-08-15T09:53:46Z</time>
      </trkpt>
      <trkpt lat="45.49213" lon="6.73405">
        <ele>2679.3</ele>
        <time>2021-08-15T09:53:47Z</time>
      </trkpt>
      <trkpt lat="45.49213" lon="6.73405">
        <ele>2679.3</ele>
        <time>2021-08-15T09:53:48Z</time>
      </trkpt>
      <trkpt lat="45.49213" lon="6.73405">
        <ele>2679.3</ele>
        <time>2021-08-15T09:53:49Z</time>
      </trkpt>
      <trkpt lat="45.49213" lon="6.73405">
        <ele>2679.3</ele>
        <time>2021-08-15T09:53:50Z</time>
      </trkpt>
      <trkpt lat="45.49213" lon="6.73405">
        <ele>2679.3</ele>
        <time>2021-08-15T09:53:51Z</time>
      </trkpt>
      <trkpt lat="45.49213" lon="6.73405">
        <ele>2679.3</ele>
        <time>2021-08-15T09:53:52Z</time>
      </trkpt>
      <trkpt lat="45.49213" lon="6.73406">
        <ele>2679.3</ele>
        <time>2021-08-15T09:53:53Z</time>
      </trkpt>
      <trkpt lat="45.49213" lon="6.73406">
        <ele>2679.3</ele>
        <time>2021-08-15T09:53:54Z</time>
      </trkpt>
      <trkpt lat="45.49213" lon="6.73406">
        <ele>2679.3</ele>
        <time>2021-08-15T09:53:55Z</time>
      </trkpt>
      <trkpt lat="45.49213" lon="6.73406">
        <ele>2679.3</ele>
        <time>2021-08-15T09:53:56Z</time>
      </trkpt>
      <trkpt lat="45.49213" lon="6.73406">
        <ele>2679.3</ele>
        <time>2021-08-15T09:53:57Z</time>
      </trkpt>
      <trkpt lat="45.49213" lon="6.73406">
        <ele>2679.3</ele>
        <time>2021-08-15T09:53:58Z</time>
      </trkpt>
      <trkpt lat="45.49213" lon="6.73406">
        <ele>2679.3</ele>
        <time>2021-08-15T09:53:59Z</time>
      </trkpt>
      <trkpt lat="45.49213" lon="6.73406">
        <ele>2679.3</ele>
        <time>2021-08-15T09:54:00Z</time>
      </trkpt>
      <trkpt lat="45.49213" lon="6.73406">
        <ele>2679.3</ele>
        <time>2021-08-15T09:54:01Z</time>
      </trkpt>
      <trkpt lat="45.49213" lon="6.73406">
        <ele>2679.3</ele>
        <time>2021-08-15T09:54:02Z</time>
      </trkpt>
      <trkpt lat="45.49213" lon="6.73406">
        <ele>2679.3</ele>
        <time>2021-08-15T09:54:03Z</time>
      </trkpt>
      <trkpt lat="45.49213" lon="6.73406">
        <ele>2679.2</ele>
        <time>2021-08-15T09:54:04Z</time>
      </trkpt>
      <trkpt lat="45.49213" lon="6.73406">
        <ele>2679.2</ele>
        <time>2021-08-15T09:54:05Z</time>
      </trkpt>
      <trkpt lat="45.49213" lon="6.73406">
        <ele>2679.2</ele>
        <time>2021-08-15T09:54:06Z</time>
      </trkpt>
      <trkpt lat="45.49213" lon="6.73406">
        <ele>2679.2</ele>
        <time>2021-08-15T09:54:07Z</time>
      </trkpt>
      <trkpt lat="45.49213" lon="6.73406">
        <ele>2679.2</ele>
        <time>2021-08-15T09:54:08Z</time>
      </trkpt>
      <trkpt lat="45.49213" lon="6.73406">
        <ele>2679.2</ele>
        <time>2021-08-15T09:54:09Z</time>
      </trkpt>
      <trkpt lat="45.49213" lon="6.73406">
        <ele>2679.2</ele>
        <time>2021-08-15T09:54:10Z</time>
      </trkpt>
      <trkpt lat="45.49213" lon="6.73406">
        <ele>2679.2</ele>
        <time>2021-08-15T09:54:11Z</time>
      </trkpt>
      <trkpt lat="45.49213" lon="6.73406">
        <ele>2679.2</ele>
        <time>2021-08-15T09:54:12Z</time>
      </trkpt>
      <trkpt lat="45.49213" lon="6.73406">
        <ele>2679.2</ele>
        <time>2021-08-15T09:54:13Z</time>
      </trkpt>
      <trkpt lat="45.49213" lon="6.73406">
        <ele>2679.2</ele>
        <time>2021-08-15T09:54:14Z</time>
      </trkpt>
      <trkpt lat="45.49213" lon="6.73406">
        <ele>2679.2</ele>
        <time>2021-08-15T09:54:15Z</time>
      </trkpt>
      <trkpt lat="45.49213" lon="6.73406">
        <ele>2679.2</ele>
        <time>2021-08-15T09:54:16Z</time>
      </trkpt>
      <trkpt lat="45.49214" lon="6.73406">
        <ele>2679.1</ele>
        <time>2021-08-15T09:54:17Z</time>
      </trkpt>
      <trkpt lat="45.49214" lon="6.73406">
        <ele>2679</ele>
        <time>2021-08-15T09:54:18Z</time>
      </trkpt>
      <trkpt lat="45.49215" lon="6.73407">
        <ele>2678.8</ele>
        <time>2021-08-15T09:54:19Z</time>
      </trkpt>
      <trkpt lat="45.49216" lon="6.73408">
        <ele>2678.6</ele>
        <time>2021-08-15T09:54:20Z</time>
      </trkpt>
      <trkpt lat="45.49218" lon="6.73409">
        <ele>2678.3</ele>
        <time>2021-08-15T09:54:21Z</time>
      </trkpt>
      <trkpt lat="45.49219" lon="6.73409">
        <ele>2678.1</ele>
        <time>2021-08-15T09:54:22Z</time>
      </trkpt>
      <trkpt lat="45.49219" lon="6.7341">
        <ele>2678</ele>
        <time>2021-08-15T09:54:23Z</time>
      </trkpt>
      <trkpt lat="45.4922" lon="6.7341">
        <ele>2678</ele>
        <time>2021-08-15T09:54:24Z</time>
      </trkpt>
      <trkpt lat="45.4922" lon="6.7341">
        <ele>2677.9</ele>
        <time>2021-08-15T09:54:25Z</time>
      </trkpt>
      <trkpt lat="45.4922" lon="6.7341">
        <ele>2677.9</ele>
        <time>2021-08-15T09:54:26Z</time>
      </trkpt>
      <trkpt lat="45.4922" lon="6.7341">
        <ele>2677.9</ele>
        <time>2021-08-15T09:54:27Z</time>
      </trkpt>
      <trkpt lat="45.4922" lon="6.7341">
        <ele>2677.9</ele>
        <time>2021-08-15T09:54:28Z</time>
      </trkpt>
      <trkpt lat="45.4922" lon="6.7341">
        <ele>2677.9</ele>
        <time>2021-08-15T09:54:29Z</time>
      </trkpt>
      <trkpt lat="45.4922" lon="6.7341">
        <ele>2677.9</ele>
        <time>2021-08-15T09:54:30Z</time>
      </trkpt>
      <trkpt lat="45.4922" lon="6.7341">
        <ele>2677.9</ele>
        <time>2021-08-15T09:54:31Z</time>
      </trkpt>
      <trkpt lat="45.4922" lon="6.7341">
        <ele>2677.9</ele>
        <time>2021-08-15T09:54:32Z</time>
      </trkpt>
      <trkpt lat="45.4922" lon="6.7341">
        <ele>2677.9</ele>
        <time>2021-08-15T09:54:33Z</time>
      </trkpt>
      <trkpt lat="45.4922" lon="6.7341">
        <ele>2677.9</ele>
        <time>2021-08-15T09:54:34Z</time>
      </trkpt>
      <trkpt lat="45.4922" lon="6.7341">
        <ele>2677.9</ele>
        <time>2021-08-15T09:54:35Z</time>
      </trkpt>
      <trkpt lat="45.4922" lon="6.73411">
        <ele>2677.9</ele>
        <time>2021-08-15T09:54:36Z</time>
      </trkpt>
      <trkpt lat="45.4922" lon="6.73411">
        <ele>2677.9</ele>
        <time>2021-08-15T09:54:37Z</time>
      </trkpt>
      <trkpt lat="45.4922" lon="6.7341">
        <ele>2677.8</ele>
        <time>2021-08-15T09:54:38Z</time>
      </trkpt>
      <trkpt lat="45.4922" lon="6.7341">
        <ele>2677.8</ele>
        <time>2021-08-15T09:54:39Z</time>
      </trkpt>
      <trkpt lat="45.4922" lon="6.7341">
        <ele>2677.8</ele>
        <time>2021-08-15T09:54:40Z</time>
      </trkpt>
      <trkpt lat="45.4922" lon="6.73409">
        <ele>2677.7</ele>
        <time>2021-08-15T09:54:41Z</time>
      </trkpt>
      <trkpt lat="45.4922" lon="6.73408">
        <ele>2677.6</ele>
        <time>2021-08-15T09:54:42Z</time>
      </trkpt>
      <trkpt lat="45.49221" lon="6.73408">
        <ele>2677.5</ele>
        <time>2021-08-15T09:54:43Z</time>
      </trkpt>
      <trkpt lat="45.49221" lon="6.73407">
        <ele>2677.4</ele>
        <time>2021-08-15T09:54:44Z</time>
      </trkpt>
      <trkpt lat="45.49222" lon="6.73407">
        <ele>2677.2</ele>
        <time>2021-08-15T09:54:45Z</time>
      </trkpt>
      <trkpt lat="45.49223" lon="6.73407">
        <ele>2677.1</ele>
        <time>2021-08-15T09:54:46Z</time>
      </trkpt>
      <trkpt lat="45.49223" lon="6.73407">
        <ele>2677</ele>
        <time>2021-08-15T09:54:47Z</time>
      </trkpt>
      <trkpt lat="45.49224" lon="6.73407">
        <ele>2676.8</ele>
        <time>2021-08-15T09:54:48Z</time>
      </trkpt>
      <trkpt lat="45.49225" lon="6.73407">
        <ele>2676.6</ele>
        <time>2021-08-15T09:54:49Z</time>
      </trkpt>
      <trkpt lat="45.49226" lon="6.73407">
        <ele>2676.5</ele>
        <time>2021-08-15T09:54:50Z</time>
      </trkpt>
      <trkpt lat="45.49227" lon="6.73408">
        <ele>2676.3</ele>
        <time>2021-08-15T09:54:51Z</time>
      </trkpt>
      <trkpt lat="45.49228" lon="6.73408">
        <ele>2676.1</ele>
        <time>2021-08-15T09:54:52Z</time>
      </trkpt>
      <trkpt lat="45.49229" lon="6.73408">
        <ele>2675.9</ele>
        <time>2021-08-15T09:54:53Z</time>
      </trkpt>
      <trkpt lat="45.4923" lon="6.73409">
        <ele>2675.8</ele>
        <time>2021-08-15T09:54:54Z</time>
      </trkpt>
      <trkpt lat="45.49231" lon="6.73409">
        <ele>2675.7</ele>
        <time>2021-08-15T09:54:55Z</time>
      </trkpt>
      <trkpt lat="45.49232" lon="6.73409">
        <ele>2675.5</ele>
        <time>2021-08-15T09:54:56Z</time>
      </trkpt>
      <trkpt lat="45.49232" lon="6.73409">
        <ele>2675.4</ele>
        <time>2021-08-15T09:54:57Z</time>
      </trkpt>
      <trkpt lat="45.49233" lon="6.73409">
        <ele>2675.3</ele>
        <time>2021-08-15T09:54:58Z</time>
      </trkpt>
      <trkpt lat="45.49233" lon="6.73408">
        <ele>2675.3</ele>
        <time>2021-08-15T09:54:59Z</time>
      </trkpt>
      <trkpt lat="45.49234" lon="6.73408">
        <ele>2675.2</ele>
        <time>2021-08-15T09:55:00Z</time>
      </trkpt>
      <trkpt lat="45.49234" lon="6.73408">
        <ele>2675.1</ele>
        <time>2021-08-15T09:55:01Z</time>
      </trkpt>
      <trkpt lat="45.49235" lon="6.73408">
        <ele>2675</ele>
        <time>2021-08-15T09:55:02Z</time>
      </trkpt>
      <trkpt lat="45.49235" lon="6.73407">
        <ele>2675</ele>
        <time>2021-08-15T09:55:03Z</time>
      </trkpt>
      <trkpt lat="45.49235" lon="6.73407">
        <ele>2674.9</ele>
        <time>2021-08-15T09:55:04Z</time>
      </trkpt>
      <trkpt lat="45.49235" lon="6.73406">
        <ele>2674.8</ele>
        <time>2021-08-15T09:55:05Z</time>
      </trkpt>
      <trkpt lat="45.49236" lon="6.73406">
        <ele>2674.8</ele>
        <time>2021-08-15T09:55:06Z</time>
      </trkpt>
      <trkpt lat="45.49236" lon="6.73405">
        <ele>2674.7</ele>
        <time>2021-08-15T09:55:07Z</time>
      </trkpt>
      <trkpt lat="45.49236" lon="6.73405">
        <ele>2674.6</ele>
        <time>2021-08-15T09:55:08Z</time>
      </trkpt>
      <trkpt lat="45.49237" lon="6.73404">
        <ele>2674.5</ele>
        <time>2021-08-15T09:55:09Z</time>
      </trkpt>
      <trkpt lat="45.49237" lon="6.73404">
        <ele>2674.4</ele>
        <time>2021-08-15T09:55:10Z</time>
      </trkpt>
      <trkpt lat="45.49237" lon="6.73403">
        <ele>2674.4</ele>
        <time>2021-08-15T09:55:11Z</time>
      </trkpt>
      <trkpt lat="45.49238" lon="6.73403">
        <ele>2674.3</ele>
        <time>2021-08-15T09:55:12Z</time>
      </trkpt>
      <trkpt lat="45.49238" lon="6.73402">
        <ele>2674.2</ele>
        <time>2021-08-15T09:55:13Z</time>
      </trkpt>
      <trkpt lat="45.49239" lon="6.73402">
        <ele>2674.1</ele>
        <time>2021-08-15T09:55:14Z</time>
      </trkpt>
      <trkpt lat="45.49239" lon="6.73401">
        <ele>2674</ele>
        <time>2021-08-15T09:55:15Z</time>
      </trkpt>
      <trkpt lat="45.4924" lon="6.73401">
        <ele>2673.9</ele>
        <time>2021-08-15T09:55:16Z</time>
      </trkpt>
      <trkpt lat="45.4924" lon="6.734">
        <ele>2673.8</ele>
        <time>2021-08-15T09:55:17Z</time>
      </trkpt>
      <trkpt lat="45.49241" lon="6.734">
        <ele>2673.7</ele>
        <time>2021-08-15T09:55:18Z</time>
      </trkpt>
      <trkpt lat="45.49242" lon="6.73399">
        <ele>2673.5</ele>
        <time>2021-08-15T09:55:19Z</time>
      </trkpt>
      <trkpt lat="45.49242" lon="6.73399">
        <ele>2673.4</ele>
        <time>2021-08-15T09:55:20Z</time>
      </trkpt>
      <trkpt lat="45.49243" lon="6.73398">
        <ele>2673.3</ele>
        <time>2021-08-15T09:55:21Z</time>
      </trkpt>
      <trkpt lat="45.49243" lon="6.73398">
        <ele>2673.2</ele>
        <time>2021-08-15T09:55:22Z</time>
      </trkpt>
      <trkpt lat="45.49244" lon="6.73397">
        <ele>2673.1</ele>
        <time>2021-08-15T09:55:23Z</time>
      </trkpt>
      <trkpt lat="45.49245" lon="6.73397">
        <ele>2673</ele>
        <time>2021-08-15T09:55:24Z</time>
      </trkpt>
      <trkpt lat="45.49245" lon="6.73396">
        <ele>2672.9</ele>
        <time>2021-08-15T09:55:25Z</time>
      </trkpt>
      <trkpt lat="45.49245" lon="6.73396">
        <ele>2672.8</ele>
        <time>2021-08-15T09:55:26Z</time>
      </trkpt>
      <trkpt lat="45.49246" lon="6.73395">
        <ele>2672.7</ele>
        <time>2021-08-15T09:55:27Z</time>
      </trkpt>
      <trkpt lat="45.49246" lon="6.73394">
        <ele>2672.6</ele>
        <time>2021-08-15T09:55:28Z</time>
      </trkpt>
      <trkpt lat="45.49247" lon="6.73394">
        <ele>2672.5</ele>
        <time>2021-08-15T09:55:29Z</time>
      </trkpt>
      <trkpt lat="45.49247" lon="6.73393">
        <ele>2672.4</ele>
        <time>2021-08-15T09:55:30Z</time>
      </trkpt>
      <trkpt lat="45.49248" lon="6.73393">
        <ele>2672.3</ele>
        <time>2021-08-15T09:55:31Z</time>
      </trkpt>
      <trkpt lat="45.49248" lon="6.73392">
        <ele>2672.3</ele>
        <time>2021-08-15T09:55:32Z</time>
      </trkpt>
      <trkpt lat="45.49248" lon="6.73391">
        <ele>2672.2</ele>
        <time>2021-08-15T09:55:33Z</time>
      </trkpt>
      <trkpt lat="45.49249" lon="6.73391">
        <ele>2672.1</ele>
        <time>2021-08-15T09:55:34Z</time>
      </trkpt>
      <trkpt lat="45.4925" lon="6.7339">
        <ele>2672</ele>
        <time>2021-08-15T09:55:35Z</time>
      </trkpt>
      <trkpt lat="45.4925" lon="6.7339">
        <ele>2671.9</ele>
        <time>2021-08-15T09:55:36Z</time>
      </trkpt>
      <trkpt lat="45.49251" lon="6.7339">
        <ele>2671.7</ele>
        <time>2021-08-15T09:55:37Z</time>
      </trkpt>
      <trkpt lat="45.49251" lon="6.73389">
        <ele>2671.6</ele>
        <time>2021-08-15T09:55:38Z</time>
      </trkpt>
      <trkpt lat="45.49252" lon="6.73389">
        <ele>2671.5</ele>
        <time>2021-08-15T09:55:39Z</time>
      </trkpt>
      <trkpt lat="45.49253" lon="6.73389">
        <ele>2671.4</ele>
        <time>2021-08-15T09:55:40Z</time>
      </trkpt>
      <trkpt lat="45.49253" lon="6.73388">
        <ele>2671.3</ele>
        <time>2021-08-15T09:55:41Z</time>
      </trkpt>
      <trkpt lat="45.49254" lon="6.73388">
        <ele>2671.2</ele>
        <time>2021-08-15T09:55:42Z</time>
      </trkpt>
      <trkpt lat="45.49255" lon="6.73388">
        <ele>2671.1</ele>
        <time>2021-08-15T09:55:43Z</time>
      </trkpt>
      <trkpt lat="45.49255" lon="6.73387">
        <ele>2671</ele>
        <time>2021-08-15T09:55:44Z</time>
      </trkpt>
      <trkpt lat="45.49256" lon="6.73387">
        <ele>2670.9</ele>
        <time>2021-08-15T09:55:45Z</time>
      </trkpt>
      <trkpt lat="45.49256" lon="6.73387">
        <ele>2670.9</ele>
        <time>2021-08-15T09:55:46Z</time>
      </trkpt>
      <trkpt lat="45.49257" lon="6.73386">
        <ele>2670.8</ele>
        <time>2021-08-15T09:55:47Z</time>
      </trkpt>
      <trkpt lat="45.49258" lon="6.73386">
        <ele>2670.7</ele>
        <time>2021-08-15T09:55:48Z</time>
      </trkpt>
      <trkpt lat="45.49258" lon="6.73386">
        <ele>2670.6</ele>
        <time>2021-08-15T09:55:49Z</time>
      </trkpt>
      <trkpt lat="45.49259" lon="6.73385">
        <ele>2670.5</ele>
        <time>2021-08-15T09:55:50Z</time>
      </trkpt>
      <trkpt lat="45.49259" lon="6.73385">
        <ele>2670.4</ele>
        <time>2021-08-15T09:55:51Z</time>
      </trkpt>
      <trkpt lat="45.4926" lon="6.73384">
        <ele>2670.4</ele>
        <time>2021-08-15T09:55:52Z</time>
      </trkpt>
      <trkpt lat="45.4926" lon="6.73384">
        <ele>2670.3</ele>
        <time>2021-08-15T09:55:53Z</time>
      </trkpt>
      <trkpt lat="45.4926" lon="6.73384">
        <ele>2670.2</ele>
        <time>2021-08-15T09:55:54Z</time>
      </trkpt>
      <trkpt lat="45.49261" lon="6.73383">
        <ele>2670.1</ele>
        <time>2021-08-15T09:55:55Z</time>
      </trkpt>
      <trkpt lat="45.49261" lon="6.73383">
        <ele>2670</ele>
        <time>2021-08-15T09:55:56Z</time>
      </trkpt>
      <trkpt lat="45.49262" lon="6.73382">
        <ele>2670</ele>
        <time>2021-08-15T09:55:57Z</time>
      </trkpt>
      <trkpt lat="45.49262" lon="6.73382">
        <ele>2669.9</ele>
        <time>2021-08-15T09:55:58Z</time>
      </trkpt>
      <trkpt lat="45.49263" lon="6.73381">
        <ele>2669.8</ele>
        <time>2021-08-15T09:55:59Z</time>
      </trkpt>
      <trkpt lat="45.49263" lon="6.73381">
        <ele>2669.7</ele>
        <time>2021-08-15T09:56:00Z</time>
      </trkpt>
      <trkpt lat="45.49264" lon="6.7338">
        <ele>2669.6</ele>
        <time>2021-08-15T09:56:01Z</time>
      </trkpt>
      <trkpt lat="45.49264" lon="6.7338">
        <ele>2669.5</ele>
        <time>2021-08-15T09:56:02Z</time>
      </trkpt>
      <trkpt lat="45.49265" lon="6.73379">
        <ele>2669.4</ele>
        <time>2021-08-15T09:56:03Z</time>
      </trkpt>
      <trkpt lat="45.49265" lon="6.73379">
        <ele>2669.4</ele>
        <time>2021-08-15T09:56:04Z</time>
      </trkpt>
      <trkpt lat="45.49266" lon="6.73378">
        <ele>2669.3</ele>
        <time>2021-08-15T09:56:05Z</time>
      </trkpt>
      <trkpt lat="45.49266" lon="6.73378">
        <ele>2669.2</ele>
        <time>2021-08-15T09:56:06Z</time>
      </trkpt>
      <trkpt lat="45.49267" lon="6.73377">
        <ele>2669.1</ele>
        <time>2021-08-15T09:56:07Z</time>
      </trkpt>
      <trkpt lat="45.49267" lon="6.73377">
        <ele>2669</ele>
        <time>2021-08-15T09:56:08Z</time>
      </trkpt>
      <trkpt lat="45.49268" lon="6.73376">
        <ele>2668.9</ele>
        <time>2021-08-15T09:56:09Z</time>
      </trkpt>
      <trkpt lat="45.49268" lon="6.73376">
        <ele>2668.8</ele>
        <time>2021-08-15T09:56:10Z</time>
      </trkpt>
      <trkpt lat="45.49269" lon="6.73376">
        <ele>2668.7</ele>
        <time>2021-08-15T09:56:11Z</time>
      </trkpt>
      <trkpt lat="45.4927" lon="6.73375">
        <ele>2668.6</ele>
        <time>2021-08-15T09:56:12Z</time>
      </trkpt>
      <trkpt lat="45.4927" lon="6.73375">
        <ele>2668.5</ele>
        <time>2021-08-15T09:56:13Z</time>
      </trkpt>
      <trkpt lat="45.49271" lon="6.73374">
        <ele>2668.4</ele>
        <time>2021-08-15T09:56:14Z</time>
      </trkpt>
      <trkpt lat="45.49272" lon="6.73374">
        <ele>2668.3</ele>
        <time>2021-08-15T09:56:15Z</time>
      </trkpt>
      <trkpt lat="45.49272" lon="6.73374">
        <ele>2668.2</ele>
        <time>2021-08-15T09:56:16Z</time>
      </trkpt>
      <trkpt lat="45.49273" lon="6.73373">
        <ele>2668.1</ele>
        <time>2021-08-15T09:56:17Z</time>
      </trkpt>
      <trkpt lat="45.49274" lon="6.73373">
        <ele>2668</ele>
        <time>2021-08-15T09:56:18Z</time>
      </trkpt>
      <trkpt lat="45.49275" lon="6.73372">
        <ele>2667.9</ele>
        <time>2021-08-15T09:56:19Z</time>
      </trkpt>
      <trkpt lat="45.49275" lon="6.73372">
        <ele>2667.8</ele>
        <time>2021-08-15T09:56:20Z</time>
      </trkpt>
      <trkpt lat="45.49276" lon="6.73372">
        <ele>2667.6</ele>
        <time>2021-08-15T09:56:21Z</time>
      </trkpt>
      <trkpt lat="45.49277" lon="6.73371">
        <ele>2667.5</ele>
        <time>2021-08-15T09:56:22Z</time>
      </trkpt>
      <trkpt lat="45.49278" lon="6.73371">
        <ele>2667.4</ele>
        <time>2021-08-15T09:56:23Z</time>
      </trkpt>
      <trkpt lat="45.49279" lon="6.73371">
        <ele>2667.3</ele>
        <time>2021-08-15T09:56:24Z</time>
      </trkpt>
      <trkpt lat="45.49279" lon="6.7337">
        <ele>2667.2</ele>
        <time>2021-08-15T09:56:25Z</time>
      </trkpt>
      <trkpt lat="45.4928" lon="6.7337">
        <ele>2667.1</ele>
        <time>2021-08-15T09:56:26Z</time>
      </trkpt>
      <trkpt lat="45.49281" lon="6.7337">
        <ele>2667</ele>
        <time>2021-08-15T09:56:27Z</time>
      </trkpt>
      <trkpt lat="45.49282" lon="6.73369">
        <ele>2666.8</ele>
        <time>2021-08-15T09:56:28Z</time>
      </trkpt>
      <trkpt lat="45.49283" lon="6.73369">
        <ele>2666.7</ele>
        <time>2021-08-15T09:56:29Z</time>
      </trkpt>
      <trkpt lat="45.49283" lon="6.73369">
        <ele>2666.6</ele>
        <time>2021-08-15T09:56:30Z</time>
      </trkpt>
      <trkpt lat="45.49284" lon="6.73368">
        <ele>2666.5</ele>
        <time>2021-08-15T09:56:31Z</time>
      </trkpt>
      <trkpt lat="45.49285" lon="6.73368">
        <ele>2666.4</ele>
        <time>2021-08-15T09:56:32Z</time>
      </trkpt>
      <trkpt lat="45.49286" lon="6.73368">
        <ele>2666.3</ele>
        <time>2021-08-15T09:56:33Z</time>
      </trkpt>
      <trkpt lat="45.49286" lon="6.73367">
        <ele>2666.2</ele>
        <time>2021-08-15T09:56:34Z</time>
      </trkpt>
      <trkpt lat="45.49287" lon="6.73367">
        <ele>2666.1</ele>
        <time>2021-08-15T09:56:35Z</time>
      </trkpt>
      <trkpt lat="45.49288" lon="6.73367">
        <ele>2666</ele>
        <time>2021-08-15T09:56:36Z</time>
      </trkpt>
      <trkpt lat="45.49288" lon="6.73366">
        <ele>2665.9</ele>
        <time>2021-08-15T09:56:37Z</time>
      </trkpt>
      <trkpt lat="45.49289" lon="6.73366">
        <ele>2665.8</ele>
        <time>2021-08-15T09:56:38Z</time>
      </trkpt>
      <trkpt lat="45.4929" lon="6.73366">
        <ele>2665.7</ele>
        <time>2021-08-15T09:56:39Z</time>
      </trkpt>
      <trkpt lat="45.4929" lon="6.73365">
        <ele>2665.6</ele>
        <time>2021-08-15T09:56:40Z</time>
      </trkpt>
      <trkpt lat="45.49291" lon="6.73365">
        <ele>2665.5</ele>
        <time>2021-08-15T09:56:41Z</time>
      </trkpt>
      <trkpt lat="45.49291" lon="6.73364">
        <ele>2665.4</ele>
        <time>2021-08-15T09:56:42Z</time>
      </trkpt>
      <trkpt lat="45.49292" lon="6.73364">
        <ele>2665.3</ele>
        <time>2021-08-15T09:56:43Z</time>
      </trkpt>
      <trkpt lat="45.49293" lon="6.73364">
        <ele>2665.2</ele>
        <time>2021-08-15T09:56:44Z</time>
      </trkpt>
      <trkpt lat="45.49293" lon="6.73363">
        <ele>2665.1</ele>
        <time>2021-08-15T09:56:45Z</time>
      </trkpt>
      <trkpt lat="45.49294" lon="6.73363">
        <ele>2665.1</ele>
        <time>2021-08-15T09:56:46Z</time>
      </trkpt>
      <trkpt lat="45.49294" lon="6.73363">
        <ele>2665</ele>
        <time>2021-08-15T09:56:47Z</time>
      </trkpt>
      <trkpt lat="45.49295" lon="6.73362">
        <ele>2664.9</ele>
        <time>2021-08-15T09:56:48Z</time>
      </trkpt>
      <trkpt lat="45.49296" lon="6.73362">
        <ele>2664.8</ele>
        <time>2021-08-15T09:56:49Z</time>
      </trkpt>
      <trkpt lat="45.49296" lon="6.73361">
        <ele>2664.7</ele>
        <time>2021-08-15T09:56:50Z</time>
      </trkpt>
      <trkpt lat="45.49297" lon="6.73361">
        <ele>2664.6</ele>
        <time>2021-08-15T09:56:51Z</time>
      </trkpt>
      <trkpt lat="45.49298" lon="6.73361">
        <ele>2664.5</ele>
        <time>2021-08-15T09:56:52Z</time>
      </trkpt>
      <trkpt lat="45.49298" lon="6.7336">
        <ele>2664.4</ele>
        <time>2021-08-15T09:56:53Z</time>
      </trkpt>
      <trkpt lat="45.49299" lon="6.7336">
        <ele>2664.3</ele>
        <time>2021-08-15T09:56:54Z</time>
      </trkpt>
      <trkpt lat="45.493" lon="6.73359">
        <ele>2664.2</ele>
        <time>2021-08-15T09:56:55Z</time>
      </trkpt>
      <trkpt lat="45.493" lon="6.73359">
        <ele>2664.1</ele>
        <time>2021-08-15T09:56:56Z</time>
      </trkpt>
      <trkpt lat="45.49301" lon="6.73359">
        <ele>2664</ele>
        <time>2021-08-15T09:56:57Z</time>
      </trkpt>
      <trkpt lat="45.49302" lon="6.73358">
        <ele>2664</ele>
        <time>2021-08-15T09:56:58Z</time>
      </trkpt>
      <trkpt lat="45.49302" lon="6.73358">
        <ele>2663.9</ele>
        <time>2021-08-15T09:56:59Z</time>
      </trkpt>
      <trkpt lat="45.49303" lon="6.73357">
        <ele>2663.8</ele>
        <time>2021-08-15T09:57:00Z</time>
      </trkpt>
      <trkpt lat="45.49304" lon="6.73357">
        <ele>2663.7</ele>
        <time>2021-08-15T09:57:01Z</time>
      </trkpt>
      <trkpt lat="45.49304" lon="6.73357">
        <ele>2663.6</ele>
        <time>2021-08-15T09:57:02Z</time>
      </trkpt>
      <trkpt lat="45.49305" lon="6.73356">
        <ele>2663.5</ele>
        <time>2021-08-15T09:57:03Z</time>
      </trkpt>
      <trkpt lat="45.49306" lon="6.73356">
        <ele>2663.4</ele>
        <time>2021-08-15T09:57:04Z</time>
      </trkpt>
      <trkpt lat="45.49307" lon="6.73355">
        <ele>2663.3</ele>
        <time>2021-08-15T09:57:05Z</time>
      </trkpt>
      <trkpt lat="45.49307" lon="6.73355">
        <ele>2663.2</ele>
        <time>2021-08-15T09:57:06Z</time>
      </trkpt>
      <trkpt lat="45.49308" lon="6.73355">
        <ele>2663.1</ele>
        <time>2021-08-15T09:57:07Z</time>
      </trkpt>
      <trkpt lat="45.49309" lon="6.73354">
        <ele>2663</ele>
        <time>2021-08-15T09:57:08Z</time>
      </trkpt>
      <trkpt lat="45.49309" lon="6.73354">
        <ele>2663</ele>
        <time>2021-08-15T09:57:09Z</time>
      </trkpt>
      <trkpt lat="45.4931" lon="6.73354">
        <ele>2662.9</ele>
        <time>2021-08-15T09:57:10Z</time>
      </trkpt>
      <trkpt lat="45.49311" lon="6.73353">
        <ele>2662.8</ele>
        <time>2021-08-15T09:57:11Z</time>
      </trkpt>
      <trkpt lat="45.49312" lon="6.73353">
        <ele>2662.7</ele>
        <time>2021-08-15T09:57:12Z</time>
      </trkpt>
      <trkpt lat="45.49312" lon="6.73353">
        <ele>2662.6</ele>
        <time>2021-08-15T09:57:13Z</time>
      </trkpt>
      <trkpt lat="45.49313" lon="6.73352">
        <ele>2662.5</ele>
        <time>2021-08-15T09:57:14Z</time>
      </trkpt>
      <trkpt lat="45.49314" lon="6.73352">
        <ele>2662.4</ele>
        <time>2021-08-15T09:57:15Z</time>
      </trkpt>
      <trkpt lat="45.49314" lon="6.73352">
        <ele>2662.3</ele>
        <time>2021-08-15T09:57:16Z</time>
      </trkpt>
      <trkpt lat="45.49315" lon="6.73351">
        <ele>2662.3</ele>
        <time>2021-08-15T09:57:17Z</time>
      </trkpt>
      <trkpt lat="45.49316" lon="6.73351">
        <ele>2662.2</ele>
        <time>2021-08-15T09:57:18Z</time>
      </trkpt>
      <trkpt lat="45.49317" lon="6.73351">
        <ele>2662.1</ele>
        <time>2021-08-15T09:57:19Z</time>
      </trkpt>
      <trkpt lat="45.49317" lon="6.7335">
        <ele>2662</ele>
        <time>2021-08-15T09:57:20Z</time>
      </trkpt>
      <trkpt lat="45.49318" lon="6.7335">
        <ele>2661.9</ele>
        <time>2021-08-15T09:57:21Z</time>
      </trkpt>
      <trkpt lat="45.49319" lon="6.7335">
        <ele>2661.8</ele>
        <time>2021-08-15T09:57:22Z</time>
      </trkpt>
      <trkpt lat="45.49319" lon="6.73349">
        <ele>2661.7</ele>
        <time>2021-08-15T09:57:23Z</time>
      </trkpt>
      <trkpt lat="45.4932" lon="6.73349">
        <ele>2661.6</ele>
        <time>2021-08-15T09:57:24Z</time>
      </trkpt>
      <trkpt lat="45.49321" lon="6.73349">
        <ele>2661.6</ele>
        <time>2021-08-15T09:57:25Z</time>
      </trkpt>
      <trkpt lat="45.49321" lon="6.73348">
        <ele>2661.5</ele>
        <time>2021-08-15T09:57:26Z</time>
      </trkpt>
      <trkpt lat="45.49322" lon="6.73348">
        <ele>2661.4</ele>
        <time>2021-08-15T09:57:27Z</time>
      </trkpt>
      <trkpt lat="45.49323" lon="6.73348">
        <ele>2661.3</ele>
        <time>2021-08-15T09:57:28Z</time>
      </trkpt>
      <trkpt lat="45.49324" lon="6.73347">
        <ele>2661.2</ele>
        <time>2021-08-15T09:57:29Z</time>
      </trkpt>
      <trkpt lat="45.49324" lon="6.73347">
        <ele>2661.1</ele>
        <time>2021-08-15T09:57:30Z</time>
      </trkpt>
      <trkpt lat="45.49325" lon="6.73346">
        <ele>2661</ele>
        <time>2021-08-15T09:57:31Z</time>
      </trkpt>
      <trkpt lat="45.49326" lon="6.73346">
        <ele>2660.9</ele>
        <time>2021-08-15T09:57:32Z</time>
      </trkpt>
      <trkpt lat="45.49326" lon="6.73345">
        <ele>2660.8</ele>
        <time>2021-08-15T09:57:33Z</time>
      </trkpt>
      <trkpt lat="45.49327" lon="6.73345">
        <ele>2660.7</ele>
        <time>2021-08-15T09:57:34Z</time>
      </trkpt>
      <trkpt lat="45.49328" lon="6.73344">
        <ele>2660.6</ele>
        <time>2021-08-15T09:57:35Z</time>
      </trkpt>
      <trkpt lat="45.49328" lon="6.73344">
        <ele>2660.5</ele>
        <time>2021-08-15T09:57:36Z</time>
      </trkpt>
      <trkpt lat="45.49329" lon="6.73343">
        <ele>2660.4</ele>
        <time>2021-08-15T09:57:37Z</time>
      </trkpt>
      <trkpt lat="45.4933" lon="6.73343">
        <ele>2660.3</ele>
        <time>2021-08-15T09:57:38Z</time>
      </trkpt>
      <trkpt lat="45.49331" lon="6.73342">
        <ele>2660.1</ele>
        <time>2021-08-15T09:57:39Z</time>
      </trkpt>
      <trkpt lat="45.49331" lon="6.73342">
        <ele>2660</ele>
        <time>2021-08-15T09:57:40Z</time>
      </trkpt>
      <trkpt lat="45.49332" lon="6.73341">
        <ele>2659.9</ele>
        <time>2021-08-15T09:57:41Z</time>
      </trkpt>
      <trkpt lat="45.49333" lon="6.7334">
        <ele>2659.8</ele>
        <time>2021-08-15T09:57:42Z</time>
      </trkpt>
      <trkpt lat="45.49333" lon="6.7334">
        <ele>2659.7</ele>
        <time>2021-08-15T09:57:43Z</time>
      </trkpt>
      <trkpt lat="45.49334" lon="6.73339">
        <ele>2659.6</ele>
        <time>2021-08-15T09:57:44Z</time>
      </trkpt>
      <trkpt lat="45.49335" lon="6.73339">
        <ele>2659.5</ele>
        <time>2021-08-15T09:57:45Z</time>
      </trkpt>
      <trkpt lat="45.49335" lon="6.73338">
        <ele>2659.4</ele>
        <time>2021-08-15T09:57:46Z</time>
      </trkpt>
      <trkpt lat="45.49336" lon="6.73338">
        <ele>2659.3</ele>
        <time>2021-08-15T09:57:47Z</time>
      </trkpt>
      <trkpt lat="45.49336" lon="6.73337">
        <ele>2659.2</ele>
        <time>2021-08-15T09:57:48Z</time>
      </trkpt>
      <trkpt lat="45.49337" lon="6.73337">
        <ele>2659.1</ele>
        <time>2021-08-15T09:57:49Z</time>
      </trkpt>
      <trkpt lat="45.49338" lon="6.73336">
        <ele>2659.1</ele>
        <time>2021-08-15T09:57:50Z</time>
      </trkpt>
      <trkpt lat="45.49338" lon="6.73336">
        <ele>2659</ele>
        <time>2021-08-15T09:57:51Z</time>
      </trkpt>
      <trkpt lat="45.49339" lon="6.73336">
        <ele>2658.9</ele>
        <time>2021-08-15T09:57:52Z</time>
      </trkpt>
      <trkpt lat="45.4934" lon="6.73336">
        <ele>2658.8</ele>
        <time>2021-08-15T09:57:53Z</time>
      </trkpt>
      <trkpt lat="45.4934" lon="6.73335">
        <ele>2658.7</ele>
        <time>2021-08-15T09:57:54Z</time>
      </trkpt>
      <trkpt lat="45.49341" lon="6.73335">
        <ele>2658.6</ele>
        <time>2021-08-15T09:57:55Z</time>
      </trkpt>
      <trkpt lat="45.49342" lon="6.73335">
        <ele>2658.5</ele>
        <time>2021-08-15T09:57:56Z</time>
      </trkpt>
      <trkpt lat="45.49342" lon="6.73335">
        <ele>2658.4</ele>
        <time>2021-08-15T09:57:57Z</time>
      </trkpt>
      <trkpt lat="45.49343" lon="6.73335">
        <ele>2658.3</ele>
        <time>2021-08-15T09:57:58Z</time>
      </trkpt>
      <trkpt lat="45.49344" lon="6.73335">
        <ele>2658.3</ele>
        <time>2021-08-15T09:57:59Z</time>
      </trkpt>
      <trkpt lat="45.49345" lon="6.73335">
        <ele>2658.2</ele>
        <time>2021-08-15T09:58:00Z</time>
      </trkpt>
      <trkpt lat="45.49345" lon="6.73335">
        <ele>2658.1</ele>
        <time>2021-08-15T09:58:01Z</time>
      </trkpt>
      <trkpt lat="45.49346" lon="6.73335">
        <ele>2658</ele>
        <time>2021-08-15T09:58:02Z</time>
      </trkpt>
      <trkpt lat="45.49347" lon="6.73334">
        <ele>2657.9</ele>
        <time>2021-08-15T09:58:03Z</time>
      </trkpt>
      <trkpt lat="45.49348" lon="6.73334">
        <ele>2657.8</ele>
        <time>2021-08-15T09:58:04Z</time>
      </trkpt>
      <trkpt lat="45.49349" lon="6.73334">
        <ele>2657.7</ele>
        <time>2021-08-15T09:58:05Z</time>
      </trkpt>
      <trkpt lat="45.49349" lon="6.73334">
        <ele>2657.6</ele>
        <time>2021-08-15T09:58:06Z</time>
      </trkpt>
      <trkpt lat="45.4935" lon="6.73333">
        <ele>2657.4</ele>
        <time>2021-08-15T09:58:07Z</time>
      </trkpt>
      <trkpt lat="45.49351" lon="6.73333">
        <ele>2657.3</ele>
        <time>2021-08-15T09:58:08Z</time>
      </trkpt>
      <trkpt lat="45.49352" lon="6.73333">
        <ele>2657.2</ele>
        <time>2021-08-15T09:58:09Z</time>
      </trkpt>
      <trkpt lat="45.49353" lon="6.73332">
        <ele>2657.1</ele>
        <time>2021-08-15T09:58:10Z</time>
      </trkpt>
      <trkpt lat="45.49354" lon="6.73332">
        <ele>2657</ele>
        <time>2021-08-15T09:58:11Z</time>
      </trkpt>
      <trkpt lat="45.49355" lon="6.73331">
        <ele>2656.9</ele>
        <time>2021-08-15T09:58:12Z</time>
      </trkpt>
      <trkpt lat="45.49356" lon="6.73331">
        <ele>2656.8</ele>
        <time>2021-08-15T09:58:13Z</time>
      </trkpt>
      <trkpt lat="45.49357" lon="6.73331">
        <ele>2656.7</ele>
        <time>2021-08-15T09:58:14Z</time>
      </trkpt>
      <trkpt lat="45.49357" lon="6.7333">
        <ele>2656.6</ele>
        <time>2021-08-15T09:58:15Z</time>
      </trkpt>
      <trkpt lat="45.49358" lon="6.7333">
        <ele>2656.4</ele>
        <time>2021-08-15T09:58:16Z</time>
      </trkpt>
      <trkpt lat="45.49359" lon="6.73329">
        <ele>2656.3</ele>
        <time>2021-08-15T09:58:17Z</time>
      </trkpt>
      <trkpt lat="45.4936" lon="6.73329">
        <ele>2656.2</ele>
        <time>2021-08-15T09:58:18Z</time>
      </trkpt>
      <trkpt lat="45.49361" lon="6.73329">
        <ele>2656.1</ele>
        <time>2021-08-15T09:58:19Z</time>
      </trkpt>
      <trkpt lat="45.49362" lon="6.73328">
        <ele>2656</ele>
        <time>2021-08-15T09:58:20Z</time>
      </trkpt>
      <trkpt lat="45.49363" lon="6.73328">
        <ele>2655.9</ele>
        <time>2021-08-15T09:58:21Z</time>
      </trkpt>
      <trkpt lat="45.49364" lon="6.73328">
        <ele>2655.8</ele>
        <time>2021-08-15T09:58:22Z</time>
      </trkpt>
      <trkpt lat="45.49365" lon="6.73327">
        <ele>2655.7</ele>
        <time>2021-08-15T09:58:23Z</time>
      </trkpt>
      <trkpt lat="45.49366" lon="6.73327">
        <ele>2655.6</ele>
        <time>2021-08-15T09:58:24Z</time>
      </trkpt>
      <trkpt lat="45.49366" lon="6.73326">
        <ele>2655.5</ele>
        <time>2021-08-15T09:58:25Z</time>
      </trkpt>
      <trkpt lat="45.49367" lon="6.73326">
        <ele>2655.4</ele>
        <time>2021-08-15T09:58:26Z</time>
      </trkpt>
      <trkpt lat="45.49368" lon="6.73326">
        <ele>2655.3</ele>
        <time>2021-08-15T09:58:27Z</time>
      </trkpt>
      <trkpt lat="45.49369" lon="6.73325">
        <ele>2655.2</ele>
        <time>2021-08-15T09:58:28Z</time>
      </trkpt>
      <trkpt lat="45.4937" lon="6.73325">
        <ele>2655</ele>
        <time>2021-08-15T09:58:29Z</time>
      </trkpt>
      <trkpt lat="45.49371" lon="6.73325">
        <ele>2654.9</ele>
        <time>2021-08-15T09:58:30Z</time>
      </trkpt>
      <trkpt lat="45.49372" lon="6.73325">
        <ele>2654.8</ele>
        <time>2021-08-15T09:58:31Z</time>
      </trkpt>
      <trkpt lat="45.49373" lon="6.73324">
        <ele>2654.7</ele>
        <time>2021-08-15T09:58:32Z</time>
      </trkpt>
      <trkpt lat="45.49374" lon="6.73324">
        <ele>2654.6</ele>
        <time>2021-08-15T09:58:33Z</time>
      </trkpt>
      <trkpt lat="45.49374" lon="6.73324">
        <ele>2654.5</ele>
        <time>2021-08-15T09:58:34Z</time>
      </trkpt>
      <trkpt lat="45.49375" lon="6.73324">
        <ele>2654.4</ele>
        <time>2021-08-15T09:58:35Z</time>
      </trkpt>
      <trkpt lat="45.49376" lon="6.73323">
        <ele>2654.3</ele>
        <time>2021-08-15T09:58:36Z</time>
      </trkpt>
      <trkpt lat="45.49377" lon="6.73323">
        <ele>2654.2</ele>
        <time>2021-08-15T09:58:37Z</time>
      </trkpt>
      <trkpt lat="45.49378" lon="6.73323">
        <ele>2654.1</ele>
        <time>2021-08-15T09:58:38Z</time>
      </trkpt>
      <trkpt lat="45.49379" lon="6.73323">
        <ele>2654</ele>
        <time>2021-08-15T09:58:39Z</time>
      </trkpt>
      <trkpt lat="45.4938" lon="6.73322">
        <ele>2653.9</ele>
        <time>2021-08-15T09:58:40Z</time>
      </trkpt>
      <trkpt lat="45.4938" lon="6.73322">
        <ele>2653.8</ele>
        <time>2021-08-15T09:58:41Z</time>
      </trkpt>
      <trkpt lat="45.49381" lon="6.73322">
        <ele>2653.7</ele>
        <time>2021-08-15T09:58:42Z</time>
      </trkpt>
      <trkpt lat="45.49382" lon="6.73322">
        <ele>2653.6</ele>
        <time>2021-08-15T09:58:43Z</time>
      </trkpt>
      <trkpt lat="45.49383" lon="6.73321">
        <ele>2653.5</ele>
        <time>2021-08-15T09:58:44Z</time>
      </trkpt>
      <trkpt lat="45.49384" lon="6.73321">
        <ele>2653.4</ele>
        <time>2021-08-15T09:58:45Z</time>
      </trkpt>
      <trkpt lat="45.49385" lon="6.73321">
        <ele>2653.3</ele>
        <time>2021-08-15T09:58:46Z</time>
      </trkpt>
      <trkpt lat="45.49386" lon="6.73321">
        <ele>2653.2</ele>
        <time>2021-08-15T09:58:47Z</time>
      </trkpt>
      <trkpt lat="45.49386" lon="6.7332">
        <ele>2653.1</ele>
        <time>2021-08-15T09:58:48Z</time>
      </trkpt>
      <trkpt lat="45.49387" lon="6.7332">
        <ele>2653</ele>
        <time>2021-08-15T09:58:49Z</time>
      </trkpt>
      <trkpt lat="45.49388" lon="6.7332">
        <ele>2652.9</ele>
        <time>2021-08-15T09:58:50Z</time>
      </trkpt>
      <trkpt lat="45.49389" lon="6.7332">
        <ele>2652.8</ele>
        <time>2021-08-15T09:58:51Z</time>
      </trkpt>
      <trkpt lat="45.4939" lon="6.73319">
        <ele>2652.7</ele>
        <time>2021-08-15T09:58:52Z</time>
      </trkpt>
      <trkpt lat="45.49391" lon="6.73319">
        <ele>2652.6</ele>
        <time>2021-08-15T09:58:53Z</time>
      </trkpt>
      <trkpt lat="45.49392" lon="6.73319">
        <ele>2652.5</ele>
        <time>2021-08-15T09:58:54Z</time>
      </trkpt>
      <trkpt lat="45.49393" lon="6.73318">
        <ele>2652.4</ele>
        <time>2021-08-15T09:58:55Z</time>
      </trkpt>
      <trkpt lat="45.49393" lon="6.73318">
        <ele>2652.2</ele>
        <time>2021-08-15T09:58:56Z</time>
      </trkpt>
      <trkpt lat="45.49394" lon="6.73318">
        <ele>2652.1</ele>
        <time>2021-08-15T09:58:57Z</time>
      </trkpt>
      <trkpt lat="45.49395" lon="6.73317">
        <ele>2652</ele>
        <time>2021-08-15T09:58:58Z</time>
      </trkpt>
      <trkpt lat="45.49396" lon="6.73317">
        <ele>2651.9</ele>
        <time>2021-08-15T09:58:59Z</time>
      </trkpt>
      <trkpt lat="45.49397" lon="6.73317">
        <ele>2651.8</ele>
        <time>2021-08-15T09:59:00Z</time>
      </trkpt>
      <trkpt lat="45.49398" lon="6.73316">
        <ele>2651.7</ele>
        <time>2021-08-15T09:59:01Z</time>
      </trkpt>
      <trkpt lat="45.49399" lon="6.73316">
        <ele>2651.6</ele>
        <time>2021-08-15T09:59:02Z</time>
      </trkpt>
      <trkpt lat="45.494" lon="6.73316">
        <ele>2651.5</ele>
        <time>2021-08-15T09:59:03Z</time>
      </trkpt>
      <trkpt lat="45.494" lon="6.73315">
        <ele>2651.4</ele>
        <time>2021-08-15T09:59:04Z</time>
      </trkpt>
      <trkpt lat="45.49401" lon="6.73315">
        <ele>2651.3</ele>
        <time>2021-08-15T09:59:05Z</time>
      </trkpt>
      <trkpt lat="45.49402" lon="6.73314">
        <ele>2651.2</ele>
        <time>2021-08-15T09:59:06Z</time>
      </trkpt>
      <trkpt lat="45.49403" lon="6.73314">
        <ele>2651.1</ele>
        <time>2021-08-15T09:59:07Z</time>
      </trkpt>
      <trkpt lat="45.49404" lon="6.73314">
        <ele>2650.9</ele>
        <time>2021-08-15T09:59:08Z</time>
      </trkpt>
      <trkpt lat="45.49405" lon="6.73313">
        <ele>2650.8</ele>
        <time>2021-08-15T09:59:09Z</time>
      </trkpt>
      <trkpt lat="45.49405" lon="6.73313">
        <ele>2650.7</ele>
        <time>2021-08-15T09:59:10Z</time>
      </trkpt>
      <trkpt lat="45.49406" lon="6.73313">
        <ele>2650.6</ele>
        <time>2021-08-15T09:59:11Z</time>
      </trkpt>
      <trkpt lat="45.49407" lon="6.73313">
        <ele>2650.6</ele>
        <time>2021-08-15T09:59:12Z</time>
      </trkpt>
      <trkpt lat="45.49408" lon="6.73312">
        <ele>2650.5</ele>
        <time>2021-08-15T09:59:13Z</time>
      </trkpt>
      <trkpt lat="45.49408" lon="6.73312">
        <ele>2650.4</ele>
        <time>2021-08-15T09:59:14Z</time>
      </trkpt>
      <trkpt lat="45.49409" lon="6.73312">
        <ele>2650.3</ele>
        <time>2021-08-15T09:59:15Z</time>
      </trkpt>
      <trkpt lat="45.4941" lon="6.73311">
        <ele>2650.2</ele>
        <time>2021-08-15T09:59:16Z</time>
      </trkpt>
      <trkpt lat="45.49411" lon="6.73311">
        <ele>2650.1</ele>
        <time>2021-08-15T09:59:17Z</time>
      </trkpt>
      <trkpt lat="45.49411" lon="6.73311">
        <ele>2650</ele>
        <time>2021-08-15T09:59:18Z</time>
      </trkpt>
      <trkpt lat="45.49412" lon="6.73311">
        <ele>2649.9</ele>
        <time>2021-08-15T09:59:19Z</time>
      </trkpt>
      <trkpt lat="45.49413" lon="6.73311">
        <ele>2649.8</ele>
        <time>2021-08-15T09:59:20Z</time>
      </trkpt>
      <trkpt lat="45.49414" lon="6.73311">
        <ele>2649.7</ele>
        <time>2021-08-15T09:59:21Z</time>
      </trkpt>
      <trkpt lat="45.49414" lon="6.7331">
        <ele>2649.7</ele>
        <time>2021-08-15T09:59:22Z</time>
      </trkpt>
      <trkpt lat="45.49415" lon="6.7331">
        <ele>2649.6</ele>
        <time>2021-08-15T09:59:23Z</time>
      </trkpt>
      <trkpt lat="45.49416" lon="6.7331">
        <ele>2649.5</ele>
        <time>2021-08-15T09:59:24Z</time>
      </trkpt>
      <trkpt lat="45.49416" lon="6.7331">
        <ele>2649.4</ele>
        <time>2021-08-15T09:59:25Z</time>
      </trkpt>
      <trkpt lat="45.49417" lon="6.7331">
        <ele>2649.3</ele>
        <time>2021-08-15T09:59:26Z</time>
      </trkpt>
      <trkpt lat="45.49418" lon="6.7331">
        <ele>2649.2</ele>
        <time>2021-08-15T09:59:27Z</time>
      </trkpt>
      <trkpt lat="45.49419" lon="6.7331">
        <ele>2649.1</ele>
        <time>2021-08-15T09:59:28Z</time>
      </trkpt>
      <trkpt lat="45.49419" lon="6.7331">
        <ele>2649</ele>
        <time>2021-08-15T09:59:29Z</time>
      </trkpt>
      <trkpt lat="45.4942" lon="6.7331">
        <ele>2649</ele>
        <time>2021-08-15T09:59:30Z</time>
      </trkpt>
      <trkpt lat="45.49421" lon="6.7331">
        <ele>2648.9</ele>
        <time>2021-08-15T09:59:31Z</time>
      </trkpt>
      <trkpt lat="45.49422" lon="6.7331">
        <ele>2648.8</ele>
        <time>2021-08-15T09:59:32Z</time>
      </trkpt>
      <trkpt lat="45.49423" lon="6.7331">
        <ele>2648.7</ele>
        <time>2021-08-15T09:59:33Z</time>
      </trkpt>
      <trkpt lat="45.49424" lon="6.7331">
        <ele>2648.6</ele>
        <time>2021-08-15T09:59:34Z</time>
      </trkpt>
      <trkpt lat="45.49424" lon="6.7331">
        <ele>2648.5</ele>
        <time>2021-08-15T09:59:35Z</time>
      </trkpt>
      <trkpt lat="45.49425" lon="6.73311">
        <ele>2648.4</ele>
        <time>2021-08-15T09:59:36Z</time>
      </trkpt>
      <trkpt lat="45.49426" lon="6.73311">
        <ele>2648.3</ele>
        <time>2021-08-15T09:59:37Z</time>
      </trkpt>
      <trkpt lat="45.49427" lon="6.73311">
        <ele>2648.2</ele>
        <time>2021-08-15T09:59:38Z</time>
      </trkpt>
      <trkpt lat="45.49428" lon="6.73311">
        <ele>2648.1</ele>
        <time>2021-08-15T09:59:39Z</time>
      </trkpt>
      <trkpt lat="45.49428" lon="6.73311">
        <ele>2648</ele>
        <time>2021-08-15T09:59:40Z</time>
      </trkpt>
      <trkpt lat="45.49429" lon="6.73311">
        <ele>2647.9</ele>
        <time>2021-08-15T09:59:41Z</time>
      </trkpt>
      <trkpt lat="45.49429" lon="6.73311">
        <ele>2647.9</ele>
        <time>2021-08-15T09:59:42Z</time>
      </trkpt>
      <trkpt lat="45.4943" lon="6.73311">
        <ele>2647.8</ele>
        <time>2021-08-15T09:59:43Z</time>
      </trkpt>
      <trkpt lat="45.49431" lon="6.73311">
        <ele>2647.7</ele>
        <time>2021-08-15T09:59:44Z</time>
      </trkpt>
      <trkpt lat="45.49431" lon="6.73311">
        <ele>2647.7</ele>
        <time>2021-08-15T09:59:45Z</time>
      </trkpt>
      <trkpt lat="45.49432" lon="6.73311">
        <ele>2647.6</ele>
        <time>2021-08-15T09:59:46Z</time>
      </trkpt>
      <trkpt lat="45.49432" lon="6.73311">
        <ele>2647.5</ele>
        <time>2021-08-15T09:59:47Z</time>
      </trkpt>
      <trkpt lat="45.49433" lon="6.7331">
        <ele>2647.5</ele>
        <time>2021-08-15T09:59:48Z</time>
      </trkpt>
      <trkpt lat="45.49433" lon="6.7331">
        <ele>2647.4</ele>
        <time>2021-08-15T09:59:49Z</time>
      </trkpt>
      <trkpt lat="45.49434" lon="6.7331">
        <ele>2647.3</ele>
        <time>2021-08-15T09:59:50Z</time>
      </trkpt>
      <trkpt lat="45.49435" lon="6.7331">
        <ele>2647.2</ele>
        <time>2021-08-15T09:59:51Z</time>
      </trkpt>
      <trkpt lat="45.49435" lon="6.7331">
        <ele>2647.1</ele>
        <time>2021-08-15T09:59:52Z</time>
      </trkpt>
      <trkpt lat="45.49436" lon="6.73309">
        <ele>2647.1</ele>
        <time>2021-08-15T09:59:53Z</time>
      </trkpt>
      <trkpt lat="45.49437" lon="6.73309">
        <ele>2647</ele>
        <time>2021-08-15T09:59:54Z</time>
      </trkpt>
      <trkpt lat="45.49438" lon="6.73309">
        <ele>2646.9</ele>
        <time>2021-08-15T09:59:55Z</time>
      </trkpt>
      <trkpt lat="45.49439" lon="6.73309">
        <ele>2646.8</ele>
        <time>2021-08-15T09:59:56Z</time>
      </trkpt>
      <trkpt lat="45.49439" lon="6.73309">
        <ele>2646.7</ele>
        <time>2021-08-15T09:59:57Z</time>
      </trkpt>
      <trkpt lat="45.4944" lon="6.73308">
        <ele>2646.6</ele>
        <time>2021-08-15T09:59:58Z</time>
      </trkpt>
      <trkpt lat="45.49441" lon="6.73308">
        <ele>2646.5</ele>
        <time>2021-08-15T09:59:59Z</time>
      </trkpt>
      <trkpt lat="45.49442" lon="6.73308">
        <ele>2646.4</ele>
        <time>2021-08-15T10:00:00Z</time>
      </trkpt>
      <trkpt lat="45.49442" lon="6.73308">
        <ele>2646.3</ele>
        <time>2021-08-15T10:00:01Z</time>
      </trkpt>
      <trkpt lat="45.49443" lon="6.73308">
        <ele>2646.2</ele>
        <time>2021-08-15T10:00:02Z</time>
      </trkpt>
      <trkpt lat="45.49444" lon="6.73308">
        <ele>2646.1</ele>
        <time>2021-08-15T10:00:03Z</time>
      </trkpt>
      <trkpt lat="45.49445" lon="6.73308">
        <ele>2646</ele>
        <time>2021-08-15T10:00:04Z</time>
      </trkpt>
      <trkpt lat="45.49445" lon="6.73308">
        <ele>2646</ele>
        <time>2021-08-15T10:00:05Z</time>
      </trkpt>
      <trkpt lat="45.49446" lon="6.73308">
        <ele>2645.9</ele>
        <time>2021-08-15T10:00:06Z</time>
      </trkpt>
      <trkpt lat="45.49447" lon="6.73308">
        <ele>2645.8</ele>
        <time>2021-08-15T10:00:07Z</time>
      </trkpt>
      <trkpt lat="45.49448" lon="6.73308">
        <ele>2645.7</ele>
        <time>2021-08-15T10:00:08Z</time>
      </trkpt>
      <trkpt lat="45.49448" lon="6.73307">
        <ele>2645.6</ele>
        <time>2021-08-15T10:00:09Z</time>
      </trkpt>
      <trkpt lat="45.49449" lon="6.73307">
        <ele>2645.5</ele>
        <time>2021-08-15T10:00:10Z</time>
      </trkpt>
      <trkpt lat="45.4945" lon="6.73307">
        <ele>2645.4</ele>
        <time>2021-08-15T10:00:11Z</time>
      </trkpt>
      <trkpt lat="45.4945" lon="6.73306">
        <ele>2645.3</ele>
        <time>2021-08-15T10:00:12Z</time>
      </trkpt>
      <trkpt lat="45.49451" lon="6.73306">
        <ele>2645.2</ele>
        <time>2021-08-15T10:00:13Z</time>
      </trkpt>
      <trkpt lat="45.49452" lon="6.73305">
        <ele>2645.2</ele>
        <time>2021-08-15T10:00:14Z</time>
      </trkpt>
      <trkpt lat="45.49452" lon="6.73305">
        <ele>2645.1</ele>
        <time>2021-08-15T10:00:15Z</time>
      </trkpt>
      <trkpt lat="45.49453" lon="6.73304">
        <ele>2645</ele>
        <time>2021-08-15T10:00:16Z</time>
      </trkpt>
      <trkpt lat="45.49454" lon="6.73304">
        <ele>2644.9</ele>
        <time>2021-08-15T10:00:17Z</time>
      </trkpt>
      <trkpt lat="45.49454" lon="6.73303">
        <ele>2644.8</ele>
        <time>2021-08-15T10:00:18Z</time>
      </trkpt>
      <trkpt lat="45.49455" lon="6.73302">
        <ele>2644.6</ele>
        <time>2021-08-15T10:00:19Z</time>
      </trkpt>
      <trkpt lat="45.49456" lon="6.73302">
        <ele>2644.5</ele>
        <time>2021-08-15T10:00:20Z</time>
      </trkpt>
      <trkpt lat="45.49456" lon="6.73301">
        <ele>2644.4</ele>
        <time>2021-08-15T10:00:21Z</time>
      </trkpt>
      <trkpt lat="45.49457" lon="6.733">
        <ele>2644.3</ele>
        <time>2021-08-15T10:00:22Z</time>
      </trkpt>
      <trkpt lat="45.49458" lon="6.73299">
        <ele>2644.2</ele>
        <time>2021-08-15T10:00:23Z</time>
      </trkpt>
      <trkpt lat="45.49458" lon="6.73299">
        <ele>2644.1</ele>
        <time>2021-08-15T10:00:24Z</time>
      </trkpt>
      <trkpt lat="45.49459" lon="6.73298">
        <ele>2644</ele>
        <time>2021-08-15T10:00:25Z</time>
      </trkpt>
      <trkpt lat="45.4946" lon="6.73297">
        <ele>2643.9</ele>
        <time>2021-08-15T10:00:26Z</time>
      </trkpt>
      <trkpt lat="45.4946" lon="6.73297">
        <ele>2643.8</ele>
        <time>2021-08-15T10:00:27Z</time>
      </trkpt>
      <trkpt lat="45.49461" lon="6.73296">
        <ele>2643.7</ele>
        <time>2021-08-15T10:00:28Z</time>
      </trkpt>
      <trkpt lat="45.49462" lon="6.73295">
        <ele>2643.6</ele>
        <time>2021-08-15T10:00:29Z</time>
      </trkpt>
      <trkpt lat="45.49462" lon="6.73294">
        <ele>2643.5</ele>
        <time>2021-08-15T10:00:30Z</time>
      </trkpt>
      <trkpt lat="45.49463" lon="6.73294">
        <ele>2643.4</ele>
        <time>2021-08-15T10:00:31Z</time>
      </trkpt>
      <trkpt lat="45.49464" lon="6.73293">
        <ele>2643.3</ele>
        <time>2021-08-15T10:00:32Z</time>
      </trkpt>
      <trkpt lat="45.49465" lon="6.73293">
        <ele>2643.2</ele>
        <time>2021-08-15T10:00:33Z</time>
      </trkpt>
      <trkpt lat="45.49465" lon="6.73292">
        <ele>2643.1</ele>
        <time>2021-08-15T10:00:34Z</time>
      </trkpt>
      <trkpt lat="45.49466" lon="6.73292">
        <ele>2643</ele>
        <time>2021-08-15T10:00:35Z</time>
      </trkpt>
      <trkpt lat="45.49467" lon="6.73291">
        <ele>2642.8</ele>
        <time>2021-08-15T10:00:36Z</time>
      </trkpt>
      <trkpt lat="45.49468" lon="6.7329">
        <ele>2642.7</ele>
        <time>2021-08-15T10:00:37Z</time>
      </trkpt>
      <trkpt lat="45.49469" lon="6.7329">
        <ele>2642.6</ele>
        <time>2021-08-15T10:00:38Z</time>
      </trkpt>
      <trkpt lat="45.49469" lon="6.73289">
        <ele>2642.5</ele>
        <time>2021-08-15T10:00:39Z</time>
      </trkpt>
      <trkpt lat="45.4947" lon="6.73289">
        <ele>2642.4</ele>
        <time>2021-08-15T10:00:40Z</time>
      </trkpt>
      <trkpt lat="45.49471" lon="6.73289">
        <ele>2642.3</ele>
        <time>2021-08-15T10:00:41Z</time>
      </trkpt>
      <trkpt lat="45.49472" lon="6.73288">
        <ele>2642.2</ele>
        <time>2021-08-15T10:00:42Z</time>
      </trkpt>
      <trkpt lat="45.49473" lon="6.73288">
        <ele>2642.1</ele>
        <time>2021-08-15T10:00:43Z</time>
      </trkpt>
      <trkpt lat="45.49473" lon="6.73287">
        <ele>2642</ele>
        <time>2021-08-15T10:00:44Z</time>
      </trkpt>
      <trkpt lat="45.49474" lon="6.73287">
        <ele>2641.9</ele>
        <time>2021-08-15T10:00:45Z</time>
      </trkpt>
      <trkpt lat="45.49475" lon="6.73287">
        <ele>2641.8</ele>
        <time>2021-08-15T10:00:46Z</time>
      </trkpt>
      <trkpt lat="45.49476" lon="6.73286">
        <ele>2641.7</ele>
        <time>2021-08-15T10:00:47Z</time>
      </trkpt>
      <trkpt lat="45.49477" lon="6.73286">
        <ele>2641.6</ele>
        <time>2021-08-15T10:00:48Z</time>
      </trkpt>
      <trkpt lat="45.49477" lon="6.73285">
        <ele>2641.5</ele>
        <time>2021-08-15T10:00:49Z</time>
      </trkpt>
      <trkpt lat="45.49478" lon="6.73285">
        <ele>2641.4</ele>
        <time>2021-08-15T10:00:50Z</time>
      </trkpt>
      <trkpt lat="45.49479" lon="6.73285">
        <ele>2641.3</ele>
        <time>2021-08-15T10:00:51Z</time>
      </trkpt>
      <trkpt lat="45.4948" lon="6.73284">
        <ele>2641.2</ele>
        <time>2021-08-15T10:00:52Z</time>
      </trkpt>
      <trkpt lat="45.49481" lon="6.73284">
        <ele>2641.1</ele>
        <time>2021-08-15T10:00:53Z</time>
      </trkpt>
      <trkpt lat="45.49482" lon="6.73284">
        <ele>2641</ele>
        <time>2021-08-15T10:00:54Z</time>
      </trkpt>
      <trkpt lat="45.49483" lon="6.73283">
        <ele>2640.9</ele>
        <time>2021-08-15T10:00:55Z</time>
      </trkpt>
      <trkpt lat="45.49483" lon="6.73283">
        <ele>2640.8</ele>
        <time>2021-08-15T10:00:56Z</time>
      </trkpt>
      <trkpt lat="45.49484" lon="6.73283">
        <ele>2640.7</ele>
        <time>2021-08-15T10:00:57Z</time>
      </trkpt>
      <trkpt lat="45.49485" lon="6.73283">
        <ele>2640.5</ele>
        <time>2021-08-15T10:00:58Z</time>
      </trkpt>
      <trkpt lat="45.49486" lon="6.73282">
        <ele>2640.5</ele>
        <time>2021-08-15T10:00:59Z</time>
      </trkpt>
      <trkpt lat="45.49487" lon="6.73282">
        <ele>2640.3</ele>
        <time>2021-08-15T10:01:00Z</time>
      </trkpt>
      <trkpt lat="45.49488" lon="6.73282">
        <ele>2640.2</ele>
        <time>2021-08-15T10:01:01Z</time>
      </trkpt>
      <trkpt lat="45.49489" lon="6.73282">
        <ele>2640.1</ele>
        <time>2021-08-15T10:01:02Z</time>
      </trkpt>
      <trkpt lat="45.49489" lon="6.73281">
        <ele>2640</ele>
        <time>2021-08-15T10:01:03Z</time>
      </trkpt>
      <trkpt lat="45.4949" lon="6.73281">
        <ele>2639.9</ele>
        <time>2021-08-15T10:01:04Z</time>
      </trkpt>
      <trkpt lat="45.49491" lon="6.73281">
        <ele>2639.9</ele>
        <time>2021-08-15T10:01:05Z</time>
      </trkpt>
      <trkpt lat="45.49492" lon="6.73281">
        <ele>2639.8</ele>
        <time>2021-08-15T10:01:06Z</time>
      </trkpt>
      <trkpt lat="45.49492" lon="6.73281">
        <ele>2639.7</ele>
        <time>2021-08-15T10:01:07Z</time>
      </trkpt>
      <trkpt lat="45.49493" lon="6.73281">
        <ele>2639.7</ele>
        <time>2021-08-15T10:01:08Z</time>
      </trkpt>
      <trkpt lat="45.49493" lon="6.73281">
        <ele>2639.6</ele>
        <time>2021-08-15T10:01:09Z</time>
      </trkpt>
      <trkpt lat="45.49493" lon="6.73281">
        <ele>2639.6</ele>
        <time>2021-08-15T10:01:10Z</time>
      </trkpt>
      <trkpt lat="45.49493" lon="6.73281">
        <ele>2639.6</ele>
        <time>2021-08-15T10:01:11Z</time>
      </trkpt>
      <trkpt lat="45.49493" lon="6.73281">
        <ele>2639.6</ele>
        <time>2021-08-15T10:01:12Z</time>
      </trkpt>
      <trkpt lat="45.49494" lon="6.73281">
        <ele>2639.5</ele>
        <time>2021-08-15T10:01:13Z</time>
      </trkpt>
      <trkpt lat="45.49494" lon="6.73281">
        <ele>2639.5</ele>
        <time>2021-08-15T10:01:14Z</time>
      </trkpt>
      <trkpt lat="45.49495" lon="6.73281">
        <ele>2639.4</ele>
        <time>2021-08-15T10:01:15Z</time>
      </trkpt>
      <trkpt lat="45.49496" lon="6.7328">
        <ele>2639.3</ele>
        <time>2021-08-15T10:01:16Z</time>
      </trkpt>
      <trkpt lat="45.49497" lon="6.7328">
        <ele>2639.1</ele>
        <time>2021-08-15T10:01:17Z</time>
      </trkpt>
      <trkpt lat="45.49498" lon="6.73279">
        <ele>2639</ele>
        <time>2021-08-15T10:01:18Z</time>
      </trkpt>
      <trkpt lat="45.49499" lon="6.73279">
        <ele>2638.9</ele>
        <time>2021-08-15T10:01:19Z</time>
      </trkpt>
      <trkpt lat="45.495" lon="6.73279">
        <ele>2638.7</ele>
        <time>2021-08-15T10:01:20Z</time>
      </trkpt>
      <trkpt lat="45.49501" lon="6.73278">
        <ele>2638.6</ele>
        <time>2021-08-15T10:01:21Z</time>
      </trkpt>
      <trkpt lat="45.49503" lon="6.73278">
        <ele>2638.4</ele>
        <time>2021-08-15T10:01:22Z</time>
      </trkpt>
      <trkpt lat="45.49504" lon="6.73278">
        <ele>2638.3</ele>
        <time>2021-08-15T10:01:23Z</time>
      </trkpt>
      <trkpt lat="45.49505" lon="6.73277">
        <ele>2638.2</ele>
        <time>2021-08-15T10:01:24Z</time>
      </trkpt>
      <trkpt lat="45.49506" lon="6.73277">
        <ele>2638.1</ele>
        <time>2021-08-15T10:01:25Z</time>
      </trkpt>
      <trkpt lat="45.49507" lon="6.73277">
        <ele>2638</ele>
        <time>2021-08-15T10:01:26Z</time>
      </trkpt>
      <trkpt lat="45.49508" lon="6.73277">
        <ele>2637.8</ele>
        <time>2021-08-15T10:01:27Z</time>
      </trkpt>
      <trkpt lat="45.49509" lon="6.73276">
        <ele>2637.7</ele>
        <time>2021-08-15T10:01:28Z</time>
      </trkpt>
      <trkpt lat="45.4951" lon="6.73276">
        <ele>2637.6</ele>
        <time>2021-08-15T10:01:29Z</time>
      </trkpt>
      <trkpt lat="45.49511" lon="6.73276">
        <ele>2637.5</ele>
        <time>2021-08-15T10:01:30Z</time>
      </trkpt>
      <trkpt lat="45.49511" lon="6.73275">
        <ele>2637.4</ele>
        <time>2021-08-15T10:01:31Z</time>
      </trkpt>
      <trkpt lat="45.49512" lon="6.73275">
        <ele>2637.3</ele>
        <time>2021-08-15T10:01:32Z</time>
      </trkpt>
      <trkpt lat="45.49513" lon="6.73275">
        <ele>2637.2</ele>
        <time>2021-08-15T10:01:33Z</time>
      </trkpt>
      <trkpt lat="45.49514" lon="6.73274">
        <ele>2637</ele>
        <time>2021-08-15T10:01:34Z</time>
      </trkpt>
      <trkpt lat="45.49515" lon="6.73274">
        <ele>2636.9</ele>
        <time>2021-08-15T10:01:35Z</time>
      </trkpt>
      <trkpt lat="45.49516" lon="6.73274">
        <ele>2636.8</ele>
        <time>2021-08-15T10:01:36Z</time>
      </trkpt>
      <trkpt lat="45.49517" lon="6.73273">
        <ele>2636.7</ele>
        <time>2021-08-15T10:01:37Z</time>
      </trkpt>
      <trkpt lat="45.49518" lon="6.73273">
        <ele>2636.6</ele>
        <time>2021-08-15T10:01:38Z</time>
      </trkpt>
      <trkpt lat="45.49519" lon="6.73273">
        <ele>2636.5</ele>
        <time>2021-08-15T10:01:39Z</time>
      </trkpt>
      <trkpt lat="45.49519" lon="6.73272">
        <ele>2636.4</ele>
        <time>2021-08-15T10:01:40Z</time>
      </trkpt>
      <trkpt lat="45.4952" lon="6.73272">
        <ele>2636.3</ele>
        <time>2021-08-15T10:01:41Z</time>
      </trkpt>
      <trkpt lat="45.49521" lon="6.73272">
        <ele>2636.2</ele>
        <time>2021-08-15T10:01:42Z</time>
      </trkpt>
      <trkpt lat="45.49522" lon="6.73271">
        <ele>2636.1</ele>
        <time>2021-08-15T10:01:43Z</time>
      </trkpt>
      <trkpt lat="45.49523" lon="6.73271">
        <ele>2636</ele>
        <time>2021-08-15T10:01:44Z</time>
      </trkpt>
      <trkpt lat="45.49524" lon="6.73271">
        <ele>2635.9</ele>
        <time>2021-08-15T10:01:45Z</time>
      </trkpt>
      <trkpt lat="45.49525" lon="6.73271">
        <ele>2635.8</ele>
        <time>2021-08-15T10:01:46Z</time>
      </trkpt>
      <trkpt lat="45.49526" lon="6.73271">
        <ele>2635.7</ele>
        <time>2021-08-15T10:01:47Z</time>
      </trkpt>
      <trkpt lat="45.49527" lon="6.73271">
        <ele>2635.6</ele>
        <time>2021-08-15T10:01:48Z</time>
      </trkpt>
      <trkpt lat="45.49528" lon="6.73271">
        <ele>2635.5</ele>
        <time>2021-08-15T10:01:49Z</time>
      </trkpt>
      <trkpt lat="45.49528" lon="6.73271">
        <ele>2635.4</ele>
        <time>2021-08-15T10:01:50Z</time>
      </trkpt>
      <trkpt lat="45.49529" lon="6.73271">
        <ele>2635.3</ele>
        <time>2021-08-15T10:01:51Z</time>
      </trkpt>
      <trkpt lat="45.4953" lon="6.73271">
        <ele>2635.2</ele>
        <time>2021-08-15T10:01:52Z</time>
      </trkpt>
      <trkpt lat="45.49531" lon="6.73271">
        <ele>2635.1</ele>
        <time>2021-08-15T10:01:53Z</time>
      </trkpt>
      <trkpt lat="45.49532" lon="6.73271">
        <ele>2635</ele>
        <time>2021-08-15T10:01:54Z</time>
      </trkpt>
      <trkpt lat="45.49533" lon="6.73271">
        <ele>2634.9</ele>
        <time>2021-08-15T10:01:55Z</time>
      </trkpt>
      <trkpt lat="45.49533" lon="6.73271">
        <ele>2634.9</ele>
        <time>2021-08-15T10:01:56Z</time>
      </trkpt>
      <trkpt lat="45.49534" lon="6.73271">
        <ele>2634.8</ele>
        <time>2021-08-15T10:01:57Z</time>
      </trkpt>
      <trkpt lat="45.49534" lon="6.73271">
        <ele>2634.8</ele>
        <time>2021-08-15T10:01:58Z</time>
      </trkpt>
      <trkpt lat="45.49534" lon="6.73271">
        <ele>2634.8</ele>
        <time>2021-08-15T10:01:59Z</time>
      </trkpt>
      <trkpt lat="45.49534" lon="6.73271">
        <ele>2634.8</ele>
        <time>2021-08-15T10:02:00Z</time>
      </trkpt>
      <trkpt lat="45.49534" lon="6.73271">
        <ele>2634.7</ele>
        <time>2021-08-15T10:02:01Z</time>
      </trkpt>
      <trkpt lat="45.49534" lon="6.73271">
        <ele>2634.7</ele>
        <time>2021-08-15T10:02:02Z</time>
      </trkpt>
      <trkpt lat="45.49534" lon="6.73271">
        <ele>2634.7</ele>
        <time>2021-08-15T10:02:03Z</time>
      </trkpt>
      <trkpt lat="45.49534" lon="6.73271">
        <ele>2634.7</ele>
        <time>2021-08-15T10:02:04Z</time>
      </trkpt>
      <trkpt lat="45.49535" lon="6.7327">
        <ele>2634.6</ele>
        <time>2021-08-15T10:02:05Z</time>
      </trkpt>
      <trkpt lat="45.49536" lon="6.7327">
        <ele>2634.6</ele>
        <time>2021-08-15T10:02:06Z</time>
      </trkpt>
      <trkpt lat="45.49536" lon="6.7327">
        <ele>2634.5</ele>
        <time>2021-08-15T10:02:07Z</time>
      </trkpt>
      <trkpt lat="45.49537" lon="6.73269">
        <ele>2634.4</ele>
        <time>2021-08-15T10:02:08Z</time>
      </trkpt>
      <trkpt lat="45.49538" lon="6.73269">
        <ele>2634.2</ele>
        <time>2021-08-15T10:02:09Z</time>
      </trkpt>
      <trkpt lat="45.49539" lon="6.73269">
        <ele>2634.1</ele>
        <time>2021-08-15T10:02:10Z</time>
      </trkpt>
      <trkpt lat="45.4954" lon="6.73269">
        <ele>2634</ele>
        <time>2021-08-15T10:02:11Z</time>
      </trkpt>
      <trkpt lat="45.49541" lon="6.73268">
        <ele>2634</ele>
        <time>2021-08-15T10:02:12Z</time>
      </trkpt>
      <trkpt lat="45.49542" lon="6.73268">
        <ele>2633.9</ele>
        <time>2021-08-15T10:02:13Z</time>
      </trkpt>
      <trkpt lat="45.49543" lon="6.73268">
        <ele>2633.8</ele>
        <time>2021-08-15T10:02:14Z</time>
      </trkpt>
      <trkpt lat="45.49544" lon="6.73268">
        <ele>2633.7</ele>
        <time>2021-08-15T10:02:15Z</time>
      </trkpt>
      <trkpt lat="45.49545" lon="6.73268">
        <ele>2633.6</ele>
        <time>2021-08-15T10:02:16Z</time>
      </trkpt>
      <trkpt lat="45.49545" lon="6.73268">
        <ele>2633.5</ele>
        <time>2021-08-15T10:02:17Z</time>
      </trkpt>
      <trkpt lat="45.49546" lon="6.73267">
        <ele>2633.3</ele>
        <time>2021-08-15T10:02:18Z</time>
      </trkpt>
      <trkpt lat="45.49547" lon="6.73267">
        <ele>2633.2</ele>
        <time>2021-08-15T10:02:19Z</time>
      </trkpt>
      <trkpt lat="45.49548" lon="6.73267">
        <ele>2633.1</ele>
        <time>2021-08-15T10:02:20Z</time>
      </trkpt>
      <trkpt lat="45.49549" lon="6.73267">
        <ele>2633</ele>
        <time>2021-08-15T10:02:21Z</time>
      </trkpt>
      <trkpt lat="45.4955" lon="6.73267">
        <ele>2632.9</ele>
        <time>2021-08-15T10:02:22Z</time>
      </trkpt>
      <trkpt lat="45.49551" lon="6.73267">
        <ele>2632.8</ele>
        <time>2021-08-15T10:02:23Z</time>
      </trkpt>
      <trkpt lat="45.49552" lon="6.73267">
        <ele>2632.7</ele>
        <time>2021-08-15T10:02:24Z</time>
      </trkpt>
      <trkpt lat="45.49553" lon="6.73266">
        <ele>2632.5</ele>
        <time>2021-08-15T10:02:25Z</time>
      </trkpt>
      <trkpt lat="45.49554" lon="6.73266">
        <ele>2632.4</ele>
        <time>2021-08-15T10:02:26Z</time>
      </trkpt>
      <trkpt lat="45.49555" lon="6.73266">
        <ele>2632.3</ele>
        <time>2021-08-15T10:02:27Z</time>
      </trkpt>
      <trkpt lat="45.49556" lon="6.73266">
        <ele>2632.2</ele>
        <time>2021-08-15T10:02:28Z</time>
      </trkpt>
      <trkpt lat="45.49557" lon="6.73266">
        <ele>2632.1</ele>
        <time>2021-08-15T10:02:29Z</time>
      </trkpt>
      <trkpt lat="45.49558" lon="6.73266">
        <ele>2631.9</ele>
        <time>2021-08-15T10:02:30Z</time>
      </trkpt>
      <trkpt lat="45.49559" lon="6.73266">
        <ele>2631.8</ele>
        <time>2021-08-15T10:02:31Z</time>
      </trkpt>
      <trkpt lat="45.4956" lon="6.73266">
        <ele>2631.7</ele>
        <time>2021-08-15T10:02:32Z</time>
      </trkpt>
      <trkpt lat="45.49561" lon="6.73266">
        <ele>2631.5</ele>
        <time>2021-08-15T10:02:33Z</time>
      </trkpt>
      <trkpt lat="45.49562" lon="6.73266">
        <ele>2631.4</ele>
        <time>2021-08-15T10:02:34Z</time>
      </trkpt>
      <trkpt lat="45.49563" lon="6.73266">
        <ele>2631.2</ele>
        <time>2021-08-15T10:02:35Z</time>
      </trkpt>
      <trkpt lat="45.49564" lon="6.73266">
        <ele>2631.1</ele>
        <time>2021-08-15T10:02:36Z</time>
      </trkpt>
      <trkpt lat="45.49565" lon="6.73266">
        <ele>2631</ele>
        <time>2021-08-15T10:02:37Z</time>
      </trkpt>
      <trkpt lat="45.49566" lon="6.73266">
        <ele>2630.9</ele>
        <time>2021-08-15T10:02:38Z</time>
      </trkpt>
      <trkpt lat="45.49566" lon="6.73266">
        <ele>2630.8</ele>
        <time>2021-08-15T10:02:39Z</time>
      </trkpt>
      <trkpt lat="45.49567" lon="6.73266">
        <ele>2630.7</ele>
        <time>2021-08-15T10:02:40Z</time>
      </trkpt>
      <trkpt lat="45.49567" lon="6.73266">
        <ele>2630.7</ele>
        <time>2021-08-15T10:02:41Z</time>
      </trkpt>
      <trkpt lat="45.49568" lon="6.73266">
        <ele>2630.6</ele>
        <time>2021-08-15T10:02:42Z</time>
      </trkpt>
      <trkpt lat="45.49568" lon="6.73266">
        <ele>2630.6</ele>
        <time>2021-08-15T10:02:43Z</time>
      </trkpt>
      <trkpt lat="45.49568" lon="6.73266">
        <ele>2630.5</ele>
        <time>2021-08-15T10:02:44Z</time>
      </trkpt>
      <trkpt lat="45.49569" lon="6.73266">
        <ele>2630.5</ele>
        <time>2021-08-15T10:02:45Z</time>
      </trkpt>
      <trkpt lat="45.49569" lon="6.73266">
        <ele>2630.4</ele>
        <time>2021-08-15T10:02:46Z</time>
      </trkpt>
      <trkpt lat="45.4957" lon="6.73266">
        <ele>2630.4</ele>
        <time>2021-08-15T10:02:47Z</time>
      </trkpt>
      <trkpt lat="45.4957" lon="6.73266">
        <ele>2630.3</ele>
        <time>2021-08-15T10:02:48Z</time>
      </trkpt>
      <trkpt lat="45.49571" lon="6.73266">
        <ele>2630.2</ele>
        <time>2021-08-15T10:02:49Z</time>
      </trkpt>
      <trkpt lat="45.49572" lon="6.73266">
        <ele>2630.1</ele>
        <time>2021-08-15T10:02:50Z</time>
      </trkpt>
      <trkpt lat="45.49572" lon="6.73266">
        <ele>2630</ele>
        <time>2021-08-15T10:02:51Z</time>
      </trkpt>
      <trkpt lat="45.49573" lon="6.73266">
        <ele>2629.8</ele>
        <time>2021-08-15T10:02:52Z</time>
      </trkpt>
      <trkpt lat="45.49574" lon="6.73266">
        <ele>2629.7</ele>
        <time>2021-08-15T10:02:53Z</time>
      </trkpt>
      <trkpt lat="45.49575" lon="6.73266">
        <ele>2629.6</ele>
        <time>2021-08-15T10:02:54Z</time>
      </trkpt>
      <trkpt lat="45.49576" lon="6.73266">
        <ele>2629.5</ele>
        <time>2021-08-15T10:02:55Z</time>
      </trkpt>
      <trkpt lat="45.49577" lon="6.73266">
        <ele>2629.3</ele>
        <time>2021-08-15T10:02:56Z</time>
      </trkpt>
      <trkpt lat="45.49578" lon="6.73266">
        <ele>2629.2</ele>
        <time>2021-08-15T10:02:57Z</time>
      </trkpt>
      <trkpt lat="45.49579" lon="6.73266">
        <ele>2629.1</ele>
        <time>2021-08-15T10:02:58Z</time>
      </trkpt>
      <trkpt lat="45.4958" lon="6.73266">
        <ele>2628.9</ele>
        <time>2021-08-15T10:02:59Z</time>
      </trkpt>
      <trkpt lat="45.49581" lon="6.73267">
        <ele>2628.8</ele>
        <time>2021-08-15T10:03:00Z</time>
      </trkpt>
      <trkpt lat="45.49582" lon="6.73267">
        <ele>2628.7</ele>
        <time>2021-08-15T10:03:01Z</time>
      </trkpt>
      <trkpt lat="45.49583" lon="6.73267">
        <ele>2628.6</ele>
        <time>2021-08-15T10:03:02Z</time>
      </trkpt>
      <trkpt lat="45.49584" lon="6.73268">
        <ele>2628.5</ele>
        <time>2021-08-15T10:03:03Z</time>
      </trkpt>
      <trkpt lat="45.49584" lon="6.73268">
        <ele>2628.3</ele>
        <time>2021-08-15T10:03:04Z</time>
      </trkpt>
      <trkpt lat="45.49585" lon="6.73269">
        <ele>2628.2</ele>
        <time>2021-08-15T10:03:05Z</time>
      </trkpt>
      <trkpt lat="45.49586" lon="6.73269">
        <ele>2628.1</ele>
        <time>2021-08-15T10:03:06Z</time>
      </trkpt>
      <trkpt lat="45.49587" lon="6.73269">
        <ele>2628</ele>
        <time>2021-08-15T10:03:07Z</time>
      </trkpt>
      <trkpt lat="45.49588" lon="6.73269">
        <ele>2627.9</ele>
        <time>2021-08-15T10:03:08Z</time>
      </trkpt>
      <trkpt lat="45.49588" lon="6.7327">
        <ele>2627.8</ele>
        <time>2021-08-15T10:03:09Z</time>
      </trkpt>
      <trkpt lat="45.49589" lon="6.7327">
        <ele>2627.7</ele>
        <time>2021-08-15T10:03:10Z</time>
      </trkpt>
      <trkpt lat="45.4959" lon="6.7327">
        <ele>2627.6</ele>
        <time>2021-08-15T10:03:11Z</time>
      </trkpt>
      <trkpt lat="45.49591" lon="6.7327">
        <ele>2627.5</ele>
        <time>2021-08-15T10:03:12Z</time>
      </trkpt>
      <trkpt lat="45.49592" lon="6.7327">
        <ele>2627.4</ele>
        <time>2021-08-15T10:03:13Z</time>
      </trkpt>
      <trkpt lat="45.49593" lon="6.7327">
        <ele>2627.3</ele>
        <time>2021-08-15T10:03:14Z</time>
      </trkpt>
      <trkpt lat="45.49594" lon="6.7327">
        <ele>2627.2</ele>
        <time>2021-08-15T10:03:15Z</time>
      </trkpt>
      <trkpt lat="45.49594" lon="6.7327">
        <ele>2627</ele>
        <time>2021-08-15T10:03:16Z</time>
      </trkpt>
      <trkpt lat="45.49595" lon="6.7327">
        <ele>2626.9</ele>
        <time>2021-08-15T10:03:17Z</time>
      </trkpt>
      <trkpt lat="45.49596" lon="6.7327">
        <ele>2626.8</ele>
        <time>2021-08-15T10:03:18Z</time>
      </trkpt>
      <trkpt lat="45.49597" lon="6.7327">
        <ele>2626.7</ele>
        <time>2021-08-15T10:03:19Z</time>
      </trkpt>
      <trkpt lat="45.49598" lon="6.73271">
        <ele>2626.6</ele>
        <time>2021-08-15T10:03:20Z</time>
      </trkpt>
      <trkpt lat="45.49598" lon="6.73271">
        <ele>2626.5</ele>
        <time>2021-08-15T10:03:21Z</time>
      </trkpt>
      <trkpt lat="45.49599" lon="6.73271">
        <ele>2626.4</ele>
        <time>2021-08-15T10:03:22Z</time>
      </trkpt>
      <trkpt lat="45.496" lon="6.73271">
        <ele>2626.3</ele>
        <time>2021-08-15T10:03:23Z</time>
      </trkpt>
      <trkpt lat="45.49601" lon="6.73272">
        <ele>2626.2</ele>
        <time>2021-08-15T10:03:24Z</time>
      </trkpt>
      <trkpt lat="45.49602" lon="6.73272">
        <ele>2626.1</ele>
        <time>2021-08-15T10:03:25Z</time>
      </trkpt>
      <trkpt lat="45.49602" lon="6.73272">
        <ele>2626</ele>
        <time>2021-08-15T10:03:26Z</time>
      </trkpt>
      <trkpt lat="45.49603" lon="6.73272">
        <ele>2625.9</ele>
        <time>2021-08-15T10:03:27Z</time>
      </trkpt>
      <trkpt lat="45.49604" lon="6.73272">
        <ele>2625.8</ele>
        <time>2021-08-15T10:03:28Z</time>
      </trkpt>
      <trkpt lat="45.49605" lon="6.73272">
        <ele>2625.7</ele>
        <time>2021-08-15T10:03:29Z</time>
      </trkpt>
      <trkpt lat="45.49606" lon="6.73272">
        <ele>2625.6</ele>
        <time>2021-08-15T10:03:30Z</time>
      </trkpt>
      <trkpt lat="45.49607" lon="6.73271">
        <ele>2625.5</ele>
        <time>2021-08-15T10:03:31Z</time>
      </trkpt>
      <trkpt lat="45.49608" lon="6.73271">
        <ele>2625.4</ele>
        <time>2021-08-15T10:03:32Z</time>
      </trkpt>
      <trkpt lat="45.49608" lon="6.73271">
        <ele>2625.3</ele>
        <time>2021-08-15T10:03:33Z</time>
      </trkpt>
      <trkpt lat="45.49609" lon="6.73271">
        <ele>2625.2</ele>
        <time>2021-08-15T10:03:34Z</time>
      </trkpt>
      <trkpt lat="45.4961" lon="6.73272">
        <ele>2625.1</ele>
        <time>2021-08-15T10:03:35Z</time>
      </trkpt>
      <trkpt lat="45.49611" lon="6.73272">
        <ele>2625</ele>
        <time>2021-08-15T10:03:36Z</time>
      </trkpt>
      <trkpt lat="45.49611" lon="6.73273">
        <ele>2624.9</ele>
        <time>2021-08-15T10:03:37Z</time>
      </trkpt>
      <trkpt lat="45.49612" lon="6.73274">
        <ele>2624.8</ele>
        <time>2021-08-15T10:03:38Z</time>
      </trkpt>
      <trkpt lat="45.49612" lon="6.73275">
        <ele>2624.7</ele>
        <time>2021-08-15T10:03:39Z</time>
      </trkpt>
      <trkpt lat="45.49613" lon="6.73276">
        <ele>2624.6</ele>
        <time>2021-08-15T10:03:40Z</time>
      </trkpt>
      <trkpt lat="45.49614" lon="6.73276">
        <ele>2624.5</ele>
        <time>2021-08-15T10:03:41Z</time>
      </trkpt>
      <trkpt lat="45.49614" lon="6.73276">
        <ele>2624.4</ele>
        <time>2021-08-15T10:03:42Z</time>
      </trkpt>
      <trkpt lat="45.49615" lon="6.73276">
        <ele>2624.3</ele>
        <time>2021-08-15T10:03:43Z</time>
      </trkpt>
      <trkpt lat="45.49616" lon="6.73276">
        <ele>2624.2</ele>
        <time>2021-08-15T10:03:44Z</time>
      </trkpt>
      <trkpt lat="45.49617" lon="6.73276">
        <ele>2624</ele>
        <time>2021-08-15T10:03:45Z</time>
      </trkpt>
      <trkpt lat="45.49618" lon="6.73277">
        <ele>2623.9</ele>
        <time>2021-08-15T10:03:46Z</time>
      </trkpt>
      <trkpt lat="45.49619" lon="6.73277">
        <ele>2623.8</ele>
        <time>2021-08-15T10:03:47Z</time>
      </trkpt>
      <trkpt lat="45.4962" lon="6.73278">
        <ele>2623.6</ele>
        <time>2021-08-15T10:03:48Z</time>
      </trkpt>
      <trkpt lat="45.49621" lon="6.73278">
        <ele>2623.5</ele>
        <time>2021-08-15T10:03:49Z</time>
      </trkpt>
      <trkpt lat="45.49622" lon="6.73278">
        <ele>2623.3</ele>
        <time>2021-08-15T10:03:50Z</time>
      </trkpt>
      <trkpt lat="45.49623" lon="6.73279">
        <ele>2623.2</ele>
        <time>2021-08-15T10:03:51Z</time>
      </trkpt>
      <trkpt lat="45.49623" lon="6.73279">
        <ele>2623.1</ele>
        <time>2021-08-15T10:03:52Z</time>
      </trkpt>
      <trkpt lat="45.49624" lon="6.73278">
        <ele>2623</ele>
        <time>2021-08-15T10:03:53Z</time>
      </trkpt>
      <trkpt lat="45.49625" lon="6.73278">
        <ele>2622.8</ele>
        <time>2021-08-15T10:03:54Z</time>
      </trkpt>
      <trkpt lat="45.49625" lon="6.73277">
        <ele>2622.7</ele>
        <time>2021-08-15T10:03:55Z</time>
      </trkpt>
      <trkpt lat="45.49626" lon="6.73277">
        <ele>2622.6</ele>
        <time>2021-08-15T10:03:56Z</time>
      </trkpt>
      <trkpt lat="45.49626" lon="6.73276">
        <ele>2622.5</ele>
        <time>2021-08-15T10:03:57Z</time>
      </trkpt>
      <trkpt lat="45.49627" lon="6.73276">
        <ele>2622.4</ele>
        <time>2021-08-15T10:03:58Z</time>
      </trkpt>
      <trkpt lat="45.49627" lon="6.73275">
        <ele>2622.3</ele>
        <time>2021-08-15T10:03:59Z</time>
      </trkpt>
      <trkpt lat="45.49627" lon="6.73275">
        <ele>2622.2</ele>
        <time>2021-08-15T10:04:00Z</time>
      </trkpt>
      <trkpt lat="45.49628" lon="6.73274">
        <ele>2622.1</ele>
        <time>2021-08-15T10:04:01Z</time>
      </trkpt>
      <trkpt lat="45.49628" lon="6.73274">
        <ele>2622.1</ele>
        <time>2021-08-15T10:04:02Z</time>
      </trkpt>
      <trkpt lat="45.49629" lon="6.73274">
        <ele>2622</ele>
        <time>2021-08-15T10:04:03Z</time>
      </trkpt>
      <trkpt lat="45.49629" lon="6.73274">
        <ele>2621.9</ele>
        <time>2021-08-15T10:04:04Z</time>
      </trkpt>
      <trkpt lat="45.49629" lon="6.73273">
        <ele>2621.9</ele>
        <time>2021-08-15T10:04:05Z</time>
      </trkpt>
      <trkpt lat="45.4963" lon="6.73273">
        <ele>2621.8</ele>
        <time>2021-08-15T10:04:06Z</time>
      </trkpt>
      <trkpt lat="45.4963" lon="6.73273">
        <ele>2621.8</ele>
        <time>2021-08-15T10:04:07Z</time>
      </trkpt>
      <trkpt lat="45.4963" lon="6.73273">
        <ele>2621.8</ele>
        <time>2021-08-15T10:04:08Z</time>
      </trkpt>
      <trkpt lat="45.4963" lon="6.73273">
        <ele>2621.8</ele>
        <time>2021-08-15T10:04:09Z</time>
      </trkpt>
      <trkpt lat="45.4963" lon="6.73273">
        <ele>2621.8</ele>
        <time>2021-08-15T10:04:10Z</time>
      </trkpt>
      <trkpt lat="45.4963" lon="6.73274">
        <ele>2621.7</ele>
        <time>2021-08-15T10:04:11Z</time>
      </trkpt>
      <trkpt lat="45.49629" lon="6.73274">
        <ele>2621.7</ele>
        <time>2021-08-15T10:04:12Z</time>
      </trkpt>
      <trkpt lat="45.49629" lon="6.73274">
        <ele>2621.7</ele>
        <time>2021-08-15T10:04:13Z</time>
      </trkpt>
      <trkpt lat="45.49629" lon="6.73274">
        <ele>2621.7</ele>
        <time>2021-08-15T10:04:14Z</time>
      </trkpt>
      <trkpt lat="45.49629" lon="6.73274">
        <ele>2621.7</ele>
        <time>2021-08-15T10:04:15Z</time>
      </trkpt>
      <trkpt lat="45.49629" lon="6.73274">
        <ele>2621.7</ele>
        <time>2021-08-15T10:04:16Z</time>
      </trkpt>
      <trkpt lat="45.49629" lon="6.73274">
        <ele>2621.7</ele>
        <time>2021-08-15T10:04:17Z</time>
      </trkpt>
      <trkpt lat="45.49629" lon="6.73273">
        <ele>2621.6</ele>
        <time>2021-08-15T10:04:18Z</time>
      </trkpt>
      <trkpt lat="45.4963" lon="6.73273">
        <ele>2621.6</ele>
        <time>2021-08-15T10:04:19Z</time>
      </trkpt>
      <trkpt lat="45.4963" lon="6.73273">
        <ele>2621.5</ele>
        <time>2021-08-15T10:04:20Z</time>
      </trkpt>
      <trkpt lat="45.4963" lon="6.73273">
        <ele>2621.5</ele>
        <time>2021-08-15T10:04:21Z</time>
      </trkpt>
      <trkpt lat="45.4963" lon="6.73272">
        <ele>2621.4</ele>
        <time>2021-08-15T10:04:22Z</time>
      </trkpt>
      <trkpt lat="45.49631" lon="6.73272">
        <ele>2621.3</ele>
        <time>2021-08-15T10:04:23Z</time>
      </trkpt>
      <trkpt lat="45.49631" lon="6.73271">
        <ele>2621.2</ele>
        <time>2021-08-15T10:04:24Z</time>
      </trkpt>
      <trkpt lat="45.49631" lon="6.7327">
        <ele>2621.1</ele>
        <time>2021-08-15T10:04:25Z</time>
      </trkpt>
      <trkpt lat="45.49632" lon="6.73269">
        <ele>2621</ele>
        <time>2021-08-15T10:04:26Z</time>
      </trkpt>
      <trkpt lat="45.49632" lon="6.73269">
        <ele>2620.9</ele>
        <time>2021-08-15T10:04:27Z</time>
      </trkpt>
      <trkpt lat="45.49632" lon="6.73268">
        <ele>2620.7</ele>
        <time>2021-08-15T10:04:28Z</time>
      </trkpt>
      <trkpt lat="45.49632" lon="6.73267">
        <ele>2620.6</ele>
        <time>2021-08-15T10:04:29Z</time>
      </trkpt>
      <trkpt lat="45.49632" lon="6.73265">
        <ele>2620.4</ele>
        <time>2021-08-15T10:04:30Z</time>
      </trkpt>
      <trkpt lat="45.49632" lon="6.73264">
        <ele>2620.2</ele>
        <time>2021-08-15T10:04:31Z</time>
      </trkpt>
      <trkpt lat="45.49632" lon="6.73263">
        <ele>2620.1</ele>
        <time>2021-08-15T10:04:32Z</time>
      </trkpt>
      <trkpt lat="45.49632" lon="6.73262">
        <ele>2619.9</ele>
        <time>2021-08-15T10:04:33Z</time>
      </trkpt>
      <trkpt lat="45.49632" lon="6.73261">
        <ele>2619.7</ele>
        <time>2021-08-15T10:04:34Z</time>
      </trkpt>
      <trkpt lat="45.49631" lon="6.7326">
        <ele>2619.6</ele>
        <time>2021-08-15T10:04:35Z</time>
      </trkpt>
      <trkpt lat="45.49631" lon="6.73259">
        <ele>2619.4</ele>
        <time>2021-08-15T10:04:36Z</time>
      </trkpt>
      <trkpt lat="45.49631" lon="6.73258">
        <ele>2619.3</ele>
        <time>2021-08-15T10:04:37Z</time>
      </trkpt>
      <trkpt lat="45.4963" lon="6.73257">
        <ele>2619.1</ele>
        <time>2021-08-15T10:04:38Z</time>
      </trkpt>
      <trkpt lat="45.4963" lon="6.73256">
        <ele>2619</ele>
        <time>2021-08-15T10:04:39Z</time>
      </trkpt>
      <trkpt lat="45.49629" lon="6.73255">
        <ele>2618.9</ele>
        <time>2021-08-15T10:04:40Z</time>
      </trkpt>
      <trkpt lat="45.49629" lon="6.73255">
        <ele>2618.7</ele>
        <time>2021-08-15T10:04:41Z</time>
      </trkpt>
      <trkpt lat="45.49628" lon="6.73254">
        <ele>2618.6</ele>
        <time>2021-08-15T10:04:42Z</time>
      </trkpt>
      <trkpt lat="45.49628" lon="6.73254">
        <ele>2618.5</ele>
        <time>2021-08-15T10:04:43Z</time>
      </trkpt>
      <trkpt lat="45.49627" lon="6.73253">
        <ele>2618.3</ele>
        <time>2021-08-15T10:04:44Z</time>
      </trkpt>
      <trkpt lat="45.49626" lon="6.73253">
        <ele>2618.2</ele>
        <time>2021-08-15T10:04:45Z</time>
      </trkpt>
      <trkpt lat="45.49626" lon="6.73252">
        <ele>2618.1</ele>
        <time>2021-08-15T10:04:46Z</time>
      </trkpt>
      <trkpt lat="45.49625" lon="6.73252">
        <ele>2617.9</ele>
        <time>2021-08-15T10:04:47Z</time>
      </trkpt>
      <trkpt lat="45.49624" lon="6.73252">
        <ele>2617.7</ele>
        <time>2021-08-15T10:04:48Z</time>
      </trkpt>
      <trkpt lat="45.49623" lon="6.73251">
        <ele>2617.6</ele>
        <time>2021-08-15T10:04:49Z</time>
      </trkpt>
      <trkpt lat="45.49623" lon="6.73251">
        <ele>2617.4</ele>
        <time>2021-08-15T10:04:50Z</time>
      </trkpt>
      <trkpt lat="45.49622" lon="6.7325">
        <ele>2617.3</ele>
        <time>2021-08-15T10:04:51Z</time>
      </trkpt>
      <trkpt lat="45.49621" lon="6.7325">
        <ele>2617.1</ele>
        <time>2021-08-15T10:04:52Z</time>
      </trkpt>
      <trkpt lat="45.4962" lon="6.73249">
        <ele>2616.9</ele>
        <time>2021-08-15T10:04:53Z</time>
      </trkpt>
      <trkpt lat="45.49619" lon="6.73249">
        <ele>2616.8</ele>
        <time>2021-08-15T10:04:54Z</time>
      </trkpt>
      <trkpt lat="45.49618" lon="6.73248">
        <ele>2616.6</ele>
        <time>2021-08-15T10:04:55Z</time>
      </trkpt>
      <trkpt lat="45.49618" lon="6.73248">
        <ele>2616.5</ele>
        <time>2021-08-15T10:04:56Z</time>
      </trkpt>
      <trkpt lat="45.49617" lon="6.73247">
        <ele>2616.3</ele>
        <time>2021-08-15T10:04:57Z</time>
      </trkpt>
      <trkpt lat="45.49616" lon="6.73247">
        <ele>2616.2</ele>
        <time>2021-08-15T10:04:58Z</time>
      </trkpt>
      <trkpt lat="45.49615" lon="6.73247">
        <ele>2616.1</ele>
        <time>2021-08-15T10:04:59Z</time>
      </trkpt>
      <trkpt lat="45.49615" lon="6.73246">
        <ele>2615.9</ele>
        <time>2021-08-15T10:05:00Z</time>
      </trkpt>
      <trkpt lat="45.49614" lon="6.73246">
        <ele>2615.8</ele>
        <time>2021-08-15T10:05:01Z</time>
      </trkpt>
      <trkpt lat="45.49613" lon="6.73246">
        <ele>2615.7</ele>
        <time>2021-08-15T10:05:02Z</time>
      </trkpt>
      <trkpt lat="45.49613" lon="6.73245">
        <ele>2615.6</ele>
        <time>2021-08-15T10:05:03Z</time>
      </trkpt>
      <trkpt lat="45.49612" lon="6.73245">
        <ele>2615.5</ele>
        <time>2021-08-15T10:05:04Z</time>
      </trkpt>
      <trkpt lat="45.49612" lon="6.73245">
        <ele>2615.5</ele>
        <time>2021-08-15T10:05:05Z</time>
      </trkpt>
      <trkpt lat="45.49611" lon="6.73245">
        <ele>2615.4</ele>
        <time>2021-08-15T10:05:06Z</time>
      </trkpt>
      <trkpt lat="45.49611" lon="6.73245">
        <ele>2615.3</ele>
        <time>2021-08-15T10:05:07Z</time>
      </trkpt>
      <trkpt lat="45.4961" lon="6.73245">
        <ele>2615.3</ele>
        <time>2021-08-15T10:05:08Z</time>
      </trkpt>
      <trkpt lat="45.4961" lon="6.73245">
        <ele>2615.2</ele>
        <time>2021-08-15T10:05:09Z</time>
      </trkpt>
      <trkpt lat="45.4961" lon="6.73244">
        <ele>2615.1</ele>
        <time>2021-08-15T10:05:10Z</time>
      </trkpt>
      <trkpt lat="45.49609" lon="6.73244">
        <ele>2615.1</ele>
        <time>2021-08-15T10:05:11Z</time>
      </trkpt>
      <trkpt lat="45.49609" lon="6.73244">
        <ele>2614.9</ele>
        <time>2021-08-15T10:05:12Z</time>
      </trkpt>
      <trkpt lat="45.49608" lon="6.73243">
        <ele>2614.8</ele>
        <time>2021-08-15T10:05:13Z</time>
      </trkpt>
      <trkpt lat="45.49607" lon="6.73242">
        <ele>2614.7</ele>
        <time>2021-08-15T10:05:14Z</time>
      </trkpt>
      <trkpt lat="45.49606" lon="6.73241">
        <ele>2614.5</ele>
        <time>2021-08-15T10:05:15Z</time>
      </trkpt>
      <trkpt lat="45.49605" lon="6.7324">
        <ele>2614.4</ele>
        <time>2021-08-15T10:05:16Z</time>
      </trkpt>
      <trkpt lat="45.49604" lon="6.7324">
        <ele>2614.3</ele>
        <time>2021-08-15T10:05:17Z</time>
      </trkpt>
      <trkpt lat="45.49603" lon="6.73239">
        <ele>2614.1</ele>
        <time>2021-08-15T10:05:18Z</time>
      </trkpt>
      <trkpt lat="45.49602" lon="6.73238">
        <ele>2614</ele>
        <time>2021-08-15T10:05:19Z</time>
      </trkpt>
      <trkpt lat="45.49602" lon="6.73238">
        <ele>2613.9</ele>
        <time>2021-08-15T10:05:20Z</time>
      </trkpt>
      <trkpt lat="45.49601" lon="6.73237">
        <ele>2613.7</ele>
        <time>2021-08-15T10:05:21Z</time>
      </trkpt>
      <trkpt lat="45.496" lon="6.73237">
        <ele>2613.6</ele>
        <time>2021-08-15T10:05:22Z</time>
      </trkpt>
      <trkpt lat="45.49599" lon="6.73236">
        <ele>2613.5</ele>
        <time>2021-08-15T10:05:23Z</time>
      </trkpt>
      <trkpt lat="45.49598" lon="6.73235">
        <ele>2613.3</ele>
        <time>2021-08-15T10:05:24Z</time>
      </trkpt>
      <trkpt lat="45.49597" lon="6.73235">
        <ele>2613.2</ele>
        <time>2021-08-15T10:05:25Z</time>
      </trkpt>
      <trkpt lat="45.49596" lon="6.73234">
        <ele>2613.1</ele>
        <time>2021-08-15T10:05:26Z</time>
      </trkpt>
      <trkpt lat="45.49595" lon="6.73234">
        <ele>2613</ele>
        <time>2021-08-15T10:05:27Z</time>
      </trkpt>
      <trkpt lat="45.49594" lon="6.73233">
        <ele>2612.9</ele>
        <time>2021-08-15T10:05:28Z</time>
      </trkpt>
      <trkpt lat="45.49594" lon="6.73232">
        <ele>2612.8</ele>
        <time>2021-08-15T10:05:29Z</time>
      </trkpt>
      <trkpt lat="45.49593" lon="6.73232">
        <ele>2612.7</ele>
        <time>2021-08-15T10:05:30Z</time>
      </trkpt>
      <trkpt lat="45.49592" lon="6.73231">
        <ele>2612.6</ele>
        <time>2021-08-15T10:05:31Z</time>
      </trkpt>
      <trkpt lat="45.49592" lon="6.7323">
        <ele>2612.5</ele>
        <time>2021-08-15T10:05:32Z</time>
      </trkpt>
      <trkpt lat="45.49591" lon="6.7323">
        <ele>2612.4</ele>
        <time>2021-08-15T10:05:33Z</time>
      </trkpt>
      <trkpt lat="45.4959" lon="6.73229">
        <ele>2612.3</ele>
        <time>2021-08-15T10:05:34Z</time>
      </trkpt>
      <trkpt lat="45.49589" lon="6.73229">
        <ele>2612.2</ele>
        <time>2021-08-15T10:05:35Z</time>
      </trkpt>
      <trkpt lat="45.49589" lon="6.73228">
        <ele>2612.1</ele>
        <time>2021-08-15T10:05:36Z</time>
      </trkpt>
      <trkpt lat="45.49588" lon="6.73228">
        <ele>2612</ele>
        <time>2021-08-15T10:05:37Z</time>
      </trkpt>
      <trkpt lat="45.49587" lon="6.73227">
        <ele>2611.9</ele>
        <time>2021-08-15T10:05:38Z</time>
      </trkpt>
      <trkpt lat="45.49586" lon="6.73227">
        <ele>2611.8</ele>
        <time>2021-08-15T10:05:39Z</time>
      </trkpt>
      <trkpt lat="45.49586" lon="6.73227">
        <ele>2611.7</ele>
        <time>2021-08-15T10:05:40Z</time>
      </trkpt>
      <trkpt lat="45.49585" lon="6.73226">
        <ele>2611.6</ele>
        <time>2021-08-15T10:05:41Z</time>
      </trkpt>
      <trkpt lat="45.49584" lon="6.73226">
        <ele>2611.5</ele>
        <time>2021-08-15T10:05:42Z</time>
      </trkpt>
      <trkpt lat="45.49583" lon="6.73226">
        <ele>2611.4</ele>
        <time>2021-08-15T10:05:43Z</time>
      </trkpt>
      <trkpt lat="45.49582" lon="6.73225">
        <ele>2611.3</ele>
        <time>2021-08-15T10:05:44Z</time>
      </trkpt>
      <trkpt lat="45.49582" lon="6.73225">
        <ele>2611.2</ele>
        <time>2021-08-15T10:05:45Z</time>
      </trkpt>
      <trkpt lat="45.49581" lon="6.73225">
        <ele>2611.1</ele>
        <time>2021-08-15T10:05:46Z</time>
      </trkpt>
      <trkpt lat="45.4958" lon="6.73225">
        <ele>2611</ele>
        <time>2021-08-15T10:05:47Z</time>
      </trkpt>
      <trkpt lat="45.49579" lon="6.73225">
        <ele>2610.9</ele>
        <time>2021-08-15T10:05:48Z</time>
      </trkpt>
      <trkpt lat="45.49578" lon="6.73224">
        <ele>2610.8</ele>
        <time>2021-08-15T10:05:49Z</time>
      </trkpt>
      <trkpt lat="45.49578" lon="6.73224">
        <ele>2610.7</ele>
        <time>2021-08-15T10:05:50Z</time>
      </trkpt>
      <trkpt lat="45.49577" lon="6.73224">
        <ele>2610.6</ele>
        <time>2021-08-15T10:05:51Z</time>
      </trkpt>
      <trkpt lat="45.49576" lon="6.73224">
        <ele>2610.5</ele>
        <time>2021-08-15T10:05:52Z</time>
      </trkpt>
      <trkpt lat="45.49575" lon="6.73223">
        <ele>2610.4</ele>
        <time>2021-08-15T10:05:53Z</time>
      </trkpt>
      <trkpt lat="45.49574" lon="6.73223">
        <ele>2610.3</ele>
        <time>2021-08-15T10:05:54Z</time>
      </trkpt>
      <trkpt lat="45.49574" lon="6.73223">
        <ele>2610.2</ele>
        <time>2021-08-15T10:05:55Z</time>
      </trkpt>
      <trkpt lat="45.49573" lon="6.73223">
        <ele>2610.1</ele>
        <time>2021-08-15T10:05:56Z</time>
      </trkpt>
      <trkpt lat="45.49572" lon="6.73223">
        <ele>2610</ele>
        <time>2021-08-15T10:05:57Z</time>
      </trkpt>
      <trkpt lat="45.49571" lon="6.73222">
        <ele>2609.9</ele>
        <time>2021-08-15T10:05:58Z</time>
      </trkpt>
      <trkpt lat="45.4957" lon="6.73222">
        <ele>2609.8</ele>
        <time>2021-08-15T10:05:59Z</time>
      </trkpt>
      <trkpt lat="45.4957" lon="6.73222">
        <ele>2609.7</ele>
        <time>2021-08-15T10:06:00Z</time>
      </trkpt>
      <trkpt lat="45.49569" lon="6.73222">
        <ele>2609.6</ele>
        <time>2021-08-15T10:06:01Z</time>
      </trkpt>
      <trkpt lat="45.49568" lon="6.73221">
        <ele>2609.5</ele>
        <time>2021-08-15T10:06:02Z</time>
      </trkpt>
      <trkpt lat="45.49567" lon="6.73221">
        <ele>2609.4</ele>
        <time>2021-08-15T10:06:03Z</time>
      </trkpt>
      <trkpt lat="45.49566" lon="6.73221">
        <ele>2609.3</ele>
        <time>2021-08-15T10:06:04Z</time>
      </trkpt>
      <trkpt lat="45.49566" lon="6.73221">
        <ele>2609.2</ele>
        <time>2021-08-15T10:06:05Z</time>
      </trkpt>
      <trkpt lat="45.49565" lon="6.7322">
        <ele>2609.1</ele>
        <time>2021-08-15T10:06:06Z</time>
      </trkpt>
      <trkpt lat="45.49564" lon="6.7322">
        <ele>2609</ele>
        <time>2021-08-15T10:06:07Z</time>
      </trkpt>
      <trkpt lat="45.49563" lon="6.7322">
        <ele>2608.8</ele>
        <time>2021-08-15T10:06:08Z</time>
      </trkpt>
      <trkpt lat="45.49562" lon="6.7322">
        <ele>2608.7</ele>
        <time>2021-08-15T10:06:09Z</time>
      </trkpt>
      <trkpt lat="45.49561" lon="6.73219">
        <ele>2608.6</ele>
        <time>2021-08-15T10:06:10Z</time>
      </trkpt>
      <trkpt lat="45.4956" lon="6.73219">
        <ele>2608.5</ele>
        <time>2021-08-15T10:06:11Z</time>
      </trkpt>
      <trkpt lat="45.4956" lon="6.73219">
        <ele>2608.4</ele>
        <time>2021-08-15T10:06:12Z</time>
      </trkpt>
      <trkpt lat="45.49559" lon="6.73218">
        <ele>2608.3</ele>
        <time>2021-08-15T10:06:13Z</time>
      </trkpt>
      <trkpt lat="45.49558" lon="6.73218">
        <ele>2608.2</ele>
        <time>2021-08-15T10:06:14Z</time>
      </trkpt>
      <trkpt lat="45.49557" lon="6.73218">
        <ele>2608</ele>
        <time>2021-08-15T10:06:15Z</time>
      </trkpt>
      <trkpt lat="45.49556" lon="6.73217">
        <ele>2607.9</ele>
        <time>2021-08-15T10:06:16Z</time>
      </trkpt>
      <trkpt lat="45.49555" lon="6.73217">
        <ele>2607.8</ele>
        <time>2021-08-15T10:06:17Z</time>
      </trkpt>
      <trkpt lat="45.49555" lon="6.73217">
        <ele>2607.7</ele>
        <time>2021-08-15T10:06:18Z</time>
      </trkpt>
      <trkpt lat="45.49554" lon="6.73216">
        <ele>2607.6</ele>
        <time>2021-08-15T10:06:19Z</time>
      </trkpt>
      <trkpt lat="45.49553" lon="6.73216">
        <ele>2607.5</ele>
        <time>2021-08-15T10:06:20Z</time>
      </trkpt>
      <trkpt lat="45.49552" lon="6.73215">
        <ele>2607.4</ele>
        <time>2021-08-15T10:06:21Z</time>
      </trkpt>
      <trkpt lat="45.49552" lon="6.73215">
        <ele>2607.3</ele>
        <time>2021-08-15T10:06:22Z</time>
      </trkpt>
      <trkpt lat="45.49551" lon="6.73215">
        <ele>2607.2</ele>
        <time>2021-08-15T10:06:23Z</time>
      </trkpt>
      <trkpt lat="45.4955" lon="6.73214">
        <ele>2607.1</ele>
        <time>2021-08-15T10:06:24Z</time>
      </trkpt>
      <trkpt lat="45.4955" lon="6.73214">
        <ele>2607</ele>
        <time>2021-08-15T10:06:25Z</time>
      </trkpt>
      <trkpt lat="45.49549" lon="6.73213">
        <ele>2606.8</ele>
        <time>2021-08-15T10:06:26Z</time>
      </trkpt>
      <trkpt lat="45.49548" lon="6.73213">
        <ele>2606.8</ele>
        <time>2021-08-15T10:06:27Z</time>
      </trkpt>
      <trkpt lat="45.49548" lon="6.73212">
        <ele>2606.6</ele>
        <time>2021-08-15T10:06:28Z</time>
      </trkpt>
      <trkpt lat="45.49547" lon="6.73212">
        <ele>2606.5</ele>
        <time>2021-08-15T10:06:29Z</time>
      </trkpt>
      <trkpt lat="45.49546" lon="6.73212">
        <ele>2606.5</ele>
        <time>2021-08-15T10:06:30Z</time>
      </trkpt>
      <trkpt lat="45.49546" lon="6.73211">
        <ele>2606.3</ele>
        <time>2021-08-15T10:06:31Z</time>
      </trkpt>
      <trkpt lat="45.49545" lon="6.73211">
        <ele>2606.3</ele>
        <time>2021-08-15T10:06:32Z</time>
      </trkpt>
      <trkpt lat="45.49544" lon="6.73211">
        <ele>2606.2</ele>
        <time>2021-08-15T10:06:33Z</time>
      </trkpt>
      <trkpt lat="45.49544" lon="6.7321">
        <ele>2606.1</ele>
        <time>2021-08-15T10:06:34Z</time>
      </trkpt>
      <trkpt lat="45.49543" lon="6.7321">
        <ele>2605.9</ele>
        <time>2021-08-15T10:06:35Z</time>
      </trkpt>
      <trkpt lat="45.49542" lon="6.7321">
        <ele>2605.8</ele>
        <time>2021-08-15T10:06:36Z</time>
      </trkpt>
      <trkpt lat="45.49541" lon="6.7321">
        <ele>2605.7</ele>
        <time>2021-08-15T10:06:37Z</time>
      </trkpt>
      <trkpt lat="45.4954" lon="6.7321">
        <ele>2605.6</ele>
        <time>2021-08-15T10:06:38Z</time>
      </trkpt>
      <trkpt lat="45.4954" lon="6.7321">
        <ele>2605.5</ele>
        <time>2021-08-15T10:06:39Z</time>
      </trkpt>
      <trkpt lat="45.49539" lon="6.73211">
        <ele>2605.4</ele>
        <time>2021-08-15T10:06:40Z</time>
      </trkpt>
      <trkpt lat="45.49538" lon="6.73211">
        <ele>2605.3</ele>
        <time>2021-08-15T10:06:41Z</time>
      </trkpt>
      <trkpt lat="45.49538" lon="6.73211">
        <ele>2605.2</ele>
        <time>2021-08-15T10:06:42Z</time>
      </trkpt>
      <trkpt lat="45.49538" lon="6.73211">
        <ele>2605.1</ele>
        <time>2021-08-15T10:06:43Z</time>
      </trkpt>
      <trkpt lat="45.49537" lon="6.73211">
        <ele>2605.1</ele>
        <time>2021-08-15T10:06:44Z</time>
      </trkpt>
      <trkpt lat="45.49537" lon="6.73212">
        <ele>2605</ele>
        <time>2021-08-15T10:06:45Z</time>
      </trkpt>
      <trkpt lat="45.49536" lon="6.73212">
        <ele>2604.9</ele>
        <time>2021-08-15T10:06:46Z</time>
      </trkpt>
      <trkpt lat="45.49536" lon="6.73212">
        <ele>2604.8</ele>
        <time>2021-08-15T10:06:47Z</time>
      </trkpt>
      <trkpt lat="45.49535" lon="6.73212">
        <ele>2604.7</ele>
        <time>2021-08-15T10:06:48Z</time>
      </trkpt>
      <trkpt lat="45.49534" lon="6.73212">
        <ele>2604.6</ele>
        <time>2021-08-15T10:06:49Z</time>
      </trkpt>
      <trkpt lat="45.49533" lon="6.73212">
        <ele>2604.5</ele>
        <time>2021-08-15T10:06:50Z</time>
      </trkpt>
      <trkpt lat="45.49532" lon="6.73212">
        <ele>2604.4</ele>
        <time>2021-08-15T10:06:51Z</time>
      </trkpt>
      <trkpt lat="45.49532" lon="6.73212">
        <ele>2604.2</ele>
        <time>2021-08-15T10:06:52Z</time>
      </trkpt>
      <trkpt lat="45.49531" lon="6.73212">
        <ele>2604.1</ele>
        <time>2021-08-15T10:06:53Z</time>
      </trkpt>
      <trkpt lat="45.4953" lon="6.73212">
        <ele>2603.9</ele>
        <time>2021-08-15T10:06:54Z</time>
      </trkpt>
      <trkpt lat="45.49529" lon="6.73212">
        <ele>2603.8</ele>
        <time>2021-08-15T10:06:55Z</time>
      </trkpt>
      <trkpt lat="45.49528" lon="6.73212">
        <ele>2603.6</ele>
        <time>2021-08-15T10:06:56Z</time>
      </trkpt>
      <trkpt lat="45.49527" lon="6.73212">
        <ele>2603.5</ele>
        <time>2021-08-15T10:06:57Z</time>
      </trkpt>
      <trkpt lat="45.49526" lon="6.73212">
        <ele>2603.4</ele>
        <time>2021-08-15T10:06:58Z</time>
      </trkpt>
      <trkpt lat="45.49525" lon="6.73212">
        <ele>2603.2</ele>
        <time>2021-08-15T10:06:59Z</time>
      </trkpt>
      <trkpt lat="45.49524" lon="6.73212">
        <ele>2603.1</ele>
        <time>2021-08-15T10:07:00Z</time>
      </trkpt>
      <trkpt lat="45.49523" lon="6.73212">
        <ele>2602.9</ele>
        <time>2021-08-15T10:07:01Z</time>
      </trkpt>
      <trkpt lat="45.49523" lon="6.73212">
        <ele>2602.8</ele>
        <time>2021-08-15T10:07:02Z</time>
      </trkpt>
      <trkpt lat="45.49522" lon="6.73212">
        <ele>2602.6</ele>
        <time>2021-08-15T10:07:03Z</time>
      </trkpt>
      <trkpt lat="45.49521" lon="6.73212">
        <ele>2602.5</ele>
        <time>2021-08-15T10:07:04Z</time>
      </trkpt>
      <trkpt lat="45.4952" lon="6.73212">
        <ele>2602.4</ele>
        <time>2021-08-15T10:07:05Z</time>
      </trkpt>
      <trkpt lat="45.49519" lon="6.73212">
        <ele>2602.2</ele>
        <time>2021-08-15T10:07:06Z</time>
      </trkpt>
      <trkpt lat="45.49518" lon="6.73212">
        <ele>2602.1</ele>
        <time>2021-08-15T10:07:07Z</time>
      </trkpt>
      <trkpt lat="45.49517" lon="6.73212">
        <ele>2601.9</ele>
        <time>2021-08-15T10:07:08Z</time>
      </trkpt>
      <trkpt lat="45.49517" lon="6.73212">
        <ele>2601.8</ele>
        <time>2021-08-15T10:07:09Z</time>
      </trkpt>
      <trkpt lat="45.49516" lon="6.73212">
        <ele>2601.7</ele>
        <time>2021-08-15T10:07:10Z</time>
      </trkpt>
      <trkpt lat="45.49515" lon="6.73211">
        <ele>2601.6</ele>
        <time>2021-08-15T10:07:11Z</time>
      </trkpt>
      <trkpt lat="45.49514" lon="6.73211">
        <ele>2601.4</ele>
        <time>2021-08-15T10:07:12Z</time>
      </trkpt>
      <trkpt lat="45.49513" lon="6.73211">
        <ele>2601.3</ele>
        <time>2021-08-15T10:07:13Z</time>
      </trkpt>
      <trkpt lat="45.49513" lon="6.73211">
        <ele>2601.2</ele>
        <time>2021-08-15T10:07:14Z</time>
      </trkpt>
      <trkpt lat="45.49512" lon="6.73211">
        <ele>2601</ele>
        <time>2021-08-15T10:07:15Z</time>
      </trkpt>
      <trkpt lat="45.49511" lon="6.73211">
        <ele>2600.9</ele>
        <time>2021-08-15T10:07:16Z</time>
      </trkpt>
      <trkpt lat="45.4951" lon="6.73211">
        <ele>2600.8</ele>
        <time>2021-08-15T10:07:17Z</time>
      </trkpt>
      <trkpt lat="45.49509" lon="6.73211">
        <ele>2600.6</ele>
        <time>2021-08-15T10:07:18Z</time>
      </trkpt>
      <trkpt lat="45.49509" lon="6.73211">
        <ele>2600.5</ele>
        <time>2021-08-15T10:07:19Z</time>
      </trkpt>
      <trkpt lat="45.49508" lon="6.73211">
        <ele>2600.4</ele>
        <time>2021-08-15T10:07:20Z</time>
      </trkpt>
      <trkpt lat="45.49507" lon="6.7321">
        <ele>2600.3</ele>
        <time>2021-08-15T10:07:21Z</time>
      </trkpt>
      <trkpt lat="45.49507" lon="6.7321">
        <ele>2600.2</ele>
        <time>2021-08-15T10:07:22Z</time>
      </trkpt>
      <trkpt lat="45.49506" lon="6.7321">
        <ele>2600.1</ele>
        <time>2021-08-15T10:07:23Z</time>
      </trkpt>
      <trkpt lat="45.49506" lon="6.73209">
        <ele>2600</ele>
        <time>2021-08-15T10:07:24Z</time>
      </trkpt>
      <trkpt lat="45.49506" lon="6.73209">
        <ele>2600</ele>
        <time>2021-08-15T10:07:25Z</time>
      </trkpt>
      <trkpt lat="45.49505" lon="6.73209">
        <ele>2599.9</ele>
        <time>2021-08-15T10:07:26Z</time>
      </trkpt>
      <trkpt lat="45.49505" lon="6.73208">
        <ele>2599.8</ele>
        <time>2021-08-15T10:07:27Z</time>
      </trkpt>
      <trkpt lat="45.49505" lon="6.73208">
        <ele>2599.8</ele>
        <time>2021-08-15T10:07:28Z</time>
      </trkpt>
      <trkpt lat="45.49505" lon="6.73207">
        <ele>2599.7</ele>
        <time>2021-08-15T10:07:29Z</time>
      </trkpt>
      <trkpt lat="45.49504" lon="6.73207">
        <ele>2599.6</ele>
        <time>2021-08-15T10:07:30Z</time>
      </trkpt>
      <trkpt lat="45.49504" lon="6.73206">
        <ele>2599.6</ele>
        <time>2021-08-15T10:07:31Z</time>
      </trkpt>
      <trkpt lat="45.49503" lon="6.73206">
        <ele>2599.5</ele>
        <time>2021-08-15T10:07:32Z</time>
      </trkpt>
      <trkpt lat="45.49503" lon="6.73206">
        <ele>2599.4</ele>
        <time>2021-08-15T10:07:33Z</time>
      </trkpt>
      <trkpt lat="45.49502" lon="6.73206">
        <ele>2599.3</ele>
        <time>2021-08-15T10:07:34Z</time>
      </trkpt>
      <trkpt lat="45.49501" lon="6.73206">
        <ele>2599.2</ele>
        <time>2021-08-15T10:07:35Z</time>
      </trkpt>
      <trkpt lat="45.49501" lon="6.73206">
        <ele>2599</ele>
        <time>2021-08-15T10:07:36Z</time>
      </trkpt>
      <trkpt lat="45.495" lon="6.73206">
        <ele>2598.9</ele>
        <time>2021-08-15T10:07:37Z</time>
      </trkpt>
      <trkpt lat="45.49499" lon="6.73206">
        <ele>2598.8</ele>
        <time>2021-08-15T10:07:38Z</time>
      </trkpt>
      <trkpt lat="45.49498" lon="6.73206">
        <ele>2598.7</ele>
        <time>2021-08-15T10:07:39Z</time>
      </trkpt>
      <trkpt lat="45.49497" lon="6.73206">
        <ele>2598.5</ele>
        <time>2021-08-15T10:07:40Z</time>
      </trkpt>
      <trkpt lat="45.49496" lon="6.73207">
        <ele>2598.4</ele>
        <time>2021-08-15T10:07:41Z</time>
      </trkpt>
      <trkpt lat="45.49495" lon="6.73207">
        <ele>2598.3</ele>
        <time>2021-08-15T10:07:42Z</time>
      </trkpt>
      <trkpt lat="45.49494" lon="6.73207">
        <ele>2598.2</ele>
        <time>2021-08-15T10:07:43Z</time>
      </trkpt>
      <trkpt lat="45.49493" lon="6.73207">
        <ele>2598.1</ele>
        <time>2021-08-15T10:07:44Z</time>
      </trkpt>
      <trkpt lat="45.49492" lon="6.73207">
        <ele>2597.9</ele>
        <time>2021-08-15T10:07:45Z</time>
      </trkpt>
      <trkpt lat="45.49491" lon="6.73207">
        <ele>2597.8</ele>
        <time>2021-08-15T10:07:46Z</time>
      </trkpt>
      <trkpt lat="45.49491" lon="6.73206">
        <ele>2597.7</ele>
        <time>2021-08-15T10:07:47Z</time>
      </trkpt>
      <trkpt lat="45.4949" lon="6.73206">
        <ele>2597.6</ele>
        <time>2021-08-15T10:07:48Z</time>
      </trkpt>
      <trkpt lat="45.49489" lon="6.73206">
        <ele>2597.5</ele>
        <time>2021-08-15T10:07:49Z</time>
      </trkpt>
      <trkpt lat="45.49488" lon="6.73205">
        <ele>2597.4</ele>
        <time>2021-08-15T10:07:50Z</time>
      </trkpt>
      <trkpt lat="45.49487" lon="6.73205">
        <ele>2597.2</ele>
        <time>2021-08-15T10:07:51Z</time>
      </trkpt>
      <trkpt lat="45.49486" lon="6.73205">
        <ele>2597.1</ele>
        <time>2021-08-15T10:07:52Z</time>
      </trkpt>
      <trkpt lat="45.49485" lon="6.73204">
        <ele>2597</ele>
        <time>2021-08-15T10:07:53Z</time>
      </trkpt>
      <trkpt lat="45.49484" lon="6.73204">
        <ele>2596.9</ele>
        <time>2021-08-15T10:07:54Z</time>
      </trkpt>
      <trkpt lat="45.49483" lon="6.73204">
        <ele>2596.8</ele>
        <time>2021-08-15T10:07:55Z</time>
      </trkpt>
      <trkpt lat="45.49483" lon="6.73203">
        <ele>2596.7</ele>
        <time>2021-08-15T10:07:56Z</time>
      </trkpt>
      <trkpt lat="45.49482" lon="6.73203">
        <ele>2596.6</ele>
        <time>2021-08-15T10:07:57Z</time>
      </trkpt>
      <trkpt lat="45.49481" lon="6.73203">
        <ele>2596.5</ele>
        <time>2021-08-15T10:07:58Z</time>
      </trkpt>
      <trkpt lat="45.4948" lon="6.73203">
        <ele>2596.4</ele>
        <time>2021-08-15T10:07:59Z</time>
      </trkpt>
      <trkpt lat="45.4948" lon="6.73202">
        <ele>2596.3</ele>
        <time>2021-08-15T10:08:00Z</time>
      </trkpt>
      <trkpt lat="45.49479" lon="6.73202">
        <ele>2596.3</ele>
        <time>2021-08-15T10:08:01Z</time>
      </trkpt>
      <trkpt lat="45.49478" lon="6.73202">
        <ele>2596.2</ele>
        <time>2021-08-15T10:08:02Z</time>
      </trkpt>
      <trkpt lat="45.49477" lon="6.73202">
        <ele>2596.1</ele>
        <time>2021-08-15T10:08:03Z</time>
      </trkpt>
      <trkpt lat="45.49476" lon="6.73202">
        <ele>2596</ele>
        <time>2021-08-15T10:08:04Z</time>
      </trkpt>
      <trkpt lat="45.49475" lon="6.73202">
        <ele>2595.9</ele>
        <time>2021-08-15T10:08:05Z</time>
      </trkpt>
      <trkpt lat="45.49474" lon="6.73201">
        <ele>2595.8</ele>
        <time>2021-08-15T10:08:06Z</time>
      </trkpt>
      <trkpt lat="45.49473" lon="6.73201">
        <ele>2595.7</ele>
        <time>2021-08-15T10:08:07Z</time>
      </trkpt>
      <trkpt lat="45.49472" lon="6.73201">
        <ele>2595.6</ele>
        <time>2021-08-15T10:08:08Z</time>
      </trkpt>
      <trkpt lat="45.49472" lon="6.73201">
        <ele>2595.5</ele>
        <time>2021-08-15T10:08:09Z</time>
      </trkpt>
      <trkpt lat="45.49471" lon="6.73201">
        <ele>2595.5</ele>
        <time>2021-08-15T10:08:10Z</time>
      </trkpt>
      <trkpt lat="45.49471" lon="6.73201">
        <ele>2595.4</ele>
        <time>2021-08-15T10:08:11Z</time>
      </trkpt>
      <trkpt lat="45.4947" lon="6.73201">
        <ele>2595.4</ele>
        <time>2021-08-15T10:08:12Z</time>
      </trkpt>
      <trkpt lat="45.4947" lon="6.73201">
        <ele>2595.3</ele>
        <time>2021-08-15T10:08:13Z</time>
      </trkpt>
      <trkpt lat="45.4947" lon="6.732">
        <ele>2595.3</ele>
        <time>2021-08-15T10:08:14Z</time>
      </trkpt>
      <trkpt lat="45.49469" lon="6.732">
        <ele>2595.2</ele>
        <time>2021-08-15T10:08:15Z</time>
      </trkpt>
      <trkpt lat="45.49469" lon="6.732">
        <ele>2595.1</ele>
        <time>2021-08-15T10:08:16Z</time>
      </trkpt>
      <trkpt lat="45.49468" lon="6.732">
        <ele>2595.1</ele>
        <time>2021-08-15T10:08:17Z</time>
      </trkpt>
      <trkpt lat="45.49467" lon="6.732">
        <ele>2595</ele>
        <time>2021-08-15T10:08:18Z</time>
      </trkpt>
      <trkpt lat="45.49466" lon="6.73199">
        <ele>2594.9</ele>
        <time>2021-08-15T10:08:19Z</time>
      </trkpt>
      <trkpt lat="45.49466" lon="6.73199">
        <ele>2594.8</ele>
        <time>2021-08-15T10:08:20Z</time>
      </trkpt>
      <trkpt lat="45.49465" lon="6.73199">
        <ele>2594.7</ele>
        <time>2021-08-15T10:08:21Z</time>
      </trkpt>
      <trkpt lat="45.49464" lon="6.73198">
        <ele>2594.6</ele>
        <time>2021-08-15T10:08:22Z</time>
      </trkpt>
      <trkpt lat="45.49463" lon="6.73198">
        <ele>2594.5</ele>
        <time>2021-08-15T10:08:23Z</time>
      </trkpt>
      <trkpt lat="45.49462" lon="6.73198">
        <ele>2594.4</ele>
        <time>2021-08-15T10:08:24Z</time>
      </trkpt>
      <trkpt lat="45.49461" lon="6.73197">
        <ele>2594.3</ele>
        <time>2021-08-15T10:08:25Z</time>
      </trkpt>
      <trkpt lat="45.49461" lon="6.73197">
        <ele>2594.2</ele>
        <time>2021-08-15T10:08:26Z</time>
      </trkpt>
      <trkpt lat="45.4946" lon="6.73196">
        <ele>2594</ele>
        <time>2021-08-15T10:08:27Z</time>
      </trkpt>
      <trkpt lat="45.49459" lon="6.73196">
        <ele>2593.9</ele>
        <time>2021-08-15T10:08:28Z</time>
      </trkpt>
      <trkpt lat="45.49458" lon="6.73195">
        <ele>2593.8</ele>
        <time>2021-08-15T10:08:29Z</time>
      </trkpt>
      <trkpt lat="45.49457" lon="6.73195">
        <ele>2593.7</ele>
        <time>2021-08-15T10:08:30Z</time>
      </trkpt>
      <trkpt lat="45.49457" lon="6.73194">
        <ele>2593.6</ele>
        <time>2021-08-15T10:08:31Z</time>
      </trkpt>
      <trkpt lat="45.49456" lon="6.73194">
        <ele>2593.5</ele>
        <time>2021-08-15T10:08:32Z</time>
      </trkpt>
      <trkpt lat="45.49455" lon="6.73193">
        <ele>2593.4</ele>
        <time>2021-08-15T10:08:33Z</time>
      </trkpt>
      <trkpt lat="45.49454" lon="6.73193">
        <ele>2593.3</ele>
        <time>2021-08-15T10:08:34Z</time>
      </trkpt>
      <trkpt lat="45.49453" lon="6.73192">
        <ele>2593.2</ele>
        <time>2021-08-15T10:08:35Z</time>
      </trkpt>
      <trkpt lat="45.49452" lon="6.73192">
        <ele>2593</ele>
        <time>2021-08-15T10:08:36Z</time>
      </trkpt>
      <trkpt lat="45.49452" lon="6.73192">
        <ele>2592.9</ele>
        <time>2021-08-15T10:08:37Z</time>
      </trkpt>
      <trkpt lat="45.49451" lon="6.73191">
        <ele>2592.8</ele>
        <time>2021-08-15T10:08:38Z</time>
      </trkpt>
      <trkpt lat="45.4945" lon="6.73191">
        <ele>2592.7</ele>
        <time>2021-08-15T10:08:39Z</time>
      </trkpt>
      <trkpt lat="45.49449" lon="6.73191">
        <ele>2592.6</ele>
        <time>2021-08-15T10:08:40Z</time>
      </trkpt>
      <trkpt lat="45.49448" lon="6.7319">
        <ele>2592.5</ele>
        <time>2021-08-15T10:08:41Z</time>
      </trkpt>
      <trkpt lat="45.49447" lon="6.7319">
        <ele>2592.3</ele>
        <time>2021-08-15T10:08:42Z</time>
      </trkpt>
      <trkpt lat="45.49446" lon="6.7319">
        <ele>2592.2</ele>
        <time>2021-08-15T10:08:43Z</time>
      </trkpt>
      <trkpt lat="45.49446" lon="6.73189">
        <ele>2592.1</ele>
        <time>2021-08-15T10:08:44Z</time>
      </trkpt>
      <trkpt lat="45.49445" lon="6.73189">
        <ele>2592</ele>
        <time>2021-08-15T10:08:45Z</time>
      </trkpt>
      <trkpt lat="45.49444" lon="6.73189">
        <ele>2591.9</ele>
        <time>2021-08-15T10:08:46Z</time>
      </trkpt>
      <trkpt lat="45.49443" lon="6.73188">
        <ele>2591.7</ele>
        <time>2021-08-15T10:08:47Z</time>
      </trkpt>
      <trkpt lat="45.49442" lon="6.73188">
        <ele>2591.6</ele>
        <time>2021-08-15T10:08:48Z</time>
      </trkpt>
      <trkpt lat="45.49441" lon="6.73187">
        <ele>2591.5</ele>
        <time>2021-08-15T10:08:49Z</time>
      </trkpt>
      <trkpt lat="45.49441" lon="6.73187">
        <ele>2591.4</ele>
        <time>2021-08-15T10:08:50Z</time>
      </trkpt>
      <trkpt lat="45.4944" lon="6.73186">
        <ele>2591.3</ele>
        <time>2021-08-15T10:08:51Z</time>
      </trkpt>
      <trkpt lat="45.49439" lon="6.73186">
        <ele>2591.2</ele>
        <time>2021-08-15T10:08:52Z</time>
      </trkpt>
      <trkpt lat="45.49438" lon="6.73185">
        <ele>2591.1</ele>
        <time>2021-08-15T10:08:53Z</time>
      </trkpt>
      <trkpt lat="45.49438" lon="6.73185">
        <ele>2591</ele>
        <time>2021-08-15T10:08:54Z</time>
      </trkpt>
      <trkpt lat="45.49437" lon="6.73184">
        <ele>2590.9</ele>
        <time>2021-08-15T10:08:55Z</time>
      </trkpt>
      <trkpt lat="45.49436" lon="6.73183">
        <ele>2590.8</ele>
        <time>2021-08-15T10:08:56Z</time>
      </trkpt>
      <trkpt lat="45.49436" lon="6.73183">
        <ele>2590.7</ele>
        <time>2021-08-15T10:08:57Z</time>
      </trkpt>
      <trkpt lat="45.49435" lon="6.73182">
        <ele>2590.6</ele>
        <time>2021-08-15T10:08:58Z</time>
      </trkpt>
      <trkpt lat="45.49434" lon="6.73182">
        <ele>2590.5</ele>
        <time>2021-08-15T10:08:59Z</time>
      </trkpt>
      <trkpt lat="45.49434" lon="6.73181">
        <ele>2590.4</ele>
        <time>2021-08-15T10:09:00Z</time>
      </trkpt>
      <trkpt lat="45.49433" lon="6.7318">
        <ele>2590.3</ele>
        <time>2021-08-15T10:09:01Z</time>
      </trkpt>
      <trkpt lat="45.49432" lon="6.7318">
        <ele>2590.2</ele>
        <time>2021-08-15T10:09:02Z</time>
      </trkpt>
      <trkpt lat="45.49432" lon="6.73179">
        <ele>2590.1</ele>
        <time>2021-08-15T10:09:03Z</time>
      </trkpt>
      <trkpt lat="45.49431" lon="6.73178">
        <ele>2590</ele>
        <time>2021-08-15T10:09:04Z</time>
      </trkpt>
      <trkpt lat="45.49431" lon="6.73178">
        <ele>2590</ele>
        <time>2021-08-15T10:09:05Z</time>
      </trkpt>
      <trkpt lat="45.4943" lon="6.73177">
        <ele>2589.9</ele>
        <time>2021-08-15T10:09:06Z</time>
      </trkpt>
      <trkpt lat="45.4943" lon="6.73177">
        <ele>2589.8</ele>
        <time>2021-08-15T10:09:07Z</time>
      </trkpt>
      <trkpt lat="45.49429" lon="6.73176">
        <ele>2589.8</ele>
        <time>2021-08-15T10:09:08Z</time>
      </trkpt>
      <trkpt lat="45.49429" lon="6.73176">
        <ele>2589.7</ele>
        <time>2021-08-15T10:09:09Z</time>
      </trkpt>
      <trkpt lat="45.49429" lon="6.73175">
        <ele>2589.7</ele>
        <time>2021-08-15T10:09:10Z</time>
      </trkpt>
      <trkpt lat="45.49429" lon="6.73175">
        <ele>2589.7</ele>
        <time>2021-08-15T10:09:11Z</time>
      </trkpt>
      <trkpt lat="45.49429" lon="6.73175">
        <ele>2589.7</ele>
        <time>2021-08-15T10:09:12Z</time>
      </trkpt>
      <trkpt lat="45.49429" lon="6.73175">
        <ele>2589.6</ele>
        <time>2021-08-15T10:09:13Z</time>
      </trkpt>
      <trkpt lat="45.49429" lon="6.73174">
        <ele>2589.6</ele>
        <time>2021-08-15T10:09:14Z</time>
      </trkpt>
      <trkpt lat="45.49429" lon="6.73174">
        <ele>2589.6</ele>
        <time>2021-08-15T10:09:15Z</time>
      </trkpt>
      <trkpt lat="45.49428" lon="6.73173">
        <ele>2589.5</ele>
        <time>2021-08-15T10:09:16Z</time>
      </trkpt>
      <trkpt lat="45.49427" lon="6.73173">
        <ele>2589.4</ele>
        <time>2021-08-15T10:09:17Z</time>
      </trkpt>
      <trkpt lat="45.49427" lon="6.73172">
        <ele>2589.3</ele>
        <time>2021-08-15T10:09:18Z</time>
      </trkpt>
      <trkpt lat="45.49426" lon="6.73172">
        <ele>2589.2</ele>
        <time>2021-08-15T10:09:19Z</time>
      </trkpt>
      <trkpt lat="45.49425" lon="6.73171">
        <ele>2589.1</ele>
        <time>2021-08-15T10:09:20Z</time>
      </trkpt>
      <trkpt lat="45.49424" lon="6.7317">
        <ele>2589</ele>
        <time>2021-08-15T10:09:21Z</time>
      </trkpt>
      <trkpt lat="45.49423" lon="6.7317">
        <ele>2588.9</ele>
        <time>2021-08-15T10:09:22Z</time>
      </trkpt>
      <trkpt lat="45.49422" lon="6.73169">
        <ele>2588.8</ele>
        <time>2021-08-15T10:09:23Z</time>
      </trkpt>
      <trkpt lat="45.49421" lon="6.73168">
        <ele>2588.7</ele>
        <time>2021-08-15T10:09:24Z</time>
      </trkpt>
      <trkpt lat="45.4942" lon="6.73168">
        <ele>2588.6</ele>
        <time>2021-08-15T10:09:25Z</time>
      </trkpt>
      <trkpt lat="45.49419" lon="6.73167">
        <ele>2588.5</ele>
        <time>2021-08-15T10:09:26Z</time>
      </trkpt>
      <trkpt lat="45.49419" lon="6.73166">
        <ele>2588.4</ele>
        <time>2021-08-15T10:09:27Z</time>
      </trkpt>
      <trkpt lat="45.49418" lon="6.73166">
        <ele>2588.3</ele>
        <time>2021-08-15T10:09:28Z</time>
      </trkpt>
      <trkpt lat="45.49417" lon="6.73165">
        <ele>2588.2</ele>
        <time>2021-08-15T10:09:29Z</time>
      </trkpt>
      <trkpt lat="45.49416" lon="6.73164">
        <ele>2588.1</ele>
        <time>2021-08-15T10:09:30Z</time>
      </trkpt>
      <trkpt lat="45.49415" lon="6.73164">
        <ele>2588</ele>
        <time>2021-08-15T10:09:31Z</time>
      </trkpt>
      <trkpt lat="45.49415" lon="6.73163">
        <ele>2587.9</ele>
        <time>2021-08-15T10:09:32Z</time>
      </trkpt>
      <trkpt lat="45.49414" lon="6.73163">
        <ele>2587.8</ele>
        <time>2021-08-15T10:09:33Z</time>
      </trkpt>
      <trkpt lat="45.49413" lon="6.73162">
        <ele>2587.7</ele>
        <time>2021-08-15T10:09:34Z</time>
      </trkpt>
      <trkpt lat="45.49412" lon="6.73161">
        <ele>2587.6</ele>
        <time>2021-08-15T10:09:35Z</time>
      </trkpt>
      <trkpt lat="45.49412" lon="6.73161">
        <ele>2587.5</ele>
        <time>2021-08-15T10:09:36Z</time>
      </trkpt>
      <trkpt lat="45.49411" lon="6.7316">
        <ele>2587.5</ele>
        <time>2021-08-15T10:09:37Z</time>
      </trkpt>
      <trkpt lat="45.4941" lon="6.7316">
        <ele>2587.4</ele>
        <time>2021-08-15T10:09:38Z</time>
      </trkpt>
      <trkpt lat="45.49409" lon="6.73159">
        <ele>2587.3</ele>
        <time>2021-08-15T10:09:39Z</time>
      </trkpt>
      <trkpt lat="45.49409" lon="6.73159">
        <ele>2587.2</ele>
        <time>2021-08-15T10:09:40Z</time>
      </trkpt>
      <trkpt lat="45.49408" lon="6.73158">
        <ele>2587.1</ele>
        <time>2021-08-15T10:09:41Z</time>
      </trkpt>
      <trkpt lat="45.49407" lon="6.73158">
        <ele>2587</ele>
        <time>2021-08-15T10:09:42Z</time>
      </trkpt>
      <trkpt lat="45.49406" lon="6.73157">
        <ele>2586.9</ele>
        <time>2021-08-15T10:09:43Z</time>
      </trkpt>
      <trkpt lat="45.49406" lon="6.73157">
        <ele>2586.8</ele>
        <time>2021-08-15T10:09:44Z</time>
      </trkpt>
      <trkpt lat="45.49405" lon="6.73157">
        <ele>2586.7</ele>
        <time>2021-08-15T10:09:45Z</time>
      </trkpt>
      <trkpt lat="45.49404" lon="6.73156">
        <ele>2586.6</ele>
        <time>2021-08-15T10:09:46Z</time>
      </trkpt>
      <trkpt lat="45.49403" lon="6.73156">
        <ele>2586.5</ele>
        <time>2021-08-15T10:09:47Z</time>
      </trkpt>
      <trkpt lat="45.49403" lon="6.73156">
        <ele>2586.4</ele>
        <time>2021-08-15T10:09:48Z</time>
      </trkpt>
      <trkpt lat="45.49402" lon="6.73155">
        <ele>2586.2</ele>
        <time>2021-08-15T10:09:49Z</time>
      </trkpt>
      <trkpt lat="45.49401" lon="6.73155">
        <ele>2586.1</ele>
        <time>2021-08-15T10:09:50Z</time>
      </trkpt>
      <trkpt lat="45.494" lon="6.73155">
        <ele>2586</ele>
        <time>2021-08-15T10:09:51Z</time>
      </trkpt>
      <trkpt lat="45.49399" lon="6.73155">
        <ele>2585.9</ele>
        <time>2021-08-15T10:09:52Z</time>
      </trkpt>
      <trkpt lat="45.49398" lon="6.73154">
        <ele>2585.8</ele>
        <time>2021-08-15T10:09:53Z</time>
      </trkpt>
      <trkpt lat="45.49398" lon="6.73154">
        <ele>2585.7</ele>
        <time>2021-08-15T10:09:54Z</time>
      </trkpt>
      <trkpt lat="45.49397" lon="6.73154">
        <ele>2585.6</ele>
        <time>2021-08-15T10:09:55Z</time>
      </trkpt>
      <trkpt lat="45.49396" lon="6.73154">
        <ele>2585.5</ele>
        <time>2021-08-15T10:09:56Z</time>
      </trkpt>
      <trkpt lat="45.49395" lon="6.73154">
        <ele>2585.4</ele>
        <time>2021-08-15T10:09:57Z</time>
      </trkpt>
      <trkpt lat="45.49394" lon="6.73154">
        <ele>2585.2</ele>
        <time>2021-08-15T10:09:58Z</time>
      </trkpt>
      <trkpt lat="45.49393" lon="6.73154">
        <ele>2585.1</ele>
        <time>2021-08-15T10:09:59Z</time>
      </trkpt>
      <trkpt lat="45.49392" lon="6.73154">
        <ele>2585</ele>
        <time>2021-08-15T10:10:00Z</time>
      </trkpt>
      <trkpt lat="45.49391" lon="6.73154">
        <ele>2584.9</ele>
        <time>2021-08-15T10:10:01Z</time>
      </trkpt>
      <trkpt lat="45.4939" lon="6.73154">
        <ele>2584.8</ele>
        <time>2021-08-15T10:10:02Z</time>
      </trkpt>
      <trkpt lat="45.49389" lon="6.73154">
        <ele>2584.7</ele>
        <time>2021-08-15T10:10:03Z</time>
      </trkpt>
      <trkpt lat="45.49388" lon="6.73154">
        <ele>2584.5</ele>
        <time>2021-08-15T10:10:04Z</time>
      </trkpt>
      <trkpt lat="45.49387" lon="6.73154">
        <ele>2584.4</ele>
        <time>2021-08-15T10:10:05Z</time>
      </trkpt>
      <trkpt lat="45.49386" lon="6.73154">
        <ele>2584.3</ele>
        <time>2021-08-15T10:10:06Z</time>
      </trkpt>
      <trkpt lat="45.49386" lon="6.73154">
        <ele>2584.2</ele>
        <time>2021-08-15T10:10:07Z</time>
      </trkpt>
      <trkpt lat="45.49385" lon="6.73154">
        <ele>2584.1</ele>
        <time>2021-08-15T10:10:08Z</time>
      </trkpt>
      <trkpt lat="45.49384" lon="6.73154">
        <ele>2584</ele>
        <time>2021-08-15T10:10:09Z</time>
      </trkpt>
      <trkpt lat="45.49383" lon="6.73154">
        <ele>2583.9</ele>
        <time>2021-08-15T10:10:10Z</time>
      </trkpt>
      <trkpt lat="45.49382" lon="6.73154">
        <ele>2583.8</ele>
        <time>2021-08-15T10:10:11Z</time>
      </trkpt>
      <trkpt lat="45.49381" lon="6.73154">
        <ele>2583.7</ele>
        <time>2021-08-15T10:10:12Z</time>
      </trkpt>
      <trkpt lat="45.4938" lon="6.73155">
        <ele>2583.6</ele>
        <time>2021-08-15T10:10:13Z</time>
      </trkpt>
      <trkpt lat="45.49379" lon="6.73155">
        <ele>2583.5</ele>
        <time>2021-08-15T10:10:14Z</time>
      </trkpt>
      <trkpt lat="45.49378" lon="6.73155">
        <ele>2583.4</ele>
        <time>2021-08-15T10:10:15Z</time>
      </trkpt>
      <trkpt lat="45.49378" lon="6.73155">
        <ele>2583.3</ele>
        <time>2021-08-15T10:10:16Z</time>
      </trkpt>
      <trkpt lat="45.49377" lon="6.73155">
        <ele>2583.2</ele>
        <time>2021-08-15T10:10:17Z</time>
      </trkpt>
      <trkpt lat="45.49376" lon="6.73155">
        <ele>2583.1</ele>
        <time>2021-08-15T10:10:18Z</time>
      </trkpt>
      <trkpt lat="45.49375" lon="6.73155">
        <ele>2583.1</ele>
        <time>2021-08-15T10:10:19Z</time>
      </trkpt>
      <trkpt lat="45.49375" lon="6.73155">
        <ele>2583</ele>
        <time>2021-08-15T10:10:20Z</time>
      </trkpt>
      <trkpt lat="45.49374" lon="6.73155">
        <ele>2582.9</ele>
        <time>2021-08-15T10:10:21Z</time>
      </trkpt>
      <trkpt lat="45.49373" lon="6.73155">
        <ele>2582.8</ele>
        <time>2021-08-15T10:10:22Z</time>
      </trkpt>
      <trkpt lat="45.49372" lon="6.73155">
        <ele>2582.7</ele>
        <time>2021-08-15T10:10:23Z</time>
      </trkpt>
      <trkpt lat="45.49372" lon="6.73155">
        <ele>2582.6</ele>
        <time>2021-08-15T10:10:24Z</time>
      </trkpt>
      <trkpt lat="45.49371" lon="6.73155">
        <ele>2582.5</ele>
        <time>2021-08-15T10:10:25Z</time>
      </trkpt>
      <trkpt lat="45.4937" lon="6.73155">
        <ele>2582.5</ele>
        <time>2021-08-15T10:10:26Z</time>
      </trkpt>
      <trkpt lat="45.49369" lon="6.73155">
        <ele>2582.4</ele>
        <time>2021-08-15T10:10:27Z</time>
      </trkpt>
      <trkpt lat="45.49368" lon="6.73155">
        <ele>2582.3</ele>
        <time>2021-08-15T10:10:28Z</time>
      </trkpt>
      <trkpt lat="45.49368" lon="6.73155">
        <ele>2582.2</ele>
        <time>2021-08-15T10:10:29Z</time>
      </trkpt>
      <trkpt lat="45.49367" lon="6.73155">
        <ele>2582.1</ele>
        <time>2021-08-15T10:10:30Z</time>
      </trkpt>
      <trkpt lat="45.49367" lon="6.73155">
        <ele>2582.1</ele>
        <time>2021-08-15T10:10:31Z</time>
      </trkpt>
      <trkpt lat="45.49366" lon="6.73155">
        <ele>2582</ele>
        <time>2021-08-15T10:10:32Z</time>
      </trkpt>
      <trkpt lat="45.49365" lon="6.73156">
        <ele>2581.9</ele>
        <time>2021-08-15T10:10:33Z</time>
      </trkpt>
      <trkpt lat="45.49365" lon="6.73156">
        <ele>2581.9</ele>
        <time>2021-08-15T10:10:34Z</time>
      </trkpt>
      <trkpt lat="45.49365" lon="6.73156">
        <ele>2581.9</ele>
        <time>2021-08-15T10:10:35Z</time>
      </trkpt>
      <trkpt lat="45.49364" lon="6.73156">
        <ele>2581.8</ele>
        <time>2021-08-15T10:10:36Z</time>
      </trkpt>
      <trkpt lat="45.49364" lon="6.73156">
        <ele>2581.8</ele>
        <time>2021-08-15T10:10:37Z</time>
      </trkpt>
      <trkpt lat="45.49363" lon="6.73157">
        <ele>2581.7</ele>
        <time>2021-08-15T10:10:38Z</time>
      </trkpt>
      <trkpt lat="45.49363" lon="6.73157">
        <ele>2581.7</ele>
        <time>2021-08-15T10:10:39Z</time>
      </trkpt>
      <trkpt lat="45.49363" lon="6.73157">
        <ele>2581.6</ele>
        <time>2021-08-15T10:10:40Z</time>
      </trkpt>
      <trkpt lat="45.49362" lon="6.73157">
        <ele>2581.6</ele>
        <time>2021-08-15T10:10:41Z</time>
      </trkpt>
      <trkpt lat="45.49361" lon="6.73157">
        <ele>2581.5</ele>
        <time>2021-08-15T10:10:42Z</time>
      </trkpt>
      <trkpt lat="45.49361" lon="6.73157">
        <ele>2581.4</ele>
        <time>2021-08-15T10:10:43Z</time>
      </trkpt>
      <trkpt lat="45.4936" lon="6.73157">
        <ele>2581.3</ele>
        <time>2021-08-15T10:10:44Z</time>
      </trkpt>
      <trkpt lat="45.49359" lon="6.73157">
        <ele>2581.2</ele>
        <time>2021-08-15T10:10:45Z</time>
      </trkpt>
      <trkpt lat="45.49358" lon="6.73157">
        <ele>2581.1</ele>
        <time>2021-08-15T10:10:46Z</time>
      </trkpt>
      <trkpt lat="45.49357" lon="6.73157">
        <ele>2581</ele>
        <time>2021-08-15T10:10:47Z</time>
      </trkpt>
      <trkpt lat="45.49356" lon="6.73157">
        <ele>2580.9</ele>
        <time>2021-08-15T10:10:48Z</time>
      </trkpt>
      <trkpt lat="45.49355" lon="6.73157">
        <ele>2580.8</ele>
        <time>2021-08-15T10:10:49Z</time>
      </trkpt>
      <trkpt lat="45.49354" lon="6.73157">
        <ele>2580.7</ele>
        <time>2021-08-15T10:10:50Z</time>
      </trkpt>
      <trkpt lat="45.49353" lon="6.73157">
        <ele>2580.6</ele>
        <time>2021-08-15T10:10:51Z</time>
      </trkpt>
      <trkpt lat="45.49352" lon="6.73157">
        <ele>2580.4</ele>
        <time>2021-08-15T10:10:52Z</time>
      </trkpt>
      <trkpt lat="45.49351" lon="6.73157">
        <ele>2580.3</ele>
        <time>2021-08-15T10:10:53Z</time>
      </trkpt>
      <trkpt lat="45.4935" lon="6.73157">
        <ele>2580.2</ele>
        <time>2021-08-15T10:10:54Z</time>
      </trkpt>
      <trkpt lat="45.49349" lon="6.73156">
        <ele>2580.1</ele>
        <time>2021-08-15T10:10:55Z</time>
      </trkpt>
      <trkpt lat="45.49348" lon="6.73156">
        <ele>2579.9</ele>
        <time>2021-08-15T10:10:56Z</time>
      </trkpt>
      <trkpt lat="45.49346" lon="6.73156">
        <ele>2579.8</ele>
        <time>2021-08-15T10:10:57Z</time>
      </trkpt>
      <trkpt lat="45.49345" lon="6.73156">
        <ele>2579.7</ele>
        <time>2021-08-15T10:10:58Z</time>
      </trkpt>
      <trkpt lat="45.49344" lon="6.73156">
        <ele>2579.6</ele>
        <time>2021-08-15T10:10:59Z</time>
      </trkpt>
      <trkpt lat="45.49343" lon="6.73156">
        <ele>2579.4</ele>
        <time>2021-08-15T10:11:00Z</time>
      </trkpt>
      <trkpt lat="45.49342" lon="6.73155">
        <ele>2579.3</ele>
        <time>2021-08-15T10:11:01Z</time>
      </trkpt>
      <trkpt lat="45.49341" lon="6.73155">
        <ele>2579.2</ele>
        <time>2021-08-15T10:11:02Z</time>
      </trkpt>
      <trkpt lat="45.4934" lon="6.73155">
        <ele>2579.1</ele>
        <time>2021-08-15T10:11:03Z</time>
      </trkpt>
      <trkpt lat="45.4934" lon="6.73155">
        <ele>2579</ele>
        <time>2021-08-15T10:11:04Z</time>
      </trkpt>
      <trkpt lat="45.49339" lon="6.73155">
        <ele>2579</ele>
        <time>2021-08-15T10:11:05Z</time>
      </trkpt>
      <trkpt lat="45.49338" lon="6.73155">
        <ele>2578.9</ele>
        <time>2021-08-15T10:11:06Z</time>
      </trkpt>
      <trkpt lat="45.49337" lon="6.73155">
        <ele>2578.8</ele>
        <time>2021-08-15T10:11:07Z</time>
      </trkpt>
      <trkpt lat="45.49337" lon="6.73155">
        <ele>2578.7</ele>
        <time>2021-08-15T10:11:08Z</time>
      </trkpt>
      <trkpt lat="45.49336" lon="6.73154">
        <ele>2578.6</ele>
        <time>2021-08-15T10:11:09Z</time>
      </trkpt>
      <trkpt lat="45.49335" lon="6.73154">
        <ele>2578.6</ele>
        <time>2021-08-15T10:11:10Z</time>
      </trkpt>
      <trkpt lat="45.49335" lon="6.73154">
        <ele>2578.5</ele>
        <time>2021-08-15T10:11:11Z</time>
      </trkpt>
      <trkpt lat="45.49334" lon="6.73154">
        <ele>2578.4</ele>
        <time>2021-08-15T10:11:12Z</time>
      </trkpt>
      <trkpt lat="45.49333" lon="6.73154">
        <ele>2578.4</ele>
        <time>2021-08-15T10:11:13Z</time>
      </trkpt>
      <trkpt lat="45.49333" lon="6.73154">
        <ele>2578.3</ele>
        <time>2021-08-15T10:11:14Z</time>
      </trkpt>
      <trkpt lat="45.49332" lon="6.73154">
        <ele>2578.2</ele>
        <time>2021-08-15T10:11:15Z</time>
      </trkpt>
      <trkpt lat="45.49332" lon="6.73153">
        <ele>2578.2</ele>
        <time>2021-08-15T10:11:16Z</time>
      </trkpt>
      <trkpt lat="45.49331" lon="6.73153">
        <ele>2578.1</ele>
        <time>2021-08-15T10:11:17Z</time>
      </trkpt>
      <trkpt lat="45.4933" lon="6.73153">
        <ele>2578</ele>
        <time>2021-08-15T10:11:18Z</time>
      </trkpt>
      <trkpt lat="45.49329" lon="6.73153">
        <ele>2577.9</ele>
        <time>2021-08-15T10:11:19Z</time>
      </trkpt>
      <trkpt lat="45.49329" lon="6.73153">
        <ele>2577.9</ele>
        <time>2021-08-15T10:11:20Z</time>
      </trkpt>
      <trkpt lat="45.49328" lon="6.73153">
        <ele>2577.8</ele>
        <time>2021-08-15T10:11:21Z</time>
      </trkpt>
      <trkpt lat="45.49327" lon="6.73152">
        <ele>2577.7</ele>
        <time>2021-08-15T10:11:22Z</time>
      </trkpt>
      <trkpt lat="45.49326" lon="6.73152">
        <ele>2577.6</ele>
        <time>2021-08-15T10:11:23Z</time>
      </trkpt>
      <trkpt lat="45.49325" lon="6.73152">
        <ele>2577.5</ele>
        <time>2021-08-15T10:11:24Z</time>
      </trkpt>
      <trkpt lat="45.49324" lon="6.73152">
        <ele>2577.4</ele>
        <time>2021-08-15T10:11:25Z</time>
      </trkpt>
      <trkpt lat="45.49323" lon="6.73152">
        <ele>2577.3</ele>
        <time>2021-08-15T10:11:26Z</time>
      </trkpt>
      <trkpt lat="45.49323" lon="6.73152">
        <ele>2577.3</ele>
        <time>2021-08-15T10:11:27Z</time>
      </trkpt>
      <trkpt lat="45.49322" lon="6.73152">
        <ele>2577.2</ele>
        <time>2021-08-15T10:11:28Z</time>
      </trkpt>
      <trkpt lat="45.49321" lon="6.73152">
        <ele>2577.1</ele>
        <time>2021-08-15T10:11:29Z</time>
      </trkpt>
      <trkpt lat="45.4932" lon="6.73152">
        <ele>2577</ele>
        <time>2021-08-15T10:11:30Z</time>
      </trkpt>
      <trkpt lat="45.4932" lon="6.73152">
        <ele>2577</ele>
        <time>2021-08-15T10:11:31Z</time>
      </trkpt>
      <trkpt lat="45.4932" lon="6.73152">
        <ele>2576.9</ele>
        <time>2021-08-15T10:11:32Z</time>
      </trkpt>
      <trkpt lat="45.49319" lon="6.73152">
        <ele>2576.9</ele>
        <time>2021-08-15T10:11:33Z</time>
      </trkpt>
      <trkpt lat="45.49319" lon="6.73152">
        <ele>2576.9</ele>
        <time>2021-08-15T10:11:34Z</time>
      </trkpt>
      <trkpt lat="45.49319" lon="6.73152">
        <ele>2576.8</ele>
        <time>2021-08-15T10:11:35Z</time>
      </trkpt>
      <trkpt lat="45.49318" lon="6.73152">
        <ele>2576.8</ele>
        <time>2021-08-15T10:11:36Z</time>
      </trkpt>
      <trkpt lat="45.49318" lon="6.73152">
        <ele>2576.8</ele>
        <time>2021-08-15T10:11:37Z</time>
      </trkpt>
      <trkpt lat="45.49317" lon="6.73152">
        <ele>2576.7</ele>
        <time>2021-08-15T10:11:38Z</time>
      </trkpt>
      <trkpt lat="45.49317" lon="6.73152">
        <ele>2576.6</ele>
        <time>2021-08-15T10:11:39Z</time>
      </trkpt>
      <trkpt lat="45.49316" lon="6.73152">
        <ele>2576.6</ele>
        <time>2021-08-15T10:11:40Z</time>
      </trkpt>
      <trkpt lat="45.49315" lon="6.73152">
        <ele>2576.5</ele>
        <time>2021-08-15T10:11:41Z</time>
      </trkpt>
      <trkpt lat="45.49315" lon="6.73152">
        <ele>2576.4</ele>
        <time>2021-08-15T10:11:42Z</time>
      </trkpt>
      <trkpt lat="45.49314" lon="6.73152">
        <ele>2576.4</ele>
        <time>2021-08-15T10:11:43Z</time>
      </trkpt>
      <trkpt lat="45.49313" lon="6.73152">
        <ele>2576.3</ele>
        <time>2021-08-15T10:11:44Z</time>
      </trkpt>
      <trkpt lat="45.49312" lon="6.73152">
        <ele>2576.2</ele>
        <time>2021-08-15T10:11:45Z</time>
      </trkpt>
      <trkpt lat="45.49312" lon="6.73152">
        <ele>2576.1</ele>
        <time>2021-08-15T10:11:46Z</time>
      </trkpt>
      <trkpt lat="45.49311" lon="6.73152">
        <ele>2576.1</ele>
        <time>2021-08-15T10:11:47Z</time>
      </trkpt>
      <trkpt lat="45.4931" lon="6.73152">
        <ele>2576</ele>
        <time>2021-08-15T10:11:48Z</time>
      </trkpt>
      <trkpt lat="45.49309" lon="6.73153">
        <ele>2575.9</ele>
        <time>2021-08-15T10:11:49Z</time>
      </trkpt>
      <trkpt lat="45.49309" lon="6.73153">
        <ele>2575.8</ele>
        <time>2021-08-15T10:11:50Z</time>
      </trkpt>
      <trkpt lat="45.49308" lon="6.73153">
        <ele>2575.7</ele>
        <time>2021-08-15T10:11:51Z</time>
      </trkpt>
      <trkpt lat="45.49307" lon="6.73153">
        <ele>2575.6</ele>
        <time>2021-08-15T10:11:52Z</time>
      </trkpt>
      <trkpt lat="45.49306" lon="6.73154">
        <ele>2575.6</ele>
        <time>2021-08-15T10:11:53Z</time>
      </trkpt>
      <trkpt lat="45.49305" lon="6.73154">
        <ele>2575.5</ele>
        <time>2021-08-15T10:11:54Z</time>
      </trkpt>
      <trkpt lat="45.49304" lon="6.73154">
        <ele>2575.4</ele>
        <time>2021-08-15T10:11:55Z</time>
      </trkpt>
      <trkpt lat="45.49303" lon="6.73155">
        <ele>2575.3</ele>
        <time>2021-08-15T10:11:56Z</time>
      </trkpt>
      <trkpt lat="45.49303" lon="6.73155">
        <ele>2575.2</ele>
        <time>2021-08-15T10:11:57Z</time>
      </trkpt>
      <trkpt lat="45.49302" lon="6.73156">
        <ele>2575.1</ele>
        <time>2021-08-15T10:11:58Z</time>
      </trkpt>
      <trkpt lat="45.49301" lon="6.73156">
        <ele>2575</ele>
        <time>2021-08-15T10:11:59Z</time>
      </trkpt>
      <trkpt lat="45.493" lon="6.73156">
        <ele>2574.9</ele>
        <time>2021-08-15T10:12:00Z</time>
      </trkpt>
      <trkpt lat="45.49299" lon="6.73157">
        <ele>2574.8</ele>
        <time>2021-08-15T10:12:01Z</time>
      </trkpt>
      <trkpt lat="45.49298" lon="6.73157">
        <ele>2574.7</ele>
        <time>2021-08-15T10:12:02Z</time>
      </trkpt>
      <trkpt lat="45.49297" lon="6.73157">
        <ele>2574.6</ele>
        <time>2021-08-15T10:12:03Z</time>
      </trkpt>
      <trkpt lat="45.49296" lon="6.73158">
        <ele>2574.5</ele>
        <time>2021-08-15T10:12:04Z</time>
      </trkpt>
      <trkpt lat="45.49296" lon="6.73158">
        <ele>2574.4</ele>
        <time>2021-08-15T10:12:05Z</time>
      </trkpt>
      <trkpt lat="45.49295" lon="6.73159">
        <ele>2574.3</ele>
        <time>2021-08-15T10:12:06Z</time>
      </trkpt>
      <trkpt lat="45.49294" lon="6.73159">
        <ele>2574.2</ele>
        <time>2021-08-15T10:12:07Z</time>
      </trkpt>
      <trkpt lat="45.49293" lon="6.73159">
        <ele>2574.1</ele>
        <time>2021-08-15T10:12:08Z</time>
      </trkpt>
      <trkpt lat="45.49292" lon="6.73159">
        <ele>2574</ele>
        <time>2021-08-15T10:12:09Z</time>
      </trkpt>
      <trkpt lat="45.49291" lon="6.7316">
        <ele>2573.9</ele>
        <time>2021-08-15T10:12:10Z</time>
      </trkpt>
      <trkpt lat="45.4929" lon="6.7316">
        <ele>2573.8</ele>
        <time>2021-08-15T10:12:11Z</time>
      </trkpt>
      <trkpt lat="45.49289" lon="6.7316">
        <ele>2573.7</ele>
        <time>2021-08-15T10:12:12Z</time>
      </trkpt>
      <trkpt lat="45.49289" lon="6.7316">
        <ele>2573.6</ele>
        <time>2021-08-15T10:12:13Z</time>
      </trkpt>
      <trkpt lat="45.49288" lon="6.7316">
        <ele>2573.5</ele>
        <time>2021-08-15T10:12:14Z</time>
      </trkpt>
      <trkpt lat="45.49287" lon="6.7316">
        <ele>2573.4</ele>
        <time>2021-08-15T10:12:15Z</time>
      </trkpt>
      <trkpt lat="45.49286" lon="6.7316">
        <ele>2573.3</ele>
        <time>2021-08-15T10:12:16Z</time>
      </trkpt>
      <trkpt lat="45.49285" lon="6.7316">
        <ele>2573.2</ele>
        <time>2021-08-15T10:12:17Z</time>
      </trkpt>
      <trkpt lat="45.49284" lon="6.7316">
        <ele>2573.1</ele>
        <time>2021-08-15T10:12:18Z</time>
      </trkpt>
      <trkpt lat="45.49283" lon="6.7316">
        <ele>2573</ele>
        <time>2021-08-15T10:12:19Z</time>
      </trkpt>
      <trkpt lat="45.49283" lon="6.7316">
        <ele>2572.9</ele>
        <time>2021-08-15T10:12:20Z</time>
      </trkpt>
      <trkpt lat="45.49282" lon="6.7316">
        <ele>2572.9</ele>
        <time>2021-08-15T10:12:21Z</time>
      </trkpt>
      <trkpt lat="45.49281" lon="6.7316">
        <ele>2572.8</ele>
        <time>2021-08-15T10:12:22Z</time>
      </trkpt>
      <trkpt lat="45.4928" lon="6.7316">
        <ele>2572.7</ele>
        <time>2021-08-15T10:12:23Z</time>
      </trkpt>
      <trkpt lat="45.49279" lon="6.7316">
        <ele>2572.6</ele>
        <time>2021-08-15T10:12:24Z</time>
      </trkpt>
      <trkpt lat="45.49279" lon="6.73159">
        <ele>2572.5</ele>
        <time>2021-08-15T10:12:25Z</time>
      </trkpt>
      <trkpt lat="45.49278" lon="6.73159">
        <ele>2572.4</ele>
        <time>2021-08-15T10:12:26Z</time>
      </trkpt>
      <trkpt lat="45.49277" lon="6.73159">
        <ele>2572.3</ele>
        <time>2021-08-15T10:12:27Z</time>
      </trkpt>
      <trkpt lat="45.49276" lon="6.73159">
        <ele>2572.2</ele>
        <time>2021-08-15T10:12:28Z</time>
      </trkpt>
      <trkpt lat="45.49276" lon="6.73159">
        <ele>2572.2</ele>
        <time>2021-08-15T10:12:29Z</time>
      </trkpt>
      <trkpt lat="45.49275" lon="6.73158">
        <ele>2572.1</ele>
        <time>2021-08-15T10:12:30Z</time>
      </trkpt>
      <trkpt lat="45.49274" lon="6.73158">
        <ele>2572</ele>
        <time>2021-08-15T10:12:31Z</time>
      </trkpt>
      <trkpt lat="45.49273" lon="6.73158">
        <ele>2571.9</ele>
        <time>2021-08-15T10:12:32Z</time>
      </trkpt>
      <trkpt lat="45.49273" lon="6.73158">
        <ele>2571.8</ele>
        <time>2021-08-15T10:12:33Z</time>
      </trkpt>
      <trkpt lat="45.49272" lon="6.73158">
        <ele>2571.8</ele>
        <time>2021-08-15T10:12:34Z</time>
      </trkpt>
      <trkpt lat="45.49271" lon="6.73158">
        <ele>2571.7</ele>
        <time>2021-08-15T10:12:35Z</time>
      </trkpt>
      <trkpt lat="45.4927" lon="6.73157">
        <ele>2571.6</ele>
        <time>2021-08-15T10:12:36Z</time>
      </trkpt>
      <trkpt lat="45.4927" lon="6.73157">
        <ele>2571.5</ele>
        <time>2021-08-15T10:12:37Z</time>
      </trkpt>
      <trkpt lat="45.49269" lon="6.73157">
        <ele>2571.4</ele>
        <time>2021-08-15T10:12:38Z</time>
      </trkpt>
      <trkpt lat="45.49268" lon="6.73157">
        <ele>2571.4</ele>
        <time>2021-08-15T10:12:39Z</time>
      </trkpt>
      <trkpt lat="45.49267" lon="6.73157">
        <ele>2571.3</ele>
        <time>2021-08-15T10:12:40Z</time>
      </trkpt>
      <trkpt lat="45.49267" lon="6.73156">
        <ele>2571.2</ele>
        <time>2021-08-15T10:12:41Z</time>
      </trkpt>
      <trkpt lat="45.49266" lon="6.73156">
        <ele>2571.1</ele>
        <time>2021-08-15T10:12:42Z</time>
      </trkpt>
      <trkpt lat="45.49265" lon="6.73156">
        <ele>2571</ele>
        <time>2021-08-15T10:12:43Z</time>
      </trkpt>
      <trkpt lat="45.49264" lon="6.73156">
        <ele>2570.9</ele>
        <time>2021-08-15T10:12:44Z</time>
      </trkpt>
      <trkpt lat="45.49264" lon="6.73156">
        <ele>2570.9</ele>
        <time>2021-08-15T10:12:45Z</time>
      </trkpt>
      <trkpt lat="45.49263" lon="6.73156">
        <ele>2570.8</ele>
        <time>2021-08-15T10:12:46Z</time>
      </trkpt>
      <trkpt lat="45.49262" lon="6.73156">
        <ele>2570.7</ele>
        <time>2021-08-15T10:12:47Z</time>
      </trkpt>
      <trkpt lat="45.49262" lon="6.73155">
        <ele>2570.6</ele>
        <time>2021-08-15T10:12:48Z</time>
      </trkpt>
      <trkpt lat="45.49261" lon="6.73155">
        <ele>2570.6</ele>
        <time>2021-08-15T10:12:49Z</time>
      </trkpt>
      <trkpt lat="45.49261" lon="6.73155">
        <ele>2570.6</ele>
        <time>2021-08-15T10:12:50Z</time>
      </trkpt>
      <trkpt lat="45.49261" lon="6.73155">
        <ele>2570.5</ele>
        <time>2021-08-15T10:12:51Z</time>
      </trkpt>
      <trkpt lat="45.49261" lon="6.73155">
        <ele>2570.5</ele>
        <time>2021-08-15T10:12:52Z</time>
      </trkpt>
      <trkpt lat="45.49261" lon="6.73155">
        <ele>2570.5</ele>
        <time>2021-08-15T10:12:53Z</time>
      </trkpt>
      <trkpt lat="45.49261" lon="6.73155">
        <ele>2570.5</ele>
        <time>2021-08-15T10:12:54Z</time>
      </trkpt>
      <trkpt lat="45.49261" lon="6.73155">
        <ele>2570.5</ele>
        <time>2021-08-15T10:12:55Z</time>
      </trkpt>
      <trkpt lat="45.49261" lon="6.73155">
        <ele>2570.5</ele>
        <time>2021-08-15T10:12:56Z</time>
      </trkpt>
      <trkpt lat="45.49261" lon="6.73154">
        <ele>2570.4</ele>
        <time>2021-08-15T10:12:57Z</time>
      </trkpt>
      <trkpt lat="45.4926" lon="6.73154">
        <ele>2570.4</ele>
        <time>2021-08-15T10:12:58Z</time>
      </trkpt>
      <trkpt lat="45.49259" lon="6.73154">
        <ele>2570.3</ele>
        <time>2021-08-15T10:12:59Z</time>
      </trkpt>
      <trkpt lat="45.49258" lon="6.73154">
        <ele>2570.2</ele>
        <time>2021-08-15T10:13:00Z</time>
      </trkpt>
      <trkpt lat="45.49258" lon="6.73154">
        <ele>2570.1</ele>
        <time>2021-08-15T10:13:01Z</time>
      </trkpt>
      <trkpt lat="45.49257" lon="6.73154">
        <ele>2570</ele>
        <time>2021-08-15T10:13:02Z</time>
      </trkpt>
      <trkpt lat="45.49256" lon="6.73154">
        <ele>2569.9</ele>
        <time>2021-08-15T10:13:03Z</time>
      </trkpt>
      <trkpt lat="45.49255" lon="6.73155">
        <ele>2569.8</ele>
        <time>2021-08-15T10:13:04Z</time>
      </trkpt>
      <trkpt lat="45.49254" lon="6.73155">
        <ele>2569.7</ele>
        <time>2021-08-15T10:13:05Z</time>
      </trkpt>
      <trkpt lat="45.49253" lon="6.73154">
        <ele>2569.6</ele>
        <time>2021-08-15T10:13:06Z</time>
      </trkpt>
      <trkpt lat="45.49252" lon="6.73154">
        <ele>2569.5</ele>
        <time>2021-08-15T10:13:07Z</time>
      </trkpt>
      <trkpt lat="45.49251" lon="6.73154">
        <ele>2569.4</ele>
        <time>2021-08-15T10:13:08Z</time>
      </trkpt>
      <trkpt lat="45.4925" lon="6.73154">
        <ele>2569.3</ele>
        <time>2021-08-15T10:13:09Z</time>
      </trkpt>
      <trkpt lat="45.49249" lon="6.73154">
        <ele>2569.2</ele>
        <time>2021-08-15T10:13:10Z</time>
      </trkpt>
      <trkpt lat="45.49248" lon="6.73154">
        <ele>2569.1</ele>
        <time>2021-08-15T10:13:11Z</time>
      </trkpt>
      <trkpt lat="45.49247" lon="6.73154">
        <ele>2569</ele>
        <time>2021-08-15T10:13:12Z</time>
      </trkpt>
      <trkpt lat="45.49246" lon="6.73154">
        <ele>2568.9</ele>
        <time>2021-08-15T10:13:13Z</time>
      </trkpt>
      <trkpt lat="45.49245" lon="6.73154">
        <ele>2568.8</ele>
        <time>2021-08-15T10:13:14Z</time>
      </trkpt>
      <trkpt lat="45.49244" lon="6.73154">
        <ele>2568.7</ele>
        <time>2021-08-15T10:13:15Z</time>
      </trkpt>
      <trkpt lat="45.49243" lon="6.73154">
        <ele>2568.7</ele>
        <time>2021-08-15T10:13:16Z</time>
      </trkpt>
      <trkpt lat="45.49243" lon="6.73154">
        <ele>2568.6</ele>
        <time>2021-08-15T10:13:17Z</time>
      </trkpt>
      <trkpt lat="45.49242" lon="6.73154">
        <ele>2568.5</ele>
        <time>2021-08-15T10:13:18Z</time>
      </trkpt>
      <trkpt lat="45.49241" lon="6.73154">
        <ele>2568.4</ele>
        <time>2021-08-15T10:13:19Z</time>
      </trkpt>
      <trkpt lat="45.4924" lon="6.73155">
        <ele>2568.4</ele>
        <time>2021-08-15T10:13:20Z</time>
      </trkpt>
      <trkpt lat="45.49239" lon="6.73155">
        <ele>2568.3</ele>
        <time>2021-08-15T10:13:21Z</time>
      </trkpt>
      <trkpt lat="45.49239" lon="6.73155">
        <ele>2568.2</ele>
        <time>2021-08-15T10:13:22Z</time>
      </trkpt>
      <trkpt lat="45.49238" lon="6.73155">
        <ele>2568.1</ele>
        <time>2021-08-15T10:13:23Z</time>
      </trkpt>
      <trkpt lat="45.49237" lon="6.73156">
        <ele>2568</ele>
        <time>2021-08-15T10:13:24Z</time>
      </trkpt>
      <trkpt lat="45.49236" lon="6.73156">
        <ele>2568</ele>
        <time>2021-08-15T10:13:25Z</time>
      </trkpt>
      <trkpt lat="45.49235" lon="6.73156">
        <ele>2567.9</ele>
        <time>2021-08-15T10:13:26Z</time>
      </trkpt>
      <trkpt lat="45.49234" lon="6.73157">
        <ele>2567.8</ele>
        <time>2021-08-15T10:13:27Z</time>
      </trkpt>
      <trkpt lat="45.49234" lon="6.73157">
        <ele>2567.7</ele>
        <time>2021-08-15T10:13:28Z</time>
      </trkpt>
      <trkpt lat="45.49233" lon="6.73157">
        <ele>2567.6</ele>
        <time>2021-08-15T10:13:29Z</time>
      </trkpt>
      <trkpt lat="45.49232" lon="6.73158">
        <ele>2567.5</ele>
        <time>2021-08-15T10:13:30Z</time>
      </trkpt>
      <trkpt lat="45.49231" lon="6.73158">
        <ele>2567.5</ele>
        <time>2021-08-15T10:13:31Z</time>
      </trkpt>
      <trkpt lat="45.4923" lon="6.73158">
        <ele>2567.4</ele>
        <time>2021-08-15T10:13:32Z</time>
      </trkpt>
      <trkpt lat="45.49229" lon="6.73158">
        <ele>2567.3</ele>
        <time>2021-08-15T10:13:33Z</time>
      </trkpt>
      <trkpt lat="45.49229" lon="6.73159">
        <ele>2567.2</ele>
        <time>2021-08-15T10:13:34Z</time>
      </trkpt>
      <trkpt lat="45.49228" lon="6.73159">
        <ele>2567.1</ele>
        <time>2021-08-15T10:13:35Z</time>
      </trkpt>
      <trkpt lat="45.49227" lon="6.73159">
        <ele>2567.1</ele>
        <time>2021-08-15T10:13:36Z</time>
      </trkpt>
      <trkpt lat="45.49226" lon="6.73159">
        <ele>2567</ele>
        <time>2021-08-15T10:13:37Z</time>
      </trkpt>
      <trkpt lat="45.49225" lon="6.73159">
        <ele>2566.9</ele>
        <time>2021-08-15T10:13:38Z</time>
      </trkpt>
      <trkpt lat="45.49224" lon="6.73159">
        <ele>2566.8</ele>
        <time>2021-08-15T10:13:39Z</time>
      </trkpt>
      <trkpt lat="45.49223" lon="6.73159">
        <ele>2566.7</ele>
        <time>2021-08-15T10:13:40Z</time>
      </trkpt>
      <trkpt lat="45.49223" lon="6.73159">
        <ele>2566.6</ele>
        <time>2021-08-15T10:13:41Z</time>
      </trkpt>
      <trkpt lat="45.49222" lon="6.73159">
        <ele>2566.6</ele>
        <time>2021-08-15T10:13:42Z</time>
      </trkpt>
      <trkpt lat="45.49221" lon="6.73159">
        <ele>2566.5</ele>
        <time>2021-08-15T10:13:43Z</time>
      </trkpt>
      <trkpt lat="45.4922" lon="6.73159">
        <ele>2566.4</ele>
        <time>2021-08-15T10:13:44Z</time>
      </trkpt>
      <trkpt lat="45.49219" lon="6.73158">
        <ele>2566.3</ele>
        <time>2021-08-15T10:13:45Z</time>
      </trkpt>
      <trkpt lat="45.49218" lon="6.73158">
        <ele>2566.2</ele>
        <time>2021-08-15T10:13:46Z</time>
      </trkpt>
      <trkpt lat="45.49217" lon="6.73158">
        <ele>2566.1</ele>
        <time>2021-08-15T10:13:47Z</time>
      </trkpt>
      <trkpt lat="45.49216" lon="6.73158">
        <ele>2566</ele>
        <time>2021-08-15T10:13:48Z</time>
      </trkpt>
      <trkpt lat="45.49216" lon="6.73157">
        <ele>2565.9</ele>
        <time>2021-08-15T10:13:49Z</time>
      </trkpt>
      <trkpt lat="45.49215" lon="6.73157">
        <ele>2565.8</ele>
        <time>2021-08-15T10:13:50Z</time>
      </trkpt>
      <trkpt lat="45.49214" lon="6.73157">
        <ele>2565.8</ele>
        <time>2021-08-15T10:13:51Z</time>
      </trkpt>
      <trkpt lat="45.49213" lon="6.73156">
        <ele>2565.7</ele>
        <time>2021-08-15T10:13:52Z</time>
      </trkpt>
      <trkpt lat="45.49213" lon="6.73156">
        <ele>2565.6</ele>
        <time>2021-08-15T10:13:53Z</time>
      </trkpt>
      <trkpt lat="45.49212" lon="6.73156">
        <ele>2565.5</ele>
        <time>2021-08-15T10:13:54Z</time>
      </trkpt>
      <trkpt lat="45.49211" lon="6.73155">
        <ele>2565.4</ele>
        <time>2021-08-15T10:13:55Z</time>
      </trkpt>
      <trkpt lat="45.49211" lon="6.73155">
        <ele>2565.4</ele>
        <time>2021-08-15T10:13:56Z</time>
      </trkpt>
      <trkpt lat="45.4921" lon="6.73155">
        <ele>2565.3</ele>
        <time>2021-08-15T10:13:57Z</time>
      </trkpt>
      <trkpt lat="45.49209" lon="6.73154">
        <ele>2565.2</ele>
        <time>2021-08-15T10:13:58Z</time>
      </trkpt>
      <trkpt lat="45.49209" lon="6.73154">
        <ele>2565.1</ele>
        <time>2021-08-15T10:13:59Z</time>
      </trkpt>
      <trkpt lat="45.49208" lon="6.73153">
        <ele>2565</ele>
        <time>2021-08-15T10:14:00Z</time>
      </trkpt>
      <trkpt lat="45.49207" lon="6.73153">
        <ele>2564.9</ele>
        <time>2021-08-15T10:14:01Z</time>
      </trkpt>
      <trkpt lat="45.49206" lon="6.73152">
        <ele>2564.8</ele>
        <time>2021-08-15T10:14:02Z</time>
      </trkpt>
      <trkpt lat="45.49206" lon="6.73152">
        <ele>2564.7</ele>
        <time>2021-08-15T10:14:03Z</time>
      </trkpt>
      <trkpt lat="45.49205" lon="6.73151">
        <ele>2564.6</ele>
        <time>2021-08-15T10:14:04Z</time>
      </trkpt>
      <trkpt lat="45.49204" lon="6.73151">
        <ele>2564.5</ele>
        <time>2021-08-15T10:14:05Z</time>
      </trkpt>
      <trkpt lat="45.49203" lon="6.7315">
        <ele>2564.4</ele>
        <time>2021-08-15T10:14:06Z</time>
      </trkpt>
      <trkpt lat="45.49203" lon="6.7315">
        <ele>2564.3</ele>
        <time>2021-08-15T10:14:07Z</time>
      </trkpt>
      <trkpt lat="45.49202" lon="6.73149">
        <ele>2564.2</ele>
        <time>2021-08-15T10:14:08Z</time>
      </trkpt>
      <trkpt lat="45.49201" lon="6.73149">
        <ele>2564.1</ele>
        <time>2021-08-15T10:14:09Z</time>
      </trkpt>
      <trkpt lat="45.492" lon="6.73148">
        <ele>2564</ele>
        <time>2021-08-15T10:14:10Z</time>
      </trkpt>
      <trkpt lat="45.492" lon="6.73148">
        <ele>2563.9</ele>
        <time>2021-08-15T10:14:11Z</time>
      </trkpt>
      <trkpt lat="45.49199" lon="6.73147">
        <ele>2563.8</ele>
        <time>2021-08-15T10:14:12Z</time>
      </trkpt>
      <trkpt lat="45.49198" lon="6.73147">
        <ele>2563.7</ele>
        <time>2021-08-15T10:14:13Z</time>
      </trkpt>
      <trkpt lat="45.49197" lon="6.73147">
        <ele>2563.6</ele>
        <time>2021-08-15T10:14:14Z</time>
      </trkpt>
      <trkpt lat="45.49196" lon="6.73146">
        <ele>2563.5</ele>
        <time>2021-08-15T10:14:15Z</time>
      </trkpt>
      <trkpt lat="45.49196" lon="6.73146">
        <ele>2563.4</ele>
        <time>2021-08-15T10:14:16Z</time>
      </trkpt>
      <trkpt lat="45.49195" lon="6.73145">
        <ele>2563.3</ele>
        <time>2021-08-15T10:14:17Z</time>
      </trkpt>
      <trkpt lat="45.49194" lon="6.73145">
        <ele>2563.2</ele>
        <time>2021-08-15T10:14:18Z</time>
      </trkpt>
      <trkpt lat="45.49193" lon="6.73144">
        <ele>2563.1</ele>
        <time>2021-08-15T10:14:19Z</time>
      </trkpt>
      <trkpt lat="45.49192" lon="6.73144">
        <ele>2562.9</ele>
        <time>2021-08-15T10:14:20Z</time>
      </trkpt>
      <trkpt lat="45.49192" lon="6.73144">
        <ele>2562.8</ele>
        <time>2021-08-15T10:14:21Z</time>
      </trkpt>
      <trkpt lat="45.49191" lon="6.73143">
        <ele>2562.7</ele>
        <time>2021-08-15T10:14:22Z</time>
      </trkpt>
      <trkpt lat="45.4919" lon="6.73143">
        <ele>2562.6</ele>
        <time>2021-08-15T10:14:23Z</time>
      </trkpt>
      <trkpt lat="45.49189" lon="6.73142">
        <ele>2562.5</ele>
        <time>2021-08-15T10:14:24Z</time>
      </trkpt>
      <trkpt lat="45.49188" lon="6.73142">
        <ele>2562.4</ele>
        <time>2021-08-15T10:14:25Z</time>
      </trkpt>
      <trkpt lat="45.49187" lon="6.73141">
        <ele>2562.3</ele>
        <time>2021-08-15T10:14:26Z</time>
      </trkpt>
      <trkpt lat="45.49186" lon="6.73141">
        <ele>2562.1</ele>
        <time>2021-08-15T10:14:27Z</time>
      </trkpt>
      <trkpt lat="45.49186" lon="6.7314">
        <ele>2562</ele>
        <time>2021-08-15T10:14:28Z</time>
      </trkpt>
      <trkpt lat="45.49185" lon="6.7314">
        <ele>2561.9</ele>
        <time>2021-08-15T10:14:29Z</time>
      </trkpt>
      <trkpt lat="45.49184" lon="6.73139">
        <ele>2561.8</ele>
        <time>2021-08-15T10:14:30Z</time>
      </trkpt>
      <trkpt lat="45.49183" lon="6.73139">
        <ele>2561.7</ele>
        <time>2021-08-15T10:14:31Z</time>
      </trkpt>
      <trkpt lat="45.49182" lon="6.73138">
        <ele>2561.5</ele>
        <time>2021-08-15T10:14:32Z</time>
      </trkpt>
      <trkpt lat="45.49181" lon="6.73138">
        <ele>2561.4</ele>
        <time>2021-08-15T10:14:33Z</time>
      </trkpt>
      <trkpt lat="45.49181" lon="6.73137">
        <ele>2561.3</ele>
        <time>2021-08-15T10:14:34Z</time>
      </trkpt>
      <trkpt lat="45.4918" lon="6.73137">
        <ele>2561.2</ele>
        <time>2021-08-15T10:14:35Z</time>
      </trkpt>
      <trkpt lat="45.49179" lon="6.73136">
        <ele>2561.1</ele>
        <time>2021-08-15T10:14:36Z</time>
      </trkpt>
      <trkpt lat="45.49178" lon="6.73135">
        <ele>2561</ele>
        <time>2021-08-15T10:14:37Z</time>
      </trkpt>
      <trkpt lat="45.49177" lon="6.73135">
        <ele>2560.8</ele>
        <time>2021-08-15T10:14:38Z</time>
      </trkpt>
      <trkpt lat="45.49177" lon="6.73134">
        <ele>2560.7</ele>
        <time>2021-08-15T10:14:39Z</time>
      </trkpt>
      <trkpt lat="45.49176" lon="6.73133">
        <ele>2560.6</ele>
        <time>2021-08-15T10:14:40Z</time>
      </trkpt>
      <trkpt lat="45.49175" lon="6.73133">
        <ele>2560.5</ele>
        <time>2021-08-15T10:14:41Z</time>
      </trkpt>
      <trkpt lat="45.49174" lon="6.73132">
        <ele>2560.4</ele>
        <time>2021-08-15T10:14:42Z</time>
      </trkpt>
      <trkpt lat="45.49174" lon="6.73131">
        <ele>2560.3</ele>
        <time>2021-08-15T10:14:43Z</time>
      </trkpt>
      <trkpt lat="45.49173" lon="6.73131">
        <ele>2560.2</ele>
        <time>2021-08-15T10:14:44Z</time>
      </trkpt>
      <trkpt lat="45.49172" lon="6.7313">
        <ele>2560.1</ele>
        <time>2021-08-15T10:14:45Z</time>
      </trkpt>
      <trkpt lat="45.49171" lon="6.73129">
        <ele>2560</ele>
        <time>2021-08-15T10:14:46Z</time>
      </trkpt>
      <trkpt lat="45.49171" lon="6.73128">
        <ele>2559.9</ele>
        <time>2021-08-15T10:14:47Z</time>
      </trkpt>
      <trkpt lat="45.4917" lon="6.73128">
        <ele>2559.8</ele>
        <time>2021-08-15T10:14:48Z</time>
      </trkpt>
      <trkpt lat="45.4917" lon="6.73127">
        <ele>2559.7</ele>
        <time>2021-08-15T10:14:49Z</time>
      </trkpt>
      <trkpt lat="45.49169" lon="6.73126">
        <ele>2559.6</ele>
        <time>2021-08-15T10:14:50Z</time>
      </trkpt>
      <trkpt lat="45.49168" lon="6.73126">
        <ele>2559.5</ele>
        <time>2021-08-15T10:14:51Z</time>
      </trkpt>
      <trkpt lat="45.49168" lon="6.73125">
        <ele>2559.5</ele>
        <time>2021-08-15T10:14:52Z</time>
      </trkpt>
      <trkpt lat="45.49167" lon="6.73124">
        <ele>2559.4</ele>
        <time>2021-08-15T10:14:53Z</time>
      </trkpt>
      <trkpt lat="45.49167" lon="6.73124">
        <ele>2559.3</ele>
        <time>2021-08-15T10:14:54Z</time>
      </trkpt>
      <trkpt lat="45.49166" lon="6.73123">
        <ele>2559.2</ele>
        <time>2021-08-15T10:14:55Z</time>
      </trkpt>
      <trkpt lat="45.49165" lon="6.73122">
        <ele>2559.1</ele>
        <time>2021-08-15T10:14:56Z</time>
      </trkpt>
      <trkpt lat="45.49164" lon="6.73122">
        <ele>2559</ele>
        <time>2021-08-15T10:14:57Z</time>
      </trkpt>
      <trkpt lat="45.49163" lon="6.73121">
        <ele>2558.9</ele>
        <time>2021-08-15T10:14:58Z</time>
      </trkpt>
      <trkpt lat="45.49163" lon="6.7312">
        <ele>2558.8</ele>
        <time>2021-08-15T10:14:59Z</time>
      </trkpt>
      <trkpt lat="45.49162" lon="6.73119">
        <ele>2558.7</ele>
        <time>2021-08-15T10:15:00Z</time>
      </trkpt>
      <trkpt lat="45.49161" lon="6.73118">
        <ele>2558.6</ele>
        <time>2021-08-15T10:15:01Z</time>
      </trkpt>
      <trkpt lat="45.49161" lon="6.73117">
        <ele>2558.5</ele>
        <time>2021-08-15T10:15:02Z</time>
      </trkpt>
      <trkpt lat="45.4916" lon="6.73116">
        <ele>2558.4</ele>
        <time>2021-08-15T10:15:03Z</time>
      </trkpt>
      <trkpt lat="45.4916" lon="6.73115">
        <ele>2558.3</ele>
        <time>2021-08-15T10:15:04Z</time>
      </trkpt>
      <trkpt lat="45.49159" lon="6.73114">
        <ele>2558.2</ele>
        <time>2021-08-15T10:15:05Z</time>
      </trkpt>
      <trkpt lat="45.49159" lon="6.73113">
        <ele>2558.1</ele>
        <time>2021-08-15T10:15:06Z</time>
      </trkpt>
      <trkpt lat="45.49158" lon="6.73112">
        <ele>2558</ele>
        <time>2021-08-15T10:15:07Z</time>
      </trkpt>
      <trkpt lat="45.49158" lon="6.73111">
        <ele>2557.9</ele>
        <time>2021-08-15T10:15:08Z</time>
      </trkpt>
      <trkpt lat="45.49158" lon="6.7311">
        <ele>2557.8</ele>
        <time>2021-08-15T10:15:09Z</time>
      </trkpt>
      <trkpt lat="45.49157" lon="6.73109">
        <ele>2557.7</ele>
        <time>2021-08-15T10:15:10Z</time>
      </trkpt>
      <trkpt lat="45.49157" lon="6.73107">
        <ele>2557.6</ele>
        <time>2021-08-15T10:15:11Z</time>
      </trkpt>
      <trkpt lat="45.49156" lon="6.73106">
        <ele>2557.4</ele>
        <time>2021-08-15T10:15:12Z</time>
      </trkpt>
      <trkpt lat="45.49156" lon="6.73105">
        <ele>2557.3</ele>
        <time>2021-08-15T10:15:13Z</time>
      </trkpt>
      <trkpt lat="45.49156" lon="6.73104">
        <ele>2557.2</ele>
        <time>2021-08-15T10:15:14Z</time>
      </trkpt>
      <trkpt lat="45.49155" lon="6.73103">
        <ele>2557.1</ele>
        <time>2021-08-15T10:15:15Z</time>
      </trkpt>
      <trkpt lat="45.49155" lon="6.73102">
        <ele>2557</ele>
        <time>2021-08-15T10:15:16Z</time>
      </trkpt>
      <trkpt lat="45.49154" lon="6.731">
        <ele>2556.8</ele>
        <time>2021-08-15T10:15:17Z</time>
      </trkpt>
      <trkpt lat="45.49154" lon="6.73099">
        <ele>2556.7</ele>
        <time>2021-08-15T10:15:18Z</time>
      </trkpt>
      <trkpt lat="45.49154" lon="6.73098">
        <ele>2556.6</ele>
        <time>2021-08-15T10:15:19Z</time>
      </trkpt>
      <trkpt lat="45.49153" lon="6.73097">
        <ele>2556.5</ele>
        <time>2021-08-15T10:15:20Z</time>
      </trkpt>
      <trkpt lat="45.49153" lon="6.73096">
        <ele>2556.3</ele>
        <time>2021-08-15T10:15:21Z</time>
      </trkpt>
      <trkpt lat="45.49153" lon="6.73094">
        <ele>2556.2</ele>
        <time>2021-08-15T10:15:22Z</time>
      </trkpt>
      <trkpt lat="45.49152" lon="6.73093">
        <ele>2556</ele>
        <time>2021-08-15T10:15:23Z</time>
      </trkpt>
      <trkpt lat="45.49152" lon="6.73092">
        <ele>2555.9</ele>
        <time>2021-08-15T10:15:24Z</time>
      </trkpt>
      <trkpt lat="45.49152" lon="6.73091">
        <ele>2555.8</ele>
        <time>2021-08-15T10:15:25Z</time>
      </trkpt>
      <trkpt lat="45.49152" lon="6.7309">
        <ele>2555.6</ele>
        <time>2021-08-15T10:15:26Z</time>
      </trkpt>
      <trkpt lat="45.49152" lon="6.73088">
        <ele>2555.5</ele>
        <time>2021-08-15T10:15:27Z</time>
      </trkpt>
      <trkpt lat="45.49152" lon="6.73087">
        <ele>2555.4</ele>
        <time>2021-08-15T10:15:28Z</time>
      </trkpt>
      <trkpt lat="45.49152" lon="6.73086">
        <ele>2555.2</ele>
        <time>2021-08-15T10:15:29Z</time>
      </trkpt>
      <trkpt lat="45.49152" lon="6.73085">
        <ele>2555.1</ele>
        <time>2021-08-15T10:15:30Z</time>
      </trkpt>
      <trkpt lat="45.49152" lon="6.73083">
        <ele>2554.9</ele>
        <time>2021-08-15T10:15:31Z</time>
      </trkpt>
      <trkpt lat="45.49152" lon="6.73082">
        <ele>2554.8</ele>
        <time>2021-08-15T10:15:32Z</time>
      </trkpt>
      <trkpt lat="45.49153" lon="6.73081">
        <ele>2554.6</ele>
        <time>2021-08-15T10:15:33Z</time>
      </trkpt>
      <trkpt lat="45.49153" lon="6.7308">
        <ele>2554.5</ele>
        <time>2021-08-15T10:15:34Z</time>
      </trkpt>
      <trkpt lat="45.49153" lon="6.73079">
        <ele>2554.4</ele>
        <time>2021-08-15T10:15:35Z</time>
      </trkpt>
      <trkpt lat="45.49154" lon="6.73077">
        <ele>2554.2</ele>
        <time>2021-08-15T10:15:36Z</time>
      </trkpt>
      <trkpt lat="45.49154" lon="6.73076">
        <ele>2554.1</ele>
        <time>2021-08-15T10:15:37Z</time>
      </trkpt>
      <trkpt lat="45.49154" lon="6.73075">
        <ele>2553.9</ele>
        <time>2021-08-15T10:15:38Z</time>
      </trkpt>
      <trkpt lat="45.49155" lon="6.73074">
        <ele>2553.8</ele>
        <time>2021-08-15T10:15:39Z</time>
      </trkpt>
      <trkpt lat="45.49155" lon="6.73073">
        <ele>2553.6</ele>
        <time>2021-08-15T10:15:40Z</time>
      </trkpt>
      <trkpt lat="45.49155" lon="6.73071">
        <ele>2553.5</ele>
        <time>2021-08-15T10:15:41Z</time>
      </trkpt>
      <trkpt lat="45.49156" lon="6.7307">
        <ele>2553.3</ele>
        <time>2021-08-15T10:15:42Z</time>
      </trkpt>
      <trkpt lat="45.49156" lon="6.73069">
        <ele>2553.2</ele>
        <time>2021-08-15T10:15:43Z</time>
      </trkpt>
      <trkpt lat="45.49156" lon="6.73068">
        <ele>2553.1</ele>
        <time>2021-08-15T10:15:44Z</time>
      </trkpt>
      <trkpt lat="45.49156" lon="6.73067">
        <ele>2553</ele>
        <time>2021-08-15T10:15:45Z</time>
      </trkpt>
      <trkpt lat="45.49157" lon="6.73066">
        <ele>2552.8</ele>
        <time>2021-08-15T10:15:46Z</time>
      </trkpt>
      <trkpt lat="45.49157" lon="6.73065">
        <ele>2552.7</ele>
        <time>2021-08-15T10:15:47Z</time>
      </trkpt>
      <trkpt lat="45.49157" lon="6.73064">
        <ele>2552.6</ele>
        <time>2021-08-15T10:15:48Z</time>
      </trkpt>
      <trkpt lat="45.49157" lon="6.73063">
        <ele>2552.5</ele>
        <time>2021-08-15T10:15:49Z</time>
      </trkpt>
      <trkpt lat="45.49157" lon="6.73061">
        <ele>2552.4</ele>
        <time>2021-08-15T10:15:50Z</time>
      </trkpt>
      <trkpt lat="45.49158" lon="6.7306">
        <ele>2552.3</ele>
        <time>2021-08-15T10:15:51Z</time>
      </trkpt>
      <trkpt lat="45.49158" lon="6.73059">
        <ele>2552.2</ele>
        <time>2021-08-15T10:15:52Z</time>
      </trkpt>
      <trkpt lat="45.49158" lon="6.73058">
        <ele>2552</ele>
        <time>2021-08-15T10:15:53Z</time>
      </trkpt>
      <trkpt lat="45.49158" lon="6.73057">
        <ele>2551.9</ele>
        <time>2021-08-15T10:15:54Z</time>
      </trkpt>
      <trkpt lat="45.49158" lon="6.73056">
        <ele>2551.8</ele>
        <time>2021-08-15T10:15:55Z</time>
      </trkpt>
      <trkpt lat="45.49158" lon="6.73055">
        <ele>2551.7</ele>
        <time>2021-08-15T10:15:56Z</time>
      </trkpt>
      <trkpt lat="45.49158" lon="6.73054">
        <ele>2551.6</ele>
        <time>2021-08-15T10:15:57Z</time>
      </trkpt>
      <trkpt lat="45.49158" lon="6.73053">
        <ele>2551.6</ele>
        <time>2021-08-15T10:15:58Z</time>
      </trkpt>
      <trkpt lat="45.49158" lon="6.73052">
        <ele>2551.5</ele>
        <time>2021-08-15T10:15:59Z</time>
      </trkpt>
      <trkpt lat="45.49158" lon="6.73051">
        <ele>2551.4</ele>
        <time>2021-08-15T10:16:00Z</time>
      </trkpt>
      <trkpt lat="45.49158" lon="6.7305">
        <ele>2551.3</ele>
        <time>2021-08-15T10:16:01Z</time>
      </trkpt>
      <trkpt lat="45.49158" lon="6.73049">
        <ele>2551.2</ele>
        <time>2021-08-15T10:16:02Z</time>
      </trkpt>
      <trkpt lat="45.49158" lon="6.73047">
        <ele>2551.1</ele>
        <time>2021-08-15T10:16:03Z</time>
      </trkpt>
      <trkpt lat="45.49158" lon="6.73046">
        <ele>2551</ele>
        <time>2021-08-15T10:16:04Z</time>
      </trkpt>
      <trkpt lat="45.49158" lon="6.73045">
        <ele>2550.9</ele>
        <time>2021-08-15T10:16:05Z</time>
      </trkpt>
      <trkpt lat="45.49157" lon="6.73044">
        <ele>2550.8</ele>
        <time>2021-08-15T10:16:06Z</time>
      </trkpt>
      <trkpt lat="45.49157" lon="6.73043">
        <ele>2550.7</ele>
        <time>2021-08-15T10:16:07Z</time>
      </trkpt>
      <trkpt lat="45.49157" lon="6.73042">
        <ele>2550.6</ele>
        <time>2021-08-15T10:16:08Z</time>
      </trkpt>
      <trkpt lat="45.49157" lon="6.73041">
        <ele>2550.5</ele>
        <time>2021-08-15T10:16:09Z</time>
      </trkpt>
      <trkpt lat="45.49156" lon="6.7304">
        <ele>2550.4</ele>
        <time>2021-08-15T10:16:10Z</time>
      </trkpt>
      <trkpt lat="45.49156" lon="6.73039">
        <ele>2550.3</ele>
        <time>2021-08-15T10:16:11Z</time>
      </trkpt>
      <trkpt lat="45.49156" lon="6.73038">
        <ele>2550.2</ele>
        <time>2021-08-15T10:16:12Z</time>
      </trkpt>
      <trkpt lat="45.49155" lon="6.73037">
        <ele>2550.1</ele>
        <time>2021-08-15T10:16:13Z</time>
      </trkpt>
      <trkpt lat="45.49155" lon="6.73036">
        <ele>2550</ele>
        <time>2021-08-15T10:16:14Z</time>
      </trkpt>
      <trkpt lat="45.49154" lon="6.73035">
        <ele>2549.9</ele>
        <time>2021-08-15T10:16:15Z</time>
      </trkpt>
      <trkpt lat="45.49154" lon="6.73034">
        <ele>2549.8</ele>
        <time>2021-08-15T10:16:16Z</time>
      </trkpt>
      <trkpt lat="45.49153" lon="6.73033">
        <ele>2549.7</ele>
        <time>2021-08-15T10:16:17Z</time>
      </trkpt>
      <trkpt lat="45.49153" lon="6.73032">
        <ele>2549.6</ele>
        <time>2021-08-15T10:16:18Z</time>
      </trkpt>
      <trkpt lat="45.49152" lon="6.73031">
        <ele>2549.5</ele>
        <time>2021-08-15T10:16:19Z</time>
      </trkpt>
      <trkpt lat="45.49151" lon="6.7303">
        <ele>2549.3</ele>
        <time>2021-08-15T10:16:20Z</time>
      </trkpt>
      <trkpt lat="45.4915" lon="6.73029">
        <ele>2549.2</ele>
        <time>2021-08-15T10:16:21Z</time>
      </trkpt>
      <trkpt lat="45.4915" lon="6.73028">
        <ele>2549.1</ele>
        <time>2021-08-15T10:16:22Z</time>
      </trkpt>
      <trkpt lat="45.49149" lon="6.73027">
        <ele>2549</ele>
        <time>2021-08-15T10:16:23Z</time>
      </trkpt>
      <trkpt lat="45.49148" lon="6.73026">
        <ele>2548.9</ele>
        <time>2021-08-15T10:16:24Z</time>
      </trkpt>
      <trkpt lat="45.49147" lon="6.73025">
        <ele>2548.8</ele>
        <time>2021-08-15T10:16:25Z</time>
      </trkpt>
      <trkpt lat="45.49146" lon="6.73024">
        <ele>2548.7</ele>
        <time>2021-08-15T10:16:26Z</time>
      </trkpt>
      <trkpt lat="45.49146" lon="6.73023">
        <ele>2548.6</ele>
        <time>2021-08-15T10:16:27Z</time>
      </trkpt>
      <trkpt lat="45.49145" lon="6.73022">
        <ele>2548.5</ele>
        <time>2021-08-15T10:16:28Z</time>
      </trkpt>
      <trkpt lat="45.49144" lon="6.73021">
        <ele>2548.4</ele>
        <time>2021-08-15T10:16:29Z</time>
      </trkpt>
      <trkpt lat="45.49144" lon="6.7302">
        <ele>2548.3</ele>
        <time>2021-08-15T10:16:30Z</time>
      </trkpt>
      <trkpt lat="45.49143" lon="6.7302">
        <ele>2548.2</ele>
        <time>2021-08-15T10:16:31Z</time>
      </trkpt>
      <trkpt lat="45.49142" lon="6.73019">
        <ele>2548.1</ele>
        <time>2021-08-15T10:16:32Z</time>
      </trkpt>
      <trkpt lat="45.49142" lon="6.73018">
        <ele>2548</ele>
        <time>2021-08-15T10:16:33Z</time>
      </trkpt>
      <trkpt lat="45.49141" lon="6.73017">
        <ele>2547.9</ele>
        <time>2021-08-15T10:16:34Z</time>
      </trkpt>
      <trkpt lat="45.4914" lon="6.73016">
        <ele>2547.8</ele>
        <time>2021-08-15T10:16:35Z</time>
      </trkpt>
      <trkpt lat="45.4914" lon="6.73015">
        <ele>2547.7</ele>
        <time>2021-08-15T10:16:36Z</time>
      </trkpt>
      <trkpt lat="45.49139" lon="6.73014">
        <ele>2547.7</ele>
        <time>2021-08-15T10:16:37Z</time>
      </trkpt>
      <trkpt lat="45.49138" lon="6.73013">
        <ele>2547.6</ele>
        <time>2021-08-15T10:16:38Z</time>
      </trkpt>
      <trkpt lat="45.49138" lon="6.73013">
        <ele>2547.5</ele>
        <time>2021-08-15T10:16:39Z</time>
      </trkpt>
      <trkpt lat="45.49137" lon="6.73012">
        <ele>2547.4</ele>
        <time>2021-08-15T10:16:40Z</time>
      </trkpt>
      <trkpt lat="45.49137" lon="6.73011">
        <ele>2547.3</ele>
        <time>2021-08-15T10:16:41Z</time>
      </trkpt>
      <trkpt lat="45.49136" lon="6.7301">
        <ele>2547.2</ele>
        <time>2021-08-15T10:16:42Z</time>
      </trkpt>
      <trkpt lat="45.49135" lon="6.73009">
        <ele>2547.1</ele>
        <time>2021-08-15T10:16:43Z</time>
      </trkpt>
      <trkpt lat="45.49135" lon="6.73008">
        <ele>2547</ele>
        <time>2021-08-15T10:16:44Z</time>
      </trkpt>
      <trkpt lat="45.49134" lon="6.73007">
        <ele>2546.9</ele>
        <time>2021-08-15T10:16:45Z</time>
      </trkpt>
      <trkpt lat="45.49133" lon="6.73006">
        <ele>2546.8</ele>
        <time>2021-08-15T10:16:46Z</time>
      </trkpt>
      <trkpt lat="45.49133" lon="6.73005">
        <ele>2546.7</ele>
        <time>2021-08-15T10:16:47Z</time>
      </trkpt>
      <trkpt lat="45.49132" lon="6.73004">
        <ele>2546.6</ele>
        <time>2021-08-15T10:16:48Z</time>
      </trkpt>
      <trkpt lat="45.49132" lon="6.73003">
        <ele>2546.5</ele>
        <time>2021-08-15T10:16:49Z</time>
      </trkpt>
      <trkpt lat="45.49131" lon="6.73003">
        <ele>2546.4</ele>
        <time>2021-08-15T10:16:50Z</time>
      </trkpt>
      <trkpt lat="45.49131" lon="6.73002">
        <ele>2546.4</ele>
        <time>2021-08-15T10:16:51Z</time>
      </trkpt>
      <trkpt lat="45.4913" lon="6.73002">
        <ele>2546.3</ele>
        <time>2021-08-15T10:16:52Z</time>
      </trkpt>
      <trkpt lat="45.4913" lon="6.73001">
        <ele>2546.3</ele>
        <time>2021-08-15T10:16:53Z</time>
      </trkpt>
      <trkpt lat="45.4913" lon="6.73001">
        <ele>2546.3</ele>
        <time>2021-08-15T10:16:54Z</time>
      </trkpt>
      <trkpt lat="45.4913" lon="6.73002">
        <ele>2546.3</ele>
        <time>2021-08-15T10:16:55Z</time>
      </trkpt>
      <trkpt lat="45.4913" lon="6.73002">
        <ele>2546.3</ele>
        <time>2021-08-15T10:16:56Z</time>
      </trkpt>
      <trkpt lat="45.4913" lon="6.73002">
        <ele>2546.3</ele>
        <time>2021-08-15T10:16:57Z</time>
      </trkpt>
      <trkpt lat="45.4913" lon="6.73002">
        <ele>2546.3</ele>
        <time>2021-08-15T10:16:58Z</time>
      </trkpt>
      <trkpt lat="45.49131" lon="6.73002">
        <ele>2546.2</ele>
        <time>2021-08-15T10:16:59Z</time>
      </trkpt>
      <trkpt lat="45.49131" lon="6.73002">
        <ele>2546.2</ele>
        <time>2021-08-15T10:17:00Z</time>
      </trkpt>
      <trkpt lat="45.49131" lon="6.73002">
        <ele>2546.2</ele>
        <time>2021-08-15T10:17:01Z</time>
      </trkpt>
      <trkpt lat="45.49131" lon="6.73003">
        <ele>2546.2</ele>
        <time>2021-08-15T10:17:02Z</time>
      </trkpt>
      <trkpt lat="45.49131" lon="6.73003">
        <ele>2546.2</ele>
        <time>2021-08-15T10:17:03Z</time>
      </trkpt>
      <trkpt lat="45.49131" lon="6.73003">
        <ele>2546.2</ele>
        <time>2021-08-15T10:17:04Z</time>
      </trkpt>
      <trkpt lat="45.49131" lon="6.73003">
        <ele>2546.2</ele>
        <time>2021-08-15T10:17:05Z</time>
      </trkpt>
      <trkpt lat="45.49131" lon="6.73003">
        <ele>2546.2</ele>
        <time>2021-08-15T10:17:06Z</time>
      </trkpt>
      <trkpt lat="45.49131" lon="6.73003">
        <ele>2546.2</ele>
        <time>2021-08-15T10:17:07Z</time>
      </trkpt>
      <trkpt lat="45.49131" lon="6.73003">
        <ele>2546.2</ele>
        <time>2021-08-15T10:17:08Z</time>
      </trkpt>
      <trkpt lat="45.49131" lon="6.73003">
        <ele>2546.2</ele>
        <time>2021-08-15T10:17:09Z</time>
      </trkpt>
      <trkpt lat="45.49131" lon="6.73003">
        <ele>2546.2</ele>
        <time>2021-08-15T10:17:10Z</time>
      </trkpt>
      <trkpt lat="45.49131" lon="6.73003">
        <ele>2546.2</ele>
        <time>2021-08-15T10:17:11Z</time>
      </trkpt>
      <trkpt lat="45.49131" lon="6.73003">
        <ele>2546.2</ele>
        <time>2021-08-15T10:17:12Z</time>
      </trkpt>
      <trkpt lat="45.49131" lon="6.73003">
        <ele>2546.2</ele>
        <time>2021-08-15T10:17:13Z</time>
      </trkpt>
      <trkpt lat="45.49131" lon="6.73003">
        <ele>2546.2</ele>
        <time>2021-08-15T10:17:14Z</time>
      </trkpt>
      <trkpt lat="45.49131" lon="6.73003">
        <ele>2546.2</ele>
        <time>2021-08-15T10:17:15Z</time>
      </trkpt>
      <trkpt lat="45.49131" lon="6.73003">
        <ele>2546.2</ele>
        <time>2021-08-15T10:17:16Z</time>
      </trkpt>
      <trkpt lat="45.49131" lon="6.73003">
        <ele>2546.2</ele>
        <time>2021-08-15T10:17:17Z</time>
      </trkpt>
      <trkpt lat="45.49131" lon="6.73003">
        <ele>2546.2</ele>
        <time>2021-08-15T10:17:18Z</time>
      </trkpt>
      <trkpt lat="45.49131" lon="6.73003">
        <ele>2546.2</ele>
        <time>2021-08-15T10:17:19Z</time>
      </trkpt>
      <trkpt lat="45.49131" lon="6.73003">
        <ele>2546.2</ele>
        <time>2021-08-15T10:17:20Z</time>
      </trkpt>
      <trkpt lat="45.49131" lon="6.73003">
        <ele>2546.2</ele>
        <time>2021-08-15T10:17:21Z</time>
      </trkpt>
      <trkpt lat="45.49131" lon="6.73003">
        <ele>2546.2</ele>
        <time>2021-08-15T10:17:22Z</time>
      </trkpt>
      <trkpt lat="45.49131" lon="6.73003">
        <ele>2546.2</ele>
        <time>2021-08-15T10:17:23Z</time>
      </trkpt>
      <trkpt lat="45.49131" lon="6.73003">
        <ele>2546.2</ele>
        <time>2021-08-15T10:17:24Z</time>
      </trkpt>
      <trkpt lat="45.49131" lon="6.73003">
        <ele>2546.2</ele>
        <time>2021-08-15T10:17:25Z</time>
      </trkpt>
      <trkpt lat="45.49131" lon="6.73003">
        <ele>2546.2</ele>
        <time>2021-08-15T10:17:26Z</time>
      </trkpt>
      <trkpt lat="45.49131" lon="6.73003">
        <ele>2546.2</ele>
        <time>2021-08-15T10:17:27Z</time>
      </trkpt>
      <trkpt lat="45.49131" lon="6.73003">
        <ele>2546.2</ele>
        <time>2021-08-15T10:17:28Z</time>
      </trkpt>
      <trkpt lat="45.49131" lon="6.73003">
        <ele>2546.2</ele>
        <time>2021-08-15T10:17:29Z</time>
      </trkpt>
      <trkpt lat="45.49131" lon="6.73003">
        <ele>2546.2</ele>
        <time>2021-08-15T10:17:30Z</time>
      </trkpt>
      <trkpt lat="45.49131" lon="6.73003">
        <ele>2546.2</ele>
        <time>2021-08-15T10:17:31Z</time>
      </trkpt>
      <trkpt lat="45.49131" lon="6.73003">
        <ele>2546.2</ele>
        <time>2021-08-15T10:17:32Z</time>
      </trkpt>
      <trkpt lat="45.49131" lon="6.73003">
        <ele>2546.2</ele>
        <time>2021-08-15T10:17:33Z</time>
      </trkpt>
      <trkpt lat="45.49131" lon="6.73003">
        <ele>2546.2</ele>
        <time>2021-08-15T10:17:34Z</time>
      </trkpt>
      <trkpt lat="45.49131" lon="6.73003">
        <ele>2546.2</ele>
        <time>2021-08-15T10:17:35Z</time>
      </trkpt>
      <trkpt lat="45.49131" lon="6.73003">
        <ele>2546.2</ele>
        <time>2021-08-15T10:17:36Z</time>
      </trkpt>
      <trkpt lat="45.49131" lon="6.73003">
        <ele>2546.2</ele>
        <time>2021-08-15T10:17:37Z</time>
      </trkpt>
      <trkpt lat="45.49131" lon="6.73003">
        <ele>2546.2</ele>
        <time>2021-08-15T10:17:38Z</time>
      </trkpt>
      <trkpt lat="45.49131" lon="6.73003">
        <ele>2546.2</ele>
        <time>2021-08-15T10:17:39Z</time>
      </trkpt>
      <trkpt lat="45.49131" lon="6.73003">
        <ele>2546.2</ele>
        <time>2021-08-15T10:17:40Z</time>
      </trkpt>
      <trkpt lat="45.49131" lon="6.73003">
        <ele>2546.2</ele>
        <time>2021-08-15T10:17:41Z</time>
      </trkpt>
      <trkpt lat="45.4913" lon="6.73003">
        <ele>2546.2</ele>
        <time>2021-08-15T10:17:42Z</time>
      </trkpt>
      <trkpt lat="45.4913" lon="6.73003">
        <ele>2546.2</ele>
        <time>2021-08-15T10:17:43Z</time>
      </trkpt>
      <trkpt lat="45.4913" lon="6.73003">
        <ele>2546.2</ele>
        <time>2021-08-15T10:17:44Z</time>
      </trkpt>
      <trkpt lat="45.4913" lon="6.73003">
        <ele>2546.2</ele>
        <time>2021-08-15T10:17:45Z</time>
      </trkpt>
      <trkpt lat="45.4913" lon="6.73002">
        <ele>2546.1</ele>
        <time>2021-08-15T10:17:46Z</time>
      </trkpt>
      <trkpt lat="45.4913" lon="6.73002">
        <ele>2546.1</ele>
        <time>2021-08-15T10:17:47Z</time>
      </trkpt>
      <trkpt lat="45.49129" lon="6.73002">
        <ele>2546.1</ele>
        <time>2021-08-15T10:17:48Z</time>
      </trkpt>
      <trkpt lat="45.49129" lon="6.73002">
        <ele>2546</ele>
        <time>2021-08-15T10:17:49Z</time>
      </trkpt>
      <trkpt lat="45.49128" lon="6.73002">
        <ele>2546</ele>
        <time>2021-08-15T10:17:50Z</time>
      </trkpt>
      <trkpt lat="45.49128" lon="6.73002">
        <ele>2545.9</ele>
        <time>2021-08-15T10:17:51Z</time>
      </trkpt>
      <trkpt lat="45.49128" lon="6.73002">
        <ele>2545.9</ele>
        <time>2021-08-15T10:17:52Z</time>
      </trkpt>
      <trkpt lat="45.49127" lon="6.73002">
        <ele>2545.9</ele>
        <time>2021-08-15T10:17:53Z</time>
      </trkpt>
      <trkpt lat="45.49127" lon="6.73002">
        <ele>2545.8</ele>
        <time>2021-08-15T10:17:54Z</time>
      </trkpt>
      <trkpt lat="45.49127" lon="6.73002">
        <ele>2545.8</ele>
        <time>2021-08-15T10:17:55Z</time>
      </trkpt>
      <trkpt lat="45.49126" lon="6.73001">
        <ele>2545.8</ele>
        <time>2021-08-15T10:17:56Z</time>
      </trkpt>
      <trkpt lat="45.49126" lon="6.73001">
        <ele>2545.7</ele>
        <time>2021-08-15T10:17:57Z</time>
      </trkpt>
      <trkpt lat="45.49126" lon="6.73001">
        <ele>2545.7</ele>
        <time>2021-08-15T10:17:58Z</time>
      </trkpt>
      <trkpt lat="45.49125" lon="6.73001">
        <ele>2545.7</ele>
        <time>2021-08-15T10:17:59Z</time>
      </trkpt>
      <trkpt lat="45.49125" lon="6.73001">
        <ele>2545.7</ele>
        <time>2021-08-15T10:18:00Z</time>
      </trkpt>
      <trkpt lat="45.49125" lon="6.73001">
        <ele>2545.7</ele>
        <time>2021-08-15T10:18:01Z</time>
      </trkpt>
      <trkpt lat="45.49125" lon="6.73001">
        <ele>2545.6</ele>
        <time>2021-08-15T10:18:02Z</time>
      </trkpt>
      <trkpt lat="45.49125" lon="6.73001">
        <ele>2545.6</ele>
        <time>2021-08-15T10:18:03Z</time>
      </trkpt>
      <trkpt lat="45.49125" lon="6.73001">
        <ele>2545.6</ele>
        <time>2021-08-15T10:18:04Z</time>
      </trkpt>
      <trkpt lat="45.49125" lon="6.73001">
        <ele>2545.6</ele>
        <time>2021-08-15T10:18:05Z</time>
      </trkpt>
      <trkpt lat="45.49125" lon="6.73001">
        <ele>2545.6</ele>
        <time>2021-08-15T10:18:06Z</time>
      </trkpt>
      <trkpt lat="45.49125" lon="6.73001">
        <ele>2545.6</ele>
        <time>2021-08-15T10:18:07Z</time>
      </trkpt>
      <trkpt lat="45.49125" lon="6.73001">
        <ele>2545.6</ele>
        <time>2021-08-15T10:18:08Z</time>
      </trkpt>
      <trkpt lat="45.49124" lon="6.73001">
        <ele>2545.6</ele>
        <time>2021-08-15T10:18:09Z</time>
      </trkpt>
      <trkpt lat="45.49124" lon="6.73001">
        <ele>2545.6</ele>
        <time>2021-08-15T10:18:10Z</time>
      </trkpt>
      <trkpt lat="45.49124" lon="6.73001">
        <ele>2545.6</ele>
        <time>2021-08-15T10:18:11Z</time>
      </trkpt>
      <trkpt lat="45.49124" lon="6.73001">
        <ele>2545.6</ele>
        <time>2021-08-15T10:18:12Z</time>
      </trkpt>
      <trkpt lat="45.49124" lon="6.73001">
        <ele>2545.6</ele>
        <time>2021-08-15T10:18:13Z</time>
      </trkpt>
      <trkpt lat="45.49124" lon="6.73001">
        <ele>2545.6</ele>
        <time>2021-08-15T10:18:14Z</time>
      </trkpt>
      <trkpt lat="45.49125" lon="6.73001">
        <ele>2545.6</ele>
        <time>2021-08-15T10:18:15Z</time>
      </trkpt>
      <trkpt lat="45.49125" lon="6.73001">
        <ele>2545.6</ele>
        <time>2021-08-15T10:18:16Z</time>
      </trkpt>
      <trkpt lat="45.49125" lon="6.73001">
        <ele>2545.6</ele>
        <time>2021-08-15T10:18:17Z</time>
      </trkpt>
      <trkpt lat="45.49125" lon="6.73001">
        <ele>2545.6</ele>
        <time>2021-08-15T10:18:18Z</time>
      </trkpt>
      <trkpt lat="45.49125" lon="6.73001">
        <ele>2545.6</ele>
        <time>2021-08-15T10:18:19Z</time>
      </trkpt>
      <trkpt lat="45.49125" lon="6.73001">
        <ele>2545.6</ele>
        <time>2021-08-15T10:18:20Z</time>
      </trkpt>
      <trkpt lat="45.49125" lon="6.73001">
        <ele>2545.6</ele>
        <time>2021-08-15T10:18:21Z</time>
      </trkpt>
      <trkpt lat="45.49125" lon="6.73001">
        <ele>2545.6</ele>
        <time>2021-08-15T10:18:22Z</time>
      </trkpt>
      <trkpt lat="45.49125" lon="6.73001">
        <ele>2545.6</ele>
        <time>2021-08-15T10:18:23Z</time>
      </trkpt>
      <trkpt lat="45.49125" lon="6.73001">
        <ele>2545.6</ele>
        <time>2021-08-15T10:18:24Z</time>
      </trkpt>
      <trkpt lat="45.49125" lon="6.73001">
        <ele>2545.6</ele>
        <time>2021-08-15T10:18:25Z</time>
      </trkpt>
      <trkpt lat="45.49125" lon="6.73001">
        <ele>2545.6</ele>
        <time>2021-08-15T10:18:26Z</time>
      </trkpt>
      <trkpt lat="45.49125" lon="6.73001">
        <ele>2545.6</ele>
        <time>2021-08-15T10:18:27Z</time>
      </trkpt>
      <trkpt lat="45.49125" lon="6.73001">
        <ele>2545.6</ele>
        <time>2021-08-15T10:18:28Z</time>
      </trkpt>
      <trkpt lat="45.49125" lon="6.73001">
        <ele>2545.6</ele>
        <time>2021-08-15T10:18:29Z</time>
      </trkpt>
      <trkpt lat="45.49125" lon="6.73001">
        <ele>2545.6</ele>
        <time>2021-08-15T10:18:30Z</time>
      </trkpt>
      <trkpt lat="45.49125" lon="6.73001">
        <ele>2545.6</ele>
        <time>2021-08-15T10:18:31Z</time>
      </trkpt>
      <trkpt lat="45.49125" lon="6.73001">
        <ele>2545.6</ele>
        <time>2021-08-15T10:18:32Z</time>
      </trkpt>
      <trkpt lat="45.49125" lon="6.73001">
        <ele>2545.6</ele>
        <time>2021-08-15T10:18:33Z</time>
      </trkpt>
      <trkpt lat="45.49125" lon="6.73001">
        <ele>2545.6</ele>
        <time>2021-08-15T10:18:34Z</time>
      </trkpt>
      <trkpt lat="45.49125" lon="6.73001">
        <ele>2545.6</ele>
        <time>2021-08-15T10:18:35Z</time>
      </trkpt>
      <trkpt lat="45.49125" lon="6.73001">
        <ele>2545.6</ele>
        <time>2021-08-15T10:18:36Z</time>
      </trkpt>
      <trkpt lat="45.49125" lon="6.73001">
        <ele>2545.6</ele>
        <time>2021-08-15T10:18:37Z</time>
      </trkpt>
      <trkpt lat="45.49125" lon="6.73001">
        <ele>2545.6</ele>
        <time>2021-08-15T10:18:38Z</time>
      </trkpt>
      <trkpt lat="45.49125" lon="6.73001">
        <ele>2545.6</ele>
        <time>2021-08-15T10:18:39Z</time>
      </trkpt>
      <trkpt lat="45.49125" lon="6.73001">
        <ele>2545.6</ele>
        <time>2021-08-15T10:18:40Z</time>
      </trkpt>
      <trkpt lat="45.49125" lon="6.73001">
        <ele>2545.6</ele>
        <time>2021-08-15T10:18:41Z</time>
      </trkpt>
      <trkpt lat="45.49125" lon="6.73001">
        <ele>2545.6</ele>
        <time>2021-08-15T10:18:42Z</time>
      </trkpt>
      <trkpt lat="45.49125" lon="6.73001">
        <ele>2545.6</ele>
        <time>2021-08-15T10:18:43Z</time>
      </trkpt>
      <trkpt lat="45.49125" lon="6.73001">
        <ele>2545.6</ele>
        <time>2021-08-15T10:18:44Z</time>
      </trkpt>
      <trkpt lat="45.49125" lon="6.73001">
        <ele>2545.6</ele>
        <time>2021-08-15T10:18:45Z</time>
      </trkpt>
      <trkpt lat="45.49125" lon="6.73001">
        <ele>2545.6</ele>
        <time>2021-08-15T10:18:46Z</time>
      </trkpt>
      <trkpt lat="45.49125" lon="6.73001">
        <ele>2545.6</ele>
        <time>2021-08-15T10:18:47Z</time>
      </trkpt>
      <trkpt lat="45.49125" lon="6.73001">
        <ele>2545.6</ele>
        <time>2021-08-15T10:18:48Z</time>
      </trkpt>
      <trkpt lat="45.49125" lon="6.73001">
        <ele>2545.5</ele>
        <time>2021-08-15T10:18:49Z</time>
      </trkpt>
      <trkpt lat="45.49125" lon="6.73001">
        <ele>2545.5</ele>
        <time>2021-08-15T10:18:50Z</time>
      </trkpt>
      <trkpt lat="45.49125" lon="6.73001">
        <ele>2545.5</ele>
        <time>2021-08-15T10:18:51Z</time>
      </trkpt>
      <trkpt lat="45.49126" lon="6.73">
        <ele>2545.4</ele>
        <time>2021-08-15T10:18:52Z</time>
      </trkpt>
      <trkpt lat="45.49126" lon="6.73">
        <ele>2545.4</ele>
        <time>2021-08-15T10:18:53Z</time>
      </trkpt>
      <trkpt lat="45.49125" lon="6.72999">
        <ele>2545.4</ele>
        <time>2021-08-15T10:18:54Z</time>
      </trkpt>
      <trkpt lat="45.49125" lon="6.72998">
        <ele>2545.3</ele>
        <time>2021-08-15T10:18:55Z</time>
      </trkpt>
      <trkpt lat="45.49125" lon="6.72997">
        <ele>2545.2</ele>
        <time>2021-08-15T10:18:56Z</time>
      </trkpt>
      <trkpt lat="45.49125" lon="6.72996">
        <ele>2545.2</ele>
        <time>2021-08-15T10:18:57Z</time>
      </trkpt>
      <trkpt lat="45.49125" lon="6.72995">
        <ele>2545.1</ele>
        <time>2021-08-15T10:18:58Z</time>
      </trkpt>
      <trkpt lat="45.49125" lon="6.72994">
        <ele>2545</ele>
        <time>2021-08-15T10:18:59Z</time>
      </trkpt>
      <trkpt lat="45.49124" lon="6.72993">
        <ele>2545</ele>
        <time>2021-08-15T10:19:00Z</time>
      </trkpt>
      <trkpt lat="45.49124" lon="6.72993">
        <ele>2544.9</ele>
        <time>2021-08-15T10:19:01Z</time>
      </trkpt>
      <trkpt lat="45.49124" lon="6.72993">
        <ele>2544.9</ele>
        <time>2021-08-15T10:19:02Z</time>
      </trkpt>
      <trkpt lat="45.49125" lon="6.72992">
        <ele>2544.9</ele>
        <time>2021-08-15T10:19:03Z</time>
      </trkpt>
      <trkpt lat="45.49125" lon="6.72992">
        <ele>2544.9</ele>
        <time>2021-08-15T10:19:04Z</time>
      </trkpt>
      <trkpt lat="45.49125" lon="6.72992">
        <ele>2544.9</ele>
        <time>2021-08-15T10:19:05Z</time>
      </trkpt>
      <trkpt lat="45.49125" lon="6.72992">
        <ele>2544.9</ele>
        <time>2021-08-15T10:19:06Z</time>
      </trkpt>
      <trkpt lat="45.49125" lon="6.72992">
        <ele>2544.9</ele>
        <time>2021-08-15T10:19:07Z</time>
      </trkpt>
      <trkpt lat="45.49124" lon="6.72992">
        <ele>2544.9</ele>
        <time>2021-08-15T10:19:08Z</time>
      </trkpt>
      <trkpt lat="45.49124" lon="6.72992">
        <ele>2544.8</ele>
        <time>2021-08-15T10:19:09Z</time>
      </trkpt>
      <trkpt lat="45.49124" lon="6.72991">
        <ele>2544.8</ele>
        <time>2021-08-15T10:19:10Z</time>
      </trkpt>
      <trkpt lat="45.49124" lon="6.7299">
        <ele>2544.8</ele>
        <time>2021-08-15T10:19:11Z</time>
      </trkpt>
      <trkpt lat="45.49124" lon="6.7299">
        <ele>2544.7</ele>
        <time>2021-08-15T10:19:12Z</time>
      </trkpt>
      <trkpt lat="45.49124" lon="6.72989">
        <ele>2544.6</ele>
        <time>2021-08-15T10:19:13Z</time>
      </trkpt>
      <trkpt lat="45.49123" lon="6.72988">
        <ele>2544.6</ele>
        <time>2021-08-15T10:19:14Z</time>
      </trkpt>
      <trkpt lat="45.49123" lon="6.72986">
        <ele>2544.5</ele>
        <time>2021-08-15T10:19:15Z</time>
      </trkpt>
      <trkpt lat="45.49123" lon="6.72985">
        <ele>2544.4</ele>
        <time>2021-08-15T10:19:16Z</time>
      </trkpt>
      <trkpt lat="45.49123" lon="6.72984">
        <ele>2544.3</ele>
        <time>2021-08-15T10:19:17Z</time>
      </trkpt>
      <trkpt lat="45.49123" lon="6.72983">
        <ele>2544.3</ele>
        <time>2021-08-15T10:19:18Z</time>
      </trkpt>
      <trkpt lat="45.49123" lon="6.72982">
        <ele>2544.2</ele>
        <time>2021-08-15T10:19:19Z</time>
      </trkpt>
      <trkpt lat="45.49123" lon="6.72981">
        <ele>2544.1</ele>
        <time>2021-08-15T10:19:20Z</time>
      </trkpt>
      <trkpt lat="45.49123" lon="6.7298">
        <ele>2544.1</ele>
        <time>2021-08-15T10:19:21Z</time>
      </trkpt>
      <trkpt lat="45.49123" lon="6.72979">
        <ele>2544</ele>
        <time>2021-08-15T10:19:22Z</time>
      </trkpt>
      <trkpt lat="45.49123" lon="6.72979">
        <ele>2544</ele>
        <time>2021-08-15T10:19:23Z</time>
      </trkpt>
      <trkpt lat="45.49123" lon="6.72978">
        <ele>2544</ele>
        <time>2021-08-15T10:19:24Z</time>
      </trkpt>
      <trkpt lat="45.49123" lon="6.72978">
        <ele>2543.9</ele>
        <time>2021-08-15T10:19:25Z</time>
      </trkpt>
      <trkpt lat="45.49123" lon="6.72977">
        <ele>2543.9</ele>
        <time>2021-08-15T10:19:26Z</time>
      </trkpt>
      <trkpt lat="45.49123" lon="6.72976">
        <ele>2543.8</ele>
        <time>2021-08-15T10:19:27Z</time>
      </trkpt>
      <trkpt lat="45.49123" lon="6.72975">
        <ele>2543.7</ele>
        <time>2021-08-15T10:19:28Z</time>
      </trkpt>
      <trkpt lat="45.49123" lon="6.72974">
        <ele>2543.6</ele>
        <time>2021-08-15T10:19:29Z</time>
      </trkpt>
      <trkpt lat="45.49123" lon="6.72972">
        <ele>2543.5</ele>
        <time>2021-08-15T10:19:30Z</time>
      </trkpt>
      <trkpt lat="45.49123" lon="6.72971">
        <ele>2543.4</ele>
        <time>2021-08-15T10:19:31Z</time>
      </trkpt>
      <trkpt lat="45.49123" lon="6.72969">
        <ele>2543.3</ele>
        <time>2021-08-15T10:19:32Z</time>
      </trkpt>
      <trkpt lat="45.49123" lon="6.72968">
        <ele>2543.2</ele>
        <time>2021-08-15T10:19:33Z</time>
      </trkpt>
      <trkpt lat="45.49123" lon="6.72966">
        <ele>2543.1</ele>
        <time>2021-08-15T10:19:34Z</time>
      </trkpt>
      <trkpt lat="45.49123" lon="6.72965">
        <ele>2543</ele>
        <time>2021-08-15T10:19:35Z</time>
      </trkpt>
      <trkpt lat="45.49123" lon="6.72963">
        <ele>2542.8</ele>
        <time>2021-08-15T10:19:36Z</time>
      </trkpt>
      <trkpt lat="45.49123" lon="6.72961">
        <ele>2542.7</ele>
        <time>2021-08-15T10:19:37Z</time>
      </trkpt>
      <trkpt lat="45.49124" lon="6.7296">
        <ele>2542.6</ele>
        <time>2021-08-15T10:19:38Z</time>
      </trkpt>
      <trkpt lat="45.49124" lon="6.72958">
        <ele>2542.4</ele>
        <time>2021-08-15T10:19:39Z</time>
      </trkpt>
      <trkpt lat="45.49124" lon="6.72957">
        <ele>2542.3</ele>
        <time>2021-08-15T10:19:40Z</time>
      </trkpt>
      <trkpt lat="45.49125" lon="6.72955">
        <ele>2542.2</ele>
        <time>2021-08-15T10:19:41Z</time>
      </trkpt>
      <trkpt lat="45.49125" lon="6.72954">
        <ele>2542.1</ele>
        <time>2021-08-15T10:19:42Z</time>
      </trkpt>
      <trkpt lat="45.49125" lon="6.72953">
        <ele>2542</ele>
        <time>2021-08-15T10:19:43Z</time>
      </trkpt>
      <trkpt lat="45.49125" lon="6.72952">
        <ele>2541.9</ele>
        <time>2021-08-15T10:19:44Z</time>
      </trkpt>
      <trkpt lat="45.49126" lon="6.72951">
        <ele>2541.8</ele>
        <time>2021-08-15T10:19:45Z</time>
      </trkpt>
      <trkpt lat="45.49126" lon="6.72951">
        <ele>2541.8</ele>
        <time>2021-08-15T10:19:46Z</time>
      </trkpt>
      <trkpt lat="45.49126" lon="6.72951">
        <ele>2541.8</ele>
        <time>2021-08-15T10:19:47Z</time>
      </trkpt>
      <trkpt lat="45.49126" lon="6.7295">
        <ele>2541.7</ele>
        <time>2021-08-15T10:19:48Z</time>
      </trkpt>
      <trkpt lat="45.49126" lon="6.7295">
        <ele>2541.7</ele>
        <time>2021-08-15T10:19:49Z</time>
      </trkpt>
      <trkpt lat="45.49126" lon="6.7295">
        <ele>2541.7</ele>
        <time>2021-08-15T10:19:50Z</time>
      </trkpt>
      <trkpt lat="45.49126" lon="6.7295">
        <ele>2541.7</ele>
        <time>2021-08-15T10:19:51Z</time>
      </trkpt>
      <trkpt lat="45.49126" lon="6.7295">
        <ele>2541.7</ele>
        <time>2021-08-15T10:19:52Z</time>
      </trkpt>
      <trkpt lat="45.49126" lon="6.7295">
        <ele>2541.7</ele>
        <time>2021-08-15T10:19:53Z</time>
      </trkpt>
      <trkpt lat="45.49126" lon="6.7295">
        <ele>2541.7</ele>
        <time>2021-08-15T10:19:54Z</time>
      </trkpt>
      <trkpt lat="45.49126" lon="6.7295">
        <ele>2541.7</ele>
        <time>2021-08-15T10:19:55Z</time>
      </trkpt>
      <trkpt lat="45.49126" lon="6.72949">
        <ele>2541.6</ele>
        <time>2021-08-15T10:19:56Z</time>
      </trkpt>
      <trkpt lat="45.49126" lon="6.72948">
        <ele>2541.5</ele>
        <time>2021-08-15T10:19:57Z</time>
      </trkpt>
      <trkpt lat="45.49126" lon="6.72947">
        <ele>2541.4</ele>
        <time>2021-08-15T10:19:58Z</time>
      </trkpt>
      <trkpt lat="45.49127" lon="6.72946">
        <ele>2541.3</ele>
        <time>2021-08-15T10:19:59Z</time>
      </trkpt>
      <trkpt lat="45.49127" lon="6.72945">
        <ele>2541.2</ele>
        <time>2021-08-15T10:20:00Z</time>
      </trkpt>
      <trkpt lat="45.49127" lon="6.72943">
        <ele>2541.1</ele>
        <time>2021-08-15T10:20:01Z</time>
      </trkpt>
      <trkpt lat="45.49128" lon="6.72942">
        <ele>2540.9</ele>
        <time>2021-08-15T10:20:02Z</time>
      </trkpt>
      <trkpt lat="45.49128" lon="6.72941">
        <ele>2540.8</ele>
        <time>2021-08-15T10:20:03Z</time>
      </trkpt>
      <trkpt lat="45.49129" lon="6.72939">
        <ele>2540.6</ele>
        <time>2021-08-15T10:20:04Z</time>
      </trkpt>
      <trkpt lat="45.49129" lon="6.72938">
        <ele>2540.5</ele>
        <time>2021-08-15T10:20:05Z</time>
      </trkpt>
      <trkpt lat="45.4913" lon="6.72936">
        <ele>2540.4</ele>
        <time>2021-08-15T10:20:06Z</time>
      </trkpt>
      <trkpt lat="45.4913" lon="6.72935">
        <ele>2540.3</ele>
        <time>2021-08-15T10:20:07Z</time>
      </trkpt>
      <trkpt lat="45.4913" lon="6.72934">
        <ele>2540.1</ele>
        <time>2021-08-15T10:20:08Z</time>
      </trkpt>
      <trkpt lat="45.49131" lon="6.72933">
        <ele>2540</ele>
        <time>2021-08-15T10:20:09Z</time>
      </trkpt>
      <trkpt lat="45.49131" lon="6.72932">
        <ele>2539.9</ele>
        <time>2021-08-15T10:20:10Z</time>
      </trkpt>
      <trkpt lat="45.49132" lon="6.72931">
        <ele>2539.8</ele>
        <time>2021-08-15T10:20:11Z</time>
      </trkpt>
      <trkpt lat="45.49132" lon="6.72929">
        <ele>2539.7</ele>
        <time>2021-08-15T10:20:12Z</time>
      </trkpt>
      <trkpt lat="45.49133" lon="6.72928">
        <ele>2539.5</ele>
        <time>2021-08-15T10:20:13Z</time>
      </trkpt>
      <trkpt lat="45.49133" lon="6.72927">
        <ele>2539.4</ele>
        <time>2021-08-15T10:20:14Z</time>
      </trkpt>
      <trkpt lat="45.49133" lon="6.72926">
        <ele>2539.3</ele>
        <time>2021-08-15T10:20:15Z</time>
      </trkpt>
      <trkpt lat="45.49134" lon="6.72925">
        <ele>2539.2</ele>
        <time>2021-08-15T10:20:16Z</time>
      </trkpt>
      <trkpt lat="45.49134" lon="6.72923">
        <ele>2539.1</ele>
        <time>2021-08-15T10:20:17Z</time>
      </trkpt>
      <trkpt lat="45.49134" lon="6.72922">
        <ele>2539</ele>
        <time>2021-08-15T10:20:18Z</time>
      </trkpt>
      <trkpt lat="45.49135" lon="6.72921">
        <ele>2538.9</ele>
        <time>2021-08-15T10:20:19Z</time>
      </trkpt>
      <trkpt lat="45.49135" lon="6.72919">
        <ele>2538.8</ele>
        <time>2021-08-15T10:20:20Z</time>
      </trkpt>
      <trkpt lat="45.49135" lon="6.72918">
        <ele>2538.7</ele>
        <time>2021-08-15T10:20:21Z</time>
      </trkpt>
      <trkpt lat="45.49135" lon="6.72917">
        <ele>2538.6</ele>
        <time>2021-08-15T10:20:22Z</time>
      </trkpt>
      <trkpt lat="45.49135" lon="6.72915">
        <ele>2538.5</ele>
        <time>2021-08-15T10:20:23Z</time>
      </trkpt>
      <trkpt lat="45.49136" lon="6.72914">
        <ele>2538.4</ele>
        <time>2021-08-15T10:20:24Z</time>
      </trkpt>
      <trkpt lat="45.49136" lon="6.72913">
        <ele>2538.4</ele>
        <time>2021-08-15T10:20:25Z</time>
      </trkpt>
      <trkpt lat="45.49136" lon="6.72912">
        <ele>2538.3</ele>
        <time>2021-08-15T10:20:26Z</time>
      </trkpt>
      <trkpt lat="45.49136" lon="6.72911">
        <ele>2538.2</ele>
        <time>2021-08-15T10:20:27Z</time>
      </trkpt>
      <trkpt lat="45.49136" lon="6.7291">
        <ele>2538.2</ele>
        <time>2021-08-15T10:20:28Z</time>
      </trkpt>
      <trkpt lat="45.49136" lon="6.7291">
        <ele>2538.1</ele>
        <time>2021-08-15T10:20:29Z</time>
      </trkpt>
      <trkpt lat="45.49136" lon="6.72909">
        <ele>2538.1</ele>
        <time>2021-08-15T10:20:30Z</time>
      </trkpt>
      <trkpt lat="45.49136" lon="6.72908">
        <ele>2538</ele>
        <time>2021-08-15T10:20:31Z</time>
      </trkpt>
      <trkpt lat="45.49136" lon="6.72908">
        <ele>2538</ele>
        <time>2021-08-15T10:20:32Z</time>
      </trkpt>
      <trkpt lat="45.49136" lon="6.72907">
        <ele>2538</ele>
        <time>2021-08-15T10:20:33Z</time>
      </trkpt>
      <trkpt lat="45.49136" lon="6.72907">
        <ele>2537.9</ele>
        <time>2021-08-15T10:20:34Z</time>
      </trkpt>
      <trkpt lat="45.49136" lon="6.72907">
        <ele>2537.9</ele>
        <time>2021-08-15T10:20:35Z</time>
      </trkpt>
      <trkpt lat="45.49136" lon="6.72906">
        <ele>2537.9</ele>
        <time>2021-08-15T10:20:36Z</time>
      </trkpt>
      <trkpt lat="45.49136" lon="6.72906">
        <ele>2537.9</ele>
        <time>2021-08-15T10:20:37Z</time>
      </trkpt>
      <trkpt lat="45.49136" lon="6.72906">
        <ele>2537.9</ele>
        <time>2021-08-15T10:20:38Z</time>
      </trkpt>
      <trkpt lat="45.49136" lon="6.72906">
        <ele>2537.8</ele>
        <time>2021-08-15T10:20:39Z</time>
      </trkpt>
      <trkpt lat="45.49136" lon="6.72906">
        <ele>2537.8</ele>
        <time>2021-08-15T10:20:40Z</time>
      </trkpt>
      <trkpt lat="45.49136" lon="6.72906">
        <ele>2537.8</ele>
        <time>2021-08-15T10:20:41Z</time>
      </trkpt>
      <trkpt lat="45.49136" lon="6.72905">
        <ele>2537.8</ele>
        <time>2021-08-15T10:20:42Z</time>
      </trkpt>
      <trkpt lat="45.49136" lon="6.72905">
        <ele>2537.8</ele>
        <time>2021-08-15T10:20:43Z</time>
      </trkpt>
      <trkpt lat="45.49136" lon="6.72905">
        <ele>2537.8</ele>
        <time>2021-08-15T10:20:44Z</time>
      </trkpt>
      <trkpt lat="45.49136" lon="6.72905">
        <ele>2537.8</ele>
        <time>2021-08-15T10:20:45Z</time>
      </trkpt>
      <trkpt lat="45.49136" lon="6.72905">
        <ele>2537.8</ele>
        <time>2021-08-15T10:20:46Z</time>
      </trkpt>
      <trkpt lat="45.49136" lon="6.72906">
        <ele>2537.8</ele>
        <time>2021-08-15T10:20:47Z</time>
      </trkpt>
      <trkpt lat="45.49136" lon="6.72906">
        <ele>2537.8</ele>
        <time>2021-08-15T10:20:48Z</time>
      </trkpt>
      <trkpt lat="45.49136" lon="6.72906">
        <ele>2537.8</ele>
        <time>2021-08-15T10:20:49Z</time>
      </trkpt>
      <trkpt lat="45.49136" lon="6.72906">
        <ele>2537.8</ele>
        <time>2021-08-15T10:20:50Z</time>
      </trkpt>
      <trkpt lat="45.49136" lon="6.72906">
        <ele>2537.8</ele>
        <time>2021-08-15T10:20:51Z</time>
      </trkpt>
      <trkpt lat="45.49136" lon="6.72906">
        <ele>2537.8</ele>
        <time>2021-08-15T10:20:52Z</time>
      </trkpt>
      <trkpt lat="45.49136" lon="6.72906">
        <ele>2537.8</ele>
        <time>2021-08-15T10:20:53Z</time>
      </trkpt>
      <trkpt lat="45.49136" lon="6.72906">
        <ele>2537.8</ele>
        <time>2021-08-15T10:20:54Z</time>
      </trkpt>
      <trkpt lat="45.49136" lon="6.72906">
        <ele>2537.8</ele>
        <time>2021-08-15T10:20:55Z</time>
      </trkpt>
      <trkpt lat="45.49136" lon="6.72906">
        <ele>2537.8</ele>
        <time>2021-08-15T10:20:56Z</time>
      </trkpt>
      <trkpt lat="45.49136" lon="6.72906">
        <ele>2537.8</ele>
        <time>2021-08-15T10:20:57Z</time>
      </trkpt>
      <trkpt lat="45.49136" lon="6.72906">
        <ele>2537.8</ele>
        <time>2021-08-15T10:20:58Z</time>
      </trkpt>
      <trkpt lat="45.49136" lon="6.72906">
        <ele>2537.8</ele>
        <time>2021-08-15T10:20:59Z</time>
      </trkpt>
      <trkpt lat="45.49136" lon="6.72906">
        <ele>2537.8</ele>
        <time>2021-08-15T10:21:00Z</time>
      </trkpt>
      <trkpt lat="45.49136" lon="6.72906">
        <ele>2537.8</ele>
        <time>2021-08-15T10:21:01Z</time>
      </trkpt>
      <trkpt lat="45.49136" lon="6.72906">
        <ele>2537.8</ele>
        <time>2021-08-15T10:21:02Z</time>
      </trkpt>
      <trkpt lat="45.49136" lon="6.72906">
        <ele>2537.8</ele>
        <time>2021-08-15T10:21:03Z</time>
      </trkpt>
      <trkpt lat="45.49136" lon="6.72906">
        <ele>2537.8</ele>
        <time>2021-08-15T10:21:04Z</time>
      </trkpt>
      <trkpt lat="45.49136" lon="6.72905">
        <ele>2537.7</ele>
        <time>2021-08-15T10:21:05Z</time>
      </trkpt>
      <trkpt lat="45.49136" lon="6.72905">
        <ele>2537.7</ele>
        <time>2021-08-15T10:21:06Z</time>
      </trkpt>
      <trkpt lat="45.49136" lon="6.72905">
        <ele>2537.7</ele>
        <time>2021-08-15T10:21:07Z</time>
      </trkpt>
      <trkpt lat="45.49136" lon="6.72905">
        <ele>2537.7</ele>
        <time>2021-08-15T10:21:08Z</time>
      </trkpt>
      <trkpt lat="45.49136" lon="6.72905">
        <ele>2537.7</ele>
        <time>2021-08-15T10:21:09Z</time>
      </trkpt>
      <trkpt lat="45.49137" lon="6.72905">
        <ele>2537.7</ele>
        <time>2021-08-15T10:21:10Z</time>
      </trkpt>
      <trkpt lat="45.49137" lon="6.72905">
        <ele>2537.7</ele>
        <time>2021-08-15T10:21:11Z</time>
      </trkpt>
      <trkpt lat="45.49137" lon="6.72905">
        <ele>2537.7</ele>
        <time>2021-08-15T10:21:12Z</time>
      </trkpt>
      <trkpt lat="45.49137" lon="6.72905">
        <ele>2537.7</ele>
        <time>2021-08-15T10:21:13Z</time>
      </trkpt>
      <trkpt lat="45.49137" lon="6.72905">
        <ele>2537.7</ele>
        <time>2021-08-15T10:21:14Z</time>
      </trkpt>
      <trkpt lat="45.49137" lon="6.72905">
        <ele>2537.7</ele>
        <time>2021-08-15T10:21:15Z</time>
      </trkpt>
      <trkpt lat="45.49137" lon="6.72905">
        <ele>2537.7</ele>
        <time>2021-08-15T10:21:16Z</time>
      </trkpt>
      <trkpt lat="45.49137" lon="6.72904">
        <ele>2537.7</ele>
        <time>2021-08-15T10:21:17Z</time>
      </trkpt>
      <trkpt lat="45.49137" lon="6.72904">
        <ele>2537.7</ele>
        <time>2021-08-15T10:21:18Z</time>
      </trkpt>
      <trkpt lat="45.49137" lon="6.72904">
        <ele>2537.6</ele>
        <time>2021-08-15T10:21:19Z</time>
      </trkpt>
      <trkpt lat="45.49137" lon="6.72904">
        <ele>2537.6</ele>
        <time>2021-08-15T10:21:20Z</time>
      </trkpt>
      <trkpt lat="45.49137" lon="6.72903">
        <ele>2537.6</ele>
        <time>2021-08-15T10:21:21Z</time>
      </trkpt>
      <trkpt lat="45.49137" lon="6.72903">
        <ele>2537.5</ele>
        <time>2021-08-15T10:21:22Z</time>
      </trkpt>
      <trkpt lat="45.49137" lon="6.72902">
        <ele>2537.5</ele>
        <time>2021-08-15T10:21:23Z</time>
      </trkpt>
      <trkpt lat="45.49137" lon="6.72901">
        <ele>2537.4</ele>
        <time>2021-08-15T10:21:24Z</time>
      </trkpt>
      <trkpt lat="45.49137" lon="6.729">
        <ele>2537.3</ele>
        <time>2021-08-15T10:21:25Z</time>
      </trkpt>
      <trkpt lat="45.49137" lon="6.72899">
        <ele>2537.3</ele>
        <time>2021-08-15T10:21:26Z</time>
      </trkpt>
      <trkpt lat="45.49137" lon="6.72897">
        <ele>2537.2</ele>
        <time>2021-08-15T10:21:27Z</time>
      </trkpt>
      <trkpt lat="45.49137" lon="6.72896">
        <ele>2537.1</ele>
        <time>2021-08-15T10:21:28Z</time>
      </trkpt>
      <trkpt lat="45.49137" lon="6.72895">
        <ele>2537</ele>
        <time>2021-08-15T10:21:29Z</time>
      </trkpt>
      <trkpt lat="45.49137" lon="6.72895">
        <ele>2537</ele>
        <time>2021-08-15T10:21:30Z</time>
      </trkpt>
      <trkpt lat="45.49137" lon="6.72895">
        <ele>2537</ele>
        <time>2021-08-15T10:21:31Z</time>
      </trkpt>
      <trkpt lat="45.49137" lon="6.72895">
        <ele>2537</ele>
        <time>2021-08-15T10:21:32Z</time>
      </trkpt>
      <trkpt lat="45.49137" lon="6.72895">
        <ele>2537</ele>
        <time>2021-08-15T10:21:33Z</time>
      </trkpt>
      <trkpt lat="45.49137" lon="6.72895">
        <ele>2537</ele>
        <time>2021-08-15T10:21:34Z</time>
      </trkpt>
      <trkpt lat="45.49137" lon="6.72895">
        <ele>2537</ele>
        <time>2021-08-15T10:21:35Z</time>
      </trkpt>
      <trkpt lat="45.49138" lon="6.72894">
        <ele>2536.9</ele>
        <time>2021-08-15T10:21:36Z</time>
      </trkpt>
      <trkpt lat="45.49138" lon="6.72893">
        <ele>2536.9</ele>
        <time>2021-08-15T10:21:37Z</time>
      </trkpt>
      <trkpt lat="45.49138" lon="6.72892">
        <ele>2536.8</ele>
        <time>2021-08-15T10:21:38Z</time>
      </trkpt>
      <trkpt lat="45.49139" lon="6.72892">
        <ele>2536.7</ele>
        <time>2021-08-15T10:21:39Z</time>
      </trkpt>
      <trkpt lat="45.49139" lon="6.72891">
        <ele>2536.6</ele>
        <time>2021-08-15T10:21:40Z</time>
      </trkpt>
      <trkpt lat="45.4914" lon="6.7289">
        <ele>2536.6</ele>
        <time>2021-08-15T10:21:41Z</time>
      </trkpt>
      <trkpt lat="45.4914" lon="6.72889">
        <ele>2536.5</ele>
        <time>2021-08-15T10:21:42Z</time>
      </trkpt>
      <trkpt lat="45.4914" lon="6.72888">
        <ele>2536.4</ele>
        <time>2021-08-15T10:21:43Z</time>
      </trkpt>
      <trkpt lat="45.49141" lon="6.72887">
        <ele>2536.3</ele>
        <time>2021-08-15T10:21:44Z</time>
      </trkpt>
      <trkpt lat="45.49141" lon="6.72887">
        <ele>2536.3</ele>
        <time>2021-08-15T10:21:45Z</time>
      </trkpt>
      <trkpt lat="45.49141" lon="6.72886">
        <ele>2536.2</ele>
        <time>2021-08-15T10:21:46Z</time>
      </trkpt>
      <trkpt lat="45.49142" lon="6.72886">
        <ele>2536.2</ele>
        <time>2021-08-15T10:21:47Z</time>
      </trkpt>
      <trkpt lat="45.49142" lon="6.72886">
        <ele>2536.2</ele>
        <time>2021-08-15T10:21:48Z</time>
      </trkpt>
      <trkpt lat="45.49142" lon="6.72886">
        <ele>2536.2</ele>
        <time>2021-08-15T10:21:49Z</time>
      </trkpt>
      <trkpt lat="45.49142" lon="6.72885">
        <ele>2536.1</ele>
        <time>2021-08-15T10:21:50Z</time>
      </trkpt>
      <trkpt lat="45.49142" lon="6.72885">
        <ele>2536.1</ele>
        <time>2021-08-15T10:21:51Z</time>
      </trkpt>
      <trkpt lat="45.49142" lon="6.72885">
        <ele>2536.1</ele>
        <time>2021-08-15T10:21:52Z</time>
      </trkpt>
      <trkpt lat="45.49143" lon="6.72886">
        <ele>2536.1</ele>
        <time>2021-08-15T10:21:53Z</time>
      </trkpt>
      <trkpt lat="45.49143" lon="6.72886">
        <ele>2536.1</ele>
        <time>2021-08-15T10:21:54Z</time>
      </trkpt>
      <trkpt lat="45.49143" lon="6.72886">
        <ele>2536.1</ele>
        <time>2021-08-15T10:21:55Z</time>
      </trkpt>
      <trkpt lat="45.49143" lon="6.72886">
        <ele>2536.1</ele>
        <time>2021-08-15T10:21:56Z</time>
      </trkpt>
      <trkpt lat="45.49143" lon="6.72886">
        <ele>2536.1</ele>
        <time>2021-08-15T10:21:57Z</time>
      </trkpt>
      <trkpt lat="45.49143" lon="6.72886">
        <ele>2536.1</ele>
        <time>2021-08-15T10:21:58Z</time>
      </trkpt>
      <trkpt lat="45.49142" lon="6.72886">
        <ele>2536.1</ele>
        <time>2021-08-15T10:21:59Z</time>
      </trkpt>
      <trkpt lat="45.49142" lon="6.72886">
        <ele>2536.1</ele>
        <time>2021-08-15T10:22:00Z</time>
      </trkpt>
      <trkpt lat="45.49142" lon="6.72886">
        <ele>2536.1</ele>
        <time>2021-08-15T10:22:01Z</time>
      </trkpt>
      <trkpt lat="45.49142" lon="6.72886">
        <ele>2536.1</ele>
        <time>2021-08-15T10:22:02Z</time>
      </trkpt>
      <trkpt lat="45.49142" lon="6.72886">
        <ele>2536.1</ele>
        <time>2021-08-15T10:22:03Z</time>
      </trkpt>
      <trkpt lat="45.49143" lon="6.72886">
        <ele>2536.1</ele>
        <time>2021-08-15T10:22:04Z</time>
      </trkpt>
      <trkpt lat="45.49143" lon="6.72886">
        <ele>2536.1</ele>
        <time>2021-08-15T10:22:05Z</time>
      </trkpt>
      <trkpt lat="45.49143" lon="6.72885">
        <ele>2536</ele>
        <time>2021-08-15T10:22:06Z</time>
      </trkpt>
      <trkpt lat="45.49143" lon="6.72885">
        <ele>2536</ele>
        <time>2021-08-15T10:22:07Z</time>
      </trkpt>
      <trkpt lat="45.49143" lon="6.72885">
        <ele>2536</ele>
        <time>2021-08-15T10:22:08Z</time>
      </trkpt>
      <trkpt lat="45.49143" lon="6.72885">
        <ele>2536</ele>
        <time>2021-08-15T10:22:09Z</time>
      </trkpt>
      <trkpt lat="45.49144" lon="6.72885">
        <ele>2535.9</ele>
        <time>2021-08-15T10:22:10Z</time>
      </trkpt>
      <trkpt lat="45.49144" lon="6.72885">
        <ele>2535.9</ele>
        <time>2021-08-15T10:22:11Z</time>
      </trkpt>
      <trkpt lat="45.49144" lon="6.72884">
        <ele>2535.8</ele>
        <time>2021-08-15T10:22:12Z</time>
      </trkpt>
      <trkpt lat="45.49145" lon="6.72884">
        <ele>2535.8</ele>
        <time>2021-08-15T10:22:13Z</time>
      </trkpt>
      <trkpt lat="45.49145" lon="6.72884">
        <ele>2535.7</ele>
        <time>2021-08-15T10:22:14Z</time>
      </trkpt>
      <trkpt lat="45.49146" lon="6.72883">
        <ele>2535.7</ele>
        <time>2021-08-15T10:22:15Z</time>
      </trkpt>
      <trkpt lat="45.49146" lon="6.72883">
        <ele>2535.6</ele>
        <time>2021-08-15T10:22:16Z</time>
      </trkpt>
      <trkpt lat="45.49147" lon="6.72883">
        <ele>2535.5</ele>
        <time>2021-08-15T10:22:17Z</time>
      </trkpt>
      <trkpt lat="45.49147" lon="6.72882">
        <ele>2535.5</ele>
        <time>2021-08-15T10:22:18Z</time>
      </trkpt>
      <trkpt lat="45.49148" lon="6.72882">
        <ele>2535.4</ele>
        <time>2021-08-15T10:22:19Z</time>
      </trkpt>
      <trkpt lat="45.49148" lon="6.72881">
        <ele>2535.4</ele>
        <time>2021-08-15T10:22:20Z</time>
      </trkpt>
      <trkpt lat="45.49148" lon="6.7288">
        <ele>2535.3</ele>
        <time>2021-08-15T10:22:21Z</time>
      </trkpt>
      <trkpt lat="45.49149" lon="6.72879">
        <ele>2535.2</ele>
        <time>2021-08-15T10:22:22Z</time>
      </trkpt>
      <trkpt lat="45.49149" lon="6.72878">
        <ele>2535.1</ele>
        <time>2021-08-15T10:22:23Z</time>
      </trkpt>
      <trkpt lat="45.4915" lon="6.72877">
        <ele>2535</ele>
        <time>2021-08-15T10:22:24Z</time>
      </trkpt>
      <trkpt lat="45.4915" lon="6.72876">
        <ele>2534.9</ele>
        <time>2021-08-15T10:22:25Z</time>
      </trkpt>
      <trkpt lat="45.49151" lon="6.72875">
        <ele>2534.8</ele>
        <time>2021-08-15T10:22:26Z</time>
      </trkpt>
      <trkpt lat="45.49152" lon="6.72874">
        <ele>2534.7</ele>
        <time>2021-08-15T10:22:27Z</time>
      </trkpt>
      <trkpt lat="45.49153" lon="6.72874">
        <ele>2534.6</ele>
        <time>2021-08-15T10:22:28Z</time>
      </trkpt>
      <trkpt lat="45.49154" lon="6.72874">
        <ele>2534.5</ele>
        <time>2021-08-15T10:22:29Z</time>
      </trkpt>
      <trkpt lat="45.49154" lon="6.72873">
        <ele>2534.4</ele>
        <time>2021-08-15T10:22:30Z</time>
      </trkpt>
      <trkpt lat="45.49155" lon="6.72873">
        <ele>2534.3</ele>
        <time>2021-08-15T10:22:31Z</time>
      </trkpt>
      <trkpt lat="45.49156" lon="6.72873">
        <ele>2534.2</ele>
        <time>2021-08-15T10:22:32Z</time>
      </trkpt>
      <trkpt lat="45.49156" lon="6.72872">
        <ele>2534.1</ele>
        <time>2021-08-15T10:22:33Z</time>
      </trkpt>
      <trkpt lat="45.49157" lon="6.72872">
        <ele>2534.1</ele>
        <time>2021-08-15T10:22:34Z</time>
      </trkpt>
      <trkpt lat="45.49157" lon="6.72872">
        <ele>2534</ele>
        <time>2021-08-15T10:22:35Z</time>
      </trkpt>
      <trkpt lat="45.49158" lon="6.72872">
        <ele>2534</ele>
        <time>2021-08-15T10:22:36Z</time>
      </trkpt>
      <trkpt lat="45.49158" lon="6.72872">
        <ele>2533.9</ele>
        <time>2021-08-15T10:22:37Z</time>
      </trkpt>
      <trkpt lat="45.49158" lon="6.72872">
        <ele>2533.9</ele>
        <time>2021-08-15T10:22:38Z</time>
      </trkpt>
      <trkpt lat="45.49158" lon="6.72872">
        <ele>2533.9</ele>
        <time>2021-08-15T10:22:39Z</time>
      </trkpt>
      <trkpt lat="45.49159" lon="6.72872">
        <ele>2533.8</ele>
        <time>2021-08-15T10:22:40Z</time>
      </trkpt>
      <trkpt lat="45.49159" lon="6.72872">
        <ele>2533.8</ele>
        <time>2021-08-15T10:22:41Z</time>
      </trkpt>
      <trkpt lat="45.49159" lon="6.72872">
        <ele>2533.7</ele>
        <time>2021-08-15T10:22:42Z</time>
      </trkpt>
      <trkpt lat="45.49159" lon="6.72872">
        <ele>2533.7</ele>
        <time>2021-08-15T10:22:43Z</time>
      </trkpt>
      <trkpt lat="45.49159" lon="6.72872">
        <ele>2533.7</ele>
        <time>2021-08-15T10:22:44Z</time>
      </trkpt>
      <trkpt lat="45.49159" lon="6.72872">
        <ele>2533.7</ele>
        <time>2021-08-15T10:22:45Z</time>
      </trkpt>
      <trkpt lat="45.49159" lon="6.72872">
        <ele>2533.7</ele>
        <time>2021-08-15T10:22:46Z</time>
      </trkpt>
      <trkpt lat="45.49159" lon="6.72872">
        <ele>2533.7</ele>
        <time>2021-08-15T10:22:47Z</time>
      </trkpt>
      <trkpt lat="45.49159" lon="6.72872">
        <ele>2533.7</ele>
        <time>2021-08-15T10:22:48Z</time>
      </trkpt>
      <trkpt lat="45.49159" lon="6.72872">
        <ele>2533.7</ele>
        <time>2021-08-15T10:22:49Z</time>
      </trkpt>
      <trkpt lat="45.49159" lon="6.72872">
        <ele>2533.7</ele>
        <time>2021-08-15T10:22:50Z</time>
      </trkpt>
      <trkpt lat="45.49159" lon="6.72872">
        <ele>2533.6</ele>
        <time>2021-08-15T10:22:51Z</time>
      </trkpt>
      <trkpt lat="45.49159" lon="6.72872">
        <ele>2533.6</ele>
        <time>2021-08-15T10:22:52Z</time>
      </trkpt>
      <trkpt lat="45.49159" lon="6.72872">
        <ele>2533.6</ele>
        <time>2021-08-15T10:22:53Z</time>
      </trkpt>
      <trkpt lat="45.49159" lon="6.72872">
        <ele>2533.6</ele>
        <time>2021-08-15T10:22:54Z</time>
      </trkpt>
      <trkpt lat="45.49159" lon="6.72872">
        <ele>2533.6</ele>
        <time>2021-08-15T10:22:55Z</time>
      </trkpt>
      <trkpt lat="45.49159" lon="6.72872">
        <ele>2533.6</ele>
        <time>2021-08-15T10:22:56Z</time>
      </trkpt>
      <trkpt lat="45.49159" lon="6.72872">
        <ele>2533.6</ele>
        <time>2021-08-15T10:22:57Z</time>
      </trkpt>
      <trkpt lat="45.49159" lon="6.72872">
        <ele>2533.6</ele>
        <time>2021-08-15T10:22:58Z</time>
      </trkpt>
      <trkpt lat="45.49159" lon="6.72872">
        <ele>2533.6</ele>
        <time>2021-08-15T10:22:59Z</time>
      </trkpt>
      <trkpt lat="45.49159" lon="6.72872">
        <ele>2533.6</ele>
        <time>2021-08-15T10:23:00Z</time>
      </trkpt>
      <trkpt lat="45.49159" lon="6.72872">
        <ele>2533.6</ele>
        <time>2021-08-15T10:23:01Z</time>
      </trkpt>
      <trkpt lat="45.49159" lon="6.72872">
        <ele>2533.6</ele>
        <time>2021-08-15T10:23:02Z</time>
      </trkpt>
      <trkpt lat="45.49159" lon="6.72872">
        <ele>2533.6</ele>
        <time>2021-08-15T10:23:03Z</time>
      </trkpt>
      <trkpt lat="45.49158" lon="6.72872">
        <ele>2533.6</ele>
        <time>2021-08-15T10:23:04Z</time>
      </trkpt>
      <trkpt lat="45.49158" lon="6.72872">
        <ele>2533.6</ele>
        <time>2021-08-15T10:23:05Z</time>
      </trkpt>
      <trkpt lat="45.49158" lon="6.72872">
        <ele>2533.6</ele>
        <time>2021-08-15T10:23:06Z</time>
      </trkpt>
      <trkpt lat="45.49158" lon="6.72872">
        <ele>2533.6</ele>
        <time>2021-08-15T10:23:07Z</time>
      </trkpt>
      <trkpt lat="45.49158" lon="6.72872">
        <ele>2533.6</ele>
        <time>2021-08-15T10:23:08Z</time>
      </trkpt>
      <trkpt lat="45.49158" lon="6.72872">
        <ele>2533.6</ele>
        <time>2021-08-15T10:23:09Z</time>
      </trkpt>
      <trkpt lat="45.49159" lon="6.72872">
        <ele>2533.5</ele>
        <time>2021-08-15T10:23:10Z</time>
      </trkpt>
      <trkpt lat="45.49159" lon="6.72872">
        <ele>2533.4</ele>
        <time>2021-08-15T10:23:11Z</time>
      </trkpt>
      <trkpt lat="45.49159" lon="6.72872">
        <ele>2533.4</ele>
        <time>2021-08-15T10:23:12Z</time>
      </trkpt>
      <trkpt lat="45.4916" lon="6.72871">
        <ele>2533.2</ele>
        <time>2021-08-15T10:23:13Z</time>
      </trkpt>
      <trkpt lat="45.49161" lon="6.72871">
        <ele>2533.1</ele>
        <time>2021-08-15T10:23:14Z</time>
      </trkpt>
      <trkpt lat="45.49161" lon="6.7287">
        <ele>2533</ele>
        <time>2021-08-15T10:23:15Z</time>
      </trkpt>
      <trkpt lat="45.49162" lon="6.72869">
        <ele>2532.8</ele>
        <time>2021-08-15T10:23:16Z</time>
      </trkpt>
      <trkpt lat="45.49162" lon="6.72868">
        <ele>2532.7</ele>
        <time>2021-08-15T10:23:17Z</time>
      </trkpt>
      <trkpt lat="45.49162" lon="6.72867">
        <ele>2532.6</ele>
        <time>2021-08-15T10:23:18Z</time>
      </trkpt>
      <trkpt lat="45.49163" lon="6.72867">
        <ele>2532.4</ele>
        <time>2021-08-15T10:23:19Z</time>
      </trkpt>
      <trkpt lat="45.49163" lon="6.72866">
        <ele>2532.3</ele>
        <time>2021-08-15T10:23:20Z</time>
      </trkpt>
      <trkpt lat="45.49163" lon="6.72865">
        <ele>2532.2</ele>
        <time>2021-08-15T10:23:21Z</time>
      </trkpt>
      <trkpt lat="45.49163" lon="6.72863">
        <ele>2532</ele>
        <time>2021-08-15T10:23:22Z</time>
      </trkpt>
      <trkpt lat="45.49163" lon="6.72862">
        <ele>2531.9</ele>
        <time>2021-08-15T10:23:23Z</time>
      </trkpt>
      <trkpt lat="45.49163" lon="6.72861">
        <ele>2531.7</ele>
        <time>2021-08-15T10:23:24Z</time>
      </trkpt>
      <trkpt lat="45.49163" lon="6.7286">
        <ele>2531.6</ele>
        <time>2021-08-15T10:23:25Z</time>
      </trkpt>
      <trkpt lat="45.49164" lon="6.72859">
        <ele>2531.4</ele>
        <time>2021-08-15T10:23:26Z</time>
      </trkpt>
      <trkpt lat="45.49164" lon="6.72858">
        <ele>2531.2</ele>
        <time>2021-08-15T10:23:27Z</time>
      </trkpt>
      <trkpt lat="45.49164" lon="6.72856">
        <ele>2531</ele>
        <time>2021-08-15T10:23:28Z</time>
      </trkpt>
      <trkpt lat="45.49164" lon="6.72855">
        <ele>2530.9</ele>
        <time>2021-08-15T10:23:29Z</time>
      </trkpt>
      <trkpt lat="45.49165" lon="6.72854">
        <ele>2530.7</ele>
        <time>2021-08-15T10:23:30Z</time>
      </trkpt>
      <trkpt lat="45.49165" lon="6.72853">
        <ele>2530.6</ele>
        <time>2021-08-15T10:23:31Z</time>
      </trkpt>
      <trkpt lat="45.49165" lon="6.72852">
        <ele>2530.4</ele>
        <time>2021-08-15T10:23:32Z</time>
      </trkpt>
      <trkpt lat="45.49165" lon="6.72851">
        <ele>2530.3</ele>
        <time>2021-08-15T10:23:33Z</time>
      </trkpt>
      <trkpt lat="45.49165" lon="6.72849">
        <ele>2530.1</ele>
        <time>2021-08-15T10:23:34Z</time>
      </trkpt>
      <trkpt lat="45.49165" lon="6.72849">
        <ele>2530</ele>
        <time>2021-08-15T10:23:35Z</time>
      </trkpt>
      <trkpt lat="45.49165" lon="6.72848">
        <ele>2529.9</ele>
        <time>2021-08-15T10:23:36Z</time>
      </trkpt>
      <trkpt lat="45.49165" lon="6.72847">
        <ele>2529.7</ele>
        <time>2021-08-15T10:23:37Z</time>
      </trkpt>
      <trkpt lat="45.49165" lon="6.72846">
        <ele>2529.6</ele>
        <time>2021-08-15T10:23:38Z</time>
      </trkpt>
      <trkpt lat="45.49164" lon="6.72845">
        <ele>2529.5</ele>
        <time>2021-08-15T10:23:39Z</time>
      </trkpt>
      <trkpt lat="45.49164" lon="6.72844">
        <ele>2529.4</ele>
        <time>2021-08-15T10:23:40Z</time>
      </trkpt>
      <trkpt lat="45.49164" lon="6.72843">
        <ele>2529.3</ele>
        <time>2021-08-15T10:23:41Z</time>
      </trkpt>
      <trkpt lat="45.49164" lon="6.72843">
        <ele>2529.2</ele>
        <time>2021-08-15T10:23:42Z</time>
      </trkpt>
      <trkpt lat="45.49164" lon="6.72842">
        <ele>2529.1</ele>
        <time>2021-08-15T10:23:43Z</time>
      </trkpt>
      <trkpt lat="45.49164" lon="6.72841">
        <ele>2528.9</ele>
        <time>2021-08-15T10:23:44Z</time>
      </trkpt>
      <trkpt lat="45.49165" lon="6.7284">
        <ele>2528.8</ele>
        <time>2021-08-15T10:23:45Z</time>
      </trkpt>
      <trkpt lat="45.49165" lon="6.7284">
        <ele>2528.7</ele>
        <time>2021-08-15T10:23:46Z</time>
      </trkpt>
      <trkpt lat="45.49165" lon="6.72839">
        <ele>2528.6</ele>
        <time>2021-08-15T10:23:47Z</time>
      </trkpt>
      <trkpt lat="45.49165" lon="6.72838">
        <ele>2528.5</ele>
        <time>2021-08-15T10:23:48Z</time>
      </trkpt>
      <trkpt lat="45.49165" lon="6.72837">
        <ele>2528.3</ele>
        <time>2021-08-15T10:23:49Z</time>
      </trkpt>
      <trkpt lat="45.49166" lon="6.72836">
        <ele>2528.2</ele>
        <time>2021-08-15T10:23:50Z</time>
      </trkpt>
      <trkpt lat="45.49166" lon="6.72835">
        <ele>2528.1</ele>
        <time>2021-08-15T10:23:51Z</time>
      </trkpt>
      <trkpt lat="45.49166" lon="6.72834">
        <ele>2527.9</ele>
        <time>2021-08-15T10:23:52Z</time>
      </trkpt>
      <trkpt lat="45.49167" lon="6.72833">
        <ele>2527.7</ele>
        <time>2021-08-15T10:23:53Z</time>
      </trkpt>
      <trkpt lat="45.49167" lon="6.72832">
        <ele>2527.5</ele>
        <time>2021-08-15T10:23:54Z</time>
      </trkpt>
      <trkpt lat="45.49168" lon="6.72831">
        <ele>2527.4</ele>
        <time>2021-08-15T10:23:55Z</time>
      </trkpt>
      <trkpt lat="45.49168" lon="6.7283">
        <ele>2527.2</ele>
        <time>2021-08-15T10:23:56Z</time>
      </trkpt>
      <trkpt lat="45.49168" lon="6.72829">
        <ele>2527</ele>
        <time>2021-08-15T10:23:57Z</time>
      </trkpt>
      <trkpt lat="45.49169" lon="6.72828">
        <ele>2526.8</ele>
        <time>2021-08-15T10:23:58Z</time>
      </trkpt>
      <trkpt lat="45.49169" lon="6.72826">
        <ele>2526.6</ele>
        <time>2021-08-15T10:23:59Z</time>
      </trkpt>
      <trkpt lat="45.49169" lon="6.72825">
        <ele>2526.4</ele>
        <time>2021-08-15T10:24:00Z</time>
      </trkpt>
      <trkpt lat="45.49169" lon="6.72824">
        <ele>2526.3</ele>
        <time>2021-08-15T10:24:01Z</time>
      </trkpt>
      <trkpt lat="45.4917" lon="6.72823">
        <ele>2526.1</ele>
        <time>2021-08-15T10:24:02Z</time>
      </trkpt>
      <trkpt lat="45.4917" lon="6.72822">
        <ele>2525.9</ele>
        <time>2021-08-15T10:24:03Z</time>
      </trkpt>
      <trkpt lat="45.4917" lon="6.72821">
        <ele>2525.8</ele>
        <time>2021-08-15T10:24:04Z</time>
      </trkpt>
      <trkpt lat="45.4917" lon="6.7282">
        <ele>2525.7</ele>
        <time>2021-08-15T10:24:05Z</time>
      </trkpt>
      <trkpt lat="45.4917" lon="6.72819">
        <ele>2525.5</ele>
        <time>2021-08-15T10:24:06Z</time>
      </trkpt>
      <trkpt lat="45.4917" lon="6.72818">
        <ele>2525.4</ele>
        <time>2021-08-15T10:24:07Z</time>
      </trkpt>
      <trkpt lat="45.4917" lon="6.72817">
        <ele>2525.3</ele>
        <time>2021-08-15T10:24:08Z</time>
      </trkpt>
      <trkpt lat="45.4917" lon="6.72817">
        <ele>2525.2</ele>
        <time>2021-08-15T10:24:09Z</time>
      </trkpt>
      <trkpt lat="45.49169" lon="6.72816">
        <ele>2525</ele>
        <time>2021-08-15T10:24:10Z</time>
      </trkpt>
      <trkpt lat="45.49169" lon="6.72815">
        <ele>2524.9</ele>
        <time>2021-08-15T10:24:11Z</time>
      </trkpt>
      <trkpt lat="45.49169" lon="6.72814">
        <ele>2524.8</ele>
        <time>2021-08-15T10:24:12Z</time>
      </trkpt>
      <trkpt lat="45.49169" lon="6.72813">
        <ele>2524.7</ele>
        <time>2021-08-15T10:24:13Z</time>
      </trkpt>
      <trkpt lat="45.49169" lon="6.72812">
        <ele>2524.5</ele>
        <time>2021-08-15T10:24:14Z</time>
      </trkpt>
      <trkpt lat="45.49168" lon="6.72812">
        <ele>2524.4</ele>
        <time>2021-08-15T10:24:15Z</time>
      </trkpt>
      <trkpt lat="45.49168" lon="6.72811">
        <ele>2524.2</ele>
        <time>2021-08-15T10:24:16Z</time>
      </trkpt>
      <trkpt lat="45.49168" lon="6.7281">
        <ele>2524.1</ele>
        <time>2021-08-15T10:24:17Z</time>
      </trkpt>
      <trkpt lat="45.49168" lon="6.72809">
        <ele>2524</ele>
        <time>2021-08-15T10:24:18Z</time>
      </trkpt>
      <trkpt lat="45.49167" lon="6.72808">
        <ele>2523.9</ele>
        <time>2021-08-15T10:24:19Z</time>
      </trkpt>
      <trkpt lat="45.49167" lon="6.72808">
        <ele>2523.8</ele>
        <time>2021-08-15T10:24:20Z</time>
      </trkpt>
      <trkpt lat="45.49167" lon="6.72807">
        <ele>2523.7</ele>
        <time>2021-08-15T10:24:21Z</time>
      </trkpt>
      <trkpt lat="45.49167" lon="6.72807">
        <ele>2523.6</ele>
        <time>2021-08-15T10:24:22Z</time>
      </trkpt>
      <trkpt lat="45.49167" lon="6.72807">
        <ele>2523.5</ele>
        <time>2021-08-15T10:24:23Z</time>
      </trkpt>
      <trkpt lat="45.49167" lon="6.72806">
        <ele>2523.5</ele>
        <time>2021-08-15T10:24:24Z</time>
      </trkpt>
      <trkpt lat="45.49167" lon="6.72806">
        <ele>2523.5</ele>
        <time>2021-08-15T10:24:25Z</time>
      </trkpt>
      <trkpt lat="45.49167" lon="6.72806">
        <ele>2523.5</ele>
        <time>2021-08-15T10:24:26Z</time>
      </trkpt>
      <trkpt lat="45.49167" lon="6.72806">
        <ele>2523.5</ele>
        <time>2021-08-15T10:24:27Z</time>
      </trkpt>
      <trkpt lat="45.49167" lon="6.72806">
        <ele>2523.5</ele>
        <time>2021-08-15T10:24:28Z</time>
      </trkpt>
      <trkpt lat="45.49167" lon="6.72806">
        <ele>2523.5</ele>
        <time>2021-08-15T10:24:29Z</time>
      </trkpt>
      <trkpt lat="45.49167" lon="6.72806">
        <ele>2523.5</ele>
        <time>2021-08-15T10:24:30Z</time>
      </trkpt>
      <trkpt lat="45.49167" lon="6.72806">
        <ele>2523.5</ele>
        <time>2021-08-15T10:24:31Z</time>
      </trkpt>
      <trkpt lat="45.49167" lon="6.72806">
        <ele>2523.5</ele>
        <time>2021-08-15T10:24:32Z</time>
      </trkpt>
      <trkpt lat="45.49167" lon="6.72806">
        <ele>2523.4</ele>
        <time>2021-08-15T10:24:33Z</time>
      </trkpt>
      <trkpt lat="45.49167" lon="6.72806">
        <ele>2523.4</ele>
        <time>2021-08-15T10:24:34Z</time>
      </trkpt>
      <trkpt lat="45.49166" lon="6.72806">
        <ele>2523.4</ele>
        <time>2021-08-15T10:24:35Z</time>
      </trkpt>
      <trkpt lat="45.49166" lon="6.72805">
        <ele>2523.3</ele>
        <time>2021-08-15T10:24:36Z</time>
      </trkpt>
      <trkpt lat="45.49166" lon="6.72805">
        <ele>2523.3</ele>
        <time>2021-08-15T10:24:37Z</time>
      </trkpt>
      <trkpt lat="45.49166" lon="6.72804">
        <ele>2523.2</ele>
        <time>2021-08-15T10:24:38Z</time>
      </trkpt>
      <trkpt lat="45.49166" lon="6.72804">
        <ele>2523.1</ele>
        <time>2021-08-15T10:24:39Z</time>
      </trkpt>
      <trkpt lat="45.49166" lon="6.72803">
        <ele>2523</ele>
        <time>2021-08-15T10:24:40Z</time>
      </trkpt>
      <trkpt lat="45.49166" lon="6.72803">
        <ele>2522.8</ele>
        <time>2021-08-15T10:24:41Z</time>
      </trkpt>
      <trkpt lat="45.49165" lon="6.72802">
        <ele>2522.7</ele>
        <time>2021-08-15T10:24:42Z</time>
      </trkpt>
      <trkpt lat="45.49165" lon="6.72801">
        <ele>2522.5</ele>
        <time>2021-08-15T10:24:43Z</time>
      </trkpt>
      <trkpt lat="45.49165" lon="6.728">
        <ele>2522.4</ele>
        <time>2021-08-15T10:24:44Z</time>
      </trkpt>
      <trkpt lat="45.49165" lon="6.72799">
        <ele>2522.2</ele>
        <time>2021-08-15T10:24:45Z</time>
      </trkpt>
      <trkpt lat="45.49165" lon="6.72798">
        <ele>2522.1</ele>
        <time>2021-08-15T10:24:46Z</time>
      </trkpt>
      <trkpt lat="45.49165" lon="6.72797">
        <ele>2521.9</ele>
        <time>2021-08-15T10:24:47Z</time>
      </trkpt>
      <trkpt lat="45.49165" lon="6.72796">
        <ele>2521.8</ele>
        <time>2021-08-15T10:24:48Z</time>
      </trkpt>
      <trkpt lat="45.49165" lon="6.72795">
        <ele>2521.7</ele>
        <time>2021-08-15T10:24:49Z</time>
      </trkpt>
      <trkpt lat="45.49165" lon="6.72795">
        <ele>2521.5</ele>
        <time>2021-08-15T10:24:50Z</time>
      </trkpt>
      <trkpt lat="45.49166" lon="6.72794">
        <ele>2521.4</ele>
        <time>2021-08-15T10:24:51Z</time>
      </trkpt>
      <trkpt lat="45.49166" lon="6.72793">
        <ele>2521.3</ele>
        <time>2021-08-15T10:24:52Z</time>
      </trkpt>
      <trkpt lat="45.49167" lon="6.72793">
        <ele>2521.1</ele>
        <time>2021-08-15T10:24:53Z</time>
      </trkpt>
      <trkpt lat="45.49168" lon="6.72793">
        <ele>2521</ele>
        <time>2021-08-15T10:24:54Z</time>
      </trkpt>
      <trkpt lat="45.49168" lon="6.72792">
        <ele>2520.9</ele>
        <time>2021-08-15T10:24:55Z</time>
      </trkpt>
      <trkpt lat="45.49169" lon="6.72791">
        <ele>2520.7</ele>
        <time>2021-08-15T10:24:56Z</time>
      </trkpt>
      <trkpt lat="45.49169" lon="6.72791">
        <ele>2520.6</ele>
        <time>2021-08-15T10:24:57Z</time>
      </trkpt>
      <trkpt lat="45.49169" lon="6.7279">
        <ele>2520.4</ele>
        <time>2021-08-15T10:24:58Z</time>
      </trkpt>
      <trkpt lat="45.4917" lon="6.72789">
        <ele>2520.3</ele>
        <time>2021-08-15T10:24:59Z</time>
      </trkpt>
      <trkpt lat="45.4917" lon="6.72788">
        <ele>2520.1</ele>
        <time>2021-08-15T10:25:00Z</time>
      </trkpt>
      <trkpt lat="45.4917" lon="6.72787">
        <ele>2520</ele>
        <time>2021-08-15T10:25:01Z</time>
      </trkpt>
      <trkpt lat="45.4917" lon="6.72786">
        <ele>2519.8</ele>
        <time>2021-08-15T10:25:02Z</time>
      </trkpt>
      <trkpt lat="45.4917" lon="6.72785">
        <ele>2519.7</ele>
        <time>2021-08-15T10:25:03Z</time>
      </trkpt>
      <trkpt lat="45.4917" lon="6.72783">
        <ele>2519.5</ele>
        <time>2021-08-15T10:25:04Z</time>
      </trkpt>
      <trkpt lat="45.4917" lon="6.72782">
        <ele>2519.4</ele>
        <time>2021-08-15T10:25:05Z</time>
      </trkpt>
      <trkpt lat="45.49169" lon="6.72781">
        <ele>2519.3</ele>
        <time>2021-08-15T10:25:06Z</time>
      </trkpt>
      <trkpt lat="45.49169" lon="6.7278">
        <ele>2519.1</ele>
        <time>2021-08-15T10:25:07Z</time>
      </trkpt>
      <trkpt lat="45.49169" lon="6.72779">
        <ele>2519</ele>
        <time>2021-08-15T10:25:08Z</time>
      </trkpt>
      <trkpt lat="45.49168" lon="6.72778">
        <ele>2518.8</ele>
        <time>2021-08-15T10:25:09Z</time>
      </trkpt>
      <trkpt lat="45.49168" lon="6.72777">
        <ele>2518.7</ele>
        <time>2021-08-15T10:25:10Z</time>
      </trkpt>
      <trkpt lat="45.49168" lon="6.72776">
        <ele>2518.5</ele>
        <time>2021-08-15T10:25:11Z</time>
      </trkpt>
      <trkpt lat="45.49168" lon="6.72775">
        <ele>2518.4</ele>
        <time>2021-08-15T10:25:12Z</time>
      </trkpt>
      <trkpt lat="45.49168" lon="6.72773">
        <ele>2518.2</ele>
        <time>2021-08-15T10:25:13Z</time>
      </trkpt>
      <trkpt lat="45.49167" lon="6.72772">
        <ele>2518</ele>
        <time>2021-08-15T10:25:14Z</time>
      </trkpt>
      <trkpt lat="45.49167" lon="6.72771">
        <ele>2517.9</ele>
        <time>2021-08-15T10:25:15Z</time>
      </trkpt>
      <trkpt lat="45.49167" lon="6.7277">
        <ele>2517.8</ele>
        <time>2021-08-15T10:25:16Z</time>
      </trkpt>
      <trkpt lat="45.49167" lon="6.72769">
        <ele>2517.6</ele>
        <time>2021-08-15T10:25:17Z</time>
      </trkpt>
      <trkpt lat="45.49167" lon="6.72768">
        <ele>2517.5</ele>
        <time>2021-08-15T10:25:18Z</time>
      </trkpt>
      <trkpt lat="45.49167" lon="6.72767">
        <ele>2517.4</ele>
        <time>2021-08-15T10:25:19Z</time>
      </trkpt>
      <trkpt lat="45.49167" lon="6.72767">
        <ele>2517.3</ele>
        <time>2021-08-15T10:25:20Z</time>
      </trkpt>
      <trkpt lat="45.49167" lon="6.72766">
        <ele>2517.3</ele>
        <time>2021-08-15T10:25:21Z</time>
      </trkpt>
      <trkpt lat="45.49167" lon="6.72766">
        <ele>2517.3</ele>
        <time>2021-08-15T10:25:22Z</time>
      </trkpt>
      <trkpt lat="45.49167" lon="6.72766">
        <ele>2517.2</ele>
        <time>2021-08-15T10:25:23Z</time>
      </trkpt>
      <trkpt lat="45.49167" lon="6.72766">
        <ele>2517.2</ele>
        <time>2021-08-15T10:25:24Z</time>
      </trkpt>
      <trkpt lat="45.49167" lon="6.72766">
        <ele>2517.2</ele>
        <time>2021-08-15T10:25:25Z</time>
      </trkpt>
      <trkpt lat="45.49167" lon="6.72766">
        <ele>2517.2</ele>
        <time>2021-08-15T10:25:26Z</time>
      </trkpt>
      <trkpt lat="45.49167" lon="6.72765">
        <ele>2517.1</ele>
        <time>2021-08-15T10:25:27Z</time>
      </trkpt>
      <trkpt lat="45.49167" lon="6.72765">
        <ele>2517.1</ele>
        <time>2021-08-15T10:25:28Z</time>
      </trkpt>
      <trkpt lat="45.49167" lon="6.72764">
        <ele>2517</ele>
        <time>2021-08-15T10:25:29Z</time>
      </trkpt>
      <trkpt lat="45.49166" lon="6.72763">
        <ele>2516.8</ele>
        <time>2021-08-15T10:25:30Z</time>
      </trkpt>
      <trkpt lat="45.49166" lon="6.72762">
        <ele>2516.7</ele>
        <time>2021-08-15T10:25:31Z</time>
      </trkpt>
      <trkpt lat="45.49166" lon="6.72761">
        <ele>2516.6</ele>
        <time>2021-08-15T10:25:32Z</time>
      </trkpt>
      <trkpt lat="45.49166" lon="6.7276">
        <ele>2516.4</ele>
        <time>2021-08-15T10:25:33Z</time>
      </trkpt>
      <trkpt lat="45.49166" lon="6.72759">
        <ele>2516.3</ele>
        <time>2021-08-15T10:25:34Z</time>
      </trkpt>
      <trkpt lat="45.49166" lon="6.72758">
        <ele>2516.2</ele>
        <time>2021-08-15T10:25:35Z</time>
      </trkpt>
      <trkpt lat="45.49166" lon="6.72757">
        <ele>2516</ele>
        <time>2021-08-15T10:25:36Z</time>
      </trkpt>
      <trkpt lat="45.49166" lon="6.72756">
        <ele>2515.9</ele>
        <time>2021-08-15T10:25:37Z</time>
      </trkpt>
      <trkpt lat="45.49166" lon="6.72755">
        <ele>2515.7</ele>
        <time>2021-08-15T10:25:38Z</time>
      </trkpt>
      <trkpt lat="45.49166" lon="6.72754">
        <ele>2515.6</ele>
        <time>2021-08-15T10:25:39Z</time>
      </trkpt>
      <trkpt lat="45.49166" lon="6.72753">
        <ele>2515.4</ele>
        <time>2021-08-15T10:25:40Z</time>
      </trkpt>
      <trkpt lat="45.49166" lon="6.72752">
        <ele>2515.2</ele>
        <time>2021-08-15T10:25:41Z</time>
      </trkpt>
      <trkpt lat="45.49166" lon="6.72751">
        <ele>2515.1</ele>
        <time>2021-08-15T10:25:42Z</time>
      </trkpt>
      <trkpt lat="45.49166" lon="6.7275">
        <ele>2514.9</ele>
        <time>2021-08-15T10:25:43Z</time>
      </trkpt>
      <trkpt lat="45.49166" lon="6.72749">
        <ele>2514.8</ele>
        <time>2021-08-15T10:25:44Z</time>
      </trkpt>
      <trkpt lat="45.49166" lon="6.72748">
        <ele>2514.7</ele>
        <time>2021-08-15T10:25:45Z</time>
      </trkpt>
      <trkpt lat="45.49166" lon="6.72747">
        <ele>2514.6</ele>
        <time>2021-08-15T10:25:46Z</time>
      </trkpt>
      <trkpt lat="45.49166" lon="6.72746">
        <ele>2514.4</ele>
        <time>2021-08-15T10:25:47Z</time>
      </trkpt>
      <trkpt lat="45.49166" lon="6.72746">
        <ele>2514.4</ele>
        <time>2021-08-15T10:25:48Z</time>
      </trkpt>
      <trkpt lat="45.49166" lon="6.72745">
        <ele>2514.3</ele>
        <time>2021-08-15T10:25:49Z</time>
      </trkpt>
      <trkpt lat="45.49166" lon="6.72745">
        <ele>2514.2</ele>
        <time>2021-08-15T10:25:50Z</time>
      </trkpt>
      <trkpt lat="45.49166" lon="6.72744">
        <ele>2514.1</ele>
        <time>2021-08-15T10:25:51Z</time>
      </trkpt>
      <trkpt lat="45.49166" lon="6.72744">
        <ele>2514.1</ele>
        <time>2021-08-15T10:25:52Z</time>
      </trkpt>
      <trkpt lat="45.49166" lon="6.72744">
        <ele>2514</ele>
        <time>2021-08-15T10:25:53Z</time>
      </trkpt>
      <trkpt lat="45.49166" lon="6.72744">
        <ele>2514</ele>
        <time>2021-08-15T10:25:54Z</time>
      </trkpt>
      <trkpt lat="45.49166" lon="6.72744">
        <ele>2514</ele>
        <time>2021-08-15T10:25:55Z</time>
      </trkpt>
      <trkpt lat="45.49166" lon="6.72744">
        <ele>2514</ele>
        <time>2021-08-15T10:25:56Z</time>
      </trkpt>
      <trkpt lat="45.49166" lon="6.72744">
        <ele>2514</ele>
        <time>2021-08-15T10:25:57Z</time>
      </trkpt>
      <trkpt lat="45.49166" lon="6.72744">
        <ele>2514</ele>
        <time>2021-08-15T10:25:58Z</time>
      </trkpt>
      <trkpt lat="45.49166" lon="6.72744">
        <ele>2514</ele>
        <time>2021-08-15T10:25:59Z</time>
      </trkpt>
      <trkpt lat="45.49166" lon="6.72744">
        <ele>2514</ele>
        <time>2021-08-15T10:26:00Z</time>
      </trkpt>
      <trkpt lat="45.49166" lon="6.72744">
        <ele>2514</ele>
        <time>2021-08-15T10:26:01Z</time>
      </trkpt>
      <trkpt lat="45.49166" lon="6.72744">
        <ele>2514</ele>
        <time>2021-08-15T10:26:02Z</time>
      </trkpt>
      <trkpt lat="45.49166" lon="6.72744">
        <ele>2514</ele>
        <time>2021-08-15T10:26:03Z</time>
      </trkpt>
      <trkpt lat="45.49166" lon="6.72743">
        <ele>2514</ele>
        <time>2021-08-15T10:26:04Z</time>
      </trkpt>
      <trkpt lat="45.49166" lon="6.72743">
        <ele>2513.9</ele>
        <time>2021-08-15T10:26:05Z</time>
      </trkpt>
      <trkpt lat="45.49166" lon="6.72743">
        <ele>2513.9</ele>
        <time>2021-08-15T10:26:06Z</time>
      </trkpt>
      <trkpt lat="45.49166" lon="6.72743">
        <ele>2513.8</ele>
        <time>2021-08-15T10:26:07Z</time>
      </trkpt>
      <trkpt lat="45.49165" lon="6.72742">
        <ele>2513.8</ele>
        <time>2021-08-15T10:26:08Z</time>
      </trkpt>
      <trkpt lat="45.49165" lon="6.72742">
        <ele>2513.7</ele>
        <time>2021-08-15T10:26:09Z</time>
      </trkpt>
      <trkpt lat="45.49165" lon="6.72741">
        <ele>2513.6</ele>
        <time>2021-08-15T10:26:10Z</time>
      </trkpt>
      <trkpt lat="45.49165" lon="6.72741">
        <ele>2513.5</ele>
        <time>2021-08-15T10:26:11Z</time>
      </trkpt>
      <trkpt lat="45.49165" lon="6.7274">
        <ele>2513.3</ele>
        <time>2021-08-15T10:26:12Z</time>
      </trkpt>
      <trkpt lat="45.49165" lon="6.72739">
        <ele>2513.2</ele>
        <time>2021-08-15T10:26:13Z</time>
      </trkpt>
      <trkpt lat="45.49164" lon="6.72738">
        <ele>2513</ele>
        <time>2021-08-15T10:26:14Z</time>
      </trkpt>
      <trkpt lat="45.49164" lon="6.72737">
        <ele>2512.9</ele>
        <time>2021-08-15T10:26:15Z</time>
      </trkpt>
      <trkpt lat="45.49164" lon="6.72737">
        <ele>2512.7</ele>
        <time>2021-08-15T10:26:16Z</time>
      </trkpt>
      <trkpt lat="45.49164" lon="6.72736">
        <ele>2512.6</ele>
        <time>2021-08-15T10:26:17Z</time>
      </trkpt>
      <trkpt lat="45.49163" lon="6.72735">
        <ele>2512.4</ele>
        <time>2021-08-15T10:26:18Z</time>
      </trkpt>
      <trkpt lat="45.49163" lon="6.72734">
        <ele>2512.3</ele>
        <time>2021-08-15T10:26:19Z</time>
      </trkpt>
      <trkpt lat="45.49163" lon="6.72733">
        <ele>2512.1</ele>
        <time>2021-08-15T10:26:20Z</time>
      </trkpt>
      <trkpt lat="45.49163" lon="6.72732">
        <ele>2512</ele>
        <time>2021-08-15T10:26:21Z</time>
      </trkpt>
      <trkpt lat="45.49162" lon="6.72732">
        <ele>2511.8</ele>
        <time>2021-08-15T10:26:22Z</time>
      </trkpt>
      <trkpt lat="45.49162" lon="6.72731">
        <ele>2511.6</ele>
        <time>2021-08-15T10:26:23Z</time>
      </trkpt>
      <trkpt lat="45.49162" lon="6.7273">
        <ele>2511.5</ele>
        <time>2021-08-15T10:26:24Z</time>
      </trkpt>
      <trkpt lat="45.49161" lon="6.72729">
        <ele>2511.3</ele>
        <time>2021-08-15T10:26:25Z</time>
      </trkpt>
      <trkpt lat="45.49161" lon="6.72729">
        <ele>2511.2</ele>
        <time>2021-08-15T10:26:26Z</time>
      </trkpt>
      <trkpt lat="45.49161" lon="6.72729">
        <ele>2511.2</ele>
        <time>2021-08-15T10:26:27Z</time>
      </trkpt>
      <trkpt lat="45.49161" lon="6.72728">
        <ele>2511.2</ele>
        <time>2021-08-15T10:26:28Z</time>
      </trkpt>
      <trkpt lat="45.49161" lon="6.72728">
        <ele>2511.1</ele>
        <time>2021-08-15T10:26:29Z</time>
      </trkpt>
      <trkpt lat="45.49161" lon="6.72728">
        <ele>2511.1</ele>
        <time>2021-08-15T10:26:30Z</time>
      </trkpt>
      <trkpt lat="45.49161" lon="6.72728">
        <ele>2511</ele>
        <time>2021-08-15T10:26:31Z</time>
      </trkpt>
      <trkpt lat="45.49161" lon="6.72728">
        <ele>2510.9</ele>
        <time>2021-08-15T10:26:32Z</time>
      </trkpt>
      <trkpt lat="45.49161" lon="6.72727">
        <ele>2510.9</ele>
        <time>2021-08-15T10:26:33Z</time>
      </trkpt>
      <trkpt lat="45.4916" lon="6.72727">
        <ele>2510.8</ele>
        <time>2021-08-15T10:26:34Z</time>
      </trkpt>
      <trkpt lat="45.4916" lon="6.72726">
        <ele>2510.7</ele>
        <time>2021-08-15T10:26:35Z</time>
      </trkpt>
      <trkpt lat="45.4916" lon="6.72726">
        <ele>2510.6</ele>
        <time>2021-08-15T10:26:36Z</time>
      </trkpt>
      <trkpt lat="45.4916" lon="6.72725">
        <ele>2510.5</ele>
        <time>2021-08-15T10:26:37Z</time>
      </trkpt>
      <trkpt lat="45.4916" lon="6.72724">
        <ele>2510.3</ele>
        <time>2021-08-15T10:26:38Z</time>
      </trkpt>
      <trkpt lat="45.4916" lon="6.72724">
        <ele>2510.2</ele>
        <time>2021-08-15T10:26:39Z</time>
      </trkpt>
      <trkpt lat="45.49159" lon="6.72723">
        <ele>2510.1</ele>
        <time>2021-08-15T10:26:40Z</time>
      </trkpt>
      <trkpt lat="45.49159" lon="6.72722">
        <ele>2509.9</ele>
        <time>2021-08-15T10:26:41Z</time>
      </trkpt>
      <trkpt lat="45.49159" lon="6.72722">
        <ele>2509.8</ele>
        <time>2021-08-15T10:26:42Z</time>
      </trkpt>
      <trkpt lat="45.49159" lon="6.72721">
        <ele>2509.7</ele>
        <time>2021-08-15T10:26:43Z</time>
      </trkpt>
      <trkpt lat="45.49159" lon="6.7272">
        <ele>2509.6</ele>
        <time>2021-08-15T10:26:44Z</time>
      </trkpt>
      <trkpt lat="45.49159" lon="6.7272">
        <ele>2509.5</ele>
        <time>2021-08-15T10:26:45Z</time>
      </trkpt>
      <trkpt lat="45.49159" lon="6.72719">
        <ele>2509.3</ele>
        <time>2021-08-15T10:26:46Z</time>
      </trkpt>
      <trkpt lat="45.49159" lon="6.72718">
        <ele>2509.2</ele>
        <time>2021-08-15T10:26:47Z</time>
      </trkpt>
      <trkpt lat="45.49159" lon="6.72717">
        <ele>2509.1</ele>
        <time>2021-08-15T10:26:48Z</time>
      </trkpt>
      <trkpt lat="45.49159" lon="6.72717">
        <ele>2508.9</ele>
        <time>2021-08-15T10:26:49Z</time>
      </trkpt>
      <trkpt lat="45.49159" lon="6.72716">
        <ele>2508.8</ele>
        <time>2021-08-15T10:26:50Z</time>
      </trkpt>
      <trkpt lat="45.49159" lon="6.72715">
        <ele>2508.6</ele>
        <time>2021-08-15T10:26:51Z</time>
      </trkpt>
      <trkpt lat="45.49159" lon="6.72714">
        <ele>2508.5</ele>
        <time>2021-08-15T10:26:52Z</time>
      </trkpt>
      <trkpt lat="45.49159" lon="6.72713">
        <ele>2508.3</ele>
        <time>2021-08-15T10:26:53Z</time>
      </trkpt>
      <trkpt lat="45.49159" lon="6.72712">
        <ele>2508.2</ele>
        <time>2021-08-15T10:26:54Z</time>
      </trkpt>
      <trkpt lat="45.49159" lon="6.72711">
        <ele>2508.1</ele>
        <time>2021-08-15T10:26:55Z</time>
      </trkpt>
      <trkpt lat="45.49158" lon="6.7271">
        <ele>2507.9</ele>
        <time>2021-08-15T10:26:56Z</time>
      </trkpt>
      <trkpt lat="45.49158" lon="6.72709">
        <ele>2507.8</ele>
        <time>2021-08-15T10:26:57Z</time>
      </trkpt>
      <trkpt lat="45.49158" lon="6.72708">
        <ele>2507.6</ele>
        <time>2021-08-15T10:26:58Z</time>
      </trkpt>
      <trkpt lat="45.49158" lon="6.72708">
        <ele>2507.5</ele>
        <time>2021-08-15T10:26:59Z</time>
      </trkpt>
      <trkpt lat="45.49158" lon="6.72707">
        <ele>2507.4</ele>
        <time>2021-08-15T10:27:00Z</time>
      </trkpt>
      <trkpt lat="45.49159" lon="6.72706">
        <ele>2507.3</ele>
        <time>2021-08-15T10:27:01Z</time>
      </trkpt>
      <trkpt lat="45.49159" lon="6.72706">
        <ele>2507.2</ele>
        <time>2021-08-15T10:27:02Z</time>
      </trkpt>
      <trkpt lat="45.49159" lon="6.72705">
        <ele>2507.1</ele>
        <time>2021-08-15T10:27:03Z</time>
      </trkpt>
      <trkpt lat="45.49159" lon="6.72704">
        <ele>2507</ele>
        <time>2021-08-15T10:27:04Z</time>
      </trkpt>
      <trkpt lat="45.49159" lon="6.72704">
        <ele>2506.9</ele>
        <time>2021-08-15T10:27:05Z</time>
      </trkpt>
      <trkpt lat="45.49159" lon="6.72703">
        <ele>2506.8</ele>
        <time>2021-08-15T10:27:06Z</time>
      </trkpt>
      <trkpt lat="45.4916" lon="6.72702">
        <ele>2506.7</ele>
        <time>2021-08-15T10:27:07Z</time>
      </trkpt>
      <trkpt lat="45.4916" lon="6.72701">
        <ele>2506.5</ele>
        <time>2021-08-15T10:27:08Z</time>
      </trkpt>
      <trkpt lat="45.4916" lon="6.727">
        <ele>2506.4</ele>
        <time>2021-08-15T10:27:09Z</time>
      </trkpt>
      <trkpt lat="45.4916" lon="6.72699">
        <ele>2506.2</ele>
        <time>2021-08-15T10:27:10Z</time>
      </trkpt>
      <trkpt lat="45.4916" lon="6.72698">
        <ele>2506</ele>
        <time>2021-08-15T10:27:11Z</time>
      </trkpt>
      <trkpt lat="45.4916" lon="6.72697">
        <ele>2505.9</ele>
        <time>2021-08-15T10:27:12Z</time>
      </trkpt>
      <trkpt lat="45.49161" lon="6.72695">
        <ele>2505.7</ele>
        <time>2021-08-15T10:27:13Z</time>
      </trkpt>
      <trkpt lat="45.49161" lon="6.72695">
        <ele>2505.6</ele>
        <time>2021-08-15T10:27:14Z</time>
      </trkpt>
      <trkpt lat="45.49161" lon="6.72694">
        <ele>2505.5</ele>
        <time>2021-08-15T10:27:15Z</time>
      </trkpt>
      <trkpt lat="45.49161" lon="6.72693">
        <ele>2505.4</ele>
        <time>2021-08-15T10:27:16Z</time>
      </trkpt>
      <trkpt lat="45.49162" lon="6.72693">
        <ele>2505.3</ele>
        <time>2021-08-15T10:27:17Z</time>
      </trkpt>
      <trkpt lat="45.49162" lon="6.72693">
        <ele>2505.2</ele>
        <time>2021-08-15T10:27:18Z</time>
      </trkpt>
      <trkpt lat="45.49162" lon="6.72692">
        <ele>2505.2</ele>
        <time>2021-08-15T10:27:19Z</time>
      </trkpt>
      <trkpt lat="45.49163" lon="6.72692">
        <ele>2505.1</ele>
        <time>2021-08-15T10:27:20Z</time>
      </trkpt>
      <trkpt lat="45.49163" lon="6.72691">
        <ele>2505</ele>
        <time>2021-08-15T10:27:21Z</time>
      </trkpt>
      <trkpt lat="45.49163" lon="6.72691">
        <ele>2504.9</ele>
        <time>2021-08-15T10:27:22Z</time>
      </trkpt>
      <trkpt lat="45.49163" lon="6.7269">
        <ele>2504.7</ele>
        <time>2021-08-15T10:27:23Z</time>
      </trkpt>
      <trkpt lat="45.49164" lon="6.72689">
        <ele>2504.6</ele>
        <time>2021-08-15T10:27:24Z</time>
      </trkpt>
      <trkpt lat="45.49164" lon="6.72688">
        <ele>2504.5</ele>
        <time>2021-08-15T10:27:25Z</time>
      </trkpt>
      <trkpt lat="45.49164" lon="6.72687">
        <ele>2504.4</ele>
        <time>2021-08-15T10:27:26Z</time>
      </trkpt>
      <trkpt lat="45.49164" lon="6.72686">
        <ele>2504.2</ele>
        <time>2021-08-15T10:27:27Z</time>
      </trkpt>
      <trkpt lat="45.49164" lon="6.72685">
        <ele>2504.1</ele>
        <time>2021-08-15T10:27:28Z</time>
      </trkpt>
      <trkpt lat="45.49164" lon="6.72684">
        <ele>2504</ele>
        <time>2021-08-15T10:27:29Z</time>
      </trkpt>
      <trkpt lat="45.49164" lon="6.72683">
        <ele>2503.9</ele>
        <time>2021-08-15T10:27:30Z</time>
      </trkpt>
      <trkpt lat="45.49164" lon="6.72682">
        <ele>2503.8</ele>
        <time>2021-08-15T10:27:31Z</time>
      </trkpt>
      <trkpt lat="45.49164" lon="6.72681">
        <ele>2503.7</ele>
        <time>2021-08-15T10:27:32Z</time>
      </trkpt>
      <trkpt lat="45.49164" lon="6.7268">
        <ele>2503.6</ele>
        <time>2021-08-15T10:27:33Z</time>
      </trkpt>
      <trkpt lat="45.49163" lon="6.7268">
        <ele>2503.5</ele>
        <time>2021-08-15T10:27:34Z</time>
      </trkpt>
      <trkpt lat="45.49163" lon="6.72679">
        <ele>2503.4</ele>
        <time>2021-08-15T10:27:35Z</time>
      </trkpt>
      <trkpt lat="45.49163" lon="6.72679">
        <ele>2503.4</ele>
        <time>2021-08-15T10:27:36Z</time>
      </trkpt>
      <trkpt lat="45.49163" lon="6.72678">
        <ele>2503.3</ele>
        <time>2021-08-15T10:27:37Z</time>
      </trkpt>
      <trkpt lat="45.49163" lon="6.72678">
        <ele>2503.3</ele>
        <time>2021-08-15T10:27:38Z</time>
      </trkpt>
      <trkpt lat="45.49163" lon="6.72678">
        <ele>2503.2</ele>
        <time>2021-08-15T10:27:39Z</time>
      </trkpt>
      <trkpt lat="45.49162" lon="6.72678">
        <ele>2503.2</ele>
        <time>2021-08-15T10:27:40Z</time>
      </trkpt>
      <trkpt lat="45.49162" lon="6.72677">
        <ele>2503.2</ele>
        <time>2021-08-15T10:27:41Z</time>
      </trkpt>
      <trkpt lat="45.49162" lon="6.72677">
        <ele>2503.1</ele>
        <time>2021-08-15T10:27:42Z</time>
      </trkpt>
      <trkpt lat="45.49162" lon="6.72677">
        <ele>2503.1</ele>
        <time>2021-08-15T10:27:43Z</time>
      </trkpt>
      <trkpt lat="45.49162" lon="6.72677">
        <ele>2503.1</ele>
        <time>2021-08-15T10:27:44Z</time>
      </trkpt>
      <trkpt lat="45.49162" lon="6.72677">
        <ele>2503.1</ele>
        <time>2021-08-15T10:27:45Z</time>
      </trkpt>
      <trkpt lat="45.49162" lon="6.72677">
        <ele>2503.1</ele>
        <time>2021-08-15T10:27:46Z</time>
      </trkpt>
      <trkpt lat="45.49162" lon="6.72677">
        <ele>2503.1</ele>
        <time>2021-08-15T10:27:47Z</time>
      </trkpt>
      <trkpt lat="45.49162" lon="6.72677">
        <ele>2503.1</ele>
        <time>2021-08-15T10:27:48Z</time>
      </trkpt>
      <trkpt lat="45.49163" lon="6.72678">
        <ele>2503.1</ele>
        <time>2021-08-15T10:27:49Z</time>
      </trkpt>
      <trkpt lat="45.49163" lon="6.72678">
        <ele>2503.1</ele>
        <time>2021-08-15T10:27:50Z</time>
      </trkpt>
      <trkpt lat="45.49163" lon="6.72678">
        <ele>2503.1</ele>
        <time>2021-08-15T10:27:51Z</time>
      </trkpt>
      <trkpt lat="45.49163" lon="6.72678">
        <ele>2503.1</ele>
        <time>2021-08-15T10:27:52Z</time>
      </trkpt>
      <trkpt lat="45.49163" lon="6.72678">
        <ele>2503.1</ele>
        <time>2021-08-15T10:27:53Z</time>
      </trkpt>
      <trkpt lat="45.49163" lon="6.72678">
        <ele>2503.1</ele>
        <time>2021-08-15T10:27:54Z</time>
      </trkpt>
      <trkpt lat="45.49163" lon="6.72677">
        <ele>2503.1</ele>
        <time>2021-08-15T10:27:55Z</time>
      </trkpt>
      <trkpt lat="45.49163" lon="6.72677">
        <ele>2503</ele>
        <time>2021-08-15T10:27:56Z</time>
      </trkpt>
      <trkpt lat="45.49163" lon="6.72677">
        <ele>2503</ele>
        <time>2021-08-15T10:27:57Z</time>
      </trkpt>
      <trkpt lat="45.49162" lon="6.72677">
        <ele>2503</ele>
        <time>2021-08-15T10:27:58Z</time>
      </trkpt>
      <trkpt lat="45.49162" lon="6.72676">
        <ele>2502.9</ele>
        <time>2021-08-15T10:27:59Z</time>
      </trkpt>
      <trkpt lat="45.49162" lon="6.72676">
        <ele>2502.9</ele>
        <time>2021-08-15T10:28:00Z</time>
      </trkpt>
      <trkpt lat="45.49162" lon="6.72675">
        <ele>2502.8</ele>
        <time>2021-08-15T10:28:01Z</time>
      </trkpt>
      <trkpt lat="45.49162" lon="6.72675">
        <ele>2502.7</ele>
        <time>2021-08-15T10:28:02Z</time>
      </trkpt>
      <trkpt lat="45.49162" lon="6.72674">
        <ele>2502.6</ele>
        <time>2021-08-15T10:28:03Z</time>
      </trkpt>
      <trkpt lat="45.49162" lon="6.72673">
        <ele>2502.5</ele>
        <time>2021-08-15T10:28:04Z</time>
      </trkpt>
      <trkpt lat="45.49162" lon="6.72672">
        <ele>2502.4</ele>
        <time>2021-08-15T10:28:05Z</time>
      </trkpt>
      <trkpt lat="45.49162" lon="6.72672">
        <ele>2502.3</ele>
        <time>2021-08-15T10:28:06Z</time>
      </trkpt>
      <trkpt lat="45.49162" lon="6.72671">
        <ele>2502.2</ele>
        <time>2021-08-15T10:28:07Z</time>
      </trkpt>
      <trkpt lat="45.49162" lon="6.7267">
        <ele>2502.1</ele>
        <time>2021-08-15T10:28:08Z</time>
      </trkpt>
      <trkpt lat="45.49162" lon="6.72669">
        <ele>2502</ele>
        <time>2021-08-15T10:28:09Z</time>
      </trkpt>
      <trkpt lat="45.49161" lon="6.72668">
        <ele>2501.8</ele>
        <time>2021-08-15T10:28:10Z</time>
      </trkpt>
      <trkpt lat="45.49161" lon="6.72667">
        <ele>2501.7</ele>
        <time>2021-08-15T10:28:11Z</time>
      </trkpt>
      <trkpt lat="45.49161" lon="6.72666">
        <ele>2501.6</ele>
        <time>2021-08-15T10:28:12Z</time>
      </trkpt>
      <trkpt lat="45.49161" lon="6.72665">
        <ele>2501.5</ele>
        <time>2021-08-15T10:28:13Z</time>
      </trkpt>
      <trkpt lat="45.4916" lon="6.72664">
        <ele>2501.3</ele>
        <time>2021-08-15T10:28:14Z</time>
      </trkpt>
      <trkpt lat="45.4916" lon="6.72663">
        <ele>2501.2</ele>
        <time>2021-08-15T10:28:15Z</time>
      </trkpt>
      <trkpt lat="45.4916" lon="6.72662">
        <ele>2501.1</ele>
        <time>2021-08-15T10:28:16Z</time>
      </trkpt>
      <trkpt lat="45.4916" lon="6.72662">
        <ele>2501</ele>
        <time>2021-08-15T10:28:17Z</time>
      </trkpt>
      <trkpt lat="45.49159" lon="6.72661">
        <ele>2500.9</ele>
        <time>2021-08-15T10:28:18Z</time>
      </trkpt>
      <trkpt lat="45.49159" lon="6.7266">
        <ele>2500.8</ele>
        <time>2021-08-15T10:28:19Z</time>
      </trkpt>
      <trkpt lat="45.49159" lon="6.7266">
        <ele>2500.7</ele>
        <time>2021-08-15T10:28:20Z</time>
      </trkpt>
      <trkpt lat="45.49159" lon="6.72659">
        <ele>2500.7</ele>
        <time>2021-08-15T10:28:21Z</time>
      </trkpt>
      <trkpt lat="45.49159" lon="6.72659">
        <ele>2500.6</ele>
        <time>2021-08-15T10:28:22Z</time>
      </trkpt>
      <trkpt lat="45.49159" lon="6.72659">
        <ele>2500.6</ele>
        <time>2021-08-15T10:28:23Z</time>
      </trkpt>
      <trkpt lat="45.49159" lon="6.72658">
        <ele>2500.5</ele>
        <time>2021-08-15T10:28:24Z</time>
      </trkpt>
      <trkpt lat="45.49159" lon="6.72658">
        <ele>2500.5</ele>
        <time>2021-08-15T10:28:25Z</time>
      </trkpt>
      <trkpt lat="45.49159" lon="6.72657">
        <ele>2500.4</ele>
        <time>2021-08-15T10:28:26Z</time>
      </trkpt>
      <trkpt lat="45.49159" lon="6.72657">
        <ele>2500.3</ele>
        <time>2021-08-15T10:28:27Z</time>
      </trkpt>
      <trkpt lat="45.49159" lon="6.72656">
        <ele>2500.3</ele>
        <time>2021-08-15T10:28:28Z</time>
      </trkpt>
      <trkpt lat="45.49159" lon="6.72655">
        <ele>2500.1</ele>
        <time>2021-08-15T10:28:29Z</time>
      </trkpt>
      <trkpt lat="45.49159" lon="6.72654">
        <ele>2500</ele>
        <time>2021-08-15T10:28:30Z</time>
      </trkpt>
      <trkpt lat="45.49159" lon="6.72653">
        <ele>2499.9</ele>
        <time>2021-08-15T10:28:31Z</time>
      </trkpt>
      <trkpt lat="45.49158" lon="6.72652">
        <ele>2499.7</ele>
        <time>2021-08-15T10:28:32Z</time>
      </trkpt>
      <trkpt lat="45.49158" lon="6.72651">
        <ele>2499.6</ele>
        <time>2021-08-15T10:28:33Z</time>
      </trkpt>
      <trkpt lat="45.49158" lon="6.7265">
        <ele>2499.4</ele>
        <time>2021-08-15T10:28:34Z</time>
      </trkpt>
      <trkpt lat="45.49158" lon="6.72648">
        <ele>2499.2</ele>
        <time>2021-08-15T10:28:35Z</time>
      </trkpt>
      <trkpt lat="45.49157" lon="6.72647">
        <ele>2499</ele>
        <time>2021-08-15T10:28:36Z</time>
      </trkpt>
      <trkpt lat="45.49157" lon="6.72646">
        <ele>2498.9</ele>
        <time>2021-08-15T10:28:37Z</time>
      </trkpt>
      <trkpt lat="45.49157" lon="6.72645">
        <ele>2498.7</ele>
        <time>2021-08-15T10:28:38Z</time>
      </trkpt>
      <trkpt lat="45.49157" lon="6.72643">
        <ele>2498.5</ele>
        <time>2021-08-15T10:28:39Z</time>
      </trkpt>
      <trkpt lat="45.49156" lon="6.72642">
        <ele>2498.3</ele>
        <time>2021-08-15T10:28:40Z</time>
      </trkpt>
      <trkpt lat="45.49156" lon="6.72641">
        <ele>2498.2</ele>
        <time>2021-08-15T10:28:41Z</time>
      </trkpt>
      <trkpt lat="45.49156" lon="6.7264">
        <ele>2498</ele>
        <time>2021-08-15T10:28:42Z</time>
      </trkpt>
      <trkpt lat="45.49156" lon="6.72639">
        <ele>2497.9</ele>
        <time>2021-08-15T10:28:43Z</time>
      </trkpt>
      <trkpt lat="45.49156" lon="6.72638">
        <ele>2497.8</ele>
        <time>2021-08-15T10:28:44Z</time>
      </trkpt>
      <trkpt lat="45.49155" lon="6.72637">
        <ele>2497.6</ele>
        <time>2021-08-15T10:28:45Z</time>
      </trkpt>
      <trkpt lat="45.49155" lon="6.72636">
        <ele>2497.5</ele>
        <time>2021-08-15T10:28:46Z</time>
      </trkpt>
      <trkpt lat="45.49155" lon="6.72635">
        <ele>2497.3</ele>
        <time>2021-08-15T10:28:47Z</time>
      </trkpt>
      <trkpt lat="45.49155" lon="6.72634">
        <ele>2497.2</ele>
        <time>2021-08-15T10:28:48Z</time>
      </trkpt>
      <trkpt lat="45.49154" lon="6.72633">
        <ele>2497</ele>
        <time>2021-08-15T10:28:49Z</time>
      </trkpt>
      <trkpt lat="45.49154" lon="6.72632">
        <ele>2496.9</ele>
        <time>2021-08-15T10:28:50Z</time>
      </trkpt>
      <trkpt lat="45.49154" lon="6.72631">
        <ele>2496.8</ele>
        <time>2021-08-15T10:28:51Z</time>
      </trkpt>
      <trkpt lat="45.49153" lon="6.7263">
        <ele>2496.6</ele>
        <time>2021-08-15T10:28:52Z</time>
      </trkpt>
      <trkpt lat="45.49153" lon="6.72629">
        <ele>2496.5</ele>
        <time>2021-08-15T10:28:53Z</time>
      </trkpt>
      <trkpt lat="45.49152" lon="6.72628">
        <ele>2496.3</ele>
        <time>2021-08-15T10:28:54Z</time>
      </trkpt>
      <trkpt lat="45.49152" lon="6.72627">
        <ele>2496.2</ele>
        <time>2021-08-15T10:28:55Z</time>
      </trkpt>
      <trkpt lat="45.49151" lon="6.72626">
        <ele>2496</ele>
        <time>2021-08-15T10:28:56Z</time>
      </trkpt>
      <trkpt lat="45.49151" lon="6.72625">
        <ele>2495.9</ele>
        <time>2021-08-15T10:28:57Z</time>
      </trkpt>
      <trkpt lat="45.4915" lon="6.72624">
        <ele>2495.8</ele>
        <time>2021-08-15T10:28:58Z</time>
      </trkpt>
      <trkpt lat="45.4915" lon="6.72623">
        <ele>2495.6</ele>
        <time>2021-08-15T10:28:59Z</time>
      </trkpt>
      <trkpt lat="45.49149" lon="6.72622">
        <ele>2495.5</ele>
        <time>2021-08-15T10:29:00Z</time>
      </trkpt>
      <trkpt lat="45.49148" lon="6.72621">
        <ele>2495.3</ele>
        <time>2021-08-15T10:29:01Z</time>
      </trkpt>
      <trkpt lat="45.49148" lon="6.7262">
        <ele>2495.2</ele>
        <time>2021-08-15T10:29:02Z</time>
      </trkpt>
      <trkpt lat="45.49147" lon="6.7262">
        <ele>2495.1</ele>
        <time>2021-08-15T10:29:03Z</time>
      </trkpt>
      <trkpt lat="45.49147" lon="6.72619">
        <ele>2494.9</ele>
        <time>2021-08-15T10:29:04Z</time>
      </trkpt>
      <trkpt lat="45.49146" lon="6.72618">
        <ele>2494.8</ele>
        <time>2021-08-15T10:29:05Z</time>
      </trkpt>
      <trkpt lat="45.49146" lon="6.72617">
        <ele>2494.7</ele>
        <time>2021-08-15T10:29:06Z</time>
      </trkpt>
      <trkpt lat="45.49145" lon="6.72616">
        <ele>2494.5</ele>
        <time>2021-08-15T10:29:07Z</time>
      </trkpt>
      <trkpt lat="45.49144" lon="6.72616">
        <ele>2494.4</ele>
        <time>2021-08-15T10:29:08Z</time>
      </trkpt>
      <trkpt lat="45.49144" lon="6.72615">
        <ele>2494.3</ele>
        <time>2021-08-15T10:29:09Z</time>
      </trkpt>
      <trkpt lat="45.49143" lon="6.72614">
        <ele>2494.2</ele>
        <time>2021-08-15T10:29:10Z</time>
      </trkpt>
      <trkpt lat="45.49143" lon="6.72614">
        <ele>2494.1</ele>
        <time>2021-08-15T10:29:11Z</time>
      </trkpt>
      <trkpt lat="45.49142" lon="6.72613">
        <ele>2494</ele>
        <time>2021-08-15T10:29:12Z</time>
      </trkpt>
      <trkpt lat="45.49142" lon="6.72612">
        <ele>2493.9</ele>
        <time>2021-08-15T10:29:13Z</time>
      </trkpt>
      <trkpt lat="45.49142" lon="6.72611">
        <ele>2493.8</ele>
        <time>2021-08-15T10:29:14Z</time>
      </trkpt>
      <trkpt lat="45.49141" lon="6.72611">
        <ele>2493.7</ele>
        <time>2021-08-15T10:29:15Z</time>
      </trkpt>
      <trkpt lat="45.49141" lon="6.7261">
        <ele>2493.6</ele>
        <time>2021-08-15T10:29:16Z</time>
      </trkpt>
      <trkpt lat="45.49141" lon="6.72609">
        <ele>2493.5</ele>
        <time>2021-08-15T10:29:17Z</time>
      </trkpt>
      <trkpt lat="45.4914" lon="6.72609">
        <ele>2493.4</ele>
        <time>2021-08-15T10:29:18Z</time>
      </trkpt>
      <trkpt lat="45.4914" lon="6.72608">
        <ele>2493.3</ele>
        <time>2021-08-15T10:29:19Z</time>
      </trkpt>
      <trkpt lat="45.4914" lon="6.72607">
        <ele>2493.2</ele>
        <time>2021-08-15T10:29:20Z</time>
      </trkpt>
      <trkpt lat="45.4914" lon="6.72606">
        <ele>2493.2</ele>
        <time>2021-08-15T10:29:21Z</time>
      </trkpt>
      <trkpt lat="45.4914" lon="6.72605">
        <ele>2493.1</ele>
        <time>2021-08-15T10:29:22Z</time>
      </trkpt>
      <trkpt lat="45.49139" lon="6.72604">
        <ele>2493</ele>
        <time>2021-08-15T10:29:23Z</time>
      </trkpt>
      <trkpt lat="45.49139" lon="6.72604">
        <ele>2492.8</ele>
        <time>2021-08-15T10:29:24Z</time>
      </trkpt>
      <trkpt lat="45.49138" lon="6.72603">
        <ele>2492.7</ele>
        <time>2021-08-15T10:29:25Z</time>
      </trkpt>
      <trkpt lat="45.49138" lon="6.72602">
        <ele>2492.6</ele>
        <time>2021-08-15T10:29:26Z</time>
      </trkpt>
      <trkpt lat="45.49137" lon="6.72601">
        <ele>2492.5</ele>
        <time>2021-08-15T10:29:27Z</time>
      </trkpt>
      <trkpt lat="45.49136" lon="6.726">
        <ele>2492.3</ele>
        <time>2021-08-15T10:29:28Z</time>
      </trkpt>
      <trkpt lat="45.49136" lon="6.72599">
        <ele>2492.2</ele>
        <time>2021-08-15T10:29:29Z</time>
      </trkpt>
      <trkpt lat="45.49135" lon="6.72598">
        <ele>2492.1</ele>
        <time>2021-08-15T10:29:30Z</time>
      </trkpt>
      <trkpt lat="45.49135" lon="6.72597">
        <ele>2492</ele>
        <time>2021-08-15T10:29:31Z</time>
      </trkpt>
      <trkpt lat="45.49135" lon="6.72596">
        <ele>2491.9</ele>
        <time>2021-08-15T10:29:32Z</time>
      </trkpt>
      <trkpt lat="45.49135" lon="6.72595">
        <ele>2491.9</ele>
        <time>2021-08-15T10:29:33Z</time>
      </trkpt>
      <trkpt lat="45.49135" lon="6.72594">
        <ele>2491.8</ele>
        <time>2021-08-15T10:29:34Z</time>
      </trkpt>
      <trkpt lat="45.49135" lon="6.72593">
        <ele>2491.7</ele>
        <time>2021-08-15T10:29:35Z</time>
      </trkpt>
      <trkpt lat="45.49135" lon="6.72593">
        <ele>2491.6</ele>
        <time>2021-08-15T10:29:36Z</time>
      </trkpt>
      <trkpt lat="45.49134" lon="6.72592">
        <ele>2491.5</ele>
        <time>2021-08-15T10:29:37Z</time>
      </trkpt>
      <trkpt lat="45.49134" lon="6.72591">
        <ele>2491.5</ele>
        <time>2021-08-15T10:29:38Z</time>
      </trkpt>
      <trkpt lat="45.49134" lon="6.7259">
        <ele>2491.4</ele>
        <time>2021-08-15T10:29:39Z</time>
      </trkpt>
      <trkpt lat="45.49134" lon="6.72589">
        <ele>2491.3</ele>
        <time>2021-08-15T10:29:40Z</time>
      </trkpt>
      <trkpt lat="45.49134" lon="6.72588">
        <ele>2491.2</ele>
        <time>2021-08-15T10:29:41Z</time>
      </trkpt>
      <trkpt lat="45.49134" lon="6.72587">
        <ele>2491.2</ele>
        <time>2021-08-15T10:29:42Z</time>
      </trkpt>
      <trkpt lat="45.49133" lon="6.72586">
        <ele>2491.1</ele>
        <time>2021-08-15T10:29:43Z</time>
      </trkpt>
      <trkpt lat="45.49133" lon="6.72585">
        <ele>2490.9</ele>
        <time>2021-08-15T10:29:44Z</time>
      </trkpt>
      <trkpt lat="45.49133" lon="6.72584">
        <ele>2490.8</ele>
        <time>2021-08-15T10:29:45Z</time>
      </trkpt>
      <trkpt lat="45.49132" lon="6.72583">
        <ele>2490.7</ele>
        <time>2021-08-15T10:29:46Z</time>
      </trkpt>
      <trkpt lat="45.49132" lon="6.72582">
        <ele>2490.6</ele>
        <time>2021-08-15T10:29:47Z</time>
      </trkpt>
      <trkpt lat="45.49131" lon="6.7258">
        <ele>2490.4</ele>
        <time>2021-08-15T10:29:48Z</time>
      </trkpt>
      <trkpt lat="45.49131" lon="6.72579">
        <ele>2490.3</ele>
        <time>2021-08-15T10:29:49Z</time>
      </trkpt>
      <trkpt lat="45.4913" lon="6.72577">
        <ele>2490.1</ele>
        <time>2021-08-15T10:29:50Z</time>
      </trkpt>
      <trkpt lat="45.49129" lon="6.72576">
        <ele>2490</ele>
        <time>2021-08-15T10:29:51Z</time>
      </trkpt>
      <trkpt lat="45.49129" lon="6.72574">
        <ele>2489.8</ele>
        <time>2021-08-15T10:29:52Z</time>
      </trkpt>
      <trkpt lat="45.49128" lon="6.72573">
        <ele>2489.7</ele>
        <time>2021-08-15T10:29:53Z</time>
      </trkpt>
      <trkpt lat="45.49128" lon="6.72571">
        <ele>2489.5</ele>
        <time>2021-08-15T10:29:54Z</time>
      </trkpt>
      <trkpt lat="45.49127" lon="6.7257">
        <ele>2489.4</ele>
        <time>2021-08-15T10:29:55Z</time>
      </trkpt>
      <trkpt lat="45.49127" lon="6.72569">
        <ele>2489.3</ele>
        <time>2021-08-15T10:29:56Z</time>
      </trkpt>
      <trkpt lat="45.49126" lon="6.72568">
        <ele>2489.2</ele>
        <time>2021-08-15T10:29:57Z</time>
      </trkpt>
      <trkpt lat="45.49126" lon="6.72567">
        <ele>2489.1</ele>
        <time>2021-08-15T10:29:58Z</time>
      </trkpt>
      <trkpt lat="45.49126" lon="6.72566">
        <ele>2489.1</ele>
        <time>2021-08-15T10:29:59Z</time>
      </trkpt>
      <trkpt lat="45.49126" lon="6.72565">
        <ele>2489</ele>
        <time>2021-08-15T10:30:00Z</time>
      </trkpt>
      <trkpt lat="45.49126" lon="6.72565">
        <ele>2489</ele>
        <time>2021-08-15T10:30:01Z</time>
      </trkpt>
      <trkpt lat="45.49127" lon="6.72565">
        <ele>2488.9</ele>
        <time>2021-08-15T10:30:02Z</time>
      </trkpt>
      <trkpt lat="45.49127" lon="6.72564">
        <ele>2488.9</ele>
        <time>2021-08-15T10:30:03Z</time>
      </trkpt>
      <trkpt lat="45.49127" lon="6.72564">
        <ele>2488.9</ele>
        <time>2021-08-15T10:30:04Z</time>
      </trkpt>
      <trkpt lat="45.49127" lon="6.72564">
        <ele>2488.9</ele>
        <time>2021-08-15T10:30:05Z</time>
      </trkpt>
      <trkpt lat="45.49127" lon="6.72564">
        <ele>2488.8</ele>
        <time>2021-08-15T10:30:06Z</time>
      </trkpt>
      <trkpt lat="45.49127" lon="6.72564">
        <ele>2488.8</ele>
        <time>2021-08-15T10:30:07Z</time>
      </trkpt>
      <trkpt lat="45.49128" lon="6.72565">
        <ele>2488.8</ele>
        <time>2021-08-15T10:30:08Z</time>
      </trkpt>
      <trkpt lat="45.49128" lon="6.72565">
        <ele>2488.8</ele>
        <time>2021-08-15T10:30:09Z</time>
      </trkpt>
      <trkpt lat="45.49128" lon="6.72565">
        <ele>2488.8</ele>
        <time>2021-08-15T10:30:10Z</time>
      </trkpt>
      <trkpt lat="45.49128" lon="6.72565">
        <ele>2488.8</ele>
        <time>2021-08-15T10:30:11Z</time>
      </trkpt>
      <trkpt lat="45.49128" lon="6.72565">
        <ele>2488.8</ele>
        <time>2021-08-15T10:30:12Z</time>
      </trkpt>
      <trkpt lat="45.49128" lon="6.72565">
        <ele>2488.8</ele>
        <time>2021-08-15T10:30:13Z</time>
      </trkpt>
      <trkpt lat="45.49128" lon="6.72565">
        <ele>2488.8</ele>
        <time>2021-08-15T10:30:14Z</time>
      </trkpt>
      <trkpt lat="45.49128" lon="6.72565">
        <ele>2488.8</ele>
        <time>2021-08-15T10:30:15Z</time>
      </trkpt>
      <trkpt lat="45.49127" lon="6.72565">
        <ele>2488.7</ele>
        <time>2021-08-15T10:30:16Z</time>
      </trkpt>
      <trkpt lat="45.49127" lon="6.72564">
        <ele>2488.7</ele>
        <time>2021-08-15T10:30:17Z</time>
      </trkpt>
      <trkpt lat="45.49127" lon="6.72564">
        <ele>2488.7</ele>
        <time>2021-08-15T10:30:18Z</time>
      </trkpt>
      <trkpt lat="45.49128" lon="6.72563">
        <ele>2488.6</ele>
        <time>2021-08-15T10:30:19Z</time>
      </trkpt>
      <trkpt lat="45.49128" lon="6.72563">
        <ele>2488.6</ele>
        <time>2021-08-15T10:30:20Z</time>
      </trkpt>
      <trkpt lat="45.49128" lon="6.72562">
        <ele>2488.5</ele>
        <time>2021-08-15T10:30:21Z</time>
      </trkpt>
      <trkpt lat="45.49128" lon="6.72561">
        <ele>2488.4</ele>
        <time>2021-08-15T10:30:22Z</time>
      </trkpt>
      <trkpt lat="45.49128" lon="6.7256">
        <ele>2488.4</ele>
        <time>2021-08-15T10:30:23Z</time>
      </trkpt>
      <trkpt lat="45.49128" lon="6.72559">
        <ele>2488.3</ele>
        <time>2021-08-15T10:30:24Z</time>
      </trkpt>
      <trkpt lat="45.49128" lon="6.72558">
        <ele>2488.2</ele>
        <time>2021-08-15T10:30:25Z</time>
      </trkpt>
      <trkpt lat="45.49128" lon="6.72557">
        <ele>2488.1</ele>
        <time>2021-08-15T10:30:26Z</time>
      </trkpt>
      <trkpt lat="45.49127" lon="6.72556">
        <ele>2488</ele>
        <time>2021-08-15T10:30:27Z</time>
      </trkpt>
      <trkpt lat="45.49127" lon="6.72555">
        <ele>2487.9</ele>
        <time>2021-08-15T10:30:28Z</time>
      </trkpt>
      <trkpt lat="45.49127" lon="6.72554">
        <ele>2487.8</ele>
        <time>2021-08-15T10:30:29Z</time>
      </trkpt>
      <trkpt lat="45.49127" lon="6.72552">
        <ele>2487.8</ele>
        <time>2021-08-15T10:30:30Z</time>
      </trkpt>
      <trkpt lat="45.49127" lon="6.72551">
        <ele>2487.7</ele>
        <time>2021-08-15T10:30:31Z</time>
      </trkpt>
      <trkpt lat="45.49126" lon="6.7255">
        <ele>2487.6</ele>
        <time>2021-08-15T10:30:32Z</time>
      </trkpt>
      <trkpt lat="45.49126" lon="6.72549">
        <ele>2487.5</ele>
        <time>2021-08-15T10:30:33Z</time>
      </trkpt>
      <trkpt lat="45.49126" lon="6.72548">
        <ele>2487.4</ele>
        <time>2021-08-15T10:30:34Z</time>
      </trkpt>
      <trkpt lat="45.49126" lon="6.72546">
        <ele>2487.3</ele>
        <time>2021-08-15T10:30:35Z</time>
      </trkpt>
      <trkpt lat="45.49126" lon="6.72545">
        <ele>2487.2</ele>
        <time>2021-08-15T10:30:36Z</time>
      </trkpt>
      <trkpt lat="45.49125" lon="6.72544">
        <ele>2487.1</ele>
        <time>2021-08-15T10:30:37Z</time>
      </trkpt>
      <trkpt lat="45.49125" lon="6.72543">
        <ele>2487</ele>
        <time>2021-08-15T10:30:38Z</time>
      </trkpt>
      <trkpt lat="45.49125" lon="6.72541">
        <ele>2486.9</ele>
        <time>2021-08-15T10:30:39Z</time>
      </trkpt>
      <trkpt lat="45.49125" lon="6.7254">
        <ele>2486.8</ele>
        <time>2021-08-15T10:30:40Z</time>
      </trkpt>
      <trkpt lat="45.49125" lon="6.72539">
        <ele>2486.7</ele>
        <time>2021-08-15T10:30:41Z</time>
      </trkpt>
      <trkpt lat="45.49125" lon="6.72537">
        <ele>2486.7</ele>
        <time>2021-08-15T10:30:42Z</time>
      </trkpt>
      <trkpt lat="45.49126" lon="6.72536">
        <ele>2486.6</ele>
        <time>2021-08-15T10:30:43Z</time>
      </trkpt>
      <trkpt lat="45.49126" lon="6.72535">
        <ele>2486.5</ele>
        <time>2021-08-15T10:30:44Z</time>
      </trkpt>
      <trkpt lat="45.49126" lon="6.72533">
        <ele>2486.4</ele>
        <time>2021-08-15T10:30:45Z</time>
      </trkpt>
      <trkpt lat="45.49126" lon="6.72532">
        <ele>2486.3</ele>
        <time>2021-08-15T10:30:46Z</time>
      </trkpt>
      <trkpt lat="45.49126" lon="6.72531">
        <ele>2486.2</ele>
        <time>2021-08-15T10:30:47Z</time>
      </trkpt>
      <trkpt lat="45.49126" lon="6.72529">
        <ele>2486.1</ele>
        <time>2021-08-15T10:30:48Z</time>
      </trkpt>
      <trkpt lat="45.49127" lon="6.72528">
        <ele>2486.1</ele>
        <time>2021-08-15T10:30:49Z</time>
      </trkpt>
      <trkpt lat="45.49127" lon="6.72527">
        <ele>2486</ele>
        <time>2021-08-15T10:30:50Z</time>
      </trkpt>
      <trkpt lat="45.49127" lon="6.72526">
        <ele>2485.9</ele>
        <time>2021-08-15T10:30:51Z</time>
      </trkpt>
      <trkpt lat="45.49127" lon="6.72524">
        <ele>2485.8</ele>
        <time>2021-08-15T10:30:52Z</time>
      </trkpt>
      <trkpt lat="45.49127" lon="6.72523">
        <ele>2485.8</ele>
        <time>2021-08-15T10:30:53Z</time>
      </trkpt>
      <trkpt lat="45.49128" lon="6.72522">
        <ele>2485.7</ele>
        <time>2021-08-15T10:30:54Z</time>
      </trkpt>
      <trkpt lat="45.49128" lon="6.72522">
        <ele>2485.7</ele>
        <time>2021-08-15T10:30:55Z</time>
      </trkpt>
      <trkpt lat="45.49128" lon="6.72521">
        <ele>2485.7</ele>
        <time>2021-08-15T10:30:56Z</time>
      </trkpt>
      <trkpt lat="45.49128" lon="6.72521">
        <ele>2485.7</ele>
        <time>2021-08-15T10:30:57Z</time>
      </trkpt>
      <trkpt lat="45.49128" lon="6.72521">
        <ele>2485.6</ele>
        <time>2021-08-15T10:30:58Z</time>
      </trkpt>
      <trkpt lat="45.49128" lon="6.72521">
        <ele>2485.6</ele>
        <time>2021-08-15T10:30:59Z</time>
      </trkpt>
      <trkpt lat="45.49128" lon="6.72521">
        <ele>2485.6</ele>
        <time>2021-08-15T10:31:00Z</time>
      </trkpt>
      <trkpt lat="45.49128" lon="6.72521">
        <ele>2485.6</ele>
        <time>2021-08-15T10:31:01Z</time>
      </trkpt>
      <trkpt lat="45.49128" lon="6.72521">
        <ele>2485.6</ele>
        <time>2021-08-15T10:31:02Z</time>
      </trkpt>
      <trkpt lat="45.49128" lon="6.72521">
        <ele>2485.6</ele>
        <time>2021-08-15T10:31:03Z</time>
      </trkpt>
      <trkpt lat="45.49128" lon="6.7252">
        <ele>2485.6</ele>
        <time>2021-08-15T10:31:04Z</time>
      </trkpt>
      <trkpt lat="45.49129" lon="6.7252">
        <ele>2485.6</ele>
        <time>2021-08-15T10:31:05Z</time>
      </trkpt>
      <trkpt lat="45.49129" lon="6.72519">
        <ele>2485.5</ele>
        <time>2021-08-15T10:31:06Z</time>
      </trkpt>
      <trkpt lat="45.49129" lon="6.72519">
        <ele>2485.5</ele>
        <time>2021-08-15T10:31:07Z</time>
      </trkpt>
      <trkpt lat="45.4913" lon="6.72518">
        <ele>2485.4</ele>
        <time>2021-08-15T10:31:08Z</time>
      </trkpt>
      <trkpt lat="45.4913" lon="6.72516">
        <ele>2485.3</ele>
        <time>2021-08-15T10:31:09Z</time>
      </trkpt>
      <trkpt lat="45.4913" lon="6.72515">
        <ele>2485.3</ele>
        <time>2021-08-15T10:31:10Z</time>
      </trkpt>
      <trkpt lat="45.49131" lon="6.72514">
        <ele>2485.2</ele>
        <time>2021-08-15T10:31:11Z</time>
      </trkpt>
      <trkpt lat="45.49131" lon="6.72512">
        <ele>2485.1</ele>
        <time>2021-08-15T10:31:12Z</time>
      </trkpt>
      <trkpt lat="45.49131" lon="6.72511">
        <ele>2485.1</ele>
        <time>2021-08-15T10:31:13Z</time>
      </trkpt>
      <trkpt lat="45.49132" lon="6.72509">
        <ele>2485</ele>
        <time>2021-08-15T10:31:14Z</time>
      </trkpt>
      <trkpt lat="45.49132" lon="6.72508">
        <ele>2484.9</ele>
        <time>2021-08-15T10:31:15Z</time>
      </trkpt>
      <trkpt lat="45.49133" lon="6.72506">
        <ele>2484.9</ele>
        <time>2021-08-15T10:31:16Z</time>
      </trkpt>
      <trkpt lat="45.49133" lon="6.72505">
        <ele>2484.8</ele>
        <time>2021-08-15T10:31:17Z</time>
      </trkpt>
      <trkpt lat="45.49133" lon="6.72503">
        <ele>2484.8</ele>
        <time>2021-08-15T10:31:18Z</time>
      </trkpt>
      <trkpt lat="45.49134" lon="6.72502">
        <ele>2484.7</ele>
        <time>2021-08-15T10:31:19Z</time>
      </trkpt>
      <trkpt lat="45.49134" lon="6.72501">
        <ele>2484.6</ele>
        <time>2021-08-15T10:31:20Z</time>
      </trkpt>
      <trkpt lat="45.49135" lon="6.72499">
        <ele>2484.6</ele>
        <time>2021-08-15T10:31:21Z</time>
      </trkpt>
      <trkpt lat="45.49135" lon="6.72498">
        <ele>2484.5</ele>
        <time>2021-08-15T10:31:22Z</time>
      </trkpt>
      <trkpt lat="45.49136" lon="6.72497">
        <ele>2484.5</ele>
        <time>2021-08-15T10:31:23Z</time>
      </trkpt>
      <trkpt lat="45.49136" lon="6.72496">
        <ele>2484.4</ele>
        <time>2021-08-15T10:31:24Z</time>
      </trkpt>
      <trkpt lat="45.49137" lon="6.72494">
        <ele>2484.4</ele>
        <time>2021-08-15T10:31:25Z</time>
      </trkpt>
      <trkpt lat="45.49137" lon="6.72493">
        <ele>2484.3</ele>
        <time>2021-08-15T10:31:26Z</time>
      </trkpt>
      <trkpt lat="45.49138" lon="6.72492">
        <ele>2484.3</ele>
        <time>2021-08-15T10:31:27Z</time>
      </trkpt>
      <trkpt lat="45.49139" lon="6.72491">
        <ele>2484.2</ele>
        <time>2021-08-15T10:31:28Z</time>
      </trkpt>
      <trkpt lat="45.49139" lon="6.7249">
        <ele>2484.2</ele>
        <time>2021-08-15T10:31:29Z</time>
      </trkpt>
      <trkpt lat="45.4914" lon="6.72488">
        <ele>2484.1</ele>
        <time>2021-08-15T10:31:30Z</time>
      </trkpt>
      <trkpt lat="45.49141" lon="6.72487">
        <ele>2484.1</ele>
        <time>2021-08-15T10:31:31Z</time>
      </trkpt>
      <trkpt lat="45.49141" lon="6.72486">
        <ele>2484</ele>
        <time>2021-08-15T10:31:32Z</time>
      </trkpt>
      <trkpt lat="45.49142" lon="6.72485">
        <ele>2484</ele>
        <time>2021-08-15T10:31:33Z</time>
      </trkpt>
      <trkpt lat="45.49143" lon="6.72484">
        <ele>2483.9</ele>
        <time>2021-08-15T10:31:34Z</time>
      </trkpt>
      <trkpt lat="45.49143" lon="6.72483">
        <ele>2483.9</ele>
        <time>2021-08-15T10:31:35Z</time>
      </trkpt>
      <trkpt lat="45.49144" lon="6.72481">
        <ele>2483.8</ele>
        <time>2021-08-15T10:31:36Z</time>
      </trkpt>
      <trkpt lat="45.49145" lon="6.7248">
        <ele>2483.8</ele>
        <time>2021-08-15T10:31:37Z</time>
      </trkpt>
      <trkpt lat="45.49145" lon="6.72479">
        <ele>2483.7</ele>
        <time>2021-08-15T10:31:38Z</time>
      </trkpt>
      <trkpt lat="45.49146" lon="6.72478">
        <ele>2483.7</ele>
        <time>2021-08-15T10:31:39Z</time>
      </trkpt>
      <trkpt lat="45.49147" lon="6.72477">
        <ele>2483.6</ele>
        <time>2021-08-15T10:31:40Z</time>
      </trkpt>
      <trkpt lat="45.49147" lon="6.72476">
        <ele>2483.6</ele>
        <time>2021-08-15T10:31:41Z</time>
      </trkpt>
      <trkpt lat="45.49148" lon="6.72475">
        <ele>2483.6</ele>
        <time>2021-08-15T10:31:42Z</time>
      </trkpt>
      <trkpt lat="45.49148" lon="6.72474">
        <ele>2483.5</ele>
        <time>2021-08-15T10:31:43Z</time>
      </trkpt>
      <trkpt lat="45.49149" lon="6.72473">
        <ele>2483.5</ele>
        <time>2021-08-15T10:31:44Z</time>
      </trkpt>
      <trkpt lat="45.49149" lon="6.72472">
        <ele>2483.5</ele>
        <time>2021-08-15T10:31:45Z</time>
      </trkpt>
      <trkpt lat="45.4915" lon="6.72472">
        <ele>2483.4</ele>
        <time>2021-08-15T10:31:46Z</time>
      </trkpt>
      <trkpt lat="45.4915" lon="6.72471">
        <ele>2483.4</ele>
        <time>2021-08-15T10:31:47Z</time>
      </trkpt>
      <trkpt lat="45.4915" lon="6.72471">
        <ele>2483.4</ele>
        <time>2021-08-15T10:31:48Z</time>
      </trkpt>
      <trkpt lat="45.49151" lon="6.7247">
        <ele>2483.4</ele>
        <time>2021-08-15T10:31:49Z</time>
      </trkpt>
      <trkpt lat="45.49151" lon="6.7247">
        <ele>2483.4</ele>
        <time>2021-08-15T10:31:50Z</time>
      </trkpt>
      <trkpt lat="45.49151" lon="6.7247">
        <ele>2483.4</ele>
        <time>2021-08-15T10:31:51Z</time>
      </trkpt>
      <trkpt lat="45.49151" lon="6.7247">
        <ele>2483.3</ele>
        <time>2021-08-15T10:31:52Z</time>
      </trkpt>
      <trkpt lat="45.49151" lon="6.72469">
        <ele>2483.3</ele>
        <time>2021-08-15T10:31:53Z</time>
      </trkpt>
      <trkpt lat="45.49151" lon="6.72469">
        <ele>2483.3</ele>
        <time>2021-08-15T10:31:54Z</time>
      </trkpt>
      <trkpt lat="45.49151" lon="6.72468">
        <ele>2483.3</ele>
        <time>2021-08-15T10:31:55Z</time>
      </trkpt>
      <trkpt lat="45.49151" lon="6.72467">
        <ele>2483.3</ele>
        <time>2021-08-15T10:31:56Z</time>
      </trkpt>
      <trkpt lat="45.49151" lon="6.72466">
        <ele>2483.2</ele>
        <time>2021-08-15T10:31:57Z</time>
      </trkpt>
      <trkpt lat="45.49151" lon="6.72465">
        <ele>2483.2</ele>
        <time>2021-08-15T10:31:58Z</time>
      </trkpt>
      <trkpt lat="45.49151" lon="6.72464">
        <ele>2483.2</ele>
        <time>2021-08-15T10:31:59Z</time>
      </trkpt>
      <trkpt lat="45.49152" lon="6.72463">
        <ele>2483.1</ele>
        <time>2021-08-15T10:32:00Z</time>
      </trkpt>
      <trkpt lat="45.49153" lon="6.72462">
        <ele>2483.1</ele>
        <time>2021-08-15T10:32:01Z</time>
      </trkpt>
      <trkpt lat="45.49154" lon="6.7246">
        <ele>2483</ele>
        <time>2021-08-15T10:32:02Z</time>
      </trkpt>
      <trkpt lat="45.49155" lon="6.72459">
        <ele>2482.9</ele>
        <time>2021-08-15T10:32:03Z</time>
      </trkpt>
      <trkpt lat="45.49156" lon="6.72459">
        <ele>2482.9</ele>
        <time>2021-08-15T10:32:04Z</time>
      </trkpt>
      <trkpt lat="45.49156" lon="6.72458">
        <ele>2482.9</ele>
        <time>2021-08-15T10:32:05Z</time>
      </trkpt>
      <trkpt lat="45.49156" lon="6.72458">
        <ele>2482.9</ele>
        <time>2021-08-15T10:32:06Z</time>
      </trkpt>
      <trkpt lat="45.49157" lon="6.72457">
        <ele>2482.8</ele>
        <time>2021-08-15T10:32:07Z</time>
      </trkpt>
      <trkpt lat="45.49157" lon="6.72457">
        <ele>2482.8</ele>
        <time>2021-08-15T10:32:08Z</time>
      </trkpt>
      <trkpt lat="45.49157" lon="6.72456">
        <ele>2482.8</ele>
        <time>2021-08-15T10:32:09Z</time>
      </trkpt>
      <trkpt lat="45.49158" lon="6.72455">
        <ele>2482.7</ele>
        <time>2021-08-15T10:32:10Z</time>
      </trkpt>
      <trkpt lat="45.49159" lon="6.72454">
        <ele>2482.7</ele>
        <time>2021-08-15T10:32:11Z</time>
      </trkpt>
      <trkpt lat="45.49159" lon="6.72453">
        <ele>2482.7</ele>
        <time>2021-08-15T10:32:12Z</time>
      </trkpt>
      <trkpt lat="45.4916" lon="6.72452">
        <ele>2482.6</ele>
        <time>2021-08-15T10:32:13Z</time>
      </trkpt>
      <trkpt lat="45.49161" lon="6.72451">
        <ele>2482.6</ele>
        <time>2021-08-15T10:32:14Z</time>
      </trkpt>
      <trkpt lat="45.49161" lon="6.7245">
        <ele>2482.5</ele>
        <time>2021-08-15T10:32:15Z</time>
      </trkpt>
      <trkpt lat="45.49162" lon="6.72449">
        <ele>2482.5</ele>
        <time>2021-08-15T10:32:16Z</time>
      </trkpt>
      <trkpt lat="45.49163" lon="6.72448">
        <ele>2482.4</ele>
        <time>2021-08-15T10:32:17Z</time>
      </trkpt>
      <trkpt lat="45.49164" lon="6.72447">
        <ele>2482.3</ele>
        <time>2021-08-15T10:32:18Z</time>
      </trkpt>
      <trkpt lat="45.49164" lon="6.72445">
        <ele>2482.3</ele>
        <time>2021-08-15T10:32:19Z</time>
      </trkpt>
      <trkpt lat="45.49165" lon="6.72444">
        <ele>2482.2</ele>
        <time>2021-08-15T10:32:20Z</time>
      </trkpt>
      <trkpt lat="45.49166" lon="6.72443">
        <ele>2482.2</ele>
        <time>2021-08-15T10:32:21Z</time>
      </trkpt>
      <trkpt lat="45.49166" lon="6.72442">
        <ele>2482.1</ele>
        <time>2021-08-15T10:32:22Z</time>
      </trkpt>
      <trkpt lat="45.49167" lon="6.7244">
        <ele>2482.1</ele>
        <time>2021-08-15T10:32:23Z</time>
      </trkpt>
      <trkpt lat="45.49168" lon="6.72439">
        <ele>2482</ele>
        <time>2021-08-15T10:32:24Z</time>
      </trkpt>
      <trkpt lat="45.49168" lon="6.72438">
        <ele>2481.9</ele>
        <time>2021-08-15T10:32:25Z</time>
      </trkpt>
      <trkpt lat="45.49169" lon="6.72436">
        <ele>2481.9</ele>
        <time>2021-08-15T10:32:26Z</time>
      </trkpt>
      <trkpt lat="45.4917" lon="6.72435">
        <ele>2481.8</ele>
        <time>2021-08-15T10:32:27Z</time>
      </trkpt>
      <trkpt lat="45.4917" lon="6.72433">
        <ele>2481.7</ele>
        <time>2021-08-15T10:32:28Z</time>
      </trkpt>
      <trkpt lat="45.49171" lon="6.72432">
        <ele>2481.7</ele>
        <time>2021-08-15T10:32:29Z</time>
      </trkpt>
      <trkpt lat="45.49171" lon="6.7243">
        <ele>2481.6</ele>
        <time>2021-08-15T10:32:30Z</time>
      </trkpt>
      <trkpt lat="45.49172" lon="6.72429">
        <ele>2481.5</ele>
        <time>2021-08-15T10:32:31Z</time>
      </trkpt>
      <trkpt lat="45.49172" lon="6.72428">
        <ele>2481.5</ele>
        <time>2021-08-15T10:32:32Z</time>
      </trkpt>
      <trkpt lat="45.49173" lon="6.72427">
        <ele>2481.4</ele>
        <time>2021-08-15T10:32:33Z</time>
      </trkpt>
      <trkpt lat="45.49173" lon="6.72425">
        <ele>2481.3</ele>
        <time>2021-08-15T10:32:34Z</time>
      </trkpt>
      <trkpt lat="45.49173" lon="6.72424">
        <ele>2481.3</ele>
        <time>2021-08-15T10:32:35Z</time>
      </trkpt>
      <trkpt lat="45.49174" lon="6.72424">
        <ele>2481.3</ele>
        <time>2021-08-15T10:32:36Z</time>
      </trkpt>
      <trkpt lat="45.49174" lon="6.72423">
        <ele>2481.2</ele>
        <time>2021-08-15T10:32:37Z</time>
      </trkpt>
      <trkpt lat="45.49174" lon="6.72422">
        <ele>2481.2</ele>
        <time>2021-08-15T10:32:38Z</time>
      </trkpt>
      <trkpt lat="45.49174" lon="6.72422">
        <ele>2481.2</ele>
        <time>2021-08-15T10:32:39Z</time>
      </trkpt>
      <trkpt lat="45.49174" lon="6.72421">
        <ele>2481.2</ele>
        <time>2021-08-15T10:32:40Z</time>
      </trkpt>
      <trkpt lat="45.49175" lon="6.72421">
        <ele>2481.1</ele>
        <time>2021-08-15T10:32:41Z</time>
      </trkpt>
      <trkpt lat="45.49175" lon="6.72421">
        <ele>2481.1</ele>
        <time>2021-08-15T10:32:42Z</time>
      </trkpt>
      <trkpt lat="45.49175" lon="6.72421">
        <ele>2481.1</ele>
        <time>2021-08-15T10:32:43Z</time>
      </trkpt>
      <trkpt lat="45.49175" lon="6.7242">
        <ele>2481.1</ele>
        <time>2021-08-15T10:32:44Z</time>
      </trkpt>
      <trkpt lat="45.49175" lon="6.7242">
        <ele>2481.1</ele>
        <time>2021-08-15T10:32:45Z</time>
      </trkpt>
      <trkpt lat="45.49175" lon="6.7242">
        <ele>2481.1</ele>
        <time>2021-08-15T10:32:46Z</time>
      </trkpt>
      <trkpt lat="45.49175" lon="6.7242">
        <ele>2481.1</ele>
        <time>2021-08-15T10:32:47Z</time>
      </trkpt>
      <trkpt lat="45.49176" lon="6.7242">
        <ele>2481.1</ele>
        <time>2021-08-15T10:32:48Z</time>
      </trkpt>
      <trkpt lat="45.49176" lon="6.7242">
        <ele>2481</ele>
        <time>2021-08-15T10:32:49Z</time>
      </trkpt>
      <trkpt lat="45.49176" lon="6.72419">
        <ele>2481</ele>
        <time>2021-08-15T10:32:50Z</time>
      </trkpt>
      <trkpt lat="45.49176" lon="6.72419">
        <ele>2481</ele>
        <time>2021-08-15T10:32:51Z</time>
      </trkpt>
      <trkpt lat="45.49176" lon="6.72418">
        <ele>2481</ele>
        <time>2021-08-15T10:32:52Z</time>
      </trkpt>
      <trkpt lat="45.49177" lon="6.72418">
        <ele>2480.9</ele>
        <time>2021-08-15T10:32:53Z</time>
      </trkpt>
      <trkpt lat="45.49177" lon="6.72417">
        <ele>2480.9</ele>
        <time>2021-08-15T10:32:54Z</time>
      </trkpt>
      <trkpt lat="45.49177" lon="6.72415">
        <ele>2480.9</ele>
        <time>2021-08-15T10:32:55Z</time>
      </trkpt>
      <trkpt lat="45.49177" lon="6.72414">
        <ele>2480.8</ele>
        <time>2021-08-15T10:32:56Z</time>
      </trkpt>
      <trkpt lat="45.49177" lon="6.72413">
        <ele>2480.7</ele>
        <time>2021-08-15T10:32:57Z</time>
      </trkpt>
      <trkpt lat="45.49177" lon="6.72411">
        <ele>2480.7</ele>
        <time>2021-08-15T10:32:58Z</time>
      </trkpt>
      <trkpt lat="45.49177" lon="6.72409">
        <ele>2480.6</ele>
        <time>2021-08-15T10:32:59Z</time>
      </trkpt>
      <trkpt lat="45.49178" lon="6.72407">
        <ele>2480.5</ele>
        <time>2021-08-15T10:33:00Z</time>
      </trkpt>
      <trkpt lat="45.49178" lon="6.72406">
        <ele>2480.4</ele>
        <time>2021-08-15T10:33:01Z</time>
      </trkpt>
      <trkpt lat="45.49178" lon="6.72404">
        <ele>2480.4</ele>
        <time>2021-08-15T10:33:02Z</time>
      </trkpt>
      <trkpt lat="45.49178" lon="6.72402">
        <ele>2480.3</ele>
        <time>2021-08-15T10:33:03Z</time>
      </trkpt>
      <trkpt lat="45.49178" lon="6.72401">
        <ele>2480.3</ele>
        <time>2021-08-15T10:33:04Z</time>
      </trkpt>
      <trkpt lat="45.49178" lon="6.724">
        <ele>2480.2</ele>
        <time>2021-08-15T10:33:05Z</time>
      </trkpt>
      <trkpt lat="45.49178" lon="6.72399">
        <ele>2480.2</ele>
        <time>2021-08-15T10:33:06Z</time>
      </trkpt>
      <trkpt lat="45.49178" lon="6.72398">
        <ele>2480.1</ele>
        <time>2021-08-15T10:33:07Z</time>
      </trkpt>
      <trkpt lat="45.49178" lon="6.72398">
        <ele>2480.1</ele>
        <time>2021-08-15T10:33:08Z</time>
      </trkpt>
      <trkpt lat="45.49178" lon="6.72398">
        <ele>2480.1</ele>
        <time>2021-08-15T10:33:09Z</time>
      </trkpt>
      <trkpt lat="45.49178" lon="6.72397">
        <ele>2480.1</ele>
        <time>2021-08-15T10:33:10Z</time>
      </trkpt>
      <trkpt lat="45.49178" lon="6.72397">
        <ele>2480.1</ele>
        <time>2021-08-15T10:33:11Z</time>
      </trkpt>
      <trkpt lat="45.49178" lon="6.72397">
        <ele>2480.1</ele>
        <time>2021-08-15T10:33:12Z</time>
      </trkpt>
      <trkpt lat="45.49178" lon="6.72397">
        <ele>2480.1</ele>
        <time>2021-08-15T10:33:13Z</time>
      </trkpt>
      <trkpt lat="45.49178" lon="6.72397">
        <ele>2480.1</ele>
        <time>2021-08-15T10:33:14Z</time>
      </trkpt>
      <trkpt lat="45.49178" lon="6.72397">
        <ele>2480.1</ele>
        <time>2021-08-15T10:33:15Z</time>
      </trkpt>
      <trkpt lat="45.49178" lon="6.72396">
        <ele>2480.1</ele>
        <time>2021-08-15T10:33:16Z</time>
      </trkpt>
      <trkpt lat="45.49178" lon="6.72396">
        <ele>2480</ele>
        <time>2021-08-15T10:33:17Z</time>
      </trkpt>
      <trkpt lat="45.49178" lon="6.72395">
        <ele>2480</ele>
        <time>2021-08-15T10:33:18Z</time>
      </trkpt>
      <trkpt lat="45.49178" lon="6.72394">
        <ele>2480</ele>
        <time>2021-08-15T10:33:19Z</time>
      </trkpt>
      <trkpt lat="45.49178" lon="6.72393">
        <ele>2479.9</ele>
        <time>2021-08-15T10:33:20Z</time>
      </trkpt>
      <trkpt lat="45.49178" lon="6.72392">
        <ele>2479.9</ele>
        <time>2021-08-15T10:33:21Z</time>
      </trkpt>
      <trkpt lat="45.49178" lon="6.72391">
        <ele>2479.9</ele>
        <time>2021-08-15T10:33:22Z</time>
      </trkpt>
      <trkpt lat="45.49178" lon="6.7239">
        <ele>2479.8</ele>
        <time>2021-08-15T10:33:23Z</time>
      </trkpt>
      <trkpt lat="45.49178" lon="6.72389">
        <ele>2479.8</ele>
        <time>2021-08-15T10:33:24Z</time>
      </trkpt>
      <trkpt lat="45.49178" lon="6.72387">
        <ele>2479.7</ele>
        <time>2021-08-15T10:33:25Z</time>
      </trkpt>
      <trkpt lat="45.49178" lon="6.72386">
        <ele>2479.6</ele>
        <time>2021-08-15T10:33:26Z</time>
      </trkpt>
      <trkpt lat="45.49178" lon="6.72385">
        <ele>2479.6</ele>
        <time>2021-08-15T10:33:27Z</time>
      </trkpt>
      <trkpt lat="45.49178" lon="6.72383">
        <ele>2479.5</ele>
        <time>2021-08-15T10:33:28Z</time>
      </trkpt>
      <trkpt lat="45.49177" lon="6.72381">
        <ele>2479.4</ele>
        <time>2021-08-15T10:33:29Z</time>
      </trkpt>
      <trkpt lat="45.49177" lon="6.7238">
        <ele>2479.4</ele>
        <time>2021-08-15T10:33:30Z</time>
      </trkpt>
      <trkpt lat="45.49177" lon="6.72378">
        <ele>2479.3</ele>
        <time>2021-08-15T10:33:31Z</time>
      </trkpt>
      <trkpt lat="45.49176" lon="6.72377">
        <ele>2479.2</ele>
        <time>2021-08-15T10:33:32Z</time>
      </trkpt>
      <trkpt lat="45.49176" lon="6.72375">
        <ele>2479.1</ele>
        <time>2021-08-15T10:33:33Z</time>
      </trkpt>
      <trkpt lat="45.49176" lon="6.72374">
        <ele>2479</ele>
        <time>2021-08-15T10:33:34Z</time>
      </trkpt>
      <trkpt lat="45.49176" lon="6.72372">
        <ele>2479</ele>
        <time>2021-08-15T10:33:35Z</time>
      </trkpt>
      <trkpt lat="45.49175" lon="6.72371">
        <ele>2478.9</ele>
        <time>2021-08-15T10:33:36Z</time>
      </trkpt>
      <trkpt lat="45.49175" lon="6.72369">
        <ele>2478.8</ele>
        <time>2021-08-15T10:33:37Z</time>
      </trkpt>
      <trkpt lat="45.49175" lon="6.72368">
        <ele>2478.8</ele>
        <time>2021-08-15T10:33:38Z</time>
      </trkpt>
      <trkpt lat="45.49174" lon="6.72367">
        <ele>2478.7</ele>
        <time>2021-08-15T10:33:39Z</time>
      </trkpt>
      <trkpt lat="45.49174" lon="6.72365">
        <ele>2478.6</ele>
        <time>2021-08-15T10:33:40Z</time>
      </trkpt>
      <trkpt lat="45.49174" lon="6.72364">
        <ele>2478.6</ele>
        <time>2021-08-15T10:33:41Z</time>
      </trkpt>
      <trkpt lat="45.49174" lon="6.72363">
        <ele>2478.5</ele>
        <time>2021-08-15T10:33:42Z</time>
      </trkpt>
      <trkpt lat="45.49173" lon="6.72362">
        <ele>2478.4</ele>
        <time>2021-08-15T10:33:43Z</time>
      </trkpt>
      <trkpt lat="45.49173" lon="6.72361">
        <ele>2478.4</ele>
        <time>2021-08-15T10:33:44Z</time>
      </trkpt>
      <trkpt lat="45.49173" lon="6.72359">
        <ele>2478.3</ele>
        <time>2021-08-15T10:33:45Z</time>
      </trkpt>
      <trkpt lat="45.49173" lon="6.72358">
        <ele>2478.3</ele>
        <time>2021-08-15T10:33:46Z</time>
      </trkpt>
      <trkpt lat="45.49173" lon="6.72357">
        <ele>2478.2</ele>
        <time>2021-08-15T10:33:47Z</time>
      </trkpt>
      <trkpt lat="45.49173" lon="6.72356">
        <ele>2478.1</ele>
        <time>2021-08-15T10:33:48Z</time>
      </trkpt>
      <trkpt lat="45.49173" lon="6.72355">
        <ele>2478.1</ele>
        <time>2021-08-15T10:33:49Z</time>
      </trkpt>
      <trkpt lat="45.49173" lon="6.72354">
        <ele>2478</ele>
        <time>2021-08-15T10:33:50Z</time>
      </trkpt>
      <trkpt lat="45.49173" lon="6.72352">
        <ele>2477.9</ele>
        <time>2021-08-15T10:33:51Z</time>
      </trkpt>
      <trkpt lat="45.49173" lon="6.72351">
        <ele>2477.9</ele>
        <time>2021-08-15T10:33:52Z</time>
      </trkpt>
      <trkpt lat="45.49173" lon="6.7235">
        <ele>2477.8</ele>
        <time>2021-08-15T10:33:53Z</time>
      </trkpt>
      <trkpt lat="45.49173" lon="6.72348">
        <ele>2477.7</ele>
        <time>2021-08-15T10:33:54Z</time>
      </trkpt>
      <trkpt lat="45.49173" lon="6.72347">
        <ele>2477.7</ele>
        <time>2021-08-15T10:33:55Z</time>
      </trkpt>
      <trkpt lat="45.49173" lon="6.72346">
        <ele>2477.6</ele>
        <time>2021-08-15T10:33:56Z</time>
      </trkpt>
      <trkpt lat="45.49173" lon="6.72344">
        <ele>2477.5</ele>
        <time>2021-08-15T10:33:57Z</time>
      </trkpt>
      <trkpt lat="45.49173" lon="6.72343">
        <ele>2477.5</ele>
        <time>2021-08-15T10:33:58Z</time>
      </trkpt>
      <trkpt lat="45.49173" lon="6.72342">
        <ele>2477.4</ele>
        <time>2021-08-15T10:33:59Z</time>
      </trkpt>
      <trkpt lat="45.49173" lon="6.7234">
        <ele>2477.3</ele>
        <time>2021-08-15T10:34:00Z</time>
      </trkpt>
      <trkpt lat="45.49173" lon="6.72339">
        <ele>2477.3</ele>
        <time>2021-08-15T10:34:01Z</time>
      </trkpt>
      <trkpt lat="45.49173" lon="6.72338">
        <ele>2477.2</ele>
        <time>2021-08-15T10:34:02Z</time>
      </trkpt>
      <trkpt lat="45.49173" lon="6.72337">
        <ele>2477.2</ele>
        <time>2021-08-15T10:34:03Z</time>
      </trkpt>
      <trkpt lat="45.49173" lon="6.72337">
        <ele>2477.1</ele>
        <time>2021-08-15T10:34:04Z</time>
      </trkpt>
      <trkpt lat="45.49173" lon="6.72336">
        <ele>2477.1</ele>
        <time>2021-08-15T10:34:05Z</time>
      </trkpt>
      <trkpt lat="45.49173" lon="6.72336">
        <ele>2477.1</ele>
        <time>2021-08-15T10:34:06Z</time>
      </trkpt>
      <trkpt lat="45.49173" lon="6.72336">
        <ele>2477.1</ele>
        <time>2021-08-15T10:34:07Z</time>
      </trkpt>
      <trkpt lat="45.49173" lon="6.72336">
        <ele>2477.1</ele>
        <time>2021-08-15T10:34:08Z</time>
      </trkpt>
      <trkpt lat="45.49173" lon="6.72336">
        <ele>2477.1</ele>
        <time>2021-08-15T10:34:09Z</time>
      </trkpt>
      <trkpt lat="45.49173" lon="6.72336">
        <ele>2477.1</ele>
        <time>2021-08-15T10:34:10Z</time>
      </trkpt>
      <trkpt lat="45.49173" lon="6.72336">
        <ele>2477.1</ele>
        <time>2021-08-15T10:34:11Z</time>
      </trkpt>
      <trkpt lat="45.49173" lon="6.72336">
        <ele>2477.1</ele>
        <time>2021-08-15T10:34:12Z</time>
      </trkpt>
      <trkpt lat="45.49173" lon="6.72335">
        <ele>2477.1</ele>
        <time>2021-08-15T10:34:13Z</time>
      </trkpt>
      <trkpt lat="45.49173" lon="6.72335">
        <ele>2477</ele>
        <time>2021-08-15T10:34:14Z</time>
      </trkpt>
      <trkpt lat="45.49173" lon="6.72335">
        <ele>2477</ele>
        <time>2021-08-15T10:34:15Z</time>
      </trkpt>
      <trkpt lat="45.49173" lon="6.72334">
        <ele>2477</ele>
        <time>2021-08-15T10:34:16Z</time>
      </trkpt>
      <trkpt lat="45.49173" lon="6.72333">
        <ele>2476.9</ele>
        <time>2021-08-15T10:34:17Z</time>
      </trkpt>
      <trkpt lat="45.49174" lon="6.72332">
        <ele>2476.9</ele>
        <time>2021-08-15T10:34:18Z</time>
      </trkpt>
      <trkpt lat="45.49174" lon="6.72331">
        <ele>2476.8</ele>
        <time>2021-08-15T10:34:19Z</time>
      </trkpt>
      <trkpt lat="45.49174" lon="6.7233">
        <ele>2476.8</ele>
        <time>2021-08-15T10:34:20Z</time>
      </trkpt>
      <trkpt lat="45.49174" lon="6.72329">
        <ele>2476.7</ele>
        <time>2021-08-15T10:34:21Z</time>
      </trkpt>
      <trkpt lat="45.49174" lon="6.72328">
        <ele>2476.7</ele>
        <time>2021-08-15T10:34:22Z</time>
      </trkpt>
      <trkpt lat="45.49175" lon="6.72327">
        <ele>2476.6</ele>
        <time>2021-08-15T10:34:23Z</time>
      </trkpt>
      <trkpt lat="45.49175" lon="6.72326">
        <ele>2476.6</ele>
        <time>2021-08-15T10:34:24Z</time>
      </trkpt>
      <trkpt lat="45.49175" lon="6.72325">
        <ele>2476.5</ele>
        <time>2021-08-15T10:34:25Z</time>
      </trkpt>
      <trkpt lat="45.49175" lon="6.72324">
        <ele>2476.4</ele>
        <time>2021-08-15T10:34:26Z</time>
      </trkpt>
      <trkpt lat="45.49176" lon="6.72323">
        <ele>2476.4</ele>
        <time>2021-08-15T10:34:27Z</time>
      </trkpt>
      <trkpt lat="45.49176" lon="6.72321">
        <ele>2476.3</ele>
        <time>2021-08-15T10:34:28Z</time>
      </trkpt>
      <trkpt lat="45.49176" lon="6.7232">
        <ele>2476.3</ele>
        <time>2021-08-15T10:34:29Z</time>
      </trkpt>
      <trkpt lat="45.49176" lon="6.72319">
        <ele>2476.2</ele>
        <time>2021-08-15T10:34:30Z</time>
      </trkpt>
      <trkpt lat="45.49177" lon="6.72318">
        <ele>2476.2</ele>
        <time>2021-08-15T10:34:31Z</time>
      </trkpt>
      <trkpt lat="45.49177" lon="6.72318">
        <ele>2476.1</ele>
        <time>2021-08-15T10:34:32Z</time>
      </trkpt>
      <trkpt lat="45.49178" lon="6.72317">
        <ele>2476.1</ele>
        <time>2021-08-15T10:34:33Z</time>
      </trkpt>
      <trkpt lat="45.49178" lon="6.72316">
        <ele>2476</ele>
        <time>2021-08-15T10:34:34Z</time>
      </trkpt>
      <trkpt lat="45.49178" lon="6.72315">
        <ele>2476</ele>
        <time>2021-08-15T10:34:35Z</time>
      </trkpt>
      <trkpt lat="45.49179" lon="6.72314">
        <ele>2476</ele>
        <time>2021-08-15T10:34:36Z</time>
      </trkpt>
      <trkpt lat="45.49179" lon="6.72314">
        <ele>2475.9</ele>
        <time>2021-08-15T10:34:37Z</time>
      </trkpt>
      <trkpt lat="45.4918" lon="6.72313">
        <ele>2475.9</ele>
        <time>2021-08-15T10:34:38Z</time>
      </trkpt>
      <trkpt lat="45.4918" lon="6.72312">
        <ele>2475.8</ele>
        <time>2021-08-15T10:34:39Z</time>
      </trkpt>
      <trkpt lat="45.4918" lon="6.72312">
        <ele>2475.8</ele>
        <time>2021-08-15T10:34:40Z</time>
      </trkpt>
      <trkpt lat="45.49181" lon="6.72311">
        <ele>2475.8</ele>
        <time>2021-08-15T10:34:41Z</time>
      </trkpt>
      <trkpt lat="45.49181" lon="6.7231">
        <ele>2475.7</ele>
        <time>2021-08-15T10:34:42Z</time>
      </trkpt>
      <trkpt lat="45.49181" lon="6.7231">
        <ele>2475.7</ele>
        <time>2021-08-15T10:34:43Z</time>
      </trkpt>
      <trkpt lat="45.49181" lon="6.72309">
        <ele>2475.7</ele>
        <time>2021-08-15T10:34:44Z</time>
      </trkpt>
      <trkpt lat="45.49181" lon="6.72309">
        <ele>2475.6</ele>
        <time>2021-08-15T10:34:45Z</time>
      </trkpt>
      <trkpt lat="45.49181" lon="6.72308">
        <ele>2475.6</ele>
        <time>2021-08-15T10:34:46Z</time>
      </trkpt>
      <trkpt lat="45.49181" lon="6.72308">
        <ele>2475.6</ele>
        <time>2021-08-15T10:34:47Z</time>
      </trkpt>
      <trkpt lat="45.49181" lon="6.72307">
        <ele>2475.2</ele>
        <time>2021-08-15T10:34:48Z</time>
      </trkpt>
      <trkpt lat="45.49181" lon="6.72307">
        <ele>2475.1</ele>
        <time>2021-08-15T10:34:49Z</time>
      </trkpt>
      <trkpt lat="45.49182" lon="6.72306">
        <ele>2475.1</ele>
        <time>2021-08-15T10:34:50Z</time>
      </trkpt>
      <trkpt lat="45.49182" lon="6.72306">
        <ele>2475.1</ele>
        <time>2021-08-15T10:34:51Z</time>
      </trkpt>
      <trkpt lat="45.49182" lon="6.72305">
        <ele>2475</ele>
        <time>2021-08-15T10:34:52Z</time>
      </trkpt>
      <trkpt lat="45.49182" lon="6.72304">
        <ele>2475</ele>
        <time>2021-08-15T10:34:53Z</time>
      </trkpt>
      <trkpt lat="45.49182" lon="6.72304">
        <ele>2475.1</ele>
        <time>2021-08-15T10:34:54Z</time>
      </trkpt>
      <trkpt lat="45.49182" lon="6.72303">
        <ele>2475.1</ele>
        <time>2021-08-15T10:34:55Z</time>
      </trkpt>
      <trkpt lat="45.49182" lon="6.72303">
        <ele>2474.7</ele>
        <time>2021-08-15T10:34:56Z</time>
      </trkpt>
      <trkpt lat="45.49182" lon="6.72302">
        <ele>2474.7</ele>
        <time>2021-08-15T10:34:57Z</time>
      </trkpt>
      <trkpt lat="45.49182" lon="6.72302">
        <ele>2474.7</ele>
        <time>2021-08-15T10:34:58Z</time>
      </trkpt>
      <trkpt lat="45.49182" lon="6.72301">
        <ele>2474.6</ele>
        <time>2021-08-15T10:34:59Z</time>
      </trkpt>
      <trkpt lat="45.49183" lon="6.72301">
        <ele>2474.6</ele>
        <time>2021-08-15T10:35:00Z</time>
      </trkpt>
      <trkpt lat="45.49183" lon="6.723">
        <ele>2474.6</ele>
        <time>2021-08-15T10:35:01Z</time>
      </trkpt>
      <trkpt lat="45.49183" lon="6.72299">
        <ele>2474.5</ele>
        <time>2021-08-15T10:35:02Z</time>
      </trkpt>
      <trkpt lat="45.49183" lon="6.72299">
        <ele>2474.2</ele>
        <time>2021-08-15T10:35:03Z</time>
      </trkpt>
      <trkpt lat="45.49183" lon="6.72298">
        <ele>2474.1</ele>
        <time>2021-08-15T10:35:04Z</time>
      </trkpt>
      <trkpt lat="45.49183" lon="6.72298">
        <ele>2474.1</ele>
        <time>2021-08-15T10:35:05Z</time>
      </trkpt>
      <trkpt lat="45.49183" lon="6.72297">
        <ele>2474.1</ele>
        <time>2021-08-15T10:35:06Z</time>
      </trkpt>
      <trkpt lat="45.49183" lon="6.72297">
        <ele>2474</ele>
        <time>2021-08-15T10:35:07Z</time>
      </trkpt>
      <trkpt lat="45.49183" lon="6.72296">
        <ele>2474</ele>
        <time>2021-08-15T10:35:08Z</time>
      </trkpt>
      <trkpt lat="45.49183" lon="6.72296">
        <ele>2474</ele>
        <time>2021-08-15T10:35:09Z</time>
      </trkpt>
      <trkpt lat="45.49183" lon="6.72294">
        <ele>2473.6</ele>
        <time>2021-08-15T10:35:10Z</time>
      </trkpt>
      <trkpt lat="45.49183" lon="6.72293">
        <ele>2473.6</ele>
        <time>2021-08-15T10:35:11Z</time>
      </trkpt>
      <trkpt lat="45.49182" lon="6.72291">
        <ele>2473.6</ele>
        <time>2021-08-15T10:35:12Z</time>
      </trkpt>
      <trkpt lat="45.49182" lon="6.7229">
        <ele>2473.2</ele>
        <time>2021-08-15T10:35:13Z</time>
      </trkpt>
      <trkpt lat="45.49182" lon="6.72289">
        <ele>2473.2</ele>
        <time>2021-08-15T10:35:14Z</time>
      </trkpt>
      <trkpt lat="45.49182" lon="6.72287">
        <ele>2473.2</ele>
        <time>2021-08-15T10:35:15Z</time>
      </trkpt>
      <trkpt lat="45.49182" lon="6.72286">
        <ele>2473</ele>
        <time>2021-08-15T10:35:16Z</time>
      </trkpt>
      <trkpt lat="45.49182" lon="6.72285">
        <ele>2472.7</ele>
        <time>2021-08-15T10:35:17Z</time>
      </trkpt>
      <trkpt lat="45.49182" lon="6.72284">
        <ele>2472.6</ele>
        <time>2021-08-15T10:35:18Z</time>
      </trkpt>
      <trkpt lat="45.49182" lon="6.72283">
        <ele>2472.6</ele>
        <time>2021-08-15T10:35:19Z</time>
      </trkpt>
      <trkpt lat="45.49182" lon="6.72282">
        <ele>2472.6</ele>
        <time>2021-08-15T10:35:20Z</time>
      </trkpt>
      <trkpt lat="45.49182" lon="6.72281">
        <ele>2472.3</ele>
        <time>2021-08-15T10:35:21Z</time>
      </trkpt>
      <trkpt lat="45.49182" lon="6.7228">
        <ele>2472.3</ele>
        <time>2021-08-15T10:35:22Z</time>
      </trkpt>
      <trkpt lat="45.49182" lon="6.72279">
        <ele>2472.3</ele>
        <time>2021-08-15T10:35:23Z</time>
      </trkpt>
      <trkpt lat="45.49182" lon="6.72278">
        <ele>2472.2</ele>
        <time>2021-08-15T10:35:24Z</time>
      </trkpt>
      <trkpt lat="45.49182" lon="6.72277">
        <ele>2471.9</ele>
        <time>2021-08-15T10:35:25Z</time>
      </trkpt>
      <trkpt lat="45.49182" lon="6.72276">
        <ele>2471.9</ele>
        <time>2021-08-15T10:35:26Z</time>
      </trkpt>
      <trkpt lat="45.49182" lon="6.72275">
        <ele>2471.8</ele>
        <time>2021-08-15T10:35:27Z</time>
      </trkpt>
      <trkpt lat="45.49182" lon="6.72273">
        <ele>2471.8</ele>
        <time>2021-08-15T10:35:28Z</time>
      </trkpt>
      <trkpt lat="45.49182" lon="6.72272">
        <ele>2471.5</ele>
        <time>2021-08-15T10:35:29Z</time>
      </trkpt>
      <trkpt lat="45.49182" lon="6.72271">
        <ele>2471.4</ele>
        <time>2021-08-15T10:35:30Z</time>
      </trkpt>
      <trkpt lat="45.49182" lon="6.7227">
        <ele>2471.4</ele>
        <time>2021-08-15T10:35:31Z</time>
      </trkpt>
      <trkpt lat="45.49182" lon="6.72269">
        <ele>2471.1</ele>
        <time>2021-08-15T10:35:32Z</time>
      </trkpt>
      <trkpt lat="45.49182" lon="6.72267">
        <ele>2471.1</ele>
        <time>2021-08-15T10:35:33Z</time>
      </trkpt>
      <trkpt lat="45.49182" lon="6.72266">
        <ele>2471</ele>
        <time>2021-08-15T10:35:34Z</time>
      </trkpt>
      <trkpt lat="45.49182" lon="6.72265">
        <ele>2471</ele>
        <time>2021-08-15T10:35:35Z</time>
      </trkpt>
      <trkpt lat="45.49182" lon="6.72264">
        <ele>2470.7</ele>
        <time>2021-08-15T10:35:36Z</time>
      </trkpt>
      <trkpt lat="45.49182" lon="6.72262">
        <ele>2470.7</ele>
        <time>2021-08-15T10:35:37Z</time>
      </trkpt>
      <trkpt lat="45.49182" lon="6.72261">
        <ele>2470.6</ele>
        <time>2021-08-15T10:35:38Z</time>
      </trkpt>
      <trkpt lat="45.49182" lon="6.7226">
        <ele>2470.4</ele>
        <time>2021-08-15T10:35:39Z</time>
      </trkpt>
      <trkpt lat="45.49182" lon="6.72259">
        <ele>2470.3</ele>
        <time>2021-08-15T10:35:40Z</time>
      </trkpt>
      <trkpt lat="45.49182" lon="6.72258">
        <ele>2470.3</ele>
        <time>2021-08-15T10:35:41Z</time>
      </trkpt>
      <trkpt lat="45.49181" lon="6.72257">
        <ele>2470.3</ele>
        <time>2021-08-15T10:35:42Z</time>
      </trkpt>
      <trkpt lat="45.49181" lon="6.72256">
        <ele>2470</ele>
        <time>2021-08-15T10:35:43Z</time>
      </trkpt>
      <trkpt lat="45.49181" lon="6.72255">
        <ele>2469.9</ele>
        <time>2021-08-15T10:35:44Z</time>
      </trkpt>
      <trkpt lat="45.49181" lon="6.72254">
        <ele>2469.9</ele>
        <time>2021-08-15T10:35:45Z</time>
      </trkpt>
      <trkpt lat="45.49181" lon="6.72253">
        <ele>2469.9</ele>
        <time>2021-08-15T10:35:46Z</time>
      </trkpt>
      <trkpt lat="45.49181" lon="6.72252">
        <ele>2469.9</ele>
        <time>2021-08-15T10:35:47Z</time>
      </trkpt>
      <trkpt lat="45.49181" lon="6.72251">
        <ele>2469.6</ele>
        <time>2021-08-15T10:35:48Z</time>
      </trkpt>
      <trkpt lat="45.49181" lon="6.72251">
        <ele>2469.5</ele>
        <time>2021-08-15T10:35:49Z</time>
      </trkpt>
      <trkpt lat="45.49181" lon="6.7225">
        <ele>2469.5</ele>
        <time>2021-08-15T10:35:50Z</time>
      </trkpt>
      <trkpt lat="45.49181" lon="6.72249">
        <ele>2469.5</ele>
        <time>2021-08-15T10:35:51Z</time>
      </trkpt>
      <trkpt lat="45.49181" lon="6.72248">
        <ele>2469.4</ele>
        <time>2021-08-15T10:35:52Z</time>
      </trkpt>
      <trkpt lat="45.4918" lon="6.72247">
        <ele>2469.1</ele>
        <time>2021-08-15T10:35:53Z</time>
      </trkpt>
      <trkpt lat="45.4918" lon="6.72246">
        <ele>2469.1</ele>
        <time>2021-08-15T10:35:54Z</time>
      </trkpt>
      <trkpt lat="45.4918" lon="6.72246">
        <ele>2469.1</ele>
        <time>2021-08-15T10:35:55Z</time>
      </trkpt>
      <trkpt lat="45.4918" lon="6.72245">
        <ele>2469</ele>
        <time>2021-08-15T10:35:56Z</time>
      </trkpt>
      <trkpt lat="45.4918" lon="6.72244">
        <ele>2469</ele>
        <time>2021-08-15T10:35:57Z</time>
      </trkpt>
      <trkpt lat="45.4918" lon="6.72243">
        <ele>2468.7</ele>
        <time>2021-08-15T10:35:58Z</time>
      </trkpt>
      <trkpt lat="45.4918" lon="6.72242">
        <ele>2468.6</ele>
        <time>2021-08-15T10:35:59Z</time>
      </trkpt>
      <trkpt lat="45.4918" lon="6.72241">
        <ele>2468.6</ele>
        <time>2021-08-15T10:36:00Z</time>
      </trkpt>
      <trkpt lat="45.4918" lon="6.72239">
        <ele>2468.6</ele>
        <time>2021-08-15T10:36:01Z</time>
      </trkpt>
      <trkpt lat="45.4918" lon="6.72238">
        <ele>2468.2</ele>
        <time>2021-08-15T10:36:02Z</time>
      </trkpt>
      <trkpt lat="45.4918" lon="6.72237">
        <ele>2468.2</ele>
        <time>2021-08-15T10:36:03Z</time>
      </trkpt>
      <trkpt lat="45.4918" lon="6.72236">
        <ele>2468.2</ele>
        <time>2021-08-15T10:36:04Z</time>
      </trkpt>
      <trkpt lat="45.4918" lon="6.72234">
        <ele>2467.8</ele>
        <time>2021-08-15T10:36:05Z</time>
      </trkpt>
      <trkpt lat="45.49181" lon="6.72233">
        <ele>2467.8</ele>
        <time>2021-08-15T10:36:06Z</time>
      </trkpt>
      <trkpt lat="45.49181" lon="6.72232">
        <ele>2467.7</ele>
        <time>2021-08-15T10:36:07Z</time>
      </trkpt>
      <trkpt lat="45.49181" lon="6.7223">
        <ele>2467.4</ele>
        <time>2021-08-15T10:36:08Z</time>
      </trkpt>
      <trkpt lat="45.49181" lon="6.72229">
        <ele>2467.3</ele>
        <time>2021-08-15T10:36:09Z</time>
      </trkpt>
      <trkpt lat="45.49181" lon="6.72227">
        <ele>2467.3</ele>
        <time>2021-08-15T10:36:10Z</time>
      </trkpt>
      <trkpt lat="45.49181" lon="6.72226">
        <ele>2467.3</ele>
        <time>2021-08-15T10:36:11Z</time>
      </trkpt>
      <trkpt lat="45.49181" lon="6.72225">
        <ele>2466.9</ele>
        <time>2021-08-15T10:36:12Z</time>
      </trkpt>
      <trkpt lat="45.49181" lon="6.72223">
        <ele>2466.9</ele>
        <time>2021-08-15T10:36:13Z</time>
      </trkpt>
      <trkpt lat="45.49181" lon="6.72222">
        <ele>2466.9</ele>
        <time>2021-08-15T10:36:14Z</time>
      </trkpt>
      <trkpt lat="45.49181" lon="6.72221">
        <ele>2466.5</ele>
        <time>2021-08-15T10:36:15Z</time>
      </trkpt>
      <trkpt lat="45.49181" lon="6.7222">
        <ele>2466.5</ele>
        <time>2021-08-15T10:36:16Z</time>
      </trkpt>
      <trkpt lat="45.49181" lon="6.72219">
        <ele>2466.5</ele>
        <time>2021-08-15T10:36:17Z</time>
      </trkpt>
      <trkpt lat="45.49181" lon="6.72217">
        <ele>2466.4</ele>
        <time>2021-08-15T10:36:18Z</time>
      </trkpt>
      <trkpt lat="45.4918" lon="6.72216">
        <ele>2466.1</ele>
        <time>2021-08-15T10:36:19Z</time>
      </trkpt>
      <trkpt lat="45.4918" lon="6.72215">
        <ele>2466</ele>
        <time>2021-08-15T10:36:20Z</time>
      </trkpt>
      <trkpt lat="45.4918" lon="6.72214">
        <ele>2466</ele>
        <time>2021-08-15T10:36:21Z</time>
      </trkpt>
      <trkpt lat="45.4918" lon="6.72213">
        <ele>2465.7</ele>
        <time>2021-08-15T10:36:22Z</time>
      </trkpt>
      <trkpt lat="45.4918" lon="6.72212">
        <ele>2465.6</ele>
        <time>2021-08-15T10:36:23Z</time>
      </trkpt>
      <trkpt lat="45.4918" lon="6.7221">
        <ele>2465.6</ele>
        <time>2021-08-15T10:36:24Z</time>
      </trkpt>
      <trkpt lat="45.4918" lon="6.72209">
        <ele>2465.6</ele>
        <time>2021-08-15T10:36:25Z</time>
      </trkpt>
      <trkpt lat="45.4918" lon="6.72208">
        <ele>2465.2</ele>
        <time>2021-08-15T10:36:26Z</time>
      </trkpt>
      <trkpt lat="45.4918" lon="6.72206">
        <ele>2465.2</ele>
        <time>2021-08-15T10:36:27Z</time>
      </trkpt>
      <trkpt lat="45.49179" lon="6.72205">
        <ele>2465.2</ele>
        <time>2021-08-15T10:36:28Z</time>
      </trkpt>
      <trkpt lat="45.49179" lon="6.72203">
        <ele>2464.8</ele>
        <time>2021-08-15T10:36:29Z</time>
      </trkpt>
      <trkpt lat="45.49179" lon="6.72202">
        <ele>2464.8</ele>
        <time>2021-08-15T10:36:30Z</time>
      </trkpt>
      <trkpt lat="45.49179" lon="6.722">
        <ele>2464.8</ele>
        <time>2021-08-15T10:36:31Z</time>
      </trkpt>
      <trkpt lat="45.49179" lon="6.72199">
        <ele>2464.4</ele>
        <time>2021-08-15T10:36:32Z</time>
      </trkpt>
      <trkpt lat="45.49179" lon="6.72197">
        <ele>2464.4</ele>
        <time>2021-08-15T10:36:33Z</time>
      </trkpt>
      <trkpt lat="45.49179" lon="6.72196">
        <ele>2464</ele>
        <time>2021-08-15T10:36:34Z</time>
      </trkpt>
      <trkpt lat="45.49179" lon="6.72194">
        <ele>2464</ele>
        <time>2021-08-15T10:36:35Z</time>
      </trkpt>
      <trkpt lat="45.49179" lon="6.72193">
        <ele>2464</ele>
        <time>2021-08-15T10:36:36Z</time>
      </trkpt>
      <trkpt lat="45.49179" lon="6.72192">
        <ele>2463.6</ele>
        <time>2021-08-15T10:36:37Z</time>
      </trkpt>
      <trkpt lat="45.49179" lon="6.7219">
        <ele>2463.6</ele>
        <time>2021-08-15T10:36:38Z</time>
      </trkpt>
      <trkpt lat="45.49179" lon="6.72189">
        <ele>2463.5</ele>
        <time>2021-08-15T10:36:39Z</time>
      </trkpt>
      <trkpt lat="45.49179" lon="6.72187">
        <ele>2463.2</ele>
        <time>2021-08-15T10:36:40Z</time>
      </trkpt>
      <trkpt lat="45.49179" lon="6.72186">
        <ele>2463.2</ele>
        <time>2021-08-15T10:36:41Z</time>
      </trkpt>
      <trkpt lat="45.4918" lon="6.72185">
        <ele>2463.1</ele>
        <time>2021-08-15T10:36:42Z</time>
      </trkpt>
      <trkpt lat="45.4918" lon="6.72183">
        <ele>2463.1</ele>
        <time>2021-08-15T10:36:43Z</time>
      </trkpt>
      <trkpt lat="45.4918" lon="6.72182">
        <ele>2462.8</ele>
        <time>2021-08-15T10:36:44Z</time>
      </trkpt>
      <trkpt lat="45.4918" lon="6.72181">
        <ele>2462.8</ele>
        <time>2021-08-15T10:36:45Z</time>
      </trkpt>
      <trkpt lat="45.4918" lon="6.7218">
        <ele>2462.7</ele>
        <time>2021-08-15T10:36:46Z</time>
      </trkpt>
      <trkpt lat="45.4918" lon="6.72178">
        <ele>2462.4</ele>
        <time>2021-08-15T10:36:47Z</time>
      </trkpt>
      <trkpt lat="45.49181" lon="6.72177">
        <ele>2462.4</ele>
        <time>2021-08-15T10:36:48Z</time>
      </trkpt>
      <trkpt lat="45.49181" lon="6.72176">
        <ele>2462.4</ele>
        <time>2021-08-15T10:36:49Z</time>
      </trkpt>
      <trkpt lat="45.49181" lon="6.72175">
        <ele>2462.3</ele>
        <time>2021-08-15T10:36:50Z</time>
      </trkpt>
      <trkpt lat="45.49181" lon="6.72174">
        <ele>2462.1</ele>
        <time>2021-08-15T10:36:51Z</time>
      </trkpt>
      <trkpt lat="45.49181" lon="6.72173">
        <ele>2462</ele>
        <time>2021-08-15T10:36:52Z</time>
      </trkpt>
      <trkpt lat="45.49182" lon="6.72172">
        <ele>2462</ele>
        <time>2021-08-15T10:36:53Z</time>
      </trkpt>
      <trkpt lat="45.49182" lon="6.7217">
        <ele>2462</ele>
        <time>2021-08-15T10:36:54Z</time>
      </trkpt>
      <trkpt lat="45.49182" lon="6.72169">
        <ele>2461.5</ele>
        <time>2021-08-15T10:36:55Z</time>
      </trkpt>
      <trkpt lat="45.49182" lon="6.72168">
        <ele>2461.5</ele>
        <time>2021-08-15T10:36:56Z</time>
      </trkpt>
      <trkpt lat="45.49182" lon="6.72167">
        <ele>2461.4</ele>
        <time>2021-08-15T10:36:57Z</time>
      </trkpt>
      <trkpt lat="45.49182" lon="6.72166">
        <ele>2461.4</ele>
        <time>2021-08-15T10:36:58Z</time>
      </trkpt>
      <trkpt lat="45.49183" lon="6.72165">
        <ele>2461.2</ele>
        <time>2021-08-15T10:36:59Z</time>
      </trkpt>
      <trkpt lat="45.49183" lon="6.72164">
        <ele>2461.1</ele>
        <time>2021-08-15T10:37:00Z</time>
      </trkpt>
      <trkpt lat="45.49183" lon="6.72162">
        <ele>2461.1</ele>
        <time>2021-08-15T10:37:01Z</time>
      </trkpt>
      <trkpt lat="45.49183" lon="6.72161">
        <ele>2460.9</ele>
        <time>2021-08-15T10:37:02Z</time>
      </trkpt>
      <trkpt lat="45.49183" lon="6.7216">
        <ele>2460.9</ele>
        <time>2021-08-15T10:37:03Z</time>
      </trkpt>
      <trkpt lat="45.49183" lon="6.72159">
        <ele>2460.8</ele>
        <time>2021-08-15T10:37:04Z</time>
      </trkpt>
      <trkpt lat="45.49183" lon="6.72158">
        <ele>2460.8</ele>
        <time>2021-08-15T10:37:05Z</time>
      </trkpt>
      <trkpt lat="45.49183" lon="6.72156">
        <ele>2460.6</ele>
        <time>2021-08-15T10:37:06Z</time>
      </trkpt>
      <trkpt lat="45.49183" lon="6.72155">
        <ele>2460.6</ele>
        <time>2021-08-15T10:37:07Z</time>
      </trkpt>
      <trkpt lat="45.49183" lon="6.72154">
        <ele>2460.6</ele>
        <time>2021-08-15T10:37:08Z</time>
      </trkpt>
      <trkpt lat="45.49183" lon="6.72152">
        <ele>2460.4</ele>
        <time>2021-08-15T10:37:09Z</time>
      </trkpt>
      <trkpt lat="45.49183" lon="6.72151">
        <ele>2460.3</ele>
        <time>2021-08-15T10:37:10Z</time>
      </trkpt>
      <trkpt lat="45.49183" lon="6.7215">
        <ele>2460.3</ele>
        <time>2021-08-15T10:37:11Z</time>
      </trkpt>
      <trkpt lat="45.49183" lon="6.72148">
        <ele>2460.1</ele>
        <time>2021-08-15T10:37:12Z</time>
      </trkpt>
      <trkpt lat="45.49184" lon="6.72147">
        <ele>2460.1</ele>
        <time>2021-08-15T10:37:13Z</time>
      </trkpt>
      <trkpt lat="45.49184" lon="6.72146">
        <ele>2460.1</ele>
        <time>2021-08-15T10:37:14Z</time>
      </trkpt>
      <trkpt lat="45.49184" lon="6.72145">
        <ele>2460</ele>
        <time>2021-08-15T10:37:15Z</time>
      </trkpt>
      <trkpt lat="45.49184" lon="6.72143">
        <ele>2459.8</ele>
        <time>2021-08-15T10:37:16Z</time>
      </trkpt>
      <trkpt lat="45.49185" lon="6.72142">
        <ele>2459.8</ele>
        <time>2021-08-15T10:37:17Z</time>
      </trkpt>
      <trkpt lat="45.49185" lon="6.72141">
        <ele>2459.5</ele>
        <time>2021-08-15T10:37:18Z</time>
      </trkpt>
      <trkpt lat="45.49185" lon="6.7214">
        <ele>2459.3</ele>
        <time>2021-08-15T10:37:19Z</time>
      </trkpt>
      <trkpt lat="45.49186" lon="6.72139">
        <ele>2459.3</ele>
        <time>2021-08-15T10:37:20Z</time>
      </trkpt>
      <trkpt lat="45.49186" lon="6.72137">
        <ele>2459.3</ele>
        <time>2021-08-15T10:37:21Z</time>
      </trkpt>
      <trkpt lat="45.49186" lon="6.72136">
        <ele>2459.2</ele>
        <time>2021-08-15T10:37:22Z</time>
      </trkpt>
      <trkpt lat="45.49187" lon="6.72135">
        <ele>2459</ele>
        <time>2021-08-15T10:37:23Z</time>
      </trkpt>
      <trkpt lat="45.49187" lon="6.72134">
        <ele>2459</ele>
        <time>2021-08-15T10:37:24Z</time>
      </trkpt>
      <trkpt lat="45.49187" lon="6.72133">
        <ele>2459</ele>
        <time>2021-08-15T10:37:25Z</time>
      </trkpt>
      <trkpt lat="45.49188" lon="6.72132">
        <ele>2458.9</ele>
        <time>2021-08-15T10:37:26Z</time>
      </trkpt>
      <trkpt lat="45.49188" lon="6.72131">
        <ele>2458.5</ele>
        <time>2021-08-15T10:37:27Z</time>
      </trkpt>
      <trkpt lat="45.49188" lon="6.7213">
        <ele>2458.5</ele>
        <time>2021-08-15T10:37:28Z</time>
      </trkpt>
      <trkpt lat="45.49188" lon="6.72129">
        <ele>2458.4</ele>
        <time>2021-08-15T10:37:29Z</time>
      </trkpt>
      <trkpt lat="45.49189" lon="6.72128">
        <ele>2458.4</ele>
        <time>2021-08-15T10:37:30Z</time>
      </trkpt>
      <trkpt lat="45.49189" lon="6.72127">
        <ele>2458.2</ele>
        <time>2021-08-15T10:37:31Z</time>
      </trkpt>
      <trkpt lat="45.49189" lon="6.72126">
        <ele>2458.2</ele>
        <time>2021-08-15T10:37:32Z</time>
      </trkpt>
      <trkpt lat="45.49189" lon="6.72125">
        <ele>2458.1</ele>
        <time>2021-08-15T10:37:33Z</time>
      </trkpt>
      <trkpt lat="45.4919" lon="6.72124">
        <ele>2458.1</ele>
        <time>2021-08-15T10:37:34Z</time>
      </trkpt>
      <trkpt lat="45.4919" lon="6.72123">
        <ele>2458.1</ele>
        <time>2021-08-15T10:37:35Z</time>
      </trkpt>
      <trkpt lat="45.4919" lon="6.72122">
        <ele>2457.8</ele>
        <time>2021-08-15T10:37:36Z</time>
      </trkpt>
      <trkpt lat="45.4919" lon="6.72121">
        <ele>2457.8</ele>
        <time>2021-08-15T10:37:37Z</time>
      </trkpt>
      <trkpt lat="45.4919" lon="6.7212">
        <ele>2457.8</ele>
        <time>2021-08-15T10:37:38Z</time>
      </trkpt>
      <trkpt lat="45.4919" lon="6.72119">
        <ele>2457.7</ele>
        <time>2021-08-15T10:37:39Z</time>
      </trkpt>
      <trkpt lat="45.4919" lon="6.72118">
        <ele>2457.4</ele>
        <time>2021-08-15T10:37:40Z</time>
      </trkpt>
      <trkpt lat="45.49191" lon="6.72117">
        <ele>2457.4</ele>
        <time>2021-08-15T10:37:41Z</time>
      </trkpt>
      <trkpt lat="45.49191" lon="6.72116">
        <ele>2457.4</ele>
        <time>2021-08-15T10:37:42Z</time>
      </trkpt>
      <trkpt lat="45.49191" lon="6.72116">
        <ele>2457.4</ele>
        <time>2021-08-15T10:37:43Z</time>
      </trkpt>
      <trkpt lat="45.49191" lon="6.72115">
        <ele>2457.3</ele>
        <time>2021-08-15T10:37:44Z</time>
      </trkpt>
      <trkpt lat="45.49191" lon="6.72114">
        <ele>2457</ele>
        <time>2021-08-15T10:37:45Z</time>
      </trkpt>
      <trkpt lat="45.49191" lon="6.72113">
        <ele>2457</ele>
        <time>2021-08-15T10:37:46Z</time>
      </trkpt>
      <trkpt lat="45.49191" lon="6.72112">
        <ele>2456.7</ele>
        <time>2021-08-15T10:37:47Z</time>
      </trkpt>
      <trkpt lat="45.49191" lon="6.72111">
        <ele>2456.7</ele>
        <time>2021-08-15T10:37:48Z</time>
      </trkpt>
      <trkpt lat="45.49191" lon="6.7211">
        <ele>2456.6</ele>
        <time>2021-08-15T10:37:49Z</time>
      </trkpt>
      <trkpt lat="45.49191" lon="6.72109">
        <ele>2456.2</ele>
        <time>2021-08-15T10:37:50Z</time>
      </trkpt>
      <trkpt lat="45.49191" lon="6.72109">
        <ele>2456.2</ele>
        <time>2021-08-15T10:37:51Z</time>
      </trkpt>
      <trkpt lat="45.49191" lon="6.72108">
        <ele>2456.2</ele>
        <time>2021-08-15T10:37:52Z</time>
      </trkpt>
      <trkpt lat="45.49192" lon="6.72107">
        <ele>2456.1</ele>
        <time>2021-08-15T10:37:53Z</time>
      </trkpt>
      <trkpt lat="45.49192" lon="6.72107">
        <ele>2456.1</ele>
        <time>2021-08-15T10:37:54Z</time>
      </trkpt>
      <trkpt lat="45.49192" lon="6.72106">
        <ele>2456.1</ele>
        <time>2021-08-15T10:37:55Z</time>
      </trkpt>
      <trkpt lat="45.49192" lon="6.72106">
        <ele>2455.7</ele>
        <time>2021-08-15T10:37:56Z</time>
      </trkpt>
      <trkpt lat="45.49193" lon="6.72105">
        <ele>2455.6</ele>
        <time>2021-08-15T10:37:57Z</time>
      </trkpt>
      <trkpt lat="45.49193" lon="6.72104">
        <ele>2455.6</ele>
        <time>2021-08-15T10:37:58Z</time>
      </trkpt>
      <trkpt lat="45.49193" lon="6.72104">
        <ele>2455.6</ele>
        <time>2021-08-15T10:37:59Z</time>
      </trkpt>
      <trkpt lat="45.49194" lon="6.72103">
        <ele>2455.5</ele>
        <time>2021-08-15T10:38:00Z</time>
      </trkpt>
      <trkpt lat="45.49194" lon="6.72102">
        <ele>2455.2</ele>
        <time>2021-08-15T10:38:01Z</time>
      </trkpt>
      <trkpt lat="45.49194" lon="6.72101">
        <ele>2454.7</ele>
        <time>2021-08-15T10:38:02Z</time>
      </trkpt>
      <trkpt lat="45.49195" lon="6.72101">
        <ele>2454.7</ele>
        <time>2021-08-15T10:38:03Z</time>
      </trkpt>
      <trkpt lat="45.49195" lon="6.721">
        <ele>2454.7</ele>
        <time>2021-08-15T10:38:04Z</time>
      </trkpt>
      <trkpt lat="45.49195" lon="6.72099">
        <ele>2454.7</ele>
        <time>2021-08-15T10:38:05Z</time>
      </trkpt>
      <trkpt lat="45.49195" lon="6.72097">
        <ele>2454.6</ele>
        <time>2021-08-15T10:38:06Z</time>
      </trkpt>
      <trkpt lat="45.49195" lon="6.72096">
        <ele>2454.2</ele>
        <time>2021-08-15T10:38:07Z</time>
      </trkpt>
      <trkpt lat="45.49196" lon="6.72095">
        <ele>2454.1</ele>
        <time>2021-08-15T10:38:08Z</time>
      </trkpt>
      <trkpt lat="45.49196" lon="6.72094">
        <ele>2454.1</ele>
        <time>2021-08-15T10:38:09Z</time>
      </trkpt>
      <trkpt lat="45.49196" lon="6.72093">
        <ele>2453.6</ele>
        <time>2021-08-15T10:38:10Z</time>
      </trkpt>
      <trkpt lat="45.49196" lon="6.72092">
        <ele>2453.6</ele>
        <time>2021-08-15T10:38:11Z</time>
      </trkpt>
      <trkpt lat="45.49196" lon="6.7209">
        <ele>2453.6</ele>
        <time>2021-08-15T10:38:12Z</time>
      </trkpt>
      <trkpt lat="45.49196" lon="6.72089">
        <ele>2453.5</ele>
        <time>2021-08-15T10:38:13Z</time>
      </trkpt>
      <trkpt lat="45.49196" lon="6.72088">
        <ele>2453</ele>
        <time>2021-08-15T10:38:14Z</time>
      </trkpt>
      <trkpt lat="45.49196" lon="6.72087">
        <ele>2453</ele>
        <time>2021-08-15T10:38:15Z</time>
      </trkpt>
      <trkpt lat="45.49197" lon="6.72086">
        <ele>2453</ele>
        <time>2021-08-15T10:38:16Z</time>
      </trkpt>
      <trkpt lat="45.49197" lon="6.72085">
        <ele>2453</ele>
        <time>2021-08-15T10:38:17Z</time>
      </trkpt>
      <trkpt lat="45.49197" lon="6.72084">
        <ele>2452.5</ele>
        <time>2021-08-15T10:38:18Z</time>
      </trkpt>
      <trkpt lat="45.49197" lon="6.72083">
        <ele>2452.4</ele>
        <time>2021-08-15T10:38:19Z</time>
      </trkpt>
      <trkpt lat="45.49197" lon="6.72082">
        <ele>2452.4</ele>
        <time>2021-08-15T10:38:20Z</time>
      </trkpt>
      <trkpt lat="45.49197" lon="6.72081">
        <ele>2452</ele>
        <time>2021-08-15T10:38:21Z</time>
      </trkpt>
      <trkpt lat="45.49197" lon="6.7208">
        <ele>2451.5</ele>
        <time>2021-08-15T10:38:22Z</time>
      </trkpt>
      <trkpt lat="45.49197" lon="6.72079">
        <ele>2451.5</ele>
        <time>2021-08-15T10:38:23Z</time>
      </trkpt>
      <trkpt lat="45.49197" lon="6.72078">
        <ele>2451.4</ele>
        <time>2021-08-15T10:38:24Z</time>
      </trkpt>
      <trkpt lat="45.49197" lon="6.72078">
        <ele>2451.4</ele>
        <time>2021-08-15T10:38:25Z</time>
      </trkpt>
      <trkpt lat="45.49198" lon="6.72077">
        <ele>2451.4</ele>
        <time>2021-08-15T10:38:26Z</time>
      </trkpt>
      <trkpt lat="45.49198" lon="6.72076">
        <ele>2451.3</ele>
        <time>2021-08-15T10:38:27Z</time>
      </trkpt>
      <trkpt lat="45.49198" lon="6.72076">
        <ele>2450.8</ele>
        <time>2021-08-15T10:38:28Z</time>
      </trkpt>
      <trkpt lat="45.49198" lon="6.72075">
        <ele>2450.8</ele>
        <time>2021-08-15T10:38:29Z</time>
      </trkpt>
      <trkpt lat="45.49198" lon="6.72075">
        <ele>2450.8</ele>
        <time>2021-08-15T10:38:30Z</time>
      </trkpt>
      <trkpt lat="45.49199" lon="6.72074">
        <ele>2450.7</ele>
        <time>2021-08-15T10:38:31Z</time>
      </trkpt>
      <trkpt lat="45.49199" lon="6.72073">
        <ele>2450.7</ele>
        <time>2021-08-15T10:38:32Z</time>
      </trkpt>
      <trkpt lat="45.49199" lon="6.72073">
        <ele>2450.7</ele>
        <time>2021-08-15T10:38:33Z</time>
      </trkpt>
      <trkpt lat="45.492" lon="6.72072">
        <ele>2450.7</ele>
        <time>2021-08-15T10:38:34Z</time>
      </trkpt>
      <trkpt lat="45.492" lon="6.72072">
        <ele>2450.6</ele>
        <time>2021-08-15T10:38:35Z</time>
      </trkpt>
      <trkpt lat="45.492" lon="6.72071">
        <ele>2449.7</ele>
        <time>2021-08-15T10:38:36Z</time>
      </trkpt>
      <trkpt lat="45.49201" lon="6.7207">
        <ele>2449.7</ele>
        <time>2021-08-15T10:38:37Z</time>
      </trkpt>
      <trkpt lat="45.49201" lon="6.72069">
        <ele>2449.7</ele>
        <time>2021-08-15T10:38:38Z</time>
      </trkpt>
      <trkpt lat="45.49201" lon="6.72069">
        <ele>2449.6</ele>
        <time>2021-08-15T10:38:39Z</time>
      </trkpt>
      <trkpt lat="45.49202" lon="6.72068">
        <ele>2449.6</ele>
        <time>2021-08-15T10:38:40Z</time>
      </trkpt>
      <trkpt lat="45.49202" lon="6.72067">
        <ele>2449.1</ele>
        <time>2021-08-15T10:38:41Z</time>
      </trkpt>
      <trkpt lat="45.49202" lon="6.72066">
        <ele>2449.1</ele>
        <time>2021-08-15T10:38:42Z</time>
      </trkpt>
      <trkpt lat="45.49202" lon="6.72065">
        <ele>2449</ele>
        <time>2021-08-15T10:38:43Z</time>
      </trkpt>
      <trkpt lat="45.49202" lon="6.72064">
        <ele>2449</ele>
        <time>2021-08-15T10:38:44Z</time>
      </trkpt>
      <trkpt lat="45.49202" lon="6.72063">
        <ele>2449</ele>
        <time>2021-08-15T10:38:45Z</time>
      </trkpt>
      <trkpt lat="45.49202" lon="6.72062">
        <ele>2448.5</ele>
        <time>2021-08-15T10:38:46Z</time>
      </trkpt>
      <trkpt lat="45.49203" lon="6.72061">
        <ele>2448.4</ele>
        <time>2021-08-15T10:38:47Z</time>
      </trkpt>
      <trkpt lat="45.49203" lon="6.7206">
        <ele>2448.4</ele>
        <time>2021-08-15T10:38:48Z</time>
      </trkpt>
      <trkpt lat="45.49203" lon="6.72059">
        <ele>2448.4</ele>
        <time>2021-08-15T10:38:49Z</time>
      </trkpt>
      <trkpt lat="45.49203" lon="6.72058">
        <ele>2447.8</ele>
        <time>2021-08-15T10:38:50Z</time>
      </trkpt>
      <trkpt lat="45.49203" lon="6.72057">
        <ele>2447.8</ele>
        <time>2021-08-15T10:38:51Z</time>
      </trkpt>
      <trkpt lat="45.49203" lon="6.72055">
        <ele>2447.8</ele>
        <time>2021-08-15T10:38:52Z</time>
      </trkpt>
      <trkpt lat="45.49203" lon="6.72054">
        <ele>2447.8</ele>
        <time>2021-08-15T10:38:53Z</time>
      </trkpt>
      <trkpt lat="45.49203" lon="6.72053">
        <ele>2447.3</ele>
        <time>2021-08-15T10:38:54Z</time>
      </trkpt>
      <trkpt lat="45.49203" lon="6.72052">
        <ele>2446.9</ele>
        <time>2021-08-15T10:38:55Z</time>
      </trkpt>
      <trkpt lat="45.49203" lon="6.72051">
        <ele>2446.9</ele>
        <time>2021-08-15T10:38:56Z</time>
      </trkpt>
      <trkpt lat="45.49203" lon="6.72051">
        <ele>2446.8</ele>
        <time>2021-08-15T10:38:57Z</time>
      </trkpt>
      <trkpt lat="45.49203" lon="6.7205">
        <ele>2446.4</ele>
        <time>2021-08-15T10:38:58Z</time>
      </trkpt>
      <trkpt lat="45.49203" lon="6.72049">
        <ele>2446.4</ele>
        <time>2021-08-15T10:38:59Z</time>
      </trkpt>
      <trkpt lat="45.49203" lon="6.72049">
        <ele>2446.3</ele>
        <time>2021-08-15T10:39:00Z</time>
      </trkpt>
      <trkpt lat="45.49203" lon="6.72048">
        <ele>2446.3</ele>
        <time>2021-08-15T10:39:01Z</time>
      </trkpt>
      <trkpt lat="45.49203" lon="6.72048">
        <ele>2446.3</ele>
        <time>2021-08-15T10:39:02Z</time>
      </trkpt>
      <trkpt lat="45.49203" lon="6.72048">
        <ele>2446.2</ele>
        <time>2021-08-15T10:39:03Z</time>
      </trkpt>
      <trkpt lat="45.49203" lon="6.72048">
        <ele>2446.2</ele>
        <time>2021-08-15T10:39:04Z</time>
      </trkpt>
      <trkpt lat="45.49203" lon="6.72048">
        <ele>2446.2</ele>
        <time>2021-08-15T10:39:05Z</time>
      </trkpt>
      <trkpt lat="45.49203" lon="6.72047">
        <ele>2446.2</ele>
        <time>2021-08-15T10:39:06Z</time>
      </trkpt>
      <trkpt lat="45.49203" lon="6.72047">
        <ele>2446.1</ele>
        <time>2021-08-15T10:39:07Z</time>
      </trkpt>
      <trkpt lat="45.49203" lon="6.72047">
        <ele>2446.1</ele>
        <time>2021-08-15T10:39:08Z</time>
      </trkpt>
      <trkpt lat="45.49203" lon="6.72046">
        <ele>2446.1</ele>
        <time>2021-08-15T10:39:09Z</time>
      </trkpt>
      <trkpt lat="45.49203" lon="6.72046">
        <ele>2446</ele>
        <time>2021-08-15T10:39:10Z</time>
      </trkpt>
      <trkpt lat="45.49203" lon="6.72045">
        <ele>2445.6</ele>
        <time>2021-08-15T10:39:11Z</time>
      </trkpt>
      <trkpt lat="45.49203" lon="6.72044">
        <ele>2445.6</ele>
        <time>2021-08-15T10:39:12Z</time>
      </trkpt>
      <trkpt lat="45.49203" lon="6.72043">
        <ele>2445.6</ele>
        <time>2021-08-15T10:39:13Z</time>
      </trkpt>
      <trkpt lat="45.49203" lon="6.72042">
        <ele>2445.5</ele>
        <time>2021-08-15T10:39:14Z</time>
      </trkpt>
      <trkpt lat="45.49203" lon="6.72041">
        <ele>2445.2</ele>
        <time>2021-08-15T10:39:15Z</time>
      </trkpt>
      <trkpt lat="45.49203" lon="6.7204">
        <ele>2445.1</ele>
        <time>2021-08-15T10:39:16Z</time>
      </trkpt>
      <trkpt lat="45.49203" lon="6.72039">
        <ele>2445.1</ele>
        <time>2021-08-15T10:39:17Z</time>
      </trkpt>
      <trkpt lat="45.49204" lon="6.72037">
        <ele>2445.1</ele>
        <time>2021-08-15T10:39:18Z</time>
      </trkpt>
      <trkpt lat="45.49204" lon="6.72036">
        <ele>2444.7</ele>
        <time>2021-08-15T10:39:19Z</time>
      </trkpt>
      <trkpt lat="45.49204" lon="6.72036">
        <ele>2444.7</ele>
        <time>2021-08-15T10:39:20Z</time>
      </trkpt>
      <trkpt lat="45.49204" lon="6.72035">
        <ele>2444.7</ele>
        <time>2021-08-15T10:39:21Z</time>
      </trkpt>
      <trkpt lat="45.49204" lon="6.72034">
        <ele>2444.7</ele>
        <time>2021-08-15T10:39:22Z</time>
      </trkpt>
      <trkpt lat="45.49204" lon="6.72034">
        <ele>2444.6</ele>
        <time>2021-08-15T10:39:23Z</time>
      </trkpt>
      <trkpt lat="45.49205" lon="6.72033">
        <ele>2444.6</ele>
        <time>2021-08-15T10:39:24Z</time>
      </trkpt>
      <trkpt lat="45.49205" lon="6.72033">
        <ele>2444.3</ele>
        <time>2021-08-15T10:39:25Z</time>
      </trkpt>
      <trkpt lat="45.49205" lon="6.72032">
        <ele>2444.3</ele>
        <time>2021-08-15T10:39:26Z</time>
      </trkpt>
      <trkpt lat="45.49205" lon="6.72032">
        <ele>2444.2</ele>
        <time>2021-08-15T10:39:27Z</time>
      </trkpt>
      <trkpt lat="45.49206" lon="6.72031">
        <ele>2444.2</ele>
        <time>2021-08-15T10:39:28Z</time>
      </trkpt>
      <trkpt lat="45.49206" lon="6.7203">
        <ele>2443.9</ele>
        <time>2021-08-15T10:39:29Z</time>
      </trkpt>
      <trkpt lat="45.49206" lon="6.72029">
        <ele>2443.9</ele>
        <time>2021-08-15T10:39:30Z</time>
      </trkpt>
      <trkpt lat="45.49206" lon="6.72028">
        <ele>2443.6</ele>
        <time>2021-08-15T10:39:31Z</time>
      </trkpt>
      <trkpt lat="45.49207" lon="6.72027">
        <ele>2443.6</ele>
        <time>2021-08-15T10:39:32Z</time>
      </trkpt>
      <trkpt lat="45.49207" lon="6.72026">
        <ele>2443.5</ele>
        <time>2021-08-15T10:39:33Z</time>
      </trkpt>
      <trkpt lat="45.49207" lon="6.72024">
        <ele>2443.5</ele>
        <time>2021-08-15T10:39:34Z</time>
      </trkpt>
      <trkpt lat="45.49207" lon="6.72023">
        <ele>2443.3</ele>
        <time>2021-08-15T10:39:35Z</time>
      </trkpt>
      <trkpt lat="45.49208" lon="6.72022">
        <ele>2443.2</ele>
        <time>2021-08-15T10:39:36Z</time>
      </trkpt>
      <trkpt lat="45.49208" lon="6.72021">
        <ele>2443.2</ele>
        <time>2021-08-15T10:39:37Z</time>
      </trkpt>
      <trkpt lat="45.49208" lon="6.7202">
        <ele>2443.2</ele>
        <time>2021-08-15T10:39:38Z</time>
      </trkpt>
      <trkpt lat="45.49208" lon="6.7202">
        <ele>2442.9</ele>
        <time>2021-08-15T10:39:39Z</time>
      </trkpt>
      <trkpt lat="45.49208" lon="6.72019">
        <ele>2442.9</ele>
        <time>2021-08-15T10:39:40Z</time>
      </trkpt>
      <trkpt lat="45.49208" lon="6.72019">
        <ele>2442.9</ele>
        <time>2021-08-15T10:39:41Z</time>
      </trkpt>
      <trkpt lat="45.49208" lon="6.72019">
        <ele>2442.8</ele>
        <time>2021-08-15T10:39:42Z</time>
      </trkpt>
      <trkpt lat="45.49208" lon="6.72019">
        <ele>2442.8</ele>
        <time>2021-08-15T10:39:43Z</time>
      </trkpt>
      <trkpt lat="45.49208" lon="6.72018">
        <ele>2442.8</ele>
        <time>2021-08-15T10:39:44Z</time>
      </trkpt>
      <trkpt lat="45.49208" lon="6.72018">
        <ele>2442.7</ele>
        <time>2021-08-15T10:39:45Z</time>
      </trkpt>
      <trkpt lat="45.49208" lon="6.72018">
        <ele>2442.7</ele>
        <time>2021-08-15T10:39:46Z</time>
      </trkpt>
      <trkpt lat="45.49209" lon="6.72017">
        <ele>2442.7</ele>
        <time>2021-08-15T10:39:47Z</time>
      </trkpt>
      <trkpt lat="45.49209" lon="6.72016">
        <ele>2442.7</ele>
        <time>2021-08-15T10:39:48Z</time>
      </trkpt>
      <trkpt lat="45.49209" lon="6.72015">
        <ele>2442.1</ele>
        <time>2021-08-15T10:39:49Z</time>
      </trkpt>
      <trkpt lat="45.49209" lon="6.72014">
        <ele>2442.1</ele>
        <time>2021-08-15T10:39:50Z</time>
      </trkpt>
      <trkpt lat="45.4921" lon="6.72013">
        <ele>2442.1</ele>
        <time>2021-08-15T10:39:51Z</time>
      </trkpt>
      <trkpt lat="45.4921" lon="6.72011">
        <ele>2442.1</ele>
        <time>2021-08-15T10:39:52Z</time>
      </trkpt>
      <trkpt lat="45.4921" lon="6.7201">
        <ele>2441.8</ele>
        <time>2021-08-15T10:39:53Z</time>
      </trkpt>
      <trkpt lat="45.4921" lon="6.72009">
        <ele>2441.8</ele>
        <time>2021-08-15T10:39:54Z</time>
      </trkpt>
      <trkpt lat="45.4921" lon="6.72009">
        <ele>2441.8</ele>
        <time>2021-08-15T10:39:55Z</time>
      </trkpt>
      <trkpt lat="45.49211" lon="6.72008">
        <ele>2441.7</ele>
        <time>2021-08-15T10:39:56Z</time>
      </trkpt>
      <trkpt lat="45.49211" lon="6.72008">
        <ele>2441.7</ele>
        <time>2021-08-15T10:39:57Z</time>
      </trkpt>
      <trkpt lat="45.49211" lon="6.72008">
        <ele>2441.7</ele>
        <time>2021-08-15T10:39:58Z</time>
      </trkpt>
      <trkpt lat="45.49211" lon="6.72007">
        <ele>2441.6</ele>
        <time>2021-08-15T10:39:59Z</time>
      </trkpt>
      <trkpt lat="45.49211" lon="6.72007">
        <ele>2441.6</ele>
        <time>2021-08-15T10:40:00Z</time>
      </trkpt>
      <trkpt lat="45.49211" lon="6.72007">
        <ele>2441.4</ele>
        <time>2021-08-15T10:40:01Z</time>
      </trkpt>
      <trkpt lat="45.49211" lon="6.72006">
        <ele>2441.3</ele>
        <time>2021-08-15T10:40:02Z</time>
      </trkpt>
      <trkpt lat="45.49211" lon="6.72006">
        <ele>2441.3</ele>
        <time>2021-08-15T10:40:03Z</time>
      </trkpt>
      <trkpt lat="45.49211" lon="6.72005">
        <ele>2441.3</ele>
        <time>2021-08-15T10:40:04Z</time>
      </trkpt>
      <trkpt lat="45.49211" lon="6.72004">
        <ele>2441.3</ele>
        <time>2021-08-15T10:40:05Z</time>
      </trkpt>
      <trkpt lat="45.49211" lon="6.72004">
        <ele>2441.2</ele>
        <time>2021-08-15T10:40:06Z</time>
      </trkpt>
      <trkpt lat="45.49211" lon="6.72003">
        <ele>2441.2</ele>
        <time>2021-08-15T10:40:07Z</time>
      </trkpt>
      <trkpt lat="45.49212" lon="6.72002">
        <ele>2440.9</ele>
        <time>2021-08-15T10:40:08Z</time>
      </trkpt>
      <trkpt lat="45.49212" lon="6.72001">
        <ele>2440.9</ele>
        <time>2021-08-15T10:40:09Z</time>
      </trkpt>
      <trkpt lat="45.49212" lon="6.72">
        <ele>2440.9</ele>
        <time>2021-08-15T10:40:10Z</time>
      </trkpt>
      <trkpt lat="45.49212" lon="6.71999">
        <ele>2440.9</ele>
        <time>2021-08-15T10:40:11Z</time>
      </trkpt>
      <trkpt lat="45.49212" lon="6.71998">
        <ele>2440.4</ele>
        <time>2021-08-15T10:40:12Z</time>
      </trkpt>
      <trkpt lat="45.49212" lon="6.71997">
        <ele>2440.3</ele>
        <time>2021-08-15T10:40:13Z</time>
      </trkpt>
      <trkpt lat="45.49212" lon="6.71997">
        <ele>2440.3</ele>
        <time>2021-08-15T10:40:14Z</time>
      </trkpt>
      <trkpt lat="45.49212" lon="6.71996">
        <ele>2440.3</ele>
        <time>2021-08-15T10:40:15Z</time>
      </trkpt>
      <trkpt lat="45.49212" lon="6.71995">
        <ele>2440.3</ele>
        <time>2021-08-15T10:40:16Z</time>
      </trkpt>
      <trkpt lat="45.49212" lon="6.71994">
        <ele>2440</ele>
        <time>2021-08-15T10:40:17Z</time>
      </trkpt>
      <trkpt lat="45.49212" lon="6.71994">
        <ele>2440</ele>
        <time>2021-08-15T10:40:18Z</time>
      </trkpt>
      <trkpt lat="45.49212" lon="6.71993">
        <ele>2440</ele>
        <time>2021-08-15T10:40:19Z</time>
      </trkpt>
      <trkpt lat="45.49212" lon="6.71993">
        <ele>2439.9</ele>
        <time>2021-08-15T10:40:20Z</time>
      </trkpt>
      <trkpt lat="45.49212" lon="6.71992">
        <ele>2439.9</ele>
        <time>2021-08-15T10:40:21Z</time>
      </trkpt>
      <trkpt lat="45.49213" lon="6.71992">
        <ele>2439.9</ele>
        <time>2021-08-15T10:40:22Z</time>
      </trkpt>
      <trkpt lat="45.49213" lon="6.71992">
        <ele>2439.8</ele>
        <time>2021-08-15T10:40:23Z</time>
      </trkpt>
      <trkpt lat="45.49213" lon="6.71992">
        <ele>2439.8</ele>
        <time>2021-08-15T10:40:24Z</time>
      </trkpt>
      <trkpt lat="45.49213" lon="6.71991">
        <ele>2439.8</ele>
        <time>2021-08-15T10:40:25Z</time>
      </trkpt>
      <trkpt lat="45.49213" lon="6.71991">
        <ele>2439.8</ele>
        <time>2021-08-15T10:40:26Z</time>
      </trkpt>
      <trkpt lat="45.49213" lon="6.71991">
        <ele>2439.7</ele>
        <time>2021-08-15T10:40:27Z</time>
      </trkpt>
      <trkpt lat="45.49213" lon="6.71992">
        <ele>2439.7</ele>
        <time>2021-08-15T10:40:28Z</time>
      </trkpt>
      <trkpt lat="45.49213" lon="6.71992">
        <ele>2439.7</ele>
        <time>2021-08-15T10:40:29Z</time>
      </trkpt>
      <trkpt lat="45.49213" lon="6.71992">
        <ele>2439.6</ele>
        <time>2021-08-15T10:40:30Z</time>
      </trkpt>
      <trkpt lat="45.49213" lon="6.71992">
        <ele>2439.6</ele>
        <time>2021-08-15T10:40:31Z</time>
      </trkpt>
      <trkpt lat="45.49213" lon="6.71992">
        <ele>2439.6</ele>
        <time>2021-08-15T10:40:32Z</time>
      </trkpt>
      <trkpt lat="45.49213" lon="6.71992">
        <ele>2439.6</ele>
        <time>2021-08-15T10:40:33Z</time>
      </trkpt>
      <trkpt lat="45.49212" lon="6.71991">
        <ele>2439.5</ele>
        <time>2021-08-15T10:40:34Z</time>
      </trkpt>
      <trkpt lat="45.49212" lon="6.71991">
        <ele>2439.5</ele>
        <time>2021-08-15T10:40:35Z</time>
      </trkpt>
      <trkpt lat="45.49212" lon="6.7199">
        <ele>2439.5</ele>
        <time>2021-08-15T10:40:36Z</time>
      </trkpt>
      <trkpt lat="45.49212" lon="6.71989">
        <ele>2439.2</ele>
        <time>2021-08-15T10:40:37Z</time>
      </trkpt>
      <trkpt lat="45.49212" lon="6.71988">
        <ele>2439.2</ele>
        <time>2021-08-15T10:40:38Z</time>
      </trkpt>
      <trkpt lat="45.49212" lon="6.71987">
        <ele>2439.2</ele>
        <time>2021-08-15T10:40:39Z</time>
      </trkpt>
      <trkpt lat="45.49212" lon="6.71986">
        <ele>2439.2</ele>
        <time>2021-08-15T10:40:40Z</time>
      </trkpt>
      <trkpt lat="45.49212" lon="6.71985">
        <ele>2439.1</ele>
        <time>2021-08-15T10:40:41Z</time>
      </trkpt>
      <trkpt lat="45.49212" lon="6.71985">
        <ele>2439.1</ele>
        <time>2021-08-15T10:40:42Z</time>
      </trkpt>
      <trkpt lat="45.49212" lon="6.71984">
        <ele>2439</ele>
        <time>2021-08-15T10:40:43Z</time>
      </trkpt>
      <trkpt lat="45.49211" lon="6.71983">
        <ele>2439</ele>
        <time>2021-08-15T10:40:44Z</time>
      </trkpt>
      <trkpt lat="45.49211" lon="6.71982">
        <ele>2438.9</ele>
        <time>2021-08-15T10:40:45Z</time>
      </trkpt>
      <trkpt lat="45.49211" lon="6.71982">
        <ele>2438.9</ele>
        <time>2021-08-15T10:40:46Z</time>
      </trkpt>
      <trkpt lat="45.49211" lon="6.71981">
        <ele>2438.8</ele>
        <time>2021-08-15T10:40:47Z</time>
      </trkpt>
      <trkpt lat="45.4921" lon="6.7198">
        <ele>2438.8</ele>
        <time>2021-08-15T10:40:48Z</time>
      </trkpt>
      <trkpt lat="45.4921" lon="6.7198">
        <ele>2438.7</ele>
        <time>2021-08-15T10:40:49Z</time>
      </trkpt>
      <trkpt lat="45.4921" lon="6.71979">
        <ele>2438.7</ele>
        <time>2021-08-15T10:40:50Z</time>
      </trkpt>
      <trkpt lat="45.4921" lon="6.71979">
        <ele>2438.6</ele>
        <time>2021-08-15T10:40:51Z</time>
      </trkpt>
      <trkpt lat="45.4921" lon="6.71978">
        <ele>2438.6</ele>
        <time>2021-08-15T10:40:52Z</time>
      </trkpt>
      <trkpt lat="45.49209" lon="6.71977">
        <ele>2438.5</ele>
        <time>2021-08-15T10:40:53Z</time>
      </trkpt>
      <trkpt lat="45.49209" lon="6.71977">
        <ele>2438.5</ele>
        <time>2021-08-15T10:40:54Z</time>
      </trkpt>
      <trkpt lat="45.49209" lon="6.71976">
        <ele>2438.4</ele>
        <time>2021-08-15T10:40:55Z</time>
      </trkpt>
      <trkpt lat="45.49209" lon="6.71975">
        <ele>2438.4</ele>
        <time>2021-08-15T10:40:56Z</time>
      </trkpt>
      <trkpt lat="45.49209" lon="6.71974">
        <ele>2438.3</ele>
        <time>2021-08-15T10:40:57Z</time>
      </trkpt>
      <trkpt lat="45.49209" lon="6.71973">
        <ele>2438.2</ele>
        <time>2021-08-15T10:40:58Z</time>
      </trkpt>
      <trkpt lat="45.49208" lon="6.71973">
        <ele>2438.2</ele>
        <time>2021-08-15T10:40:59Z</time>
      </trkpt>
      <trkpt lat="45.49208" lon="6.71972">
        <ele>2438.1</ele>
        <time>2021-08-15T10:41:00Z</time>
      </trkpt>
      <trkpt lat="45.49208" lon="6.71971">
        <ele>2438</ele>
        <time>2021-08-15T10:41:01Z</time>
      </trkpt>
      <trkpt lat="45.49208" lon="6.7197">
        <ele>2437.9</ele>
        <time>2021-08-15T10:41:02Z</time>
      </trkpt>
      <trkpt lat="45.49208" lon="6.71969">
        <ele>2437.8</ele>
        <time>2021-08-15T10:41:03Z</time>
      </trkpt>
      <trkpt lat="45.49208" lon="6.71968">
        <ele>2437.7</ele>
        <time>2021-08-15T10:41:04Z</time>
      </trkpt>
      <trkpt lat="45.49208" lon="6.71966">
        <ele>2437.6</ele>
        <time>2021-08-15T10:41:05Z</time>
      </trkpt>
      <trkpt lat="45.49208" lon="6.71965">
        <ele>2437.5</ele>
        <time>2021-08-15T10:41:06Z</time>
      </trkpt>
      <trkpt lat="45.49208" lon="6.71964">
        <ele>2437.4</ele>
        <time>2021-08-15T10:41:07Z</time>
      </trkpt>
      <trkpt lat="45.49208" lon="6.71963">
        <ele>2437.3</ele>
        <time>2021-08-15T10:41:08Z</time>
      </trkpt>
      <trkpt lat="45.49208" lon="6.71962">
        <ele>2437.3</ele>
        <time>2021-08-15T10:41:09Z</time>
      </trkpt>
      <trkpt lat="45.49208" lon="6.71961">
        <ele>2437.2</ele>
        <time>2021-08-15T10:41:10Z</time>
      </trkpt>
      <trkpt lat="45.49208" lon="6.7196">
        <ele>2437.1</ele>
        <time>2021-08-15T10:41:11Z</time>
      </trkpt>
      <trkpt lat="45.49209" lon="6.71959">
        <ele>2437</ele>
        <time>2021-08-15T10:41:12Z</time>
      </trkpt>
      <trkpt lat="45.49209" lon="6.71958">
        <ele>2436.9</ele>
        <time>2021-08-15T10:41:13Z</time>
      </trkpt>
      <trkpt lat="45.49209" lon="6.71957">
        <ele>2436.8</ele>
        <time>2021-08-15T10:41:14Z</time>
      </trkpt>
      <trkpt lat="45.49209" lon="6.71956">
        <ele>2436.8</ele>
        <time>2021-08-15T10:41:15Z</time>
      </trkpt>
      <trkpt lat="45.49209" lon="6.71955">
        <ele>2436.7</ele>
        <time>2021-08-15T10:41:16Z</time>
      </trkpt>
      <trkpt lat="45.49209" lon="6.71954">
        <ele>2436.6</ele>
        <time>2021-08-15T10:41:17Z</time>
      </trkpt>
      <trkpt lat="45.49209" lon="6.71953">
        <ele>2436.6</ele>
        <time>2021-08-15T10:41:18Z</time>
      </trkpt>
      <trkpt lat="45.49209" lon="6.71953">
        <ele>2436.5</ele>
        <time>2021-08-15T10:41:19Z</time>
      </trkpt>
      <trkpt lat="45.49209" lon="6.71952">
        <ele>2436.5</ele>
        <time>2021-08-15T10:41:20Z</time>
      </trkpt>
      <trkpt lat="45.49209" lon="6.71952">
        <ele>2436.4</ele>
        <time>2021-08-15T10:41:21Z</time>
      </trkpt>
      <trkpt lat="45.49209" lon="6.71951">
        <ele>2436.4</ele>
        <time>2021-08-15T10:41:22Z</time>
      </trkpt>
      <trkpt lat="45.49209" lon="6.71951">
        <ele>2436.4</ele>
        <time>2021-08-15T10:41:23Z</time>
      </trkpt>
      <trkpt lat="45.49209" lon="6.7195">
        <ele>2436.3</ele>
        <time>2021-08-15T10:41:24Z</time>
      </trkpt>
      <trkpt lat="45.49209" lon="6.7195">
        <ele>2436.3</ele>
        <time>2021-08-15T10:41:25Z</time>
      </trkpt>
      <trkpt lat="45.49209" lon="6.7195">
        <ele>2436.3</ele>
        <time>2021-08-15T10:41:26Z</time>
      </trkpt>
      <trkpt lat="45.49209" lon="6.7195">
        <ele>2436.3</ele>
        <time>2021-08-15T10:41:27Z</time>
      </trkpt>
      <trkpt lat="45.49209" lon="6.7195">
        <ele>2436.3</ele>
        <time>2021-08-15T10:41:28Z</time>
      </trkpt>
      <trkpt lat="45.49209" lon="6.7195">
        <ele>2436.3</ele>
        <time>2021-08-15T10:41:29Z</time>
      </trkpt>
      <trkpt lat="45.49209" lon="6.7195">
        <ele>2436.3</ele>
        <time>2021-08-15T10:41:30Z</time>
      </trkpt>
      <trkpt lat="45.49209" lon="6.7195">
        <ele>2436.3</ele>
        <time>2021-08-15T10:41:31Z</time>
      </trkpt>
      <trkpt lat="45.49209" lon="6.7195">
        <ele>2436.3</ele>
        <time>2021-08-15T10:41:32Z</time>
      </trkpt>
      <trkpt lat="45.49209" lon="6.7195">
        <ele>2436.3</ele>
        <time>2021-08-15T10:41:33Z</time>
      </trkpt>
      <trkpt lat="45.49209" lon="6.7195">
        <ele>2436.3</ele>
        <time>2021-08-15T10:41:34Z</time>
      </trkpt>
      <trkpt lat="45.49209" lon="6.7195">
        <ele>2436.3</ele>
        <time>2021-08-15T10:41:35Z</time>
      </trkpt>
      <trkpt lat="45.49209" lon="6.7195">
        <ele>2436.3</ele>
        <time>2021-08-15T10:41:36Z</time>
      </trkpt>
      <trkpt lat="45.49209" lon="6.7195">
        <ele>2436.3</ele>
        <time>2021-08-15T10:41:37Z</time>
      </trkpt>
      <trkpt lat="45.49209" lon="6.7195">
        <ele>2436.2</ele>
        <time>2021-08-15T10:41:38Z</time>
      </trkpt>
      <trkpt lat="45.49209" lon="6.7195">
        <ele>2436.2</ele>
        <time>2021-08-15T10:41:39Z</time>
      </trkpt>
      <trkpt lat="45.49209" lon="6.7195">
        <ele>2436.2</ele>
        <time>2021-08-15T10:41:40Z</time>
      </trkpt>
      <trkpt lat="45.49209" lon="6.7195">
        <ele>2436.2</ele>
        <time>2021-08-15T10:41:41Z</time>
      </trkpt>
      <trkpt lat="45.49209" lon="6.7195">
        <ele>2436.2</ele>
        <time>2021-08-15T10:41:42Z</time>
      </trkpt>
      <trkpt lat="45.49209" lon="6.7195">
        <ele>2436.2</ele>
        <time>2021-08-15T10:41:43Z</time>
      </trkpt>
      <trkpt lat="45.49209" lon="6.7195">
        <ele>2436.2</ele>
        <time>2021-08-15T10:41:44Z</time>
      </trkpt>
      <trkpt lat="45.49209" lon="6.7195">
        <ele>2436.2</ele>
        <time>2021-08-15T10:41:45Z</time>
      </trkpt>
      <trkpt lat="45.49209" lon="6.7195">
        <ele>2436.2</ele>
        <time>2021-08-15T10:41:46Z</time>
      </trkpt>
      <trkpt lat="45.49209" lon="6.71949">
        <ele>2436.2</ele>
        <time>2021-08-15T10:41:47Z</time>
      </trkpt>
      <trkpt lat="45.49209" lon="6.71949">
        <ele>2436.1</ele>
        <time>2021-08-15T10:41:48Z</time>
      </trkpt>
      <trkpt lat="45.49209" lon="6.71949">
        <ele>2436.1</ele>
        <time>2021-08-15T10:41:49Z</time>
      </trkpt>
      <trkpt lat="45.49209" lon="6.71948">
        <ele>2436</ele>
        <time>2021-08-15T10:41:50Z</time>
      </trkpt>
      <trkpt lat="45.49209" lon="6.71947">
        <ele>2436</ele>
        <time>2021-08-15T10:41:51Z</time>
      </trkpt>
      <trkpt lat="45.49209" lon="6.71947">
        <ele>2435.9</ele>
        <time>2021-08-15T10:41:52Z</time>
      </trkpt>
      <trkpt lat="45.49209" lon="6.71946">
        <ele>2435.9</ele>
        <time>2021-08-15T10:41:53Z</time>
      </trkpt>
      <trkpt lat="45.49209" lon="6.71945">
        <ele>2435.8</ele>
        <time>2021-08-15T10:41:54Z</time>
      </trkpt>
      <trkpt lat="45.49209" lon="6.71944">
        <ele>2435.7</ele>
        <time>2021-08-15T10:41:55Z</time>
      </trkpt>
      <trkpt lat="45.49209" lon="6.71943">
        <ele>2435.6</ele>
        <time>2021-08-15T10:41:56Z</time>
      </trkpt>
      <trkpt lat="45.49209" lon="6.71941">
        <ele>2435.5</ele>
        <time>2021-08-15T10:41:57Z</time>
      </trkpt>
      <trkpt lat="45.49209" lon="6.7194">
        <ele>2435.4</ele>
        <time>2021-08-15T10:41:58Z</time>
      </trkpt>
      <trkpt lat="45.49209" lon="6.71939">
        <ele>2435.3</ele>
        <time>2021-08-15T10:41:59Z</time>
      </trkpt>
      <trkpt lat="45.49209" lon="6.71937">
        <ele>2435.2</ele>
        <time>2021-08-15T10:42:00Z</time>
      </trkpt>
      <trkpt lat="45.49208" lon="6.71936">
        <ele>2435.1</ele>
        <time>2021-08-15T10:42:01Z</time>
      </trkpt>
      <trkpt lat="45.49208" lon="6.71935">
        <ele>2435</ele>
        <time>2021-08-15T10:42:02Z</time>
      </trkpt>
      <trkpt lat="45.49208" lon="6.71933">
        <ele>2434.9</ele>
        <time>2021-08-15T10:42:03Z</time>
      </trkpt>
      <trkpt lat="45.49207" lon="6.71932">
        <ele>2434.8</ele>
        <time>2021-08-15T10:42:04Z</time>
      </trkpt>
      <trkpt lat="45.49206" lon="6.71931">
        <ele>2434.7</ele>
        <time>2021-08-15T10:42:05Z</time>
      </trkpt>
      <trkpt lat="45.49206" lon="6.7193">
        <ele>2434.5</ele>
        <time>2021-08-15T10:42:06Z</time>
      </trkpt>
      <trkpt lat="45.49205" lon="6.71929">
        <ele>2434.4</ele>
        <time>2021-08-15T10:42:07Z</time>
      </trkpt>
      <trkpt lat="45.49204" lon="6.71927">
        <ele>2434.3</ele>
        <time>2021-08-15T10:42:08Z</time>
      </trkpt>
      <trkpt lat="45.49204" lon="6.71926">
        <ele>2434.2</ele>
        <time>2021-08-15T10:42:09Z</time>
      </trkpt>
      <trkpt lat="45.49203" lon="6.71925">
        <ele>2434.1</ele>
        <time>2021-08-15T10:42:10Z</time>
      </trkpt>
      <trkpt lat="45.49203" lon="6.71924">
        <ele>2434</ele>
        <time>2021-08-15T10:42:11Z</time>
      </trkpt>
      <trkpt lat="45.49203" lon="6.71923">
        <ele>2433.9</ele>
        <time>2021-08-15T10:42:12Z</time>
      </trkpt>
      <trkpt lat="45.49202" lon="6.71921">
        <ele>2433.8</ele>
        <time>2021-08-15T10:42:13Z</time>
      </trkpt>
      <trkpt lat="45.49202" lon="6.7192">
        <ele>2433.7</ele>
        <time>2021-08-15T10:42:14Z</time>
      </trkpt>
      <trkpt lat="45.49202" lon="6.71919">
        <ele>2433.6</ele>
        <time>2021-08-15T10:42:15Z</time>
      </trkpt>
      <trkpt lat="45.49202" lon="6.71918">
        <ele>2433.5</ele>
        <time>2021-08-15T10:42:16Z</time>
      </trkpt>
      <trkpt lat="45.49201" lon="6.71917">
        <ele>2433.4</ele>
        <time>2021-08-15T10:42:17Z</time>
      </trkpt>
      <trkpt lat="45.49201" lon="6.71915">
        <ele>2433.3</ele>
        <time>2021-08-15T10:42:18Z</time>
      </trkpt>
      <trkpt lat="45.492" lon="6.71914">
        <ele>2433.2</ele>
        <time>2021-08-15T10:42:19Z</time>
      </trkpt>
      <trkpt lat="45.492" lon="6.71913">
        <ele>2433.1</ele>
        <time>2021-08-15T10:42:20Z</time>
      </trkpt>
      <trkpt lat="45.49199" lon="6.71913">
        <ele>2433</ele>
        <time>2021-08-15T10:42:21Z</time>
      </trkpt>
      <trkpt lat="45.49199" lon="6.71912">
        <ele>2432.9</ele>
        <time>2021-08-15T10:42:22Z</time>
      </trkpt>
      <trkpt lat="45.49198" lon="6.71911">
        <ele>2432.8</ele>
        <time>2021-08-15T10:42:23Z</time>
      </trkpt>
      <trkpt lat="45.49198" lon="6.7191">
        <ele>2432.7</ele>
        <time>2021-08-15T10:42:24Z</time>
      </trkpt>
      <trkpt lat="45.49197" lon="6.71909">
        <ele>2432.6</ele>
        <time>2021-08-15T10:42:25Z</time>
      </trkpt>
      <trkpt lat="45.49196" lon="6.71908">
        <ele>2432.5</ele>
        <time>2021-08-15T10:42:26Z</time>
      </trkpt>
      <trkpt lat="45.49196" lon="6.71907">
        <ele>2432.5</ele>
        <time>2021-08-15T10:42:27Z</time>
      </trkpt>
      <trkpt lat="45.49195" lon="6.71906">
        <ele>2432.4</ele>
        <time>2021-08-15T10:42:28Z</time>
      </trkpt>
      <trkpt lat="45.49195" lon="6.71906">
        <ele>2432.3</ele>
        <time>2021-08-15T10:42:29Z</time>
      </trkpt>
      <trkpt lat="45.49195" lon="6.71905">
        <ele>2432.2</ele>
        <time>2021-08-15T10:42:30Z</time>
      </trkpt>
      <trkpt lat="45.49194" lon="6.71904">
        <ele>2432.1</ele>
        <time>2021-08-15T10:42:31Z</time>
      </trkpt>
      <trkpt lat="45.49194" lon="6.71903">
        <ele>2432.1</ele>
        <time>2021-08-15T10:42:32Z</time>
      </trkpt>
      <trkpt lat="45.49194" lon="6.71902">
        <ele>2432</ele>
        <time>2021-08-15T10:42:33Z</time>
      </trkpt>
      <trkpt lat="45.49193" lon="6.71901">
        <ele>2431.9</ele>
        <time>2021-08-15T10:42:34Z</time>
      </trkpt>
      <trkpt lat="45.49193" lon="6.71901">
        <ele>2431.9</ele>
        <time>2021-08-15T10:42:35Z</time>
      </trkpt>
      <trkpt lat="45.49193" lon="6.719">
        <ele>2431.8</ele>
        <time>2021-08-15T10:42:36Z</time>
      </trkpt>
      <trkpt lat="45.49192" lon="6.719">
        <ele>2431.8</ele>
        <time>2021-08-15T10:42:37Z</time>
      </trkpt>
      <trkpt lat="45.49192" lon="6.71899">
        <ele>2431.7</ele>
        <time>2021-08-15T10:42:38Z</time>
      </trkpt>
      <trkpt lat="45.49192" lon="6.71898">
        <ele>2431.7</ele>
        <time>2021-08-15T10:42:39Z</time>
      </trkpt>
      <trkpt lat="45.49191" lon="6.71897">
        <ele>2431.6</ele>
        <time>2021-08-15T10:42:40Z</time>
      </trkpt>
      <trkpt lat="45.49191" lon="6.71896">
        <ele>2431.5</ele>
        <time>2021-08-15T10:42:41Z</time>
      </trkpt>
      <trkpt lat="45.49191" lon="6.71895">
        <ele>2431.4</ele>
        <time>2021-08-15T10:42:42Z</time>
      </trkpt>
      <trkpt lat="45.4919" lon="6.71894">
        <ele>2431.3</ele>
        <time>2021-08-15T10:42:43Z</time>
      </trkpt>
      <trkpt lat="45.4919" lon="6.71893">
        <ele>2431.2</ele>
        <time>2021-08-15T10:42:44Z</time>
      </trkpt>
      <trkpt lat="45.49189" lon="6.71892">
        <ele>2431.1</ele>
        <time>2021-08-15T10:42:45Z</time>
      </trkpt>
      <trkpt lat="45.49188" lon="6.7189">
        <ele>2431</ele>
        <time>2021-08-15T10:42:46Z</time>
      </trkpt>
      <trkpt lat="45.49187" lon="6.71889">
        <ele>2430.9</ele>
        <time>2021-08-15T10:42:47Z</time>
      </trkpt>
      <trkpt lat="45.49187" lon="6.71888">
        <ele>2430.8</ele>
        <time>2021-08-15T10:42:48Z</time>
      </trkpt>
      <trkpt lat="45.49186" lon="6.71887">
        <ele>2430.7</ele>
        <time>2021-08-15T10:42:49Z</time>
      </trkpt>
      <trkpt lat="45.49186" lon="6.71886">
        <ele>2430.6</ele>
        <time>2021-08-15T10:42:50Z</time>
      </trkpt>
      <trkpt lat="45.49185" lon="6.71885">
        <ele>2430.5</ele>
        <time>2021-08-15T10:42:51Z</time>
      </trkpt>
      <trkpt lat="45.49185" lon="6.71884">
        <ele>2430.5</ele>
        <time>2021-08-15T10:42:52Z</time>
      </trkpt>
      <trkpt lat="45.49184" lon="6.71883">
        <ele>2430.4</ele>
        <time>2021-08-15T10:42:53Z</time>
      </trkpt>
      <trkpt lat="45.49184" lon="6.71883">
        <ele>2430.3</ele>
        <time>2021-08-15T10:42:54Z</time>
      </trkpt>
      <trkpt lat="45.49184" lon="6.71882">
        <ele>2430.3</ele>
        <time>2021-08-15T10:42:55Z</time>
      </trkpt>
      <trkpt lat="45.49183" lon="6.71882">
        <ele>2430.2</ele>
        <time>2021-08-15T10:42:56Z</time>
      </trkpt>
      <trkpt lat="45.49183" lon="6.71881">
        <ele>2430.2</ele>
        <time>2021-08-15T10:42:57Z</time>
      </trkpt>
      <trkpt lat="45.49183" lon="6.7188">
        <ele>2430.1</ele>
        <time>2021-08-15T10:42:58Z</time>
      </trkpt>
      <trkpt lat="45.49182" lon="6.71879">
        <ele>2430</ele>
        <time>2021-08-15T10:42:59Z</time>
      </trkpt>
      <trkpt lat="45.49182" lon="6.71878">
        <ele>2429.9</ele>
        <time>2021-08-15T10:43:00Z</time>
      </trkpt>
      <trkpt lat="45.49182" lon="6.71877">
        <ele>2429.7</ele>
        <time>2021-08-15T10:43:01Z</time>
      </trkpt>
      <trkpt lat="45.49181" lon="6.71876">
        <ele>2429.6</ele>
        <time>2021-08-15T10:43:02Z</time>
      </trkpt>
      <trkpt lat="45.49181" lon="6.71875">
        <ele>2429.4</ele>
        <time>2021-08-15T10:43:03Z</time>
      </trkpt>
      <trkpt lat="45.49181" lon="6.71874">
        <ele>2429.2</ele>
        <time>2021-08-15T10:43:04Z</time>
      </trkpt>
      <trkpt lat="45.4918" lon="6.71872">
        <ele>2429</ele>
        <time>2021-08-15T10:43:05Z</time>
      </trkpt>
      <trkpt lat="45.4918" lon="6.71871">
        <ele>2428.9</ele>
        <time>2021-08-15T10:43:06Z</time>
      </trkpt>
      <trkpt lat="45.49179" lon="6.71869">
        <ele>2428.7</ele>
        <time>2021-08-15T10:43:07Z</time>
      </trkpt>
      <trkpt lat="45.49179" lon="6.71868">
        <ele>2428.5</ele>
        <time>2021-08-15T10:43:08Z</time>
      </trkpt>
      <trkpt lat="45.49178" lon="6.71867">
        <ele>2428.4</ele>
        <time>2021-08-15T10:43:09Z</time>
      </trkpt>
      <trkpt lat="45.49178" lon="6.71866">
        <ele>2428.3</ele>
        <time>2021-08-15T10:43:10Z</time>
      </trkpt>
      <trkpt lat="45.49178" lon="6.71865">
        <ele>2428.2</ele>
        <time>2021-08-15T10:43:11Z</time>
      </trkpt>
      <trkpt lat="45.49177" lon="6.71865">
        <ele>2428.1</ele>
        <time>2021-08-15T10:43:12Z</time>
      </trkpt>
      <trkpt lat="45.49177" lon="6.71864">
        <ele>2428</ele>
        <time>2021-08-15T10:43:13Z</time>
      </trkpt>
      <trkpt lat="45.49176" lon="6.71863">
        <ele>2427.9</ele>
        <time>2021-08-15T10:43:14Z</time>
      </trkpt>
      <trkpt lat="45.49176" lon="6.71862">
        <ele>2427.8</ele>
        <time>2021-08-15T10:43:15Z</time>
      </trkpt>
      <trkpt lat="45.49175" lon="6.71862">
        <ele>2427.7</ele>
        <time>2021-08-15T10:43:16Z</time>
      </trkpt>
      <trkpt lat="45.49175" lon="6.71861">
        <ele>2427.6</ele>
        <time>2021-08-15T10:43:17Z</time>
      </trkpt>
      <trkpt lat="45.49174" lon="6.7186">
        <ele>2427.5</ele>
        <time>2021-08-15T10:43:18Z</time>
      </trkpt>
      <trkpt lat="45.49173" lon="6.71859">
        <ele>2427.4</ele>
        <time>2021-08-15T10:43:19Z</time>
      </trkpt>
      <trkpt lat="45.49173" lon="6.71858">
        <ele>2427.3</ele>
        <time>2021-08-15T10:43:20Z</time>
      </trkpt>
      <trkpt lat="45.49172" lon="6.71857">
        <ele>2427.2</ele>
        <time>2021-08-15T10:43:21Z</time>
      </trkpt>
      <trkpt lat="45.49172" lon="6.71856">
        <ele>2427.1</ele>
        <time>2021-08-15T10:43:22Z</time>
      </trkpt>
      <trkpt lat="45.49171" lon="6.71855">
        <ele>2427</ele>
        <time>2021-08-15T10:43:23Z</time>
      </trkpt>
      <trkpt lat="45.49171" lon="6.71854">
        <ele>2426.9</ele>
        <time>2021-08-15T10:43:24Z</time>
      </trkpt>
      <trkpt lat="45.49171" lon="6.71853">
        <ele>2426.8</ele>
        <time>2021-08-15T10:43:25Z</time>
      </trkpt>
      <trkpt lat="45.49171" lon="6.71851">
        <ele>2426.8</ele>
        <time>2021-08-15T10:43:26Z</time>
      </trkpt>
      <trkpt lat="45.49171" lon="6.7185">
        <ele>2426.7</ele>
        <time>2021-08-15T10:43:27Z</time>
      </trkpt>
      <trkpt lat="45.49171" lon="6.71849">
        <ele>2426.6</ele>
        <time>2021-08-15T10:43:28Z</time>
      </trkpt>
      <trkpt lat="45.49171" lon="6.71847">
        <ele>2426.5</ele>
        <time>2021-08-15T10:43:29Z</time>
      </trkpt>
      <trkpt lat="45.49172" lon="6.71846">
        <ele>2426.5</ele>
        <time>2021-08-15T10:43:30Z</time>
      </trkpt>
      <trkpt lat="45.49172" lon="6.71845">
        <ele>2426.4</ele>
        <time>2021-08-15T10:43:31Z</time>
      </trkpt>
      <trkpt lat="45.49173" lon="6.71843">
        <ele>2426.3</ele>
        <time>2021-08-15T10:43:32Z</time>
      </trkpt>
      <trkpt lat="45.49174" lon="6.71842">
        <ele>2426.3</ele>
        <time>2021-08-15T10:43:33Z</time>
      </trkpt>
      <trkpt lat="45.49175" lon="6.71841">
        <ele>2426.2</ele>
        <time>2021-08-15T10:43:34Z</time>
      </trkpt>
      <trkpt lat="45.49176" lon="6.71839">
        <ele>2426.2</ele>
        <time>2021-08-15T10:43:35Z</time>
      </trkpt>
      <trkpt lat="45.49177" lon="6.71838">
        <ele>2426.1</ele>
        <time>2021-08-15T10:43:36Z</time>
      </trkpt>
      <trkpt lat="45.49178" lon="6.71837">
        <ele>2426.1</ele>
        <time>2021-08-15T10:43:37Z</time>
      </trkpt>
      <trkpt lat="45.49179" lon="6.71837">
        <ele>2426</ele>
        <time>2021-08-15T10:43:38Z</time>
      </trkpt>
      <trkpt lat="45.4918" lon="6.71836">
        <ele>2426</ele>
        <time>2021-08-15T10:43:39Z</time>
      </trkpt>
      <trkpt lat="45.49181" lon="6.71835">
        <ele>2426</ele>
        <time>2021-08-15T10:43:40Z</time>
      </trkpt>
      <trkpt lat="45.49181" lon="6.71835">
        <ele>2425.9</ele>
        <time>2021-08-15T10:43:41Z</time>
      </trkpt>
      <trkpt lat="45.49182" lon="6.71835">
        <ele>2425.9</ele>
        <time>2021-08-15T10:43:42Z</time>
      </trkpt>
      <trkpt lat="45.49182" lon="6.71834">
        <ele>2425.9</ele>
        <time>2021-08-15T10:43:43Z</time>
      </trkpt>
      <trkpt lat="45.49182" lon="6.71834">
        <ele>2425.9</ele>
        <time>2021-08-15T10:43:44Z</time>
      </trkpt>
      <trkpt lat="45.49182" lon="6.71834">
        <ele>2425.9</ele>
        <time>2021-08-15T10:43:45Z</time>
      </trkpt>
      <trkpt lat="45.49182" lon="6.71834">
        <ele>2425.9</ele>
        <time>2021-08-15T10:43:46Z</time>
      </trkpt>
      <trkpt lat="45.49182" lon="6.71834">
        <ele>2425.9</ele>
        <time>2021-08-15T10:43:47Z</time>
      </trkpt>
      <trkpt lat="45.49183" lon="6.71834">
        <ele>2425.9</ele>
        <time>2021-08-15T10:43:48Z</time>
      </trkpt>
      <trkpt lat="45.49183" lon="6.71834">
        <ele>2425.9</ele>
        <time>2021-08-15T10:43:49Z</time>
      </trkpt>
      <trkpt lat="45.49184" lon="6.71833">
        <ele>2425.9</ele>
        <time>2021-08-15T10:43:50Z</time>
      </trkpt>
      <trkpt lat="45.49184" lon="6.71833">
        <ele>2425.9</ele>
        <time>2021-08-15T10:43:51Z</time>
      </trkpt>
      <trkpt lat="45.49185" lon="6.71833">
        <ele>2425.8</ele>
        <time>2021-08-15T10:43:52Z</time>
      </trkpt>
      <trkpt lat="45.49186" lon="6.71832">
        <ele>2425.8</ele>
        <time>2021-08-15T10:43:53Z</time>
      </trkpt>
      <trkpt lat="45.49187" lon="6.71832">
        <ele>2425.8</ele>
        <time>2021-08-15T10:43:54Z</time>
      </trkpt>
      <trkpt lat="45.49187" lon="6.71832">
        <ele>2425.8</ele>
        <time>2021-08-15T10:43:55Z</time>
      </trkpt>
      <trkpt lat="45.49188" lon="6.71832">
        <ele>2425.8</ele>
        <time>2021-08-15T10:43:56Z</time>
      </trkpt>
      <trkpt lat="45.49189" lon="6.71832">
        <ele>2425.8</ele>
        <time>2021-08-15T10:43:57Z</time>
      </trkpt>
      <trkpt lat="45.4919" lon="6.71831">
        <ele>2425.8</ele>
        <time>2021-08-15T10:43:58Z</time>
      </trkpt>
      <trkpt lat="45.49191" lon="6.71831">
        <ele>2425.8</ele>
        <time>2021-08-15T10:43:59Z</time>
      </trkpt>
      <trkpt lat="45.49191" lon="6.71831">
        <ele>2425.7</ele>
        <time>2021-08-15T10:44:00Z</time>
      </trkpt>
      <trkpt lat="45.49192" lon="6.71831">
        <ele>2425.7</ele>
        <time>2021-08-15T10:44:01Z</time>
      </trkpt>
      <trkpt lat="45.49193" lon="6.71831">
        <ele>2425.7</ele>
        <time>2021-08-15T10:44:02Z</time>
      </trkpt>
      <trkpt lat="45.49194" lon="6.71831">
        <ele>2425.7</ele>
        <time>2021-08-15T10:44:03Z</time>
      </trkpt>
      <trkpt lat="45.49194" lon="6.71831">
        <ele>2425.7</ele>
        <time>2021-08-15T10:44:04Z</time>
      </trkpt>
      <trkpt lat="45.49195" lon="6.7183">
        <ele>2425.7</ele>
        <time>2021-08-15T10:44:05Z</time>
      </trkpt>
      <trkpt lat="45.49196" lon="6.7183">
        <ele>2425.7</ele>
        <time>2021-08-15T10:44:06Z</time>
      </trkpt>
      <trkpt lat="45.49196" lon="6.71829">
        <ele>2425.7</ele>
        <time>2021-08-15T10:44:07Z</time>
      </trkpt>
      <trkpt lat="45.49197" lon="6.71828">
        <ele>2425.6</ele>
        <time>2021-08-15T10:44:08Z</time>
      </trkpt>
      <trkpt lat="45.49197" lon="6.71827">
        <ele>2425.6</ele>
        <time>2021-08-15T10:44:09Z</time>
      </trkpt>
      <trkpt lat="45.49197" lon="6.71826">
        <ele>2425.6</ele>
        <time>2021-08-15T10:44:10Z</time>
      </trkpt>
      <trkpt lat="45.49197" lon="6.71825">
        <ele>2425.6</ele>
        <time>2021-08-15T10:44:11Z</time>
      </trkpt>
      <trkpt lat="45.49198" lon="6.71823">
        <ele>2425.6</ele>
        <time>2021-08-15T10:44:12Z</time>
      </trkpt>
      <trkpt lat="45.49198" lon="6.71822">
        <ele>2425.6</ele>
        <time>2021-08-15T10:44:13Z</time>
      </trkpt>
      <trkpt lat="45.49197" lon="6.71821">
        <ele>2425.6</ele>
        <time>2021-08-15T10:44:14Z</time>
      </trkpt>
      <trkpt lat="45.49197" lon="6.71819">
        <ele>2425.5</ele>
        <time>2021-08-15T10:44:15Z</time>
      </trkpt>
      <trkpt lat="45.49197" lon="6.71818">
        <ele>2425.5</ele>
        <time>2021-08-15T10:44:16Z</time>
      </trkpt>
      <trkpt lat="45.49196" lon="6.71817">
        <ele>2425.5</ele>
        <time>2021-08-15T10:44:17Z</time>
      </trkpt>
      <trkpt lat="45.49196" lon="6.71816">
        <ele>2425.5</ele>
        <time>2021-08-15T10:44:18Z</time>
      </trkpt>
      <trkpt lat="45.49195" lon="6.71815">
        <ele>2425.5</ele>
        <time>2021-08-15T10:44:19Z</time>
      </trkpt>
      <trkpt lat="45.49195" lon="6.71815">
        <ele>2425.5</ele>
        <time>2021-08-15T10:44:20Z</time>
      </trkpt>
      <trkpt lat="45.49194" lon="6.71814">
        <ele>2425.4</ele>
        <time>2021-08-15T10:44:21Z</time>
      </trkpt>
      <trkpt lat="45.49193" lon="6.71813">
        <ele>2425.4</ele>
        <time>2021-08-15T10:44:22Z</time>
      </trkpt>
      <trkpt lat="45.49192" lon="6.71812">
        <ele>2425.4</ele>
        <time>2021-08-15T10:44:23Z</time>
      </trkpt>
      <trkpt lat="45.49191" lon="6.71812">
        <ele>2425.4</ele>
        <time>2021-08-15T10:44:24Z</time>
      </trkpt>
      <trkpt lat="45.4919" lon="6.71811">
        <ele>2425.4</ele>
        <time>2021-08-15T10:44:25Z</time>
      </trkpt>
      <trkpt lat="45.4919" lon="6.7181">
        <ele>2425.4</ele>
        <time>2021-08-15T10:44:26Z</time>
      </trkpt>
      <trkpt lat="45.49189" lon="6.71809">
        <ele>2425.3</ele>
        <time>2021-08-15T10:44:27Z</time>
      </trkpt>
      <trkpt lat="45.49188" lon="6.71808">
        <ele>2425.3</ele>
        <time>2021-08-15T10:44:28Z</time>
      </trkpt>
      <trkpt lat="45.49187" lon="6.71807">
        <ele>2425.3</ele>
        <time>2021-08-15T10:44:29Z</time>
      </trkpt>
      <trkpt lat="45.49186" lon="6.71806">
        <ele>2425.3</ele>
        <time>2021-08-15T10:44:30Z</time>
      </trkpt>
      <trkpt lat="45.49186" lon="6.71805">
        <ele>2425.2</ele>
        <time>2021-08-15T10:44:31Z</time>
      </trkpt>
      <trkpt lat="45.49185" lon="6.71804">
        <ele>2425.2</ele>
        <time>2021-08-15T10:44:32Z</time>
      </trkpt>
      <trkpt lat="45.49184" lon="6.71803">
        <ele>2425.2</ele>
        <time>2021-08-15T10:44:33Z</time>
      </trkpt>
      <trkpt lat="45.49184" lon="6.71802">
        <ele>2425.2</ele>
        <time>2021-08-15T10:44:34Z</time>
      </trkpt>
      <trkpt lat="45.49183" lon="6.718">
        <ele>2425.1</ele>
        <time>2021-08-15T10:44:35Z</time>
      </trkpt>
      <trkpt lat="45.49183" lon="6.71799">
        <ele>2425.1</ele>
        <time>2021-08-15T10:44:36Z</time>
      </trkpt>
      <trkpt lat="45.49182" lon="6.71798">
        <ele>2425.1</ele>
        <time>2021-08-15T10:44:37Z</time>
      </trkpt>
      <trkpt lat="45.49182" lon="6.71797">
        <ele>2425</ele>
        <time>2021-08-15T10:44:38Z</time>
      </trkpt>
      <trkpt lat="45.49182" lon="6.71796">
        <ele>2425</ele>
        <time>2021-08-15T10:44:39Z</time>
      </trkpt>
      <trkpt lat="45.49182" lon="6.71795">
        <ele>2425</ele>
        <time>2021-08-15T10:44:40Z</time>
      </trkpt>
      <trkpt lat="45.49181" lon="6.71794">
        <ele>2425</ele>
        <time>2021-08-15T10:44:41Z</time>
      </trkpt>
      <trkpt lat="45.49181" lon="6.71793">
        <ele>2424.9</ele>
        <time>2021-08-15T10:44:42Z</time>
      </trkpt>
      <trkpt lat="45.49181" lon="6.71792">
        <ele>2424.9</ele>
        <time>2021-08-15T10:44:43Z</time>
      </trkpt>
      <trkpt lat="45.49181" lon="6.71791">
        <ele>2424.9</ele>
        <time>2021-08-15T10:44:44Z</time>
      </trkpt>
      <trkpt lat="45.49181" lon="6.7179">
        <ele>2424.8</ele>
        <time>2021-08-15T10:44:45Z</time>
      </trkpt>
      <trkpt lat="45.49181" lon="6.71789">
        <ele>2424.8</ele>
        <time>2021-08-15T10:44:46Z</time>
      </trkpt>
      <trkpt lat="45.49181" lon="6.71788">
        <ele>2424.8</ele>
        <time>2021-08-15T10:44:47Z</time>
      </trkpt>
      <trkpt lat="45.49181" lon="6.71787">
        <ele>2424.7</ele>
        <time>2021-08-15T10:44:48Z</time>
      </trkpt>
      <trkpt lat="45.49181" lon="6.71786">
        <ele>2424.7</ele>
        <time>2021-08-15T10:44:49Z</time>
      </trkpt>
      <trkpt lat="45.49181" lon="6.71785">
        <ele>2424.7</ele>
        <time>2021-08-15T10:44:50Z</time>
      </trkpt>
      <trkpt lat="45.49181" lon="6.71784">
        <ele>2424.7</ele>
        <time>2021-08-15T10:44:51Z</time>
      </trkpt>
      <trkpt lat="45.49181" lon="6.71783">
        <ele>2424.6</ele>
        <time>2021-08-15T10:44:52Z</time>
      </trkpt>
      <trkpt lat="45.49181" lon="6.71782">
        <ele>2424.6</ele>
        <time>2021-08-15T10:44:53Z</time>
      </trkpt>
      <trkpt lat="45.49181" lon="6.71781">
        <ele>2424.6</ele>
        <time>2021-08-15T10:44:54Z</time>
      </trkpt>
      <trkpt lat="45.49181" lon="6.7178">
        <ele>2424.6</ele>
        <time>2021-08-15T10:44:55Z</time>
      </trkpt>
      <trkpt lat="45.49181" lon="6.71779">
        <ele>2424.5</ele>
        <time>2021-08-15T10:44:56Z</time>
      </trkpt>
      <trkpt lat="45.49181" lon="6.71778">
        <ele>2424.5</ele>
        <time>2021-08-15T10:44:57Z</time>
      </trkpt>
      <trkpt lat="45.49181" lon="6.71777">
        <ele>2424.5</ele>
        <time>2021-08-15T10:44:58Z</time>
      </trkpt>
      <trkpt lat="45.49181" lon="6.71775">
        <ele>2424.4</ele>
        <time>2021-08-15T10:44:59Z</time>
      </trkpt>
      <trkpt lat="45.49181" lon="6.71774">
        <ele>2424.4</ele>
        <time>2021-08-15T10:45:00Z</time>
      </trkpt>
      <trkpt lat="45.49181" lon="6.71773">
        <ele>2424.4</ele>
        <time>2021-08-15T10:45:01Z</time>
      </trkpt>
      <trkpt lat="45.49181" lon="6.71772">
        <ele>2424.3</ele>
        <time>2021-08-15T10:45:02Z</time>
      </trkpt>
      <trkpt lat="45.49182" lon="6.71771">
        <ele>2424.3</ele>
        <time>2021-08-15T10:45:03Z</time>
      </trkpt>
      <trkpt lat="45.49182" lon="6.7177">
        <ele>2424.3</ele>
        <time>2021-08-15T10:45:04Z</time>
      </trkpt>
      <trkpt lat="45.49182" lon="6.71769">
        <ele>2424.3</ele>
        <time>2021-08-15T10:45:05Z</time>
      </trkpt>
      <trkpt lat="45.49182" lon="6.71768">
        <ele>2424.2</ele>
        <time>2021-08-15T10:45:06Z</time>
      </trkpt>
      <trkpt lat="45.49182" lon="6.71767">
        <ele>2424.2</ele>
        <time>2021-08-15T10:45:07Z</time>
      </trkpt>
      <trkpt lat="45.49182" lon="6.71766">
        <ele>2424.2</ele>
        <time>2021-08-15T10:45:08Z</time>
      </trkpt>
      <trkpt lat="45.49182" lon="6.71765">
        <ele>2424.1</ele>
        <time>2021-08-15T10:45:09Z</time>
      </trkpt>
      <trkpt lat="45.49182" lon="6.71763">
        <ele>2424.1</ele>
        <time>2021-08-15T10:45:10Z</time>
      </trkpt>
      <trkpt lat="45.49182" lon="6.71762">
        <ele>2424.1</ele>
        <time>2021-08-15T10:45:11Z</time>
      </trkpt>
      <trkpt lat="45.49182" lon="6.71761">
        <ele>2424.1</ele>
        <time>2021-08-15T10:45:12Z</time>
      </trkpt>
      <trkpt lat="45.49182" lon="6.7176">
        <ele>2424</ele>
        <time>2021-08-15T10:45:13Z</time>
      </trkpt>
      <trkpt lat="45.49182" lon="6.71758">
        <ele>2424</ele>
        <time>2021-08-15T10:45:14Z</time>
      </trkpt>
      <trkpt lat="45.49182" lon="6.71757">
        <ele>2424</ele>
        <time>2021-08-15T10:45:15Z</time>
      </trkpt>
      <trkpt lat="45.49182" lon="6.71756">
        <ele>2423.9</ele>
        <time>2021-08-15T10:45:16Z</time>
      </trkpt>
      <trkpt lat="45.49182" lon="6.71754">
        <ele>2423.9</ele>
        <time>2021-08-15T10:45:17Z</time>
      </trkpt>
      <trkpt lat="45.49182" lon="6.71753">
        <ele>2423.9</ele>
        <time>2021-08-15T10:45:18Z</time>
      </trkpt>
      <trkpt lat="45.49182" lon="6.71752">
        <ele>2423.8</ele>
        <time>2021-08-15T10:45:19Z</time>
      </trkpt>
      <trkpt lat="45.49182" lon="6.7175">
        <ele>2423.8</ele>
        <time>2021-08-15T10:45:20Z</time>
      </trkpt>
      <trkpt lat="45.49182" lon="6.71749">
        <ele>2423.8</ele>
        <time>2021-08-15T10:45:21Z</time>
      </trkpt>
      <trkpt lat="45.49182" lon="6.71748">
        <ele>2423.7</ele>
        <time>2021-08-15T10:45:22Z</time>
      </trkpt>
      <trkpt lat="45.49182" lon="6.71746">
        <ele>2423.7</ele>
        <time>2021-08-15T10:45:23Z</time>
      </trkpt>
      <trkpt lat="45.49182" lon="6.71745">
        <ele>2423.7</ele>
        <time>2021-08-15T10:45:24Z</time>
      </trkpt>
      <trkpt lat="45.49182" lon="6.71743">
        <ele>2423.6</ele>
        <time>2021-08-15T10:45:25Z</time>
      </trkpt>
      <trkpt lat="45.49182" lon="6.71742">
        <ele>2423.6</ele>
        <time>2021-08-15T10:45:26Z</time>
      </trkpt>
      <trkpt lat="45.49182" lon="6.71741">
        <ele>2423.6</ele>
        <time>2021-08-15T10:45:27Z</time>
      </trkpt>
      <trkpt lat="45.49182" lon="6.71739">
        <ele>2423.5</ele>
        <time>2021-08-15T10:45:28Z</time>
      </trkpt>
      <trkpt lat="45.49182" lon="6.71738">
        <ele>2423.5</ele>
        <time>2021-08-15T10:45:29Z</time>
      </trkpt>
      <trkpt lat="45.49182" lon="6.71737">
        <ele>2423.5</ele>
        <time>2021-08-15T10:45:30Z</time>
      </trkpt>
      <trkpt lat="45.49182" lon="6.71736">
        <ele>2423.5</ele>
        <time>2021-08-15T10:45:31Z</time>
      </trkpt>
      <trkpt lat="45.49182" lon="6.71734">
        <ele>2423.4</ele>
        <time>2021-08-15T10:45:32Z</time>
      </trkpt>
      <trkpt lat="45.49182" lon="6.71733">
        <ele>2423.4</ele>
        <time>2021-08-15T10:45:33Z</time>
      </trkpt>
      <trkpt lat="45.49182" lon="6.71732">
        <ele>2423.4</ele>
        <time>2021-08-15T10:45:34Z</time>
      </trkpt>
      <trkpt lat="45.49182" lon="6.71731">
        <ele>2423.4</ele>
        <time>2021-08-15T10:45:35Z</time>
      </trkpt>
      <trkpt lat="45.49182" lon="6.7173">
        <ele>2423.3</ele>
        <time>2021-08-15T10:45:36Z</time>
      </trkpt>
      <trkpt lat="45.49182" lon="6.71729">
        <ele>2423.3</ele>
        <time>2021-08-15T10:45:37Z</time>
      </trkpt>
      <trkpt lat="45.49182" lon="6.71728">
        <ele>2423.3</ele>
        <time>2021-08-15T10:45:38Z</time>
      </trkpt>
      <trkpt lat="45.49182" lon="6.71727">
        <ele>2423.3</ele>
        <time>2021-08-15T10:45:39Z</time>
      </trkpt>
      <trkpt lat="45.49182" lon="6.71727">
        <ele>2423.2</ele>
        <time>2021-08-15T10:45:40Z</time>
      </trkpt>
      <trkpt lat="45.49182" lon="6.71726">
        <ele>2423.2</ele>
        <time>2021-08-15T10:45:41Z</time>
      </trkpt>
      <trkpt lat="45.49182" lon="6.71725">
        <ele>2423.2</ele>
        <time>2021-08-15T10:45:42Z</time>
      </trkpt>
      <trkpt lat="45.49182" lon="6.71724">
        <ele>2423.2</ele>
        <time>2021-08-15T10:45:43Z</time>
      </trkpt>
      <trkpt lat="45.49182" lon="6.71723">
        <ele>2423.1</ele>
        <time>2021-08-15T10:45:44Z</time>
      </trkpt>
      <trkpt lat="45.49181" lon="6.71722">
        <ele>2423.1</ele>
        <time>2021-08-15T10:45:45Z</time>
      </trkpt>
      <trkpt lat="45.49181" lon="6.71721">
        <ele>2423.1</ele>
        <time>2021-08-15T10:45:46Z</time>
      </trkpt>
      <trkpt lat="45.49181" lon="6.7172">
        <ele>2423.1</ele>
        <time>2021-08-15T10:45:47Z</time>
      </trkpt>
      <trkpt lat="45.4918" lon="6.71718">
        <ele>2423</ele>
        <time>2021-08-15T10:45:48Z</time>
      </trkpt>
      <trkpt lat="45.4918" lon="6.71717">
        <ele>2423</ele>
        <time>2021-08-15T10:45:49Z</time>
      </trkpt>
      <trkpt lat="45.4918" lon="6.71716">
        <ele>2422.9</ele>
        <time>2021-08-15T10:45:50Z</time>
      </trkpt>
      <trkpt lat="45.49179" lon="6.71715">
        <ele>2422.9</ele>
        <time>2021-08-15T10:45:51Z</time>
      </trkpt>
      <trkpt lat="45.49179" lon="6.71713">
        <ele>2422.9</ele>
        <time>2021-08-15T10:45:52Z</time>
      </trkpt>
      <trkpt lat="45.49179" lon="6.71712">
        <ele>2422.8</ele>
        <time>2021-08-15T10:45:53Z</time>
      </trkpt>
      <trkpt lat="45.49179" lon="6.71711">
        <ele>2422.8</ele>
        <time>2021-08-15T10:45:54Z</time>
      </trkpt>
      <trkpt lat="45.49179" lon="6.7171">
        <ele>2422.7</ele>
        <time>2021-08-15T10:45:55Z</time>
      </trkpt>
      <trkpt lat="45.49179" lon="6.71708">
        <ele>2422.7</ele>
        <time>2021-08-15T10:45:56Z</time>
      </trkpt>
      <trkpt lat="45.49179" lon="6.71707">
        <ele>2422.7</ele>
        <time>2021-08-15T10:45:57Z</time>
      </trkpt>
      <trkpt lat="45.49178" lon="6.71706">
        <ele>2422.6</ele>
        <time>2021-08-15T10:45:58Z</time>
      </trkpt>
      <trkpt lat="45.49178" lon="6.71704">
        <ele>2422.6</ele>
        <time>2021-08-15T10:45:59Z</time>
      </trkpt>
      <trkpt lat="45.49178" lon="6.71703">
        <ele>2422.5</ele>
        <time>2021-08-15T10:46:00Z</time>
      </trkpt>
      <trkpt lat="45.49178" lon="6.71701">
        <ele>2422.5</ele>
        <time>2021-08-15T10:46:01Z</time>
      </trkpt>
      <trkpt lat="45.49177" lon="6.717">
        <ele>2422.4</ele>
        <time>2021-08-15T10:46:02Z</time>
      </trkpt>
      <trkpt lat="45.49177" lon="6.71699">
        <ele>2422.3</ele>
        <time>2021-08-15T10:46:03Z</time>
      </trkpt>
      <trkpt lat="45.49177" lon="6.71697">
        <ele>2422.3</ele>
        <time>2021-08-15T10:46:04Z</time>
      </trkpt>
      <trkpt lat="45.49177" lon="6.71696">
        <ele>2422.2</ele>
        <time>2021-08-15T10:46:05Z</time>
      </trkpt>
      <trkpt lat="45.49176" lon="6.71695">
        <ele>2422.2</ele>
        <time>2021-08-15T10:46:06Z</time>
      </trkpt>
      <trkpt lat="45.49176" lon="6.71693">
        <ele>2422.1</ele>
        <time>2021-08-15T10:46:07Z</time>
      </trkpt>
      <trkpt lat="45.49176" lon="6.71692">
        <ele>2422.1</ele>
        <time>2021-08-15T10:46:08Z</time>
      </trkpt>
      <trkpt lat="45.49175" lon="6.71691">
        <ele>2422</ele>
        <time>2021-08-15T10:46:09Z</time>
      </trkpt>
      <trkpt lat="45.49175" lon="6.71689">
        <ele>2422</ele>
        <time>2021-08-15T10:46:10Z</time>
      </trkpt>
      <trkpt lat="45.49175" lon="6.71688">
        <ele>2421.9</ele>
        <time>2021-08-15T10:46:11Z</time>
      </trkpt>
      <trkpt lat="45.49174" lon="6.71687">
        <ele>2421.9</ele>
        <time>2021-08-15T10:46:12Z</time>
      </trkpt>
      <trkpt lat="45.49174" lon="6.71685">
        <ele>2421.8</ele>
        <time>2021-08-15T10:46:13Z</time>
      </trkpt>
      <trkpt lat="45.49173" lon="6.71684">
        <ele>2421.8</ele>
        <time>2021-08-15T10:46:14Z</time>
      </trkpt>
      <trkpt lat="45.49173" lon="6.71683">
        <ele>2421.7</ele>
        <time>2021-08-15T10:46:15Z</time>
      </trkpt>
      <trkpt lat="45.49173" lon="6.71682">
        <ele>2421.7</ele>
        <time>2021-08-15T10:46:16Z</time>
      </trkpt>
      <trkpt lat="45.49172" lon="6.7168">
        <ele>2421.6</ele>
        <time>2021-08-15T10:46:17Z</time>
      </trkpt>
      <trkpt lat="45.49172" lon="6.71679">
        <ele>2421.6</ele>
        <time>2021-08-15T10:46:18Z</time>
      </trkpt>
      <trkpt lat="45.49171" lon="6.71678">
        <ele>2421.5</ele>
        <time>2021-08-15T10:46:19Z</time>
      </trkpt>
      <trkpt lat="45.49171" lon="6.71677">
        <ele>2421.5</ele>
        <time>2021-08-15T10:46:20Z</time>
      </trkpt>
      <trkpt lat="45.4917" lon="6.71676">
        <ele>2421.4</ele>
        <time>2021-08-15T10:46:21Z</time>
      </trkpt>
      <trkpt lat="45.4917" lon="6.71674">
        <ele>2421.4</ele>
        <time>2021-08-15T10:46:22Z</time>
      </trkpt>
      <trkpt lat="45.49169" lon="6.71673">
        <ele>2421.3</ele>
        <time>2021-08-15T10:46:23Z</time>
      </trkpt>
      <trkpt lat="45.49168" lon="6.71672">
        <ele>2421.3</ele>
        <time>2021-08-15T10:46:24Z</time>
      </trkpt>
      <trkpt lat="45.49168" lon="6.71671">
        <ele>2421.2</ele>
        <time>2021-08-15T10:46:25Z</time>
      </trkpt>
      <trkpt lat="45.49167" lon="6.7167">
        <ele>2421.1</ele>
        <time>2021-08-15T10:46:26Z</time>
      </trkpt>
      <trkpt lat="45.49167" lon="6.71669">
        <ele>2421</ele>
        <time>2021-08-15T10:46:27Z</time>
      </trkpt>
      <trkpt lat="45.49166" lon="6.71668">
        <ele>2421</ele>
        <time>2021-08-15T10:46:28Z</time>
      </trkpt>
      <trkpt lat="45.49165" lon="6.71667">
        <ele>2420.9</ele>
        <time>2021-08-15T10:46:29Z</time>
      </trkpt>
      <trkpt lat="45.49165" lon="6.71665">
        <ele>2420.9</ele>
        <time>2021-08-15T10:46:30Z</time>
      </trkpt>
      <trkpt lat="45.49164" lon="6.71664">
        <ele>2420.8</ele>
        <time>2021-08-15T10:46:31Z</time>
      </trkpt>
      <trkpt lat="45.49164" lon="6.71663">
        <ele>2420.8</ele>
        <time>2021-08-15T10:46:32Z</time>
      </trkpt>
      <trkpt lat="45.49163" lon="6.71662">
        <ele>2420.7</ele>
        <time>2021-08-15T10:46:33Z</time>
      </trkpt>
      <trkpt lat="45.49162" lon="6.71661">
        <ele>2420.7</ele>
        <time>2021-08-15T10:46:34Z</time>
      </trkpt>
      <trkpt lat="45.49162" lon="6.7166">
        <ele>2420.6</ele>
        <time>2021-08-15T10:46:35Z</time>
      </trkpt>
      <trkpt lat="45.49161" lon="6.71659">
        <ele>2420.6</ele>
        <time>2021-08-15T10:46:36Z</time>
      </trkpt>
      <trkpt lat="45.4916" lon="6.71658">
        <ele>2420.5</ele>
        <time>2021-08-15T10:46:37Z</time>
      </trkpt>
      <trkpt lat="45.4916" lon="6.71657">
        <ele>2420.4</ele>
        <time>2021-08-15T10:46:38Z</time>
      </trkpt>
      <trkpt lat="45.49159" lon="6.71656">
        <ele>2420.4</ele>
        <time>2021-08-15T10:46:39Z</time>
      </trkpt>
      <trkpt lat="45.49158" lon="6.71655">
        <ele>2420.3</ele>
        <time>2021-08-15T10:46:40Z</time>
      </trkpt>
      <trkpt lat="45.49158" lon="6.71654">
        <ele>2420.3</ele>
        <time>2021-08-15T10:46:41Z</time>
      </trkpt>
      <trkpt lat="45.49157" lon="6.71653">
        <ele>2420.2</ele>
        <time>2021-08-15T10:46:42Z</time>
      </trkpt>
      <trkpt lat="45.49156" lon="6.71652">
        <ele>2420.2</ele>
        <time>2021-08-15T10:46:43Z</time>
      </trkpt>
      <trkpt lat="45.49156" lon="6.71651">
        <ele>2420.1</ele>
        <time>2021-08-15T10:46:44Z</time>
      </trkpt>
      <trkpt lat="45.49155" lon="6.7165">
        <ele>2420.1</ele>
        <time>2021-08-15T10:46:45Z</time>
      </trkpt>
      <trkpt lat="45.49154" lon="6.71649">
        <ele>2420</ele>
        <time>2021-08-15T10:46:46Z</time>
      </trkpt>
      <trkpt lat="45.49154" lon="6.71648">
        <ele>2420</ele>
        <time>2021-08-15T10:46:47Z</time>
      </trkpt>
      <trkpt lat="45.49153" lon="6.71647">
        <ele>2419.9</ele>
        <time>2021-08-15T10:46:48Z</time>
      </trkpt>
      <trkpt lat="45.49152" lon="6.71646">
        <ele>2419.8</ele>
        <time>2021-08-15T10:46:49Z</time>
      </trkpt>
      <trkpt lat="45.49152" lon="6.71644">
        <ele>2419.8</ele>
        <time>2021-08-15T10:46:50Z</time>
      </trkpt>
      <trkpt lat="45.49151" lon="6.71643">
        <ele>2419.7</ele>
        <time>2021-08-15T10:46:51Z</time>
      </trkpt>
      <trkpt lat="45.4915" lon="6.71642">
        <ele>2419.6</ele>
        <time>2021-08-15T10:46:52Z</time>
      </trkpt>
      <trkpt lat="45.4915" lon="6.71641">
        <ele>2419.6</ele>
        <time>2021-08-15T10:46:53Z</time>
      </trkpt>
      <trkpt lat="45.49149" lon="6.7164">
        <ele>2419.5</ele>
        <time>2021-08-15T10:46:54Z</time>
      </trkpt>
      <trkpt lat="45.49148" lon="6.71639">
        <ele>2419.4</ele>
        <time>2021-08-15T10:46:55Z</time>
      </trkpt>
      <trkpt lat="45.49148" lon="6.71638">
        <ele>2419.3</ele>
        <time>2021-08-15T10:46:56Z</time>
      </trkpt>
      <trkpt lat="45.49147" lon="6.71637">
        <ele>2419.3</ele>
        <time>2021-08-15T10:46:57Z</time>
      </trkpt>
      <trkpt lat="45.49146" lon="6.71636">
        <ele>2419.2</ele>
        <time>2021-08-15T10:46:58Z</time>
      </trkpt>
      <trkpt lat="45.49146" lon="6.71635">
        <ele>2419.1</ele>
        <time>2021-08-15T10:46:59Z</time>
      </trkpt>
      <trkpt lat="45.49145" lon="6.71634">
        <ele>2419</ele>
        <time>2021-08-15T10:47:00Z</time>
      </trkpt>
      <trkpt lat="45.49145" lon="6.71632">
        <ele>2419</ele>
        <time>2021-08-15T10:47:01Z</time>
      </trkpt>
      <trkpt lat="45.49144" lon="6.71631">
        <ele>2418.9</ele>
        <time>2021-08-15T10:47:02Z</time>
      </trkpt>
      <trkpt lat="45.49143" lon="6.7163">
        <ele>2418.8</ele>
        <time>2021-08-15T10:47:03Z</time>
      </trkpt>
      <trkpt lat="45.49143" lon="6.71629">
        <ele>2418.7</ele>
        <time>2021-08-15T10:47:04Z</time>
      </trkpt>
      <trkpt lat="45.49142" lon="6.71628">
        <ele>2418.6</ele>
        <time>2021-08-15T10:47:05Z</time>
      </trkpt>
      <trkpt lat="45.49142" lon="6.71627">
        <ele>2418.6</ele>
        <time>2021-08-15T10:47:06Z</time>
      </trkpt>
      <trkpt lat="45.49141" lon="6.71625">
        <ele>2418.5</ele>
        <time>2021-08-15T10:47:07Z</time>
      </trkpt>
      <trkpt lat="45.49141" lon="6.71624">
        <ele>2418.4</ele>
        <time>2021-08-15T10:47:08Z</time>
      </trkpt>
      <trkpt lat="45.4914" lon="6.71623">
        <ele>2418.3</ele>
        <time>2021-08-15T10:47:09Z</time>
      </trkpt>
      <trkpt lat="45.4914" lon="6.71622">
        <ele>2418.2</ele>
        <time>2021-08-15T10:47:10Z</time>
      </trkpt>
      <trkpt lat="45.49139" lon="6.71621">
        <ele>2418.2</ele>
        <time>2021-08-15T10:47:11Z</time>
      </trkpt>
      <trkpt lat="45.49139" lon="6.71619">
        <ele>2418.1</ele>
        <time>2021-08-15T10:47:12Z</time>
      </trkpt>
      <trkpt lat="45.49138" lon="6.71618">
        <ele>2418</ele>
        <time>2021-08-15T10:47:13Z</time>
      </trkpt>
      <trkpt lat="45.49138" lon="6.71617">
        <ele>2417.9</ele>
        <time>2021-08-15T10:47:14Z</time>
      </trkpt>
      <trkpt lat="45.49137" lon="6.71616">
        <ele>2417.8</ele>
        <time>2021-08-15T10:47:15Z</time>
      </trkpt>
      <trkpt lat="45.49137" lon="6.71614">
        <ele>2417.7</ele>
        <time>2021-08-15T10:47:16Z</time>
      </trkpt>
      <trkpt lat="45.49136" lon="6.71613">
        <ele>2417.6</ele>
        <time>2021-08-15T10:47:17Z</time>
      </trkpt>
      <trkpt lat="45.49136" lon="6.71612">
        <ele>2417.6</ele>
        <time>2021-08-15T10:47:18Z</time>
      </trkpt>
      <trkpt lat="45.49135" lon="6.7161">
        <ele>2417.5</ele>
        <time>2021-08-15T10:47:19Z</time>
      </trkpt>
      <trkpt lat="45.49135" lon="6.71609">
        <ele>2417.4</ele>
        <time>2021-08-15T10:47:20Z</time>
      </trkpt>
      <trkpt lat="45.49134" lon="6.71608">
        <ele>2417.3</ele>
        <time>2021-08-15T10:47:21Z</time>
      </trkpt>
      <trkpt lat="45.49134" lon="6.71607">
        <ele>2417.2</ele>
        <time>2021-08-15T10:47:22Z</time>
      </trkpt>
      <trkpt lat="45.49134" lon="6.71605">
        <ele>2417.1</ele>
        <time>2021-08-15T10:47:23Z</time>
      </trkpt>
      <trkpt lat="45.49133" lon="6.71604">
        <ele>2417.1</ele>
        <time>2021-08-15T10:47:24Z</time>
      </trkpt>
      <trkpt lat="45.49133" lon="6.71603">
        <ele>2417</ele>
        <time>2021-08-15T10:47:25Z</time>
      </trkpt>
      <trkpt lat="45.49133" lon="6.71601">
        <ele>2416.9</ele>
        <time>2021-08-15T10:47:26Z</time>
      </trkpt>
      <trkpt lat="45.49132" lon="6.716">
        <ele>2416.8</ele>
        <time>2021-08-15T10:47:27Z</time>
      </trkpt>
      <trkpt lat="45.49132" lon="6.71599">
        <ele>2416.7</ele>
        <time>2021-08-15T10:47:28Z</time>
      </trkpt>
      <trkpt lat="45.49131" lon="6.71597">
        <ele>2416.6</ele>
        <time>2021-08-15T10:47:29Z</time>
      </trkpt>
      <trkpt lat="45.49131" lon="6.71596">
        <ele>2416.5</ele>
        <time>2021-08-15T10:47:30Z</time>
      </trkpt>
      <trkpt lat="45.49131" lon="6.71595">
        <ele>2416.5</ele>
        <time>2021-08-15T10:47:31Z</time>
      </trkpt>
      <trkpt lat="45.4913" lon="6.71593">
        <ele>2416.4</ele>
        <time>2021-08-15T10:47:32Z</time>
      </trkpt>
      <trkpt lat="45.4913" lon="6.71592">
        <ele>2416.3</ele>
        <time>2021-08-15T10:47:33Z</time>
      </trkpt>
      <trkpt lat="45.4913" lon="6.71591">
        <ele>2416.2</ele>
        <time>2021-08-15T10:47:34Z</time>
      </trkpt>
      <trkpt lat="45.4913" lon="6.71589">
        <ele>2416.1</ele>
        <time>2021-08-15T10:47:35Z</time>
      </trkpt>
      <trkpt lat="45.49129" lon="6.71588">
        <ele>2416</ele>
        <time>2021-08-15T10:47:36Z</time>
      </trkpt>
      <trkpt lat="45.49129" lon="6.71587">
        <ele>2416</ele>
        <time>2021-08-15T10:47:37Z</time>
      </trkpt>
      <trkpt lat="45.49129" lon="6.71586">
        <ele>2415.9</ele>
        <time>2021-08-15T10:47:38Z</time>
      </trkpt>
      <trkpt lat="45.49128" lon="6.71585">
        <ele>2415.8</ele>
        <time>2021-08-15T10:47:39Z</time>
      </trkpt>
      <trkpt lat="45.49128" lon="6.71584">
        <ele>2415.7</ele>
        <time>2021-08-15T10:47:40Z</time>
      </trkpt>
      <trkpt lat="45.49128" lon="6.71583">
        <ele>2415.7</ele>
        <time>2021-08-15T10:47:41Z</time>
      </trkpt>
      <trkpt lat="45.49128" lon="6.71582">
        <ele>2415.6</ele>
        <time>2021-08-15T10:47:42Z</time>
      </trkpt>
      <trkpt lat="45.49128" lon="6.71581">
        <ele>2415.6</ele>
        <time>2021-08-15T10:47:43Z</time>
      </trkpt>
      <trkpt lat="45.49128" lon="6.7158">
        <ele>2415.6</ele>
        <time>2021-08-15T10:47:44Z</time>
      </trkpt>
      <trkpt lat="45.49127" lon="6.7158">
        <ele>2415.5</ele>
        <time>2021-08-15T10:47:45Z</time>
      </trkpt>
      <trkpt lat="45.49127" lon="6.7158">
        <ele>2415.5</ele>
        <time>2021-08-15T10:47:46Z</time>
      </trkpt>
      <trkpt lat="45.49127" lon="6.71579">
        <ele>2415.5</ele>
        <time>2021-08-15T10:47:47Z</time>
      </trkpt>
      <trkpt lat="45.49127" lon="6.71579">
        <ele>2415.5</ele>
        <time>2021-08-15T10:47:48Z</time>
      </trkpt>
      <trkpt lat="45.49127" lon="6.71579">
        <ele>2415.5</ele>
        <time>2021-08-15T10:47:49Z</time>
      </trkpt>
      <trkpt lat="45.49127" lon="6.71579">
        <ele>2415.5</ele>
        <time>2021-08-15T10:47:50Z</time>
      </trkpt>
      <trkpt lat="45.49128" lon="6.71579">
        <ele>2415.5</ele>
        <time>2021-08-15T10:47:51Z</time>
      </trkpt>
      <trkpt lat="45.49128" lon="6.7158">
        <ele>2415.5</ele>
        <time>2021-08-15T10:47:52Z</time>
      </trkpt>
      <trkpt lat="45.49128" lon="6.7158">
        <ele>2415.5</ele>
        <time>2021-08-15T10:47:53Z</time>
      </trkpt>
      <trkpt lat="45.49128" lon="6.7158">
        <ele>2415.5</ele>
        <time>2021-08-15T10:47:54Z</time>
      </trkpt>
      <trkpt lat="45.49128" lon="6.7158">
        <ele>2415.5</ele>
        <time>2021-08-15T10:47:55Z</time>
      </trkpt>
      <trkpt lat="45.49128" lon="6.7158">
        <ele>2415.5</ele>
        <time>2021-08-15T10:47:56Z</time>
      </trkpt>
      <trkpt lat="45.49128" lon="6.7158">
        <ele>2415.5</ele>
        <time>2021-08-15T10:47:57Z</time>
      </trkpt>
      <trkpt lat="45.49128" lon="6.7158">
        <ele>2415.5</ele>
        <time>2021-08-15T10:47:58Z</time>
      </trkpt>
      <trkpt lat="45.49128" lon="6.7158">
        <ele>2415.4</ele>
        <time>2021-08-15T10:47:59Z</time>
      </trkpt>
      <trkpt lat="45.49128" lon="6.71579">
        <ele>2415.4</ele>
        <time>2021-08-15T10:48:00Z</time>
      </trkpt>
      <trkpt lat="45.49128" lon="6.71579">
        <ele>2415.4</ele>
        <time>2021-08-15T10:48:01Z</time>
      </trkpt>
      <trkpt lat="45.49127" lon="6.71579">
        <ele>2415.4</ele>
        <time>2021-08-15T10:48:02Z</time>
      </trkpt>
      <trkpt lat="45.49127" lon="6.71579">
        <ele>2415.4</ele>
        <time>2021-08-15T10:48:03Z</time>
      </trkpt>
      <trkpt lat="45.49127" lon="6.71579">
        <ele>2415.4</ele>
        <time>2021-08-15T10:48:04Z</time>
      </trkpt>
      <trkpt lat="45.49127" lon="6.71579">
        <ele>2415.4</ele>
        <time>2021-08-15T10:48:05Z</time>
      </trkpt>
      <trkpt lat="45.49127" lon="6.71579">
        <ele>2415.4</ele>
        <time>2021-08-15T10:48:06Z</time>
      </trkpt>
      <trkpt lat="45.49127" lon="6.71579">
        <ele>2415.4</ele>
        <time>2021-08-15T10:48:07Z</time>
      </trkpt>
      <trkpt lat="45.49127" lon="6.71578">
        <ele>2415.4</ele>
        <time>2021-08-15T10:48:08Z</time>
      </trkpt>
      <trkpt lat="45.49127" lon="6.71578">
        <ele>2415.4</ele>
        <time>2021-08-15T10:48:09Z</time>
      </trkpt>
      <trkpt lat="45.49127" lon="6.71578">
        <ele>2415.4</ele>
        <time>2021-08-15T10:48:10Z</time>
      </trkpt>
      <trkpt lat="45.49127" lon="6.71578">
        <ele>2415.4</ele>
        <time>2021-08-15T10:48:11Z</time>
      </trkpt>
      <trkpt lat="45.49127" lon="6.71578">
        <ele>2415.3</ele>
        <time>2021-08-15T10:48:12Z</time>
      </trkpt>
      <trkpt lat="45.49127" lon="6.71578">
        <ele>2415.3</ele>
        <time>2021-08-15T10:48:13Z</time>
      </trkpt>
      <trkpt lat="45.49127" lon="6.71578">
        <ele>2415.3</ele>
        <time>2021-08-15T10:48:14Z</time>
      </trkpt>
      <trkpt lat="45.49127" lon="6.71578">
        <ele>2415.3</ele>
        <time>2021-08-15T10:48:15Z</time>
      </trkpt>
      <trkpt lat="45.49127" lon="6.71578">
        <ele>2415.3</ele>
        <time>2021-08-15T10:48:16Z</time>
      </trkpt>
      <trkpt lat="45.49127" lon="6.71578">
        <ele>2415.3</ele>
        <time>2021-08-15T10:48:17Z</time>
      </trkpt>
      <trkpt lat="45.49127" lon="6.71578">
        <ele>2415.3</ele>
        <time>2021-08-15T10:48:18Z</time>
      </trkpt>
      <trkpt lat="45.49127" lon="6.71578">
        <ele>2415.3</ele>
        <time>2021-08-15T10:48:19Z</time>
      </trkpt>
      <trkpt lat="45.49127" lon="6.71578">
        <ele>2415.3</ele>
        <time>2021-08-15T10:48:20Z</time>
      </trkpt>
      <trkpt lat="45.49127" lon="6.71578">
        <ele>2415.3</ele>
        <time>2021-08-15T10:48:21Z</time>
      </trkpt>
      <trkpt lat="45.49127" lon="6.71578">
        <ele>2415.3</ele>
        <time>2021-08-15T10:48:22Z</time>
      </trkpt>
      <trkpt lat="45.49127" lon="6.71578">
        <ele>2415.3</ele>
        <time>2021-08-15T10:48:23Z</time>
      </trkpt>
      <trkpt lat="45.49127" lon="6.71578">
        <ele>2415.3</ele>
        <time>2021-08-15T10:48:24Z</time>
      </trkpt>
      <trkpt lat="45.49126" lon="6.71578">
        <ele>2415.2</ele>
        <time>2021-08-15T10:48:25Z</time>
      </trkpt>
      <trkpt lat="45.49126" lon="6.71577">
        <ele>2415.2</ele>
        <time>2021-08-15T10:48:26Z</time>
      </trkpt>
      <trkpt lat="45.49126" lon="6.71577">
        <ele>2415.2</ele>
        <time>2021-08-15T10:48:27Z</time>
      </trkpt>
      <trkpt lat="45.49125" lon="6.71577">
        <ele>2415.1</ele>
        <time>2021-08-15T10:48:28Z</time>
      </trkpt>
      <trkpt lat="45.49125" lon="6.71576">
        <ele>2415.1</ele>
        <time>2021-08-15T10:48:29Z</time>
      </trkpt>
      <trkpt lat="45.49125" lon="6.71576">
        <ele>2415.1</ele>
        <time>2021-08-15T10:48:30Z</time>
      </trkpt>
      <trkpt lat="45.49124" lon="6.71576">
        <ele>2415</ele>
        <time>2021-08-15T10:48:31Z</time>
      </trkpt>
      <trkpt lat="45.49124" lon="6.71576">
        <ele>2415</ele>
        <time>2021-08-15T10:48:32Z</time>
      </trkpt>
      <trkpt lat="45.49124" lon="6.71575">
        <ele>2415</ele>
        <time>2021-08-15T10:48:33Z</time>
      </trkpt>
      <trkpt lat="45.49124" lon="6.71575">
        <ele>2415</ele>
        <time>2021-08-15T10:48:34Z</time>
      </trkpt>
      <trkpt lat="45.49124" lon="6.71575">
        <ele>2415</ele>
        <time>2021-08-15T10:48:35Z</time>
      </trkpt>
      <trkpt lat="45.49124" lon="6.71575">
        <ele>2415</ele>
        <time>2021-08-15T10:48:36Z</time>
      </trkpt>
      <trkpt lat="45.49124" lon="6.71575">
        <ele>2415</ele>
        <time>2021-08-15T10:48:37Z</time>
      </trkpt>
      <trkpt lat="45.49124" lon="6.71575">
        <ele>2415</ele>
        <time>2021-08-15T10:48:38Z</time>
      </trkpt>
      <trkpt lat="45.49124" lon="6.71575">
        <ele>2415</ele>
        <time>2021-08-15T10:48:39Z</time>
      </trkpt>
      <trkpt lat="45.49124" lon="6.71575">
        <ele>2415</ele>
        <time>2021-08-15T10:48:40Z</time>
      </trkpt>
      <trkpt lat="45.49124" lon="6.71575">
        <ele>2415</ele>
        <time>2021-08-15T10:48:41Z</time>
      </trkpt>
      <trkpt lat="45.49124" lon="6.71575">
        <ele>2414.9</ele>
        <time>2021-08-15T10:48:42Z</time>
      </trkpt>
      <trkpt lat="45.49123" lon="6.71575">
        <ele>2414.9</ele>
        <time>2021-08-15T10:48:43Z</time>
      </trkpt>
      <trkpt lat="45.49123" lon="6.71574">
        <ele>2414.9</ele>
        <time>2021-08-15T10:48:44Z</time>
      </trkpt>
      <trkpt lat="45.49123" lon="6.71574">
        <ele>2414.8</ele>
        <time>2021-08-15T10:48:45Z</time>
      </trkpt>
      <trkpt lat="45.49122" lon="6.71573">
        <ele>2414.8</ele>
        <time>2021-08-15T10:48:46Z</time>
      </trkpt>
      <trkpt lat="45.49122" lon="6.71572">
        <ele>2414.7</ele>
        <time>2021-08-15T10:48:47Z</time>
      </trkpt>
      <trkpt lat="45.49121" lon="6.71572">
        <ele>2414.6</ele>
        <time>2021-08-15T10:48:48Z</time>
      </trkpt>
      <trkpt lat="45.4912" lon="6.71571">
        <ele>2414.6</ele>
        <time>2021-08-15T10:48:49Z</time>
      </trkpt>
      <trkpt lat="45.49119" lon="6.7157">
        <ele>2414.5</ele>
        <time>2021-08-15T10:48:50Z</time>
      </trkpt>
      <trkpt lat="45.49119" lon="6.71569">
        <ele>2414.4</ele>
        <time>2021-08-15T10:48:51Z</time>
      </trkpt>
      <trkpt lat="45.49118" lon="6.71568">
        <ele>2414.3</ele>
        <time>2021-08-15T10:48:52Z</time>
      </trkpt>
      <trkpt lat="45.49117" lon="6.71567">
        <ele>2414.2</ele>
        <time>2021-08-15T10:48:53Z</time>
      </trkpt>
      <trkpt lat="45.49116" lon="6.71566">
        <ele>2414.2</ele>
        <time>2021-08-15T10:48:54Z</time>
      </trkpt>
      <trkpt lat="45.49116" lon="6.71566">
        <ele>2414.1</ele>
        <time>2021-08-15T10:48:55Z</time>
      </trkpt>
      <trkpt lat="45.49115" lon="6.71565">
        <ele>2414</ele>
        <time>2021-08-15T10:48:56Z</time>
      </trkpt>
      <trkpt lat="45.49114" lon="6.71564">
        <ele>2413.9</ele>
        <time>2021-08-15T10:48:57Z</time>
      </trkpt>
      <trkpt lat="45.49114" lon="6.71563">
        <ele>2413.9</ele>
        <time>2021-08-15T10:48:58Z</time>
      </trkpt>
      <trkpt lat="45.49113" lon="6.71562">
        <ele>2413.8</ele>
        <time>2021-08-15T10:48:59Z</time>
      </trkpt>
      <trkpt lat="45.49112" lon="6.71561">
        <ele>2413.7</ele>
        <time>2021-08-15T10:49:00Z</time>
      </trkpt>
      <trkpt lat="45.49112" lon="6.71561">
        <ele>2413.7</ele>
        <time>2021-08-15T10:49:01Z</time>
      </trkpt>
      <trkpt lat="45.49111" lon="6.7156">
        <ele>2413.6</ele>
        <time>2021-08-15T10:49:02Z</time>
      </trkpt>
      <trkpt lat="45.49111" lon="6.71559">
        <ele>2413.5</ele>
        <time>2021-08-15T10:49:03Z</time>
      </trkpt>
      <trkpt lat="45.4911" lon="6.71558">
        <ele>2413.5</ele>
        <time>2021-08-15T10:49:04Z</time>
      </trkpt>
      <trkpt lat="45.49109" lon="6.71558">
        <ele>2413.4</ele>
        <time>2021-08-15T10:49:05Z</time>
      </trkpt>
      <trkpt lat="45.49109" lon="6.71557">
        <ele>2413.4</ele>
        <time>2021-08-15T10:49:06Z</time>
      </trkpt>
      <trkpt lat="45.49108" lon="6.71556">
        <ele>2413.3</ele>
        <time>2021-08-15T10:49:07Z</time>
      </trkpt>
      <trkpt lat="45.49108" lon="6.71555">
        <ele>2413.3</ele>
        <time>2021-08-15T10:49:08Z</time>
      </trkpt>
      <trkpt lat="45.49107" lon="6.71555">
        <ele>2413.2</ele>
        <time>2021-08-15T10:49:09Z</time>
      </trkpt>
      <trkpt lat="45.49106" lon="6.71554">
        <ele>2413.2</ele>
        <time>2021-08-15T10:49:10Z</time>
      </trkpt>
      <trkpt lat="45.49106" lon="6.71553">
        <ele>2413.1</ele>
        <time>2021-08-15T10:49:11Z</time>
      </trkpt>
      <trkpt lat="45.49105" lon="6.71552">
        <ele>2413.1</ele>
        <time>2021-08-15T10:49:12Z</time>
      </trkpt>
      <trkpt lat="45.49104" lon="6.71551">
        <ele>2413</ele>
        <time>2021-08-15T10:49:13Z</time>
      </trkpt>
      <trkpt lat="45.49104" lon="6.7155">
        <ele>2413</ele>
        <time>2021-08-15T10:49:14Z</time>
      </trkpt>
      <trkpt lat="45.49103" lon="6.7155">
        <ele>2413</ele>
        <time>2021-08-15T10:49:15Z</time>
      </trkpt>
      <trkpt lat="45.49102" lon="6.71549">
        <ele>2412.9</ele>
        <time>2021-08-15T10:49:16Z</time>
      </trkpt>
      <trkpt lat="45.49102" lon="6.71548">
        <ele>2412.9</ele>
        <time>2021-08-15T10:49:17Z</time>
      </trkpt>
      <trkpt lat="45.49101" lon="6.71547">
        <ele>2412.8</ele>
        <time>2021-08-15T10:49:18Z</time>
      </trkpt>
      <trkpt lat="45.491" lon="6.71546">
        <ele>2412.8</ele>
        <time>2021-08-15T10:49:19Z</time>
      </trkpt>
      <trkpt lat="45.49099" lon="6.71545">
        <ele>2412.7</ele>
        <time>2021-08-15T10:49:20Z</time>
      </trkpt>
      <trkpt lat="45.49099" lon="6.71544">
        <ele>2412.7</ele>
        <time>2021-08-15T10:49:21Z</time>
      </trkpt>
      <trkpt lat="45.49098" lon="6.71543">
        <ele>2412.7</ele>
        <time>2021-08-15T10:49:22Z</time>
      </trkpt>
      <trkpt lat="45.49097" lon="6.71542">
        <ele>2412.6</ele>
        <time>2021-08-15T10:49:23Z</time>
      </trkpt>
      <trkpt lat="45.49096" lon="6.71541">
        <ele>2412.6</ele>
        <time>2021-08-15T10:49:24Z</time>
      </trkpt>
      <trkpt lat="45.49095" lon="6.7154">
        <ele>2412.5</ele>
        <time>2021-08-15T10:49:25Z</time>
      </trkpt>
      <trkpt lat="45.49095" lon="6.71539">
        <ele>2412.5</ele>
        <time>2021-08-15T10:49:26Z</time>
      </trkpt>
      <trkpt lat="45.49094" lon="6.71538">
        <ele>2412.4</ele>
        <time>2021-08-15T10:49:27Z</time>
      </trkpt>
      <trkpt lat="45.49093" lon="6.71537">
        <ele>2412.4</ele>
        <time>2021-08-15T10:49:28Z</time>
      </trkpt>
      <trkpt lat="45.49092" lon="6.71536">
        <ele>2412.3</ele>
        <time>2021-08-15T10:49:29Z</time>
      </trkpt>
      <trkpt lat="45.49091" lon="6.71535">
        <ele>2412.3</ele>
        <time>2021-08-15T10:49:30Z</time>
      </trkpt>
      <trkpt lat="45.49091" lon="6.71534">
        <ele>2412.2</ele>
        <time>2021-08-15T10:49:31Z</time>
      </trkpt>
      <trkpt lat="45.4909" lon="6.71533">
        <ele>2412.1</ele>
        <time>2021-08-15T10:49:32Z</time>
      </trkpt>
      <trkpt lat="45.49089" lon="6.71531">
        <ele>2412</ele>
        <time>2021-08-15T10:49:33Z</time>
      </trkpt>
      <trkpt lat="45.49088" lon="6.7153">
        <ele>2411.9</ele>
        <time>2021-08-15T10:49:34Z</time>
      </trkpt>
      <trkpt lat="45.49088" lon="6.71529">
        <ele>2411.8</ele>
        <time>2021-08-15T10:49:35Z</time>
      </trkpt>
      <trkpt lat="45.49087" lon="6.71528">
        <ele>2411.7</ele>
        <time>2021-08-15T10:49:36Z</time>
      </trkpt>
      <trkpt lat="45.49086" lon="6.71527">
        <ele>2411.5</ele>
        <time>2021-08-15T10:49:37Z</time>
      </trkpt>
      <trkpt lat="45.49086" lon="6.71526">
        <ele>2411.4</ele>
        <time>2021-08-15T10:49:38Z</time>
      </trkpt>
      <trkpt lat="45.49085" lon="6.71525">
        <ele>2411.3</ele>
        <time>2021-08-15T10:49:39Z</time>
      </trkpt>
      <trkpt lat="45.49084" lon="6.71524">
        <ele>2411.1</ele>
        <time>2021-08-15T10:49:40Z</time>
      </trkpt>
      <trkpt lat="45.49084" lon="6.71523">
        <ele>2410.9</ele>
        <time>2021-08-15T10:49:41Z</time>
      </trkpt>
      <trkpt lat="45.49083" lon="6.71522">
        <ele>2410.8</ele>
        <time>2021-08-15T10:49:42Z</time>
      </trkpt>
      <trkpt lat="45.49083" lon="6.71521">
        <ele>2410.6</ele>
        <time>2021-08-15T10:49:43Z</time>
      </trkpt>
      <trkpt lat="45.49082" lon="6.71521">
        <ele>2410.5</ele>
        <time>2021-08-15T10:49:44Z</time>
      </trkpt>
      <trkpt lat="45.49082" lon="6.7152">
        <ele>2410.4</ele>
        <time>2021-08-15T10:49:45Z</time>
      </trkpt>
      <trkpt lat="45.49082" lon="6.71519">
        <ele>2410.3</ele>
        <time>2021-08-15T10:49:46Z</time>
      </trkpt>
      <trkpt lat="45.49081" lon="6.71519">
        <ele>2410.2</ele>
        <time>2021-08-15T10:49:47Z</time>
      </trkpt>
      <trkpt lat="45.49081" lon="6.71518">
        <ele>2410</ele>
        <time>2021-08-15T10:49:48Z</time>
      </trkpt>
      <trkpt lat="45.49081" lon="6.71518">
        <ele>2409.9</ele>
        <time>2021-08-15T10:49:49Z</time>
      </trkpt>
      <trkpt lat="45.4908" lon="6.71518">
        <ele>2409.9</ele>
        <time>2021-08-15T10:49:50Z</time>
      </trkpt>
      <trkpt lat="45.4908" lon="6.71517">
        <ele>2409.8</ele>
        <time>2021-08-15T10:49:51Z</time>
      </trkpt>
      <trkpt lat="45.4908" lon="6.71517">
        <ele>2409.8</ele>
        <time>2021-08-15T10:49:52Z</time>
      </trkpt>
      <trkpt lat="45.4908" lon="6.71517">
        <ele>2409.7</ele>
        <time>2021-08-15T10:49:53Z</time>
      </trkpt>
      <trkpt lat="45.4908" lon="6.71517">
        <ele>2409.7</ele>
        <time>2021-08-15T10:49:54Z</time>
      </trkpt>
      <trkpt lat="45.4908" lon="6.71517">
        <ele>2409.7</ele>
        <time>2021-08-15T10:49:55Z</time>
      </trkpt>
      <trkpt lat="45.4908" lon="6.71517">
        <ele>2409.7</ele>
        <time>2021-08-15T10:49:56Z</time>
      </trkpt>
      <trkpt lat="45.4908" lon="6.71517">
        <ele>2409.7</ele>
        <time>2021-08-15T10:49:57Z</time>
      </trkpt>
      <trkpt lat="45.4908" lon="6.71517">
        <ele>2409.7</ele>
        <time>2021-08-15T10:49:58Z</time>
      </trkpt>
      <trkpt lat="45.4908" lon="6.71517">
        <ele>2409.6</ele>
        <time>2021-08-15T10:49:59Z</time>
      </trkpt>
      <trkpt lat="45.4908" lon="6.71517">
        <ele>2409.6</ele>
        <time>2021-08-15T10:50:00Z</time>
      </trkpt>
      <trkpt lat="45.4908" lon="6.71517">
        <ele>2409.6</ele>
        <time>2021-08-15T10:50:01Z</time>
      </trkpt>
      <trkpt lat="45.4908" lon="6.71516">
        <ele>2409.6</ele>
        <time>2021-08-15T10:50:02Z</time>
      </trkpt>
      <trkpt lat="45.4908" lon="6.71516">
        <ele>2409.6</ele>
        <time>2021-08-15T10:50:03Z</time>
      </trkpt>
      <trkpt lat="45.4908" lon="6.71516">
        <ele>2409.6</ele>
        <time>2021-08-15T10:50:04Z</time>
      </trkpt>
      <trkpt lat="45.4908" lon="6.71516">
        <ele>2409.6</ele>
        <time>2021-08-15T10:50:05Z</time>
      </trkpt>
      <trkpt lat="45.4908" lon="6.71516">
        <ele>2409.6</ele>
        <time>2021-08-15T10:50:06Z</time>
      </trkpt>
      <trkpt lat="45.4908" lon="6.71516">
        <ele>2409.5</ele>
        <time>2021-08-15T10:50:07Z</time>
      </trkpt>
      <trkpt lat="45.4908" lon="6.71516">
        <ele>2409.5</ele>
        <time>2021-08-15T10:50:08Z</time>
      </trkpt>
      <trkpt lat="45.4908" lon="6.71516">
        <ele>2409.5</ele>
        <time>2021-08-15T10:50:09Z</time>
      </trkpt>
      <trkpt lat="45.4908" lon="6.71516">
        <ele>2409.5</ele>
        <time>2021-08-15T10:50:10Z</time>
      </trkpt>
      <trkpt lat="45.4908" lon="6.71516">
        <ele>2409.5</ele>
        <time>2021-08-15T10:50:11Z</time>
      </trkpt>
      <trkpt lat="45.4908" lon="6.71516">
        <ele>2409.5</ele>
        <time>2021-08-15T10:50:12Z</time>
      </trkpt>
      <trkpt lat="45.4908" lon="6.71516">
        <ele>2409.5</ele>
        <time>2021-08-15T10:50:13Z</time>
      </trkpt>
      <trkpt lat="45.4908" lon="6.71516">
        <ele>2409.5</ele>
        <time>2021-08-15T10:50:14Z</time>
      </trkpt>
      <trkpt lat="45.4908" lon="6.71516">
        <ele>2409.5</ele>
        <time>2021-08-15T10:50:15Z</time>
      </trkpt>
      <trkpt lat="45.4908" lon="6.71516">
        <ele>2409.5</ele>
        <time>2021-08-15T10:50:16Z</time>
      </trkpt>
      <trkpt lat="45.4908" lon="6.71516">
        <ele>2409.5</ele>
        <time>2021-08-15T10:50:17Z</time>
      </trkpt>
      <trkpt lat="45.4908" lon="6.71516">
        <ele>2409.4</ele>
        <time>2021-08-15T10:50:18Z</time>
      </trkpt>
      <trkpt lat="45.4908" lon="6.71516">
        <ele>2409.4</ele>
        <time>2021-08-15T10:50:19Z</time>
      </trkpt>
      <trkpt lat="45.4908" lon="6.71516">
        <ele>2409.4</ele>
        <time>2021-08-15T10:50:20Z</time>
      </trkpt>
      <trkpt lat="45.4908" lon="6.71516">
        <ele>2409.4</ele>
        <time>2021-08-15T10:50:21Z</time>
      </trkpt>
      <trkpt lat="45.4908" lon="6.71516">
        <ele>2409.4</ele>
        <time>2021-08-15T10:50:22Z</time>
      </trkpt>
      <trkpt lat="45.4908" lon="6.71516">
        <ele>2409.4</ele>
        <time>2021-08-15T10:50:23Z</time>
      </trkpt>
      <trkpt lat="45.4908" lon="6.71516">
        <ele>2409.4</ele>
        <time>2021-08-15T10:50:24Z</time>
      </trkpt>
      <trkpt lat="45.4908" lon="6.71516">
        <ele>2409.4</ele>
        <time>2021-08-15T10:50:25Z</time>
      </trkpt>
      <trkpt lat="45.4908" lon="6.71516">
        <ele>2409.4</ele>
        <time>2021-08-15T10:50:26Z</time>
      </trkpt>
      <trkpt lat="45.4908" lon="6.71516">
        <ele>2409.4</ele>
        <time>2021-08-15T10:50:27Z</time>
      </trkpt>
      <trkpt lat="45.4908" lon="6.71516">
        <ele>2409.4</ele>
        <time>2021-08-15T10:50:28Z</time>
      </trkpt>
      <trkpt lat="45.4908" lon="6.71516">
        <ele>2409.4</ele>
        <time>2021-08-15T10:50:29Z</time>
      </trkpt>
      <trkpt lat="45.4908" lon="6.71516">
        <ele>2409.4</ele>
        <time>2021-08-15T10:50:30Z</time>
      </trkpt>
      <trkpt lat="45.4908" lon="6.71516">
        <ele>2409.4</ele>
        <time>2021-08-15T10:50:31Z</time>
      </trkpt>
      <trkpt lat="45.4908" lon="6.71516">
        <ele>2409.4</ele>
        <time>2021-08-15T10:50:32Z</time>
      </trkpt>
      <trkpt lat="45.4908" lon="6.71516">
        <ele>2409.4</ele>
        <time>2021-08-15T10:50:33Z</time>
      </trkpt>
      <trkpt lat="45.4908" lon="6.71516">
        <ele>2409.4</ele>
        <time>2021-08-15T10:50:34Z</time>
      </trkpt>
      <trkpt lat="45.4908" lon="6.71516">
        <ele>2409.4</ele>
        <time>2021-08-15T10:50:35Z</time>
      </trkpt>
      <trkpt lat="45.4908" lon="6.71516">
        <ele>2409.4</ele>
        <time>2021-08-15T10:50:36Z</time>
      </trkpt>
      <trkpt lat="45.4908" lon="6.71516">
        <ele>2409.4</ele>
        <time>2021-08-15T10:50:37Z</time>
      </trkpt>
      <trkpt lat="45.4908" lon="6.71516">
        <ele>2409.4</ele>
        <time>2021-08-15T10:50:38Z</time>
      </trkpt>
      <trkpt lat="45.4908" lon="6.71516">
        <ele>2409.4</ele>
        <time>2021-08-15T10:50:39Z</time>
      </trkpt>
      <trkpt lat="45.4908" lon="6.71516">
        <ele>2409.4</ele>
        <time>2021-08-15T10:50:40Z</time>
      </trkpt>
      <trkpt lat="45.4908" lon="6.71516">
        <ele>2409.4</ele>
        <time>2021-08-15T10:50:41Z</time>
      </trkpt>
      <trkpt lat="45.4908" lon="6.71516">
        <ele>2409.4</ele>
        <time>2021-08-15T10:50:42Z</time>
      </trkpt>
      <trkpt lat="45.4908" lon="6.71516">
        <ele>2409.4</ele>
        <time>2021-08-15T10:50:43Z</time>
      </trkpt>
      <trkpt lat="45.4908" lon="6.71516">
        <ele>2409.4</ele>
        <time>2021-08-15T10:50:44Z</time>
      </trkpt>
      <trkpt lat="45.4908" lon="6.71516">
        <ele>2409.4</ele>
        <time>2021-08-15T10:50:45Z</time>
      </trkpt>
      <trkpt lat="45.4908" lon="6.71516">
        <ele>2409.4</ele>
        <time>2021-08-15T10:50:46Z</time>
      </trkpt>
      <trkpt lat="45.4908" lon="6.71516">
        <ele>2409.4</ele>
        <time>2021-08-15T10:50:47Z</time>
      </trkpt>
      <trkpt lat="45.4908" lon="6.71516">
        <ele>2409.4</ele>
        <time>2021-08-15T10:50:48Z</time>
      </trkpt>
      <trkpt lat="45.4908" lon="6.71516">
        <ele>2409.4</ele>
        <time>2021-08-15T10:50:49Z</time>
      </trkpt>
      <trkpt lat="45.4908" lon="6.71516">
        <ele>2409.4</ele>
        <time>2021-08-15T10:50:50Z</time>
      </trkpt>
      <trkpt lat="45.4908" lon="6.71516">
        <ele>2409.4</ele>
        <time>2021-08-15T10:50:51Z</time>
      </trkpt>
      <trkpt lat="45.4908" lon="6.71516">
        <ele>2409.4</ele>
        <time>2021-08-15T10:50:52Z</time>
      </trkpt>
      <trkpt lat="45.4908" lon="6.71516">
        <ele>2409.4</ele>
        <time>2021-08-15T10:50:53Z</time>
      </trkpt>
      <trkpt lat="45.4908" lon="6.71516">
        <ele>2409.4</ele>
        <time>2021-08-15T10:50:54Z</time>
      </trkpt>
      <trkpt lat="45.4908" lon="6.71516">
        <ele>2409.4</ele>
        <time>2021-08-15T10:50:55Z</time>
      </trkpt>
      <trkpt lat="45.4908" lon="6.71516">
        <ele>2409.4</ele>
        <time>2021-08-15T10:50:56Z</time>
      </trkpt>
      <trkpt lat="45.4908" lon="6.71516">
        <ele>2409.4</ele>
        <time>2021-08-15T10:50:57Z</time>
      </trkpt>
      <trkpt lat="45.4908" lon="6.71516">
        <ele>2409.4</ele>
        <time>2021-08-15T10:50:58Z</time>
      </trkpt>
      <trkpt lat="45.4908" lon="6.71516">
        <ele>2409.4</ele>
        <time>2021-08-15T10:50:59Z</time>
      </trkpt>
      <trkpt lat="45.4908" lon="6.71516">
        <ele>2409.4</ele>
        <time>2021-08-15T10:51:00Z</time>
      </trkpt>
      <trkpt lat="45.4908" lon="6.71516">
        <ele>2409.4</ele>
        <time>2021-08-15T10:51:01Z</time>
      </trkpt>
      <trkpt lat="45.4908" lon="6.71516">
        <ele>2409.4</ele>
        <time>2021-08-15T10:51:02Z</time>
      </trkpt>
      <trkpt lat="45.4908" lon="6.71516">
        <ele>2409.4</ele>
        <time>2021-08-15T10:51:03Z</time>
      </trkpt>
      <trkpt lat="45.4908" lon="6.71516">
        <ele>2409.4</ele>
        <time>2021-08-15T10:51:04Z</time>
      </trkpt>
      <trkpt lat="45.4908" lon="6.71516">
        <ele>2409.4</ele>
        <time>2021-08-15T10:51:05Z</time>
      </trkpt>
      <trkpt lat="45.4908" lon="6.71516">
        <ele>2409.4</ele>
        <time>2021-08-15T10:51:06Z</time>
      </trkpt>
      <trkpt lat="45.4908" lon="6.71516">
        <ele>2409.4</ele>
        <time>2021-08-15T10:51:07Z</time>
      </trkpt>
      <trkpt lat="45.4908" lon="6.71516">
        <ele>2409.4</ele>
        <time>2021-08-15T10:51:08Z</time>
      </trkpt>
      <trkpt lat="45.4908" lon="6.71516">
        <ele>2409.4</ele>
        <time>2021-08-15T10:51:09Z</time>
      </trkpt>
      <trkpt lat="45.4908" lon="6.71516">
        <ele>2409.4</ele>
        <time>2021-08-15T10:51:10Z</time>
      </trkpt>
      <trkpt lat="45.4908" lon="6.71516">
        <ele>2409.4</ele>
        <time>2021-08-15T10:51:11Z</time>
      </trkpt>
      <trkpt lat="45.4908" lon="6.71516">
        <ele>2409.4</ele>
        <time>2021-08-15T10:51:12Z</time>
      </trkpt>
      <trkpt lat="45.4908" lon="6.71516">
        <ele>2409.4</ele>
        <time>2021-08-15T10:51:13Z</time>
      </trkpt>
      <trkpt lat="45.4908" lon="6.71516">
        <ele>2409.4</ele>
        <time>2021-08-15T10:51:14Z</time>
      </trkpt>
      <trkpt lat="45.4908" lon="6.71516">
        <ele>2409.4</ele>
        <time>2021-08-15T10:51:15Z</time>
      </trkpt>
      <trkpt lat="45.4908" lon="6.71516">
        <ele>2409.4</ele>
        <time>2021-08-15T10:51:16Z</time>
      </trkpt>
      <trkpt lat="45.4908" lon="6.71516">
        <ele>2409.3</ele>
        <time>2021-08-15T10:51:17Z</time>
      </trkpt>
      <trkpt lat="45.4908" lon="6.71516">
        <ele>2409.3</ele>
        <time>2021-08-15T10:51:18Z</time>
      </trkpt>
      <trkpt lat="45.4908" lon="6.71516">
        <ele>2409.3</ele>
        <time>2021-08-15T10:51:19Z</time>
      </trkpt>
      <trkpt lat="45.4908" lon="6.71516">
        <ele>2409.3</ele>
        <time>2021-08-15T10:51:20Z</time>
      </trkpt>
      <trkpt lat="45.4908" lon="6.71516">
        <ele>2409.3</ele>
        <time>2021-08-15T10:51:21Z</time>
      </trkpt>
      <trkpt lat="45.4908" lon="6.71516">
        <ele>2409.3</ele>
        <time>2021-08-15T10:51:22Z</time>
      </trkpt>
      <trkpt lat="45.4908" lon="6.71516">
        <ele>2409.3</ele>
        <time>2021-08-15T10:51:23Z</time>
      </trkpt>
      <trkpt lat="45.4908" lon="6.71516">
        <ele>2409.3</ele>
        <time>2021-08-15T10:51:24Z</time>
      </trkpt>
      <trkpt lat="45.4908" lon="6.71517">
        <ele>2409.3</ele>
        <time>2021-08-15T10:51:25Z</time>
      </trkpt>
      <trkpt lat="45.4908" lon="6.71517">
        <ele>2409.3</ele>
        <time>2021-08-15T10:51:26Z</time>
      </trkpt>
      <trkpt lat="45.4908" lon="6.71517">
        <ele>2409.2</ele>
        <time>2021-08-15T10:51:27Z</time>
      </trkpt>
      <trkpt lat="45.4908" lon="6.71517">
        <ele>2409.2</ele>
        <time>2021-08-15T10:51:28Z</time>
      </trkpt>
      <trkpt lat="45.4908" lon="6.71517">
        <ele>2409.2</ele>
        <time>2021-08-15T10:51:29Z</time>
      </trkpt>
      <trkpt lat="45.4908" lon="6.71517">
        <ele>2409.2</ele>
        <time>2021-08-15T10:51:30Z</time>
      </trkpt>
      <trkpt lat="45.4908" lon="6.71517">
        <ele>2409.2</ele>
        <time>2021-08-15T10:51:31Z</time>
      </trkpt>
      <trkpt lat="45.4908" lon="6.71517">
        <ele>2409.2</ele>
        <time>2021-08-15T10:51:32Z</time>
      </trkpt>
      <trkpt lat="45.4908" lon="6.71517">
        <ele>2409.2</ele>
        <time>2021-08-15T10:51:33Z</time>
      </trkpt>
      <trkpt lat="45.4908" lon="6.71517">
        <ele>2409.2</ele>
        <time>2021-08-15T10:51:34Z</time>
      </trkpt>
      <trkpt lat="45.4908" lon="6.71517">
        <ele>2409.2</ele>
        <time>2021-08-15T10:51:35Z</time>
      </trkpt>
      <trkpt lat="45.4908" lon="6.71517">
        <ele>2409.2</ele>
        <time>2021-08-15T10:51:36Z</time>
      </trkpt>
      <trkpt lat="45.4908" lon="6.71517">
        <ele>2409.2</ele>
        <time>2021-08-15T10:51:37Z</time>
      </trkpt>
      <trkpt lat="45.4908" lon="6.71517">
        <ele>2409.2</ele>
        <time>2021-08-15T10:51:38Z</time>
      </trkpt>
      <trkpt lat="45.4908" lon="6.71517">
        <ele>2409.2</ele>
        <time>2021-08-15T10:51:39Z</time>
      </trkpt>
      <trkpt lat="45.4908" lon="6.71517">
        <ele>2409.2</ele>
        <time>2021-08-15T10:51:40Z</time>
      </trkpt>
      <trkpt lat="45.4908" lon="6.71517">
        <ele>2409.2</ele>
        <time>2021-08-15T10:51:41Z</time>
      </trkpt>
      <trkpt lat="45.4908" lon="6.71517">
        <ele>2409.2</ele>
        <time>2021-08-15T10:51:42Z</time>
      </trkpt>
      <trkpt lat="45.4908" lon="6.71517">
        <ele>2409.2</ele>
        <time>2021-08-15T10:51:43Z</time>
      </trkpt>
      <trkpt lat="45.4908" lon="6.71517">
        <ele>2409.2</ele>
        <time>2021-08-15T10:51:44Z</time>
      </trkpt>
      <trkpt lat="45.4908" lon="6.71517">
        <ele>2409.1</ele>
        <time>2021-08-15T10:51:45Z</time>
      </trkpt>
      <trkpt lat="45.4908" lon="6.71517">
        <ele>2409.1</ele>
        <time>2021-08-15T10:51:46Z</time>
      </trkpt>
      <trkpt lat="45.4908" lon="6.71517">
        <ele>2409.1</ele>
        <time>2021-08-15T10:51:47Z</time>
      </trkpt>
      <trkpt lat="45.4908" lon="6.71517">
        <ele>2409.1</ele>
        <time>2021-08-15T10:51:48Z</time>
      </trkpt>
      <trkpt lat="45.4908" lon="6.71517">
        <ele>2409.1</ele>
        <time>2021-08-15T10:51:49Z</time>
      </trkpt>
      <trkpt lat="45.4908" lon="6.71517">
        <ele>2409.1</ele>
        <time>2021-08-15T10:51:50Z</time>
      </trkpt>
      <trkpt lat="45.4908" lon="6.71517">
        <ele>2409.1</ele>
        <time>2021-08-15T10:51:51Z</time>
      </trkpt>
      <trkpt lat="45.4908" lon="6.71517">
        <ele>2409.1</ele>
        <time>2021-08-15T10:51:52Z</time>
      </trkpt>
      <trkpt lat="45.4908" lon="6.71517">
        <ele>2409.1</ele>
        <time>2021-08-15T10:51:53Z</time>
      </trkpt>
      <trkpt lat="45.4908" lon="6.71517">
        <ele>2409.1</ele>
        <time>2021-08-15T10:51:54Z</time>
      </trkpt>
      <trkpt lat="45.4908" lon="6.71517">
        <ele>2409.1</ele>
        <time>2021-08-15T10:51:55Z</time>
      </trkpt>
      <trkpt lat="45.4908" lon="6.71517">
        <ele>2409.1</ele>
        <time>2021-08-15T10:51:56Z</time>
      </trkpt>
      <trkpt lat="45.4908" lon="6.71517">
        <ele>2409.1</ele>
        <time>2021-08-15T10:51:57Z</time>
      </trkpt>
      <trkpt lat="45.4908" lon="6.71517">
        <ele>2409.1</ele>
        <time>2021-08-15T10:51:58Z</time>
      </trkpt>
      <trkpt lat="45.4908" lon="6.71517">
        <ele>2409.1</ele>
        <time>2021-08-15T10:51:59Z</time>
      </trkpt>
      <trkpt lat="45.4908" lon="6.71517">
        <ele>2409.1</ele>
        <time>2021-08-15T10:52:00Z</time>
      </trkpt>
      <trkpt lat="45.4908" lon="6.71517">
        <ele>2409.1</ele>
        <time>2021-08-15T10:52:01Z</time>
      </trkpt>
      <trkpt lat="45.4908" lon="6.71517">
        <ele>2409.1</ele>
        <time>2021-08-15T10:52:02Z</time>
      </trkpt>
      <trkpt lat="45.4908" lon="6.71517">
        <ele>2409.1</ele>
        <time>2021-08-15T10:52:03Z</time>
      </trkpt>
      <trkpt lat="45.4908" lon="6.71517">
        <ele>2409.1</ele>
        <time>2021-08-15T10:52:04Z</time>
      </trkpt>
      <trkpt lat="45.4908" lon="6.71517">
        <ele>2409.1</ele>
        <time>2021-08-15T10:52:05Z</time>
      </trkpt>
      <trkpt lat="45.4908" lon="6.71517">
        <ele>2409.1</ele>
        <time>2021-08-15T10:52:06Z</time>
      </trkpt>
      <trkpt lat="45.4908" lon="6.71517">
        <ele>2409.1</ele>
        <time>2021-08-15T10:52:07Z</time>
      </trkpt>
      <trkpt lat="45.4908" lon="6.71517">
        <ele>2409.1</ele>
        <time>2021-08-15T10:52:08Z</time>
      </trkpt>
      <trkpt lat="45.4908" lon="6.71517">
        <ele>2409.1</ele>
        <time>2021-08-15T10:52:09Z</time>
      </trkpt>
      <trkpt lat="45.4908" lon="6.71517">
        <ele>2409.1</ele>
        <time>2021-08-15T10:52:10Z</time>
      </trkpt>
      <trkpt lat="45.4908" lon="6.71517">
        <ele>2409.1</ele>
        <time>2021-08-15T10:52:11Z</time>
      </trkpt>
      <trkpt lat="45.4908" lon="6.71517">
        <ele>2409.1</ele>
        <time>2021-08-15T10:52:12Z</time>
      </trkpt>
      <trkpt lat="45.4908" lon="6.71517">
        <ele>2409.1</ele>
        <time>2021-08-15T10:52:13Z</time>
      </trkpt>
      <trkpt lat="45.4908" lon="6.71517">
        <ele>2409.1</ele>
        <time>2021-08-15T10:52:14Z</time>
      </trkpt>
      <trkpt lat="45.4908" lon="6.71517">
        <ele>2409.1</ele>
        <time>2021-08-15T10:52:15Z</time>
      </trkpt>
      <trkpt lat="45.4908" lon="6.71517">
        <ele>2409.1</ele>
        <time>2021-08-15T10:52:16Z</time>
      </trkpt>
      <trkpt lat="45.4908" lon="6.71517">
        <ele>2409.1</ele>
        <time>2021-08-15T10:52:17Z</time>
      </trkpt>
      <trkpt lat="45.4908" lon="6.71517">
        <ele>2409.1</ele>
        <time>2021-08-15T10:52:18Z</time>
      </trkpt>
      <trkpt lat="45.4908" lon="6.71517">
        <ele>2409.1</ele>
        <time>2021-08-15T10:52:19Z</time>
      </trkpt>
      <trkpt lat="45.4908" lon="6.71517">
        <ele>2409.1</ele>
        <time>2021-08-15T10:52:20Z</time>
      </trkpt>
      <trkpt lat="45.4908" lon="6.71517">
        <ele>2409</ele>
        <time>2021-08-15T10:52:21Z</time>
      </trkpt>
      <trkpt lat="45.4908" lon="6.71517">
        <ele>2409</ele>
        <time>2021-08-15T10:52:22Z</time>
      </trkpt>
      <trkpt lat="45.49081" lon="6.71517">
        <ele>2409</ele>
        <time>2021-08-15T10:52:23Z</time>
      </trkpt>
      <trkpt lat="45.49081" lon="6.71516">
        <ele>2408.9</ele>
        <time>2021-08-15T10:52:24Z</time>
      </trkpt>
      <trkpt lat="45.49081" lon="6.71516">
        <ele>2408.8</ele>
        <time>2021-08-15T10:52:25Z</time>
      </trkpt>
      <trkpt lat="45.49082" lon="6.71516">
        <ele>2408.6</ele>
        <time>2021-08-15T10:52:26Z</time>
      </trkpt>
      <trkpt lat="45.49082" lon="6.71516">
        <ele>2408.4</ele>
        <time>2021-08-15T10:52:27Z</time>
      </trkpt>
      <trkpt lat="45.49083" lon="6.71516">
        <ele>2408.2</ele>
        <time>2021-08-15T10:52:28Z</time>
      </trkpt>
      <trkpt lat="45.49084" lon="6.71516">
        <ele>2408</ele>
        <time>2021-08-15T10:52:29Z</time>
      </trkpt>
      <trkpt lat="45.49085" lon="6.71515">
        <ele>2407.9</ele>
        <time>2021-08-15T10:52:30Z</time>
      </trkpt>
      <trkpt lat="45.49085" lon="6.71515">
        <ele>2407.7</ele>
        <time>2021-08-15T10:52:31Z</time>
      </trkpt>
      <trkpt lat="45.49086" lon="6.71515">
        <ele>2407.5</ele>
        <time>2021-08-15T10:52:32Z</time>
      </trkpt>
      <trkpt lat="45.49086" lon="6.71515">
        <ele>2407.4</ele>
        <time>2021-08-15T10:52:33Z</time>
      </trkpt>
      <trkpt lat="45.49087" lon="6.71515">
        <ele>2407.3</ele>
        <time>2021-08-15T10:52:34Z</time>
      </trkpt>
      <trkpt lat="45.49087" lon="6.71516">
        <ele>2407.2</ele>
        <time>2021-08-15T10:52:35Z</time>
      </trkpt>
      <trkpt lat="45.49087" lon="6.71516">
        <ele>2407.1</ele>
        <time>2021-08-15T10:52:36Z</time>
      </trkpt>
      <trkpt lat="45.49088" lon="6.71516">
        <ele>2407</ele>
        <time>2021-08-15T10:52:37Z</time>
      </trkpt>
      <trkpt lat="45.49088" lon="6.71516">
        <ele>2406.9</ele>
        <time>2021-08-15T10:52:38Z</time>
      </trkpt>
      <trkpt lat="45.49088" lon="6.71516">
        <ele>2406.8</ele>
        <time>2021-08-15T10:52:39Z</time>
      </trkpt>
      <trkpt lat="45.49088" lon="6.71516">
        <ele>2406.8</ele>
        <time>2021-08-15T10:52:40Z</time>
      </trkpt>
      <trkpt lat="45.49088" lon="6.71516">
        <ele>2406.8</ele>
        <time>2021-08-15T10:52:41Z</time>
      </trkpt>
      <trkpt lat="45.49088" lon="6.71516">
        <ele>2406.7</ele>
        <time>2021-08-15T10:52:42Z</time>
      </trkpt>
      <trkpt lat="45.49088" lon="6.71516">
        <ele>2406.7</ele>
        <time>2021-08-15T10:52:43Z</time>
      </trkpt>
      <trkpt lat="45.49088" lon="6.71516">
        <ele>2406.7</ele>
        <time>2021-08-15T10:52:44Z</time>
      </trkpt>
      <trkpt lat="45.49088" lon="6.71516">
        <ele>2406.7</ele>
        <time>2021-08-15T10:52:45Z</time>
      </trkpt>
      <trkpt lat="45.49089" lon="6.71516">
        <ele>2406.6</ele>
        <time>2021-08-15T10:52:46Z</time>
      </trkpt>
      <trkpt lat="45.49089" lon="6.71516">
        <ele>2406.5</ele>
        <time>2021-08-15T10:52:47Z</time>
      </trkpt>
      <trkpt lat="45.49089" lon="6.71516">
        <ele>2406.4</ele>
        <time>2021-08-15T10:52:48Z</time>
      </trkpt>
      <trkpt lat="45.4909" lon="6.71516">
        <ele>2406.2</ele>
        <time>2021-08-15T10:52:49Z</time>
      </trkpt>
      <trkpt lat="45.4909" lon="6.71516">
        <ele>2406.1</ele>
        <time>2021-08-15T10:52:50Z</time>
      </trkpt>
      <trkpt lat="45.4909" lon="6.71516">
        <ele>2406.1</ele>
        <time>2021-08-15T10:52:51Z</time>
      </trkpt>
      <trkpt lat="45.4909" lon="6.71516">
        <ele>2406.1</ele>
        <time>2021-08-15T10:52:52Z</time>
      </trkpt>
      <trkpt lat="45.4909" lon="6.71516">
        <ele>2406.1</ele>
        <time>2021-08-15T10:52:53Z</time>
      </trkpt>
      <trkpt lat="45.4909" lon="6.71516">
        <ele>2406.1</ele>
        <time>2021-08-15T10:52:54Z</time>
      </trkpt>
      <trkpt lat="45.4909" lon="6.71516">
        <ele>2406.1</ele>
        <time>2021-08-15T10:52:55Z</time>
      </trkpt>
      <trkpt lat="45.49091" lon="6.71516">
        <ele>2406</ele>
        <time>2021-08-15T10:52:56Z</time>
      </trkpt>
      <trkpt lat="45.49091" lon="6.71516">
        <ele>2405.8</ele>
        <time>2021-08-15T10:52:57Z</time>
      </trkpt>
      <trkpt lat="45.49092" lon="6.71516">
        <ele>2405.7</ele>
        <time>2021-08-15T10:52:58Z</time>
      </trkpt>
      <trkpt lat="45.49092" lon="6.71516">
        <ele>2405.5</ele>
        <time>2021-08-15T10:52:59Z</time>
      </trkpt>
      <trkpt lat="45.49093" lon="6.71516">
        <ele>2405.3</ele>
        <time>2021-08-15T10:53:00Z</time>
      </trkpt>
      <trkpt lat="45.49094" lon="6.71517">
        <ele>2405.1</ele>
        <time>2021-08-15T10:53:01Z</time>
      </trkpt>
      <trkpt lat="45.49094" lon="6.71517">
        <ele>2404.9</ele>
        <time>2021-08-15T10:53:02Z</time>
      </trkpt>
      <trkpt lat="45.49095" lon="6.71517">
        <ele>2404.7</ele>
        <time>2021-08-15T10:53:03Z</time>
      </trkpt>
      <trkpt lat="45.49096" lon="6.71518">
        <ele>2404.5</ele>
        <time>2021-08-15T10:53:04Z</time>
      </trkpt>
      <trkpt lat="45.49096" lon="6.71518">
        <ele>2404.3</ele>
        <time>2021-08-15T10:53:05Z</time>
      </trkpt>
      <trkpt lat="45.49097" lon="6.71519">
        <ele>2404.1</ele>
        <time>2021-08-15T10:53:06Z</time>
      </trkpt>
      <trkpt lat="45.49097" lon="6.71519">
        <ele>2404</ele>
        <time>2021-08-15T10:53:07Z</time>
      </trkpt>
      <trkpt lat="45.49098" lon="6.7152">
        <ele>2403.8</ele>
        <time>2021-08-15T10:53:08Z</time>
      </trkpt>
      <trkpt lat="45.49098" lon="6.7152">
        <ele>2403.7</ele>
        <time>2021-08-15T10:53:09Z</time>
      </trkpt>
      <trkpt lat="45.49099" lon="6.7152">
        <ele>2403.6</ele>
        <time>2021-08-15T10:53:10Z</time>
      </trkpt>
      <trkpt lat="45.49099" lon="6.7152">
        <ele>2403.6</ele>
        <time>2021-08-15T10:53:11Z</time>
      </trkpt>
      <trkpt lat="45.49099" lon="6.71521">
        <ele>2403.5</ele>
        <time>2021-08-15T10:53:12Z</time>
      </trkpt>
      <trkpt lat="45.49099" lon="6.71521">
        <ele>2403.5</ele>
        <time>2021-08-15T10:53:13Z</time>
      </trkpt>
      <trkpt lat="45.49099" lon="6.71521">
        <ele>2403.5</ele>
        <time>2021-08-15T10:53:14Z</time>
      </trkpt>
      <trkpt lat="45.49099" lon="6.71521">
        <ele>2403.5</ele>
        <time>2021-08-15T10:53:15Z</time>
      </trkpt>
      <trkpt lat="45.49099" lon="6.71521">
        <ele>2403.4</ele>
        <time>2021-08-15T10:53:16Z</time>
      </trkpt>
      <trkpt lat="45.49099" lon="6.71521">
        <ele>2403.4</ele>
        <time>2021-08-15T10:53:17Z</time>
      </trkpt>
      <trkpt lat="45.491" lon="6.71521">
        <ele>2403.3</ele>
        <time>2021-08-15T10:53:18Z</time>
      </trkpt>
      <trkpt lat="45.491" lon="6.71521">
        <ele>2403.2</ele>
        <time>2021-08-15T10:53:19Z</time>
      </trkpt>
      <trkpt lat="45.491" lon="6.71521">
        <ele>2403.1</ele>
        <time>2021-08-15T10:53:20Z</time>
      </trkpt>
      <trkpt lat="45.49101" lon="6.71521">
        <ele>2402.9</ele>
        <time>2021-08-15T10:53:21Z</time>
      </trkpt>
      <trkpt lat="45.49102" lon="6.71522">
        <ele>2402.7</ele>
        <time>2021-08-15T10:53:22Z</time>
      </trkpt>
      <trkpt lat="45.49103" lon="6.71522">
        <ele>2402.5</ele>
        <time>2021-08-15T10:53:23Z</time>
      </trkpt>
      <trkpt lat="45.49103" lon="6.71522">
        <ele>2402.4</ele>
        <time>2021-08-15T10:53:24Z</time>
      </trkpt>
      <trkpt lat="45.49104" lon="6.71523">
        <ele>2402.2</ele>
        <time>2021-08-15T10:53:25Z</time>
      </trkpt>
      <trkpt lat="45.49104" lon="6.71523">
        <ele>2402.1</ele>
        <time>2021-08-15T10:53:26Z</time>
      </trkpt>
      <trkpt lat="45.49105" lon="6.71523">
        <ele>2402</ele>
        <time>2021-08-15T10:53:27Z</time>
      </trkpt>
      <trkpt lat="45.49105" lon="6.71523">
        <ele>2402</ele>
        <time>2021-08-15T10:53:28Z</time>
      </trkpt>
      <trkpt lat="45.49105" lon="6.71523">
        <ele>2402</ele>
        <time>2021-08-15T10:53:29Z</time>
      </trkpt>
      <trkpt lat="45.49105" lon="6.71523">
        <ele>2401.9</ele>
        <time>2021-08-15T10:53:30Z</time>
      </trkpt>
      <trkpt lat="45.49105" lon="6.71523">
        <ele>2401.9</ele>
        <time>2021-08-15T10:53:31Z</time>
      </trkpt>
      <trkpt lat="45.49105" lon="6.71523">
        <ele>2401.8</ele>
        <time>2021-08-15T10:53:32Z</time>
      </trkpt>
      <trkpt lat="45.49106" lon="6.71523">
        <ele>2401.7</ele>
        <time>2021-08-15T10:53:33Z</time>
      </trkpt>
      <trkpt lat="45.49107" lon="6.71524">
        <ele>2401.5</ele>
        <time>2021-08-15T10:53:34Z</time>
      </trkpt>
      <trkpt lat="45.49107" lon="6.71524">
        <ele>2401.4</ele>
        <time>2021-08-15T10:53:35Z</time>
      </trkpt>
      <trkpt lat="45.49107" lon="6.71524">
        <ele>2401.4</ele>
        <time>2021-08-15T10:53:36Z</time>
      </trkpt>
      <trkpt lat="45.49108" lon="6.71524">
        <ele>2401.3</ele>
        <time>2021-08-15T10:53:37Z</time>
      </trkpt>
      <trkpt lat="45.49108" lon="6.71524">
        <ele>2401.3</ele>
        <time>2021-08-15T10:53:38Z</time>
      </trkpt>
      <trkpt lat="45.49108" lon="6.71524">
        <ele>2401.3</ele>
        <time>2021-08-15T10:53:39Z</time>
      </trkpt>
      <trkpt lat="45.49108" lon="6.71524">
        <ele>2401.3</ele>
        <time>2021-08-15T10:53:40Z</time>
      </trkpt>
      <trkpt lat="45.49108" lon="6.71524">
        <ele>2401.3</ele>
        <time>2021-08-15T10:53:41Z</time>
      </trkpt>
      <trkpt lat="45.49108" lon="6.71524">
        <ele>2401.2</ele>
        <time>2021-08-15T10:53:42Z</time>
      </trkpt>
      <trkpt lat="45.49108" lon="6.71524">
        <ele>2401.2</ele>
        <time>2021-08-15T10:53:43Z</time>
      </trkpt>
      <trkpt lat="45.49108" lon="6.71524">
        <ele>2401.2</ele>
        <time>2021-08-15T10:53:44Z</time>
      </trkpt>
      <trkpt lat="45.49108" lon="6.71524">
        <ele>2401.1</ele>
        <time>2021-08-15T10:53:45Z</time>
      </trkpt>
      <trkpt lat="45.49109" lon="6.71524">
        <ele>2401.1</ele>
        <time>2021-08-15T10:53:46Z</time>
      </trkpt>
      <trkpt lat="45.49109" lon="6.71524">
        <ele>2401</ele>
        <time>2021-08-15T10:53:47Z</time>
      </trkpt>
      <trkpt lat="45.49109" lon="6.71524">
        <ele>2401</ele>
        <time>2021-08-15T10:53:48Z</time>
      </trkpt>
      <trkpt lat="45.4911" lon="6.71524">
        <ele>2400.9</ele>
        <time>2021-08-15T10:53:49Z</time>
      </trkpt>
      <trkpt lat="45.4911" lon="6.71524">
        <ele>2400.8</ele>
        <time>2021-08-15T10:53:50Z</time>
      </trkpt>
      <trkpt lat="45.4911" lon="6.71525">
        <ele>2400.7</ele>
        <time>2021-08-15T10:53:51Z</time>
      </trkpt>
      <trkpt lat="45.49111" lon="6.71525">
        <ele>2400.6</ele>
        <time>2021-08-15T10:53:52Z</time>
      </trkpt>
      <trkpt lat="45.49111" lon="6.71525">
        <ele>2400.6</ele>
        <time>2021-08-15T10:53:53Z</time>
      </trkpt>
      <trkpt lat="45.49111" lon="6.71525">
        <ele>2400.5</ele>
        <time>2021-08-15T10:53:54Z</time>
      </trkpt>
      <trkpt lat="45.49111" lon="6.71525">
        <ele>2400.5</ele>
        <time>2021-08-15T10:53:55Z</time>
      </trkpt>
      <trkpt lat="45.49111" lon="6.71525">
        <ele>2400.5</ele>
        <time>2021-08-15T10:53:56Z</time>
      </trkpt>
      <trkpt lat="45.49111" lon="6.71525">
        <ele>2400.5</ele>
        <time>2021-08-15T10:53:57Z</time>
      </trkpt>
      <trkpt lat="45.49111" lon="6.71525">
        <ele>2400.5</ele>
        <time>2021-08-15T10:53:58Z</time>
      </trkpt>
      <trkpt lat="45.49112" lon="6.71525">
        <ele>2400.4</ele>
        <time>2021-08-15T10:53:59Z</time>
      </trkpt>
      <trkpt lat="45.49112" lon="6.71525">
        <ele>2400.4</ele>
        <time>2021-08-15T10:54:00Z</time>
      </trkpt>
      <trkpt lat="45.49112" lon="6.71525">
        <ele>2400.3</ele>
        <time>2021-08-15T10:54:01Z</time>
      </trkpt>
      <trkpt lat="45.49113" lon="6.71525">
        <ele>2400.2</ele>
        <time>2021-08-15T10:54:02Z</time>
      </trkpt>
      <trkpt lat="45.49113" lon="6.71525">
        <ele>2400.1</ele>
        <time>2021-08-15T10:54:03Z</time>
      </trkpt>
      <trkpt lat="45.49114" lon="6.71525">
        <ele>2400</ele>
        <time>2021-08-15T10:54:04Z</time>
      </trkpt>
      <trkpt lat="45.49114" lon="6.71525">
        <ele>2399.9</ele>
        <time>2021-08-15T10:54:05Z</time>
      </trkpt>
      <trkpt lat="45.49115" lon="6.71526">
        <ele>2399.8</ele>
        <time>2021-08-15T10:54:06Z</time>
      </trkpt>
      <trkpt lat="45.49115" lon="6.71526">
        <ele>2399.6</ele>
        <time>2021-08-15T10:54:07Z</time>
      </trkpt>
      <trkpt lat="45.49116" lon="6.71526">
        <ele>2399.5</ele>
        <time>2021-08-15T10:54:08Z</time>
      </trkpt>
      <trkpt lat="45.49116" lon="6.71526">
        <ele>2399.4</ele>
        <time>2021-08-15T10:54:09Z</time>
      </trkpt>
      <trkpt lat="45.49117" lon="6.71526">
        <ele>2399.3</ele>
        <time>2021-08-15T10:54:10Z</time>
      </trkpt>
      <trkpt lat="45.49117" lon="6.71527">
        <ele>2399.2</ele>
        <time>2021-08-15T10:54:11Z</time>
      </trkpt>
      <trkpt lat="45.49118" lon="6.71527">
        <ele>2399.1</ele>
        <time>2021-08-15T10:54:12Z</time>
      </trkpt>
      <trkpt lat="45.49118" lon="6.71527">
        <ele>2399</ele>
        <time>2021-08-15T10:54:13Z</time>
      </trkpt>
      <trkpt lat="45.49118" lon="6.71528">
        <ele>2398.9</ele>
        <time>2021-08-15T10:54:14Z</time>
      </trkpt>
      <trkpt lat="45.49119" lon="6.71528">
        <ele>2398.8</ele>
        <time>2021-08-15T10:54:15Z</time>
      </trkpt>
      <trkpt lat="45.49119" lon="6.71528">
        <ele>2398.7</ele>
        <time>2021-08-15T10:54:16Z</time>
      </trkpt>
      <trkpt lat="45.49119" lon="6.71528">
        <ele>2398.7</ele>
        <time>2021-08-15T10:54:17Z</time>
      </trkpt>
      <trkpt lat="45.49119" lon="6.71529">
        <ele>2398.6</ele>
        <time>2021-08-15T10:54:18Z</time>
      </trkpt>
      <trkpt lat="45.4912" lon="6.71529">
        <ele>2398.6</ele>
        <time>2021-08-15T10:54:19Z</time>
      </trkpt>
      <trkpt lat="45.4912" lon="6.71529">
        <ele>2398.5</ele>
        <time>2021-08-15T10:54:20Z</time>
      </trkpt>
      <trkpt lat="45.4912" lon="6.71529">
        <ele>2398.5</ele>
        <time>2021-08-15T10:54:21Z</time>
      </trkpt>
      <trkpt lat="45.4912" lon="6.71529">
        <ele>2398.4</ele>
        <time>2021-08-15T10:54:22Z</time>
      </trkpt>
      <trkpt lat="45.49121" lon="6.71529">
        <ele>2398.4</ele>
        <time>2021-08-15T10:54:23Z</time>
      </trkpt>
      <trkpt lat="45.49121" lon="6.71529">
        <ele>2398.4</ele>
        <time>2021-08-15T10:54:24Z</time>
      </trkpt>
      <trkpt lat="45.49121" lon="6.71529">
        <ele>2398.3</ele>
        <time>2021-08-15T10:54:25Z</time>
      </trkpt>
      <trkpt lat="45.49121" lon="6.71529">
        <ele>2398.3</ele>
        <time>2021-08-15T10:54:26Z</time>
      </trkpt>
      <trkpt lat="45.49121" lon="6.71529">
        <ele>2398.3</ele>
        <time>2021-08-15T10:54:27Z</time>
      </trkpt>
      <trkpt lat="45.49121" lon="6.71529">
        <ele>2398.3</ele>
        <time>2021-08-15T10:54:28Z</time>
      </trkpt>
      <trkpt lat="45.49121" lon="6.71529">
        <ele>2398.3</ele>
        <time>2021-08-15T10:54:29Z</time>
      </trkpt>
      <trkpt lat="45.49121" lon="6.71529">
        <ele>2398.3</ele>
        <time>2021-08-15T10:54:30Z</time>
      </trkpt>
      <trkpt lat="45.49121" lon="6.71529">
        <ele>2398.3</ele>
        <time>2021-08-15T10:54:31Z</time>
      </trkpt>
      <trkpt lat="45.49121" lon="6.71529">
        <ele>2398.3</ele>
        <time>2021-08-15T10:54:32Z</time>
      </trkpt>
      <trkpt lat="45.49121" lon="6.71529">
        <ele>2398.3</ele>
        <time>2021-08-15T10:54:33Z</time>
      </trkpt>
      <trkpt lat="45.49121" lon="6.71529">
        <ele>2398.3</ele>
        <time>2021-08-15T10:54:34Z</time>
      </trkpt>
      <trkpt lat="45.49121" lon="6.71529">
        <ele>2398.3</ele>
        <time>2021-08-15T10:54:35Z</time>
      </trkpt>
      <trkpt lat="45.49121" lon="6.71529">
        <ele>2398.3</ele>
        <time>2021-08-15T10:54:36Z</time>
      </trkpt>
      <trkpt lat="45.49121" lon="6.71529">
        <ele>2398.3</ele>
        <time>2021-08-15T10:54:37Z</time>
      </trkpt>
      <trkpt lat="45.49121" lon="6.71529">
        <ele>2398.3</ele>
        <time>2021-08-15T10:54:38Z</time>
      </trkpt>
      <trkpt lat="45.49121" lon="6.71529">
        <ele>2398.3</ele>
        <time>2021-08-15T10:54:39Z</time>
      </trkpt>
      <trkpt lat="45.49121" lon="6.71529">
        <ele>2398.3</ele>
        <time>2021-08-15T10:54:40Z</time>
      </trkpt>
      <trkpt lat="45.49121" lon="6.71529">
        <ele>2398.3</ele>
        <time>2021-08-15T10:54:41Z</time>
      </trkpt>
      <trkpt lat="45.49121" lon="6.71529">
        <ele>2398.3</ele>
        <time>2021-08-15T10:54:42Z</time>
      </trkpt>
      <trkpt lat="45.49121" lon="6.71529">
        <ele>2398.3</ele>
        <time>2021-08-15T10:54:43Z</time>
      </trkpt>
      <trkpt lat="45.49121" lon="6.71529">
        <ele>2398.3</ele>
        <time>2021-08-15T10:54:44Z</time>
      </trkpt>
      <trkpt lat="45.49121" lon="6.71529">
        <ele>2398.3</ele>
        <time>2021-08-15T10:54:45Z</time>
      </trkpt>
      <trkpt lat="45.49121" lon="6.71529">
        <ele>2398.3</ele>
        <time>2021-08-15T10:54:46Z</time>
      </trkpt>
      <trkpt lat="45.49121" lon="6.71529">
        <ele>2398.3</ele>
        <time>2021-08-15T10:54:47Z</time>
      </trkpt>
      <trkpt lat="45.49121" lon="6.71529">
        <ele>2398.3</ele>
        <time>2021-08-15T10:54:48Z</time>
      </trkpt>
      <trkpt lat="45.49121" lon="6.71529">
        <ele>2398.3</ele>
        <time>2021-08-15T10:54:49Z</time>
      </trkpt>
      <trkpt lat="45.49121" lon="6.71529">
        <ele>2398.2</ele>
        <time>2021-08-15T10:54:50Z</time>
      </trkpt>
      <trkpt lat="45.49121" lon="6.71529">
        <ele>2398.2</ele>
        <time>2021-08-15T10:54:51Z</time>
      </trkpt>
      <trkpt lat="45.49122" lon="6.71529">
        <ele>2398.2</ele>
        <time>2021-08-15T10:54:52Z</time>
      </trkpt>
      <trkpt lat="45.49122" lon="6.71529">
        <ele>2398.2</ele>
        <time>2021-08-15T10:54:53Z</time>
      </trkpt>
      <trkpt lat="45.49122" lon="6.71529">
        <ele>2398.1</ele>
        <time>2021-08-15T10:54:54Z</time>
      </trkpt>
      <trkpt lat="45.49122" lon="6.71529">
        <ele>2398.1</ele>
        <time>2021-08-15T10:54:55Z</time>
      </trkpt>
      <trkpt lat="45.49122" lon="6.71529">
        <ele>2398.1</ele>
        <time>2021-08-15T10:54:56Z</time>
      </trkpt>
      <trkpt lat="45.49122" lon="6.71529">
        <ele>2398.1</ele>
        <time>2021-08-15T10:54:57Z</time>
      </trkpt>
      <trkpt lat="45.49122" lon="6.71529">
        <ele>2398.1</ele>
        <time>2021-08-15T10:54:58Z</time>
      </trkpt>
      <trkpt lat="45.49122" lon="6.71529">
        <ele>2398.1</ele>
        <time>2021-08-15T10:54:59Z</time>
      </trkpt>
      <trkpt lat="45.49122" lon="6.71529">
        <ele>2398.1</ele>
        <time>2021-08-15T10:55:00Z</time>
      </trkpt>
      <trkpt lat="45.49122" lon="6.71529">
        <ele>2398.1</ele>
        <time>2021-08-15T10:55:01Z</time>
      </trkpt>
      <trkpt lat="45.49122" lon="6.71529">
        <ele>2398.1</ele>
        <time>2021-08-15T10:55:02Z</time>
      </trkpt>
      <trkpt lat="45.49122" lon="6.71529">
        <ele>2398.1</ele>
        <time>2021-08-15T10:55:03Z</time>
      </trkpt>
      <trkpt lat="45.49122" lon="6.71529">
        <ele>2398.1</ele>
        <time>2021-08-15T10:55:04Z</time>
      </trkpt>
      <trkpt lat="45.49122" lon="6.71529">
        <ele>2398.1</ele>
        <time>2021-08-15T10:55:05Z</time>
      </trkpt>
      <trkpt lat="45.49122" lon="6.71529">
        <ele>2398.1</ele>
        <time>2021-08-15T10:55:06Z</time>
      </trkpt>
      <trkpt lat="45.49122" lon="6.71529">
        <ele>2398</ele>
        <time>2021-08-15T10:55:07Z</time>
      </trkpt>
      <trkpt lat="45.49122" lon="6.71529">
        <ele>2398</ele>
        <time>2021-08-15T10:55:08Z</time>
      </trkpt>
      <trkpt lat="45.49122" lon="6.71529">
        <ele>2398</ele>
        <time>2021-08-15T10:55:09Z</time>
      </trkpt>
      <trkpt lat="45.49122" lon="6.71528">
        <ele>2398</ele>
        <time>2021-08-15T10:55:10Z</time>
      </trkpt>
      <trkpt lat="45.49122" lon="6.71528">
        <ele>2397.9</ele>
        <time>2021-08-15T10:55:11Z</time>
      </trkpt>
      <trkpt lat="45.49122" lon="6.71528">
        <ele>2397.9</ele>
        <time>2021-08-15T10:55:12Z</time>
      </trkpt>
      <trkpt lat="45.49122" lon="6.71528">
        <ele>2397.9</ele>
        <time>2021-08-15T10:55:13Z</time>
      </trkpt>
      <trkpt lat="45.49122" lon="6.71528">
        <ele>2397.9</ele>
        <time>2021-08-15T10:55:14Z</time>
      </trkpt>
      <trkpt lat="45.49122" lon="6.71528">
        <ele>2397.8</ele>
        <time>2021-08-15T10:55:15Z</time>
      </trkpt>
      <trkpt lat="45.49122" lon="6.71528">
        <ele>2397.8</ele>
        <time>2021-08-15T10:55:16Z</time>
      </trkpt>
      <trkpt lat="45.49122" lon="6.71527">
        <ele>2397.7</ele>
        <time>2021-08-15T10:55:17Z</time>
      </trkpt>
      <trkpt lat="45.49122" lon="6.71527">
        <ele>2397.7</ele>
        <time>2021-08-15T10:55:18Z</time>
      </trkpt>
      <trkpt lat="45.49121" lon="6.71526">
        <ele>2397.6</ele>
        <time>2021-08-15T10:55:19Z</time>
      </trkpt>
      <trkpt lat="45.49121" lon="6.71526">
        <ele>2397.4</ele>
        <time>2021-08-15T10:55:20Z</time>
      </trkpt>
      <trkpt lat="45.49121" lon="6.71525">
        <ele>2397.3</ele>
        <time>2021-08-15T10:55:21Z</time>
      </trkpt>
      <trkpt lat="45.4912" lon="6.71525">
        <ele>2397.2</ele>
        <time>2021-08-15T10:55:22Z</time>
      </trkpt>
      <trkpt lat="45.49119" lon="6.71524">
        <ele>2397</ele>
        <time>2021-08-15T10:55:23Z</time>
      </trkpt>
      <trkpt lat="45.49119" lon="6.71523">
        <ele>2396.8</ele>
        <time>2021-08-15T10:55:24Z</time>
      </trkpt>
      <trkpt lat="45.49118" lon="6.71523">
        <ele>2396.7</ele>
        <time>2021-08-15T10:55:25Z</time>
      </trkpt>
      <trkpt lat="45.49118" lon="6.71522">
        <ele>2396.5</ele>
        <time>2021-08-15T10:55:26Z</time>
      </trkpt>
      <trkpt lat="45.49117" lon="6.71521">
        <ele>2396.3</ele>
        <time>2021-08-15T10:55:27Z</time>
      </trkpt>
      <trkpt lat="45.49117" lon="6.71521">
        <ele>2396.2</ele>
        <time>2021-08-15T10:55:28Z</time>
      </trkpt>
      <trkpt lat="45.49116" lon="6.7152">
        <ele>2396.1</ele>
        <time>2021-08-15T10:55:29Z</time>
      </trkpt>
      <trkpt lat="45.49116" lon="6.71519">
        <ele>2395.9</ele>
        <time>2021-08-15T10:55:30Z</time>
      </trkpt>
      <trkpt lat="45.49115" lon="6.71519">
        <ele>2395.8</ele>
        <time>2021-08-15T10:55:31Z</time>
      </trkpt>
      <trkpt lat="45.49115" lon="6.71518">
        <ele>2395.7</ele>
        <time>2021-08-15T10:55:32Z</time>
      </trkpt>
      <trkpt lat="45.49114" lon="6.71518">
        <ele>2395.6</ele>
        <time>2021-08-15T10:55:33Z</time>
      </trkpt>
      <trkpt lat="45.49114" lon="6.71518">
        <ele>2395.5</ele>
        <time>2021-08-15T10:55:34Z</time>
      </trkpt>
      <trkpt lat="45.49114" lon="6.71517">
        <ele>2395.4</ele>
        <time>2021-08-15T10:55:35Z</time>
      </trkpt>
      <trkpt lat="45.49113" lon="6.71517">
        <ele>2395.3</ele>
        <time>2021-08-15T10:55:36Z</time>
      </trkpt>
      <trkpt lat="45.49113" lon="6.71516">
        <ele>2395.3</ele>
        <time>2021-08-15T10:55:37Z</time>
      </trkpt>
      <trkpt lat="45.49113" lon="6.71516">
        <ele>2395.2</ele>
        <time>2021-08-15T10:55:38Z</time>
      </trkpt>
      <trkpt lat="45.49113" lon="6.71516">
        <ele>2395.2</ele>
        <time>2021-08-15T10:55:39Z</time>
      </trkpt>
      <trkpt lat="45.49113" lon="6.71516">
        <ele>2395.1</ele>
        <time>2021-08-15T10:55:40Z</time>
      </trkpt>
      <trkpt lat="45.49113" lon="6.71516">
        <ele>2395.1</ele>
        <time>2021-08-15T10:55:41Z</time>
      </trkpt>
      <trkpt lat="45.49113" lon="6.71515">
        <ele>2395</ele>
        <time>2021-08-15T10:55:42Z</time>
      </trkpt>
      <trkpt lat="45.49112" lon="6.71515">
        <ele>2395</ele>
        <time>2021-08-15T10:55:43Z</time>
      </trkpt>
      <trkpt lat="45.49112" lon="6.71515">
        <ele>2394.9</ele>
        <time>2021-08-15T10:55:44Z</time>
      </trkpt>
      <trkpt lat="45.49112" lon="6.71515">
        <ele>2394.9</ele>
        <time>2021-08-15T10:55:45Z</time>
      </trkpt>
      <trkpt lat="45.49112" lon="6.71515">
        <ele>2394.9</ele>
        <time>2021-08-15T10:55:46Z</time>
      </trkpt>
      <trkpt lat="45.49112" lon="6.71514">
        <ele>2394.8</ele>
        <time>2021-08-15T10:55:47Z</time>
      </trkpt>
      <trkpt lat="45.49112" lon="6.71514">
        <ele>2394.8</ele>
        <time>2021-08-15T10:55:48Z</time>
      </trkpt>
      <trkpt lat="45.49112" lon="6.71514">
        <ele>2394.7</ele>
        <time>2021-08-15T10:55:49Z</time>
      </trkpt>
      <trkpt lat="45.49111" lon="6.71514">
        <ele>2394.7</ele>
        <time>2021-08-15T10:55:50Z</time>
      </trkpt>
      <trkpt lat="45.49111" lon="6.71513">
        <ele>2394.6</ele>
        <time>2021-08-15T10:55:51Z</time>
      </trkpt>
      <trkpt lat="45.49111" lon="6.71513">
        <ele>2394.6</ele>
        <time>2021-08-15T10:55:52Z</time>
      </trkpt>
      <trkpt lat="45.49111" lon="6.71513">
        <ele>2394.5</ele>
        <time>2021-08-15T10:55:53Z</time>
      </trkpt>
      <trkpt lat="45.49111" lon="6.71513">
        <ele>2394.5</ele>
        <time>2021-08-15T10:55:54Z</time>
      </trkpt>
      <trkpt lat="45.49111" lon="6.71513">
        <ele>2394.5</ele>
        <time>2021-08-15T10:55:55Z</time>
      </trkpt>
      <trkpt lat="45.49111" lon="6.71512">
        <ele>2394.4</ele>
        <time>2021-08-15T10:55:56Z</time>
      </trkpt>
      <trkpt lat="45.4911" lon="6.71512">
        <ele>2394.4</ele>
        <time>2021-08-15T10:55:57Z</time>
      </trkpt>
      <trkpt lat="45.4911" lon="6.71512">
        <ele>2394.3</ele>
        <time>2021-08-15T10:55:58Z</time>
      </trkpt>
      <trkpt lat="45.4911" lon="6.71512">
        <ele>2394.3</ele>
        <time>2021-08-15T10:55:59Z</time>
      </trkpt>
      <trkpt lat="45.4911" lon="6.71512">
        <ele>2394.2</ele>
        <time>2021-08-15T10:56:00Z</time>
      </trkpt>
      <trkpt lat="45.4911" lon="6.71511">
        <ele>2394.2</ele>
        <time>2021-08-15T10:56:01Z</time>
      </trkpt>
      <trkpt lat="45.4911" lon="6.71511">
        <ele>2394.1</ele>
        <time>2021-08-15T10:56:02Z</time>
      </trkpt>
      <trkpt lat="45.4911" lon="6.71511">
        <ele>2394.1</ele>
        <time>2021-08-15T10:56:03Z</time>
      </trkpt>
      <trkpt lat="45.49109" lon="6.71511">
        <ele>2394</ele>
        <time>2021-08-15T10:56:04Z</time>
      </trkpt>
      <trkpt lat="45.49109" lon="6.71511">
        <ele>2394</ele>
        <time>2021-08-15T10:56:05Z</time>
      </trkpt>
      <trkpt lat="45.49109" lon="6.7151">
        <ele>2394</ele>
        <time>2021-08-15T10:56:06Z</time>
      </trkpt>
      <trkpt lat="45.49109" lon="6.7151">
        <ele>2393.9</ele>
        <time>2021-08-15T10:56:07Z</time>
      </trkpt>
      <trkpt lat="45.49109" lon="6.7151">
        <ele>2393.9</ele>
        <time>2021-08-15T10:56:08Z</time>
      </trkpt>
      <trkpt lat="45.49109" lon="6.7151">
        <ele>2393.8</ele>
        <time>2021-08-15T10:56:09Z</time>
      </trkpt>
      <trkpt lat="45.49109" lon="6.71509">
        <ele>2393.8</ele>
        <time>2021-08-15T10:56:10Z</time>
      </trkpt>
      <trkpt lat="45.49108" lon="6.71509">
        <ele>2393.7</ele>
        <time>2021-08-15T10:56:11Z</time>
      </trkpt>
      <trkpt lat="45.49108" lon="6.71509">
        <ele>2393.7</ele>
        <time>2021-08-15T10:56:12Z</time>
      </trkpt>
      <trkpt lat="45.49108" lon="6.71509">
        <ele>2393.6</ele>
        <time>2021-08-15T10:56:13Z</time>
      </trkpt>
      <trkpt lat="45.49108" lon="6.71509">
        <ele>2393.6</ele>
        <time>2021-08-15T10:56:14Z</time>
      </trkpt>
      <trkpt lat="45.49108" lon="6.71508">
        <ele>2393.6</ele>
        <time>2021-08-15T10:56:15Z</time>
      </trkpt>
      <trkpt lat="45.49108" lon="6.71508">
        <ele>2393.5</ele>
        <time>2021-08-15T10:56:16Z</time>
      </trkpt>
      <trkpt lat="45.49108" lon="6.71508">
        <ele>2393.5</ele>
        <time>2021-08-15T10:56:17Z</time>
      </trkpt>
      <trkpt lat="45.49107" lon="6.71508">
        <ele>2393.4</ele>
        <time>2021-08-15T10:56:18Z</time>
      </trkpt>
      <trkpt lat="45.49107" lon="6.71508">
        <ele>2393.4</ele>
        <time>2021-08-15T10:56:19Z</time>
      </trkpt>
      <trkpt lat="45.49107" lon="6.71507">
        <ele>2393.3</ele>
        <time>2021-08-15T10:56:20Z</time>
      </trkpt>
      <trkpt lat="45.49107" lon="6.71507">
        <ele>2393.3</ele>
        <time>2021-08-15T10:56:21Z</time>
      </trkpt>
      <trkpt lat="45.49107" lon="6.71507">
        <ele>2393.2</ele>
        <time>2021-08-15T10:56:22Z</time>
      </trkpt>
      <trkpt lat="45.49107" lon="6.71507">
        <ele>2393.2</ele>
        <time>2021-08-15T10:56:23Z</time>
      </trkpt>
      <trkpt lat="45.49106" lon="6.71507">
        <ele>2393.2</ele>
        <time>2021-08-15T10:56:24Z</time>
      </trkpt>
      <trkpt lat="45.49106" lon="6.71506">
        <ele>2393.1</ele>
        <time>2021-08-15T10:56:25Z</time>
      </trkpt>
      <trkpt lat="45.49106" lon="6.71506">
        <ele>2393.1</ele>
        <time>2021-08-15T10:56:26Z</time>
      </trkpt>
      <trkpt lat="45.49106" lon="6.71506">
        <ele>2393</ele>
        <time>2021-08-15T10:56:27Z</time>
      </trkpt>
      <trkpt lat="45.49106" lon="6.71506">
        <ele>2393</ele>
        <time>2021-08-15T10:56:28Z</time>
      </trkpt>
      <trkpt lat="45.49106" lon="6.71505">
        <ele>2392.9</ele>
        <time>2021-08-15T10:56:29Z</time>
      </trkpt>
      <trkpt lat="45.49106" lon="6.71505">
        <ele>2392.9</ele>
        <time>2021-08-15T10:56:30Z</time>
      </trkpt>
      <trkpt lat="45.49105" lon="6.71505">
        <ele>2392.8</ele>
        <time>2021-08-15T10:56:31Z</time>
      </trkpt>
      <trkpt lat="45.49105" lon="6.71505">
        <ele>2392.8</ele>
        <time>2021-08-15T10:56:32Z</time>
      </trkpt>
      <trkpt lat="45.49105" lon="6.71505">
        <ele>2392.8</ele>
        <time>2021-08-15T10:56:33Z</time>
      </trkpt>
      <trkpt lat="45.49105" lon="6.71504">
        <ele>2392.7</ele>
        <time>2021-08-15T10:56:34Z</time>
      </trkpt>
      <trkpt lat="45.49105" lon="6.71504">
        <ele>2392.7</ele>
        <time>2021-08-15T10:56:35Z</time>
      </trkpt>
      <trkpt lat="45.49105" lon="6.71504">
        <ele>2392.6</ele>
        <time>2021-08-15T10:56:36Z</time>
      </trkpt>
      <trkpt lat="45.49105" lon="6.71504">
        <ele>2392.6</ele>
        <time>2021-08-15T10:56:37Z</time>
      </trkpt>
      <trkpt lat="45.49104" lon="6.71504">
        <ele>2392.5</ele>
        <time>2021-08-15T10:56:38Z</time>
      </trkpt>
      <trkpt lat="45.49104" lon="6.71503">
        <ele>2392.5</ele>
        <time>2021-08-15T10:56:39Z</time>
      </trkpt>
      <trkpt lat="45.49104" lon="6.71503">
        <ele>2392.5</ele>
        <time>2021-08-15T10:56:40Z</time>
      </trkpt>
      <trkpt lat="45.49104" lon="6.71503">
        <ele>2392.4</ele>
        <time>2021-08-15T10:56:41Z</time>
      </trkpt>
      <trkpt lat="45.49104" lon="6.71503">
        <ele>2392.4</ele>
        <time>2021-08-15T10:56:42Z</time>
      </trkpt>
      <trkpt lat="45.49104" lon="6.71503">
        <ele>2392.3</ele>
        <time>2021-08-15T10:56:43Z</time>
      </trkpt>
      <trkpt lat="45.49104" lon="6.71502">
        <ele>2392.3</ele>
        <time>2021-08-15T10:56:44Z</time>
      </trkpt>
      <trkpt lat="45.49103" lon="6.71502">
        <ele>2392.2</ele>
        <time>2021-08-15T10:56:45Z</time>
      </trkpt>
      <trkpt lat="45.49103" lon="6.71502">
        <ele>2392.2</ele>
        <time>2021-08-15T10:56:46Z</time>
      </trkpt>
      <trkpt lat="45.49103" lon="6.71502">
        <ele>2392.1</ele>
        <time>2021-08-15T10:56:47Z</time>
      </trkpt>
      <trkpt lat="45.49103" lon="6.71501">
        <ele>2392.1</ele>
        <time>2021-08-15T10:56:48Z</time>
      </trkpt>
      <trkpt lat="45.49103" lon="6.71501">
        <ele>2392.1</ele>
        <time>2021-08-15T10:56:49Z</time>
      </trkpt>
      <trkpt lat="45.49102" lon="6.71501">
        <ele>2391.9</ele>
        <time>2021-08-15T10:56:50Z</time>
      </trkpt>
      <trkpt lat="45.49102" lon="6.715">
        <ele>2391.8</ele>
        <time>2021-08-15T10:56:51Z</time>
      </trkpt>
      <trkpt lat="45.49101" lon="6.715">
        <ele>2391.6</ele>
        <time>2021-08-15T10:56:52Z</time>
      </trkpt>
      <trkpt lat="45.49101" lon="6.71499">
        <ele>2391.5</ele>
        <time>2021-08-15T10:56:53Z</time>
      </trkpt>
      <trkpt lat="45.491" lon="6.71498">
        <ele>2391.4</ele>
        <time>2021-08-15T10:56:54Z</time>
      </trkpt>
      <trkpt lat="45.491" lon="6.71498">
        <ele>2391.2</ele>
        <time>2021-08-15T10:56:55Z</time>
      </trkpt>
      <trkpt lat="45.49099" lon="6.71497">
        <ele>2391.1</ele>
        <time>2021-08-15T10:56:56Z</time>
      </trkpt>
      <trkpt lat="45.49099" lon="6.71497">
        <ele>2391</ele>
        <time>2021-08-15T10:56:57Z</time>
      </trkpt>
      <trkpt lat="45.49098" lon="6.71496">
        <ele>2390.8</ele>
        <time>2021-08-15T10:56:58Z</time>
      </trkpt>
      <trkpt lat="45.49098" lon="6.71496">
        <ele>2390.7</ele>
        <time>2021-08-15T10:56:59Z</time>
      </trkpt>
      <trkpt lat="45.49097" lon="6.71495">
        <ele>2390.6</ele>
        <time>2021-08-15T10:57:00Z</time>
      </trkpt>
      <trkpt lat="45.49097" lon="6.71495">
        <ele>2390.5</ele>
        <time>2021-08-15T10:57:01Z</time>
      </trkpt>
      <trkpt lat="45.49097" lon="6.71494">
        <ele>2390.4</ele>
        <time>2021-08-15T10:57:02Z</time>
      </trkpt>
      <trkpt lat="45.49097" lon="6.71494">
        <ele>2390.4</ele>
        <time>2021-08-15T10:57:03Z</time>
      </trkpt>
      <trkpt lat="45.49096" lon="6.71493">
        <ele>2390.3</ele>
        <time>2021-08-15T10:57:04Z</time>
      </trkpt>
      <trkpt lat="45.49096" lon="6.71493">
        <ele>2390.2</ele>
        <time>2021-08-15T10:57:05Z</time>
      </trkpt>
      <trkpt lat="45.49096" lon="6.71493">
        <ele>2390.2</ele>
        <time>2021-08-15T10:57:06Z</time>
      </trkpt>
      <trkpt lat="45.49096" lon="6.71492">
        <ele>2390.1</ele>
        <time>2021-08-15T10:57:07Z</time>
      </trkpt>
      <trkpt lat="45.49096" lon="6.71492">
        <ele>2390</ele>
        <time>2021-08-15T10:57:08Z</time>
      </trkpt>
      <trkpt lat="45.49096" lon="6.71491">
        <ele>2389.9</ele>
        <time>2021-08-15T10:57:09Z</time>
      </trkpt>
      <trkpt lat="45.49095" lon="6.71491">
        <ele>2389.8</ele>
        <time>2021-08-15T10:57:10Z</time>
      </trkpt>
      <trkpt lat="45.49095" lon="6.7149">
        <ele>2389.7</ele>
        <time>2021-08-15T10:57:11Z</time>
      </trkpt>
      <trkpt lat="45.49095" lon="6.71489">
        <ele>2389.6</ele>
        <time>2021-08-15T10:57:12Z</time>
      </trkpt>
      <trkpt lat="45.49095" lon="6.71489">
        <ele>2389.5</ele>
        <time>2021-08-15T10:57:13Z</time>
      </trkpt>
      <trkpt lat="45.49094" lon="6.71488">
        <ele>2389.4</ele>
        <time>2021-08-15T10:57:14Z</time>
      </trkpt>
      <trkpt lat="45.49094" lon="6.71487">
        <ele>2389.3</ele>
        <time>2021-08-15T10:57:15Z</time>
      </trkpt>
      <trkpt lat="45.49094" lon="6.71487">
        <ele>2389.2</ele>
        <time>2021-08-15T10:57:16Z</time>
      </trkpt>
      <trkpt lat="45.49094" lon="6.71486">
        <ele>2389.1</ele>
        <time>2021-08-15T10:57:17Z</time>
      </trkpt>
      <trkpt lat="45.49094" lon="6.71486">
        <ele>2389.1</ele>
        <time>2021-08-15T10:57:18Z</time>
      </trkpt>
      <trkpt lat="45.49093" lon="6.71486">
        <ele>2389</ele>
        <time>2021-08-15T10:57:19Z</time>
      </trkpt>
      <trkpt lat="45.49093" lon="6.71486">
        <ele>2389</ele>
        <time>2021-08-15T10:57:20Z</time>
      </trkpt>
      <trkpt lat="45.49093" lon="6.71486">
        <ele>2389</ele>
        <time>2021-08-15T10:57:21Z</time>
      </trkpt>
      <trkpt lat="45.49093" lon="6.71486">
        <ele>2389</ele>
        <time>2021-08-15T10:57:22Z</time>
      </trkpt>
      <trkpt lat="45.49093" lon="6.71486">
        <ele>2389</ele>
        <time>2021-08-15T10:57:23Z</time>
      </trkpt>
      <trkpt lat="45.49093" lon="6.71486">
        <ele>2389</ele>
        <time>2021-08-15T10:57:24Z</time>
      </trkpt>
      <trkpt lat="45.49094" lon="6.71486">
        <ele>2389</ele>
        <time>2021-08-15T10:57:25Z</time>
      </trkpt>
      <trkpt lat="45.49094" lon="6.71486">
        <ele>2389</ele>
        <time>2021-08-15T10:57:26Z</time>
      </trkpt>
      <trkpt lat="45.49094" lon="6.71486">
        <ele>2389</ele>
        <time>2021-08-15T10:57:27Z</time>
      </trkpt>
      <trkpt lat="45.49094" lon="6.71486">
        <ele>2388.9</ele>
        <time>2021-08-15T10:57:28Z</time>
      </trkpt>
      <trkpt lat="45.49094" lon="6.71485">
        <ele>2388.9</ele>
        <time>2021-08-15T10:57:29Z</time>
      </trkpt>
      <trkpt lat="45.49094" lon="6.71485">
        <ele>2388.9</ele>
        <time>2021-08-15T10:57:30Z</time>
      </trkpt>
      <trkpt lat="45.49094" lon="6.71485">
        <ele>2388.9</ele>
        <time>2021-08-15T10:57:31Z</time>
      </trkpt>
      <trkpt lat="45.49094" lon="6.71485">
        <ele>2388.9</ele>
        <time>2021-08-15T10:57:32Z</time>
      </trkpt>
      <trkpt lat="45.49094" lon="6.71485">
        <ele>2388.9</ele>
        <time>2021-08-15T10:57:33Z</time>
      </trkpt>
      <trkpt lat="45.49093" lon="6.71485">
        <ele>2388.8</ele>
        <time>2021-08-15T10:57:34Z</time>
      </trkpt>
      <trkpt lat="45.49093" lon="6.71483">
        <ele>2388.5</ele>
        <time>2021-08-15T10:57:35Z</time>
      </trkpt>
      <trkpt lat="45.49093" lon="6.71481">
        <ele>2388.2</ele>
        <time>2021-08-15T10:57:36Z</time>
      </trkpt>
      <trkpt lat="45.49093" lon="6.71479">
        <ele>2388</ele>
        <time>2021-08-15T10:57:37Z</time>
      </trkpt>
      <trkpt lat="45.49093" lon="6.71478">
        <ele>2387.8</ele>
        <time>2021-08-15T10:57:38Z</time>
      </trkpt>
      <trkpt lat="45.49092" lon="6.71477">
        <ele>2387.6</ele>
        <time>2021-08-15T10:57:39Z</time>
      </trkpt>
      <trkpt lat="45.49092" lon="6.71476">
        <ele>2387.5</ele>
        <time>2021-08-15T10:57:40Z</time>
      </trkpt>
      <trkpt lat="45.49092" lon="6.71476">
        <ele>2387.4</ele>
        <time>2021-08-15T10:57:41Z</time>
      </trkpt>
      <trkpt lat="45.49091" lon="6.71475">
        <ele>2387.3</ele>
        <time>2021-08-15T10:57:42Z</time>
      </trkpt>
      <trkpt lat="45.49091" lon="6.71475">
        <ele>2387.2</ele>
        <time>2021-08-15T10:57:43Z</time>
      </trkpt>
      <trkpt lat="45.4909" lon="6.71475">
        <ele>2387.1</ele>
        <time>2021-08-15T10:57:44Z</time>
      </trkpt>
      <trkpt lat="45.4909" lon="6.71474">
        <ele>2387</ele>
        <time>2021-08-15T10:57:45Z</time>
      </trkpt>
      <trkpt lat="45.4909" lon="6.71474">
        <ele>2386.9</ele>
        <time>2021-08-15T10:57:46Z</time>
      </trkpt>
      <trkpt lat="45.4909" lon="6.71473">
        <ele>2386.8</ele>
        <time>2021-08-15T10:57:47Z</time>
      </trkpt>
      <trkpt lat="45.49089" lon="6.71472">
        <ele>2386.6</ele>
        <time>2021-08-15T10:57:48Z</time>
      </trkpt>
      <trkpt lat="45.49089" lon="6.71472">
        <ele>2386.5</ele>
        <time>2021-08-15T10:57:49Z</time>
      </trkpt>
      <trkpt lat="45.49089" lon="6.71471">
        <ele>2386.4</ele>
        <time>2021-08-15T10:57:50Z</time>
      </trkpt>
      <trkpt lat="45.49089" lon="6.7147">
        <ele>2386.2</ele>
        <time>2021-08-15T10:57:51Z</time>
      </trkpt>
      <trkpt lat="45.49089" lon="6.71469">
        <ele>2386.2</ele>
        <time>2021-08-15T10:57:52Z</time>
      </trkpt>
      <trkpt lat="45.49089" lon="6.71469">
        <ele>2386.1</ele>
        <time>2021-08-15T10:57:53Z</time>
      </trkpt>
      <trkpt lat="45.49089" lon="6.71468">
        <ele>2386</ele>
        <time>2021-08-15T10:57:54Z</time>
      </trkpt>
      <trkpt lat="45.49089" lon="6.71468">
        <ele>2385.9</ele>
        <time>2021-08-15T10:57:55Z</time>
      </trkpt>
      <trkpt lat="45.49088" lon="6.71467">
        <ele>2385.8</ele>
        <time>2021-08-15T10:57:56Z</time>
      </trkpt>
      <trkpt lat="45.49088" lon="6.71466">
        <ele>2385.7</ele>
        <time>2021-08-15T10:57:57Z</time>
      </trkpt>
      <trkpt lat="45.49088" lon="6.71466">
        <ele>2385.6</ele>
        <time>2021-08-15T10:57:58Z</time>
      </trkpt>
      <trkpt lat="45.49088" lon="6.71465">
        <ele>2385.5</ele>
        <time>2021-08-15T10:57:59Z</time>
      </trkpt>
      <trkpt lat="45.49088" lon="6.71464">
        <ele>2385.4</ele>
        <time>2021-08-15T10:58:00Z</time>
      </trkpt>
      <trkpt lat="45.49088" lon="6.71463">
        <ele>2385.2</ele>
        <time>2021-08-15T10:58:01Z</time>
      </trkpt>
      <trkpt lat="45.49088" lon="6.71462">
        <ele>2385.1</ele>
        <time>2021-08-15T10:58:02Z</time>
      </trkpt>
      <trkpt lat="45.49088" lon="6.7146">
        <ele>2385</ele>
        <time>2021-08-15T10:58:03Z</time>
      </trkpt>
      <trkpt lat="45.49088" lon="6.71459">
        <ele>2384.8</ele>
        <time>2021-08-15T10:58:04Z</time>
      </trkpt>
      <trkpt lat="45.49088" lon="6.71458">
        <ele>2384.6</ele>
        <time>2021-08-15T10:58:05Z</time>
      </trkpt>
      <trkpt lat="45.49088" lon="6.71457">
        <ele>2384.5</ele>
        <time>2021-08-15T10:58:06Z</time>
      </trkpt>
      <trkpt lat="45.49087" lon="6.71456">
        <ele>2384.4</ele>
        <time>2021-08-15T10:58:07Z</time>
      </trkpt>
      <trkpt lat="45.49087" lon="6.71455">
        <ele>2384.2</ele>
        <time>2021-08-15T10:58:08Z</time>
      </trkpt>
      <trkpt lat="45.49087" lon="6.71453">
        <ele>2384.1</ele>
        <time>2021-08-15T10:58:09Z</time>
      </trkpt>
      <trkpt lat="45.49087" lon="6.71452">
        <ele>2384</ele>
        <time>2021-08-15T10:58:10Z</time>
      </trkpt>
      <trkpt lat="45.49087" lon="6.71451">
        <ele>2383.8</ele>
        <time>2021-08-15T10:58:11Z</time>
      </trkpt>
      <trkpt lat="45.49087" lon="6.7145">
        <ele>2383.7</ele>
        <time>2021-08-15T10:58:12Z</time>
      </trkpt>
      <trkpt lat="45.49087" lon="6.71449">
        <ele>2383.6</ele>
        <time>2021-08-15T10:58:13Z</time>
      </trkpt>
      <trkpt lat="45.49086" lon="6.71448">
        <ele>2383.5</ele>
        <time>2021-08-15T10:58:14Z</time>
      </trkpt>
      <trkpt lat="45.49086" lon="6.71447">
        <ele>2383.4</ele>
        <time>2021-08-15T10:58:15Z</time>
      </trkpt>
      <trkpt lat="45.49086" lon="6.71446">
        <ele>2383.3</ele>
        <time>2021-08-15T10:58:16Z</time>
      </trkpt>
      <trkpt lat="45.49086" lon="6.71445">
        <ele>2383.2</ele>
        <time>2021-08-15T10:58:17Z</time>
      </trkpt>
      <trkpt lat="45.49086" lon="6.71444">
        <ele>2383.1</ele>
        <time>2021-08-15T10:58:18Z</time>
      </trkpt>
      <trkpt lat="45.49086" lon="6.71443">
        <ele>2383</ele>
        <time>2021-08-15T10:58:19Z</time>
      </trkpt>
      <trkpt lat="45.49086" lon="6.71442">
        <ele>2382.9</ele>
        <time>2021-08-15T10:58:20Z</time>
      </trkpt>
      <trkpt lat="45.49085" lon="6.71441">
        <ele>2382.8</ele>
        <time>2021-08-15T10:58:21Z</time>
      </trkpt>
      <trkpt lat="45.49085" lon="6.7144">
        <ele>2382.7</ele>
        <time>2021-08-15T10:58:22Z</time>
      </trkpt>
      <trkpt lat="45.49085" lon="6.71439">
        <ele>2382.6</ele>
        <time>2021-08-15T10:58:23Z</time>
      </trkpt>
      <trkpt lat="45.49085" lon="6.71438">
        <ele>2382.5</ele>
        <time>2021-08-15T10:58:24Z</time>
      </trkpt>
      <trkpt lat="45.49085" lon="6.71437">
        <ele>2382.4</ele>
        <time>2021-08-15T10:58:25Z</time>
      </trkpt>
      <trkpt lat="45.49085" lon="6.71436">
        <ele>2382.3</ele>
        <time>2021-08-15T10:58:26Z</time>
      </trkpt>
      <trkpt lat="45.49084" lon="6.71435">
        <ele>2382.2</ele>
        <time>2021-08-15T10:58:27Z</time>
      </trkpt>
      <trkpt lat="45.49084" lon="6.71434">
        <ele>2382.1</ele>
        <time>2021-08-15T10:58:28Z</time>
      </trkpt>
      <trkpt lat="45.49084" lon="6.71433">
        <ele>2382</ele>
        <time>2021-08-15T10:58:29Z</time>
      </trkpt>
      <trkpt lat="45.49084" lon="6.71432">
        <ele>2381.9</ele>
        <time>2021-08-15T10:58:30Z</time>
      </trkpt>
      <trkpt lat="45.49084" lon="6.71431">
        <ele>2381.8</ele>
        <time>2021-08-15T10:58:31Z</time>
      </trkpt>
      <trkpt lat="45.49084" lon="6.71431">
        <ele>2381.8</ele>
        <time>2021-08-15T10:58:32Z</time>
      </trkpt>
      <trkpt lat="45.49084" lon="6.7143">
        <ele>2381.7</ele>
        <time>2021-08-15T10:58:33Z</time>
      </trkpt>
      <trkpt lat="45.49084" lon="6.71429">
        <ele>2381.6</ele>
        <time>2021-08-15T10:58:34Z</time>
      </trkpt>
      <trkpt lat="45.49083" lon="6.71428">
        <ele>2381.5</ele>
        <time>2021-08-15T10:58:35Z</time>
      </trkpt>
      <trkpt lat="45.49083" lon="6.71427">
        <ele>2381.4</ele>
        <time>2021-08-15T10:58:36Z</time>
      </trkpt>
      <trkpt lat="45.49083" lon="6.71426">
        <ele>2381.3</ele>
        <time>2021-08-15T10:58:37Z</time>
      </trkpt>
      <trkpt lat="45.49083" lon="6.71425">
        <ele>2381.2</ele>
        <time>2021-08-15T10:58:38Z</time>
      </trkpt>
      <trkpt lat="45.49083" lon="6.71424">
        <ele>2381.1</ele>
        <time>2021-08-15T10:58:39Z</time>
      </trkpt>
      <trkpt lat="45.49083" lon="6.71423">
        <ele>2381</ele>
        <time>2021-08-15T10:58:40Z</time>
      </trkpt>
      <trkpt lat="45.49083" lon="6.71422">
        <ele>2380.9</ele>
        <time>2021-08-15T10:58:41Z</time>
      </trkpt>
      <trkpt lat="45.49083" lon="6.71422">
        <ele>2380.8</ele>
        <time>2021-08-15T10:58:42Z</time>
      </trkpt>
      <trkpt lat="45.49083" lon="6.71421">
        <ele>2380.7</ele>
        <time>2021-08-15T10:58:43Z</time>
      </trkpt>
      <trkpt lat="45.49083" lon="6.7142">
        <ele>2380.6</ele>
        <time>2021-08-15T10:58:44Z</time>
      </trkpt>
      <trkpt lat="45.49083" lon="6.71419">
        <ele>2380.5</ele>
        <time>2021-08-15T10:58:45Z</time>
      </trkpt>
      <trkpt lat="45.49083" lon="6.71418">
        <ele>2380.5</ele>
        <time>2021-08-15T10:58:46Z</time>
      </trkpt>
      <trkpt lat="45.49083" lon="6.71417">
        <ele>2380.4</ele>
        <time>2021-08-15T10:58:47Z</time>
      </trkpt>
      <trkpt lat="45.49083" lon="6.71416">
        <ele>2380.2</ele>
        <time>2021-08-15T10:58:48Z</time>
      </trkpt>
      <trkpt lat="45.49083" lon="6.71415">
        <ele>2380.1</ele>
        <time>2021-08-15T10:58:49Z</time>
      </trkpt>
      <trkpt lat="45.49083" lon="6.71414">
        <ele>2380.1</ele>
        <time>2021-08-15T10:58:50Z</time>
      </trkpt>
      <trkpt lat="45.49083" lon="6.71414">
        <ele>2379.9</ele>
        <time>2021-08-15T10:58:51Z</time>
      </trkpt>
      <trkpt lat="45.49083" lon="6.71413">
        <ele>2379.9</ele>
        <time>2021-08-15T10:58:52Z</time>
      </trkpt>
      <trkpt lat="45.49083" lon="6.71412">
        <ele>2379.8</ele>
        <time>2021-08-15T10:58:53Z</time>
      </trkpt>
      <trkpt lat="45.49083" lon="6.71411">
        <ele>2379.7</ele>
        <time>2021-08-15T10:58:54Z</time>
      </trkpt>
      <trkpt lat="45.49083" lon="6.71411">
        <ele>2379.6</ele>
        <time>2021-08-15T10:58:55Z</time>
      </trkpt>
      <trkpt lat="45.49083" lon="6.7141">
        <ele>2379.5</ele>
        <time>2021-08-15T10:58:56Z</time>
      </trkpt>
      <trkpt lat="45.49083" lon="6.71409">
        <ele>2379.4</ele>
        <time>2021-08-15T10:58:57Z</time>
      </trkpt>
      <trkpt lat="45.49084" lon="6.71409">
        <ele>2379.4</ele>
        <time>2021-08-15T10:58:58Z</time>
      </trkpt>
      <trkpt lat="45.49084" lon="6.71408">
        <ele>2379.3</ele>
        <time>2021-08-15T10:58:59Z</time>
      </trkpt>
      <trkpt lat="45.49084" lon="6.71408">
        <ele>2379.2</ele>
        <time>2021-08-15T10:59:00Z</time>
      </trkpt>
      <trkpt lat="45.49084" lon="6.71407">
        <ele>2379.2</ele>
        <time>2021-08-15T10:59:01Z</time>
      </trkpt>
      <trkpt lat="45.49084" lon="6.71407">
        <ele>2379.1</ele>
        <time>2021-08-15T10:59:02Z</time>
      </trkpt>
      <trkpt lat="45.49084" lon="6.71406">
        <ele>2379</ele>
        <time>2021-08-15T10:59:03Z</time>
      </trkpt>
      <trkpt lat="45.49084" lon="6.71405">
        <ele>2378.9</ele>
        <time>2021-08-15T10:59:04Z</time>
      </trkpt>
      <trkpt lat="45.49084" lon="6.71404">
        <ele>2378.8</ele>
        <time>2021-08-15T10:59:05Z</time>
      </trkpt>
      <trkpt lat="45.49084" lon="6.71404">
        <ele>2378.7</ele>
        <time>2021-08-15T10:59:06Z</time>
      </trkpt>
      <trkpt lat="45.49084" lon="6.71403">
        <ele>2378.6</ele>
        <time>2021-08-15T10:59:07Z</time>
      </trkpt>
      <trkpt lat="45.49084" lon="6.71402">
        <ele>2378.5</ele>
        <time>2021-08-15T10:59:08Z</time>
      </trkpt>
      <trkpt lat="45.49084" lon="6.71401">
        <ele>2378.4</ele>
        <time>2021-08-15T10:59:09Z</time>
      </trkpt>
      <trkpt lat="45.49083" lon="6.714">
        <ele>2378.3</ele>
        <time>2021-08-15T10:59:10Z</time>
      </trkpt>
      <trkpt lat="45.49083" lon="6.71399">
        <ele>2378.2</ele>
        <time>2021-08-15T10:59:11Z</time>
      </trkpt>
      <trkpt lat="45.49083" lon="6.71398">
        <ele>2378</ele>
        <time>2021-08-15T10:59:12Z</time>
      </trkpt>
      <trkpt lat="45.49083" lon="6.71398">
        <ele>2378</ele>
        <time>2021-08-15T10:59:13Z</time>
      </trkpt>
      <trkpt lat="45.49083" lon="6.71397">
        <ele>2377.9</ele>
        <time>2021-08-15T10:59:14Z</time>
      </trkpt>
      <trkpt lat="45.49083" lon="6.71397">
        <ele>2377.8</ele>
        <time>2021-08-15T10:59:15Z</time>
      </trkpt>
      <trkpt lat="45.49083" lon="6.71396">
        <ele>2377.8</ele>
        <time>2021-08-15T10:59:16Z</time>
      </trkpt>
      <trkpt lat="45.49083" lon="6.71396">
        <ele>2377.7</ele>
        <time>2021-08-15T10:59:17Z</time>
      </trkpt>
      <trkpt lat="45.49083" lon="6.71396">
        <ele>2377.7</ele>
        <time>2021-08-15T10:59:18Z</time>
      </trkpt>
      <trkpt lat="45.49083" lon="6.71396">
        <ele>2377.7</ele>
        <time>2021-08-15T10:59:19Z</time>
      </trkpt>
      <trkpt lat="45.49083" lon="6.71396">
        <ele>2377.7</ele>
        <time>2021-08-15T10:59:20Z</time>
      </trkpt>
      <trkpt lat="45.49083" lon="6.71396">
        <ele>2377.7</ele>
        <time>2021-08-15T10:59:21Z</time>
      </trkpt>
      <trkpt lat="45.49083" lon="6.71396">
        <ele>2377.7</ele>
        <time>2021-08-15T10:59:22Z</time>
      </trkpt>
      <trkpt lat="45.49083" lon="6.71396">
        <ele>2377.7</ele>
        <time>2021-08-15T10:59:23Z</time>
      </trkpt>
      <trkpt lat="45.49083" lon="6.71396">
        <ele>2377.7</ele>
        <time>2021-08-15T10:59:24Z</time>
      </trkpt>
      <trkpt lat="45.49083" lon="6.71396">
        <ele>2377.6</ele>
        <time>2021-08-15T10:59:25Z</time>
      </trkpt>
      <trkpt lat="45.49083" lon="6.71395">
        <ele>2377.6</ele>
        <time>2021-08-15T10:59:26Z</time>
      </trkpt>
      <trkpt lat="45.49083" lon="6.71394">
        <ele>2377.5</ele>
        <time>2021-08-15T10:59:27Z</time>
      </trkpt>
      <trkpt lat="45.49083" lon="6.71393">
        <ele>2377.3</ele>
        <time>2021-08-15T10:59:28Z</time>
      </trkpt>
      <trkpt lat="45.49083" lon="6.71393">
        <ele>2377.2</ele>
        <time>2021-08-15T10:59:29Z</time>
      </trkpt>
      <trkpt lat="45.49083" lon="6.71392">
        <ele>2377.2</ele>
        <time>2021-08-15T10:59:30Z</time>
      </trkpt>
      <trkpt lat="45.49083" lon="6.71391">
        <ele>2377.1</ele>
        <time>2021-08-15T10:59:31Z</time>
      </trkpt>
      <trkpt lat="45.49083" lon="6.71391">
        <ele>2377</ele>
        <time>2021-08-15T10:59:32Z</time>
      </trkpt>
      <trkpt lat="45.49083" lon="6.7139">
        <ele>2376.9</ele>
        <time>2021-08-15T10:59:33Z</time>
      </trkpt>
      <trkpt lat="45.49082" lon="6.71389">
        <ele>2376.8</ele>
        <time>2021-08-15T10:59:34Z</time>
      </trkpt>
      <trkpt lat="45.49082" lon="6.71389">
        <ele>2376.7</ele>
        <time>2021-08-15T10:59:35Z</time>
      </trkpt>
      <trkpt lat="45.49082" lon="6.71389">
        <ele>2376.7</ele>
        <time>2021-08-15T10:59:36Z</time>
      </trkpt>
      <trkpt lat="45.49082" lon="6.71389">
        <ele>2376.7</ele>
        <time>2021-08-15T10:59:37Z</time>
      </trkpt>
      <trkpt lat="45.49082" lon="6.71389">
        <ele>2376.7</ele>
        <time>2021-08-15T10:59:38Z</time>
      </trkpt>
      <trkpt lat="45.49082" lon="6.71389">
        <ele>2376.6</ele>
        <time>2021-08-15T10:59:39Z</time>
      </trkpt>
      <trkpt lat="45.49082" lon="6.71388">
        <ele>2376.6</ele>
        <time>2021-08-15T10:59:40Z</time>
      </trkpt>
      <trkpt lat="45.49083" lon="6.71388">
        <ele>2376.5</ele>
        <time>2021-08-15T10:59:41Z</time>
      </trkpt>
      <trkpt lat="45.49083" lon="6.71387">
        <ele>2376.4</ele>
        <time>2021-08-15T10:59:42Z</time>
      </trkpt>
      <trkpt lat="45.49083" lon="6.71386">
        <ele>2376.3</ele>
        <time>2021-08-15T10:59:43Z</time>
      </trkpt>
      <trkpt lat="45.49083" lon="6.71385">
        <ele>2376.1</ele>
        <time>2021-08-15T10:59:44Z</time>
      </trkpt>
      <trkpt lat="45.49083" lon="6.71384">
        <ele>2376</ele>
        <time>2021-08-15T10:59:45Z</time>
      </trkpt>
      <trkpt lat="45.49083" lon="6.71383">
        <ele>2375.8</ele>
        <time>2021-08-15T10:59:46Z</time>
      </trkpt>
      <trkpt lat="45.49083" lon="6.71382">
        <ele>2375.7</ele>
        <time>2021-08-15T10:59:47Z</time>
      </trkpt>
      <trkpt lat="45.49083" lon="6.71381">
        <ele>2375.6</ele>
        <time>2021-08-15T10:59:48Z</time>
      </trkpt>
      <trkpt lat="45.49084" lon="6.71381">
        <ele>2375.5</ele>
        <time>2021-08-15T10:59:49Z</time>
      </trkpt>
      <trkpt lat="45.49084" lon="6.7138">
        <ele>2375.4</ele>
        <time>2021-08-15T10:59:50Z</time>
      </trkpt>
      <trkpt lat="45.49084" lon="6.71379">
        <ele>2375.3</ele>
        <time>2021-08-15T10:59:51Z</time>
      </trkpt>
      <trkpt lat="45.49084" lon="6.71379">
        <ele>2375.2</ele>
        <time>2021-08-15T10:59:52Z</time>
      </trkpt>
      <trkpt lat="45.49084" lon="6.71378">
        <ele>2375.1</ele>
        <time>2021-08-15T10:59:53Z</time>
      </trkpt>
      <trkpt lat="45.49084" lon="6.71377">
        <ele>2375</ele>
        <time>2021-08-15T10:59:54Z</time>
      </trkpt>
      <trkpt lat="45.49084" lon="6.71377">
        <ele>2374.9</ele>
        <time>2021-08-15T10:59:55Z</time>
      </trkpt>
      <trkpt lat="45.49084" lon="6.71376">
        <ele>2374.9</ele>
        <time>2021-08-15T10:59:56Z</time>
      </trkpt>
      <trkpt lat="45.49084" lon="6.71376">
        <ele>2374.8</ele>
        <time>2021-08-15T10:59:57Z</time>
      </trkpt>
      <trkpt lat="45.49084" lon="6.71375">
        <ele>2374.7</ele>
        <time>2021-08-15T10:59:58Z</time>
      </trkpt>
      <trkpt lat="45.49084" lon="6.71375">
        <ele>2374.6</ele>
        <time>2021-08-15T10:59:59Z</time>
      </trkpt>
      <trkpt lat="45.49085" lon="6.71374">
        <ele>2374.6</ele>
        <time>2021-08-15T11:00:00Z</time>
      </trkpt>
      <trkpt lat="45.49085" lon="6.71374">
        <ele>2374.5</ele>
        <time>2021-08-15T11:00:01Z</time>
      </trkpt>
      <trkpt lat="45.49085" lon="6.71373">
        <ele>2374.4</ele>
        <time>2021-08-15T11:00:02Z</time>
      </trkpt>
      <trkpt lat="45.49085" lon="6.71372">
        <ele>2374.3</ele>
        <time>2021-08-15T11:00:03Z</time>
      </trkpt>
      <trkpt lat="45.49085" lon="6.71372">
        <ele>2374.2</ele>
        <time>2021-08-15T11:00:04Z</time>
      </trkpt>
      <trkpt lat="45.49085" lon="6.71371">
        <ele>2374.1</ele>
        <time>2021-08-15T11:00:05Z</time>
      </trkpt>
      <trkpt lat="45.49085" lon="6.71371">
        <ele>2374</ele>
        <time>2021-08-15T11:00:06Z</time>
      </trkpt>
      <trkpt lat="45.49085" lon="6.7137">
        <ele>2373.9</ele>
        <time>2021-08-15T11:00:07Z</time>
      </trkpt>
      <trkpt lat="45.49085" lon="6.71369">
        <ele>2373.8</ele>
        <time>2021-08-15T11:00:08Z</time>
      </trkpt>
      <trkpt lat="45.49085" lon="6.71368">
        <ele>2373.7</ele>
        <time>2021-08-15T11:00:09Z</time>
      </trkpt>
      <trkpt lat="45.49085" lon="6.71368">
        <ele>2373.6</ele>
        <time>2021-08-15T11:00:10Z</time>
      </trkpt>
      <trkpt lat="45.49086" lon="6.71367">
        <ele>2373.5</ele>
        <time>2021-08-15T11:00:11Z</time>
      </trkpt>
      <trkpt lat="45.49086" lon="6.71366">
        <ele>2373.4</ele>
        <time>2021-08-15T11:00:12Z</time>
      </trkpt>
      <trkpt lat="45.49086" lon="6.71365">
        <ele>2373.3</ele>
        <time>2021-08-15T11:00:13Z</time>
      </trkpt>
      <trkpt lat="45.49086" lon="6.71364">
        <ele>2373.2</ele>
        <time>2021-08-15T11:00:14Z</time>
      </trkpt>
      <trkpt lat="45.49086" lon="6.71364">
        <ele>2373</ele>
        <time>2021-08-15T11:00:15Z</time>
      </trkpt>
      <trkpt lat="45.49086" lon="6.71363">
        <ele>2372.9</ele>
        <time>2021-08-15T11:00:16Z</time>
      </trkpt>
      <trkpt lat="45.49086" lon="6.71362">
        <ele>2372.8</ele>
        <time>2021-08-15T11:00:17Z</time>
      </trkpt>
      <trkpt lat="45.49086" lon="6.71361">
        <ele>2372.7</ele>
        <time>2021-08-15T11:00:18Z</time>
      </trkpt>
      <trkpt lat="45.49087" lon="6.7136">
        <ele>2372.5</ele>
        <time>2021-08-15T11:00:19Z</time>
      </trkpt>
      <trkpt lat="45.49087" lon="6.71359">
        <ele>2372.4</ele>
        <time>2021-08-15T11:00:20Z</time>
      </trkpt>
      <trkpt lat="45.49087" lon="6.71358">
        <ele>2372.3</ele>
        <time>2021-08-15T11:00:21Z</time>
      </trkpt>
      <trkpt lat="45.49087" lon="6.71357">
        <ele>2372.1</ele>
        <time>2021-08-15T11:00:22Z</time>
      </trkpt>
      <trkpt lat="45.49087" lon="6.71356">
        <ele>2372</ele>
        <time>2021-08-15T11:00:23Z</time>
      </trkpt>
      <trkpt lat="45.49087" lon="6.71355">
        <ele>2371.9</ele>
        <time>2021-08-15T11:00:24Z</time>
      </trkpt>
      <trkpt lat="45.49088" lon="6.71354">
        <ele>2371.8</ele>
        <time>2021-08-15T11:00:25Z</time>
      </trkpt>
      <trkpt lat="45.49088" lon="6.71353">
        <ele>2371.6</ele>
        <time>2021-08-15T11:00:26Z</time>
      </trkpt>
      <trkpt lat="45.49088" lon="6.71353">
        <ele>2371.5</ele>
        <time>2021-08-15T11:00:27Z</time>
      </trkpt>
      <trkpt lat="45.49088" lon="6.71352">
        <ele>2371.4</ele>
        <time>2021-08-15T11:00:28Z</time>
      </trkpt>
      <trkpt lat="45.49088" lon="6.71351">
        <ele>2371.3</ele>
        <time>2021-08-15T11:00:29Z</time>
      </trkpt>
      <trkpt lat="45.49088" lon="6.7135">
        <ele>2371.1</ele>
        <time>2021-08-15T11:00:30Z</time>
      </trkpt>
      <trkpt lat="45.49089" lon="6.71349">
        <ele>2371</ele>
        <time>2021-08-15T11:00:31Z</time>
      </trkpt>
      <trkpt lat="45.49089" lon="6.71348">
        <ele>2370.9</ele>
        <time>2021-08-15T11:00:32Z</time>
      </trkpt>
      <trkpt lat="45.49089" lon="6.71347">
        <ele>2370.8</ele>
        <time>2021-08-15T11:00:33Z</time>
      </trkpt>
      <trkpt lat="45.49089" lon="6.71347">
        <ele>2370.7</ele>
        <time>2021-08-15T11:00:34Z</time>
      </trkpt>
      <trkpt lat="45.49089" lon="6.71346">
        <ele>2370.6</ele>
        <time>2021-08-15T11:00:35Z</time>
      </trkpt>
      <trkpt lat="45.49089" lon="6.71346">
        <ele>2370.6</ele>
        <time>2021-08-15T11:00:36Z</time>
      </trkpt>
      <trkpt lat="45.49089" lon="6.71345">
        <ele>2370.5</ele>
        <time>2021-08-15T11:00:37Z</time>
      </trkpt>
      <trkpt lat="45.49089" lon="6.71345">
        <ele>2370.4</ele>
        <time>2021-08-15T11:00:38Z</time>
      </trkpt>
      <trkpt lat="45.49089" lon="6.71344">
        <ele>2370.4</ele>
        <time>2021-08-15T11:00:39Z</time>
      </trkpt>
      <trkpt lat="45.49089" lon="6.71344">
        <ele>2370.4</ele>
        <time>2021-08-15T11:00:40Z</time>
      </trkpt>
      <trkpt lat="45.49089" lon="6.71344">
        <ele>2370.4</ele>
        <time>2021-08-15T11:00:41Z</time>
      </trkpt>
      <trkpt lat="45.49089" lon="6.71344">
        <ele>2370.3</ele>
        <time>2021-08-15T11:00:42Z</time>
      </trkpt>
      <trkpt lat="45.49089" lon="6.71344">
        <ele>2370.3</ele>
        <time>2021-08-15T11:00:43Z</time>
      </trkpt>
      <trkpt lat="45.49089" lon="6.71344">
        <ele>2370.3</ele>
        <time>2021-08-15T11:00:44Z</time>
      </trkpt>
      <trkpt lat="45.49089" lon="6.71343">
        <ele>2370.3</ele>
        <time>2021-08-15T11:00:45Z</time>
      </trkpt>
      <trkpt lat="45.49089" lon="6.71343">
        <ele>2370.2</ele>
        <time>2021-08-15T11:00:46Z</time>
      </trkpt>
      <trkpt lat="45.49089" lon="6.71342">
        <ele>2370.1</ele>
        <time>2021-08-15T11:00:47Z</time>
      </trkpt>
      <trkpt lat="45.49089" lon="6.71342">
        <ele>2370</ele>
        <time>2021-08-15T11:00:48Z</time>
      </trkpt>
      <trkpt lat="45.4909" lon="6.71341">
        <ele>2370</ele>
        <time>2021-08-15T11:00:49Z</time>
      </trkpt>
      <trkpt lat="45.4909" lon="6.7134">
        <ele>2369.9</ele>
        <time>2021-08-15T11:00:50Z</time>
      </trkpt>
      <trkpt lat="45.4909" lon="6.7134">
        <ele>2369.8</ele>
        <time>2021-08-15T11:00:51Z</time>
      </trkpt>
      <trkpt lat="45.4909" lon="6.71339">
        <ele>2369.7</ele>
        <time>2021-08-15T11:00:52Z</time>
      </trkpt>
      <trkpt lat="45.4909" lon="6.71338">
        <ele>2369.6</ele>
        <time>2021-08-15T11:00:53Z</time>
      </trkpt>
      <trkpt lat="45.4909" lon="6.71337">
        <ele>2369.4</ele>
        <time>2021-08-15T11:00:54Z</time>
      </trkpt>
      <trkpt lat="45.49091" lon="6.71337">
        <ele>2369.4</ele>
        <time>2021-08-15T11:00:55Z</time>
      </trkpt>
      <trkpt lat="45.49091" lon="6.71336">
        <ele>2369.2</ele>
        <time>2021-08-15T11:00:56Z</time>
      </trkpt>
      <trkpt lat="45.49091" lon="6.71336">
        <ele>2369.2</ele>
        <time>2021-08-15T11:00:57Z</time>
      </trkpt>
      <trkpt lat="45.49091" lon="6.71335">
        <ele>2369.1</ele>
        <time>2021-08-15T11:00:58Z</time>
      </trkpt>
      <trkpt lat="45.49092" lon="6.71335">
        <ele>2369</ele>
        <time>2021-08-15T11:00:59Z</time>
      </trkpt>
      <trkpt lat="45.49092" lon="6.71334">
        <ele>2368.9</ele>
        <time>2021-08-15T11:01:00Z</time>
      </trkpt>
      <trkpt lat="45.49092" lon="6.71333">
        <ele>2368.8</ele>
        <time>2021-08-15T11:01:01Z</time>
      </trkpt>
      <trkpt lat="45.49092" lon="6.71333">
        <ele>2368.7</ele>
        <time>2021-08-15T11:01:02Z</time>
      </trkpt>
      <trkpt lat="45.49092" lon="6.71332">
        <ele>2368.6</ele>
        <time>2021-08-15T11:01:03Z</time>
      </trkpt>
      <trkpt lat="45.49092" lon="6.71331">
        <ele>2368.5</ele>
        <time>2021-08-15T11:01:04Z</time>
      </trkpt>
      <trkpt lat="45.49092" lon="6.71331">
        <ele>2368.4</ele>
        <time>2021-08-15T11:01:05Z</time>
      </trkpt>
      <trkpt lat="45.49092" lon="6.7133">
        <ele>2368.3</ele>
        <time>2021-08-15T11:01:06Z</time>
      </trkpt>
      <trkpt lat="45.49092" lon="6.71329">
        <ele>2368.2</ele>
        <time>2021-08-15T11:01:07Z</time>
      </trkpt>
      <trkpt lat="45.49092" lon="6.71329">
        <ele>2368.1</ele>
        <time>2021-08-15T11:01:08Z</time>
      </trkpt>
      <trkpt lat="45.49092" lon="6.71328">
        <ele>2368</ele>
        <time>2021-08-15T11:01:09Z</time>
      </trkpt>
      <trkpt lat="45.49092" lon="6.71328">
        <ele>2367.9</ele>
        <time>2021-08-15T11:01:10Z</time>
      </trkpt>
      <trkpt lat="45.49092" lon="6.71327">
        <ele>2367.8</ele>
        <time>2021-08-15T11:01:11Z</time>
      </trkpt>
      <trkpt lat="45.49092" lon="6.71326">
        <ele>2367.7</ele>
        <time>2021-08-15T11:01:12Z</time>
      </trkpt>
      <trkpt lat="45.49092" lon="6.71326">
        <ele>2367.7</ele>
        <time>2021-08-15T11:01:13Z</time>
      </trkpt>
      <trkpt lat="45.49092" lon="6.71325">
        <ele>2367.6</ele>
        <time>2021-08-15T11:01:14Z</time>
      </trkpt>
      <trkpt lat="45.49092" lon="6.71325">
        <ele>2367.5</ele>
        <time>2021-08-15T11:01:15Z</time>
      </trkpt>
      <trkpt lat="45.49092" lon="6.71324">
        <ele>2367.4</ele>
        <time>2021-08-15T11:01:16Z</time>
      </trkpt>
      <trkpt lat="45.49092" lon="6.71324">
        <ele>2367.3</ele>
        <time>2021-08-15T11:01:17Z</time>
      </trkpt>
      <trkpt lat="45.49092" lon="6.71323">
        <ele>2367.3</ele>
        <time>2021-08-15T11:01:18Z</time>
      </trkpt>
      <trkpt lat="45.49092" lon="6.71323">
        <ele>2367.2</ele>
        <time>2021-08-15T11:01:19Z</time>
      </trkpt>
      <trkpt lat="45.49092" lon="6.71322">
        <ele>2367.1</ele>
        <time>2021-08-15T11:01:20Z</time>
      </trkpt>
      <trkpt lat="45.49092" lon="6.71322">
        <ele>2367</ele>
        <time>2021-08-15T11:01:21Z</time>
      </trkpt>
      <trkpt lat="45.49092" lon="6.71322">
        <ele>2367</ele>
        <time>2021-08-15T11:01:22Z</time>
      </trkpt>
      <trkpt lat="45.49092" lon="6.71321">
        <ele>2366.9</ele>
        <time>2021-08-15T11:01:23Z</time>
      </trkpt>
      <trkpt lat="45.49093" lon="6.71321">
        <ele>2366.8</ele>
        <time>2021-08-15T11:01:24Z</time>
      </trkpt>
      <trkpt lat="45.49093" lon="6.71321">
        <ele>2366.8</ele>
        <time>2021-08-15T11:01:25Z</time>
      </trkpt>
      <trkpt lat="45.49093" lon="6.7132">
        <ele>2366.7</ele>
        <time>2021-08-15T11:01:26Z</time>
      </trkpt>
      <trkpt lat="45.49093" lon="6.7132">
        <ele>2366.6</ele>
        <time>2021-08-15T11:01:27Z</time>
      </trkpt>
      <trkpt lat="45.49093" lon="6.7132">
        <ele>2366.6</ele>
        <time>2021-08-15T11:01:28Z</time>
      </trkpt>
      <trkpt lat="45.49093" lon="6.71319">
        <ele>2366.5</ele>
        <time>2021-08-15T11:01:29Z</time>
      </trkpt>
      <trkpt lat="45.49093" lon="6.71319">
        <ele>2366.5</ele>
        <time>2021-08-15T11:01:30Z</time>
      </trkpt>
      <trkpt lat="45.49093" lon="6.71318">
        <ele>2366.4</ele>
        <time>2021-08-15T11:01:31Z</time>
      </trkpt>
      <trkpt lat="45.49093" lon="6.71318">
        <ele>2366.3</ele>
        <time>2021-08-15T11:01:32Z</time>
      </trkpt>
      <trkpt lat="45.49093" lon="6.71317">
        <ele>2366.2</ele>
        <time>2021-08-15T11:01:33Z</time>
      </trkpt>
      <trkpt lat="45.49093" lon="6.71317">
        <ele>2366.1</ele>
        <time>2021-08-15T11:01:34Z</time>
      </trkpt>
      <trkpt lat="45.49093" lon="6.71316">
        <ele>2366</ele>
        <time>2021-08-15T11:01:35Z</time>
      </trkpt>
      <trkpt lat="45.49093" lon="6.71316">
        <ele>2365.9</ele>
        <time>2021-08-15T11:01:36Z</time>
      </trkpt>
      <trkpt lat="45.49093" lon="6.71315">
        <ele>2365.8</ele>
        <time>2021-08-15T11:01:37Z</time>
      </trkpt>
      <trkpt lat="45.49093" lon="6.71314">
        <ele>2365.6</ele>
        <time>2021-08-15T11:01:38Z</time>
      </trkpt>
      <trkpt lat="45.49092" lon="6.71314">
        <ele>2365.5</ele>
        <time>2021-08-15T11:01:39Z</time>
      </trkpt>
      <trkpt lat="45.49092" lon="6.71313">
        <ele>2365.4</ele>
        <time>2021-08-15T11:01:40Z</time>
      </trkpt>
      <trkpt lat="45.49092" lon="6.71312">
        <ele>2365.2</ele>
        <time>2021-08-15T11:01:41Z</time>
      </trkpt>
      <trkpt lat="45.49092" lon="6.71312">
        <ele>2365.1</ele>
        <time>2021-08-15T11:01:42Z</time>
      </trkpt>
      <trkpt lat="45.49092" lon="6.71311">
        <ele>2365</ele>
        <time>2021-08-15T11:01:43Z</time>
      </trkpt>
      <trkpt lat="45.49092" lon="6.7131">
        <ele>2364.9</ele>
        <time>2021-08-15T11:01:44Z</time>
      </trkpt>
      <trkpt lat="45.49092" lon="6.7131">
        <ele>2364.8</ele>
        <time>2021-08-15T11:01:45Z</time>
      </trkpt>
      <trkpt lat="45.49091" lon="6.71309">
        <ele>2364.6</ele>
        <time>2021-08-15T11:01:46Z</time>
      </trkpt>
      <trkpt lat="45.49091" lon="6.71309">
        <ele>2364.6</ele>
        <time>2021-08-15T11:01:47Z</time>
      </trkpt>
      <trkpt lat="45.49091" lon="6.71308">
        <ele>2364.5</ele>
        <time>2021-08-15T11:01:48Z</time>
      </trkpt>
      <trkpt lat="45.49091" lon="6.71308">
        <ele>2364.4</ele>
        <time>2021-08-15T11:01:49Z</time>
      </trkpt>
      <trkpt lat="45.49091" lon="6.71308">
        <ele>2364.3</ele>
        <time>2021-08-15T11:01:50Z</time>
      </trkpt>
      <trkpt lat="45.49091" lon="6.71307">
        <ele>2364.2</ele>
        <time>2021-08-15T11:01:51Z</time>
      </trkpt>
      <trkpt lat="45.49091" lon="6.71307">
        <ele>2364.2</ele>
        <time>2021-08-15T11:01:52Z</time>
      </trkpt>
      <trkpt lat="45.49091" lon="6.71307">
        <ele>2364.1</ele>
        <time>2021-08-15T11:01:53Z</time>
      </trkpt>
      <trkpt lat="45.49091" lon="6.71306">
        <ele>2364.1</ele>
        <time>2021-08-15T11:01:54Z</time>
      </trkpt>
      <trkpt lat="45.49091" lon="6.71306">
        <ele>2364</ele>
        <time>2021-08-15T11:01:55Z</time>
      </trkpt>
      <trkpt lat="45.49091" lon="6.71306">
        <ele>2364</ele>
        <time>2021-08-15T11:01:56Z</time>
      </trkpt>
      <trkpt lat="45.49091" lon="6.71306">
        <ele>2363.9</ele>
        <time>2021-08-15T11:01:57Z</time>
      </trkpt>
      <trkpt lat="45.49091" lon="6.71306">
        <ele>2363.9</ele>
        <time>2021-08-15T11:01:58Z</time>
      </trkpt>
      <trkpt lat="45.49091" lon="6.71305">
        <ele>2363.9</ele>
        <time>2021-08-15T11:01:59Z</time>
      </trkpt>
      <trkpt lat="45.49091" lon="6.71305">
        <ele>2363.8</ele>
        <time>2021-08-15T11:02:00Z</time>
      </trkpt>
      <trkpt lat="45.49091" lon="6.71305">
        <ele>2363.8</ele>
        <time>2021-08-15T11:02:01Z</time>
      </trkpt>
      <trkpt lat="45.49091" lon="6.71305">
        <ele>2363.8</ele>
        <time>2021-08-15T11:02:02Z</time>
      </trkpt>
      <trkpt lat="45.49091" lon="6.71305">
        <ele>2363.8</ele>
        <time>2021-08-15T11:02:03Z</time>
      </trkpt>
      <trkpt lat="45.49091" lon="6.71305">
        <ele>2363.8</ele>
        <time>2021-08-15T11:02:04Z</time>
      </trkpt>
      <trkpt lat="45.49091" lon="6.71305">
        <ele>2363.8</ele>
        <time>2021-08-15T11:02:05Z</time>
      </trkpt>
      <trkpt lat="45.49091" lon="6.71305">
        <ele>2363.8</ele>
        <time>2021-08-15T11:02:06Z</time>
      </trkpt>
      <trkpt lat="45.49091" lon="6.71305">
        <ele>2363.8</ele>
        <time>2021-08-15T11:02:07Z</time>
      </trkpt>
      <trkpt lat="45.49091" lon="6.71305">
        <ele>2363.8</ele>
        <time>2021-08-15T11:02:08Z</time>
      </trkpt>
      <trkpt lat="45.49091" lon="6.71305">
        <ele>2363.8</ele>
        <time>2021-08-15T11:02:09Z</time>
      </trkpt>
      <trkpt lat="45.49091" lon="6.71305">
        <ele>2363.8</ele>
        <time>2021-08-15T11:02:10Z</time>
      </trkpt>
      <trkpt lat="45.49091" lon="6.71305">
        <ele>2363.8</ele>
        <time>2021-08-15T11:02:11Z</time>
      </trkpt>
      <trkpt lat="45.49091" lon="6.71305">
        <ele>2363.8</ele>
        <time>2021-08-15T11:02:12Z</time>
      </trkpt>
      <trkpt lat="45.49091" lon="6.71305">
        <ele>2363.8</ele>
        <time>2021-08-15T11:02:13Z</time>
      </trkpt>
      <trkpt lat="45.49091" lon="6.71305">
        <ele>2363.8</ele>
        <time>2021-08-15T11:02:14Z</time>
      </trkpt>
      <trkpt lat="45.49091" lon="6.71305">
        <ele>2363.8</ele>
        <time>2021-08-15T11:02:15Z</time>
      </trkpt>
      <trkpt lat="45.49091" lon="6.71305">
        <ele>2363.8</ele>
        <time>2021-08-15T11:02:16Z</time>
      </trkpt>
      <trkpt lat="45.49091" lon="6.71305">
        <ele>2363.8</ele>
        <time>2021-08-15T11:02:17Z</time>
      </trkpt>
      <trkpt lat="45.49091" lon="6.71305">
        <ele>2363.7</ele>
        <time>2021-08-15T11:02:18Z</time>
      </trkpt>
      <trkpt lat="45.49091" lon="6.71305">
        <ele>2363.7</ele>
        <time>2021-08-15T11:02:19Z</time>
      </trkpt>
      <trkpt lat="45.49091" lon="6.71304">
        <ele>2363.7</ele>
        <time>2021-08-15T11:02:20Z</time>
      </trkpt>
      <trkpt lat="45.49091" lon="6.71304">
        <ele>2363.5</ele>
        <time>2021-08-15T11:02:21Z</time>
      </trkpt>
      <trkpt lat="45.49091" lon="6.71302">
        <ele>2363.2</ele>
        <time>2021-08-15T11:02:22Z</time>
      </trkpt>
      <trkpt lat="45.49091" lon="6.71301">
        <ele>2362.9</ele>
        <time>2021-08-15T11:02:23Z</time>
      </trkpt>
      <trkpt lat="45.49091" lon="6.71299">
        <ele>2362.6</ele>
        <time>2021-08-15T11:02:24Z</time>
      </trkpt>
      <trkpt lat="45.49091" lon="6.71298">
        <ele>2362.4</ele>
        <time>2021-08-15T11:02:25Z</time>
      </trkpt>
      <trkpt lat="45.49091" lon="6.71297">
        <ele>2362.2</ele>
        <time>2021-08-15T11:02:26Z</time>
      </trkpt>
      <trkpt lat="45.49091" lon="6.71296">
        <ele>2362</ele>
        <time>2021-08-15T11:02:27Z</time>
      </trkpt>
      <trkpt lat="45.49091" lon="6.71295">
        <ele>2361.9</ele>
        <time>2021-08-15T11:02:28Z</time>
      </trkpt>
      <trkpt lat="45.49091" lon="6.71295">
        <ele>2361.8</ele>
        <time>2021-08-15T11:02:29Z</time>
      </trkpt>
      <trkpt lat="45.49091" lon="6.71294">
        <ele>2361.7</ele>
        <time>2021-08-15T11:02:30Z</time>
      </trkpt>
      <trkpt lat="45.49091" lon="6.71294">
        <ele>2361.6</ele>
        <time>2021-08-15T11:02:31Z</time>
      </trkpt>
      <trkpt lat="45.49091" lon="6.71293">
        <ele>2361.5</ele>
        <time>2021-08-15T11:02:32Z</time>
      </trkpt>
      <trkpt lat="45.49091" lon="6.71293">
        <ele>2361.4</ele>
        <time>2021-08-15T11:02:33Z</time>
      </trkpt>
      <trkpt lat="45.49091" lon="6.71293">
        <ele>2361.3</ele>
        <time>2021-08-15T11:02:34Z</time>
      </trkpt>
      <trkpt lat="45.49091" lon="6.71292">
        <ele>2361.3</ele>
        <time>2021-08-15T11:02:35Z</time>
      </trkpt>
      <trkpt lat="45.49091" lon="6.71292">
        <ele>2361.2</ele>
        <time>2021-08-15T11:02:36Z</time>
      </trkpt>
      <trkpt lat="45.49091" lon="6.71291">
        <ele>2361.1</ele>
        <time>2021-08-15T11:02:37Z</time>
      </trkpt>
      <trkpt lat="45.49092" lon="6.71291">
        <ele>2361</ele>
        <time>2021-08-15T11:02:38Z</time>
      </trkpt>
      <trkpt lat="45.49092" lon="6.7129">
        <ele>2360.8</ele>
        <time>2021-08-15T11:02:39Z</time>
      </trkpt>
      <trkpt lat="45.49092" lon="6.7129">
        <ele>2360.7</ele>
        <time>2021-08-15T11:02:40Z</time>
      </trkpt>
      <trkpt lat="45.49092" lon="6.71289">
        <ele>2360.6</ele>
        <time>2021-08-15T11:02:41Z</time>
      </trkpt>
      <trkpt lat="45.49092" lon="6.71288">
        <ele>2360.4</ele>
        <time>2021-08-15T11:02:42Z</time>
      </trkpt>
      <trkpt lat="45.49092" lon="6.71287">
        <ele>2360.3</ele>
        <time>2021-08-15T11:02:43Z</time>
      </trkpt>
      <trkpt lat="45.49092" lon="6.71287">
        <ele>2360.1</ele>
        <time>2021-08-15T11:02:44Z</time>
      </trkpt>
      <trkpt lat="45.49092" lon="6.71286">
        <ele>2360</ele>
        <time>2021-08-15T11:02:45Z</time>
      </trkpt>
      <trkpt lat="45.49092" lon="6.71285">
        <ele>2359.8</ele>
        <time>2021-08-15T11:02:46Z</time>
      </trkpt>
      <trkpt lat="45.49092" lon="6.71284">
        <ele>2359.6</ele>
        <time>2021-08-15T11:02:47Z</time>
      </trkpt>
      <trkpt lat="45.49092" lon="6.71283">
        <ele>2359.4</ele>
        <time>2021-08-15T11:02:48Z</time>
      </trkpt>
      <trkpt lat="45.49092" lon="6.71282">
        <ele>2359.2</ele>
        <time>2021-08-15T11:02:49Z</time>
      </trkpt>
      <trkpt lat="45.49092" lon="6.71281">
        <ele>2359</ele>
        <time>2021-08-15T11:02:50Z</time>
      </trkpt>
      <trkpt lat="45.49092" lon="6.7128">
        <ele>2358.8</ele>
        <time>2021-08-15T11:02:51Z</time>
      </trkpt>
      <trkpt lat="45.49092" lon="6.71279">
        <ele>2358.6</ele>
        <time>2021-08-15T11:02:52Z</time>
      </trkpt>
      <trkpt lat="45.49091" lon="6.71277">
        <ele>2358.4</ele>
        <time>2021-08-15T11:02:53Z</time>
      </trkpt>
      <trkpt lat="45.49091" lon="6.71276">
        <ele>2358.2</ele>
        <time>2021-08-15T11:02:54Z</time>
      </trkpt>
      <trkpt lat="45.49091" lon="6.71275">
        <ele>2358</ele>
        <time>2021-08-15T11:02:55Z</time>
      </trkpt>
      <trkpt lat="45.49091" lon="6.71274">
        <ele>2357.8</ele>
        <time>2021-08-15T11:02:56Z</time>
      </trkpt>
      <trkpt lat="45.49091" lon="6.71272">
        <ele>2357.5</ele>
        <time>2021-08-15T11:02:57Z</time>
      </trkpt>
      <trkpt lat="45.4909" lon="6.71271">
        <ele>2357.3</ele>
        <time>2021-08-15T11:02:58Z</time>
      </trkpt>
      <trkpt lat="45.4909" lon="6.7127">
        <ele>2357.1</ele>
        <time>2021-08-15T11:02:59Z</time>
      </trkpt>
      <trkpt lat="45.4909" lon="6.71268">
        <ele>2356.9</ele>
        <time>2021-08-15T11:03:00Z</time>
      </trkpt>
      <trkpt lat="45.49089" lon="6.71267">
        <ele>2356.7</ele>
        <time>2021-08-15T11:03:01Z</time>
      </trkpt>
      <trkpt lat="45.49089" lon="6.71266">
        <ele>2356.5</ele>
        <time>2021-08-15T11:03:02Z</time>
      </trkpt>
      <trkpt lat="45.49088" lon="6.71264">
        <ele>2356.3</ele>
        <time>2021-08-15T11:03:03Z</time>
      </trkpt>
      <trkpt lat="45.49088" lon="6.71263">
        <ele>2356.1</ele>
        <time>2021-08-15T11:03:04Z</time>
      </trkpt>
      <trkpt lat="45.49087" lon="6.71261">
        <ele>2355.9</ele>
        <time>2021-08-15T11:03:05Z</time>
      </trkpt>
      <trkpt lat="45.49087" lon="6.7126">
        <ele>2355.7</ele>
        <time>2021-08-15T11:03:06Z</time>
      </trkpt>
      <trkpt lat="45.49086" lon="6.71258">
        <ele>2355.5</ele>
        <time>2021-08-15T11:03:07Z</time>
      </trkpt>
      <trkpt lat="45.49086" lon="6.71257">
        <ele>2355.4</ele>
        <time>2021-08-15T11:03:08Z</time>
      </trkpt>
      <trkpt lat="45.49085" lon="6.71256">
        <ele>2355.2</ele>
        <time>2021-08-15T11:03:09Z</time>
      </trkpt>
      <trkpt lat="45.49085" lon="6.71254">
        <ele>2355.1</ele>
        <time>2021-08-15T11:03:10Z</time>
      </trkpt>
      <trkpt lat="45.49084" lon="6.71253">
        <ele>2354.9</ele>
        <time>2021-08-15T11:03:11Z</time>
      </trkpt>
      <trkpt lat="45.49084" lon="6.71251">
        <ele>2354.8</ele>
        <time>2021-08-15T11:03:12Z</time>
      </trkpt>
      <trkpt lat="45.49083" lon="6.7125">
        <ele>2354.7</ele>
        <time>2021-08-15T11:03:13Z</time>
      </trkpt>
      <trkpt lat="45.49083" lon="6.71249">
        <ele>2354.5</ele>
        <time>2021-08-15T11:03:14Z</time>
      </trkpt>
      <trkpt lat="45.49082" lon="6.71247">
        <ele>2354.4</ele>
        <time>2021-08-15T11:03:15Z</time>
      </trkpt>
      <trkpt lat="45.49082" lon="6.71246">
        <ele>2354.3</ele>
        <time>2021-08-15T11:03:16Z</time>
      </trkpt>
      <trkpt lat="45.49082" lon="6.71245">
        <ele>2354.2</ele>
        <time>2021-08-15T11:03:17Z</time>
      </trkpt>
      <trkpt lat="45.49082" lon="6.71243">
        <ele>2354.1</ele>
        <time>2021-08-15T11:03:18Z</time>
      </trkpt>
      <trkpt lat="45.49082" lon="6.71242">
        <ele>2354</ele>
        <time>2021-08-15T11:03:19Z</time>
      </trkpt>
      <trkpt lat="45.49082" lon="6.71241">
        <ele>2353.9</ele>
        <time>2021-08-15T11:03:20Z</time>
      </trkpt>
      <trkpt lat="45.49082" lon="6.7124">
        <ele>2353.9</ele>
        <time>2021-08-15T11:03:21Z</time>
      </trkpt>
      <trkpt lat="45.49082" lon="6.71239">
        <ele>2353.8</ele>
        <time>2021-08-15T11:03:22Z</time>
      </trkpt>
      <trkpt lat="45.49082" lon="6.71238">
        <ele>2353.7</ele>
        <time>2021-08-15T11:03:23Z</time>
      </trkpt>
      <trkpt lat="45.49083" lon="6.71237">
        <ele>2353.6</ele>
        <time>2021-08-15T11:03:24Z</time>
      </trkpt>
      <trkpt lat="45.49083" lon="6.71236">
        <ele>2353.5</ele>
        <time>2021-08-15T11:03:25Z</time>
      </trkpt>
      <trkpt lat="45.49084" lon="6.71235">
        <ele>2353.4</ele>
        <time>2021-08-15T11:03:26Z</time>
      </trkpt>
      <trkpt lat="45.49084" lon="6.71234">
        <ele>2353.3</ele>
        <time>2021-08-15T11:03:27Z</time>
      </trkpt>
      <trkpt lat="45.49085" lon="6.71233">
        <ele>2353.2</ele>
        <time>2021-08-15T11:03:28Z</time>
      </trkpt>
      <trkpt lat="45.49086" lon="6.71232">
        <ele>2353.1</ele>
        <time>2021-08-15T11:03:29Z</time>
      </trkpt>
      <trkpt lat="45.49087" lon="6.71231">
        <ele>2353</ele>
        <time>2021-08-15T11:03:30Z</time>
      </trkpt>
      <trkpt lat="45.49088" lon="6.71231">
        <ele>2352.9</ele>
        <time>2021-08-15T11:03:31Z</time>
      </trkpt>
      <trkpt lat="45.49089" lon="6.7123">
        <ele>2352.8</ele>
        <time>2021-08-15T11:03:32Z</time>
      </trkpt>
      <trkpt lat="45.49089" lon="6.71229">
        <ele>2352.7</ele>
        <time>2021-08-15T11:03:33Z</time>
      </trkpt>
      <trkpt lat="45.4909" lon="6.71228">
        <ele>2352.6</ele>
        <time>2021-08-15T11:03:34Z</time>
      </trkpt>
      <trkpt lat="45.49091" lon="6.71227">
        <ele>2352.5</ele>
        <time>2021-08-15T11:03:35Z</time>
      </trkpt>
      <trkpt lat="45.49092" lon="6.71227">
        <ele>2352.4</ele>
        <time>2021-08-15T11:03:36Z</time>
      </trkpt>
      <trkpt lat="45.49093" lon="6.71226">
        <ele>2352.3</ele>
        <time>2021-08-15T11:03:37Z</time>
      </trkpt>
      <trkpt lat="45.49094" lon="6.71225">
        <ele>2352.3</ele>
        <time>2021-08-15T11:03:38Z</time>
      </trkpt>
      <trkpt lat="45.49095" lon="6.71224">
        <ele>2352.2</ele>
        <time>2021-08-15T11:03:39Z</time>
      </trkpt>
      <trkpt lat="45.49095" lon="6.71224">
        <ele>2352.1</ele>
        <time>2021-08-15T11:03:40Z</time>
      </trkpt>
      <trkpt lat="45.49096" lon="6.71223">
        <ele>2352</ele>
        <time>2021-08-15T11:03:41Z</time>
      </trkpt>
      <trkpt lat="45.49097" lon="6.71222">
        <ele>2351.9</ele>
        <time>2021-08-15T11:03:42Z</time>
      </trkpt>
      <trkpt lat="45.49097" lon="6.71221">
        <ele>2351.9</ele>
        <time>2021-08-15T11:03:43Z</time>
      </trkpt>
      <trkpt lat="45.49098" lon="6.7122">
        <ele>2351.8</ele>
        <time>2021-08-15T11:03:44Z</time>
      </trkpt>
      <trkpt lat="45.49098" lon="6.71219">
        <ele>2351.8</ele>
        <time>2021-08-15T11:03:45Z</time>
      </trkpt>
      <trkpt lat="45.49099" lon="6.71218">
        <ele>2351.7</ele>
        <time>2021-08-15T11:03:46Z</time>
      </trkpt>
      <trkpt lat="45.49099" lon="6.71217">
        <ele>2351.6</ele>
        <time>2021-08-15T11:03:47Z</time>
      </trkpt>
      <trkpt lat="45.49099" lon="6.71217">
        <ele>2351.6</ele>
        <time>2021-08-15T11:03:48Z</time>
      </trkpt>
      <trkpt lat="45.491" lon="6.71216">
        <ele>2351.6</ele>
        <time>2021-08-15T11:03:49Z</time>
      </trkpt>
      <trkpt lat="45.491" lon="6.71215">
        <ele>2351.5</ele>
        <time>2021-08-15T11:03:50Z</time>
      </trkpt>
      <trkpt lat="45.491" lon="6.71214">
        <ele>2351.5</ele>
        <time>2021-08-15T11:03:51Z</time>
      </trkpt>
      <trkpt lat="45.491" lon="6.71213">
        <ele>2351.4</ele>
        <time>2021-08-15T11:03:52Z</time>
      </trkpt>
      <trkpt lat="45.491" lon="6.71213">
        <ele>2351.4</ele>
        <time>2021-08-15T11:03:53Z</time>
      </trkpt>
      <trkpt lat="45.491" lon="6.71212">
        <ele>2351.4</ele>
        <time>2021-08-15T11:03:54Z</time>
      </trkpt>
      <trkpt lat="45.491" lon="6.71212">
        <ele>2351.4</ele>
        <time>2021-08-15T11:03:55Z</time>
      </trkpt>
      <trkpt lat="45.491" lon="6.71211">
        <ele>2351.3</ele>
        <time>2021-08-15T11:03:56Z</time>
      </trkpt>
      <trkpt lat="45.491" lon="6.71211">
        <ele>2351.3</ele>
        <time>2021-08-15T11:03:57Z</time>
      </trkpt>
      <trkpt lat="45.491" lon="6.7121">
        <ele>2351.3</ele>
        <time>2021-08-15T11:03:58Z</time>
      </trkpt>
      <trkpt lat="45.491" lon="6.7121">
        <ele>2351.3</ele>
        <time>2021-08-15T11:03:59Z</time>
      </trkpt>
      <trkpt lat="45.491" lon="6.7121">
        <ele>2351.3</ele>
        <time>2021-08-15T11:04:00Z</time>
      </trkpt>
      <trkpt lat="45.491" lon="6.71209">
        <ele>2351.2</ele>
        <time>2021-08-15T11:04:01Z</time>
      </trkpt>
      <trkpt lat="45.491" lon="6.71209">
        <ele>2351.2</ele>
        <time>2021-08-15T11:04:02Z</time>
      </trkpt>
      <trkpt lat="45.491" lon="6.71209">
        <ele>2351.2</ele>
        <time>2021-08-15T11:04:03Z</time>
      </trkpt>
      <trkpt lat="45.491" lon="6.71209">
        <ele>2351.2</ele>
        <time>2021-08-15T11:04:04Z</time>
      </trkpt>
      <trkpt lat="45.491" lon="6.71208">
        <ele>2351.2</ele>
        <time>2021-08-15T11:04:05Z</time>
      </trkpt>
      <trkpt lat="45.491" lon="6.71208">
        <ele>2351.2</ele>
        <time>2021-08-15T11:04:06Z</time>
      </trkpt>
      <trkpt lat="45.491" lon="6.71208">
        <ele>2351.2</ele>
        <time>2021-08-15T11:04:07Z</time>
      </trkpt>
      <trkpt lat="45.491" lon="6.71208">
        <ele>2351.2</ele>
        <time>2021-08-15T11:04:08Z</time>
      </trkpt>
      <trkpt lat="45.491" lon="6.71208">
        <ele>2351.2</ele>
        <time>2021-08-15T11:04:09Z</time>
      </trkpt>
      <trkpt lat="45.491" lon="6.71208">
        <ele>2351.2</ele>
        <time>2021-08-15T11:04:10Z</time>
      </trkpt>
      <trkpt lat="45.491" lon="6.71208">
        <ele>2351.2</ele>
        <time>2021-08-15T11:04:11Z</time>
      </trkpt>
      <trkpt lat="45.491" lon="6.71208">
        <ele>2351.2</ele>
        <time>2021-08-15T11:04:12Z</time>
      </trkpt>
      <trkpt lat="45.491" lon="6.71208">
        <ele>2351.2</ele>
        <time>2021-08-15T11:04:13Z</time>
      </trkpt>
      <trkpt lat="45.491" lon="6.71208">
        <ele>2351.2</ele>
        <time>2021-08-15T11:04:14Z</time>
      </trkpt>
      <trkpt lat="45.491" lon="6.71208">
        <ele>2351.2</ele>
        <time>2021-08-15T11:04:15Z</time>
      </trkpt>
      <trkpt lat="45.491" lon="6.71208">
        <ele>2351.2</ele>
        <time>2021-08-15T11:04:16Z</time>
      </trkpt>
      <trkpt lat="45.491" lon="6.71208">
        <ele>2351.2</ele>
        <time>2021-08-15T11:04:17Z</time>
      </trkpt>
      <trkpt lat="45.491" lon="6.71208">
        <ele>2351.2</ele>
        <time>2021-08-15T11:04:18Z</time>
      </trkpt>
      <trkpt lat="45.491" lon="6.71208">
        <ele>2351.2</ele>
        <time>2021-08-15T11:04:19Z</time>
      </trkpt>
      <trkpt lat="45.491" lon="6.71208">
        <ele>2351.2</ele>
        <time>2021-08-15T11:04:20Z</time>
      </trkpt>
      <trkpt lat="45.491" lon="6.71208">
        <ele>2351.2</ele>
        <time>2021-08-15T11:04:21Z</time>
      </trkpt>
      <trkpt lat="45.491" lon="6.71208">
        <ele>2351.2</ele>
        <time>2021-08-15T11:04:22Z</time>
      </trkpt>
      <trkpt lat="45.491" lon="6.71208">
        <ele>2351.2</ele>
        <time>2021-08-15T11:04:23Z</time>
      </trkpt>
      <trkpt lat="45.491" lon="6.71208">
        <ele>2351.2</ele>
        <time>2021-08-15T11:04:24Z</time>
      </trkpt>
      <trkpt lat="45.491" lon="6.71208">
        <ele>2351.2</ele>
        <time>2021-08-15T11:04:25Z</time>
      </trkpt>
      <trkpt lat="45.491" lon="6.71208">
        <ele>2351.2</ele>
        <time>2021-08-15T11:04:26Z</time>
      </trkpt>
      <trkpt lat="45.491" lon="6.71208">
        <ele>2351.2</ele>
        <time>2021-08-15T11:04:27Z</time>
      </trkpt>
      <trkpt lat="45.491" lon="6.71208">
        <ele>2351.2</ele>
        <time>2021-08-15T11:04:28Z</time>
      </trkpt>
      <trkpt lat="45.491" lon="6.71208">
        <ele>2351.2</ele>
        <time>2021-08-15T11:04:29Z</time>
      </trkpt>
      <trkpt lat="45.491" lon="6.71208">
        <ele>2351.2</ele>
        <time>2021-08-15T11:04:30Z</time>
      </trkpt>
      <trkpt lat="45.491" lon="6.71208">
        <ele>2351.2</ele>
        <time>2021-08-15T11:04:31Z</time>
      </trkpt>
      <trkpt lat="45.491" lon="6.71208">
        <ele>2351.2</ele>
        <time>2021-08-15T11:04:32Z</time>
      </trkpt>
      <trkpt lat="45.491" lon="6.71208">
        <ele>2351.2</ele>
        <time>2021-08-15T11:04:33Z</time>
      </trkpt>
      <trkpt lat="45.491" lon="6.71208">
        <ele>2351.2</ele>
        <time>2021-08-15T11:04:34Z</time>
      </trkpt>
      <trkpt lat="45.491" lon="6.71208">
        <ele>2351.2</ele>
        <time>2021-08-15T11:04:35Z</time>
      </trkpt>
      <trkpt lat="45.491" lon="6.71208">
        <ele>2351.2</ele>
        <time>2021-08-15T11:04:36Z</time>
      </trkpt>
      <trkpt lat="45.491" lon="6.71208">
        <ele>2351.2</ele>
        <time>2021-08-15T11:04:37Z</time>
      </trkpt>
      <trkpt lat="45.491" lon="6.71208">
        <ele>2351.2</ele>
        <time>2021-08-15T11:04:38Z</time>
      </trkpt>
      <trkpt lat="45.491" lon="6.71208">
        <ele>2351.2</ele>
        <time>2021-08-15T11:04:39Z</time>
      </trkpt>
      <trkpt lat="45.491" lon="6.71208">
        <ele>2351.2</ele>
        <time>2021-08-15T11:04:40Z</time>
      </trkpt>
      <trkpt lat="45.491" lon="6.71208">
        <ele>2351.2</ele>
        <time>2021-08-15T11:04:41Z</time>
      </trkpt>
      <trkpt lat="45.491" lon="6.71208">
        <ele>2351.2</ele>
        <time>2021-08-15T11:04:42Z</time>
      </trkpt>
      <trkpt lat="45.491" lon="6.71208">
        <ele>2351.2</ele>
        <time>2021-08-15T11:04:43Z</time>
      </trkpt>
      <trkpt lat="45.491" lon="6.71208">
        <ele>2351.2</ele>
        <time>2021-08-15T11:04:44Z</time>
      </trkpt>
      <trkpt lat="45.491" lon="6.71208">
        <ele>2351.2</ele>
        <time>2021-08-15T11:04:45Z</time>
      </trkpt>
      <trkpt lat="45.491" lon="6.71208">
        <ele>2351.2</ele>
        <time>2021-08-15T11:04:46Z</time>
      </trkpt>
      <trkpt lat="45.491" lon="6.71208">
        <ele>2351.2</ele>
        <time>2021-08-15T11:04:47Z</time>
      </trkpt>
      <trkpt lat="45.491" lon="6.71208">
        <ele>2351.2</ele>
        <time>2021-08-15T11:04:48Z</time>
      </trkpt>
      <trkpt lat="45.491" lon="6.71208">
        <ele>2351.2</ele>
        <time>2021-08-15T11:04:49Z</time>
      </trkpt>
      <trkpt lat="45.491" lon="6.71208">
        <ele>2351.2</ele>
        <time>2021-08-15T11:04:50Z</time>
      </trkpt>
      <trkpt lat="45.491" lon="6.71208">
        <ele>2351.2</ele>
        <time>2021-08-15T11:04:51Z</time>
      </trkpt>
      <trkpt lat="45.491" lon="6.71208">
        <ele>2351.2</ele>
        <time>2021-08-15T11:04:52Z</time>
      </trkpt>
      <trkpt lat="45.491" lon="6.71208">
        <ele>2351.2</ele>
        <time>2021-08-15T11:04:53Z</time>
      </trkpt>
      <trkpt lat="45.491" lon="6.71208">
        <ele>2351.2</ele>
        <time>2021-08-15T11:04:54Z</time>
      </trkpt>
      <trkpt lat="45.491" lon="6.71208">
        <ele>2351.2</ele>
        <time>2021-08-15T11:04:55Z</time>
      </trkpt>
      <trkpt lat="45.491" lon="6.71208">
        <ele>2351.2</ele>
        <time>2021-08-15T11:04:56Z</time>
      </trkpt>
      <trkpt lat="45.491" lon="6.71208">
        <ele>2351.2</ele>
        <time>2021-08-15T11:04:57Z</time>
      </trkpt>
      <trkpt lat="45.491" lon="6.71208">
        <ele>2351.2</ele>
        <time>2021-08-15T11:04:58Z</time>
      </trkpt>
      <trkpt lat="45.491" lon="6.71208">
        <ele>2351.2</ele>
        <time>2021-08-15T11:04:59Z</time>
      </trkpt>
      <trkpt lat="45.491" lon="6.71208">
        <ele>2351.2</ele>
        <time>2021-08-15T11:05:00Z</time>
      </trkpt>
      <trkpt lat="45.491" lon="6.71208">
        <ele>2351.2</ele>
        <time>2021-08-15T11:05:01Z</time>
      </trkpt>
      <trkpt lat="45.491" lon="6.71208">
        <ele>2351.2</ele>
        <time>2021-08-15T11:05:02Z</time>
      </trkpt>
      <trkpt lat="45.491" lon="6.71208">
        <ele>2351.2</ele>
        <time>2021-08-15T11:05:03Z</time>
      </trkpt>
      <trkpt lat="45.491" lon="6.71208">
        <ele>2351.2</ele>
        <time>2021-08-15T11:05:04Z</time>
      </trkpt>
      <trkpt lat="45.491" lon="6.71208">
        <ele>2351.2</ele>
        <time>2021-08-15T11:05:05Z</time>
      </trkpt>
      <trkpt lat="45.491" lon="6.71208">
        <ele>2351.2</ele>
        <time>2021-08-15T11:05:06Z</time>
      </trkpt>
      <trkpt lat="45.491" lon="6.71208">
        <ele>2351.2</ele>
        <time>2021-08-15T11:05:07Z</time>
      </trkpt>
      <trkpt lat="45.491" lon="6.71208">
        <ele>2351.2</ele>
        <time>2021-08-15T11:05:08Z</time>
      </trkpt>
      <trkpt lat="45.491" lon="6.71208">
        <ele>2351.2</ele>
        <time>2021-08-15T11:05:09Z</time>
      </trkpt>
      <trkpt lat="45.491" lon="6.71208">
        <ele>2351.2</ele>
        <time>2021-08-15T11:05:10Z</time>
      </trkpt>
      <trkpt lat="45.491" lon="6.71208">
        <ele>2351.2</ele>
        <time>2021-08-15T11:05:11Z</time>
      </trkpt>
      <trkpt lat="45.491" lon="6.71208">
        <ele>2351.2</ele>
        <time>2021-08-15T11:05:12Z</time>
      </trkpt>
      <trkpt lat="45.491" lon="6.71208">
        <ele>2351.2</ele>
        <time>2021-08-15T11:05:13Z</time>
      </trkpt>
      <trkpt lat="45.491" lon="6.71208">
        <ele>2351.2</ele>
        <time>2021-08-15T11:05:14Z</time>
      </trkpt>
      <trkpt lat="45.491" lon="6.71208">
        <ele>2351.2</ele>
        <time>2021-08-15T11:05:15Z</time>
      </trkpt>
      <trkpt lat="45.491" lon="6.71208">
        <ele>2351.2</ele>
        <time>2021-08-15T11:05:16Z</time>
      </trkpt>
      <trkpt lat="45.491" lon="6.71208">
        <ele>2351.2</ele>
        <time>2021-08-15T11:05:17Z</time>
      </trkpt>
      <trkpt lat="45.491" lon="6.71208">
        <ele>2351.2</ele>
        <time>2021-08-15T11:05:18Z</time>
      </trkpt>
      <trkpt lat="45.491" lon="6.71208">
        <ele>2351.2</ele>
        <time>2021-08-15T11:05:19Z</time>
      </trkpt>
      <trkpt lat="45.491" lon="6.71208">
        <ele>2351.2</ele>
        <time>2021-08-15T11:05:20Z</time>
      </trkpt>
      <trkpt lat="45.491" lon="6.71208">
        <ele>2351.2</ele>
        <time>2021-08-15T11:05:21Z</time>
      </trkpt>
      <trkpt lat="45.491" lon="6.71208">
        <ele>2351.2</ele>
        <time>2021-08-15T11:05:22Z</time>
      </trkpt>
      <trkpt lat="45.491" lon="6.71208">
        <ele>2351.2</ele>
        <time>2021-08-15T11:05:23Z</time>
      </trkpt>
      <trkpt lat="45.491" lon="6.71208">
        <ele>2351.2</ele>
        <time>2021-08-15T11:05:24Z</time>
      </trkpt>
      <trkpt lat="45.491" lon="6.71208">
        <ele>2351.2</ele>
        <time>2021-08-15T11:05:25Z</time>
      </trkpt>
      <trkpt lat="45.491" lon="6.71208">
        <ele>2351.2</ele>
        <time>2021-08-15T11:05:26Z</time>
      </trkpt>
      <trkpt lat="45.491" lon="6.71208">
        <ele>2351.2</ele>
        <time>2021-08-15T11:05:27Z</time>
      </trkpt>
      <trkpt lat="45.491" lon="6.71208">
        <ele>2351.2</ele>
        <time>2021-08-15T11:05:28Z</time>
      </trkpt>
      <trkpt lat="45.491" lon="6.71208">
        <ele>2351.2</ele>
        <time>2021-08-15T11:05:29Z</time>
      </trkpt>
      <trkpt lat="45.491" lon="6.71208">
        <ele>2351.2</ele>
        <time>2021-08-15T11:05:30Z</time>
      </trkpt>
      <trkpt lat="45.491" lon="6.71208">
        <ele>2351.2</ele>
        <time>2021-08-15T11:05:31Z</time>
      </trkpt>
      <trkpt lat="45.491" lon="6.71208">
        <ele>2351.2</ele>
        <time>2021-08-15T11:05:32Z</time>
      </trkpt>
      <trkpt lat="45.491" lon="6.71208">
        <ele>2351.2</ele>
        <time>2021-08-15T11:05:33Z</time>
      </trkpt>
      <trkpt lat="45.491" lon="6.71208">
        <ele>2351.2</ele>
        <time>2021-08-15T11:05:34Z</time>
      </trkpt>
      <trkpt lat="45.491" lon="6.71208">
        <ele>2351.2</ele>
        <time>2021-08-15T11:05:35Z</time>
      </trkpt>
      <trkpt lat="45.491" lon="6.71208">
        <ele>2351.2</ele>
        <time>2021-08-15T11:05:36Z</time>
      </trkpt>
      <trkpt lat="45.491" lon="6.71208">
        <ele>2351.2</ele>
        <time>2021-08-15T11:05:37Z</time>
      </trkpt>
      <trkpt lat="45.491" lon="6.71208">
        <ele>2351.2</ele>
        <time>2021-08-15T11:05:38Z</time>
      </trkpt>
      <trkpt lat="45.491" lon="6.71208">
        <ele>2351.2</ele>
        <time>2021-08-15T11:05:39Z</time>
      </trkpt>
      <trkpt lat="45.491" lon="6.71208">
        <ele>2351.2</ele>
        <time>2021-08-15T11:05:40Z</time>
      </trkpt>
      <trkpt lat="45.491" lon="6.71208">
        <ele>2351.2</ele>
        <time>2021-08-15T11:05:41Z</time>
      </trkpt>
      <trkpt lat="45.491" lon="6.71208">
        <ele>2351.2</ele>
        <time>2021-08-15T11:05:42Z</time>
      </trkpt>
      <trkpt lat="45.491" lon="6.71208">
        <ele>2351.2</ele>
        <time>2021-08-15T11:05:43Z</time>
      </trkpt>
      <trkpt lat="45.491" lon="6.71208">
        <ele>2351.2</ele>
        <time>2021-08-15T11:05:44Z</time>
      </trkpt>
      <trkpt lat="45.491" lon="6.71208">
        <ele>2351.2</ele>
        <time>2021-08-15T11:05:45Z</time>
      </trkpt>
      <trkpt lat="45.491" lon="6.71208">
        <ele>2351.2</ele>
        <time>2021-08-15T11:05:46Z</time>
      </trkpt>
      <trkpt lat="45.491" lon="6.71208">
        <ele>2351.2</ele>
        <time>2021-08-15T11:05:47Z</time>
      </trkpt>
      <trkpt lat="45.491" lon="6.71208">
        <ele>2351.2</ele>
        <time>2021-08-15T11:05:48Z</time>
      </trkpt>
      <trkpt lat="45.491" lon="6.71208">
        <ele>2351.2</ele>
        <time>2021-08-15T11:05:49Z</time>
      </trkpt>
      <trkpt lat="45.491" lon="6.71208">
        <ele>2351.2</ele>
        <time>2021-08-15T11:05:50Z</time>
      </trkpt>
      <trkpt lat="45.491" lon="6.71208">
        <ele>2351.2</ele>
        <time>2021-08-15T11:05:51Z</time>
      </trkpt>
      <trkpt lat="45.491" lon="6.71208">
        <ele>2351.2</ele>
        <time>2021-08-15T11:05:52Z</time>
      </trkpt>
      <trkpt lat="45.491" lon="6.71208">
        <ele>2351.2</ele>
        <time>2021-08-15T11:05:53Z</time>
      </trkpt>
      <trkpt lat="45.491" lon="6.71208">
        <ele>2351.2</ele>
        <time>2021-08-15T11:05:54Z</time>
      </trkpt>
      <trkpt lat="45.491" lon="6.71208">
        <ele>2351.2</ele>
        <time>2021-08-15T11:05:55Z</time>
      </trkpt>
      <trkpt lat="45.491" lon="6.71208">
        <ele>2351.2</ele>
        <time>2021-08-15T11:05:56Z</time>
      </trkpt>
      <trkpt lat="45.491" lon="6.71208">
        <ele>2351.2</ele>
        <time>2021-08-15T11:05:57Z</time>
      </trkpt>
      <trkpt lat="45.491" lon="6.71208">
        <ele>2351.2</ele>
        <time>2021-08-15T11:05:58Z</time>
      </trkpt>
      <trkpt lat="45.491" lon="6.71208">
        <ele>2351.2</ele>
        <time>2021-08-15T11:05:59Z</time>
      </trkpt>
      <trkpt lat="45.491" lon="6.71208">
        <ele>2351.2</ele>
        <time>2021-08-15T11:06:00Z</time>
      </trkpt>
      <trkpt lat="45.491" lon="6.71208">
        <ele>2351.2</ele>
        <time>2021-08-15T11:06:01Z</time>
      </trkpt>
      <trkpt lat="45.491" lon="6.71208">
        <ele>2351.2</ele>
        <time>2021-08-15T11:06:02Z</time>
      </trkpt>
      <trkpt lat="45.491" lon="6.71208">
        <ele>2351.2</ele>
        <time>2021-08-15T11:06:03Z</time>
      </trkpt>
      <trkpt lat="45.491" lon="6.71208">
        <ele>2351.2</ele>
        <time>2021-08-15T11:06:04Z</time>
      </trkpt>
      <trkpt lat="45.491" lon="6.71208">
        <ele>2351.2</ele>
        <time>2021-08-15T11:06:05Z</time>
      </trkpt>
      <trkpt lat="45.491" lon="6.71208">
        <ele>2351.2</ele>
        <time>2021-08-15T11:06:06Z</time>
      </trkpt>
      <trkpt lat="45.491" lon="6.71208">
        <ele>2351.2</ele>
        <time>2021-08-15T11:06:07Z</time>
      </trkpt>
      <trkpt lat="45.491" lon="6.71208">
        <ele>2351.2</ele>
        <time>2021-08-15T11:06:08Z</time>
      </trkpt>
      <trkpt lat="45.491" lon="6.71208">
        <ele>2351.2</ele>
        <time>2021-08-15T11:06:09Z</time>
      </trkpt>
      <trkpt lat="45.491" lon="6.71208">
        <ele>2351.2</ele>
        <time>2021-08-15T11:06:10Z</time>
      </trkpt>
      <trkpt lat="45.491" lon="6.71208">
        <ele>2351.2</ele>
        <time>2021-08-15T11:06:11Z</time>
      </trkpt>
      <trkpt lat="45.491" lon="6.71208">
        <ele>2351.2</ele>
        <time>2021-08-15T11:06:12Z</time>
      </trkpt>
      <trkpt lat="45.491" lon="6.71208">
        <ele>2351.2</ele>
        <time>2021-08-15T11:06:13Z</time>
      </trkpt>
      <trkpt lat="45.491" lon="6.71208">
        <ele>2351.2</ele>
        <time>2021-08-15T11:06:14Z</time>
      </trkpt>
      <trkpt lat="45.491" lon="6.71208">
        <ele>2351.2</ele>
        <time>2021-08-15T11:06:15Z</time>
      </trkpt>
      <trkpt lat="45.491" lon="6.71208">
        <ele>2351.2</ele>
        <time>2021-08-15T11:06:16Z</time>
      </trkpt>
      <trkpt lat="45.491" lon="6.71208">
        <ele>2351.2</ele>
        <time>2021-08-15T11:06:17Z</time>
      </trkpt>
      <trkpt lat="45.491" lon="6.71208">
        <ele>2351.2</ele>
        <time>2021-08-15T11:06:18Z</time>
      </trkpt>
      <trkpt lat="45.491" lon="6.71208">
        <ele>2351.2</ele>
        <time>2021-08-15T11:06:19Z</time>
      </trkpt>
      <trkpt lat="45.491" lon="6.71208">
        <ele>2351.2</ele>
        <time>2021-08-15T11:06:20Z</time>
      </trkpt>
      <trkpt lat="45.491" lon="6.71208">
        <ele>2351.2</ele>
        <time>2021-08-15T11:06:21Z</time>
      </trkpt>
      <trkpt lat="45.491" lon="6.71208">
        <ele>2351.2</ele>
        <time>2021-08-15T11:06:22Z</time>
      </trkpt>
      <trkpt lat="45.491" lon="6.71208">
        <ele>2351.2</ele>
        <time>2021-08-15T11:06:23Z</time>
      </trkpt>
      <trkpt lat="45.491" lon="6.71208">
        <ele>2351.2</ele>
        <time>2021-08-15T11:06:24Z</time>
      </trkpt>
      <trkpt lat="45.491" lon="6.71208">
        <ele>2351.2</ele>
        <time>2021-08-15T11:06:25Z</time>
      </trkpt>
      <trkpt lat="45.491" lon="6.71208">
        <ele>2351.2</ele>
        <time>2021-08-15T11:06:26Z</time>
      </trkpt>
      <trkpt lat="45.491" lon="6.71208">
        <ele>2351.2</ele>
        <time>2021-08-15T11:06:27Z</time>
      </trkpt>
      <trkpt lat="45.491" lon="6.71208">
        <ele>2351.2</ele>
        <time>2021-08-15T11:06:28Z</time>
      </trkpt>
      <trkpt lat="45.491" lon="6.71208">
        <ele>2351.2</ele>
        <time>2021-08-15T11:06:29Z</time>
      </trkpt>
      <trkpt lat="45.491" lon="6.71208">
        <ele>2351.2</ele>
        <time>2021-08-15T11:06:30Z</time>
      </trkpt>
      <trkpt lat="45.491" lon="6.71208">
        <ele>2351.2</ele>
        <time>2021-08-15T11:06:31Z</time>
      </trkpt>
      <trkpt lat="45.491" lon="6.71208">
        <ele>2351.2</ele>
        <time>2021-08-15T11:06:32Z</time>
      </trkpt>
      <trkpt lat="45.491" lon="6.71208">
        <ele>2351.2</ele>
        <time>2021-08-15T11:06:33Z</time>
      </trkpt>
      <trkpt lat="45.491" lon="6.71208">
        <ele>2351.2</ele>
        <time>2021-08-15T11:06:34Z</time>
      </trkpt>
      <trkpt lat="45.491" lon="6.71208">
        <ele>2351.2</ele>
        <time>2021-08-15T11:06:35Z</time>
      </trkpt>
      <trkpt lat="45.491" lon="6.71208">
        <ele>2351.2</ele>
        <time>2021-08-15T11:06:36Z</time>
      </trkpt>
      <trkpt lat="45.491" lon="6.71208">
        <ele>2351.2</ele>
        <time>2021-08-15T11:06:37Z</time>
      </trkpt>
      <trkpt lat="45.491" lon="6.71208">
        <ele>2351.2</ele>
        <time>2021-08-15T11:06:38Z</time>
      </trkpt>
      <trkpt lat="45.491" lon="6.71208">
        <ele>2351.2</ele>
        <time>2021-08-15T11:06:39Z</time>
      </trkpt>
      <trkpt lat="45.491" lon="6.71208">
        <ele>2351.2</ele>
        <time>2021-08-15T11:06:40Z</time>
      </trkpt>
      <trkpt lat="45.491" lon="6.71208">
        <ele>2351.2</ele>
        <time>2021-08-15T11:06:41Z</time>
      </trkpt>
      <trkpt lat="45.491" lon="6.71208">
        <ele>2351.2</ele>
        <time>2021-08-15T11:06:42Z</time>
      </trkpt>
      <trkpt lat="45.491" lon="6.71208">
        <ele>2351.2</ele>
        <time>2021-08-15T11:06:43Z</time>
      </trkpt>
      <trkpt lat="45.491" lon="6.71208">
        <ele>2351.2</ele>
        <time>2021-08-15T11:06:44Z</time>
      </trkpt>
      <trkpt lat="45.491" lon="6.71208">
        <ele>2351.2</ele>
        <time>2021-08-15T11:06:45Z</time>
      </trkpt>
      <trkpt lat="45.491" lon="6.71208">
        <ele>2351.2</ele>
        <time>2021-08-15T11:06:46Z</time>
      </trkpt>
      <trkpt lat="45.491" lon="6.71208">
        <ele>2351.2</ele>
        <time>2021-08-15T11:06:47Z</time>
      </trkpt>
      <trkpt lat="45.491" lon="6.71208">
        <ele>2351.2</ele>
        <time>2021-08-15T11:06:48Z</time>
      </trkpt>
      <trkpt lat="45.491" lon="6.71208">
        <ele>2351.2</ele>
        <time>2021-08-15T11:06:49Z</time>
      </trkpt>
      <trkpt lat="45.491" lon="6.71208">
        <ele>2351.2</ele>
        <time>2021-08-15T11:06:50Z</time>
      </trkpt>
      <trkpt lat="45.491" lon="6.71208">
        <ele>2351.2</ele>
        <time>2021-08-15T11:06:51Z</time>
      </trkpt>
      <trkpt lat="45.491" lon="6.71208">
        <ele>2351.2</ele>
        <time>2021-08-15T11:06:52Z</time>
      </trkpt>
      <trkpt lat="45.491" lon="6.71208">
        <ele>2351.2</ele>
        <time>2021-08-15T11:06:53Z</time>
      </trkpt>
      <trkpt lat="45.491" lon="6.71208">
        <ele>2351.2</ele>
        <time>2021-08-15T11:06:54Z</time>
      </trkpt>
      <trkpt lat="45.491" lon="6.71208">
        <ele>2351.2</ele>
        <time>2021-08-15T11:06:55Z</time>
      </trkpt>
      <trkpt lat="45.491" lon="6.71208">
        <ele>2351.2</ele>
        <time>2021-08-15T11:06:56Z</time>
      </trkpt>
      <trkpt lat="45.491" lon="6.71208">
        <ele>2351.2</ele>
        <time>2021-08-15T11:06:57Z</time>
      </trkpt>
      <trkpt lat="45.491" lon="6.71208">
        <ele>2351.2</ele>
        <time>2021-08-15T11:06:58Z</time>
      </trkpt>
      <trkpt lat="45.491" lon="6.71208">
        <ele>2351.2</ele>
        <time>2021-08-15T11:06:59Z</time>
      </trkpt>
      <trkpt lat="45.491" lon="6.71208">
        <ele>2351.2</ele>
        <time>2021-08-15T11:07:00Z</time>
      </trkpt>
      <trkpt lat="45.491" lon="6.71208">
        <ele>2351.2</ele>
        <time>2021-08-15T11:07:01Z</time>
      </trkpt>
      <trkpt lat="45.491" lon="6.71208">
        <ele>2351.2</ele>
        <time>2021-08-15T11:07:02Z</time>
      </trkpt>
      <trkpt lat="45.491" lon="6.71208">
        <ele>2351.2</ele>
        <time>2021-08-15T11:07:03Z</time>
      </trkpt>
      <trkpt lat="45.491" lon="6.71208">
        <ele>2351.2</ele>
        <time>2021-08-15T11:07:04Z</time>
      </trkpt>
      <trkpt lat="45.491" lon="6.71208">
        <ele>2351.2</ele>
        <time>2021-08-15T11:07:05Z</time>
      </trkpt>
      <trkpt lat="45.491" lon="6.71208">
        <ele>2351.2</ele>
        <time>2021-08-15T11:07:06Z</time>
      </trkpt>
      <trkpt lat="45.491" lon="6.71208">
        <ele>2351.2</ele>
        <time>2021-08-15T11:07:07Z</time>
      </trkpt>
      <trkpt lat="45.491" lon="6.71208">
        <ele>2351.2</ele>
        <time>2021-08-15T11:07:08Z</time>
      </trkpt>
      <trkpt lat="45.491" lon="6.71208">
        <ele>2351.2</ele>
        <time>2021-08-15T11:07:09Z</time>
      </trkpt>
      <trkpt lat="45.491" lon="6.71208">
        <ele>2351.2</ele>
        <time>2021-08-15T11:07:10Z</time>
      </trkpt>
      <trkpt lat="45.491" lon="6.71208">
        <ele>2351.2</ele>
        <time>2021-08-15T11:07:11Z</time>
      </trkpt>
      <trkpt lat="45.491" lon="6.71208">
        <ele>2351.2</ele>
        <time>2021-08-15T11:07:12Z</time>
      </trkpt>
      <trkpt lat="45.491" lon="6.71208">
        <ele>2351.2</ele>
        <time>2021-08-15T11:07:13Z</time>
      </trkpt>
      <trkpt lat="45.491" lon="6.71208">
        <ele>2351.2</ele>
        <time>2021-08-15T11:07:14Z</time>
      </trkpt>
      <trkpt lat="45.491" lon="6.71208">
        <ele>2351.2</ele>
        <time>2021-08-15T11:07:15Z</time>
      </trkpt>
      <trkpt lat="45.491" lon="6.71208">
        <ele>2351.2</ele>
        <time>2021-08-15T11:07:16Z</time>
      </trkpt>
      <trkpt lat="45.491" lon="6.71208">
        <ele>2351.2</ele>
        <time>2021-08-15T11:07:17Z</time>
      </trkpt>
      <trkpt lat="45.491" lon="6.71208">
        <ele>2351.2</ele>
        <time>2021-08-15T11:07:18Z</time>
      </trkpt>
      <trkpt lat="45.491" lon="6.71208">
        <ele>2351.2</ele>
        <time>2021-08-15T11:07:19Z</time>
      </trkpt>
      <trkpt lat="45.491" lon="6.71208">
        <ele>2351.2</ele>
        <time>2021-08-15T11:07:20Z</time>
      </trkpt>
      <trkpt lat="45.491" lon="6.71208">
        <ele>2351.2</ele>
        <time>2021-08-15T11:07:21Z</time>
      </trkpt>
      <trkpt lat="45.491" lon="6.71208">
        <ele>2351.2</ele>
        <time>2021-08-15T11:07:22Z</time>
      </trkpt>
      <trkpt lat="45.491" lon="6.71208">
        <ele>2351.2</ele>
        <time>2021-08-15T11:07:23Z</time>
      </trkpt>
      <trkpt lat="45.491" lon="6.71208">
        <ele>2351.2</ele>
        <time>2021-08-15T11:07:24Z</time>
      </trkpt>
      <trkpt lat="45.491" lon="6.71208">
        <ele>2351.2</ele>
        <time>2021-08-15T11:07:25Z</time>
      </trkpt>
      <trkpt lat="45.491" lon="6.71208">
        <ele>2351.2</ele>
        <time>2021-08-15T11:07:26Z</time>
      </trkpt>
      <trkpt lat="45.491" lon="6.71208">
        <ele>2351.2</ele>
        <time>2021-08-15T11:07:27Z</time>
      </trkpt>
      <trkpt lat="45.491" lon="6.71208">
        <ele>2351.2</ele>
        <time>2021-08-15T11:07:28Z</time>
      </trkpt>
      <trkpt lat="45.491" lon="6.71208">
        <ele>2351.2</ele>
        <time>2021-08-15T11:07:29Z</time>
      </trkpt>
      <trkpt lat="45.491" lon="6.71208">
        <ele>2351.2</ele>
        <time>2021-08-15T11:07:30Z</time>
      </trkpt>
      <trkpt lat="45.491" lon="6.71208">
        <ele>2351.2</ele>
        <time>2021-08-15T11:07:31Z</time>
      </trkpt>
      <trkpt lat="45.491" lon="6.71208">
        <ele>2351.2</ele>
        <time>2021-08-15T11:07:32Z</time>
      </trkpt>
      <trkpt lat="45.491" lon="6.71208">
        <ele>2351.2</ele>
        <time>2021-08-15T11:07:33Z</time>
      </trkpt>
      <trkpt lat="45.491" lon="6.71208">
        <ele>2351.2</ele>
        <time>2021-08-15T11:07:34Z</time>
      </trkpt>
      <trkpt lat="45.491" lon="6.71208">
        <ele>2351.2</ele>
        <time>2021-08-15T11:07:35Z</time>
      </trkpt>
      <trkpt lat="45.491" lon="6.71208">
        <ele>2351.2</ele>
        <time>2021-08-15T11:07:36Z</time>
      </trkpt>
      <trkpt lat="45.491" lon="6.71208">
        <ele>2351.2</ele>
        <time>2021-08-15T11:07:37Z</time>
      </trkpt>
      <trkpt lat="45.491" lon="6.71208">
        <ele>2351.2</ele>
        <time>2021-08-15T11:07:38Z</time>
      </trkpt>
      <trkpt lat="45.491" lon="6.71208">
        <ele>2351.2</ele>
        <time>2021-08-15T11:07:39Z</time>
      </trkpt>
      <trkpt lat="45.491" lon="6.71208">
        <ele>2351.2</ele>
        <time>2021-08-15T11:07:40Z</time>
      </trkpt>
      <trkpt lat="45.491" lon="6.71208">
        <ele>2351.2</ele>
        <time>2021-08-15T11:07:41Z</time>
      </trkpt>
      <trkpt lat="45.491" lon="6.71208">
        <ele>2351.2</ele>
        <time>2021-08-15T11:07:42Z</time>
      </trkpt>
      <trkpt lat="45.491" lon="6.71208">
        <ele>2351.2</ele>
        <time>2021-08-15T11:07:43Z</time>
      </trkpt>
      <trkpt lat="45.491" lon="6.71208">
        <ele>2351.2</ele>
        <time>2021-08-15T11:07:44Z</time>
      </trkpt>
      <trkpt lat="45.491" lon="6.71208">
        <ele>2351.2</ele>
        <time>2021-08-15T11:07:45Z</time>
      </trkpt>
      <trkpt lat="45.491" lon="6.71208">
        <ele>2351.2</ele>
        <time>2021-08-15T11:07:46Z</time>
      </trkpt>
      <trkpt lat="45.491" lon="6.71208">
        <ele>2351.2</ele>
        <time>2021-08-15T11:07:47Z</time>
      </trkpt>
      <trkpt lat="45.491" lon="6.71208">
        <ele>2351.2</ele>
        <time>2021-08-15T11:07:48Z</time>
      </trkpt>
      <trkpt lat="45.491" lon="6.71208">
        <ele>2351.2</ele>
        <time>2021-08-15T11:07:49Z</time>
      </trkpt>
      <trkpt lat="45.491" lon="6.71208">
        <ele>2351.2</ele>
        <time>2021-08-15T11:07:50Z</time>
      </trkpt>
      <trkpt lat="45.491" lon="6.71208">
        <ele>2351.2</ele>
        <time>2021-08-15T11:07:51Z</time>
      </trkpt>
      <trkpt lat="45.491" lon="6.71208">
        <ele>2351.2</ele>
        <time>2021-08-15T11:07:52Z</time>
      </trkpt>
      <trkpt lat="45.491" lon="6.71208">
        <ele>2351.2</ele>
        <time>2021-08-15T11:07:53Z</time>
      </trkpt>
      <trkpt lat="45.491" lon="6.71208">
        <ele>2351.2</ele>
        <time>2021-08-15T11:07:54Z</time>
      </trkpt>
      <trkpt lat="45.491" lon="6.71208">
        <ele>2351.2</ele>
        <time>2021-08-15T11:07:55Z</time>
      </trkpt>
      <trkpt lat="45.491" lon="6.71208">
        <ele>2351.2</ele>
        <time>2021-08-15T11:07:56Z</time>
      </trkpt>
      <trkpt lat="45.491" lon="6.71208">
        <ele>2351.2</ele>
        <time>2021-08-15T11:07:57Z</time>
      </trkpt>
      <trkpt lat="45.491" lon="6.71208">
        <ele>2351.2</ele>
        <time>2021-08-15T11:07:58Z</time>
      </trkpt>
      <trkpt lat="45.491" lon="6.71208">
        <ele>2351.2</ele>
        <time>2021-08-15T11:07:59Z</time>
      </trkpt>
      <trkpt lat="45.491" lon="6.71208">
        <ele>2351.2</ele>
        <time>2021-08-15T11:08:00Z</time>
      </trkpt>
      <trkpt lat="45.491" lon="6.71208">
        <ele>2351.2</ele>
        <time>2021-08-15T11:08:01Z</time>
      </trkpt>
      <trkpt lat="45.491" lon="6.71208">
        <ele>2351.2</ele>
        <time>2021-08-15T11:08:02Z</time>
      </trkpt>
      <trkpt lat="45.491" lon="6.71208">
        <ele>2351.2</ele>
        <time>2021-08-15T11:08:03Z</time>
      </trkpt>
      <trkpt lat="45.491" lon="6.71208">
        <ele>2351.2</ele>
        <time>2021-08-15T11:08:04Z</time>
      </trkpt>
      <trkpt lat="45.491" lon="6.71208">
        <ele>2351.2</ele>
        <time>2021-08-15T11:08:05Z</time>
      </trkpt>
      <trkpt lat="45.491" lon="6.71208">
        <ele>2351.2</ele>
        <time>2021-08-15T11:08:06Z</time>
      </trkpt>
      <trkpt lat="45.491" lon="6.71208">
        <ele>2351.2</ele>
        <time>2021-08-15T11:08:07Z</time>
      </trkpt>
      <trkpt lat="45.491" lon="6.71208">
        <ele>2351.2</ele>
        <time>2021-08-15T11:08:08Z</time>
      </trkpt>
      <trkpt lat="45.491" lon="6.71208">
        <ele>2351.2</ele>
        <time>2021-08-15T11:08:09Z</time>
      </trkpt>
      <trkpt lat="45.491" lon="6.71208">
        <ele>2351.2</ele>
        <time>2021-08-15T11:08:10Z</time>
      </trkpt>
      <trkpt lat="45.491" lon="6.71208">
        <ele>2351.2</ele>
        <time>2021-08-15T11:08:11Z</time>
      </trkpt>
      <trkpt lat="45.491" lon="6.71208">
        <ele>2351.2</ele>
        <time>2021-08-15T11:08:12Z</time>
      </trkpt>
      <trkpt lat="45.491" lon="6.71208">
        <ele>2351.2</ele>
        <time>2021-08-15T11:08:13Z</time>
      </trkpt>
      <trkpt lat="45.491" lon="6.71208">
        <ele>2351.2</ele>
        <time>2021-08-15T11:08:14Z</time>
      </trkpt>
      <trkpt lat="45.491" lon="6.71208">
        <ele>2351.2</ele>
        <time>2021-08-15T11:08:15Z</time>
      </trkpt>
      <trkpt lat="45.491" lon="6.71208">
        <ele>2351.2</ele>
        <time>2021-08-15T11:08:16Z</time>
      </trkpt>
      <trkpt lat="45.491" lon="6.71208">
        <ele>2351.2</ele>
        <time>2021-08-15T11:08:17Z</time>
      </trkpt>
      <trkpt lat="45.491" lon="6.71208">
        <ele>2351.2</ele>
        <time>2021-08-15T11:08:18Z</time>
      </trkpt>
      <trkpt lat="45.491" lon="6.71208">
        <ele>2351.2</ele>
        <time>2021-08-15T11:08:19Z</time>
      </trkpt>
      <trkpt lat="45.491" lon="6.71208">
        <ele>2351.2</ele>
        <time>2021-08-15T11:08:20Z</time>
      </trkpt>
      <trkpt lat="45.491" lon="6.71208">
        <ele>2351.2</ele>
        <time>2021-08-15T11:08:21Z</time>
      </trkpt>
      <trkpt lat="45.491" lon="6.71208">
        <ele>2351.2</ele>
        <time>2021-08-15T11:08:22Z</time>
      </trkpt>
      <trkpt lat="45.491" lon="6.71208">
        <ele>2351.2</ele>
        <time>2021-08-15T11:08:23Z</time>
      </trkpt>
      <trkpt lat="45.491" lon="6.71208">
        <ele>2351.2</ele>
        <time>2021-08-15T11:08:24Z</time>
      </trkpt>
      <trkpt lat="45.491" lon="6.71208">
        <ele>2351.2</ele>
        <time>2021-08-15T11:08:25Z</time>
      </trkpt>
      <trkpt lat="45.491" lon="6.71208">
        <ele>2351.2</ele>
        <time>2021-08-15T11:08:26Z</time>
      </trkpt>
      <trkpt lat="45.491" lon="6.71208">
        <ele>2351.2</ele>
        <time>2021-08-15T11:08:27Z</time>
      </trkpt>
      <trkpt lat="45.491" lon="6.71208">
        <ele>2351.2</ele>
        <time>2021-08-15T11:08:28Z</time>
      </trkpt>
      <trkpt lat="45.491" lon="6.71208">
        <ele>2351.2</ele>
        <time>2021-08-15T11:08:29Z</time>
      </trkpt>
      <trkpt lat="45.491" lon="6.71208">
        <ele>2351.2</ele>
        <time>2021-08-15T11:08:30Z</time>
      </trkpt>
      <trkpt lat="45.491" lon="6.71208">
        <ele>2351.2</ele>
        <time>2021-08-15T11:08:31Z</time>
      </trkpt>
      <trkpt lat="45.491" lon="6.71208">
        <ele>2351.2</ele>
        <time>2021-08-15T11:08:32Z</time>
      </trkpt>
      <trkpt lat="45.491" lon="6.71208">
        <ele>2351.2</ele>
        <time>2021-08-15T11:08:33Z</time>
      </trkpt>
      <trkpt lat="45.491" lon="6.71208">
        <ele>2351.2</ele>
        <time>2021-08-15T11:08:34Z</time>
      </trkpt>
      <trkpt lat="45.491" lon="6.71208">
        <ele>2351.2</ele>
        <time>2021-08-15T11:08:35Z</time>
      </trkpt>
      <trkpt lat="45.491" lon="6.71208">
        <ele>2351.2</ele>
        <time>2021-08-15T11:08:36Z</time>
      </trkpt>
      <trkpt lat="45.491" lon="6.71208">
        <ele>2351.2</ele>
        <time>2021-08-15T11:08:37Z</time>
      </trkpt>
      <trkpt lat="45.491" lon="6.71208">
        <ele>2351.2</ele>
        <time>2021-08-15T11:08:38Z</time>
      </trkpt>
      <trkpt lat="45.491" lon="6.71208">
        <ele>2351.2</ele>
        <time>2021-08-15T11:08:39Z</time>
      </trkpt>
      <trkpt lat="45.491" lon="6.71208">
        <ele>2351.2</ele>
        <time>2021-08-15T11:08:40Z</time>
      </trkpt>
      <trkpt lat="45.491" lon="6.71208">
        <ele>2351.2</ele>
        <time>2021-08-15T11:08:41Z</time>
      </trkpt>
      <trkpt lat="45.491" lon="6.71208">
        <ele>2351.2</ele>
        <time>2021-08-15T11:08:42Z</time>
      </trkpt>
      <trkpt lat="45.491" lon="6.71208">
        <ele>2351.2</ele>
        <time>2021-08-15T11:08:43Z</time>
      </trkpt>
      <trkpt lat="45.491" lon="6.71208">
        <ele>2351.2</ele>
        <time>2021-08-15T11:08:44Z</time>
      </trkpt>
      <trkpt lat="45.491" lon="6.71208">
        <ele>2351.2</ele>
        <time>2021-08-15T11:08:45Z</time>
      </trkpt>
      <trkpt lat="45.491" lon="6.71208">
        <ele>2351.2</ele>
        <time>2021-08-15T11:08:46Z</time>
      </trkpt>
      <trkpt lat="45.491" lon="6.71208">
        <ele>2351.2</ele>
        <time>2021-08-15T11:08:47Z</time>
      </trkpt>
      <trkpt lat="45.491" lon="6.71208">
        <ele>2351.2</ele>
        <time>2021-08-15T11:08:48Z</time>
      </trkpt>
      <trkpt lat="45.491" lon="6.71208">
        <ele>2351.2</ele>
        <time>2021-08-15T11:08:49Z</time>
      </trkpt>
      <trkpt lat="45.491" lon="6.71208">
        <ele>2351.2</ele>
        <time>2021-08-15T11:08:50Z</time>
      </trkpt>
      <trkpt lat="45.491" lon="6.71208">
        <ele>2351.2</ele>
        <time>2021-08-15T11:08:51Z</time>
      </trkpt>
      <trkpt lat="45.491" lon="6.71208">
        <ele>2351.2</ele>
        <time>2021-08-15T11:08:52Z</time>
      </trkpt>
      <trkpt lat="45.491" lon="6.71208">
        <ele>2351.2</ele>
        <time>2021-08-15T11:08:53Z</time>
      </trkpt>
      <trkpt lat="45.491" lon="6.71208">
        <ele>2351.2</ele>
        <time>2021-08-15T11:08:54Z</time>
      </trkpt>
      <trkpt lat="45.491" lon="6.71208">
        <ele>2351.2</ele>
        <time>2021-08-15T11:08:55Z</time>
      </trkpt>
      <trkpt lat="45.491" lon="6.71208">
        <ele>2351.2</ele>
        <time>2021-08-15T11:08:56Z</time>
      </trkpt>
      <trkpt lat="45.491" lon="6.71208">
        <ele>2351.2</ele>
        <time>2021-08-15T11:08:57Z</time>
      </trkpt>
      <trkpt lat="45.491" lon="6.71208">
        <ele>2351.2</ele>
        <time>2021-08-15T11:08:58Z</time>
      </trkpt>
      <trkpt lat="45.491" lon="6.71208">
        <ele>2351.2</ele>
        <time>2021-08-15T11:08:59Z</time>
      </trkpt>
      <trkpt lat="45.491" lon="6.71208">
        <ele>2351.2</ele>
        <time>2021-08-15T11:09:00Z</time>
      </trkpt>
      <trkpt lat="45.491" lon="6.71208">
        <ele>2351.2</ele>
        <time>2021-08-15T11:09:01Z</time>
      </trkpt>
      <trkpt lat="45.491" lon="6.71208">
        <ele>2351.2</ele>
        <time>2021-08-15T11:09:02Z</time>
      </trkpt>
      <trkpt lat="45.491" lon="6.71208">
        <ele>2351.2</ele>
        <time>2021-08-15T11:09:03Z</time>
      </trkpt>
      <trkpt lat="45.491" lon="6.71208">
        <ele>2351.2</ele>
        <time>2021-08-15T11:09:04Z</time>
      </trkpt>
      <trkpt lat="45.491" lon="6.71208">
        <ele>2351.2</ele>
        <time>2021-08-15T11:09:05Z</time>
      </trkpt>
      <trkpt lat="45.491" lon="6.71208">
        <ele>2351.2</ele>
        <time>2021-08-15T11:09:06Z</time>
      </trkpt>
      <trkpt lat="45.491" lon="6.71208">
        <ele>2351.2</ele>
        <time>2021-08-15T11:09:07Z</time>
      </trkpt>
      <trkpt lat="45.491" lon="6.71208">
        <ele>2351.2</ele>
        <time>2021-08-15T11:09:08Z</time>
      </trkpt>
      <trkpt lat="45.491" lon="6.71208">
        <ele>2351.2</ele>
        <time>2021-08-15T11:09:09Z</time>
      </trkpt>
      <trkpt lat="45.491" lon="6.71208">
        <ele>2351.2</ele>
        <time>2021-08-15T11:09:10Z</time>
      </trkpt>
      <trkpt lat="45.491" lon="6.71208">
        <ele>2351.2</ele>
        <time>2021-08-15T11:09:11Z</time>
      </trkpt>
      <trkpt lat="45.491" lon="6.71208">
        <ele>2351.2</ele>
        <time>2021-08-15T11:09:12Z</time>
      </trkpt>
      <trkpt lat="45.491" lon="6.71208">
        <ele>2351.2</ele>
        <time>2021-08-15T11:09:13Z</time>
      </trkpt>
      <trkpt lat="45.491" lon="6.71208">
        <ele>2351.2</ele>
        <time>2021-08-15T11:09:14Z</time>
      </trkpt>
      <trkpt lat="45.491" lon="6.71208">
        <ele>2351.2</ele>
        <time>2021-08-15T11:09:15Z</time>
      </trkpt>
      <trkpt lat="45.491" lon="6.71208">
        <ele>2351.2</ele>
        <time>2021-08-15T11:09:16Z</time>
      </trkpt>
      <trkpt lat="45.491" lon="6.71208">
        <ele>2351.2</ele>
        <time>2021-08-15T11:09:17Z</time>
      </trkpt>
      <trkpt lat="45.491" lon="6.71208">
        <ele>2351.2</ele>
        <time>2021-08-15T11:09:18Z</time>
      </trkpt>
      <trkpt lat="45.491" lon="6.71208">
        <ele>2351.2</ele>
        <time>2021-08-15T11:09:19Z</time>
      </trkpt>
      <trkpt lat="45.491" lon="6.71208">
        <ele>2351.2</ele>
        <time>2021-08-15T11:09:20Z</time>
      </trkpt>
      <trkpt lat="45.491" lon="6.71208">
        <ele>2351.2</ele>
        <time>2021-08-15T11:09:21Z</time>
      </trkpt>
      <trkpt lat="45.491" lon="6.71208">
        <ele>2351.2</ele>
        <time>2021-08-15T11:09:22Z</time>
      </trkpt>
      <trkpt lat="45.491" lon="6.71208">
        <ele>2351.2</ele>
        <time>2021-08-15T11:09:23Z</time>
      </trkpt>
      <trkpt lat="45.491" lon="6.71208">
        <ele>2351.2</ele>
        <time>2021-08-15T11:09:24Z</time>
      </trkpt>
      <trkpt lat="45.491" lon="6.71208">
        <ele>2351.2</ele>
        <time>2021-08-15T11:09:25Z</time>
      </trkpt>
      <trkpt lat="45.491" lon="6.71208">
        <ele>2351.2</ele>
        <time>2021-08-15T11:09:26Z</time>
      </trkpt>
      <trkpt lat="45.491" lon="6.71208">
        <ele>2351.2</ele>
        <time>2021-08-15T11:09:27Z</time>
      </trkpt>
      <trkpt lat="45.491" lon="6.71208">
        <ele>2351.2</ele>
        <time>2021-08-15T11:09:28Z</time>
      </trkpt>
      <trkpt lat="45.491" lon="6.71208">
        <ele>2351.2</ele>
        <time>2021-08-15T11:09:29Z</time>
      </trkpt>
      <trkpt lat="45.491" lon="6.71208">
        <ele>2351.2</ele>
        <time>2021-08-15T11:09:30Z</time>
      </trkpt>
      <trkpt lat="45.491" lon="6.71208">
        <ele>2351.2</ele>
        <time>2021-08-15T11:09:31Z</time>
      </trkpt>
      <trkpt lat="45.491" lon="6.71208">
        <ele>2351.2</ele>
        <time>2021-08-15T11:09:32Z</time>
      </trkpt>
      <trkpt lat="45.491" lon="6.71208">
        <ele>2351.2</ele>
        <time>2021-08-15T11:09:33Z</time>
      </trkpt>
      <trkpt lat="45.491" lon="6.71208">
        <ele>2351.2</ele>
        <time>2021-08-15T11:09:34Z</time>
      </trkpt>
      <trkpt lat="45.491" lon="6.71208">
        <ele>2351.2</ele>
        <time>2021-08-15T11:09:35Z</time>
      </trkpt>
      <trkpt lat="45.491" lon="6.71208">
        <ele>2351.2</ele>
        <time>2021-08-15T11:09:36Z</time>
      </trkpt>
      <trkpt lat="45.491" lon="6.71208">
        <ele>2351.2</ele>
        <time>2021-08-15T11:09:37Z</time>
      </trkpt>
      <trkpt lat="45.491" lon="6.71208">
        <ele>2351.2</ele>
        <time>2021-08-15T11:09:38Z</time>
      </trkpt>
      <trkpt lat="45.491" lon="6.71208">
        <ele>2351.2</ele>
        <time>2021-08-15T11:09:39Z</time>
      </trkpt>
      <trkpt lat="45.491" lon="6.71208">
        <ele>2351.2</ele>
        <time>2021-08-15T11:09:40Z</time>
      </trkpt>
      <trkpt lat="45.491" lon="6.71208">
        <ele>2351.2</ele>
        <time>2021-08-15T11:09:41Z</time>
      </trkpt>
      <trkpt lat="45.491" lon="6.71208">
        <ele>2351.2</ele>
        <time>2021-08-15T11:09:42Z</time>
      </trkpt>
      <trkpt lat="45.491" lon="6.71208">
        <ele>2351.2</ele>
        <time>2021-08-15T11:09:43Z</time>
      </trkpt>
      <trkpt lat="45.491" lon="6.71208">
        <ele>2351.2</ele>
        <time>2021-08-15T11:09:44Z</time>
      </trkpt>
      <trkpt lat="45.491" lon="6.71208">
        <ele>2351.2</ele>
        <time>2021-08-15T11:09:45Z</time>
      </trkpt>
      <trkpt lat="45.491" lon="6.71208">
        <ele>2351.2</ele>
        <time>2021-08-15T11:09:46Z</time>
      </trkpt>
      <trkpt lat="45.491" lon="6.71208">
        <ele>2351.2</ele>
        <time>2021-08-15T11:09:47Z</time>
      </trkpt>
      <trkpt lat="45.491" lon="6.71208">
        <ele>2351.2</ele>
        <time>2021-08-15T11:09:48Z</time>
      </trkpt>
      <trkpt lat="45.491" lon="6.71208">
        <ele>2351.2</ele>
        <time>2021-08-15T11:09:49Z</time>
      </trkpt>
      <trkpt lat="45.491" lon="6.71208">
        <ele>2351.2</ele>
        <time>2021-08-15T11:09:50Z</time>
      </trkpt>
      <trkpt lat="45.491" lon="6.71208">
        <ele>2351.2</ele>
        <time>2021-08-15T11:09:51Z</time>
      </trkpt>
      <trkpt lat="45.491" lon="6.71208">
        <ele>2351.2</ele>
        <time>2021-08-15T11:09:52Z</time>
      </trkpt>
      <trkpt lat="45.491" lon="6.71208">
        <ele>2351.2</ele>
        <time>2021-08-15T11:09:53Z</time>
      </trkpt>
      <trkpt lat="45.491" lon="6.71208">
        <ele>2351.2</ele>
        <time>2021-08-15T11:09:54Z</time>
      </trkpt>
      <trkpt lat="45.491" lon="6.71208">
        <ele>2351.2</ele>
        <time>2021-08-15T11:09:55Z</time>
      </trkpt>
      <trkpt lat="45.491" lon="6.71208">
        <ele>2351.2</ele>
        <time>2021-08-15T11:09:56Z</time>
      </trkpt>
      <trkpt lat="45.491" lon="6.71208">
        <ele>2351.2</ele>
        <time>2021-08-15T11:09:57Z</time>
      </trkpt>
      <trkpt lat="45.491" lon="6.71208">
        <ele>2351.2</ele>
        <time>2021-08-15T11:09:58Z</time>
      </trkpt>
      <trkpt lat="45.491" lon="6.71208">
        <ele>2351.2</ele>
        <time>2021-08-15T11:09:59Z</time>
      </trkpt>
      <trkpt lat="45.491" lon="6.71208">
        <ele>2351.2</ele>
        <time>2021-08-15T11:10:00Z</time>
      </trkpt>
      <trkpt lat="45.491" lon="6.71208">
        <ele>2351.2</ele>
        <time>2021-08-15T11:10:01Z</time>
      </trkpt>
      <trkpt lat="45.491" lon="6.71208">
        <ele>2351.2</ele>
        <time>2021-08-15T11:10:02Z</time>
      </trkpt>
      <trkpt lat="45.491" lon="6.71208">
        <ele>2351.2</ele>
        <time>2021-08-15T11:10:03Z</time>
      </trkpt>
      <trkpt lat="45.491" lon="6.71208">
        <ele>2351.2</ele>
        <time>2021-08-15T11:10:04Z</time>
      </trkpt>
      <trkpt lat="45.491" lon="6.71208">
        <ele>2351.2</ele>
        <time>2021-08-15T11:10:05Z</time>
      </trkpt>
      <trkpt lat="45.491" lon="6.71208">
        <ele>2351.2</ele>
        <time>2021-08-15T11:10:06Z</time>
      </trkpt>
      <trkpt lat="45.491" lon="6.71208">
        <ele>2351.2</ele>
        <time>2021-08-15T11:10:07Z</time>
      </trkpt>
      <trkpt lat="45.491" lon="6.71208">
        <ele>2351.2</ele>
        <time>2021-08-15T11:10:08Z</time>
      </trkpt>
      <trkpt lat="45.491" lon="6.71208">
        <ele>2351.2</ele>
        <time>2021-08-15T11:10:09Z</time>
      </trkpt>
      <trkpt lat="45.491" lon="6.71208">
        <ele>2351.2</ele>
        <time>2021-08-15T11:10:10Z</time>
      </trkpt>
      <trkpt lat="45.491" lon="6.71208">
        <ele>2351.2</ele>
        <time>2021-08-15T11:10:11Z</time>
      </trkpt>
      <trkpt lat="45.491" lon="6.71208">
        <ele>2351.2</ele>
        <time>2021-08-15T11:10:12Z</time>
      </trkpt>
      <trkpt lat="45.491" lon="6.71208">
        <ele>2351.2</ele>
        <time>2021-08-15T11:10:13Z</time>
      </trkpt>
      <trkpt lat="45.491" lon="6.71208">
        <ele>2351.2</ele>
        <time>2021-08-15T11:10:14Z</time>
      </trkpt>
      <trkpt lat="45.491" lon="6.71208">
        <ele>2351.2</ele>
        <time>2021-08-15T11:10:15Z</time>
      </trkpt>
      <trkpt lat="45.491" lon="6.71208">
        <ele>2351.2</ele>
        <time>2021-08-15T11:10:16Z</time>
      </trkpt>
      <trkpt lat="45.491" lon="6.71208">
        <ele>2351.2</ele>
        <time>2021-08-15T11:10:17Z</time>
      </trkpt>
      <trkpt lat="45.491" lon="6.71208">
        <ele>2351.2</ele>
        <time>2021-08-15T11:10:18Z</time>
      </trkpt>
      <trkpt lat="45.491" lon="6.71208">
        <ele>2351.2</ele>
        <time>2021-08-15T11:10:19Z</time>
      </trkpt>
      <trkpt lat="45.491" lon="6.71208">
        <ele>2351.2</ele>
        <time>2021-08-15T11:10:20Z</time>
      </trkpt>
      <trkpt lat="45.491" lon="6.71208">
        <ele>2351.2</ele>
        <time>2021-08-15T11:10:21Z</time>
      </trkpt>
      <trkpt lat="45.491" lon="6.71208">
        <ele>2351.2</ele>
        <time>2021-08-15T11:10:22Z</time>
      </trkpt>
      <trkpt lat="45.491" lon="6.71208">
        <ele>2351.2</ele>
        <time>2021-08-15T11:10:23Z</time>
      </trkpt>
      <trkpt lat="45.491" lon="6.71208">
        <ele>2351.2</ele>
        <time>2021-08-15T11:10:24Z</time>
      </trkpt>
      <trkpt lat="45.491" lon="6.71208">
        <ele>2351.2</ele>
        <time>2021-08-15T11:10:25Z</time>
      </trkpt>
      <trkpt lat="45.491" lon="6.71208">
        <ele>2351.2</ele>
        <time>2021-08-15T11:10:26Z</time>
      </trkpt>
      <trkpt lat="45.491" lon="6.71208">
        <ele>2351.2</ele>
        <time>2021-08-15T11:10:27Z</time>
      </trkpt>
      <trkpt lat="45.491" lon="6.71208">
        <ele>2351.2</ele>
        <time>2021-08-15T11:10:28Z</time>
      </trkpt>
      <trkpt lat="45.491" lon="6.71208">
        <ele>2351.2</ele>
        <time>2021-08-15T11:10:29Z</time>
      </trkpt>
      <trkpt lat="45.491" lon="6.71208">
        <ele>2351.2</ele>
        <time>2021-08-15T11:10:30Z</time>
      </trkpt>
      <trkpt lat="45.491" lon="6.71208">
        <ele>2351.2</ele>
        <time>2021-08-15T11:10:31Z</time>
      </trkpt>
      <trkpt lat="45.491" lon="6.71208">
        <ele>2351.2</ele>
        <time>2021-08-15T11:10:32Z</time>
      </trkpt>
      <trkpt lat="45.491" lon="6.71208">
        <ele>2351.2</ele>
        <time>2021-08-15T11:10:33Z</time>
      </trkpt>
      <trkpt lat="45.491" lon="6.71208">
        <ele>2351.2</ele>
        <time>2021-08-15T11:10:34Z</time>
      </trkpt>
      <trkpt lat="45.491" lon="6.71208">
        <ele>2351.2</ele>
        <time>2021-08-15T11:10:35Z</time>
      </trkpt>
      <trkpt lat="45.491" lon="6.71208">
        <ele>2351.2</ele>
        <time>2021-08-15T11:10:36Z</time>
      </trkpt>
      <trkpt lat="45.491" lon="6.71208">
        <ele>2351.2</ele>
        <time>2021-08-15T11:10:37Z</time>
      </trkpt>
      <trkpt lat="45.491" lon="6.71208">
        <ele>2351.2</ele>
        <time>2021-08-15T11:10:38Z</time>
      </trkpt>
      <trkpt lat="45.491" lon="6.71208">
        <ele>2351.2</ele>
        <time>2021-08-15T11:10:39Z</time>
      </trkpt>
      <trkpt lat="45.491" lon="6.71208">
        <ele>2351.2</ele>
        <time>2021-08-15T11:10:40Z</time>
      </trkpt>
      <trkpt lat="45.491" lon="6.71208">
        <ele>2351.2</ele>
        <time>2021-08-15T11:10:41Z</time>
      </trkpt>
      <trkpt lat="45.491" lon="6.71208">
        <ele>2351.2</ele>
        <time>2021-08-15T11:10:42Z</time>
      </trkpt>
      <trkpt lat="45.491" lon="6.71208">
        <ele>2351.2</ele>
        <time>2021-08-15T11:10:43Z</time>
      </trkpt>
      <trkpt lat="45.491" lon="6.71208">
        <ele>2351.2</ele>
        <time>2021-08-15T11:10:44Z</time>
      </trkpt>
      <trkpt lat="45.491" lon="6.71208">
        <ele>2351.2</ele>
        <time>2021-08-15T11:10:45Z</time>
      </trkpt>
      <trkpt lat="45.491" lon="6.71208">
        <ele>2351.2</ele>
        <time>2021-08-15T11:10:46Z</time>
      </trkpt>
      <trkpt lat="45.491" lon="6.71208">
        <ele>2351.2</ele>
        <time>2021-08-15T11:10:47Z</time>
      </trkpt>
      <trkpt lat="45.491" lon="6.71208">
        <ele>2351.2</ele>
        <time>2021-08-15T11:10:48Z</time>
      </trkpt>
      <trkpt lat="45.491" lon="6.71208">
        <ele>2351.2</ele>
        <time>2021-08-15T11:10:49Z</time>
      </trkpt>
      <trkpt lat="45.491" lon="6.71208">
        <ele>2351.2</ele>
        <time>2021-08-15T11:10:50Z</time>
      </trkpt>
      <trkpt lat="45.491" lon="6.71208">
        <ele>2351.2</ele>
        <time>2021-08-15T11:10:51Z</time>
      </trkpt>
      <trkpt lat="45.491" lon="6.71208">
        <ele>2351.2</ele>
        <time>2021-08-15T11:10:52Z</time>
      </trkpt>
      <trkpt lat="45.491" lon="6.71208">
        <ele>2351.2</ele>
        <time>2021-08-15T11:10:53Z</time>
      </trkpt>
      <trkpt lat="45.491" lon="6.71208">
        <ele>2351.2</ele>
        <time>2021-08-15T11:10:54Z</time>
      </trkpt>
      <trkpt lat="45.491" lon="6.71208">
        <ele>2351.2</ele>
        <time>2021-08-15T11:10:55Z</time>
      </trkpt>
      <trkpt lat="45.491" lon="6.71208">
        <ele>2351.2</ele>
        <time>2021-08-15T11:10:56Z</time>
      </trkpt>
      <trkpt lat="45.491" lon="6.71208">
        <ele>2351.2</ele>
        <time>2021-08-15T11:10:57Z</time>
      </trkpt>
      <trkpt lat="45.491" lon="6.71208">
        <ele>2351.2</ele>
        <time>2021-08-15T11:10:58Z</time>
      </trkpt>
      <trkpt lat="45.491" lon="6.71208">
        <ele>2351.2</ele>
        <time>2021-08-15T11:10:59Z</time>
      </trkpt>
      <trkpt lat="45.491" lon="6.71208">
        <ele>2351.2</ele>
        <time>2021-08-15T11:11:00Z</time>
      </trkpt>
      <trkpt lat="45.491" lon="6.71208">
        <ele>2351.2</ele>
        <time>2021-08-15T11:11:01Z</time>
      </trkpt>
      <trkpt lat="45.491" lon="6.71208">
        <ele>2351.2</ele>
        <time>2021-08-15T11:11:02Z</time>
      </trkpt>
      <trkpt lat="45.491" lon="6.71208">
        <ele>2351.2</ele>
        <time>2021-08-15T11:11:03Z</time>
      </trkpt>
      <trkpt lat="45.491" lon="6.71208">
        <ele>2351.2</ele>
        <time>2021-08-15T11:11:04Z</time>
      </trkpt>
      <trkpt lat="45.491" lon="6.71208">
        <ele>2351.2</ele>
        <time>2021-08-15T11:11:05Z</time>
      </trkpt>
      <trkpt lat="45.491" lon="6.71208">
        <ele>2351.2</ele>
        <time>2021-08-15T11:11:06Z</time>
      </trkpt>
      <trkpt lat="45.491" lon="6.71208">
        <ele>2351.2</ele>
        <time>2021-08-15T11:11:07Z</time>
      </trkpt>
      <trkpt lat="45.491" lon="6.71208">
        <ele>2351.2</ele>
        <time>2021-08-15T11:11:08Z</time>
      </trkpt>
      <trkpt lat="45.491" lon="6.71208">
        <ele>2351.2</ele>
        <time>2021-08-15T11:11:09Z</time>
      </trkpt>
      <trkpt lat="45.491" lon="6.71208">
        <ele>2351.2</ele>
        <time>2021-08-15T11:11:10Z</time>
      </trkpt>
      <trkpt lat="45.491" lon="6.71208">
        <ele>2351.2</ele>
        <time>2021-08-15T11:11:11Z</time>
      </trkpt>
      <trkpt lat="45.491" lon="6.71208">
        <ele>2351.2</ele>
        <time>2021-08-15T11:11:12Z</time>
      </trkpt>
      <trkpt lat="45.491" lon="6.71208">
        <ele>2351.2</ele>
        <time>2021-08-15T11:11:13Z</time>
      </trkpt>
      <trkpt lat="45.491" lon="6.71208">
        <ele>2351.2</ele>
        <time>2021-08-15T11:11:14Z</time>
      </trkpt>
      <trkpt lat="45.491" lon="6.71208">
        <ele>2351.2</ele>
        <time>2021-08-15T11:11:15Z</time>
      </trkpt>
      <trkpt lat="45.491" lon="6.71208">
        <ele>2351.2</ele>
        <time>2021-08-15T11:11:16Z</time>
      </trkpt>
      <trkpt lat="45.491" lon="6.71208">
        <ele>2351.2</ele>
        <time>2021-08-15T11:11:17Z</time>
      </trkpt>
      <trkpt lat="45.491" lon="6.71208">
        <ele>2351.2</ele>
        <time>2021-08-15T11:11:18Z</time>
      </trkpt>
      <trkpt lat="45.491" lon="6.71208">
        <ele>2351.2</ele>
        <time>2021-08-15T11:11:19Z</time>
      </trkpt>
      <trkpt lat="45.491" lon="6.71208">
        <ele>2351.2</ele>
        <time>2021-08-15T11:11:20Z</time>
      </trkpt>
      <trkpt lat="45.491" lon="6.71208">
        <ele>2351.2</ele>
        <time>2021-08-15T11:11:21Z</time>
      </trkpt>
      <trkpt lat="45.491" lon="6.71208">
        <ele>2351.2</ele>
        <time>2021-08-15T11:11:22Z</time>
      </trkpt>
      <trkpt lat="45.491" lon="6.71208">
        <ele>2351.2</ele>
        <time>2021-08-15T11:11:23Z</time>
      </trkpt>
      <trkpt lat="45.491" lon="6.71208">
        <ele>2351.2</ele>
        <time>2021-08-15T11:11:24Z</time>
      </trkpt>
      <trkpt lat="45.491" lon="6.71208">
        <ele>2351.2</ele>
        <time>2021-08-15T11:11:25Z</time>
      </trkpt>
      <trkpt lat="45.491" lon="6.71208">
        <ele>2351.2</ele>
        <time>2021-08-15T11:11:26Z</time>
      </trkpt>
      <trkpt lat="45.491" lon="6.71208">
        <ele>2351.2</ele>
        <time>2021-08-15T11:11:27Z</time>
      </trkpt>
      <trkpt lat="45.491" lon="6.71208">
        <ele>2351.2</ele>
        <time>2021-08-15T11:11:28Z</time>
      </trkpt>
      <trkpt lat="45.491" lon="6.71208">
        <ele>2351.2</ele>
        <time>2021-08-15T11:11:29Z</time>
      </trkpt>
      <trkpt lat="45.491" lon="6.71208">
        <ele>2351.2</ele>
        <time>2021-08-15T11:11:30Z</time>
      </trkpt>
      <trkpt lat="45.491" lon="6.71208">
        <ele>2351.2</ele>
        <time>2021-08-15T11:11:31Z</time>
      </trkpt>
      <trkpt lat="45.491" lon="6.71208">
        <ele>2351.2</ele>
        <time>2021-08-15T11:11:32Z</time>
      </trkpt>
      <trkpt lat="45.491" lon="6.71208">
        <ele>2351.2</ele>
        <time>2021-08-15T11:11:33Z</time>
      </trkpt>
      <trkpt lat="45.491" lon="6.71208">
        <ele>2351.2</ele>
        <time>2021-08-15T11:11:34Z</time>
      </trkpt>
      <trkpt lat="45.491" lon="6.71208">
        <ele>2351.2</ele>
        <time>2021-08-15T11:11:35Z</time>
      </trkpt>
      <trkpt lat="45.491" lon="6.71208">
        <ele>2351.2</ele>
        <time>2021-08-15T11:11:36Z</time>
      </trkpt>
      <trkpt lat="45.491" lon="6.71208">
        <ele>2351.2</ele>
        <time>2021-08-15T11:11:37Z</time>
      </trkpt>
      <trkpt lat="45.491" lon="6.71208">
        <ele>2351.2</ele>
        <time>2021-08-15T11:11:38Z</time>
      </trkpt>
      <trkpt lat="45.491" lon="6.71208">
        <ele>2351.2</ele>
        <time>2021-08-15T11:11:39Z</time>
      </trkpt>
      <trkpt lat="45.491" lon="6.71208">
        <ele>2351.2</ele>
        <time>2021-08-15T11:11:40Z</time>
      </trkpt>
      <trkpt lat="45.491" lon="6.71208">
        <ele>2351.2</ele>
        <time>2021-08-15T11:11:41Z</time>
      </trkpt>
      <trkpt lat="45.491" lon="6.71208">
        <ele>2351.2</ele>
        <time>2021-08-15T11:11:42Z</time>
      </trkpt>
      <trkpt lat="45.491" lon="6.71208">
        <ele>2351.2</ele>
        <time>2021-08-15T11:11:43Z</time>
      </trkpt>
      <trkpt lat="45.491" lon="6.71208">
        <ele>2351.2</ele>
        <time>2021-08-15T11:11:44Z</time>
      </trkpt>
      <trkpt lat="45.491" lon="6.71208">
        <ele>2351.2</ele>
        <time>2021-08-15T11:11:45Z</time>
      </trkpt>
      <trkpt lat="45.491" lon="6.71208">
        <ele>2351.2</ele>
        <time>2021-08-15T11:11:46Z</time>
      </trkpt>
      <trkpt lat="45.491" lon="6.71208">
        <ele>2351.2</ele>
        <time>2021-08-15T11:11:47Z</time>
      </trkpt>
      <trkpt lat="45.491" lon="6.71208">
        <ele>2351.2</ele>
        <time>2021-08-15T11:11:48Z</time>
      </trkpt>
      <trkpt lat="45.491" lon="6.71208">
        <ele>2351.2</ele>
        <time>2021-08-15T11:11:49Z</time>
      </trkpt>
      <trkpt lat="45.491" lon="6.71208">
        <ele>2351.2</ele>
        <time>2021-08-15T11:11:50Z</time>
      </trkpt>
      <trkpt lat="45.491" lon="6.71208">
        <ele>2351.2</ele>
        <time>2021-08-15T11:11:51Z</time>
      </trkpt>
      <trkpt lat="45.491" lon="6.71208">
        <ele>2351.2</ele>
        <time>2021-08-15T11:11:52Z</time>
      </trkpt>
      <trkpt lat="45.491" lon="6.71208">
        <ele>2351.2</ele>
        <time>2021-08-15T11:11:53Z</time>
      </trkpt>
      <trkpt lat="45.491" lon="6.71208">
        <ele>2351.2</ele>
        <time>2021-08-15T11:11:54Z</time>
      </trkpt>
      <trkpt lat="45.491" lon="6.71208">
        <ele>2351.2</ele>
        <time>2021-08-15T11:11:55Z</time>
      </trkpt>
      <trkpt lat="45.491" lon="6.71208">
        <ele>2351.2</ele>
        <time>2021-08-15T11:11:56Z</time>
      </trkpt>
      <trkpt lat="45.491" lon="6.71208">
        <ele>2351.2</ele>
        <time>2021-08-15T11:11:57Z</time>
      </trkpt>
      <trkpt lat="45.491" lon="6.71208">
        <ele>2351.2</ele>
        <time>2021-08-15T11:11:58Z</time>
      </trkpt>
      <trkpt lat="45.491" lon="6.71208">
        <ele>2351.2</ele>
        <time>2021-08-15T11:11:59Z</time>
      </trkpt>
      <trkpt lat="45.491" lon="6.71208">
        <ele>2351.2</ele>
        <time>2021-08-15T11:12:00Z</time>
      </trkpt>
      <trkpt lat="45.491" lon="6.71208">
        <ele>2351.2</ele>
        <time>2021-08-15T11:12:01Z</time>
      </trkpt>
      <trkpt lat="45.491" lon="6.71208">
        <ele>2351.2</ele>
        <time>2021-08-15T11:12:02Z</time>
      </trkpt>
      <trkpt lat="45.491" lon="6.71208">
        <ele>2351.2</ele>
        <time>2021-08-15T11:12:03Z</time>
      </trkpt>
      <trkpt lat="45.491" lon="6.71208">
        <ele>2351.2</ele>
        <time>2021-08-15T11:12:04Z</time>
      </trkpt>
      <trkpt lat="45.491" lon="6.71208">
        <ele>2351.2</ele>
        <time>2021-08-15T11:12:05Z</time>
      </trkpt>
      <trkpt lat="45.491" lon="6.71208">
        <ele>2351.2</ele>
        <time>2021-08-15T11:12:06Z</time>
      </trkpt>
      <trkpt lat="45.491" lon="6.71208">
        <ele>2351.2</ele>
        <time>2021-08-15T11:12:07Z</time>
      </trkpt>
      <trkpt lat="45.491" lon="6.71208">
        <ele>2351.2</ele>
        <time>2021-08-15T11:12:08Z</time>
      </trkpt>
      <trkpt lat="45.491" lon="6.71208">
        <ele>2351.2</ele>
        <time>2021-08-15T11:12:09Z</time>
      </trkpt>
      <trkpt lat="45.491" lon="6.71208">
        <ele>2351.2</ele>
        <time>2021-08-15T11:12:10Z</time>
      </trkpt>
      <trkpt lat="45.491" lon="6.71208">
        <ele>2351.2</ele>
        <time>2021-08-15T11:12:11Z</time>
      </trkpt>
      <trkpt lat="45.491" lon="6.71208">
        <ele>2351.2</ele>
        <time>2021-08-15T11:12:12Z</time>
      </trkpt>
      <trkpt lat="45.491" lon="6.71208">
        <ele>2351.2</ele>
        <time>2021-08-15T11:12:13Z</time>
      </trkpt>
      <trkpt lat="45.491" lon="6.71208">
        <ele>2351.2</ele>
        <time>2021-08-15T11:12:14Z</time>
      </trkpt>
      <trkpt lat="45.491" lon="6.71208">
        <ele>2351.2</ele>
        <time>2021-08-15T11:12:15Z</time>
      </trkpt>
      <trkpt lat="45.491" lon="6.71208">
        <ele>2351.2</ele>
        <time>2021-08-15T11:12:16Z</time>
      </trkpt>
      <trkpt lat="45.491" lon="6.71208">
        <ele>2351.2</ele>
        <time>2021-08-15T11:12:17Z</time>
      </trkpt>
      <trkpt lat="45.491" lon="6.71208">
        <ele>2351.2</ele>
        <time>2021-08-15T11:12:18Z</time>
      </trkpt>
      <trkpt lat="45.491" lon="6.71208">
        <ele>2351.2</ele>
        <time>2021-08-15T11:12:19Z</time>
      </trkpt>
      <trkpt lat="45.491" lon="6.71208">
        <ele>2351.2</ele>
        <time>2021-08-15T11:12:20Z</time>
      </trkpt>
      <trkpt lat="45.491" lon="6.71208">
        <ele>2351.2</ele>
        <time>2021-08-15T11:12:21Z</time>
      </trkpt>
      <trkpt lat="45.491" lon="6.71208">
        <ele>2351.2</ele>
        <time>2021-08-15T11:12:22Z</time>
      </trkpt>
      <trkpt lat="45.491" lon="6.71208">
        <ele>2351.2</ele>
        <time>2021-08-15T11:12:23Z</time>
      </trkpt>
      <trkpt lat="45.491" lon="6.71208">
        <ele>2351.2</ele>
        <time>2021-08-15T11:12:24Z</time>
      </trkpt>
      <trkpt lat="45.491" lon="6.71208">
        <ele>2351.2</ele>
        <time>2021-08-15T11:12:25Z</time>
      </trkpt>
      <trkpt lat="45.491" lon="6.71208">
        <ele>2351.2</ele>
        <time>2021-08-15T11:12:26Z</time>
      </trkpt>
      <trkpt lat="45.491" lon="6.71208">
        <ele>2351.2</ele>
        <time>2021-08-15T11:12:27Z</time>
      </trkpt>
      <trkpt lat="45.491" lon="6.71208">
        <ele>2351.2</ele>
        <time>2021-08-15T11:12:28Z</time>
      </trkpt>
      <trkpt lat="45.491" lon="6.71208">
        <ele>2351.2</ele>
        <time>2021-08-15T11:12:29Z</time>
      </trkpt>
      <trkpt lat="45.491" lon="6.71208">
        <ele>2351.2</ele>
        <time>2021-08-15T11:12:30Z</time>
      </trkpt>
      <trkpt lat="45.491" lon="6.71208">
        <ele>2351.2</ele>
        <time>2021-08-15T11:12:31Z</time>
      </trkpt>
      <trkpt lat="45.491" lon="6.71208">
        <ele>2351.2</ele>
        <time>2021-08-15T11:12:32Z</time>
      </trkpt>
      <trkpt lat="45.491" lon="6.71208">
        <ele>2351.2</ele>
        <time>2021-08-15T11:12:33Z</time>
      </trkpt>
      <trkpt lat="45.491" lon="6.71208">
        <ele>2351.2</ele>
        <time>2021-08-15T11:12:34Z</time>
      </trkpt>
      <trkpt lat="45.491" lon="6.71208">
        <ele>2351.2</ele>
        <time>2021-08-15T11:12:35Z</time>
      </trkpt>
      <trkpt lat="45.491" lon="6.71208">
        <ele>2351.2</ele>
        <time>2021-08-15T11:12:36Z</time>
      </trkpt>
      <trkpt lat="45.491" lon="6.71208">
        <ele>2351.2</ele>
        <time>2021-08-15T11:12:37Z</time>
      </trkpt>
      <trkpt lat="45.491" lon="6.71208">
        <ele>2351.2</ele>
        <time>2021-08-15T11:12:38Z</time>
      </trkpt>
      <trkpt lat="45.491" lon="6.71208">
        <ele>2351.2</ele>
        <time>2021-08-15T11:12:39Z</time>
      </trkpt>
      <trkpt lat="45.491" lon="6.71208">
        <ele>2351.2</ele>
        <time>2021-08-15T11:12:40Z</time>
      </trkpt>
      <trkpt lat="45.491" lon="6.71208">
        <ele>2351.2</ele>
        <time>2021-08-15T11:12:41Z</time>
      </trkpt>
      <trkpt lat="45.491" lon="6.71208">
        <ele>2351.2</ele>
        <time>2021-08-15T11:12:42Z</time>
      </trkpt>
      <trkpt lat="45.491" lon="6.71208">
        <ele>2351.2</ele>
        <time>2021-08-15T11:12:43Z</time>
      </trkpt>
      <trkpt lat="45.491" lon="6.71208">
        <ele>2351.2</ele>
        <time>2021-08-15T11:12:44Z</time>
      </trkpt>
      <trkpt lat="45.491" lon="6.71208">
        <ele>2351.2</ele>
        <time>2021-08-15T11:12:45Z</time>
      </trkpt>
      <trkpt lat="45.491" lon="6.71208">
        <ele>2351.2</ele>
        <time>2021-08-15T11:12:46Z</time>
      </trkpt>
      <trkpt lat="45.491" lon="6.71208">
        <ele>2351.2</ele>
        <time>2021-08-15T11:12:47Z</time>
      </trkpt>
      <trkpt lat="45.491" lon="6.71208">
        <ele>2351.2</ele>
        <time>2021-08-15T11:12:48Z</time>
      </trkpt>
      <trkpt lat="45.491" lon="6.71208">
        <ele>2351.2</ele>
        <time>2021-08-15T11:12:49Z</time>
      </trkpt>
      <trkpt lat="45.491" lon="6.71208">
        <ele>2351.2</ele>
        <time>2021-08-15T11:12:50Z</time>
      </trkpt>
      <trkpt lat="45.491" lon="6.71208">
        <ele>2351.2</ele>
        <time>2021-08-15T11:12:51Z</time>
      </trkpt>
      <trkpt lat="45.491" lon="6.71208">
        <ele>2351.2</ele>
        <time>2021-08-15T11:12:52Z</time>
      </trkpt>
      <trkpt lat="45.491" lon="6.71208">
        <ele>2351.2</ele>
        <time>2021-08-15T11:12:53Z</time>
      </trkpt>
      <trkpt lat="45.491" lon="6.71208">
        <ele>2351.2</ele>
        <time>2021-08-15T11:12:54Z</time>
      </trkpt>
      <trkpt lat="45.491" lon="6.71208">
        <ele>2351.2</ele>
        <time>2021-08-15T11:12:55Z</time>
      </trkpt>
      <trkpt lat="45.491" lon="6.71208">
        <ele>2351.2</ele>
        <time>2021-08-15T11:12:56Z</time>
      </trkpt>
      <trkpt lat="45.491" lon="6.71208">
        <ele>2351.2</ele>
        <time>2021-08-15T11:12:57Z</time>
      </trkpt>
      <trkpt lat="45.491" lon="6.71208">
        <ele>2351.2</ele>
        <time>2021-08-15T11:12:58Z</time>
      </trkpt>
      <trkpt lat="45.491" lon="6.71208">
        <ele>2351.2</ele>
        <time>2021-08-15T11:12:59Z</time>
      </trkpt>
      <trkpt lat="45.491" lon="6.71208">
        <ele>2351.2</ele>
        <time>2021-08-15T11:13:00Z</time>
      </trkpt>
      <trkpt lat="45.491" lon="6.71208">
        <ele>2351.2</ele>
        <time>2021-08-15T11:13:01Z</time>
      </trkpt>
      <trkpt lat="45.491" lon="6.71208">
        <ele>2351.2</ele>
        <time>2021-08-15T11:13:02Z</time>
      </trkpt>
      <trkpt lat="45.491" lon="6.71208">
        <ele>2351.2</ele>
        <time>2021-08-15T11:13:03Z</time>
      </trkpt>
      <trkpt lat="45.491" lon="6.71208">
        <ele>2351.2</ele>
        <time>2021-08-15T11:13:04Z</time>
      </trkpt>
      <trkpt lat="45.491" lon="6.71208">
        <ele>2351.2</ele>
        <time>2021-08-15T11:13:05Z</time>
      </trkpt>
      <trkpt lat="45.491" lon="6.71208">
        <ele>2351.2</ele>
        <time>2021-08-15T11:13:06Z</time>
      </trkpt>
      <trkpt lat="45.491" lon="6.71208">
        <ele>2351.2</ele>
        <time>2021-08-15T11:13:07Z</time>
      </trkpt>
      <trkpt lat="45.491" lon="6.71208">
        <ele>2351.2</ele>
        <time>2021-08-15T11:13:08Z</time>
      </trkpt>
      <trkpt lat="45.491" lon="6.71208">
        <ele>2351.2</ele>
        <time>2021-08-15T11:13:09Z</time>
      </trkpt>
      <trkpt lat="45.491" lon="6.71208">
        <ele>2351.2</ele>
        <time>2021-08-15T11:13:10Z</time>
      </trkpt>
      <trkpt lat="45.491" lon="6.71208">
        <ele>2351.2</ele>
        <time>2021-08-15T11:13:11Z</time>
      </trkpt>
      <trkpt lat="45.491" lon="6.71208">
        <ele>2351.2</ele>
        <time>2021-08-15T11:13:12Z</time>
      </trkpt>
      <trkpt lat="45.491" lon="6.71208">
        <ele>2351.2</ele>
        <time>2021-08-15T11:13:13Z</time>
      </trkpt>
      <trkpt lat="45.491" lon="6.71208">
        <ele>2351.2</ele>
        <time>2021-08-15T11:13:14Z</time>
      </trkpt>
      <trkpt lat="45.491" lon="6.71208">
        <ele>2351.2</ele>
        <time>2021-08-15T11:13:15Z</time>
      </trkpt>
      <trkpt lat="45.491" lon="6.71208">
        <ele>2351.2</ele>
        <time>2021-08-15T11:13:16Z</time>
      </trkpt>
      <trkpt lat="45.491" lon="6.71208">
        <ele>2351.2</ele>
        <time>2021-08-15T11:13:17Z</time>
      </trkpt>
      <trkpt lat="45.491" lon="6.71208">
        <ele>2351.2</ele>
        <time>2021-08-15T11:13:18Z</time>
      </trkpt>
      <trkpt lat="45.491" lon="6.71208">
        <ele>2351.2</ele>
        <time>2021-08-15T11:13:19Z</time>
      </trkpt>
      <trkpt lat="45.491" lon="6.71208">
        <ele>2351.2</ele>
        <time>2021-08-15T11:13:20Z</time>
      </trkpt>
      <trkpt lat="45.491" lon="6.71208">
        <ele>2351.2</ele>
        <time>2021-08-15T11:13:21Z</time>
      </trkpt>
      <trkpt lat="45.491" lon="6.71208">
        <ele>2351.2</ele>
        <time>2021-08-15T11:13:22Z</time>
      </trkpt>
      <trkpt lat="45.491" lon="6.71208">
        <ele>2351.2</ele>
        <time>2021-08-15T11:13:23Z</time>
      </trkpt>
      <trkpt lat="45.491" lon="6.71208">
        <ele>2351.2</ele>
        <time>2021-08-15T11:13:24Z</time>
      </trkpt>
      <trkpt lat="45.491" lon="6.71208">
        <ele>2351.2</ele>
        <time>2021-08-15T11:13:25Z</time>
      </trkpt>
      <trkpt lat="45.491" lon="6.71208">
        <ele>2351.2</ele>
        <time>2021-08-15T11:13:26Z</time>
      </trkpt>
      <trkpt lat="45.491" lon="6.71208">
        <ele>2351.2</ele>
        <time>2021-08-15T11:13:27Z</time>
      </trkpt>
      <trkpt lat="45.491" lon="6.71208">
        <ele>2351.2</ele>
        <time>2021-08-15T11:13:28Z</time>
      </trkpt>
      <trkpt lat="45.491" lon="6.71208">
        <ele>2351.2</ele>
        <time>2021-08-15T11:13:29Z</time>
      </trkpt>
      <trkpt lat="45.491" lon="6.71208">
        <ele>2351.2</ele>
        <time>2021-08-15T11:13:30Z</time>
      </trkpt>
      <trkpt lat="45.491" lon="6.71208">
        <ele>2351.2</ele>
        <time>2021-08-15T11:13:31Z</time>
      </trkpt>
      <trkpt lat="45.491" lon="6.71208">
        <ele>2351.2</ele>
        <time>2021-08-15T11:13:32Z</time>
      </trkpt>
      <trkpt lat="45.491" lon="6.71208">
        <ele>2351.2</ele>
        <time>2021-08-15T11:13:33Z</time>
      </trkpt>
      <trkpt lat="45.491" lon="6.71208">
        <ele>2351.2</ele>
        <time>2021-08-15T11:13:34Z</time>
      </trkpt>
      <trkpt lat="45.491" lon="6.71208">
        <ele>2351.2</ele>
        <time>2021-08-15T11:13:35Z</time>
      </trkpt>
      <trkpt lat="45.491" lon="6.71208">
        <ele>2351.2</ele>
        <time>2021-08-15T11:13:36Z</time>
      </trkpt>
      <trkpt lat="45.491" lon="6.71208">
        <ele>2351.2</ele>
        <time>2021-08-15T11:13:37Z</time>
      </trkpt>
      <trkpt lat="45.491" lon="6.71208">
        <ele>2351.2</ele>
        <time>2021-08-15T11:13:38Z</time>
      </trkpt>
      <trkpt lat="45.491" lon="6.71208">
        <ele>2351.2</ele>
        <time>2021-08-15T11:13:39Z</time>
      </trkpt>
      <trkpt lat="45.491" lon="6.71208">
        <ele>2351.2</ele>
        <time>2021-08-15T11:13:40Z</time>
      </trkpt>
      <trkpt lat="45.491" lon="6.71208">
        <ele>2351.2</ele>
        <time>2021-08-15T11:13:41Z</time>
      </trkpt>
      <trkpt lat="45.491" lon="6.71208">
        <ele>2351.2</ele>
        <time>2021-08-15T11:13:42Z</time>
      </trkpt>
      <trkpt lat="45.491" lon="6.71208">
        <ele>2351.2</ele>
        <time>2021-08-15T11:13:43Z</time>
      </trkpt>
      <trkpt lat="45.491" lon="6.71208">
        <ele>2351.2</ele>
        <time>2021-08-15T11:13:44Z</time>
      </trkpt>
      <trkpt lat="45.491" lon="6.71208">
        <ele>2351.2</ele>
        <time>2021-08-15T11:13:45Z</time>
      </trkpt>
      <trkpt lat="45.491" lon="6.71208">
        <ele>2351.2</ele>
        <time>2021-08-15T11:13:46Z</time>
      </trkpt>
      <trkpt lat="45.491" lon="6.71208">
        <ele>2351.2</ele>
        <time>2021-08-15T11:13:47Z</time>
      </trkpt>
      <trkpt lat="45.491" lon="6.71208">
        <ele>2351.2</ele>
        <time>2021-08-15T11:13:48Z</time>
      </trkpt>
      <trkpt lat="45.491" lon="6.71208">
        <ele>2351.2</ele>
        <time>2021-08-15T11:13:49Z</time>
      </trkpt>
      <trkpt lat="45.491" lon="6.71208">
        <ele>2351.2</ele>
        <time>2021-08-15T11:13:50Z</time>
      </trkpt>
      <trkpt lat="45.491" lon="6.71208">
        <ele>2351.2</ele>
        <time>2021-08-15T11:13:51Z</time>
      </trkpt>
      <trkpt lat="45.491" lon="6.71208">
        <ele>2351.2</ele>
        <time>2021-08-15T11:13:52Z</time>
      </trkpt>
      <trkpt lat="45.491" lon="6.71208">
        <ele>2351.2</ele>
        <time>2021-08-15T11:13:53Z</time>
      </trkpt>
      <trkpt lat="45.491" lon="6.71208">
        <ele>2351.2</ele>
        <time>2021-08-15T11:13:54Z</time>
      </trkpt>
      <trkpt lat="45.491" lon="6.71208">
        <ele>2351.2</ele>
        <time>2021-08-15T11:13:55Z</time>
      </trkpt>
      <trkpt lat="45.491" lon="6.71208">
        <ele>2351.2</ele>
        <time>2021-08-15T11:13:56Z</time>
      </trkpt>
      <trkpt lat="45.491" lon="6.71208">
        <ele>2351.2</ele>
        <time>2021-08-15T11:13:57Z</time>
      </trkpt>
      <trkpt lat="45.491" lon="6.71208">
        <ele>2351.2</ele>
        <time>2021-08-15T11:13:58Z</time>
      </trkpt>
      <trkpt lat="45.491" lon="6.71208">
        <ele>2351.2</ele>
        <time>2021-08-15T11:13:59Z</time>
      </trkpt>
      <trkpt lat="45.491" lon="6.71208">
        <ele>2351.2</ele>
        <time>2021-08-15T11:14:00Z</time>
      </trkpt>
      <trkpt lat="45.491" lon="6.71208">
        <ele>2351.2</ele>
        <time>2021-08-15T11:14:01Z</time>
      </trkpt>
      <trkpt lat="45.491" lon="6.71208">
        <ele>2351.2</ele>
        <time>2021-08-15T11:14:02Z</time>
      </trkpt>
      <trkpt lat="45.491" lon="6.71208">
        <ele>2351.2</ele>
        <time>2021-08-15T11:14:03Z</time>
      </trkpt>
      <trkpt lat="45.491" lon="6.71208">
        <ele>2351.2</ele>
        <time>2021-08-15T11:14:04Z</time>
      </trkpt>
      <trkpt lat="45.491" lon="6.71208">
        <ele>2351.2</ele>
        <time>2021-08-15T11:14:05Z</time>
      </trkpt>
      <trkpt lat="45.491" lon="6.71208">
        <ele>2351.2</ele>
        <time>2021-08-15T11:14:06Z</time>
      </trkpt>
      <trkpt lat="45.491" lon="6.71208">
        <ele>2351.2</ele>
        <time>2021-08-15T11:14:07Z</time>
      </trkpt>
      <trkpt lat="45.491" lon="6.71208">
        <ele>2351.2</ele>
        <time>2021-08-15T11:14:08Z</time>
      </trkpt>
      <trkpt lat="45.491" lon="6.71208">
        <ele>2351.2</ele>
        <time>2021-08-15T11:14:09Z</time>
      </trkpt>
      <trkpt lat="45.491" lon="6.71208">
        <ele>2351.2</ele>
        <time>2021-08-15T11:14:10Z</time>
      </trkpt>
      <trkpt lat="45.491" lon="6.71208">
        <ele>2351.2</ele>
        <time>2021-08-15T11:14:11Z</time>
      </trkpt>
      <trkpt lat="45.491" lon="6.71208">
        <ele>2351.2</ele>
        <time>2021-08-15T11:14:12Z</time>
      </trkpt>
      <trkpt lat="45.491" lon="6.71208">
        <ele>2351.2</ele>
        <time>2021-08-15T11:14:13Z</time>
      </trkpt>
      <trkpt lat="45.491" lon="6.71208">
        <ele>2351.2</ele>
        <time>2021-08-15T11:14:14Z</time>
      </trkpt>
      <trkpt lat="45.491" lon="6.71208">
        <ele>2351.2</ele>
        <time>2021-08-15T11:14:15Z</time>
      </trkpt>
      <trkpt lat="45.491" lon="6.71208">
        <ele>2351.2</ele>
        <time>2021-08-15T11:14:16Z</time>
      </trkpt>
      <trkpt lat="45.491" lon="6.71208">
        <ele>2351.2</ele>
        <time>2021-08-15T11:14:17Z</time>
      </trkpt>
      <trkpt lat="45.491" lon="6.71208">
        <ele>2351.2</ele>
        <time>2021-08-15T11:14:18Z</time>
      </trkpt>
      <trkpt lat="45.491" lon="6.71208">
        <ele>2351.2</ele>
        <time>2021-08-15T11:14:19Z</time>
      </trkpt>
      <trkpt lat="45.491" lon="6.71208">
        <ele>2351.2</ele>
        <time>2021-08-15T11:14:20Z</time>
      </trkpt>
      <trkpt lat="45.491" lon="6.71208">
        <ele>2351.2</ele>
        <time>2021-08-15T11:14:21Z</time>
      </trkpt>
      <trkpt lat="45.491" lon="6.71208">
        <ele>2351.2</ele>
        <time>2021-08-15T11:14:22Z</time>
      </trkpt>
      <trkpt lat="45.491" lon="6.71208">
        <ele>2351.2</ele>
        <time>2021-08-15T11:14:23Z</time>
      </trkpt>
      <trkpt lat="45.491" lon="6.71208">
        <ele>2351.2</ele>
        <time>2021-08-15T11:14:24Z</time>
      </trkpt>
      <trkpt lat="45.491" lon="6.71208">
        <ele>2351.2</ele>
        <time>2021-08-15T11:14:25Z</time>
      </trkpt>
      <trkpt lat="45.491" lon="6.71208">
        <ele>2351.2</ele>
        <time>2021-08-15T11:14:26Z</time>
      </trkpt>
      <trkpt lat="45.491" lon="6.71208">
        <ele>2351.2</ele>
        <time>2021-08-15T11:14:27Z</time>
      </trkpt>
      <trkpt lat="45.491" lon="6.71208">
        <ele>2351.2</ele>
        <time>2021-08-15T11:14:28Z</time>
      </trkpt>
      <trkpt lat="45.491" lon="6.71208">
        <ele>2351.2</ele>
        <time>2021-08-15T11:14:29Z</time>
      </trkpt>
      <trkpt lat="45.491" lon="6.71208">
        <ele>2351.2</ele>
        <time>2021-08-15T11:14:30Z</time>
      </trkpt>
      <trkpt lat="45.491" lon="6.71208">
        <ele>2351.2</ele>
        <time>2021-08-15T11:14:31Z</time>
      </trkpt>
      <trkpt lat="45.491" lon="6.71208">
        <ele>2351.2</ele>
        <time>2021-08-15T11:14:32Z</time>
      </trkpt>
      <trkpt lat="45.491" lon="6.71208">
        <ele>2351.2</ele>
        <time>2021-08-15T11:14:33Z</time>
      </trkpt>
      <trkpt lat="45.491" lon="6.71208">
        <ele>2351.2</ele>
        <time>2021-08-15T11:14:34Z</time>
      </trkpt>
      <trkpt lat="45.491" lon="6.71208">
        <ele>2351.2</ele>
        <time>2021-08-15T11:14:35Z</time>
      </trkpt>
      <trkpt lat="45.491" lon="6.71208">
        <ele>2351.2</ele>
        <time>2021-08-15T11:14:36Z</time>
      </trkpt>
      <trkpt lat="45.491" lon="6.71208">
        <ele>2351.2</ele>
        <time>2021-08-15T11:14:37Z</time>
      </trkpt>
      <trkpt lat="45.491" lon="6.71208">
        <ele>2351.2</ele>
        <time>2021-08-15T11:14:38Z</time>
      </trkpt>
      <trkpt lat="45.491" lon="6.71208">
        <ele>2351.2</ele>
        <time>2021-08-15T11:14:39Z</time>
      </trkpt>
      <trkpt lat="45.491" lon="6.71208">
        <ele>2351.2</ele>
        <time>2021-08-15T11:14:40Z</time>
      </trkpt>
      <trkpt lat="45.491" lon="6.71208">
        <ele>2351.2</ele>
        <time>2021-08-15T11:14:41Z</time>
      </trkpt>
      <trkpt lat="45.491" lon="6.71208">
        <ele>2351.2</ele>
        <time>2021-08-15T11:14:42Z</time>
      </trkpt>
      <trkpt lat="45.491" lon="6.71208">
        <ele>2351.2</ele>
        <time>2021-08-15T11:14:43Z</time>
      </trkpt>
      <trkpt lat="45.491" lon="6.71208">
        <ele>2351.2</ele>
        <time>2021-08-15T11:14:44Z</time>
      </trkpt>
      <trkpt lat="45.491" lon="6.71208">
        <ele>2351.2</ele>
        <time>2021-08-15T11:14:45Z</time>
      </trkpt>
      <trkpt lat="45.491" lon="6.71208">
        <ele>2351.2</ele>
        <time>2021-08-15T11:14:46Z</time>
      </trkpt>
      <trkpt lat="45.491" lon="6.71208">
        <ele>2351.2</ele>
        <time>2021-08-15T11:14:47Z</time>
      </trkpt>
      <trkpt lat="45.491" lon="6.71208">
        <ele>2351.2</ele>
        <time>2021-08-15T11:14:48Z</time>
      </trkpt>
      <trkpt lat="45.491" lon="6.71208">
        <ele>2351.2</ele>
        <time>2021-08-15T11:14:49Z</time>
      </trkpt>
      <trkpt lat="45.491" lon="6.71208">
        <ele>2351.2</ele>
        <time>2021-08-15T11:14:50Z</time>
      </trkpt>
      <trkpt lat="45.491" lon="6.71208">
        <ele>2351.2</ele>
        <time>2021-08-15T11:14:51Z</time>
      </trkpt>
      <trkpt lat="45.491" lon="6.71208">
        <ele>2351.2</ele>
        <time>2021-08-15T11:14:52Z</time>
      </trkpt>
      <trkpt lat="45.491" lon="6.71208">
        <ele>2351.2</ele>
        <time>2021-08-15T11:14:53Z</time>
      </trkpt>
      <trkpt lat="45.491" lon="6.71208">
        <ele>2351.2</ele>
        <time>2021-08-15T11:14:54Z</time>
      </trkpt>
      <trkpt lat="45.491" lon="6.71208">
        <ele>2351.2</ele>
        <time>2021-08-15T11:14:55Z</time>
      </trkpt>
      <trkpt lat="45.491" lon="6.71208">
        <ele>2351.2</ele>
        <time>2021-08-15T11:14:56Z</time>
      </trkpt>
      <trkpt lat="45.491" lon="6.71208">
        <ele>2351.2</ele>
        <time>2021-08-15T11:14:57Z</time>
      </trkpt>
      <trkpt lat="45.491" lon="6.71208">
        <ele>2351.2</ele>
        <time>2021-08-15T11:14:58Z</time>
      </trkpt>
      <trkpt lat="45.491" lon="6.71208">
        <ele>2351.2</ele>
        <time>2021-08-15T11:14:59Z</time>
      </trkpt>
      <trkpt lat="45.491" lon="6.71208">
        <ele>2351.2</ele>
        <time>2021-08-15T11:15:00Z</time>
      </trkpt>
      <trkpt lat="45.491" lon="6.71208">
        <ele>2351.2</ele>
        <time>2021-08-15T11:15:01Z</time>
      </trkpt>
      <trkpt lat="45.491" lon="6.71208">
        <ele>2351.2</ele>
        <time>2021-08-15T11:15:02Z</time>
      </trkpt>
      <trkpt lat="45.491" lon="6.71208">
        <ele>2351.2</ele>
        <time>2021-08-15T11:15:03Z</time>
      </trkpt>
      <trkpt lat="45.491" lon="6.71208">
        <ele>2351.2</ele>
        <time>2021-08-15T11:15:04Z</time>
      </trkpt>
      <trkpt lat="45.491" lon="6.71208">
        <ele>2351.2</ele>
        <time>2021-08-15T11:15:05Z</time>
      </trkpt>
      <trkpt lat="45.491" lon="6.71208">
        <ele>2351.2</ele>
        <time>2021-08-15T11:15:06Z</time>
      </trkpt>
      <trkpt lat="45.491" lon="6.71208">
        <ele>2351.2</ele>
        <time>2021-08-15T11:15:07Z</time>
      </trkpt>
      <trkpt lat="45.491" lon="6.71208">
        <ele>2351.2</ele>
        <time>2021-08-15T11:15:08Z</time>
      </trkpt>
      <trkpt lat="45.491" lon="6.71208">
        <ele>2351.2</ele>
        <time>2021-08-15T11:15:09Z</time>
      </trkpt>
      <trkpt lat="45.491" lon="6.71208">
        <ele>2351.2</ele>
        <time>2021-08-15T11:15:10Z</time>
      </trkpt>
      <trkpt lat="45.491" lon="6.71208">
        <ele>2351.2</ele>
        <time>2021-08-15T11:15:11Z</time>
      </trkpt>
      <trkpt lat="45.491" lon="6.71208">
        <ele>2351.2</ele>
        <time>2021-08-15T11:15:12Z</time>
      </trkpt>
      <trkpt lat="45.491" lon="6.71208">
        <ele>2351.2</ele>
        <time>2021-08-15T11:15:13Z</time>
      </trkpt>
      <trkpt lat="45.491" lon="6.71208">
        <ele>2351.2</ele>
        <time>2021-08-15T11:15:14Z</time>
      </trkpt>
      <trkpt lat="45.491" lon="6.71208">
        <ele>2351.2</ele>
        <time>2021-08-15T11:15:15Z</time>
      </trkpt>
      <trkpt lat="45.491" lon="6.71208">
        <ele>2351.2</ele>
        <time>2021-08-15T11:15:16Z</time>
      </trkpt>
      <trkpt lat="45.491" lon="6.71208">
        <ele>2351.2</ele>
        <time>2021-08-15T11:15:17Z</time>
      </trkpt>
      <trkpt lat="45.491" lon="6.71208">
        <ele>2351.2</ele>
        <time>2021-08-15T11:15:18Z</time>
      </trkpt>
      <trkpt lat="45.491" lon="6.71208">
        <ele>2351.2</ele>
        <time>2021-08-15T11:15:19Z</time>
      </trkpt>
      <trkpt lat="45.491" lon="6.71208">
        <ele>2351.2</ele>
        <time>2021-08-15T11:15:20Z</time>
      </trkpt>
      <trkpt lat="45.491" lon="6.71208">
        <ele>2351.2</ele>
        <time>2021-08-15T11:15:21Z</time>
      </trkpt>
      <trkpt lat="45.491" lon="6.71208">
        <ele>2351.2</ele>
        <time>2021-08-15T11:15:22Z</time>
      </trkpt>
      <trkpt lat="45.491" lon="6.71208">
        <ele>2351.2</ele>
        <time>2021-08-15T11:15:23Z</time>
      </trkpt>
      <trkpt lat="45.491" lon="6.71208">
        <ele>2351.2</ele>
        <time>2021-08-15T11:15:24Z</time>
      </trkpt>
      <trkpt lat="45.491" lon="6.71208">
        <ele>2351.2</ele>
        <time>2021-08-15T11:15:25Z</time>
      </trkpt>
      <trkpt lat="45.491" lon="6.71208">
        <ele>2351.2</ele>
        <time>2021-08-15T11:15:26Z</time>
      </trkpt>
      <trkpt lat="45.491" lon="6.71208">
        <ele>2351.2</ele>
        <time>2021-08-15T11:15:27Z</time>
      </trkpt>
      <trkpt lat="45.491" lon="6.71208">
        <ele>2351.2</ele>
        <time>2021-08-15T11:15:28Z</time>
      </trkpt>
      <trkpt lat="45.491" lon="6.71208">
        <ele>2351.2</ele>
        <time>2021-08-15T11:15:29Z</time>
      </trkpt>
      <trkpt lat="45.491" lon="6.71208">
        <ele>2351.2</ele>
        <time>2021-08-15T11:15:30Z</time>
      </trkpt>
      <trkpt lat="45.491" lon="6.71208">
        <ele>2351.2</ele>
        <time>2021-08-15T11:15:31Z</time>
      </trkpt>
      <trkpt lat="45.491" lon="6.71208">
        <ele>2351.2</ele>
        <time>2021-08-15T11:15:32Z</time>
      </trkpt>
      <trkpt lat="45.491" lon="6.71208">
        <ele>2351.2</ele>
        <time>2021-08-15T11:15:33Z</time>
      </trkpt>
      <trkpt lat="45.491" lon="6.71208">
        <ele>2351.2</ele>
        <time>2021-08-15T11:15:34Z</time>
      </trkpt>
      <trkpt lat="45.491" lon="6.71208">
        <ele>2351.2</ele>
        <time>2021-08-15T11:15:35Z</time>
      </trkpt>
      <trkpt lat="45.491" lon="6.71208">
        <ele>2351.2</ele>
        <time>2021-08-15T11:15:36Z</time>
      </trkpt>
      <trkpt lat="45.491" lon="6.71208">
        <ele>2351.2</ele>
        <time>2021-08-15T11:15:37Z</time>
      </trkpt>
      <trkpt lat="45.491" lon="6.71208">
        <ele>2351.2</ele>
        <time>2021-08-15T11:15:38Z</time>
      </trkpt>
      <trkpt lat="45.491" lon="6.71208">
        <ele>2351.2</ele>
        <time>2021-08-15T11:15:39Z</time>
      </trkpt>
      <trkpt lat="45.491" lon="6.71208">
        <ele>2351.2</ele>
        <time>2021-08-15T11:15:40Z</time>
      </trkpt>
      <trkpt lat="45.491" lon="6.71208">
        <ele>2351.2</ele>
        <time>2021-08-15T11:15:41Z</time>
      </trkpt>
      <trkpt lat="45.491" lon="6.71208">
        <ele>2351.2</ele>
        <time>2021-08-15T11:15:42Z</time>
      </trkpt>
      <trkpt lat="45.491" lon="6.71208">
        <ele>2351.2</ele>
        <time>2021-08-15T11:15:43Z</time>
      </trkpt>
      <trkpt lat="45.491" lon="6.71208">
        <ele>2351.2</ele>
        <time>2021-08-15T11:15:44Z</time>
      </trkpt>
      <trkpt lat="45.491" lon="6.71208">
        <ele>2351.2</ele>
        <time>2021-08-15T11:15:45Z</time>
      </trkpt>
      <trkpt lat="45.491" lon="6.71208">
        <ele>2351.2</ele>
        <time>2021-08-15T11:15:46Z</time>
      </trkpt>
      <trkpt lat="45.491" lon="6.71208">
        <ele>2351.2</ele>
        <time>2021-08-15T11:15:47Z</time>
      </trkpt>
      <trkpt lat="45.491" lon="6.71208">
        <ele>2351.2</ele>
        <time>2021-08-15T11:15:48Z</time>
      </trkpt>
      <trkpt lat="45.491" lon="6.71208">
        <ele>2351.2</ele>
        <time>2021-08-15T11:15:49Z</time>
      </trkpt>
      <trkpt lat="45.491" lon="6.71208">
        <ele>2351.2</ele>
        <time>2021-08-15T11:15:50Z</time>
      </trkpt>
      <trkpt lat="45.491" lon="6.71208">
        <ele>2351.2</ele>
        <time>2021-08-15T11:15:51Z</time>
      </trkpt>
      <trkpt lat="45.491" lon="6.71208">
        <ele>2351.2</ele>
        <time>2021-08-15T11:15:52Z</time>
      </trkpt>
      <trkpt lat="45.491" lon="6.71208">
        <ele>2351.2</ele>
        <time>2021-08-15T11:15:53Z</time>
      </trkpt>
      <trkpt lat="45.491" lon="6.71208">
        <ele>2351.2</ele>
        <time>2021-08-15T11:15:54Z</time>
      </trkpt>
      <trkpt lat="45.491" lon="6.71208">
        <ele>2351.2</ele>
        <time>2021-08-15T11:15:55Z</time>
      </trkpt>
      <trkpt lat="45.491" lon="6.71208">
        <ele>2351.2</ele>
        <time>2021-08-15T11:15:56Z</time>
      </trkpt>
      <trkpt lat="45.491" lon="6.71208">
        <ele>2351.2</ele>
        <time>2021-08-15T11:15:57Z</time>
      </trkpt>
      <trkpt lat="45.491" lon="6.71208">
        <ele>2351.2</ele>
        <time>2021-08-15T11:15:58Z</time>
      </trkpt>
      <trkpt lat="45.491" lon="6.71208">
        <ele>2351.2</ele>
        <time>2021-08-15T11:15:59Z</time>
      </trkpt>
      <trkpt lat="45.491" lon="6.71208">
        <ele>2351.2</ele>
        <time>2021-08-15T11:16:00Z</time>
      </trkpt>
      <trkpt lat="45.491" lon="6.71208">
        <ele>2351.2</ele>
        <time>2021-08-15T11:16:01Z</time>
      </trkpt>
      <trkpt lat="45.491" lon="6.71208">
        <ele>2351.2</ele>
        <time>2021-08-15T11:16:02Z</time>
      </trkpt>
      <trkpt lat="45.491" lon="6.71208">
        <ele>2351.2</ele>
        <time>2021-08-15T11:16:03Z</time>
      </trkpt>
      <trkpt lat="45.491" lon="6.71208">
        <ele>2351.2</ele>
        <time>2021-08-15T11:16:04Z</time>
      </trkpt>
      <trkpt lat="45.491" lon="6.71208">
        <ele>2351.2</ele>
        <time>2021-08-15T11:16:05Z</time>
      </trkpt>
      <trkpt lat="45.491" lon="6.71208">
        <ele>2351.2</ele>
        <time>2021-08-15T11:16:06Z</time>
      </trkpt>
      <trkpt lat="45.491" lon="6.71208">
        <ele>2351.2</ele>
        <time>2021-08-15T11:16:07Z</time>
      </trkpt>
      <trkpt lat="45.491" lon="6.71208">
        <ele>2351.2</ele>
        <time>2021-08-15T11:16:08Z</time>
      </trkpt>
      <trkpt lat="45.491" lon="6.71208">
        <ele>2351.2</ele>
        <time>2021-08-15T11:16:09Z</time>
      </trkpt>
      <trkpt lat="45.491" lon="6.71208">
        <ele>2351.2</ele>
        <time>2021-08-15T11:16:10Z</time>
      </trkpt>
      <trkpt lat="45.491" lon="6.71208">
        <ele>2351.2</ele>
        <time>2021-08-15T11:16:11Z</time>
      </trkpt>
      <trkpt lat="45.491" lon="6.71208">
        <ele>2351.2</ele>
        <time>2021-08-15T11:16:12Z</time>
      </trkpt>
      <trkpt lat="45.491" lon="6.71208">
        <ele>2351.2</ele>
        <time>2021-08-15T11:16:13Z</time>
      </trkpt>
      <trkpt lat="45.491" lon="6.71208">
        <ele>2351.2</ele>
        <time>2021-08-15T11:16:14Z</time>
      </trkpt>
      <trkpt lat="45.491" lon="6.71208">
        <ele>2351.2</ele>
        <time>2021-08-15T11:16:15Z</time>
      </trkpt>
      <trkpt lat="45.491" lon="6.71208">
        <ele>2351.2</ele>
        <time>2021-08-15T11:16:16Z</time>
      </trkpt>
      <trkpt lat="45.491" lon="6.71208">
        <ele>2351.2</ele>
        <time>2021-08-15T11:16:17Z</time>
      </trkpt>
      <trkpt lat="45.491" lon="6.71208">
        <ele>2351.2</ele>
        <time>2021-08-15T11:16:18Z</time>
      </trkpt>
      <trkpt lat="45.491" lon="6.71208">
        <ele>2351.2</ele>
        <time>2021-08-15T11:16:19Z</time>
      </trkpt>
      <trkpt lat="45.491" lon="6.71208">
        <ele>2351.2</ele>
        <time>2021-08-15T11:16:20Z</time>
      </trkpt>
      <trkpt lat="45.491" lon="6.71208">
        <ele>2351.2</ele>
        <time>2021-08-15T11:16:21Z</time>
      </trkpt>
      <trkpt lat="45.491" lon="6.71208">
        <ele>2351.2</ele>
        <time>2021-08-15T11:16:22Z</time>
      </trkpt>
      <trkpt lat="45.491" lon="6.71208">
        <ele>2351.2</ele>
        <time>2021-08-15T11:16:23Z</time>
      </trkpt>
      <trkpt lat="45.491" lon="6.71208">
        <ele>2351.2</ele>
        <time>2021-08-15T11:16:24Z</time>
      </trkpt>
      <trkpt lat="45.491" lon="6.71208">
        <ele>2351.2</ele>
        <time>2021-08-15T11:16:25Z</time>
      </trkpt>
      <trkpt lat="45.491" lon="6.71208">
        <ele>2351.2</ele>
        <time>2021-08-15T11:16:26Z</time>
      </trkpt>
      <trkpt lat="45.491" lon="6.71208">
        <ele>2351.2</ele>
        <time>2021-08-15T11:16:27Z</time>
      </trkpt>
      <trkpt lat="45.491" lon="6.71208">
        <ele>2351.2</ele>
        <time>2021-08-15T11:16:28Z</time>
      </trkpt>
      <trkpt lat="45.491" lon="6.71208">
        <ele>2351.2</ele>
        <time>2021-08-15T11:16:29Z</time>
      </trkpt>
      <trkpt lat="45.491" lon="6.71208">
        <ele>2351.2</ele>
        <time>2021-08-15T11:16:30Z</time>
      </trkpt>
      <trkpt lat="45.491" lon="6.71208">
        <ele>2351.2</ele>
        <time>2021-08-15T11:16:31Z</time>
      </trkpt>
      <trkpt lat="45.491" lon="6.71208">
        <ele>2351.2</ele>
        <time>2021-08-15T11:16:32Z</time>
      </trkpt>
      <trkpt lat="45.491" lon="6.71208">
        <ele>2351.2</ele>
        <time>2021-08-15T11:16:33Z</time>
      </trkpt>
      <trkpt lat="45.491" lon="6.71208">
        <ele>2351.2</ele>
        <time>2021-08-15T11:16:34Z</time>
      </trkpt>
      <trkpt lat="45.491" lon="6.71208">
        <ele>2351.2</ele>
        <time>2021-08-15T11:16:35Z</time>
      </trkpt>
      <trkpt lat="45.491" lon="6.71208">
        <ele>2351.2</ele>
        <time>2021-08-15T11:16:36Z</time>
      </trkpt>
      <trkpt lat="45.491" lon="6.71208">
        <ele>2351.2</ele>
        <time>2021-08-15T11:16:37Z</time>
      </trkpt>
      <trkpt lat="45.491" lon="6.71208">
        <ele>2351.2</ele>
        <time>2021-08-15T11:16:38Z</time>
      </trkpt>
      <trkpt lat="45.491" lon="6.71208">
        <ele>2351.2</ele>
        <time>2021-08-15T11:16:39Z</time>
      </trkpt>
      <trkpt lat="45.491" lon="6.71208">
        <ele>2351.2</ele>
        <time>2021-08-15T11:16:40Z</time>
      </trkpt>
      <trkpt lat="45.491" lon="6.71208">
        <ele>2351.2</ele>
        <time>2021-08-15T11:16:41Z</time>
      </trkpt>
      <trkpt lat="45.491" lon="6.71208">
        <ele>2351.2</ele>
        <time>2021-08-15T11:16:42Z</time>
      </trkpt>
      <trkpt lat="45.491" lon="6.71208">
        <ele>2351.2</ele>
        <time>2021-08-15T11:16:43Z</time>
      </trkpt>
      <trkpt lat="45.491" lon="6.71208">
        <ele>2351.2</ele>
        <time>2021-08-15T11:16:44Z</time>
      </trkpt>
      <trkpt lat="45.491" lon="6.71208">
        <ele>2351.2</ele>
        <time>2021-08-15T11:16:45Z</time>
      </trkpt>
      <trkpt lat="45.491" lon="6.71208">
        <ele>2351.2</ele>
        <time>2021-08-15T11:16:46Z</time>
      </trkpt>
      <trkpt lat="45.491" lon="6.71208">
        <ele>2351.2</ele>
        <time>2021-08-15T11:16:47Z</time>
      </trkpt>
      <trkpt lat="45.491" lon="6.71208">
        <ele>2351.2</ele>
        <time>2021-08-15T11:16:48Z</time>
      </trkpt>
      <trkpt lat="45.491" lon="6.71208">
        <ele>2351.2</ele>
        <time>2021-08-15T11:16:49Z</time>
      </trkpt>
      <trkpt lat="45.491" lon="6.71208">
        <ele>2351.2</ele>
        <time>2021-08-15T11:16:50Z</time>
      </trkpt>
      <trkpt lat="45.491" lon="6.71208">
        <ele>2351.2</ele>
        <time>2021-08-15T11:16:51Z</time>
      </trkpt>
      <trkpt lat="45.491" lon="6.71208">
        <ele>2351.2</ele>
        <time>2021-08-15T11:16:52Z</time>
      </trkpt>
      <trkpt lat="45.491" lon="6.71208">
        <ele>2351.2</ele>
        <time>2021-08-15T11:16:53Z</time>
      </trkpt>
      <trkpt lat="45.491" lon="6.71208">
        <ele>2351.2</ele>
        <time>2021-08-15T11:16:54Z</time>
      </trkpt>
      <trkpt lat="45.491" lon="6.71208">
        <ele>2351.2</ele>
        <time>2021-08-15T11:16:55Z</time>
      </trkpt>
      <trkpt lat="45.491" lon="6.71208">
        <ele>2351.2</ele>
        <time>2021-08-15T11:16:56Z</time>
      </trkpt>
      <trkpt lat="45.491" lon="6.71208">
        <ele>2351.2</ele>
        <time>2021-08-15T11:16:57Z</time>
      </trkpt>
      <trkpt lat="45.491" lon="6.71208">
        <ele>2351.2</ele>
        <time>2021-08-15T11:16:58Z</time>
      </trkpt>
      <trkpt lat="45.491" lon="6.71208">
        <ele>2351.2</ele>
        <time>2021-08-15T11:16:59Z</time>
      </trkpt>
      <trkpt lat="45.491" lon="6.71208">
        <ele>2351.2</ele>
        <time>2021-08-15T11:17:00Z</time>
      </trkpt>
      <trkpt lat="45.491" lon="6.71208">
        <ele>2351.2</ele>
        <time>2021-08-15T11:17:01Z</time>
      </trkpt>
      <trkpt lat="45.491" lon="6.71208">
        <ele>2351.2</ele>
        <time>2021-08-15T11:17:02Z</time>
      </trkpt>
      <trkpt lat="45.491" lon="6.71208">
        <ele>2351.2</ele>
        <time>2021-08-15T11:17:03Z</time>
      </trkpt>
      <trkpt lat="45.491" lon="6.71208">
        <ele>2351.2</ele>
        <time>2021-08-15T11:17:04Z</time>
      </trkpt>
      <trkpt lat="45.491" lon="6.71208">
        <ele>2351.2</ele>
        <time>2021-08-15T11:17:05Z</time>
      </trkpt>
      <trkpt lat="45.491" lon="6.71208">
        <ele>2351.2</ele>
        <time>2021-08-15T11:17:06Z</time>
      </trkpt>
      <trkpt lat="45.491" lon="6.71208">
        <ele>2351.2</ele>
        <time>2021-08-15T11:17:07Z</time>
      </trkpt>
      <trkpt lat="45.491" lon="6.71208">
        <ele>2351.2</ele>
        <time>2021-08-15T11:17:08Z</time>
      </trkpt>
      <trkpt lat="45.491" lon="6.71208">
        <ele>2351.2</ele>
        <time>2021-08-15T11:17:09Z</time>
      </trkpt>
      <trkpt lat="45.491" lon="6.71208">
        <ele>2351.2</ele>
        <time>2021-08-15T11:17:10Z</time>
      </trkpt>
      <trkpt lat="45.491" lon="6.71208">
        <ele>2351.2</ele>
        <time>2021-08-15T11:17:11Z</time>
      </trkpt>
      <trkpt lat="45.491" lon="6.71208">
        <ele>2351.2</ele>
        <time>2021-08-15T11:17:12Z</time>
      </trkpt>
      <trkpt lat="45.491" lon="6.71208">
        <ele>2351.2</ele>
        <time>2021-08-15T11:17:13Z</time>
      </trkpt>
      <trkpt lat="45.491" lon="6.71208">
        <ele>2351.2</ele>
        <time>2021-08-15T11:17:14Z</time>
      </trkpt>
      <trkpt lat="45.491" lon="6.71208">
        <ele>2351.2</ele>
        <time>2021-08-15T11:17:15Z</time>
      </trkpt>
      <trkpt lat="45.491" lon="6.71208">
        <ele>2351.2</ele>
        <time>2021-08-15T11:17:16Z</time>
      </trkpt>
      <trkpt lat="45.491" lon="6.71208">
        <ele>2351.2</ele>
        <time>2021-08-15T11:17:17Z</time>
      </trkpt>
      <trkpt lat="45.491" lon="6.71208">
        <ele>2351.2</ele>
        <time>2021-08-15T11:17:18Z</time>
      </trkpt>
      <trkpt lat="45.491" lon="6.71208">
        <ele>2351.2</ele>
        <time>2021-08-15T11:17:19Z</time>
      </trkpt>
      <trkpt lat="45.491" lon="6.71208">
        <ele>2351.2</ele>
        <time>2021-08-15T11:17:20Z</time>
      </trkpt>
      <trkpt lat="45.491" lon="6.71208">
        <ele>2351.2</ele>
        <time>2021-08-15T11:17:21Z</time>
      </trkpt>
      <trkpt lat="45.491" lon="6.71208">
        <ele>2351.2</ele>
        <time>2021-08-15T11:17:22Z</time>
      </trkpt>
      <trkpt lat="45.491" lon="6.71208">
        <ele>2351.2</ele>
        <time>2021-08-15T11:17:23Z</time>
      </trkpt>
      <trkpt lat="45.491" lon="6.71208">
        <ele>2351.2</ele>
        <time>2021-08-15T11:17:24Z</time>
      </trkpt>
      <trkpt lat="45.491" lon="6.71208">
        <ele>2351.2</ele>
        <time>2021-08-15T11:17:25Z</time>
      </trkpt>
      <trkpt lat="45.491" lon="6.71208">
        <ele>2351.2</ele>
        <time>2021-08-15T11:17:26Z</time>
      </trkpt>
      <trkpt lat="45.491" lon="6.71208">
        <ele>2351.2</ele>
        <time>2021-08-15T11:17:27Z</time>
      </trkpt>
      <trkpt lat="45.491" lon="6.71208">
        <ele>2351.2</ele>
        <time>2021-08-15T11:17:28Z</time>
      </trkpt>
      <trkpt lat="45.491" lon="6.71208">
        <ele>2351.2</ele>
        <time>2021-08-15T11:17:29Z</time>
      </trkpt>
      <trkpt lat="45.491" lon="6.71208">
        <ele>2351.2</ele>
        <time>2021-08-15T11:17:30Z</time>
      </trkpt>
      <trkpt lat="45.491" lon="6.71208">
        <ele>2351.2</ele>
        <time>2021-08-15T11:17:31Z</time>
      </trkpt>
      <trkpt lat="45.491" lon="6.71208">
        <ele>2351.2</ele>
        <time>2021-08-15T11:17:32Z</time>
      </trkpt>
      <trkpt lat="45.491" lon="6.71208">
        <ele>2351.2</ele>
        <time>2021-08-15T11:17:33Z</time>
      </trkpt>
      <trkpt lat="45.491" lon="6.71208">
        <ele>2351.2</ele>
        <time>2021-08-15T11:17:34Z</time>
      </trkpt>
      <trkpt lat="45.491" lon="6.71208">
        <ele>2351.2</ele>
        <time>2021-08-15T11:17:35Z</time>
      </trkpt>
      <trkpt lat="45.491" lon="6.71208">
        <ele>2351.2</ele>
        <time>2021-08-15T11:17:36Z</time>
      </trkpt>
      <trkpt lat="45.491" lon="6.71208">
        <ele>2351.2</ele>
        <time>2021-08-15T11:17:37Z</time>
      </trkpt>
      <trkpt lat="45.491" lon="6.71208">
        <ele>2351.2</ele>
        <time>2021-08-15T11:17:38Z</time>
      </trkpt>
      <trkpt lat="45.491" lon="6.71208">
        <ele>2351.2</ele>
        <time>2021-08-15T11:17:39Z</time>
      </trkpt>
      <trkpt lat="45.491" lon="6.71208">
        <ele>2351.2</ele>
        <time>2021-08-15T11:17:40Z</time>
      </trkpt>
      <trkpt lat="45.491" lon="6.71208">
        <ele>2351.2</ele>
        <time>2021-08-15T11:17:41Z</time>
      </trkpt>
      <trkpt lat="45.491" lon="6.71208">
        <ele>2351.2</ele>
        <time>2021-08-15T11:17:42Z</time>
      </trkpt>
      <trkpt lat="45.491" lon="6.71208">
        <ele>2351.2</ele>
        <time>2021-08-15T11:17:43Z</time>
      </trkpt>
      <trkpt lat="45.491" lon="6.71208">
        <ele>2351.2</ele>
        <time>2021-08-15T11:17:44Z</time>
      </trkpt>
      <trkpt lat="45.491" lon="6.71208">
        <ele>2351.2</ele>
        <time>2021-08-15T11:17:45Z</time>
      </trkpt>
      <trkpt lat="45.491" lon="6.71208">
        <ele>2351.2</ele>
        <time>2021-08-15T11:17:46Z</time>
      </trkpt>
      <trkpt lat="45.491" lon="6.71208">
        <ele>2351.2</ele>
        <time>2021-08-15T11:17:47Z</time>
      </trkpt>
      <trkpt lat="45.491" lon="6.71208">
        <ele>2351.2</ele>
        <time>2021-08-15T11:17:48Z</time>
      </trkpt>
      <trkpt lat="45.491" lon="6.71208">
        <ele>2351.2</ele>
        <time>2021-08-15T11:17:49Z</time>
      </trkpt>
      <trkpt lat="45.491" lon="6.71208">
        <ele>2351.2</ele>
        <time>2021-08-15T11:17:50Z</time>
      </trkpt>
      <trkpt lat="45.491" lon="6.71208">
        <ele>2351.2</ele>
        <time>2021-08-15T11:17:51Z</time>
      </trkpt>
      <trkpt lat="45.491" lon="6.71208">
        <ele>2351.2</ele>
        <time>2021-08-15T11:17:52Z</time>
      </trkpt>
      <trkpt lat="45.491" lon="6.71208">
        <ele>2351.2</ele>
        <time>2021-08-15T11:17:53Z</time>
      </trkpt>
      <trkpt lat="45.491" lon="6.71208">
        <ele>2351.2</ele>
        <time>2021-08-15T11:17:54Z</time>
      </trkpt>
      <trkpt lat="45.491" lon="6.71208">
        <ele>2351.2</ele>
        <time>2021-08-15T11:17:55Z</time>
      </trkpt>
      <trkpt lat="45.491" lon="6.71208">
        <ele>2351.2</ele>
        <time>2021-08-15T11:17:56Z</time>
      </trkpt>
      <trkpt lat="45.491" lon="6.71208">
        <ele>2351.2</ele>
        <time>2021-08-15T11:17:57Z</time>
      </trkpt>
      <trkpt lat="45.491" lon="6.71208">
        <ele>2351.2</ele>
        <time>2021-08-15T11:17:58Z</time>
      </trkpt>
      <trkpt lat="45.491" lon="6.71208">
        <ele>2351.2</ele>
        <time>2021-08-15T11:17:59Z</time>
      </trkpt>
      <trkpt lat="45.491" lon="6.71208">
        <ele>2351.2</ele>
        <time>2021-08-15T11:18:00Z</time>
      </trkpt>
      <trkpt lat="45.491" lon="6.71208">
        <ele>2351.2</ele>
        <time>2021-08-15T11:18:01Z</time>
      </trkpt>
      <trkpt lat="45.491" lon="6.71208">
        <ele>2351.2</ele>
        <time>2021-08-15T11:18:02Z</time>
      </trkpt>
      <trkpt lat="45.491" lon="6.71208">
        <ele>2351.2</ele>
        <time>2021-08-15T11:18:03Z</time>
      </trkpt>
      <trkpt lat="45.491" lon="6.71208">
        <ele>2351.2</ele>
        <time>2021-08-15T11:18:04Z</time>
      </trkpt>
      <trkpt lat="45.491" lon="6.71208">
        <ele>2351.2</ele>
        <time>2021-08-15T11:18:05Z</time>
      </trkpt>
      <trkpt lat="45.491" lon="6.71208">
        <ele>2351.2</ele>
        <time>2021-08-15T11:18:06Z</time>
      </trkpt>
      <trkpt lat="45.491" lon="6.71208">
        <ele>2351.2</ele>
        <time>2021-08-15T11:18:07Z</time>
      </trkpt>
      <trkpt lat="45.491" lon="6.71208">
        <ele>2351.2</ele>
        <time>2021-08-15T11:18:08Z</time>
      </trkpt>
      <trkpt lat="45.491" lon="6.71208">
        <ele>2351.2</ele>
        <time>2021-08-15T11:18:09Z</time>
      </trkpt>
      <trkpt lat="45.491" lon="6.71208">
        <ele>2351.2</ele>
        <time>2021-08-15T11:18:10Z</time>
      </trkpt>
      <trkpt lat="45.491" lon="6.71208">
        <ele>2351.2</ele>
        <time>2021-08-15T11:18:11Z</time>
      </trkpt>
      <trkpt lat="45.491" lon="6.71208">
        <ele>2351.2</ele>
        <time>2021-08-15T11:18:12Z</time>
      </trkpt>
      <trkpt lat="45.491" lon="6.71208">
        <ele>2351.2</ele>
        <time>2021-08-15T11:18:13Z</time>
      </trkpt>
      <trkpt lat="45.491" lon="6.71208">
        <ele>2351.2</ele>
        <time>2021-08-15T11:18:14Z</time>
      </trkpt>
      <trkpt lat="45.491" lon="6.71208">
        <ele>2351.2</ele>
        <time>2021-08-15T11:18:15Z</time>
      </trkpt>
      <trkpt lat="45.491" lon="6.71208">
        <ele>2351.2</ele>
        <time>2021-08-15T11:18:16Z</time>
      </trkpt>
      <trkpt lat="45.491" lon="6.71208">
        <ele>2351.2</ele>
        <time>2021-08-15T11:18:17Z</time>
      </trkpt>
      <trkpt lat="45.491" lon="6.71208">
        <ele>2351.2</ele>
        <time>2021-08-15T11:18:18Z</time>
      </trkpt>
      <trkpt lat="45.491" lon="6.71208">
        <ele>2351.2</ele>
        <time>2021-08-15T11:18:19Z</time>
      </trkpt>
      <trkpt lat="45.491" lon="6.71208">
        <ele>2351.2</ele>
        <time>2021-08-15T11:18:20Z</time>
      </trkpt>
      <trkpt lat="45.491" lon="6.71208">
        <ele>2351.2</ele>
        <time>2021-08-15T11:18:21Z</time>
      </trkpt>
      <trkpt lat="45.491" lon="6.71208">
        <ele>2351.2</ele>
        <time>2021-08-15T11:18:22Z</time>
      </trkpt>
      <trkpt lat="45.491" lon="6.71208">
        <ele>2351.2</ele>
        <time>2021-08-15T11:18:23Z</time>
      </trkpt>
      <trkpt lat="45.491" lon="6.71208">
        <ele>2351.2</ele>
        <time>2021-08-15T11:18:24Z</time>
      </trkpt>
      <trkpt lat="45.491" lon="6.71208">
        <ele>2351.2</ele>
        <time>2021-08-15T11:18:25Z</time>
      </trkpt>
      <trkpt lat="45.491" lon="6.71208">
        <ele>2351.2</ele>
        <time>2021-08-15T11:18:26Z</time>
      </trkpt>
      <trkpt lat="45.491" lon="6.71208">
        <ele>2351.2</ele>
        <time>2021-08-15T11:18:27Z</time>
      </trkpt>
      <trkpt lat="45.491" lon="6.71208">
        <ele>2351.2</ele>
        <time>2021-08-15T11:18:28Z</time>
      </trkpt>
      <trkpt lat="45.491" lon="6.71208">
        <ele>2351.2</ele>
        <time>2021-08-15T11:18:29Z</time>
      </trkpt>
      <trkpt lat="45.491" lon="6.71208">
        <ele>2351.2</ele>
        <time>2021-08-15T11:18:30Z</time>
      </trkpt>
      <trkpt lat="45.491" lon="6.71208">
        <ele>2351.2</ele>
        <time>2021-08-15T11:18:31Z</time>
      </trkpt>
      <trkpt lat="45.491" lon="6.71208">
        <ele>2351.2</ele>
        <time>2021-08-15T11:18:32Z</time>
      </trkpt>
      <trkpt lat="45.491" lon="6.71208">
        <ele>2351.2</ele>
        <time>2021-08-15T11:18:33Z</time>
      </trkpt>
      <trkpt lat="45.491" lon="6.71208">
        <ele>2351.2</ele>
        <time>2021-08-15T11:18:34Z</time>
      </trkpt>
      <trkpt lat="45.491" lon="6.71208">
        <ele>2351.2</ele>
        <time>2021-08-15T11:18:35Z</time>
      </trkpt>
      <trkpt lat="45.491" lon="6.71208">
        <ele>2351.2</ele>
        <time>2021-08-15T11:18:36Z</time>
      </trkpt>
      <trkpt lat="45.491" lon="6.71208">
        <ele>2351.2</ele>
        <time>2021-08-15T11:18:37Z</time>
      </trkpt>
      <trkpt lat="45.491" lon="6.71208">
        <ele>2351.2</ele>
        <time>2021-08-15T11:18:38Z</time>
      </trkpt>
      <trkpt lat="45.491" lon="6.71208">
        <ele>2351.2</ele>
        <time>2021-08-15T11:18:39Z</time>
      </trkpt>
      <trkpt lat="45.491" lon="6.71208">
        <ele>2351.2</ele>
        <time>2021-08-15T11:18:40Z</time>
      </trkpt>
      <trkpt lat="45.491" lon="6.71208">
        <ele>2351.2</ele>
        <time>2021-08-15T11:18:41Z</time>
      </trkpt>
      <trkpt lat="45.491" lon="6.71208">
        <ele>2351.2</ele>
        <time>2021-08-15T11:18:42Z</time>
      </trkpt>
      <trkpt lat="45.491" lon="6.71208">
        <ele>2351.2</ele>
        <time>2021-08-15T11:18:43Z</time>
      </trkpt>
      <trkpt lat="45.491" lon="6.71208">
        <ele>2351.2</ele>
        <time>2021-08-15T11:18:44Z</time>
      </trkpt>
      <trkpt lat="45.491" lon="6.71208">
        <ele>2351.2</ele>
        <time>2021-08-15T11:18:45Z</time>
      </trkpt>
      <trkpt lat="45.491" lon="6.71208">
        <ele>2351.2</ele>
        <time>2021-08-15T11:18:46Z</time>
      </trkpt>
      <trkpt lat="45.491" lon="6.71208">
        <ele>2351.2</ele>
        <time>2021-08-15T11:18:47Z</time>
      </trkpt>
      <trkpt lat="45.491" lon="6.71208">
        <ele>2351.2</ele>
        <time>2021-08-15T11:18:48Z</time>
      </trkpt>
      <trkpt lat="45.491" lon="6.71208">
        <ele>2351.2</ele>
        <time>2021-08-15T11:18:49Z</time>
      </trkpt>
      <trkpt lat="45.491" lon="6.71208">
        <ele>2351.2</ele>
        <time>2021-08-15T11:18:50Z</time>
      </trkpt>
      <trkpt lat="45.491" lon="6.71208">
        <ele>2351.2</ele>
        <time>2021-08-15T11:18:51Z</time>
      </trkpt>
      <trkpt lat="45.491" lon="6.71208">
        <ele>2351.2</ele>
        <time>2021-08-15T11:18:52Z</time>
      </trkpt>
      <trkpt lat="45.491" lon="6.71208">
        <ele>2351.2</ele>
        <time>2021-08-15T11:18:53Z</time>
      </trkpt>
      <trkpt lat="45.491" lon="6.71208">
        <ele>2351.2</ele>
        <time>2021-08-15T11:18:54Z</time>
      </trkpt>
      <trkpt lat="45.491" lon="6.71208">
        <ele>2351.2</ele>
        <time>2021-08-15T11:18:55Z</time>
      </trkpt>
      <trkpt lat="45.491" lon="6.71208">
        <ele>2351.2</ele>
        <time>2021-08-15T11:18:56Z</time>
      </trkpt>
      <trkpt lat="45.491" lon="6.71208">
        <ele>2351.2</ele>
        <time>2021-08-15T11:18:57Z</time>
      </trkpt>
      <trkpt lat="45.491" lon="6.71208">
        <ele>2351.2</ele>
        <time>2021-08-15T11:18:58Z</time>
      </trkpt>
      <trkpt lat="45.491" lon="6.71208">
        <ele>2351.2</ele>
        <time>2021-08-15T11:18:59Z</time>
      </trkpt>
      <trkpt lat="45.491" lon="6.71208">
        <ele>2351.2</ele>
        <time>2021-08-15T11:19:00Z</time>
      </trkpt>
      <trkpt lat="45.491" lon="6.71208">
        <ele>2351.2</ele>
        <time>2021-08-15T11:19:01Z</time>
      </trkpt>
      <trkpt lat="45.491" lon="6.71208">
        <ele>2351.2</ele>
        <time>2021-08-15T11:19:02Z</time>
      </trkpt>
      <trkpt lat="45.491" lon="6.71208">
        <ele>2351.2</ele>
        <time>2021-08-15T11:19:03Z</time>
      </trkpt>
      <trkpt lat="45.491" lon="6.71208">
        <ele>2351.2</ele>
        <time>2021-08-15T11:19:04Z</time>
      </trkpt>
      <trkpt lat="45.491" lon="6.71208">
        <ele>2351.2</ele>
        <time>2021-08-15T11:19:05Z</time>
      </trkpt>
      <trkpt lat="45.491" lon="6.71208">
        <ele>2351.2</ele>
        <time>2021-08-15T11:19:06Z</time>
      </trkpt>
      <trkpt lat="45.491" lon="6.71208">
        <ele>2351.2</ele>
        <time>2021-08-15T11:19:07Z</time>
      </trkpt>
      <trkpt lat="45.491" lon="6.71208">
        <ele>2351.2</ele>
        <time>2021-08-15T11:19:08Z</time>
      </trkpt>
      <trkpt lat="45.491" lon="6.71208">
        <ele>2351.2</ele>
        <time>2021-08-15T11:19:09Z</time>
      </trkpt>
      <trkpt lat="45.491" lon="6.71208">
        <ele>2351.2</ele>
        <time>2021-08-15T11:19:10Z</time>
      </trkpt>
      <trkpt lat="45.491" lon="6.71208">
        <ele>2351.2</ele>
        <time>2021-08-15T11:19:11Z</time>
      </trkpt>
      <trkpt lat="45.491" lon="6.71208">
        <ele>2351.2</ele>
        <time>2021-08-15T11:19:12Z</time>
      </trkpt>
      <trkpt lat="45.491" lon="6.71208">
        <ele>2351.2</ele>
        <time>2021-08-15T11:19:13Z</time>
      </trkpt>
      <trkpt lat="45.491" lon="6.71208">
        <ele>2351.2</ele>
        <time>2021-08-15T11:19:14Z</time>
      </trkpt>
      <trkpt lat="45.491" lon="6.71208">
        <ele>2351.2</ele>
        <time>2021-08-15T11:19:15Z</time>
      </trkpt>
      <trkpt lat="45.491" lon="6.71208">
        <ele>2351.2</ele>
        <time>2021-08-15T11:19:16Z</time>
      </trkpt>
      <trkpt lat="45.491" lon="6.71208">
        <ele>2351.2</ele>
        <time>2021-08-15T11:19:17Z</time>
      </trkpt>
      <trkpt lat="45.491" lon="6.71208">
        <ele>2351.2</ele>
        <time>2021-08-15T11:19:18Z</time>
      </trkpt>
      <trkpt lat="45.491" lon="6.71208">
        <ele>2351.2</ele>
        <time>2021-08-15T11:19:19Z</time>
      </trkpt>
      <trkpt lat="45.491" lon="6.71208">
        <ele>2351.2</ele>
        <time>2021-08-15T11:19:20Z</time>
      </trkpt>
      <trkpt lat="45.491" lon="6.71208">
        <ele>2351.2</ele>
        <time>2021-08-15T11:19:21Z</time>
      </trkpt>
      <trkpt lat="45.491" lon="6.71208">
        <ele>2351.2</ele>
        <time>2021-08-15T11:19:22Z</time>
      </trkpt>
      <trkpt lat="45.491" lon="6.71208">
        <ele>2351.2</ele>
        <time>2021-08-15T11:19:23Z</time>
      </trkpt>
      <trkpt lat="45.491" lon="6.71208">
        <ele>2351.2</ele>
        <time>2021-08-15T11:19:24Z</time>
      </trkpt>
      <trkpt lat="45.491" lon="6.71208">
        <ele>2351.2</ele>
        <time>2021-08-15T11:19:25Z</time>
      </trkpt>
      <trkpt lat="45.491" lon="6.71208">
        <ele>2351.2</ele>
        <time>2021-08-15T11:19:26Z</time>
      </trkpt>
      <trkpt lat="45.491" lon="6.71208">
        <ele>2351.2</ele>
        <time>2021-08-15T11:19:27Z</time>
      </trkpt>
      <trkpt lat="45.491" lon="6.71208">
        <ele>2351.2</ele>
        <time>2021-08-15T11:19:28Z</time>
      </trkpt>
      <trkpt lat="45.491" lon="6.71208">
        <ele>2351.2</ele>
        <time>2021-08-15T11:19:29Z</time>
      </trkpt>
      <trkpt lat="45.491" lon="6.71208">
        <ele>2351.2</ele>
        <time>2021-08-15T11:19:30Z</time>
      </trkpt>
      <trkpt lat="45.491" lon="6.71208">
        <ele>2351.2</ele>
        <time>2021-08-15T11:19:31Z</time>
      </trkpt>
      <trkpt lat="45.491" lon="6.71208">
        <ele>2351.2</ele>
        <time>2021-08-15T11:19:32Z</time>
      </trkpt>
      <trkpt lat="45.491" lon="6.71208">
        <ele>2351.2</ele>
        <time>2021-08-15T11:19:33Z</time>
      </trkpt>
      <trkpt lat="45.491" lon="6.71208">
        <ele>2351.2</ele>
        <time>2021-08-15T11:19:34Z</time>
      </trkpt>
      <trkpt lat="45.491" lon="6.71208">
        <ele>2351.2</ele>
        <time>2021-08-15T11:19:35Z</time>
      </trkpt>
      <trkpt lat="45.491" lon="6.71208">
        <ele>2351.2</ele>
        <time>2021-08-15T11:19:36Z</time>
      </trkpt>
      <trkpt lat="45.491" lon="6.71208">
        <ele>2351.2</ele>
        <time>2021-08-15T11:19:37Z</time>
      </trkpt>
      <trkpt lat="45.491" lon="6.71208">
        <ele>2351.2</ele>
        <time>2021-08-15T11:19:38Z</time>
      </trkpt>
      <trkpt lat="45.491" lon="6.71208">
        <ele>2351.2</ele>
        <time>2021-08-15T11:19:39Z</time>
      </trkpt>
      <trkpt lat="45.491" lon="6.71208">
        <ele>2351.2</ele>
        <time>2021-08-15T11:19:40Z</time>
      </trkpt>
      <trkpt lat="45.491" lon="6.71208">
        <ele>2351.2</ele>
        <time>2021-08-15T11:19:41Z</time>
      </trkpt>
      <trkpt lat="45.491" lon="6.71208">
        <ele>2351.2</ele>
        <time>2021-08-15T11:19:42Z</time>
      </trkpt>
      <trkpt lat="45.491" lon="6.71208">
        <ele>2351.2</ele>
        <time>2021-08-15T11:19:43Z</time>
      </trkpt>
      <trkpt lat="45.491" lon="6.71208">
        <ele>2351.2</ele>
        <time>2021-08-15T11:19:44Z</time>
      </trkpt>
      <trkpt lat="45.491" lon="6.71208">
        <ele>2351.2</ele>
        <time>2021-08-15T11:19:45Z</time>
      </trkpt>
      <trkpt lat="45.491" lon="6.71208">
        <ele>2351.2</ele>
        <time>2021-08-15T11:19:46Z</time>
      </trkpt>
      <trkpt lat="45.491" lon="6.71208">
        <ele>2351.2</ele>
        <time>2021-08-15T11:19:47Z</time>
      </trkpt>
      <trkpt lat="45.491" lon="6.71208">
        <ele>2351.2</ele>
        <time>2021-08-15T11:19:48Z</time>
      </trkpt>
      <trkpt lat="45.491" lon="6.71208">
        <ele>2351.2</ele>
        <time>2021-08-15T11:19:49Z</time>
      </trkpt>
      <trkpt lat="45.491" lon="6.71208">
        <ele>2351.2</ele>
        <time>2021-08-15T11:19:50Z</time>
      </trkpt>
      <trkpt lat="45.491" lon="6.71208">
        <ele>2351.2</ele>
        <time>2021-08-15T11:19:51Z</time>
      </trkpt>
      <trkpt lat="45.491" lon="6.71208">
        <ele>2351.2</ele>
        <time>2021-08-15T11:19:52Z</time>
      </trkpt>
      <trkpt lat="45.491" lon="6.71208">
        <ele>2351.2</ele>
        <time>2021-08-15T11:19:53Z</time>
      </trkpt>
      <trkpt lat="45.491" lon="6.71208">
        <ele>2351.2</ele>
        <time>2021-08-15T11:19:54Z</time>
      </trkpt>
      <trkpt lat="45.491" lon="6.71208">
        <ele>2351.2</ele>
        <time>2021-08-15T11:19:55Z</time>
      </trkpt>
      <trkpt lat="45.491" lon="6.71208">
        <ele>2351.2</ele>
        <time>2021-08-15T11:19:56Z</time>
      </trkpt>
      <trkpt lat="45.491" lon="6.71208">
        <ele>2351.2</ele>
        <time>2021-08-15T11:19:57Z</time>
      </trkpt>
      <trkpt lat="45.491" lon="6.71208">
        <ele>2351.2</ele>
        <time>2021-08-15T11:19:58Z</time>
      </trkpt>
      <trkpt lat="45.491" lon="6.71208">
        <ele>2351.2</ele>
        <time>2021-08-15T11:19:59Z</time>
      </trkpt>
      <trkpt lat="45.491" lon="6.71208">
        <ele>2351.2</ele>
        <time>2021-08-15T11:20:00Z</time>
      </trkpt>
      <trkpt lat="45.491" lon="6.71208">
        <ele>2351.2</ele>
        <time>2021-08-15T11:20:01Z</time>
      </trkpt>
      <trkpt lat="45.491" lon="6.71208">
        <ele>2351.2</ele>
        <time>2021-08-15T11:20:02Z</time>
      </trkpt>
      <trkpt lat="45.491" lon="6.71208">
        <ele>2351.2</ele>
        <time>2021-08-15T11:20:03Z</time>
      </trkpt>
      <trkpt lat="45.491" lon="6.71208">
        <ele>2351.2</ele>
        <time>2021-08-15T11:20:04Z</time>
      </trkpt>
      <trkpt lat="45.491" lon="6.71208">
        <ele>2351.2</ele>
        <time>2021-08-15T11:20:05Z</time>
      </trkpt>
      <trkpt lat="45.491" lon="6.71208">
        <ele>2351.2</ele>
        <time>2021-08-15T11:20:06Z</time>
      </trkpt>
      <trkpt lat="45.491" lon="6.71208">
        <ele>2351.2</ele>
        <time>2021-08-15T11:20:07Z</time>
      </trkpt>
      <trkpt lat="45.491" lon="6.71208">
        <ele>2351.2</ele>
        <time>2021-08-15T11:20:08Z</time>
      </trkpt>
      <trkpt lat="45.491" lon="6.71208">
        <ele>2351.2</ele>
        <time>2021-08-15T11:20:09Z</time>
      </trkpt>
      <trkpt lat="45.491" lon="6.71208">
        <ele>2351.2</ele>
        <time>2021-08-15T11:20:10Z</time>
      </trkpt>
      <trkpt lat="45.491" lon="6.71208">
        <ele>2351.2</ele>
        <time>2021-08-15T11:20:11Z</time>
      </trkpt>
      <trkpt lat="45.491" lon="6.71208">
        <ele>2351.2</ele>
        <time>2021-08-15T11:20:12Z</time>
      </trkpt>
      <trkpt lat="45.491" lon="6.71208">
        <ele>2351.2</ele>
        <time>2021-08-15T11:20:13Z</time>
      </trkpt>
      <trkpt lat="45.491" lon="6.71208">
        <ele>2351.2</ele>
        <time>2021-08-15T11:20:14Z</time>
      </trkpt>
      <trkpt lat="45.491" lon="6.71208">
        <ele>2351.2</ele>
        <time>2021-08-15T11:20:15Z</time>
      </trkpt>
      <trkpt lat="45.491" lon="6.71208">
        <ele>2351.2</ele>
        <time>2021-08-15T11:20:16Z</time>
      </trkpt>
      <trkpt lat="45.491" lon="6.71208">
        <ele>2351.2</ele>
        <time>2021-08-15T11:20:17Z</time>
      </trkpt>
      <trkpt lat="45.491" lon="6.71208">
        <ele>2351.2</ele>
        <time>2021-08-15T11:20:18Z</time>
      </trkpt>
      <trkpt lat="45.491" lon="6.71208">
        <ele>2351.2</ele>
        <time>2021-08-15T11:20:19Z</time>
      </trkpt>
      <trkpt lat="45.491" lon="6.71208">
        <ele>2351.2</ele>
        <time>2021-08-15T11:20:20Z</time>
      </trkpt>
      <trkpt lat="45.491" lon="6.71208">
        <ele>2351.2</ele>
        <time>2021-08-15T11:20:21Z</time>
      </trkpt>
      <trkpt lat="45.491" lon="6.71208">
        <ele>2351.2</ele>
        <time>2021-08-15T11:20:22Z</time>
      </trkpt>
      <trkpt lat="45.491" lon="6.71208">
        <ele>2351.2</ele>
        <time>2021-08-15T11:20:23Z</time>
      </trkpt>
      <trkpt lat="45.491" lon="6.71208">
        <ele>2351.2</ele>
        <time>2021-08-15T11:20:24Z</time>
      </trkpt>
      <trkpt lat="45.491" lon="6.71208">
        <ele>2351.2</ele>
        <time>2021-08-15T11:20:25Z</time>
      </trkpt>
      <trkpt lat="45.491" lon="6.71208">
        <ele>2351.2</ele>
        <time>2021-08-15T11:20:26Z</time>
      </trkpt>
      <trkpt lat="45.491" lon="6.71208">
        <ele>2351.2</ele>
        <time>2021-08-15T11:20:27Z</time>
      </trkpt>
      <trkpt lat="45.491" lon="6.71208">
        <ele>2351.2</ele>
        <time>2021-08-15T11:20:28Z</time>
      </trkpt>
      <trkpt lat="45.491" lon="6.71208">
        <ele>2351.2</ele>
        <time>2021-08-15T11:20:29Z</time>
      </trkpt>
      <trkpt lat="45.491" lon="6.71208">
        <ele>2351.2</ele>
        <time>2021-08-15T11:20:30Z</time>
      </trkpt>
      <trkpt lat="45.491" lon="6.71208">
        <ele>2351.2</ele>
        <time>2021-08-15T11:20:31Z</time>
      </trkpt>
      <trkpt lat="45.491" lon="6.71208">
        <ele>2351.2</ele>
        <time>2021-08-15T11:20:32Z</time>
      </trkpt>
      <trkpt lat="45.491" lon="6.71208">
        <ele>2351.2</ele>
        <time>2021-08-15T11:20:33Z</time>
      </trkpt>
      <trkpt lat="45.491" lon="6.71208">
        <ele>2351.2</ele>
        <time>2021-08-15T11:20:34Z</time>
      </trkpt>
      <trkpt lat="45.491" lon="6.71208">
        <ele>2351.2</ele>
        <time>2021-08-15T11:20:35Z</time>
      </trkpt>
      <trkpt lat="45.491" lon="6.71208">
        <ele>2351.2</ele>
        <time>2021-08-15T11:20:36Z</time>
      </trkpt>
      <trkpt lat="45.491" lon="6.71208">
        <ele>2351.2</ele>
        <time>2021-08-15T11:20:37Z</time>
      </trkpt>
      <trkpt lat="45.491" lon="6.71208">
        <ele>2351.2</ele>
        <time>2021-08-15T11:20:38Z</time>
      </trkpt>
      <trkpt lat="45.491" lon="6.71208">
        <ele>2351.2</ele>
        <time>2021-08-15T11:20:39Z</time>
      </trkpt>
      <trkpt lat="45.491" lon="6.71208">
        <ele>2351.2</ele>
        <time>2021-08-15T11:20:40Z</time>
      </trkpt>
      <trkpt lat="45.491" lon="6.71208">
        <ele>2351.2</ele>
        <time>2021-08-15T11:20:41Z</time>
      </trkpt>
      <trkpt lat="45.491" lon="6.71208">
        <ele>2351.2</ele>
        <time>2021-08-15T11:20:42Z</time>
      </trkpt>
      <trkpt lat="45.491" lon="6.71208">
        <ele>2351.2</ele>
        <time>2021-08-15T11:20:43Z</time>
      </trkpt>
      <trkpt lat="45.491" lon="6.71208">
        <ele>2351.2</ele>
        <time>2021-08-15T11:20:44Z</time>
      </trkpt>
      <trkpt lat="45.491" lon="6.71208">
        <ele>2351.2</ele>
        <time>2021-08-15T11:20:45Z</time>
      </trkpt>
      <trkpt lat="45.491" lon="6.71208">
        <ele>2351.2</ele>
        <time>2021-08-15T11:20:46Z</time>
      </trkpt>
      <trkpt lat="45.491" lon="6.71208">
        <ele>2351.2</ele>
        <time>2021-08-15T11:20:47Z</time>
      </trkpt>
      <trkpt lat="45.491" lon="6.71208">
        <ele>2351.2</ele>
        <time>2021-08-15T11:20:48Z</time>
      </trkpt>
      <trkpt lat="45.491" lon="6.71208">
        <ele>2351.2</ele>
        <time>2021-08-15T11:20:49Z</time>
      </trkpt>
      <trkpt lat="45.491" lon="6.71208">
        <ele>2351.2</ele>
        <time>2021-08-15T11:20:50Z</time>
      </trkpt>
      <trkpt lat="45.491" lon="6.71208">
        <ele>2351.2</ele>
        <time>2021-08-15T11:20:51Z</time>
      </trkpt>
      <trkpt lat="45.491" lon="6.71208">
        <ele>2351.2</ele>
        <time>2021-08-15T11:20:52Z</time>
      </trkpt>
      <trkpt lat="45.491" lon="6.71208">
        <ele>2351.2</ele>
        <time>2021-08-15T11:20:53Z</time>
      </trkpt>
      <trkpt lat="45.491" lon="6.71208">
        <ele>2351.2</ele>
        <time>2021-08-15T11:20:54Z</time>
      </trkpt>
      <trkpt lat="45.491" lon="6.71208">
        <ele>2351.2</ele>
        <time>2021-08-15T11:20:55Z</time>
      </trkpt>
      <trkpt lat="45.491" lon="6.71208">
        <ele>2351.2</ele>
        <time>2021-08-15T11:20:56Z</time>
      </trkpt>
      <trkpt lat="45.491" lon="6.71208">
        <ele>2351.2</ele>
        <time>2021-08-15T11:20:57Z</time>
      </trkpt>
      <trkpt lat="45.491" lon="6.71208">
        <ele>2351.2</ele>
        <time>2021-08-15T11:20:58Z</time>
      </trkpt>
      <trkpt lat="45.491" lon="6.71208">
        <ele>2351.2</ele>
        <time>2021-08-15T11:20:59Z</time>
      </trkpt>
      <trkpt lat="45.491" lon="6.71208">
        <ele>2351.2</ele>
        <time>2021-08-15T11:21:00Z</time>
      </trkpt>
      <trkpt lat="45.491" lon="6.71208">
        <ele>2351.2</ele>
        <time>2021-08-15T11:21:01Z</time>
      </trkpt>
      <trkpt lat="45.491" lon="6.71208">
        <ele>2351.1</ele>
        <time>2021-08-15T11:21:02Z</time>
      </trkpt>
      <trkpt lat="45.491" lon="6.71208">
        <ele>2351.1</ele>
        <time>2021-08-15T11:21:03Z</time>
      </trkpt>
      <trkpt lat="45.491" lon="6.71208">
        <ele>2351.1</ele>
        <time>2021-08-15T11:21:04Z</time>
      </trkpt>
      <trkpt lat="45.491" lon="6.71208">
        <ele>2351.1</ele>
        <time>2021-08-15T11:21:05Z</time>
      </trkpt>
      <trkpt lat="45.491" lon="6.71208">
        <ele>2351.1</ele>
        <time>2021-08-15T11:21:06Z</time>
      </trkpt>
      <trkpt lat="45.491" lon="6.71208">
        <ele>2351.1</ele>
        <time>2021-08-15T11:21:07Z</time>
      </trkpt>
      <trkpt lat="45.491" lon="6.71208">
        <ele>2351.1</ele>
        <time>2021-08-15T11:21:08Z</time>
      </trkpt>
      <trkpt lat="45.491" lon="6.71208">
        <ele>2351.1</ele>
        <time>2021-08-15T11:21:09Z</time>
      </trkpt>
      <trkpt lat="45.491" lon="6.71208">
        <ele>2351.1</ele>
        <time>2021-08-15T11:21:10Z</time>
      </trkpt>
      <trkpt lat="45.491" lon="6.71207">
        <ele>2351.1</ele>
        <time>2021-08-15T11:21:11Z</time>
      </trkpt>
      <trkpt lat="45.491" lon="6.71207">
        <ele>2351.1</ele>
        <time>2021-08-15T11:21:12Z</time>
      </trkpt>
      <trkpt lat="45.491" lon="6.71207">
        <ele>2351.1</ele>
        <time>2021-08-15T11:21:13Z</time>
      </trkpt>
      <trkpt lat="45.491" lon="6.71207">
        <ele>2351.1</ele>
        <time>2021-08-15T11:21:14Z</time>
      </trkpt>
      <trkpt lat="45.491" lon="6.71207">
        <ele>2351.1</ele>
        <time>2021-08-15T11:21:15Z</time>
      </trkpt>
      <trkpt lat="45.491" lon="6.71207">
        <ele>2351.1</ele>
        <time>2021-08-15T11:21:16Z</time>
      </trkpt>
      <trkpt lat="45.491" lon="6.71207">
        <ele>2351.1</ele>
        <time>2021-08-15T11:21:17Z</time>
      </trkpt>
      <trkpt lat="45.491" lon="6.71207">
        <ele>2351.1</ele>
        <time>2021-08-15T11:21:18Z</time>
      </trkpt>
      <trkpt lat="45.491" lon="6.71207">
        <ele>2351.1</ele>
        <time>2021-08-15T11:21:19Z</time>
      </trkpt>
      <trkpt lat="45.491" lon="6.71207">
        <ele>2351.1</ele>
        <time>2021-08-15T11:21:20Z</time>
      </trkpt>
      <trkpt lat="45.491" lon="6.71207">
        <ele>2351.1</ele>
        <time>2021-08-15T11:21:21Z</time>
      </trkpt>
      <trkpt lat="45.491" lon="6.71207">
        <ele>2351.1</ele>
        <time>2021-08-15T11:21:22Z</time>
      </trkpt>
      <trkpt lat="45.491" lon="6.71207">
        <ele>2351.1</ele>
        <time>2021-08-15T11:21:23Z</time>
      </trkpt>
      <trkpt lat="45.491" lon="6.71207">
        <ele>2351.1</ele>
        <time>2021-08-15T11:21:24Z</time>
      </trkpt>
      <trkpt lat="45.491" lon="6.71207">
        <ele>2351.1</ele>
        <time>2021-08-15T11:21:25Z</time>
      </trkpt>
      <trkpt lat="45.491" lon="6.71207">
        <ele>2351.1</ele>
        <time>2021-08-15T11:21:26Z</time>
      </trkpt>
      <trkpt lat="45.491" lon="6.71207">
        <ele>2351.1</ele>
        <time>2021-08-15T11:21:27Z</time>
      </trkpt>
      <trkpt lat="45.491" lon="6.71207">
        <ele>2351.1</ele>
        <time>2021-08-15T11:21:28Z</time>
      </trkpt>
      <trkpt lat="45.491" lon="6.71207">
        <ele>2351.1</ele>
        <time>2021-08-15T11:21:29Z</time>
      </trkpt>
      <trkpt lat="45.491" lon="6.71207">
        <ele>2351.1</ele>
        <time>2021-08-15T11:21:30Z</time>
      </trkpt>
      <trkpt lat="45.491" lon="6.71207">
        <ele>2351.1</ele>
        <time>2021-08-15T11:21:31Z</time>
      </trkpt>
      <trkpt lat="45.491" lon="6.71207">
        <ele>2351.1</ele>
        <time>2021-08-15T11:21:32Z</time>
      </trkpt>
      <trkpt lat="45.491" lon="6.71207">
        <ele>2351.1</ele>
        <time>2021-08-15T11:21:33Z</time>
      </trkpt>
      <trkpt lat="45.491" lon="6.71207">
        <ele>2351.1</ele>
        <time>2021-08-15T11:21:34Z</time>
      </trkpt>
      <trkpt lat="45.491" lon="6.71207">
        <ele>2351.1</ele>
        <time>2021-08-15T11:21:35Z</time>
      </trkpt>
      <trkpt lat="45.491" lon="6.71207">
        <ele>2351.1</ele>
        <time>2021-08-15T11:21:36Z</time>
      </trkpt>
      <trkpt lat="45.491" lon="6.71207">
        <ele>2351.1</ele>
        <time>2021-08-15T11:21:37Z</time>
      </trkpt>
      <trkpt lat="45.491" lon="6.71207">
        <ele>2351.1</ele>
        <time>2021-08-15T11:21:38Z</time>
      </trkpt>
      <trkpt lat="45.491" lon="6.71207">
        <ele>2351.1</ele>
        <time>2021-08-15T11:21:39Z</time>
      </trkpt>
      <trkpt lat="45.491" lon="6.71207">
        <ele>2351.1</ele>
        <time>2021-08-15T11:21:40Z</time>
      </trkpt>
      <trkpt lat="45.491" lon="6.71207">
        <ele>2351.1</ele>
        <time>2021-08-15T11:21:41Z</time>
      </trkpt>
      <trkpt lat="45.491" lon="6.71207">
        <ele>2351.1</ele>
        <time>2021-08-15T11:21:42Z</time>
      </trkpt>
      <trkpt lat="45.491" lon="6.71207">
        <ele>2351.1</ele>
        <time>2021-08-15T11:21:43Z</time>
      </trkpt>
      <trkpt lat="45.491" lon="6.71207">
        <ele>2351.1</ele>
        <time>2021-08-15T11:21:44Z</time>
      </trkpt>
      <trkpt lat="45.491" lon="6.71207">
        <ele>2351.1</ele>
        <time>2021-08-15T11:21:45Z</time>
      </trkpt>
      <trkpt lat="45.491" lon="6.71207">
        <ele>2351.1</ele>
        <time>2021-08-15T11:21:46Z</time>
      </trkpt>
      <trkpt lat="45.491" lon="6.71207">
        <ele>2351.1</ele>
        <time>2021-08-15T11:21:47Z</time>
      </trkpt>
      <trkpt lat="45.491" lon="6.71207">
        <ele>2351.1</ele>
        <time>2021-08-15T11:21:48Z</time>
      </trkpt>
      <trkpt lat="45.491" lon="6.71207">
        <ele>2351.1</ele>
        <time>2021-08-15T11:21:49Z</time>
      </trkpt>
      <trkpt lat="45.491" lon="6.71207">
        <ele>2351.1</ele>
        <time>2021-08-15T11:21:50Z</time>
      </trkpt>
      <trkpt lat="45.491" lon="6.71207">
        <ele>2351.1</ele>
        <time>2021-08-15T11:21:51Z</time>
      </trkpt>
      <trkpt lat="45.491" lon="6.71207">
        <ele>2351.1</ele>
        <time>2021-08-15T11:21:52Z</time>
      </trkpt>
      <trkpt lat="45.491" lon="6.71207">
        <ele>2351.1</ele>
        <time>2021-08-15T11:21:53Z</time>
      </trkpt>
      <trkpt lat="45.491" lon="6.71207">
        <ele>2351.1</ele>
        <time>2021-08-15T11:21:54Z</time>
      </trkpt>
      <trkpt lat="45.491" lon="6.71207">
        <ele>2351.1</ele>
        <time>2021-08-15T11:21:55Z</time>
      </trkpt>
      <trkpt lat="45.491" lon="6.71207">
        <ele>2351.1</ele>
        <time>2021-08-15T11:21:56Z</time>
      </trkpt>
      <trkpt lat="45.491" lon="6.71207">
        <ele>2351.1</ele>
        <time>2021-08-15T11:21:57Z</time>
      </trkpt>
      <trkpt lat="45.491" lon="6.71207">
        <ele>2351.1</ele>
        <time>2021-08-15T11:21:58Z</time>
      </trkpt>
      <trkpt lat="45.491" lon="6.71207">
        <ele>2351.1</ele>
        <time>2021-08-15T11:21:59Z</time>
      </trkpt>
      <trkpt lat="45.491" lon="6.71207">
        <ele>2351.1</ele>
        <time>2021-08-15T11:22:00Z</time>
      </trkpt>
      <trkpt lat="45.491" lon="6.71207">
        <ele>2351.1</ele>
        <time>2021-08-15T11:22:01Z</time>
      </trkpt>
      <trkpt lat="45.491" lon="6.71207">
        <ele>2351.1</ele>
        <time>2021-08-15T11:22:02Z</time>
      </trkpt>
      <trkpt lat="45.491" lon="6.71207">
        <ele>2351.1</ele>
        <time>2021-08-15T11:22:03Z</time>
      </trkpt>
      <trkpt lat="45.491" lon="6.71207">
        <ele>2351.1</ele>
        <time>2021-08-15T11:22:04Z</time>
      </trkpt>
      <trkpt lat="45.491" lon="6.71207">
        <ele>2351.1</ele>
        <time>2021-08-15T11:22:05Z</time>
      </trkpt>
      <trkpt lat="45.491" lon="6.71207">
        <ele>2351.1</ele>
        <time>2021-08-15T11:22:06Z</time>
      </trkpt>
      <trkpt lat="45.491" lon="6.71207">
        <ele>2351.1</ele>
        <time>2021-08-15T11:22:07Z</time>
      </trkpt>
      <trkpt lat="45.491" lon="6.71207">
        <ele>2351.1</ele>
        <time>2021-08-15T11:22:08Z</time>
      </trkpt>
      <trkpt lat="45.491" lon="6.71207">
        <ele>2351.1</ele>
        <time>2021-08-15T11:22:09Z</time>
      </trkpt>
      <trkpt lat="45.491" lon="6.71207">
        <ele>2351.1</ele>
        <time>2021-08-15T11:22:10Z</time>
      </trkpt>
      <trkpt lat="45.491" lon="6.71207">
        <ele>2351.1</ele>
        <time>2021-08-15T11:22:11Z</time>
      </trkpt>
      <trkpt lat="45.491" lon="6.71207">
        <ele>2351.1</ele>
        <time>2021-08-15T11:22:12Z</time>
      </trkpt>
      <trkpt lat="45.491" lon="6.71207">
        <ele>2351.1</ele>
        <time>2021-08-15T11:22:13Z</time>
      </trkpt>
      <trkpt lat="45.491" lon="6.71207">
        <ele>2351.1</ele>
        <time>2021-08-15T11:22:14Z</time>
      </trkpt>
      <trkpt lat="45.491" lon="6.71207">
        <ele>2351.1</ele>
        <time>2021-08-15T11:22:15Z</time>
      </trkpt>
      <trkpt lat="45.491" lon="6.71207">
        <ele>2351.1</ele>
        <time>2021-08-15T11:22:16Z</time>
      </trkpt>
      <trkpt lat="45.491" lon="6.71207">
        <ele>2351.1</ele>
        <time>2021-08-15T11:22:17Z</time>
      </trkpt>
      <trkpt lat="45.491" lon="6.71207">
        <ele>2351.1</ele>
        <time>2021-08-15T11:22:18Z</time>
      </trkpt>
      <trkpt lat="45.491" lon="6.71207">
        <ele>2351.1</ele>
        <time>2021-08-15T11:22:19Z</time>
      </trkpt>
      <trkpt lat="45.491" lon="6.71207">
        <ele>2351.1</ele>
        <time>2021-08-15T11:22:20Z</time>
      </trkpt>
      <trkpt lat="45.491" lon="6.71207">
        <ele>2351.1</ele>
        <time>2021-08-15T11:22:21Z</time>
      </trkpt>
      <trkpt lat="45.491" lon="6.71207">
        <ele>2351.1</ele>
        <time>2021-08-15T11:22:22Z</time>
      </trkpt>
      <trkpt lat="45.491" lon="6.71207">
        <ele>2351.1</ele>
        <time>2021-08-15T11:22:23Z</time>
      </trkpt>
      <trkpt lat="45.491" lon="6.71207">
        <ele>2351.1</ele>
        <time>2021-08-15T11:22:24Z</time>
      </trkpt>
      <trkpt lat="45.491" lon="6.71207">
        <ele>2351.1</ele>
        <time>2021-08-15T11:22:25Z</time>
      </trkpt>
      <trkpt lat="45.491" lon="6.71207">
        <ele>2351.1</ele>
        <time>2021-08-15T11:22:26Z</time>
      </trkpt>
      <trkpt lat="45.491" lon="6.71207">
        <ele>2351.1</ele>
        <time>2021-08-15T11:22:27Z</time>
      </trkpt>
      <trkpt lat="45.491" lon="6.71207">
        <ele>2351.1</ele>
        <time>2021-08-15T11:22:28Z</time>
      </trkpt>
      <trkpt lat="45.491" lon="6.71207">
        <ele>2351.1</ele>
        <time>2021-08-15T11:22:29Z</time>
      </trkpt>
      <trkpt lat="45.491" lon="6.71207">
        <ele>2351.1</ele>
        <time>2021-08-15T11:22:30Z</time>
      </trkpt>
      <trkpt lat="45.491" lon="6.71207">
        <ele>2351.1</ele>
        <time>2021-08-15T11:22:31Z</time>
      </trkpt>
      <trkpt lat="45.491" lon="6.71207">
        <ele>2351.1</ele>
        <time>2021-08-15T11:22:32Z</time>
      </trkpt>
      <trkpt lat="45.491" lon="6.71207">
        <ele>2351.1</ele>
        <time>2021-08-15T11:22:33Z</time>
      </trkpt>
      <trkpt lat="45.491" lon="6.71207">
        <ele>2351.1</ele>
        <time>2021-08-15T11:22:34Z</time>
      </trkpt>
      <trkpt lat="45.491" lon="6.71207">
        <ele>2351.1</ele>
        <time>2021-08-15T11:22:35Z</time>
      </trkpt>
      <trkpt lat="45.491" lon="6.71207">
        <ele>2351.1</ele>
        <time>2021-08-15T11:22:36Z</time>
      </trkpt>
      <trkpt lat="45.491" lon="6.71207">
        <ele>2351.1</ele>
        <time>2021-08-15T11:22:37Z</time>
      </trkpt>
      <trkpt lat="45.491" lon="6.71207">
        <ele>2351.1</ele>
        <time>2021-08-15T11:22:38Z</time>
      </trkpt>
      <trkpt lat="45.491" lon="6.71207">
        <ele>2351.1</ele>
        <time>2021-08-15T11:22:39Z</time>
      </trkpt>
      <trkpt lat="45.491" lon="6.71207">
        <ele>2351.1</ele>
        <time>2021-08-15T11:22:40Z</time>
      </trkpt>
      <trkpt lat="45.491" lon="6.71207">
        <ele>2351.1</ele>
        <time>2021-08-15T11:22:41Z</time>
      </trkpt>
      <trkpt lat="45.491" lon="6.71207">
        <ele>2351.1</ele>
        <time>2021-08-15T11:22:42Z</time>
      </trkpt>
      <trkpt lat="45.491" lon="6.71207">
        <ele>2351.1</ele>
        <time>2021-08-15T11:22:43Z</time>
      </trkpt>
      <trkpt lat="45.491" lon="6.71207">
        <ele>2351.1</ele>
        <time>2021-08-15T11:22:44Z</time>
      </trkpt>
      <trkpt lat="45.491" lon="6.71207">
        <ele>2351.1</ele>
        <time>2021-08-15T11:22:45Z</time>
      </trkpt>
      <trkpt lat="45.491" lon="6.71207">
        <ele>2351.1</ele>
        <time>2021-08-15T11:22:46Z</time>
      </trkpt>
      <trkpt lat="45.491" lon="6.71207">
        <ele>2351.1</ele>
        <time>2021-08-15T11:22:47Z</time>
      </trkpt>
      <trkpt lat="45.491" lon="6.71207">
        <ele>2351.1</ele>
        <time>2021-08-15T11:22:48Z</time>
      </trkpt>
      <trkpt lat="45.491" lon="6.71207">
        <ele>2351.1</ele>
        <time>2021-08-15T11:22:49Z</time>
      </trkpt>
      <trkpt lat="45.491" lon="6.71207">
        <ele>2351.1</ele>
        <time>2021-08-15T11:22:50Z</time>
      </trkpt>
      <trkpt lat="45.491" lon="6.71207">
        <ele>2351.1</ele>
        <time>2021-08-15T11:22:51Z</time>
      </trkpt>
      <trkpt lat="45.491" lon="6.71207">
        <ele>2351.1</ele>
        <time>2021-08-15T11:22:52Z</time>
      </trkpt>
      <trkpt lat="45.491" lon="6.71207">
        <ele>2351.1</ele>
        <time>2021-08-15T11:22:53Z</time>
      </trkpt>
      <trkpt lat="45.491" lon="6.71207">
        <ele>2351.1</ele>
        <time>2021-08-15T11:22:54Z</time>
      </trkpt>
      <trkpt lat="45.491" lon="6.71207">
        <ele>2351.1</ele>
        <time>2021-08-15T11:22:55Z</time>
      </trkpt>
      <trkpt lat="45.491" lon="6.71207">
        <ele>2351.1</ele>
        <time>2021-08-15T11:22:56Z</time>
      </trkpt>
      <trkpt lat="45.491" lon="6.71207">
        <ele>2351.1</ele>
        <time>2021-08-15T11:22:57Z</time>
      </trkpt>
      <trkpt lat="45.491" lon="6.71207">
        <ele>2351.1</ele>
        <time>2021-08-15T11:22:58Z</time>
      </trkpt>
      <trkpt lat="45.491" lon="6.71207">
        <ele>2351.1</ele>
        <time>2021-08-15T11:22:59Z</time>
      </trkpt>
      <trkpt lat="45.491" lon="6.71207">
        <ele>2351.1</ele>
        <time>2021-08-15T11:23:00Z</time>
      </trkpt>
      <trkpt lat="45.491" lon="6.71207">
        <ele>2351.1</ele>
        <time>2021-08-15T11:23:01Z</time>
      </trkpt>
      <trkpt lat="45.491" lon="6.71207">
        <ele>2351.1</ele>
        <time>2021-08-15T11:23:02Z</time>
      </trkpt>
      <trkpt lat="45.491" lon="6.71207">
        <ele>2351.1</ele>
        <time>2021-08-15T11:23:03Z</time>
      </trkpt>
      <trkpt lat="45.491" lon="6.71207">
        <ele>2351.1</ele>
        <time>2021-08-15T11:23:04Z</time>
      </trkpt>
      <trkpt lat="45.491" lon="6.71207">
        <ele>2351.1</ele>
        <time>2021-08-15T11:23:05Z</time>
      </trkpt>
      <trkpt lat="45.491" lon="6.71207">
        <ele>2351.1</ele>
        <time>2021-08-15T11:23:06Z</time>
      </trkpt>
      <trkpt lat="45.491" lon="6.71207">
        <ele>2351.1</ele>
        <time>2021-08-15T11:23:07Z</time>
      </trkpt>
      <trkpt lat="45.491" lon="6.71207">
        <ele>2351.1</ele>
        <time>2021-08-15T11:23:08Z</time>
      </trkpt>
      <trkpt lat="45.491" lon="6.71207">
        <ele>2351.1</ele>
        <time>2021-08-15T11:23:09Z</time>
      </trkpt>
      <trkpt lat="45.491" lon="6.71207">
        <ele>2351.1</ele>
        <time>2021-08-15T11:23:10Z</time>
      </trkpt>
      <trkpt lat="45.491" lon="6.71207">
        <ele>2351.1</ele>
        <time>2021-08-15T11:23:11Z</time>
      </trkpt>
      <trkpt lat="45.491" lon="6.71207">
        <ele>2351.1</ele>
        <time>2021-08-15T11:23:12Z</time>
      </trkpt>
      <trkpt lat="45.491" lon="6.71207">
        <ele>2351.1</ele>
        <time>2021-08-15T11:23:13Z</time>
      </trkpt>
      <trkpt lat="45.491" lon="6.71207">
        <ele>2351.1</ele>
        <time>2021-08-15T11:23:14Z</time>
      </trkpt>
      <trkpt lat="45.491" lon="6.71207">
        <ele>2351.1</ele>
        <time>2021-08-15T11:23:15Z</time>
      </trkpt>
      <trkpt lat="45.491" lon="6.71207">
        <ele>2351.1</ele>
        <time>2021-08-15T11:23:16Z</time>
      </trkpt>
      <trkpt lat="45.491" lon="6.71207">
        <ele>2351.1</ele>
        <time>2021-08-15T11:23:17Z</time>
      </trkpt>
      <trkpt lat="45.491" lon="6.71207">
        <ele>2351.1</ele>
        <time>2021-08-15T11:23:18Z</time>
      </trkpt>
      <trkpt lat="45.491" lon="6.71207">
        <ele>2351.1</ele>
        <time>2021-08-15T11:23:19Z</time>
      </trkpt>
      <trkpt lat="45.491" lon="6.71207">
        <ele>2351.1</ele>
        <time>2021-08-15T11:23:20Z</time>
      </trkpt>
      <trkpt lat="45.491" lon="6.71207">
        <ele>2351.1</ele>
        <time>2021-08-15T11:23:21Z</time>
      </trkpt>
      <trkpt lat="45.491" lon="6.71207">
        <ele>2351.1</ele>
        <time>2021-08-15T11:23:22Z</time>
      </trkpt>
      <trkpt lat="45.491" lon="6.71207">
        <ele>2351.1</ele>
        <time>2021-08-15T11:23:23Z</time>
      </trkpt>
      <trkpt lat="45.491" lon="6.71207">
        <ele>2351.1</ele>
        <time>2021-08-15T11:23:24Z</time>
      </trkpt>
      <trkpt lat="45.491" lon="6.71207">
        <ele>2351.1</ele>
        <time>2021-08-15T11:23:25Z</time>
      </trkpt>
      <trkpt lat="45.491" lon="6.71207">
        <ele>2351.1</ele>
        <time>2021-08-15T11:23:26Z</time>
      </trkpt>
      <trkpt lat="45.491" lon="6.71207">
        <ele>2351.1</ele>
        <time>2021-08-15T11:23:27Z</time>
      </trkpt>
      <trkpt lat="45.491" lon="6.71207">
        <ele>2351.1</ele>
        <time>2021-08-15T11:23:28Z</time>
      </trkpt>
      <trkpt lat="45.491" lon="6.71207">
        <ele>2351.1</ele>
        <time>2021-08-15T11:23:29Z</time>
      </trkpt>
      <trkpt lat="45.491" lon="6.71207">
        <ele>2351.1</ele>
        <time>2021-08-15T11:23:30Z</time>
      </trkpt>
      <trkpt lat="45.491" lon="6.71207">
        <ele>2351.1</ele>
        <time>2021-08-15T11:23:31Z</time>
      </trkpt>
      <trkpt lat="45.491" lon="6.71207">
        <ele>2351.1</ele>
        <time>2021-08-15T11:23:32Z</time>
      </trkpt>
      <trkpt lat="45.491" lon="6.71207">
        <ele>2351.1</ele>
        <time>2021-08-15T11:23:33Z</time>
      </trkpt>
      <trkpt lat="45.491" lon="6.71207">
        <ele>2351.1</ele>
        <time>2021-08-15T11:23:34Z</time>
      </trkpt>
      <trkpt lat="45.491" lon="6.71207">
        <ele>2351.1</ele>
        <time>2021-08-15T11:23:35Z</time>
      </trkpt>
      <trkpt lat="45.491" lon="6.71207">
        <ele>2351.1</ele>
        <time>2021-08-15T11:23:36Z</time>
      </trkpt>
      <trkpt lat="45.491" lon="6.71207">
        <ele>2351.1</ele>
        <time>2021-08-15T11:23:37Z</time>
      </trkpt>
      <trkpt lat="45.491" lon="6.71207">
        <ele>2351.1</ele>
        <time>2021-08-15T11:23:38Z</time>
      </trkpt>
      <trkpt lat="45.491" lon="6.71207">
        <ele>2351.1</ele>
        <time>2021-08-15T11:23:39Z</time>
      </trkpt>
      <trkpt lat="45.491" lon="6.71207">
        <ele>2351.1</ele>
        <time>2021-08-15T11:23:40Z</time>
      </trkpt>
      <trkpt lat="45.491" lon="6.71207">
        <ele>2351.1</ele>
        <time>2021-08-15T11:23:41Z</time>
      </trkpt>
      <trkpt lat="45.491" lon="6.71207">
        <ele>2351.1</ele>
        <time>2021-08-15T11:23:42Z</time>
      </trkpt>
      <trkpt lat="45.491" lon="6.71207">
        <ele>2351.1</ele>
        <time>2021-08-15T11:23:43Z</time>
      </trkpt>
      <trkpt lat="45.491" lon="6.71207">
        <ele>2351.1</ele>
        <time>2021-08-15T11:23:44Z</time>
      </trkpt>
      <trkpt lat="45.491" lon="6.71207">
        <ele>2351.1</ele>
        <time>2021-08-15T11:23:45Z</time>
      </trkpt>
      <trkpt lat="45.491" lon="6.71207">
        <ele>2351.1</ele>
        <time>2021-08-15T11:23:46Z</time>
      </trkpt>
      <trkpt lat="45.491" lon="6.71207">
        <ele>2351.1</ele>
        <time>2021-08-15T11:23:47Z</time>
      </trkpt>
      <trkpt lat="45.491" lon="6.71207">
        <ele>2351.1</ele>
        <time>2021-08-15T11:23:48Z</time>
      </trkpt>
      <trkpt lat="45.491" lon="6.71207">
        <ele>2351.1</ele>
        <time>2021-08-15T11:23:49Z</time>
      </trkpt>
      <trkpt lat="45.491" lon="6.71207">
        <ele>2351.1</ele>
        <time>2021-08-15T11:23:50Z</time>
      </trkpt>
      <trkpt lat="45.491" lon="6.71207">
        <ele>2351.1</ele>
        <time>2021-08-15T11:23:51Z</time>
      </trkpt>
      <trkpt lat="45.491" lon="6.71207">
        <ele>2351.1</ele>
        <time>2021-08-15T11:23:52Z</time>
      </trkpt>
      <trkpt lat="45.491" lon="6.71207">
        <ele>2351.1</ele>
        <time>2021-08-15T11:23:53Z</time>
      </trkpt>
      <trkpt lat="45.491" lon="6.71207">
        <ele>2351.1</ele>
        <time>2021-08-15T11:23:54Z</time>
      </trkpt>
      <trkpt lat="45.491" lon="6.71207">
        <ele>2351.1</ele>
        <time>2021-08-15T11:23:55Z</time>
      </trkpt>
      <trkpt lat="45.491" lon="6.71207">
        <ele>2351.1</ele>
        <time>2021-08-15T11:23:56Z</time>
      </trkpt>
      <trkpt lat="45.491" lon="6.71207">
        <ele>2351.1</ele>
        <time>2021-08-15T11:23:57Z</time>
      </trkpt>
      <trkpt lat="45.491" lon="6.71207">
        <ele>2351.1</ele>
        <time>2021-08-15T11:23:58Z</time>
      </trkpt>
      <trkpt lat="45.491" lon="6.71207">
        <ele>2351.1</ele>
        <time>2021-08-15T11:23:59Z</time>
      </trkpt>
      <trkpt lat="45.491" lon="6.71207">
        <ele>2351.1</ele>
        <time>2021-08-15T11:24:00Z</time>
      </trkpt>
      <trkpt lat="45.491" lon="6.71207">
        <ele>2351.1</ele>
        <time>2021-08-15T11:24:01Z</time>
      </trkpt>
      <trkpt lat="45.491" lon="6.71207">
        <ele>2351.1</ele>
        <time>2021-08-15T11:24:02Z</time>
      </trkpt>
      <trkpt lat="45.491" lon="6.71207">
        <ele>2351.1</ele>
        <time>2021-08-15T11:24:03Z</time>
      </trkpt>
      <trkpt lat="45.491" lon="6.71207">
        <ele>2351.1</ele>
        <time>2021-08-15T11:24:04Z</time>
      </trkpt>
      <trkpt lat="45.491" lon="6.71207">
        <ele>2351.1</ele>
        <time>2021-08-15T11:24:05Z</time>
      </trkpt>
      <trkpt lat="45.491" lon="6.71207">
        <ele>2351.1</ele>
        <time>2021-08-15T11:24:06Z</time>
      </trkpt>
      <trkpt lat="45.491" lon="6.71207">
        <ele>2351.1</ele>
        <time>2021-08-15T11:24:07Z</time>
      </trkpt>
      <trkpt lat="45.491" lon="6.71207">
        <ele>2351.1</ele>
        <time>2021-08-15T11:24:08Z</time>
      </trkpt>
      <trkpt lat="45.491" lon="6.71207">
        <ele>2351.1</ele>
        <time>2021-08-15T11:24:09Z</time>
      </trkpt>
      <trkpt lat="45.491" lon="6.71207">
        <ele>2351.1</ele>
        <time>2021-08-15T11:24:10Z</time>
      </trkpt>
      <trkpt lat="45.491" lon="6.71207">
        <ele>2351.1</ele>
        <time>2021-08-15T11:24:11Z</time>
      </trkpt>
      <trkpt lat="45.491" lon="6.71207">
        <ele>2351.1</ele>
        <time>2021-08-15T11:24:12Z</time>
      </trkpt>
      <trkpt lat="45.491" lon="6.71207">
        <ele>2351.1</ele>
        <time>2021-08-15T11:24:13Z</time>
      </trkpt>
      <trkpt lat="45.491" lon="6.71207">
        <ele>2351.1</ele>
        <time>2021-08-15T11:24:14Z</time>
      </trkpt>
      <trkpt lat="45.491" lon="6.71207">
        <ele>2351.1</ele>
        <time>2021-08-15T11:24:15Z</time>
      </trkpt>
      <trkpt lat="45.491" lon="6.71207">
        <ele>2351.1</ele>
        <time>2021-08-15T11:24:16Z</time>
      </trkpt>
      <trkpt lat="45.491" lon="6.71207">
        <ele>2351.1</ele>
        <time>2021-08-15T11:24:17Z</time>
      </trkpt>
      <trkpt lat="45.491" lon="6.71207">
        <ele>2351.1</ele>
        <time>2021-08-15T11:24:18Z</time>
      </trkpt>
      <trkpt lat="45.491" lon="6.71207">
        <ele>2351.1</ele>
        <time>2021-08-15T11:24:19Z</time>
      </trkpt>
      <trkpt lat="45.491" lon="6.71207">
        <ele>2351.1</ele>
        <time>2021-08-15T11:24:20Z</time>
      </trkpt>
      <trkpt lat="45.491" lon="6.71207">
        <ele>2351.1</ele>
        <time>2021-08-15T11:24:21Z</time>
      </trkpt>
      <trkpt lat="45.491" lon="6.71207">
        <ele>2351.1</ele>
        <time>2021-08-15T11:24:22Z</time>
      </trkpt>
      <trkpt lat="45.491" lon="6.71207">
        <ele>2351.1</ele>
        <time>2021-08-15T11:24:23Z</time>
      </trkpt>
      <trkpt lat="45.491" lon="6.71207">
        <ele>2351.1</ele>
        <time>2021-08-15T11:24:24Z</time>
      </trkpt>
      <trkpt lat="45.491" lon="6.71207">
        <ele>2351.1</ele>
        <time>2021-08-15T11:24:25Z</time>
      </trkpt>
      <trkpt lat="45.491" lon="6.71207">
        <ele>2351.1</ele>
        <time>2021-08-15T11:24:26Z</time>
      </trkpt>
      <trkpt lat="45.491" lon="6.71207">
        <ele>2351.1</ele>
        <time>2021-08-15T11:24:27Z</time>
      </trkpt>
      <trkpt lat="45.491" lon="6.71207">
        <ele>2351.1</ele>
        <time>2021-08-15T11:24:28Z</time>
      </trkpt>
      <trkpt lat="45.491" lon="6.71207">
        <ele>2351.1</ele>
        <time>2021-08-15T11:24:29Z</time>
      </trkpt>
      <trkpt lat="45.491" lon="6.71207">
        <ele>2351.1</ele>
        <time>2021-08-15T11:24:30Z</time>
      </trkpt>
      <trkpt lat="45.491" lon="6.71207">
        <ele>2351.1</ele>
        <time>2021-08-15T11:24:31Z</time>
      </trkpt>
      <trkpt lat="45.491" lon="6.71207">
        <ele>2351.1</ele>
        <time>2021-08-15T11:24:32Z</time>
      </trkpt>
      <trkpt lat="45.491" lon="6.71207">
        <ele>2351.1</ele>
        <time>2021-08-15T11:24:33Z</time>
      </trkpt>
      <trkpt lat="45.491" lon="6.71207">
        <ele>2351.1</ele>
        <time>2021-08-15T11:24:34Z</time>
      </trkpt>
      <trkpt lat="45.491" lon="6.71207">
        <ele>2351.1</ele>
        <time>2021-08-15T11:24:35Z</time>
      </trkpt>
      <trkpt lat="45.491" lon="6.71207">
        <ele>2351.1</ele>
        <time>2021-08-15T11:24:36Z</time>
      </trkpt>
      <trkpt lat="45.491" lon="6.71207">
        <ele>2351.1</ele>
        <time>2021-08-15T11:24:37Z</time>
      </trkpt>
      <trkpt lat="45.491" lon="6.71207">
        <ele>2351.1</ele>
        <time>2021-08-15T11:24:38Z</time>
      </trkpt>
      <trkpt lat="45.491" lon="6.71207">
        <ele>2351.1</ele>
        <time>2021-08-15T11:24:39Z</time>
      </trkpt>
      <trkpt lat="45.491" lon="6.71207">
        <ele>2351.1</ele>
        <time>2021-08-15T11:24:40Z</time>
      </trkpt>
      <trkpt lat="45.491" lon="6.71207">
        <ele>2351.1</ele>
        <time>2021-08-15T11:24:41Z</time>
      </trkpt>
      <trkpt lat="45.491" lon="6.71207">
        <ele>2351.1</ele>
        <time>2021-08-15T11:24:42Z</time>
      </trkpt>
      <trkpt lat="45.491" lon="6.71207">
        <ele>2351.1</ele>
        <time>2021-08-15T11:24:43Z</time>
      </trkpt>
      <trkpt lat="45.491" lon="6.71207">
        <ele>2351.1</ele>
        <time>2021-08-15T11:24:44Z</time>
      </trkpt>
      <trkpt lat="45.491" lon="6.71207">
        <ele>2351.1</ele>
        <time>2021-08-15T11:24:45Z</time>
      </trkpt>
      <trkpt lat="45.491" lon="6.71207">
        <ele>2351.1</ele>
        <time>2021-08-15T11:24:46Z</time>
      </trkpt>
      <trkpt lat="45.491" lon="6.71207">
        <ele>2351.1</ele>
        <time>2021-08-15T11:24:47Z</time>
      </trkpt>
      <trkpt lat="45.491" lon="6.71207">
        <ele>2351.1</ele>
        <time>2021-08-15T11:24:48Z</time>
      </trkpt>
      <trkpt lat="45.491" lon="6.71207">
        <ele>2351.1</ele>
        <time>2021-08-15T11:24:49Z</time>
      </trkpt>
      <trkpt lat="45.491" lon="6.71207">
        <ele>2351.1</ele>
        <time>2021-08-15T11:24:50Z</time>
      </trkpt>
      <trkpt lat="45.491" lon="6.71207">
        <ele>2351.1</ele>
        <time>2021-08-15T11:24:51Z</time>
      </trkpt>
      <trkpt lat="45.491" lon="6.71207">
        <ele>2351.1</ele>
        <time>2021-08-15T11:24:52Z</time>
      </trkpt>
      <trkpt lat="45.491" lon="6.71207">
        <ele>2351.1</ele>
        <time>2021-08-15T11:24:53Z</time>
      </trkpt>
      <trkpt lat="45.491" lon="6.71207">
        <ele>2351.1</ele>
        <time>2021-08-15T11:24:54Z</time>
      </trkpt>
      <trkpt lat="45.491" lon="6.71207">
        <ele>2351.1</ele>
        <time>2021-08-15T11:24:55Z</time>
      </trkpt>
      <trkpt lat="45.491" lon="6.71207">
        <ele>2351.1</ele>
        <time>2021-08-15T11:24:56Z</time>
      </trkpt>
      <trkpt lat="45.491" lon="6.71207">
        <ele>2351.1</ele>
        <time>2021-08-15T11:24:57Z</time>
      </trkpt>
      <trkpt lat="45.491" lon="6.71207">
        <ele>2351.1</ele>
        <time>2021-08-15T11:24:58Z</time>
      </trkpt>
      <trkpt lat="45.491" lon="6.71207">
        <ele>2351.1</ele>
        <time>2021-08-15T11:24:59Z</time>
      </trkpt>
      <trkpt lat="45.491" lon="6.71207">
        <ele>2351.1</ele>
        <time>2021-08-15T11:25:00Z</time>
      </trkpt>
      <trkpt lat="45.491" lon="6.71207">
        <ele>2351.1</ele>
        <time>2021-08-15T11:25:01Z</time>
      </trkpt>
      <trkpt lat="45.491" lon="6.71207">
        <ele>2351.1</ele>
        <time>2021-08-15T11:25:02Z</time>
      </trkpt>
      <trkpt lat="45.491" lon="6.71207">
        <ele>2351.1</ele>
        <time>2021-08-15T11:25:03Z</time>
      </trkpt>
      <trkpt lat="45.491" lon="6.71207">
        <ele>2351.1</ele>
        <time>2021-08-15T11:25:04Z</time>
      </trkpt>
      <trkpt lat="45.491" lon="6.71207">
        <ele>2351.1</ele>
        <time>2021-08-15T11:25:05Z</time>
      </trkpt>
      <trkpt lat="45.491" lon="6.71207">
        <ele>2351.1</ele>
        <time>2021-08-15T11:25:06Z</time>
      </trkpt>
      <trkpt lat="45.491" lon="6.71207">
        <ele>2351.1</ele>
        <time>2021-08-15T11:25:07Z</time>
      </trkpt>
      <trkpt lat="45.491" lon="6.71207">
        <ele>2351.1</ele>
        <time>2021-08-15T11:25:08Z</time>
      </trkpt>
      <trkpt lat="45.491" lon="6.71207">
        <ele>2351.1</ele>
        <time>2021-08-15T11:25:09Z</time>
      </trkpt>
      <trkpt lat="45.491" lon="6.71207">
        <ele>2351.1</ele>
        <time>2021-08-15T11:25:10Z</time>
      </trkpt>
      <trkpt lat="45.491" lon="6.71207">
        <ele>2351.1</ele>
        <time>2021-08-15T11:25:11Z</time>
      </trkpt>
      <trkpt lat="45.491" lon="6.71207">
        <ele>2351.1</ele>
        <time>2021-08-15T11:25:12Z</time>
      </trkpt>
      <trkpt lat="45.491" lon="6.71207">
        <ele>2351.1</ele>
        <time>2021-08-15T11:25:13Z</time>
      </trkpt>
      <trkpt lat="45.491" lon="6.71207">
        <ele>2351.1</ele>
        <time>2021-08-15T11:25:14Z</time>
      </trkpt>
      <trkpt lat="45.491" lon="6.71207">
        <ele>2351.1</ele>
        <time>2021-08-15T11:25:15Z</time>
      </trkpt>
      <trkpt lat="45.491" lon="6.71207">
        <ele>2351.1</ele>
        <time>2021-08-15T11:25:16Z</time>
      </trkpt>
      <trkpt lat="45.491" lon="6.71207">
        <ele>2351.1</ele>
        <time>2021-08-15T11:25:17Z</time>
      </trkpt>
      <trkpt lat="45.491" lon="6.71207">
        <ele>2351.1</ele>
        <time>2021-08-15T11:25:18Z</time>
      </trkpt>
      <trkpt lat="45.491" lon="6.71207">
        <ele>2351.1</ele>
        <time>2021-08-15T11:25:19Z</time>
      </trkpt>
      <trkpt lat="45.491" lon="6.71207">
        <ele>2351.1</ele>
        <time>2021-08-15T11:25:20Z</time>
      </trkpt>
      <trkpt lat="45.491" lon="6.71207">
        <ele>2351.1</ele>
        <time>2021-08-15T11:25:21Z</time>
      </trkpt>
      <trkpt lat="45.491" lon="6.71207">
        <ele>2351.1</ele>
        <time>2021-08-15T11:25:22Z</time>
      </trkpt>
      <trkpt lat="45.491" lon="6.71207">
        <ele>2351.1</ele>
        <time>2021-08-15T11:25:23Z</time>
      </trkpt>
      <trkpt lat="45.491" lon="6.71207">
        <ele>2351.1</ele>
        <time>2021-08-15T11:25:24Z</time>
      </trkpt>
      <trkpt lat="45.491" lon="6.71207">
        <ele>2351.1</ele>
        <time>2021-08-15T11:25:25Z</time>
      </trkpt>
      <trkpt lat="45.491" lon="6.71207">
        <ele>2351.1</ele>
        <time>2021-08-15T11:25:26Z</time>
      </trkpt>
      <trkpt lat="45.491" lon="6.71207">
        <ele>2351.1</ele>
        <time>2021-08-15T11:25:27Z</time>
      </trkpt>
      <trkpt lat="45.491" lon="6.71207">
        <ele>2351.1</ele>
        <time>2021-08-15T11:25:28Z</time>
      </trkpt>
      <trkpt lat="45.491" lon="6.71207">
        <ele>2351.1</ele>
        <time>2021-08-15T11:25:29Z</time>
      </trkpt>
      <trkpt lat="45.491" lon="6.71207">
        <ele>2351.1</ele>
        <time>2021-08-15T11:25:30Z</time>
      </trkpt>
      <trkpt lat="45.491" lon="6.71207">
        <ele>2351.1</ele>
        <time>2021-08-15T11:25:31Z</time>
      </trkpt>
      <trkpt lat="45.491" lon="6.71207">
        <ele>2351.1</ele>
        <time>2021-08-15T11:25:32Z</time>
      </trkpt>
      <trkpt lat="45.491" lon="6.71207">
        <ele>2351.1</ele>
        <time>2021-08-15T11:25:33Z</time>
      </trkpt>
      <trkpt lat="45.491" lon="6.71207">
        <ele>2351.1</ele>
        <time>2021-08-15T11:25:34Z</time>
      </trkpt>
      <trkpt lat="45.491" lon="6.71207">
        <ele>2351.1</ele>
        <time>2021-08-15T11:25:35Z</time>
      </trkpt>
      <trkpt lat="45.491" lon="6.71207">
        <ele>2351.1</ele>
        <time>2021-08-15T11:25:36Z</time>
      </trkpt>
      <trkpt lat="45.491" lon="6.71207">
        <ele>2351.1</ele>
        <time>2021-08-15T11:25:37Z</time>
      </trkpt>
      <trkpt lat="45.491" lon="6.71207">
        <ele>2351.1</ele>
        <time>2021-08-15T11:25:38Z</time>
      </trkpt>
      <trkpt lat="45.491" lon="6.71207">
        <ele>2351.1</ele>
        <time>2021-08-15T11:25:39Z</time>
      </trkpt>
      <trkpt lat="45.491" lon="6.71207">
        <ele>2351.1</ele>
        <time>2021-08-15T11:25:40Z</time>
      </trkpt>
      <trkpt lat="45.491" lon="6.71207">
        <ele>2351.1</ele>
        <time>2021-08-15T11:25:41Z</time>
      </trkpt>
      <trkpt lat="45.491" lon="6.71207">
        <ele>2351.1</ele>
        <time>2021-08-15T11:25:42Z</time>
      </trkpt>
      <trkpt lat="45.491" lon="6.71207">
        <ele>2351.1</ele>
        <time>2021-08-15T11:25:43Z</time>
      </trkpt>
      <trkpt lat="45.491" lon="6.71207">
        <ele>2351.1</ele>
        <time>2021-08-15T11:25:44Z</time>
      </trkpt>
      <trkpt lat="45.491" lon="6.71207">
        <ele>2351.1</ele>
        <time>2021-08-15T11:25:45Z</time>
      </trkpt>
      <trkpt lat="45.491" lon="6.71207">
        <ele>2351.1</ele>
        <time>2021-08-15T11:25:46Z</time>
      </trkpt>
      <trkpt lat="45.491" lon="6.71207">
        <ele>2351.1</ele>
        <time>2021-08-15T11:25:47Z</time>
      </trkpt>
      <trkpt lat="45.491" lon="6.71207">
        <ele>2351.1</ele>
        <time>2021-08-15T11:25:48Z</time>
      </trkpt>
      <trkpt lat="45.491" lon="6.71207">
        <ele>2351.1</ele>
        <time>2021-08-15T11:25:49Z</time>
      </trkpt>
      <trkpt lat="45.491" lon="6.71207">
        <ele>2351.1</ele>
        <time>2021-08-15T11:25:50Z</time>
      </trkpt>
      <trkpt lat="45.491" lon="6.71207">
        <ele>2351.1</ele>
        <time>2021-08-15T11:25:51Z</time>
      </trkpt>
      <trkpt lat="45.491" lon="6.71207">
        <ele>2351.1</ele>
        <time>2021-08-15T11:25:52Z</time>
      </trkpt>
      <trkpt lat="45.491" lon="6.71207">
        <ele>2351.1</ele>
        <time>2021-08-15T11:25:53Z</time>
      </trkpt>
      <trkpt lat="45.491" lon="6.71207">
        <ele>2351.1</ele>
        <time>2021-08-15T11:25:54Z</time>
      </trkpt>
      <trkpt lat="45.491" lon="6.71207">
        <ele>2351.1</ele>
        <time>2021-08-15T11:25:55Z</time>
      </trkpt>
      <trkpt lat="45.491" lon="6.71207">
        <ele>2351.1</ele>
        <time>2021-08-15T11:25:56Z</time>
      </trkpt>
      <trkpt lat="45.491" lon="6.71207">
        <ele>2351.1</ele>
        <time>2021-08-15T11:25:57Z</time>
      </trkpt>
      <trkpt lat="45.491" lon="6.71207">
        <ele>2351.1</ele>
        <time>2021-08-15T11:25:58Z</time>
      </trkpt>
      <trkpt lat="45.491" lon="6.71207">
        <ele>2351.1</ele>
        <time>2021-08-15T11:25:59Z</time>
      </trkpt>
      <trkpt lat="45.491" lon="6.71207">
        <ele>2351.1</ele>
        <time>2021-08-15T11:26:00Z</time>
      </trkpt>
      <trkpt lat="45.491" lon="6.71207">
        <ele>2351.1</ele>
        <time>2021-08-15T11:26:01Z</time>
      </trkpt>
      <trkpt lat="45.491" lon="6.71207">
        <ele>2351.1</ele>
        <time>2021-08-15T11:26:02Z</time>
      </trkpt>
      <trkpt lat="45.491" lon="6.71207">
        <ele>2351.1</ele>
        <time>2021-08-15T11:26:03Z</time>
      </trkpt>
      <trkpt lat="45.491" lon="6.71207">
        <ele>2351.1</ele>
        <time>2021-08-15T11:26:04Z</time>
      </trkpt>
      <trkpt lat="45.491" lon="6.71207">
        <ele>2351.1</ele>
        <time>2021-08-15T11:26:05Z</time>
      </trkpt>
      <trkpt lat="45.491" lon="6.71207">
        <ele>2351.1</ele>
        <time>2021-08-15T11:26:06Z</time>
      </trkpt>
      <trkpt lat="45.491" lon="6.71207">
        <ele>2351.1</ele>
        <time>2021-08-15T11:26:07Z</time>
      </trkpt>
      <trkpt lat="45.491" lon="6.71207">
        <ele>2351.1</ele>
        <time>2021-08-15T11:26:08Z</time>
      </trkpt>
      <trkpt lat="45.491" lon="6.71207">
        <ele>2351.1</ele>
        <time>2021-08-15T11:26:09Z</time>
      </trkpt>
      <trkpt lat="45.491" lon="6.71207">
        <ele>2351.1</ele>
        <time>2021-08-15T11:26:10Z</time>
      </trkpt>
      <trkpt lat="45.491" lon="6.71207">
        <ele>2351.1</ele>
        <time>2021-08-15T11:26:11Z</time>
      </trkpt>
      <trkpt lat="45.491" lon="6.71207">
        <ele>2351.1</ele>
        <time>2021-08-15T11:26:12Z</time>
      </trkpt>
      <trkpt lat="45.491" lon="6.71207">
        <ele>2351.1</ele>
        <time>2021-08-15T11:26:13Z</time>
      </trkpt>
      <trkpt lat="45.491" lon="6.71207">
        <ele>2351.1</ele>
        <time>2021-08-15T11:26:14Z</time>
      </trkpt>
      <trkpt lat="45.491" lon="6.71207">
        <ele>2351.1</ele>
        <time>2021-08-15T11:26:15Z</time>
      </trkpt>
      <trkpt lat="45.491" lon="6.71207">
        <ele>2351.1</ele>
        <time>2021-08-15T11:26:16Z</time>
      </trkpt>
      <trkpt lat="45.491" lon="6.71207">
        <ele>2351.1</ele>
        <time>2021-08-15T11:26:17Z</time>
      </trkpt>
      <trkpt lat="45.491" lon="6.71207">
        <ele>2351.1</ele>
        <time>2021-08-15T11:26:18Z</time>
      </trkpt>
      <trkpt lat="45.491" lon="6.71207">
        <ele>2351.1</ele>
        <time>2021-08-15T11:26:19Z</time>
      </trkpt>
      <trkpt lat="45.491" lon="6.71207">
        <ele>2351.1</ele>
        <time>2021-08-15T11:26:20Z</time>
      </trkpt>
      <trkpt lat="45.491" lon="6.71207">
        <ele>2351.1</ele>
        <time>2021-08-15T11:26:21Z</time>
      </trkpt>
      <trkpt lat="45.491" lon="6.71207">
        <ele>2351.1</ele>
        <time>2021-08-15T11:26:22Z</time>
      </trkpt>
      <trkpt lat="45.491" lon="6.71207">
        <ele>2351.1</ele>
        <time>2021-08-15T11:26:23Z</time>
      </trkpt>
      <trkpt lat="45.491" lon="6.71207">
        <ele>2351.1</ele>
        <time>2021-08-15T11:26:24Z</time>
      </trkpt>
      <trkpt lat="45.491" lon="6.71207">
        <ele>2351.1</ele>
        <time>2021-08-15T11:26:25Z</time>
      </trkpt>
      <trkpt lat="45.491" lon="6.71207">
        <ele>2351.1</ele>
        <time>2021-08-15T11:26:26Z</time>
      </trkpt>
      <trkpt lat="45.491" lon="6.71207">
        <ele>2351.1</ele>
        <time>2021-08-15T11:26:27Z</time>
      </trkpt>
      <trkpt lat="45.491" lon="6.71207">
        <ele>2351.1</ele>
        <time>2021-08-15T11:26:28Z</time>
      </trkpt>
      <trkpt lat="45.491" lon="6.71207">
        <ele>2351.1</ele>
        <time>2021-08-15T11:26:29Z</time>
      </trkpt>
      <trkpt lat="45.491" lon="6.71207">
        <ele>2351.1</ele>
        <time>2021-08-15T11:26:30Z</time>
      </trkpt>
      <trkpt lat="45.491" lon="6.71207">
        <ele>2351.1</ele>
        <time>2021-08-15T11:26:31Z</time>
      </trkpt>
      <trkpt lat="45.491" lon="6.71207">
        <ele>2351.1</ele>
        <time>2021-08-15T11:26:32Z</time>
      </trkpt>
      <trkpt lat="45.491" lon="6.71207">
        <ele>2351.1</ele>
        <time>2021-08-15T11:26:33Z</time>
      </trkpt>
      <trkpt lat="45.491" lon="6.71207">
        <ele>2351.1</ele>
        <time>2021-08-15T11:26:34Z</time>
      </trkpt>
      <trkpt lat="45.491" lon="6.71207">
        <ele>2351.1</ele>
        <time>2021-08-15T11:26:35Z</time>
      </trkpt>
      <trkpt lat="45.491" lon="6.71207">
        <ele>2351.1</ele>
        <time>2021-08-15T11:26:36Z</time>
      </trkpt>
      <trkpt lat="45.491" lon="6.71207">
        <ele>2351.1</ele>
        <time>2021-08-15T11:26:37Z</time>
      </trkpt>
      <trkpt lat="45.491" lon="6.71207">
        <ele>2351.1</ele>
        <time>2021-08-15T11:26:38Z</time>
      </trkpt>
      <trkpt lat="45.491" lon="6.71207">
        <ele>2351.1</ele>
        <time>2021-08-15T11:26:39Z</time>
      </trkpt>
      <trkpt lat="45.491" lon="6.71207">
        <ele>2351.1</ele>
        <time>2021-08-15T11:26:40Z</time>
      </trkpt>
      <trkpt lat="45.491" lon="6.71207">
        <ele>2351.1</ele>
        <time>2021-08-15T11:26:41Z</time>
      </trkpt>
      <trkpt lat="45.491" lon="6.71207">
        <ele>2351.1</ele>
        <time>2021-08-15T11:26:42Z</time>
      </trkpt>
      <trkpt lat="45.491" lon="6.71207">
        <ele>2351.1</ele>
        <time>2021-08-15T11:26:43Z</time>
      </trkpt>
      <trkpt lat="45.491" lon="6.71207">
        <ele>2351.1</ele>
        <time>2021-08-15T11:26:44Z</time>
      </trkpt>
      <trkpt lat="45.491" lon="6.71207">
        <ele>2351.1</ele>
        <time>2021-08-15T11:26:45Z</time>
      </trkpt>
      <trkpt lat="45.491" lon="6.71207">
        <ele>2351.1</ele>
        <time>2021-08-15T11:26:46Z</time>
      </trkpt>
      <trkpt lat="45.491" lon="6.71207">
        <ele>2351.1</ele>
        <time>2021-08-15T11:26:47Z</time>
      </trkpt>
      <trkpt lat="45.491" lon="6.71207">
        <ele>2351.1</ele>
        <time>2021-08-15T11:26:48Z</time>
      </trkpt>
      <trkpt lat="45.491" lon="6.71207">
        <ele>2351.1</ele>
        <time>2021-08-15T11:26:49Z</time>
      </trkpt>
      <trkpt lat="45.491" lon="6.71207">
        <ele>2351.1</ele>
        <time>2021-08-15T11:26:50Z</time>
      </trkpt>
      <trkpt lat="45.491" lon="6.71207">
        <ele>2351.1</ele>
        <time>2021-08-15T11:26:51Z</time>
      </trkpt>
      <trkpt lat="45.491" lon="6.71207">
        <ele>2351.1</ele>
        <time>2021-08-15T11:26:52Z</time>
      </trkpt>
      <trkpt lat="45.491" lon="6.71207">
        <ele>2351.1</ele>
        <time>2021-08-15T11:26:53Z</time>
      </trkpt>
      <trkpt lat="45.491" lon="6.71207">
        <ele>2351.1</ele>
        <time>2021-08-15T11:26:54Z</time>
      </trkpt>
      <trkpt lat="45.491" lon="6.71207">
        <ele>2351.1</ele>
        <time>2021-08-15T11:26:55Z</time>
      </trkpt>
      <trkpt lat="45.491" lon="6.71207">
        <ele>2351.1</ele>
        <time>2021-08-15T11:26:56Z</time>
      </trkpt>
      <trkpt lat="45.491" lon="6.71207">
        <ele>2351.1</ele>
        <time>2021-08-15T11:26:57Z</time>
      </trkpt>
      <trkpt lat="45.491" lon="6.71207">
        <ele>2351.1</ele>
        <time>2021-08-15T11:26:58Z</time>
      </trkpt>
      <trkpt lat="45.491" lon="6.71207">
        <ele>2351.1</ele>
        <time>2021-08-15T11:26:59Z</time>
      </trkpt>
      <trkpt lat="45.491" lon="6.71207">
        <ele>2351.1</ele>
        <time>2021-08-15T11:27:00Z</time>
      </trkpt>
      <trkpt lat="45.491" lon="6.71207">
        <ele>2351.1</ele>
        <time>2021-08-15T11:27:01Z</time>
      </trkpt>
      <trkpt lat="45.491" lon="6.71207">
        <ele>2351.1</ele>
        <time>2021-08-15T11:27:02Z</time>
      </trkpt>
      <trkpt lat="45.491" lon="6.71207">
        <ele>2351.1</ele>
        <time>2021-08-15T11:27:03Z</time>
      </trkpt>
      <trkpt lat="45.491" lon="6.71207">
        <ele>2351.1</ele>
        <time>2021-08-15T11:27:04Z</time>
      </trkpt>
      <trkpt lat="45.491" lon="6.71207">
        <ele>2351.1</ele>
        <time>2021-08-15T11:27:05Z</time>
      </trkpt>
      <trkpt lat="45.491" lon="6.71207">
        <ele>2351.1</ele>
        <time>2021-08-15T11:27:06Z</time>
      </trkpt>
      <trkpt lat="45.491" lon="6.71207">
        <ele>2351.1</ele>
        <time>2021-08-15T11:27:07Z</time>
      </trkpt>
      <trkpt lat="45.491" lon="6.71207">
        <ele>2351.1</ele>
        <time>2021-08-15T11:27:08Z</time>
      </trkpt>
      <trkpt lat="45.491" lon="6.71207">
        <ele>2351.1</ele>
        <time>2021-08-15T11:27:09Z</time>
      </trkpt>
      <trkpt lat="45.491" lon="6.71207">
        <ele>2351.1</ele>
        <time>2021-08-15T11:27:10Z</time>
      </trkpt>
      <trkpt lat="45.491" lon="6.71207">
        <ele>2351.1</ele>
        <time>2021-08-15T11:27:11Z</time>
      </trkpt>
      <trkpt lat="45.491" lon="6.71207">
        <ele>2351.1</ele>
        <time>2021-08-15T11:27:12Z</time>
      </trkpt>
      <trkpt lat="45.491" lon="6.71207">
        <ele>2351.1</ele>
        <time>2021-08-15T11:27:13Z</time>
      </trkpt>
      <trkpt lat="45.491" lon="6.71207">
        <ele>2351.1</ele>
        <time>2021-08-15T11:27:14Z</time>
      </trkpt>
      <trkpt lat="45.491" lon="6.71207">
        <ele>2351.1</ele>
        <time>2021-08-15T11:27:15Z</time>
      </trkpt>
      <trkpt lat="45.491" lon="6.71207">
        <ele>2351.1</ele>
        <time>2021-08-15T11:27:16Z</time>
      </trkpt>
      <trkpt lat="45.491" lon="6.71207">
        <ele>2351.1</ele>
        <time>2021-08-15T11:27:17Z</time>
      </trkpt>
      <trkpt lat="45.491" lon="6.71207">
        <ele>2351.1</ele>
        <time>2021-08-15T11:27:18Z</time>
      </trkpt>
      <trkpt lat="45.491" lon="6.71207">
        <ele>2351.1</ele>
        <time>2021-08-15T11:27:19Z</time>
      </trkpt>
      <trkpt lat="45.491" lon="6.71207">
        <ele>2351.1</ele>
        <time>2021-08-15T11:27:20Z</time>
      </trkpt>
      <trkpt lat="45.491" lon="6.71207">
        <ele>2351.1</ele>
        <time>2021-08-15T11:27:21Z</time>
      </trkpt>
      <trkpt lat="45.491" lon="6.71207">
        <ele>2351.1</ele>
        <time>2021-08-15T11:27:22Z</time>
      </trkpt>
      <trkpt lat="45.491" lon="6.71207">
        <ele>2351.1</ele>
        <time>2021-08-15T11:27:23Z</time>
      </trkpt>
      <trkpt lat="45.491" lon="6.71207">
        <ele>2351.1</ele>
        <time>2021-08-15T11:27:24Z</time>
      </trkpt>
      <trkpt lat="45.491" lon="6.71207">
        <ele>2351.1</ele>
        <time>2021-08-15T11:27:25Z</time>
      </trkpt>
      <trkpt lat="45.491" lon="6.71207">
        <ele>2351.1</ele>
        <time>2021-08-15T11:27:26Z</time>
      </trkpt>
      <trkpt lat="45.491" lon="6.71207">
        <ele>2351.1</ele>
        <time>2021-08-15T11:27:27Z</time>
      </trkpt>
      <trkpt lat="45.491" lon="6.71207">
        <ele>2351.1</ele>
        <time>2021-08-15T11:27:28Z</time>
      </trkpt>
      <trkpt lat="45.491" lon="6.71207">
        <ele>2351.1</ele>
        <time>2021-08-15T11:27:29Z</time>
      </trkpt>
      <trkpt lat="45.491" lon="6.71207">
        <ele>2351.1</ele>
        <time>2021-08-15T11:27:30Z</time>
      </trkpt>
      <trkpt lat="45.491" lon="6.71207">
        <ele>2351.1</ele>
        <time>2021-08-15T11:27:31Z</time>
      </trkpt>
      <trkpt lat="45.491" lon="6.71207">
        <ele>2351.1</ele>
        <time>2021-08-15T11:27:32Z</time>
      </trkpt>
      <trkpt lat="45.491" lon="6.71207">
        <ele>2351.1</ele>
        <time>2021-08-15T11:27:33Z</time>
      </trkpt>
      <trkpt lat="45.491" lon="6.71207">
        <ele>2351.1</ele>
        <time>2021-08-15T11:27:34Z</time>
      </trkpt>
      <trkpt lat="45.491" lon="6.71207">
        <ele>2351.1</ele>
        <time>2021-08-15T11:27:35Z</time>
      </trkpt>
      <trkpt lat="45.491" lon="6.71207">
        <ele>2351.1</ele>
        <time>2021-08-15T11:27:36Z</time>
      </trkpt>
      <trkpt lat="45.491" lon="6.71207">
        <ele>2351.1</ele>
        <time>2021-08-15T11:27:37Z</time>
      </trkpt>
      <trkpt lat="45.491" lon="6.71207">
        <ele>2351.1</ele>
        <time>2021-08-15T11:27:38Z</time>
      </trkpt>
      <trkpt lat="45.491" lon="6.71207">
        <ele>2351.1</ele>
        <time>2021-08-15T11:27:39Z</time>
      </trkpt>
      <trkpt lat="45.491" lon="6.71207">
        <ele>2351.1</ele>
        <time>2021-08-15T11:27:40Z</time>
      </trkpt>
      <trkpt lat="45.491" lon="6.71207">
        <ele>2351.1</ele>
        <time>2021-08-15T11:27:41Z</time>
      </trkpt>
      <trkpt lat="45.491" lon="6.71207">
        <ele>2351.1</ele>
        <time>2021-08-15T11:27:42Z</time>
      </trkpt>
      <trkpt lat="45.491" lon="6.71207">
        <ele>2351.1</ele>
        <time>2021-08-15T11:27:43Z</time>
      </trkpt>
      <trkpt lat="45.491" lon="6.71207">
        <ele>2351.1</ele>
        <time>2021-08-15T11:27:44Z</time>
      </trkpt>
      <trkpt lat="45.491" lon="6.71207">
        <ele>2351.1</ele>
        <time>2021-08-15T11:27:45Z</time>
      </trkpt>
      <trkpt lat="45.491" lon="6.71207">
        <ele>2351.1</ele>
        <time>2021-08-15T11:27:46Z</time>
      </trkpt>
      <trkpt lat="45.491" lon="6.71207">
        <ele>2351.1</ele>
        <time>2021-08-15T11:27:47Z</time>
      </trkpt>
      <trkpt lat="45.491" lon="6.71207">
        <ele>2351.1</ele>
        <time>2021-08-15T11:27:48Z</time>
      </trkpt>
      <trkpt lat="45.491" lon="6.71207">
        <ele>2351.1</ele>
        <time>2021-08-15T11:27:49Z</time>
      </trkpt>
      <trkpt lat="45.491" lon="6.71207">
        <ele>2351.1</ele>
        <time>2021-08-15T11:27:50Z</time>
      </trkpt>
      <trkpt lat="45.491" lon="6.71207">
        <ele>2351.1</ele>
        <time>2021-08-15T11:27:51Z</time>
      </trkpt>
      <trkpt lat="45.491" lon="6.71207">
        <ele>2351.1</ele>
        <time>2021-08-15T11:27:52Z</time>
      </trkpt>
      <trkpt lat="45.491" lon="6.71207">
        <ele>2351.1</ele>
        <time>2021-08-15T11:27:53Z</time>
      </trkpt>
      <trkpt lat="45.491" lon="6.71207">
        <ele>2351.1</ele>
        <time>2021-08-15T11:27:54Z</time>
      </trkpt>
      <trkpt lat="45.491" lon="6.71207">
        <ele>2351.1</ele>
        <time>2021-08-15T11:27:55Z</time>
      </trkpt>
      <trkpt lat="45.491" lon="6.71207">
        <ele>2351.1</ele>
        <time>2021-08-15T11:27:56Z</time>
      </trkpt>
      <trkpt lat="45.491" lon="6.71207">
        <ele>2351.1</ele>
        <time>2021-08-15T11:27:57Z</time>
      </trkpt>
      <trkpt lat="45.491" lon="6.71207">
        <ele>2351.1</ele>
        <time>2021-08-15T11:27:58Z</time>
      </trkpt>
      <trkpt lat="45.491" lon="6.71207">
        <ele>2351.1</ele>
        <time>2021-08-15T11:27:59Z</time>
      </trkpt>
      <trkpt lat="45.491" lon="6.71207">
        <ele>2351.1</ele>
        <time>2021-08-15T11:28:00Z</time>
      </trkpt>
      <trkpt lat="45.491" lon="6.71207">
        <ele>2351.1</ele>
        <time>2021-08-15T11:28:01Z</time>
      </trkpt>
      <trkpt lat="45.491" lon="6.71207">
        <ele>2351.1</ele>
        <time>2021-08-15T11:28:02Z</time>
      </trkpt>
      <trkpt lat="45.491" lon="6.71207">
        <ele>2351.1</ele>
        <time>2021-08-15T11:28:03Z</time>
      </trkpt>
      <trkpt lat="45.491" lon="6.71207">
        <ele>2351.1</ele>
        <time>2021-08-15T11:28:04Z</time>
      </trkpt>
      <trkpt lat="45.491" lon="6.71207">
        <ele>2351.1</ele>
        <time>2021-08-15T11:28:05Z</time>
      </trkpt>
      <trkpt lat="45.491" lon="6.71207">
        <ele>2351.1</ele>
        <time>2021-08-15T11:28:06Z</time>
      </trkpt>
      <trkpt lat="45.491" lon="6.71207">
        <ele>2351.1</ele>
        <time>2021-08-15T11:28:07Z</time>
      </trkpt>
      <trkpt lat="45.491" lon="6.71207">
        <ele>2351.1</ele>
        <time>2021-08-15T11:28:08Z</time>
      </trkpt>
      <trkpt lat="45.491" lon="6.71207">
        <ele>2351.1</ele>
        <time>2021-08-15T11:28:09Z</time>
      </trkpt>
      <trkpt lat="45.491" lon="6.71207">
        <ele>2351.1</ele>
        <time>2021-08-15T11:28:10Z</time>
      </trkpt>
      <trkpt lat="45.491" lon="6.71207">
        <ele>2351.1</ele>
        <time>2021-08-15T11:28:11Z</time>
      </trkpt>
      <trkpt lat="45.491" lon="6.71207">
        <ele>2351.1</ele>
        <time>2021-08-15T11:28:12Z</time>
      </trkpt>
      <trkpt lat="45.491" lon="6.71207">
        <ele>2351.1</ele>
        <time>2021-08-15T11:28:13Z</time>
      </trkpt>
      <trkpt lat="45.491" lon="6.71207">
        <ele>2351.1</ele>
        <time>2021-08-15T11:28:14Z</time>
      </trkpt>
      <trkpt lat="45.491" lon="6.71207">
        <ele>2351.1</ele>
        <time>2021-08-15T11:28:15Z</time>
      </trkpt>
      <trkpt lat="45.491" lon="6.71207">
        <ele>2351.1</ele>
        <time>2021-08-15T11:28:16Z</time>
      </trkpt>
      <trkpt lat="45.491" lon="6.71207">
        <ele>2351.1</ele>
        <time>2021-08-15T11:28:17Z</time>
      </trkpt>
      <trkpt lat="45.491" lon="6.71207">
        <ele>2351.1</ele>
        <time>2021-08-15T11:28:18Z</time>
      </trkpt>
      <trkpt lat="45.491" lon="6.71207">
        <ele>2351.1</ele>
        <time>2021-08-15T11:28:19Z</time>
      </trkpt>
      <trkpt lat="45.491" lon="6.71207">
        <ele>2351.1</ele>
        <time>2021-08-15T11:28:20Z</time>
      </trkpt>
      <trkpt lat="45.491" lon="6.71207">
        <ele>2351.1</ele>
        <time>2021-08-15T11:28:21Z</time>
      </trkpt>
      <trkpt lat="45.491" lon="6.71207">
        <ele>2351.1</ele>
        <time>2021-08-15T11:28:22Z</time>
      </trkpt>
      <trkpt lat="45.491" lon="6.71207">
        <ele>2351.1</ele>
        <time>2021-08-15T11:28:23Z</time>
      </trkpt>
      <trkpt lat="45.491" lon="6.71207">
        <ele>2351.1</ele>
        <time>2021-08-15T11:28:24Z</time>
      </trkpt>
      <trkpt lat="45.491" lon="6.71207">
        <ele>2351.1</ele>
        <time>2021-08-15T11:28:25Z</time>
      </trkpt>
      <trkpt lat="45.491" lon="6.71207">
        <ele>2351.1</ele>
        <time>2021-08-15T11:28:26Z</time>
      </trkpt>
      <trkpt lat="45.491" lon="6.71207">
        <ele>2351.1</ele>
        <time>2021-08-15T11:28:27Z</time>
      </trkpt>
      <trkpt lat="45.491" lon="6.71207">
        <ele>2351.1</ele>
        <time>2021-08-15T11:28:28Z</time>
      </trkpt>
      <trkpt lat="45.491" lon="6.71207">
        <ele>2351.1</ele>
        <time>2021-08-15T11:28:29Z</time>
      </trkpt>
      <trkpt lat="45.491" lon="6.71207">
        <ele>2351.1</ele>
        <time>2021-08-15T11:28:30Z</time>
      </trkpt>
      <trkpt lat="45.491" lon="6.71207">
        <ele>2351.1</ele>
        <time>2021-08-15T11:28:31Z</time>
      </trkpt>
      <trkpt lat="45.491" lon="6.71207">
        <ele>2351.1</ele>
        <time>2021-08-15T11:28:32Z</time>
      </trkpt>
      <trkpt lat="45.491" lon="6.71207">
        <ele>2351.1</ele>
        <time>2021-08-15T11:28:33Z</time>
      </trkpt>
      <trkpt lat="45.491" lon="6.71207">
        <ele>2351.1</ele>
        <time>2021-08-15T11:28:34Z</time>
      </trkpt>
      <trkpt lat="45.491" lon="6.71207">
        <ele>2351.1</ele>
        <time>2021-08-15T11:28:35Z</time>
      </trkpt>
      <trkpt lat="45.491" lon="6.71207">
        <ele>2351.1</ele>
        <time>2021-08-15T11:28:36Z</time>
      </trkpt>
      <trkpt lat="45.491" lon="6.71207">
        <ele>2351.1</ele>
        <time>2021-08-15T11:28:37Z</time>
      </trkpt>
      <trkpt lat="45.491" lon="6.71207">
        <ele>2351.1</ele>
        <time>2021-08-15T11:28:38Z</time>
      </trkpt>
      <trkpt lat="45.491" lon="6.71207">
        <ele>2351.1</ele>
        <time>2021-08-15T11:28:39Z</time>
      </trkpt>
      <trkpt lat="45.491" lon="6.71207">
        <ele>2351.1</ele>
        <time>2021-08-15T11:28:40Z</time>
      </trkpt>
      <trkpt lat="45.491" lon="6.71207">
        <ele>2351.1</ele>
        <time>2021-08-15T11:28:41Z</time>
      </trkpt>
      <trkpt lat="45.491" lon="6.71207">
        <ele>2351.1</ele>
        <time>2021-08-15T11:28:42Z</time>
      </trkpt>
      <trkpt lat="45.491" lon="6.71207">
        <ele>2351.1</ele>
        <time>2021-08-15T11:28:43Z</time>
      </trkpt>
      <trkpt lat="45.491" lon="6.71207">
        <ele>2351.1</ele>
        <time>2021-08-15T11:28:44Z</time>
      </trkpt>
      <trkpt lat="45.491" lon="6.71207">
        <ele>2351.1</ele>
        <time>2021-08-15T11:28:45Z</time>
      </trkpt>
      <trkpt lat="45.491" lon="6.71207">
        <ele>2351.1</ele>
        <time>2021-08-15T11:28:46Z</time>
      </trkpt>
      <trkpt lat="45.491" lon="6.71207">
        <ele>2351.1</ele>
        <time>2021-08-15T11:28:47Z</time>
      </trkpt>
      <trkpt lat="45.491" lon="6.71207">
        <ele>2351.1</ele>
        <time>2021-08-15T11:28:48Z</time>
      </trkpt>
      <trkpt lat="45.491" lon="6.71207">
        <ele>2351.1</ele>
        <time>2021-08-15T11:28:49Z</time>
      </trkpt>
      <trkpt lat="45.491" lon="6.71207">
        <ele>2351.1</ele>
        <time>2021-08-15T11:28:50Z</time>
      </trkpt>
      <trkpt lat="45.491" lon="6.71207">
        <ele>2351.1</ele>
        <time>2021-08-15T11:28:51Z</time>
      </trkpt>
      <trkpt lat="45.491" lon="6.71207">
        <ele>2351.1</ele>
        <time>2021-08-15T11:28:52Z</time>
      </trkpt>
      <trkpt lat="45.491" lon="6.71207">
        <ele>2351.1</ele>
        <time>2021-08-15T11:28:53Z</time>
      </trkpt>
      <trkpt lat="45.491" lon="6.71207">
        <ele>2351.1</ele>
        <time>2021-08-15T11:28:54Z</time>
      </trkpt>
      <trkpt lat="45.491" lon="6.71207">
        <ele>2351.1</ele>
        <time>2021-08-15T11:28:55Z</time>
      </trkpt>
      <trkpt lat="45.491" lon="6.71207">
        <ele>2351.1</ele>
        <time>2021-08-15T11:28:56Z</time>
      </trkpt>
      <trkpt lat="45.491" lon="6.71207">
        <ele>2351.1</ele>
        <time>2021-08-15T11:28:57Z</time>
      </trkpt>
      <trkpt lat="45.491" lon="6.71207">
        <ele>2351.1</ele>
        <time>2021-08-15T11:28:58Z</time>
      </trkpt>
      <trkpt lat="45.491" lon="6.71207">
        <ele>2351.1</ele>
        <time>2021-08-15T11:28:59Z</time>
      </trkpt>
      <trkpt lat="45.491" lon="6.71207">
        <ele>2351.1</ele>
        <time>2021-08-15T11:29:00Z</time>
      </trkpt>
      <trkpt lat="45.491" lon="6.71207">
        <ele>2351.1</ele>
        <time>2021-08-15T11:29:01Z</time>
      </trkpt>
      <trkpt lat="45.491" lon="6.71207">
        <ele>2351.1</ele>
        <time>2021-08-15T11:29:02Z</time>
      </trkpt>
      <trkpt lat="45.491" lon="6.71207">
        <ele>2351.1</ele>
        <time>2021-08-15T11:29:03Z</time>
      </trkpt>
      <trkpt lat="45.491" lon="6.71207">
        <ele>2351.1</ele>
        <time>2021-08-15T11:29:04Z</time>
      </trkpt>
      <trkpt lat="45.491" lon="6.71207">
        <ele>2351.1</ele>
        <time>2021-08-15T11:29:05Z</time>
      </trkpt>
      <trkpt lat="45.491" lon="6.71207">
        <ele>2351.1</ele>
        <time>2021-08-15T11:29:06Z</time>
      </trkpt>
      <trkpt lat="45.491" lon="6.71207">
        <ele>2351.1</ele>
        <time>2021-08-15T11:29:07Z</time>
      </trkpt>
      <trkpt lat="45.491" lon="6.71207">
        <ele>2351.1</ele>
        <time>2021-08-15T11:29:08Z</time>
      </trkpt>
      <trkpt lat="45.491" lon="6.71207">
        <ele>2351.1</ele>
        <time>2021-08-15T11:29:09Z</time>
      </trkpt>
      <trkpt lat="45.491" lon="6.71207">
        <ele>2351.1</ele>
        <time>2021-08-15T11:29:10Z</time>
      </trkpt>
      <trkpt lat="45.491" lon="6.71207">
        <ele>2351.1</ele>
        <time>2021-08-15T11:29:11Z</time>
      </trkpt>
      <trkpt lat="45.491" lon="6.71207">
        <ele>2351.1</ele>
        <time>2021-08-15T11:29:12Z</time>
      </trkpt>
      <trkpt lat="45.491" lon="6.71207">
        <ele>2351.1</ele>
        <time>2021-08-15T11:29:13Z</time>
      </trkpt>
      <trkpt lat="45.491" lon="6.71207">
        <ele>2351.1</ele>
        <time>2021-08-15T11:29:14Z</time>
      </trkpt>
      <trkpt lat="45.491" lon="6.71207">
        <ele>2351.1</ele>
        <time>2021-08-15T11:29:15Z</time>
      </trkpt>
      <trkpt lat="45.491" lon="6.71207">
        <ele>2351.1</ele>
        <time>2021-08-15T11:29:16Z</time>
      </trkpt>
      <trkpt lat="45.491" lon="6.71207">
        <ele>2351.1</ele>
        <time>2021-08-15T11:29:17Z</time>
      </trkpt>
      <trkpt lat="45.491" lon="6.71207">
        <ele>2351.1</ele>
        <time>2021-08-15T11:29:18Z</time>
      </trkpt>
      <trkpt lat="45.491" lon="6.71207">
        <ele>2351.1</ele>
        <time>2021-08-15T11:29:19Z</time>
      </trkpt>
      <trkpt lat="45.491" lon="6.71207">
        <ele>2351.1</ele>
        <time>2021-08-15T11:29:20Z</time>
      </trkpt>
      <trkpt lat="45.491" lon="6.71207">
        <ele>2351.1</ele>
        <time>2021-08-15T11:29:21Z</time>
      </trkpt>
      <trkpt lat="45.491" lon="6.71207">
        <ele>2351.1</ele>
        <time>2021-08-15T11:29:22Z</time>
      </trkpt>
      <trkpt lat="45.491" lon="6.71207">
        <ele>2351.1</ele>
        <time>2021-08-15T11:29:23Z</time>
      </trkpt>
      <trkpt lat="45.491" lon="6.71207">
        <ele>2351.1</ele>
        <time>2021-08-15T11:29:24Z</time>
      </trkpt>
      <trkpt lat="45.491" lon="6.71207">
        <ele>2351.1</ele>
        <time>2021-08-15T11:29:25Z</time>
      </trkpt>
      <trkpt lat="45.491" lon="6.71207">
        <ele>2351.1</ele>
        <time>2021-08-15T11:29:26Z</time>
      </trkpt>
      <trkpt lat="45.491" lon="6.71207">
        <ele>2351.1</ele>
        <time>2021-08-15T11:29:27Z</time>
      </trkpt>
      <trkpt lat="45.491" lon="6.71207">
        <ele>2351.1</ele>
        <time>2021-08-15T11:29:28Z</time>
      </trkpt>
      <trkpt lat="45.491" lon="6.71207">
        <ele>2351.1</ele>
        <time>2021-08-15T11:29:29Z</time>
      </trkpt>
      <trkpt lat="45.491" lon="6.71207">
        <ele>2351.1</ele>
        <time>2021-08-15T11:29:30Z</time>
      </trkpt>
      <trkpt lat="45.491" lon="6.71207">
        <ele>2351.1</ele>
        <time>2021-08-15T11:29:31Z</time>
      </trkpt>
      <trkpt lat="45.491" lon="6.71207">
        <ele>2351.1</ele>
        <time>2021-08-15T11:29:32Z</time>
      </trkpt>
      <trkpt lat="45.491" lon="6.71207">
        <ele>2351.1</ele>
        <time>2021-08-15T11:29:33Z</time>
      </trkpt>
      <trkpt lat="45.491" lon="6.71207">
        <ele>2351.1</ele>
        <time>2021-08-15T11:29:34Z</time>
      </trkpt>
      <trkpt lat="45.491" lon="6.71207">
        <ele>2351.1</ele>
        <time>2021-08-15T11:29:35Z</time>
      </trkpt>
      <trkpt lat="45.491" lon="6.71207">
        <ele>2351.1</ele>
        <time>2021-08-15T11:29:36Z</time>
      </trkpt>
      <trkpt lat="45.491" lon="6.71207">
        <ele>2351.1</ele>
        <time>2021-08-15T11:29:37Z</time>
      </trkpt>
      <trkpt lat="45.491" lon="6.71207">
        <ele>2351.1</ele>
        <time>2021-08-15T11:29:38Z</time>
      </trkpt>
      <trkpt lat="45.491" lon="6.71207">
        <ele>2351.1</ele>
        <time>2021-08-15T11:29:39Z</time>
      </trkpt>
      <trkpt lat="45.491" lon="6.71207">
        <ele>2351.1</ele>
        <time>2021-08-15T11:29:40Z</time>
      </trkpt>
      <trkpt lat="45.491" lon="6.71207">
        <ele>2351.1</ele>
        <time>2021-08-15T11:29:41Z</time>
      </trkpt>
      <trkpt lat="45.491" lon="6.71207">
        <ele>2351.1</ele>
        <time>2021-08-15T11:29:42Z</time>
      </trkpt>
      <trkpt lat="45.491" lon="6.71207">
        <ele>2351.1</ele>
        <time>2021-08-15T11:29:43Z</time>
      </trkpt>
      <trkpt lat="45.491" lon="6.71207">
        <ele>2351.1</ele>
        <time>2021-08-15T11:29:44Z</time>
      </trkpt>
      <trkpt lat="45.491" lon="6.71207">
        <ele>2351.1</ele>
        <time>2021-08-15T11:29:45Z</time>
      </trkpt>
      <trkpt lat="45.491" lon="6.71207">
        <ele>2351.1</ele>
        <time>2021-08-15T11:29:46Z</time>
      </trkpt>
      <trkpt lat="45.491" lon="6.71207">
        <ele>2351.1</ele>
        <time>2021-08-15T11:29:47Z</time>
      </trkpt>
      <trkpt lat="45.491" lon="6.71207">
        <ele>2351.1</ele>
        <time>2021-08-15T11:29:48Z</time>
      </trkpt>
      <trkpt lat="45.491" lon="6.71207">
        <ele>2351.1</ele>
        <time>2021-08-15T11:29:49Z</time>
      </trkpt>
      <trkpt lat="45.491" lon="6.71207">
        <ele>2351.1</ele>
        <time>2021-08-15T11:29:50Z</time>
      </trkpt>
      <trkpt lat="45.491" lon="6.71207">
        <ele>2351.1</ele>
        <time>2021-08-15T11:29:51Z</time>
      </trkpt>
      <trkpt lat="45.491" lon="6.71207">
        <ele>2351.1</ele>
        <time>2021-08-15T11:29:52Z</time>
      </trkpt>
      <trkpt lat="45.491" lon="6.71207">
        <ele>2351.1</ele>
        <time>2021-08-15T11:29:53Z</time>
      </trkpt>
      <trkpt lat="45.491" lon="6.71207">
        <ele>2351.1</ele>
        <time>2021-08-15T11:29:54Z</time>
      </trkpt>
      <trkpt lat="45.491" lon="6.71207">
        <ele>2351.1</ele>
        <time>2021-08-15T11:29:55Z</time>
      </trkpt>
      <trkpt lat="45.491" lon="6.71207">
        <ele>2351.1</ele>
        <time>2021-08-15T11:29:56Z</time>
      </trkpt>
      <trkpt lat="45.491" lon="6.71207">
        <ele>2351.1</ele>
        <time>2021-08-15T11:29:57Z</time>
      </trkpt>
      <trkpt lat="45.491" lon="6.71207">
        <ele>2351.1</ele>
        <time>2021-08-15T11:29:58Z</time>
      </trkpt>
      <trkpt lat="45.491" lon="6.71207">
        <ele>2351.1</ele>
        <time>2021-08-15T11:29:59Z</time>
      </trkpt>
      <trkpt lat="45.491" lon="6.71207">
        <ele>2351.1</ele>
        <time>2021-08-15T11:30:00Z</time>
      </trkpt>
      <trkpt lat="45.491" lon="6.71207">
        <ele>2351.1</ele>
        <time>2021-08-15T11:30:01Z</time>
      </trkpt>
      <trkpt lat="45.491" lon="6.71207">
        <ele>2351.1</ele>
        <time>2021-08-15T11:30:02Z</time>
      </trkpt>
      <trkpt lat="45.491" lon="6.71207">
        <ele>2351.1</ele>
        <time>2021-08-15T11:30:03Z</time>
      </trkpt>
      <trkpt lat="45.491" lon="6.71207">
        <ele>2351.1</ele>
        <time>2021-08-15T11:30:04Z</time>
      </trkpt>
      <trkpt lat="45.491" lon="6.71207">
        <ele>2351.1</ele>
        <time>2021-08-15T11:30:05Z</time>
      </trkpt>
      <trkpt lat="45.491" lon="6.71207">
        <ele>2351.1</ele>
        <time>2021-08-15T11:30:06Z</time>
      </trkpt>
      <trkpt lat="45.491" lon="6.71207">
        <ele>2351.1</ele>
        <time>2021-08-15T11:30:07Z</time>
      </trkpt>
      <trkpt lat="45.491" lon="6.71207">
        <ele>2351.1</ele>
        <time>2021-08-15T11:30:08Z</time>
      </trkpt>
      <trkpt lat="45.491" lon="6.71207">
        <ele>2351.1</ele>
        <time>2021-08-15T11:30:09Z</time>
      </trkpt>
      <trkpt lat="45.491" lon="6.71207">
        <ele>2351.1</ele>
        <time>2021-08-15T11:30:10Z</time>
      </trkpt>
      <trkpt lat="45.491" lon="6.71207">
        <ele>2351.1</ele>
        <time>2021-08-15T11:30:11Z</time>
      </trkpt>
      <trkpt lat="45.491" lon="6.71207">
        <ele>2351.1</ele>
        <time>2021-08-15T11:30:12Z</time>
      </trkpt>
      <trkpt lat="45.491" lon="6.71207">
        <ele>2351.1</ele>
        <time>2021-08-15T11:30:13Z</time>
      </trkpt>
      <trkpt lat="45.491" lon="6.71207">
        <ele>2351.1</ele>
        <time>2021-08-15T11:30:14Z</time>
      </trkpt>
      <trkpt lat="45.491" lon="6.71207">
        <ele>2351.1</ele>
        <time>2021-08-15T11:30:15Z</time>
      </trkpt>
      <trkpt lat="45.491" lon="6.71207">
        <ele>2351.1</ele>
        <time>2021-08-15T11:30:16Z</time>
      </trkpt>
      <trkpt lat="45.491" lon="6.71207">
        <ele>2351.1</ele>
        <time>2021-08-15T11:30:17Z</time>
      </trkpt>
      <trkpt lat="45.491" lon="6.71207">
        <ele>2351.1</ele>
        <time>2021-08-15T11:30:18Z</time>
      </trkpt>
      <trkpt lat="45.491" lon="6.71207">
        <ele>2351.1</ele>
        <time>2021-08-15T11:30:19Z</time>
      </trkpt>
      <trkpt lat="45.491" lon="6.71207">
        <ele>2351.1</ele>
        <time>2021-08-15T11:30:20Z</time>
      </trkpt>
      <trkpt lat="45.491" lon="6.71207">
        <ele>2351.1</ele>
        <time>2021-08-15T11:30:21Z</time>
      </trkpt>
      <trkpt lat="45.491" lon="6.71207">
        <ele>2351.1</ele>
        <time>2021-08-15T11:30:22Z</time>
      </trkpt>
      <trkpt lat="45.491" lon="6.71207">
        <ele>2351.1</ele>
        <time>2021-08-15T11:30:23Z</time>
      </trkpt>
      <trkpt lat="45.491" lon="6.71207">
        <ele>2351.1</ele>
        <time>2021-08-15T11:30:24Z</time>
      </trkpt>
      <trkpt lat="45.491" lon="6.71207">
        <ele>2351.1</ele>
        <time>2021-08-15T11:30:25Z</time>
      </trkpt>
      <trkpt lat="45.491" lon="6.71207">
        <ele>2351.1</ele>
        <time>2021-08-15T11:30:26Z</time>
      </trkpt>
      <trkpt lat="45.491" lon="6.71207">
        <ele>2351.1</ele>
        <time>2021-08-15T11:30:27Z</time>
      </trkpt>
      <trkpt lat="45.491" lon="6.71207">
        <ele>2351.1</ele>
        <time>2021-08-15T11:30:28Z</time>
      </trkpt>
      <trkpt lat="45.491" lon="6.71207">
        <ele>2351.1</ele>
        <time>2021-08-15T11:30:29Z</time>
      </trkpt>
      <trkpt lat="45.491" lon="6.71207">
        <ele>2351.1</ele>
        <time>2021-08-15T11:30:30Z</time>
      </trkpt>
      <trkpt lat="45.491" lon="6.71207">
        <ele>2351.1</ele>
        <time>2021-08-15T11:30:31Z</time>
      </trkpt>
      <trkpt lat="45.491" lon="6.71207">
        <ele>2351.1</ele>
        <time>2021-08-15T11:30:32Z</time>
      </trkpt>
      <trkpt lat="45.491" lon="6.71207">
        <ele>2351.1</ele>
        <time>2021-08-15T11:30:33Z</time>
      </trkpt>
      <trkpt lat="45.491" lon="6.71207">
        <ele>2351.1</ele>
        <time>2021-08-15T11:30:34Z</time>
      </trkpt>
      <trkpt lat="45.491" lon="6.71207">
        <ele>2351.1</ele>
        <time>2021-08-15T11:30:35Z</time>
      </trkpt>
      <trkpt lat="45.491" lon="6.71207">
        <ele>2351.1</ele>
        <time>2021-08-15T11:30:36Z</time>
      </trkpt>
      <trkpt lat="45.491" lon="6.71207">
        <ele>2351.1</ele>
        <time>2021-08-15T11:30:37Z</time>
      </trkpt>
      <trkpt lat="45.491" lon="6.71207">
        <ele>2351.1</ele>
        <time>2021-08-15T11:30:38Z</time>
      </trkpt>
      <trkpt lat="45.491" lon="6.71207">
        <ele>2351.1</ele>
        <time>2021-08-15T11:30:39Z</time>
      </trkpt>
      <trkpt lat="45.491" lon="6.71207">
        <ele>2351.1</ele>
        <time>2021-08-15T11:30:40Z</time>
      </trkpt>
      <trkpt lat="45.491" lon="6.71207">
        <ele>2351.1</ele>
        <time>2021-08-15T11:30:41Z</time>
      </trkpt>
      <trkpt lat="45.491" lon="6.71207">
        <ele>2351.1</ele>
        <time>2021-08-15T11:30:42Z</time>
      </trkpt>
      <trkpt lat="45.491" lon="6.71207">
        <ele>2351.1</ele>
        <time>2021-08-15T11:30:43Z</time>
      </trkpt>
      <trkpt lat="45.491" lon="6.71207">
        <ele>2351.1</ele>
        <time>2021-08-15T11:30:44Z</time>
      </trkpt>
      <trkpt lat="45.491" lon="6.71207">
        <ele>2351.1</ele>
        <time>2021-08-15T11:30:45Z</time>
      </trkpt>
      <trkpt lat="45.491" lon="6.71207">
        <ele>2351.1</ele>
        <time>2021-08-15T11:30:46Z</time>
      </trkpt>
      <trkpt lat="45.491" lon="6.71207">
        <ele>2351.1</ele>
        <time>2021-08-15T11:30:47Z</time>
      </trkpt>
      <trkpt lat="45.491" lon="6.71207">
        <ele>2351.1</ele>
        <time>2021-08-15T11:30:48Z</time>
      </trkpt>
      <trkpt lat="45.491" lon="6.71207">
        <ele>2351.1</ele>
        <time>2021-08-15T11:30:49Z</time>
      </trkpt>
      <trkpt lat="45.491" lon="6.71207">
        <ele>2351.1</ele>
        <time>2021-08-15T11:30:50Z</time>
      </trkpt>
      <trkpt lat="45.491" lon="6.71207">
        <ele>2351.1</ele>
        <time>2021-08-15T11:30:51Z</time>
      </trkpt>
      <trkpt lat="45.491" lon="6.71207">
        <ele>2351.1</ele>
        <time>2021-08-15T11:30:52Z</time>
      </trkpt>
      <trkpt lat="45.491" lon="6.71207">
        <ele>2351.1</ele>
        <time>2021-08-15T11:30:53Z</time>
      </trkpt>
      <trkpt lat="45.491" lon="6.71207">
        <ele>2351.1</ele>
        <time>2021-08-15T11:30:54Z</time>
      </trkpt>
      <trkpt lat="45.491" lon="6.71207">
        <ele>2351.1</ele>
        <time>2021-08-15T11:30:55Z</time>
      </trkpt>
      <trkpt lat="45.491" lon="6.71207">
        <ele>2351.1</ele>
        <time>2021-08-15T11:30:56Z</time>
      </trkpt>
      <trkpt lat="45.491" lon="6.71207">
        <ele>2351.1</ele>
        <time>2021-08-15T11:30:57Z</time>
      </trkpt>
      <trkpt lat="45.491" lon="6.71207">
        <ele>2351.1</ele>
        <time>2021-08-15T11:30:58Z</time>
      </trkpt>
      <trkpt lat="45.491" lon="6.71207">
        <ele>2351.1</ele>
        <time>2021-08-15T11:30:59Z</time>
      </trkpt>
      <trkpt lat="45.491" lon="6.71207">
        <ele>2351.1</ele>
        <time>2021-08-15T11:31:00Z</time>
      </trkpt>
      <trkpt lat="45.491" lon="6.71207">
        <ele>2351.1</ele>
        <time>2021-08-15T11:31:01Z</time>
      </trkpt>
      <trkpt lat="45.491" lon="6.71207">
        <ele>2351.1</ele>
        <time>2021-08-15T11:31:02Z</time>
      </trkpt>
      <trkpt lat="45.491" lon="6.71207">
        <ele>2351.1</ele>
        <time>2021-08-15T11:31:03Z</time>
      </trkpt>
      <trkpt lat="45.491" lon="6.71207">
        <ele>2351.1</ele>
        <time>2021-08-15T11:31:04Z</time>
      </trkpt>
      <trkpt lat="45.491" lon="6.71207">
        <ele>2351.1</ele>
        <time>2021-08-15T11:31:05Z</time>
      </trkpt>
      <trkpt lat="45.491" lon="6.71207">
        <ele>2351.1</ele>
        <time>2021-08-15T11:31:06Z</time>
      </trkpt>
      <trkpt lat="45.491" lon="6.71207">
        <ele>2351.1</ele>
        <time>2021-08-15T11:31:07Z</time>
      </trkpt>
      <trkpt lat="45.491" lon="6.71207">
        <ele>2351.1</ele>
        <time>2021-08-15T11:31:08Z</time>
      </trkpt>
      <trkpt lat="45.491" lon="6.71207">
        <ele>2351.1</ele>
        <time>2021-08-15T11:31:09Z</time>
      </trkpt>
      <trkpt lat="45.491" lon="6.71207">
        <ele>2351.1</ele>
        <time>2021-08-15T11:31:10Z</time>
      </trkpt>
      <trkpt lat="45.491" lon="6.71207">
        <ele>2351.1</ele>
        <time>2021-08-15T11:31:11Z</time>
      </trkpt>
      <trkpt lat="45.491" lon="6.71207">
        <ele>2351.1</ele>
        <time>2021-08-15T11:31:12Z</time>
      </trkpt>
      <trkpt lat="45.491" lon="6.71207">
        <ele>2351.1</ele>
        <time>2021-08-15T11:31:13Z</time>
      </trkpt>
      <trkpt lat="45.491" lon="6.71207">
        <ele>2351.1</ele>
        <time>2021-08-15T11:31:14Z</time>
      </trkpt>
      <trkpt lat="45.491" lon="6.71207">
        <ele>2351.1</ele>
        <time>2021-08-15T11:31:15Z</time>
      </trkpt>
      <trkpt lat="45.491" lon="6.71207">
        <ele>2351.1</ele>
        <time>2021-08-15T11:31:16Z</time>
      </trkpt>
      <trkpt lat="45.491" lon="6.71207">
        <ele>2351.1</ele>
        <time>2021-08-15T11:31:17Z</time>
      </trkpt>
      <trkpt lat="45.491" lon="6.71207">
        <ele>2351.1</ele>
        <time>2021-08-15T11:31:18Z</time>
      </trkpt>
      <trkpt lat="45.491" lon="6.71207">
        <ele>2351.1</ele>
        <time>2021-08-15T11:31:19Z</time>
      </trkpt>
      <trkpt lat="45.491" lon="6.71207">
        <ele>2351.1</ele>
        <time>2021-08-15T11:31:20Z</time>
      </trkpt>
      <trkpt lat="45.491" lon="6.71207">
        <ele>2351.1</ele>
        <time>2021-08-15T11:31:21Z</time>
      </trkpt>
      <trkpt lat="45.491" lon="6.71207">
        <ele>2351.1</ele>
        <time>2021-08-15T11:31:22Z</time>
      </trkpt>
      <trkpt lat="45.491" lon="6.71207">
        <ele>2351.1</ele>
        <time>2021-08-15T11:31:23Z</time>
      </trkpt>
      <trkpt lat="45.491" lon="6.71207">
        <ele>2351.1</ele>
        <time>2021-08-15T11:31:24Z</time>
      </trkpt>
      <trkpt lat="45.491" lon="6.71207">
        <ele>2351.1</ele>
        <time>2021-08-15T11:31:25Z</time>
      </trkpt>
      <trkpt lat="45.491" lon="6.71207">
        <ele>2351.1</ele>
        <time>2021-08-15T11:31:26Z</time>
      </trkpt>
      <trkpt lat="45.491" lon="6.71207">
        <ele>2351.1</ele>
        <time>2021-08-15T11:31:27Z</time>
      </trkpt>
      <trkpt lat="45.491" lon="6.71207">
        <ele>2351.1</ele>
        <time>2021-08-15T11:31:28Z</time>
      </trkpt>
      <trkpt lat="45.491" lon="6.71207">
        <ele>2351.1</ele>
        <time>2021-08-15T11:31:29Z</time>
      </trkpt>
      <trkpt lat="45.491" lon="6.71207">
        <ele>2351.1</ele>
        <time>2021-08-15T11:31:30Z</time>
      </trkpt>
      <trkpt lat="45.491" lon="6.71207">
        <ele>2351.1</ele>
        <time>2021-08-15T11:31:31Z</time>
      </trkpt>
      <trkpt lat="45.491" lon="6.71207">
        <ele>2351.1</ele>
        <time>2021-08-15T11:31:32Z</time>
      </trkpt>
      <trkpt lat="45.491" lon="6.71207">
        <ele>2351.1</ele>
        <time>2021-08-15T11:31:33Z</time>
      </trkpt>
      <trkpt lat="45.491" lon="6.71207">
        <ele>2351.1</ele>
        <time>2021-08-15T11:31:34Z</time>
      </trkpt>
      <trkpt lat="45.491" lon="6.71207">
        <ele>2351.1</ele>
        <time>2021-08-15T11:31:35Z</time>
      </trkpt>
      <trkpt lat="45.491" lon="6.71207">
        <ele>2351.1</ele>
        <time>2021-08-15T11:31:36Z</time>
      </trkpt>
      <trkpt lat="45.491" lon="6.71207">
        <ele>2351.1</ele>
        <time>2021-08-15T11:31:37Z</time>
      </trkpt>
      <trkpt lat="45.491" lon="6.71207">
        <ele>2351.1</ele>
        <time>2021-08-15T11:31:38Z</time>
      </trkpt>
      <trkpt lat="45.491" lon="6.71207">
        <ele>2351.1</ele>
        <time>2021-08-15T11:31:39Z</time>
      </trkpt>
      <trkpt lat="45.491" lon="6.71207">
        <ele>2351.1</ele>
        <time>2021-08-15T11:31:40Z</time>
      </trkpt>
      <trkpt lat="45.491" lon="6.71207">
        <ele>2351.1</ele>
        <time>2021-08-15T11:31:41Z</time>
      </trkpt>
      <trkpt lat="45.491" lon="6.71207">
        <ele>2351.1</ele>
        <time>2021-08-15T11:31:42Z</time>
      </trkpt>
      <trkpt lat="45.491" lon="6.71207">
        <ele>2351.1</ele>
        <time>2021-08-15T11:31:43Z</time>
      </trkpt>
      <trkpt lat="45.491" lon="6.71207">
        <ele>2351.1</ele>
        <time>2021-08-15T11:31:44Z</time>
      </trkpt>
      <trkpt lat="45.491" lon="6.71207">
        <ele>2351.1</ele>
        <time>2021-08-15T11:31:45Z</time>
      </trkpt>
      <trkpt lat="45.491" lon="6.71207">
        <ele>2351.1</ele>
        <time>2021-08-15T11:31:46Z</time>
      </trkpt>
      <trkpt lat="45.491" lon="6.71207">
        <ele>2351.1</ele>
        <time>2021-08-15T11:31:47Z</time>
      </trkpt>
      <trkpt lat="45.491" lon="6.71207">
        <ele>2351.1</ele>
        <time>2021-08-15T11:31:48Z</time>
      </trkpt>
      <trkpt lat="45.491" lon="6.71207">
        <ele>2351.1</ele>
        <time>2021-08-15T11:31:49Z</time>
      </trkpt>
      <trkpt lat="45.491" lon="6.71207">
        <ele>2351.1</ele>
        <time>2021-08-15T11:31:50Z</time>
      </trkpt>
      <trkpt lat="45.491" lon="6.71207">
        <ele>2351.1</ele>
        <time>2021-08-15T11:31:51Z</time>
      </trkpt>
      <trkpt lat="45.491" lon="6.71207">
        <ele>2351.1</ele>
        <time>2021-08-15T11:31:52Z</time>
      </trkpt>
      <trkpt lat="45.491" lon="6.71207">
        <ele>2351.1</ele>
        <time>2021-08-15T11:31:53Z</time>
      </trkpt>
      <trkpt lat="45.491" lon="6.71207">
        <ele>2351.1</ele>
        <time>2021-08-15T11:31:54Z</time>
      </trkpt>
      <trkpt lat="45.491" lon="6.71207">
        <ele>2351.1</ele>
        <time>2021-08-15T11:31:55Z</time>
      </trkpt>
      <trkpt lat="45.491" lon="6.71207">
        <ele>2351.1</ele>
        <time>2021-08-15T11:31:56Z</time>
      </trkpt>
      <trkpt lat="45.491" lon="6.71207">
        <ele>2351.1</ele>
        <time>2021-08-15T11:31:57Z</time>
      </trkpt>
      <trkpt lat="45.491" lon="6.71207">
        <ele>2351.1</ele>
        <time>2021-08-15T11:31:58Z</time>
      </trkpt>
      <trkpt lat="45.491" lon="6.71207">
        <ele>2351.1</ele>
        <time>2021-08-15T11:31:59Z</time>
      </trkpt>
      <trkpt lat="45.491" lon="6.71207">
        <ele>2351.1</ele>
        <time>2021-08-15T11:32:00Z</time>
      </trkpt>
      <trkpt lat="45.491" lon="6.71207">
        <ele>2351.1</ele>
        <time>2021-08-15T11:32:01Z</time>
      </trkpt>
      <trkpt lat="45.491" lon="6.71207">
        <ele>2351.1</ele>
        <time>2021-08-15T11:32:02Z</time>
      </trkpt>
      <trkpt lat="45.491" lon="6.71207">
        <ele>2351.1</ele>
        <time>2021-08-15T11:32:03Z</time>
      </trkpt>
      <trkpt lat="45.491" lon="6.71207">
        <ele>2351.1</ele>
        <time>2021-08-15T11:32:04Z</time>
      </trkpt>
      <trkpt lat="45.491" lon="6.71207">
        <ele>2351.1</ele>
        <time>2021-08-15T11:32:05Z</time>
      </trkpt>
      <trkpt lat="45.491" lon="6.71207">
        <ele>2351.1</ele>
        <time>2021-08-15T11:32:06Z</time>
      </trkpt>
      <trkpt lat="45.491" lon="6.71207">
        <ele>2351.1</ele>
        <time>2021-08-15T11:32:07Z</time>
      </trkpt>
      <trkpt lat="45.491" lon="6.71207">
        <ele>2351.1</ele>
        <time>2021-08-15T11:32:08Z</time>
      </trkpt>
      <trkpt lat="45.491" lon="6.71207">
        <ele>2351.1</ele>
        <time>2021-08-15T11:32:09Z</time>
      </trkpt>
      <trkpt lat="45.491" lon="6.71207">
        <ele>2351.1</ele>
        <time>2021-08-15T11:32:10Z</time>
      </trkpt>
      <trkpt lat="45.491" lon="6.71207">
        <ele>2351.1</ele>
        <time>2021-08-15T11:32:11Z</time>
      </trkpt>
      <trkpt lat="45.491" lon="6.71207">
        <ele>2351.1</ele>
        <time>2021-08-15T11:32:12Z</time>
      </trkpt>
      <trkpt lat="45.491" lon="6.71207">
        <ele>2351.1</ele>
        <time>2021-08-15T11:32:13Z</time>
      </trkpt>
      <trkpt lat="45.491" lon="6.71207">
        <ele>2351.1</ele>
        <time>2021-08-15T11:32:14Z</time>
      </trkpt>
      <trkpt lat="45.491" lon="6.71207">
        <ele>2351.1</ele>
        <time>2021-08-15T11:32:15Z</time>
      </trkpt>
      <trkpt lat="45.491" lon="6.71207">
        <ele>2351.1</ele>
        <time>2021-08-15T11:32:16Z</time>
      </trkpt>
      <trkpt lat="45.491" lon="6.71207">
        <ele>2351.1</ele>
        <time>2021-08-15T11:32:17Z</time>
      </trkpt>
      <trkpt lat="45.491" lon="6.71207">
        <ele>2351.1</ele>
        <time>2021-08-15T11:32:18Z</time>
      </trkpt>
      <trkpt lat="45.491" lon="6.71207">
        <ele>2351.1</ele>
        <time>2021-08-15T11:32:19Z</time>
      </trkpt>
      <trkpt lat="45.491" lon="6.71207">
        <ele>2351.1</ele>
        <time>2021-08-15T11:32:20Z</time>
      </trkpt>
      <trkpt lat="45.491" lon="6.71207">
        <ele>2351.1</ele>
        <time>2021-08-15T11:32:21Z</time>
      </trkpt>
      <trkpt lat="45.491" lon="6.71207">
        <ele>2351.1</ele>
        <time>2021-08-15T11:32:22Z</time>
      </trkpt>
      <trkpt lat="45.491" lon="6.71207">
        <ele>2351.1</ele>
        <time>2021-08-15T11:32:23Z</time>
      </trkpt>
      <trkpt lat="45.491" lon="6.71207">
        <ele>2351.1</ele>
        <time>2021-08-15T11:32:24Z</time>
      </trkpt>
      <trkpt lat="45.491" lon="6.71207">
        <ele>2351.1</ele>
        <time>2021-08-15T11:32:25Z</time>
      </trkpt>
      <trkpt lat="45.491" lon="6.71207">
        <ele>2351.1</ele>
        <time>2021-08-15T11:32:26Z</time>
      </trkpt>
      <trkpt lat="45.491" lon="6.71207">
        <ele>2351.1</ele>
        <time>2021-08-15T11:32:27Z</time>
      </trkpt>
      <trkpt lat="45.491" lon="6.71207">
        <ele>2351.1</ele>
        <time>2021-08-15T11:32:28Z</time>
      </trkpt>
      <trkpt lat="45.491" lon="6.71207">
        <ele>2351.1</ele>
        <time>2021-08-15T11:32:29Z</time>
      </trkpt>
      <trkpt lat="45.491" lon="6.71207">
        <ele>2351.1</ele>
        <time>2021-08-15T11:32:30Z</time>
      </trkpt>
      <trkpt lat="45.491" lon="6.71207">
        <ele>2351.1</ele>
        <time>2021-08-15T11:32:31Z</time>
      </trkpt>
      <trkpt lat="45.491" lon="6.71207">
        <ele>2351.1</ele>
        <time>2021-08-15T11:32:32Z</time>
      </trkpt>
      <trkpt lat="45.491" lon="6.71207">
        <ele>2351.1</ele>
        <time>2021-08-15T11:32:33Z</time>
      </trkpt>
      <trkpt lat="45.491" lon="6.71207">
        <ele>2351.1</ele>
        <time>2021-08-15T11:32:34Z</time>
      </trkpt>
      <trkpt lat="45.491" lon="6.71207">
        <ele>2351.1</ele>
        <time>2021-08-15T11:32:35Z</time>
      </trkpt>
      <trkpt lat="45.491" lon="6.71207">
        <ele>2351.1</ele>
        <time>2021-08-15T11:32:36Z</time>
      </trkpt>
      <trkpt lat="45.491" lon="6.71207">
        <ele>2351.1</ele>
        <time>2021-08-15T11:32:37Z</time>
      </trkpt>
      <trkpt lat="45.491" lon="6.71207">
        <ele>2351.1</ele>
        <time>2021-08-15T11:32:38Z</time>
      </trkpt>
      <trkpt lat="45.491" lon="6.71207">
        <ele>2351.1</ele>
        <time>2021-08-15T11:32:39Z</time>
      </trkpt>
      <trkpt lat="45.491" lon="6.71207">
        <ele>2351.1</ele>
        <time>2021-08-15T11:32:40Z</time>
      </trkpt>
      <trkpt lat="45.491" lon="6.71207">
        <ele>2351.1</ele>
        <time>2021-08-15T11:32:41Z</time>
      </trkpt>
      <trkpt lat="45.491" lon="6.71207">
        <ele>2351.1</ele>
        <time>2021-08-15T11:32:42Z</time>
      </trkpt>
      <trkpt lat="45.491" lon="6.71207">
        <ele>2351.1</ele>
        <time>2021-08-15T11:32:43Z</time>
      </trkpt>
      <trkpt lat="45.491" lon="6.71207">
        <ele>2351.1</ele>
        <time>2021-08-15T11:32:44Z</time>
      </trkpt>
      <trkpt lat="45.491" lon="6.71207">
        <ele>2351.1</ele>
        <time>2021-08-15T11:32:45Z</time>
      </trkpt>
      <trkpt lat="45.491" lon="6.71207">
        <ele>2351.1</ele>
        <time>2021-08-15T11:32:46Z</time>
      </trkpt>
      <trkpt lat="45.491" lon="6.71207">
        <ele>2351.1</ele>
        <time>2021-08-15T11:32:47Z</time>
      </trkpt>
      <trkpt lat="45.491" lon="6.71207">
        <ele>2351.1</ele>
        <time>2021-08-15T11:32:48Z</time>
      </trkpt>
      <trkpt lat="45.491" lon="6.71207">
        <ele>2351.1</ele>
        <time>2021-08-15T11:32:49Z</time>
      </trkpt>
      <trkpt lat="45.491" lon="6.71207">
        <ele>2351.1</ele>
        <time>2021-08-15T11:32:50Z</time>
      </trkpt>
      <trkpt lat="45.491" lon="6.71207">
        <ele>2351.1</ele>
        <time>2021-08-15T11:32:51Z</time>
      </trkpt>
      <trkpt lat="45.491" lon="6.71207">
        <ele>2351.1</ele>
        <time>2021-08-15T11:32:52Z</time>
      </trkpt>
      <trkpt lat="45.491" lon="6.71207">
        <ele>2351.1</ele>
        <time>2021-08-15T11:32:53Z</time>
      </trkpt>
      <trkpt lat="45.491" lon="6.71207">
        <ele>2351.1</ele>
        <time>2021-08-15T11:32:54Z</time>
      </trkpt>
      <trkpt lat="45.491" lon="6.71207">
        <ele>2351.1</ele>
        <time>2021-08-15T11:32:55Z</time>
      </trkpt>
      <trkpt lat="45.491" lon="6.71207">
        <ele>2351.1</ele>
        <time>2021-08-15T11:32:56Z</time>
      </trkpt>
      <trkpt lat="45.491" lon="6.71207">
        <ele>2351.1</ele>
        <time>2021-08-15T11:32:57Z</time>
      </trkpt>
      <trkpt lat="45.491" lon="6.71207">
        <ele>2351.1</ele>
        <time>2021-08-15T11:32:58Z</time>
      </trkpt>
      <trkpt lat="45.491" lon="6.71207">
        <ele>2351.1</ele>
        <time>2021-08-15T11:32:59Z</time>
      </trkpt>
      <trkpt lat="45.491" lon="6.71207">
        <ele>2351.1</ele>
        <time>2021-08-15T11:33:00Z</time>
      </trkpt>
      <trkpt lat="45.491" lon="6.71207">
        <ele>2351.1</ele>
        <time>2021-08-15T11:33:01Z</time>
      </trkpt>
      <trkpt lat="45.491" lon="6.71207">
        <ele>2351.1</ele>
        <time>2021-08-15T11:33:02Z</time>
      </trkpt>
      <trkpt lat="45.491" lon="6.71207">
        <ele>2351.1</ele>
        <time>2021-08-15T11:33:03Z</time>
      </trkpt>
      <trkpt lat="45.491" lon="6.71207">
        <ele>2351.1</ele>
        <time>2021-08-15T11:33:04Z</time>
      </trkpt>
      <trkpt lat="45.491" lon="6.71207">
        <ele>2351.1</ele>
        <time>2021-08-15T11:33:05Z</time>
      </trkpt>
      <trkpt lat="45.491" lon="6.71207">
        <ele>2351.1</ele>
        <time>2021-08-15T11:33:06Z</time>
      </trkpt>
      <trkpt lat="45.491" lon="6.71207">
        <ele>2351.1</ele>
        <time>2021-08-15T11:33:07Z</time>
      </trkpt>
      <trkpt lat="45.491" lon="6.71207">
        <ele>2351.1</ele>
        <time>2021-08-15T11:33:08Z</time>
      </trkpt>
      <trkpt lat="45.491" lon="6.71207">
        <ele>2351.1</ele>
        <time>2021-08-15T11:33:09Z</time>
      </trkpt>
      <trkpt lat="45.491" lon="6.71207">
        <ele>2351.1</ele>
        <time>2021-08-15T11:33:10Z</time>
      </trkpt>
      <trkpt lat="45.491" lon="6.71207">
        <ele>2351.1</ele>
        <time>2021-08-15T11:33:11Z</time>
      </trkpt>
      <trkpt lat="45.491" lon="6.71207">
        <ele>2351.1</ele>
        <time>2021-08-15T11:33:12Z</time>
      </trkpt>
      <trkpt lat="45.491" lon="6.71207">
        <ele>2351.1</ele>
        <time>2021-08-15T11:33:13Z</time>
      </trkpt>
      <trkpt lat="45.491" lon="6.71207">
        <ele>2351.1</ele>
        <time>2021-08-15T11:33:14Z</time>
      </trkpt>
      <trkpt lat="45.491" lon="6.71207">
        <ele>2351.1</ele>
        <time>2021-08-15T11:33:15Z</time>
      </trkpt>
      <trkpt lat="45.491" lon="6.71207">
        <ele>2351.1</ele>
        <time>2021-08-15T11:33:16Z</time>
      </trkpt>
      <trkpt lat="45.491" lon="6.71207">
        <ele>2351.1</ele>
        <time>2021-08-15T11:33:17Z</time>
      </trkpt>
      <trkpt lat="45.491" lon="6.71207">
        <ele>2351.1</ele>
        <time>2021-08-15T11:33:18Z</time>
      </trkpt>
      <trkpt lat="45.491" lon="6.71207">
        <ele>2351.1</ele>
        <time>2021-08-15T11:33:19Z</time>
      </trkpt>
      <trkpt lat="45.491" lon="6.71207">
        <ele>2351.1</ele>
        <time>2021-08-15T11:33:20Z</time>
      </trkpt>
      <trkpt lat="45.491" lon="6.71207">
        <ele>2351.1</ele>
        <time>2021-08-15T11:33:21Z</time>
      </trkpt>
      <trkpt lat="45.491" lon="6.71207">
        <ele>2351.1</ele>
        <time>2021-08-15T11:33:22Z</time>
      </trkpt>
      <trkpt lat="45.491" lon="6.71207">
        <ele>2351.1</ele>
        <time>2021-08-15T11:33:23Z</time>
      </trkpt>
      <trkpt lat="45.491" lon="6.71207">
        <ele>2351.1</ele>
        <time>2021-08-15T11:33:24Z</time>
      </trkpt>
      <trkpt lat="45.491" lon="6.71207">
        <ele>2351.1</ele>
        <time>2021-08-15T11:33:25Z</time>
      </trkpt>
      <trkpt lat="45.491" lon="6.71207">
        <ele>2351.1</ele>
        <time>2021-08-15T11:33:26Z</time>
      </trkpt>
      <trkpt lat="45.491" lon="6.71207">
        <ele>2351.1</ele>
        <time>2021-08-15T11:33:27Z</time>
      </trkpt>
      <trkpt lat="45.491" lon="6.71207">
        <ele>2351.1</ele>
        <time>2021-08-15T11:33:28Z</time>
      </trkpt>
      <trkpt lat="45.491" lon="6.71207">
        <ele>2351.1</ele>
        <time>2021-08-15T11:33:29Z</time>
      </trkpt>
      <trkpt lat="45.491" lon="6.71207">
        <ele>2351.1</ele>
        <time>2021-08-15T11:33:30Z</time>
      </trkpt>
      <trkpt lat="45.491" lon="6.71207">
        <ele>2351.1</ele>
        <time>2021-08-15T11:33:31Z</time>
      </trkpt>
      <trkpt lat="45.491" lon="6.71207">
        <ele>2351.1</ele>
        <time>2021-08-15T11:33:32Z</time>
      </trkpt>
      <trkpt lat="45.491" lon="6.71207">
        <ele>2351.1</ele>
        <time>2021-08-15T11:33:33Z</time>
      </trkpt>
      <trkpt lat="45.491" lon="6.71207">
        <ele>2351.1</ele>
        <time>2021-08-15T11:33:34Z</time>
      </trkpt>
      <trkpt lat="45.491" lon="6.71207">
        <ele>2351.1</ele>
        <time>2021-08-15T11:33:35Z</time>
      </trkpt>
      <trkpt lat="45.491" lon="6.71207">
        <ele>2351.1</ele>
        <time>2021-08-15T11:33:36Z</time>
      </trkpt>
      <trkpt lat="45.491" lon="6.71207">
        <ele>2351.1</ele>
        <time>2021-08-15T11:33:37Z</time>
      </trkpt>
      <trkpt lat="45.491" lon="6.71207">
        <ele>2351.1</ele>
        <time>2021-08-15T11:33:38Z</time>
      </trkpt>
      <trkpt lat="45.491" lon="6.71207">
        <ele>2351.1</ele>
        <time>2021-08-15T11:33:39Z</time>
      </trkpt>
      <trkpt lat="45.491" lon="6.71207">
        <ele>2351.1</ele>
        <time>2021-08-15T11:33:40Z</time>
      </trkpt>
      <trkpt lat="45.491" lon="6.71207">
        <ele>2351.1</ele>
        <time>2021-08-15T11:33:41Z</time>
      </trkpt>
      <trkpt lat="45.491" lon="6.71207">
        <ele>2351.1</ele>
        <time>2021-08-15T11:33:42Z</time>
      </trkpt>
      <trkpt lat="45.491" lon="6.71207">
        <ele>2351.1</ele>
        <time>2021-08-15T11:33:43Z</time>
      </trkpt>
      <trkpt lat="45.491" lon="6.71207">
        <ele>2351.1</ele>
        <time>2021-08-15T11:33:44Z</time>
      </trkpt>
      <trkpt lat="45.491" lon="6.71207">
        <ele>2351.1</ele>
        <time>2021-08-15T11:33:45Z</time>
      </trkpt>
      <trkpt lat="45.491" lon="6.71207">
        <ele>2351.1</ele>
        <time>2021-08-15T11:33:46Z</time>
      </trkpt>
      <trkpt lat="45.491" lon="6.71207">
        <ele>2351.1</ele>
        <time>2021-08-15T11:33:47Z</time>
      </trkpt>
      <trkpt lat="45.491" lon="6.71207">
        <ele>2351.1</ele>
        <time>2021-08-15T11:33:48Z</time>
      </trkpt>
      <trkpt lat="45.491" lon="6.71207">
        <ele>2351.1</ele>
        <time>2021-08-15T11:33:49Z</time>
      </trkpt>
      <trkpt lat="45.491" lon="6.71207">
        <ele>2351.1</ele>
        <time>2021-08-15T11:33:50Z</time>
      </trkpt>
      <trkpt lat="45.491" lon="6.71207">
        <ele>2351.1</ele>
        <time>2021-08-15T11:33:51Z</time>
      </trkpt>
      <trkpt lat="45.491" lon="6.71207">
        <ele>2351.1</ele>
        <time>2021-08-15T11:33:52Z</time>
      </trkpt>
      <trkpt lat="45.491" lon="6.71207">
        <ele>2351.1</ele>
        <time>2021-08-15T11:33:53Z</time>
      </trkpt>
      <trkpt lat="45.491" lon="6.71207">
        <ele>2351.1</ele>
        <time>2021-08-15T11:33:54Z</time>
      </trkpt>
      <trkpt lat="45.491" lon="6.71207">
        <ele>2351.1</ele>
        <time>2021-08-15T11:33:55Z</time>
      </trkpt>
      <trkpt lat="45.491" lon="6.71207">
        <ele>2351.1</ele>
        <time>2021-08-15T11:33:56Z</time>
      </trkpt>
      <trkpt lat="45.491" lon="6.71207">
        <ele>2351.1</ele>
        <time>2021-08-15T11:33:57Z</time>
      </trkpt>
      <trkpt lat="45.491" lon="6.71207">
        <ele>2351.1</ele>
        <time>2021-08-15T11:33:58Z</time>
      </trkpt>
      <trkpt lat="45.491" lon="6.71207">
        <ele>2351.1</ele>
        <time>2021-08-15T11:33:59Z</time>
      </trkpt>
      <trkpt lat="45.491" lon="6.71207">
        <ele>2351.1</ele>
        <time>2021-08-15T11:34:00Z</time>
      </trkpt>
      <trkpt lat="45.491" lon="6.71207">
        <ele>2351.1</ele>
        <time>2021-08-15T11:34:01Z</time>
      </trkpt>
      <trkpt lat="45.491" lon="6.71207">
        <ele>2351.1</ele>
        <time>2021-08-15T11:34:02Z</time>
      </trkpt>
      <trkpt lat="45.491" lon="6.71207">
        <ele>2351.1</ele>
        <time>2021-08-15T11:34:03Z</time>
      </trkpt>
      <trkpt lat="45.491" lon="6.71207">
        <ele>2351.1</ele>
        <time>2021-08-15T11:34:04Z</time>
      </trkpt>
      <trkpt lat="45.491" lon="6.71207">
        <ele>2351.1</ele>
        <time>2021-08-15T11:34:05Z</time>
      </trkpt>
      <trkpt lat="45.491" lon="6.71207">
        <ele>2351.1</ele>
        <time>2021-08-15T11:34:06Z</time>
      </trkpt>
      <trkpt lat="45.491" lon="6.71207">
        <ele>2351.1</ele>
        <time>2021-08-15T11:34:07Z</time>
      </trkpt>
      <trkpt lat="45.491" lon="6.71207">
        <ele>2351.1</ele>
        <time>2021-08-15T11:34:08Z</time>
      </trkpt>
      <trkpt lat="45.491" lon="6.71207">
        <ele>2351.1</ele>
        <time>2021-08-15T11:34:09Z</time>
      </trkpt>
      <trkpt lat="45.491" lon="6.71207">
        <ele>2351.1</ele>
        <time>2021-08-15T11:34:10Z</time>
      </trkpt>
      <trkpt lat="45.491" lon="6.71207">
        <ele>2351.1</ele>
        <time>2021-08-15T11:34:11Z</time>
      </trkpt>
      <trkpt lat="45.491" lon="6.71207">
        <ele>2351.1</ele>
        <time>2021-08-15T11:34:12Z</time>
      </trkpt>
      <trkpt lat="45.491" lon="6.71207">
        <ele>2351.1</ele>
        <time>2021-08-15T11:34:13Z</time>
      </trkpt>
      <trkpt lat="45.491" lon="6.71207">
        <ele>2351.1</ele>
        <time>2021-08-15T11:34:14Z</time>
      </trkpt>
      <trkpt lat="45.491" lon="6.71207">
        <ele>2351.1</ele>
        <time>2021-08-15T11:34:15Z</time>
      </trkpt>
      <trkpt lat="45.491" lon="6.71207">
        <ele>2351.1</ele>
        <time>2021-08-15T11:34:16Z</time>
      </trkpt>
      <trkpt lat="45.491" lon="6.71207">
        <ele>2351.1</ele>
        <time>2021-08-15T11:34:17Z</time>
      </trkpt>
      <trkpt lat="45.491" lon="6.71207">
        <ele>2351.1</ele>
        <time>2021-08-15T11:34:18Z</time>
      </trkpt>
      <trkpt lat="45.491" lon="6.71207">
        <ele>2351.1</ele>
        <time>2021-08-15T11:34:19Z</time>
      </trkpt>
      <trkpt lat="45.491" lon="6.71207">
        <ele>2351.1</ele>
        <time>2021-08-15T11:34:20Z</time>
      </trkpt>
      <trkpt lat="45.491" lon="6.71207">
        <ele>2351.1</ele>
        <time>2021-08-15T11:34:21Z</time>
      </trkpt>
      <trkpt lat="45.491" lon="6.71207">
        <ele>2351.1</ele>
        <time>2021-08-15T11:34:22Z</time>
      </trkpt>
      <trkpt lat="45.491" lon="6.71207">
        <ele>2351.1</ele>
        <time>2021-08-15T11:34:23Z</time>
      </trkpt>
      <trkpt lat="45.491" lon="6.71207">
        <ele>2351.1</ele>
        <time>2021-08-15T11:34:24Z</time>
      </trkpt>
      <trkpt lat="45.491" lon="6.71207">
        <ele>2351.1</ele>
        <time>2021-08-15T11:34:25Z</time>
      </trkpt>
      <trkpt lat="45.491" lon="6.71207">
        <ele>2351.1</ele>
        <time>2021-08-15T11:34:26Z</time>
      </trkpt>
      <trkpt lat="45.491" lon="6.71207">
        <ele>2351.1</ele>
        <time>2021-08-15T11:34:27Z</time>
      </trkpt>
      <trkpt lat="45.491" lon="6.71207">
        <ele>2351.1</ele>
        <time>2021-08-15T11:34:28Z</time>
      </trkpt>
      <trkpt lat="45.491" lon="6.71207">
        <ele>2351.1</ele>
        <time>2021-08-15T11:34:29Z</time>
      </trkpt>
      <trkpt lat="45.491" lon="6.71207">
        <ele>2351.1</ele>
        <time>2021-08-15T11:34:30Z</time>
      </trkpt>
      <trkpt lat="45.491" lon="6.71207">
        <ele>2351.1</ele>
        <time>2021-08-15T11:34:31Z</time>
      </trkpt>
      <trkpt lat="45.491" lon="6.71207">
        <ele>2351.1</ele>
        <time>2021-08-15T11:34:32Z</time>
      </trkpt>
      <trkpt lat="45.491" lon="6.71207">
        <ele>2351.1</ele>
        <time>2021-08-15T11:34:33Z</time>
      </trkpt>
      <trkpt lat="45.491" lon="6.71207">
        <ele>2351.1</ele>
        <time>2021-08-15T11:34:34Z</time>
      </trkpt>
      <trkpt lat="45.491" lon="6.71207">
        <ele>2351.1</ele>
        <time>2021-08-15T11:34:35Z</time>
      </trkpt>
      <trkpt lat="45.491" lon="6.71207">
        <ele>2351.1</ele>
        <time>2021-08-15T11:34:36Z</time>
      </trkpt>
      <trkpt lat="45.491" lon="6.71207">
        <ele>2351.1</ele>
        <time>2021-08-15T11:34:37Z</time>
      </trkpt>
      <trkpt lat="45.491" lon="6.71207">
        <ele>2351.1</ele>
        <time>2021-08-15T11:34:38Z</time>
      </trkpt>
      <trkpt lat="45.491" lon="6.71207">
        <ele>2351.1</ele>
        <time>2021-08-15T11:34:39Z</time>
      </trkpt>
      <trkpt lat="45.491" lon="6.71207">
        <ele>2351.1</ele>
        <time>2021-08-15T11:34:40Z</time>
      </trkpt>
      <trkpt lat="45.491" lon="6.71207">
        <ele>2351.1</ele>
        <time>2021-08-15T11:34:41Z</time>
      </trkpt>
      <trkpt lat="45.491" lon="6.71207">
        <ele>2351.1</ele>
        <time>2021-08-15T11:34:42Z</time>
      </trkpt>
      <trkpt lat="45.491" lon="6.71207">
        <ele>2351.1</ele>
        <time>2021-08-15T11:34:43Z</time>
      </trkpt>
      <trkpt lat="45.491" lon="6.71207">
        <ele>2351.1</ele>
        <time>2021-08-15T11:34:44Z</time>
      </trkpt>
      <trkpt lat="45.491" lon="6.71207">
        <ele>2351.1</ele>
        <time>2021-08-15T11:34:45Z</time>
      </trkpt>
      <trkpt lat="45.491" lon="6.71207">
        <ele>2351.1</ele>
        <time>2021-08-15T11:34:46Z</time>
      </trkpt>
      <trkpt lat="45.491" lon="6.71207">
        <ele>2351.1</ele>
        <time>2021-08-15T11:34:47Z</time>
      </trkpt>
      <trkpt lat="45.491" lon="6.71207">
        <ele>2351.1</ele>
        <time>2021-08-15T11:34:48Z</time>
      </trkpt>
      <trkpt lat="45.491" lon="6.71207">
        <ele>2351.1</ele>
        <time>2021-08-15T11:34:49Z</time>
      </trkpt>
      <trkpt lat="45.491" lon="6.71207">
        <ele>2351.1</ele>
        <time>2021-08-15T11:34:50Z</time>
      </trkpt>
      <trkpt lat="45.491" lon="6.71207">
        <ele>2351.1</ele>
        <time>2021-08-15T11:34:51Z</time>
      </trkpt>
      <trkpt lat="45.491" lon="6.71207">
        <ele>2351.1</ele>
        <time>2021-08-15T11:34:52Z</time>
      </trkpt>
      <trkpt lat="45.491" lon="6.71207">
        <ele>2351.1</ele>
        <time>2021-08-15T11:34:53Z</time>
      </trkpt>
      <trkpt lat="45.491" lon="6.71207">
        <ele>2351.1</ele>
        <time>2021-08-15T11:34:54Z</time>
      </trkpt>
      <trkpt lat="45.491" lon="6.71207">
        <ele>2351.1</ele>
        <time>2021-08-15T11:34:55Z</time>
      </trkpt>
      <trkpt lat="45.491" lon="6.71207">
        <ele>2351.1</ele>
        <time>2021-08-15T11:34:56Z</time>
      </trkpt>
      <trkpt lat="45.491" lon="6.71207">
        <ele>2351.1</ele>
        <time>2021-08-15T11:34:57Z</time>
      </trkpt>
      <trkpt lat="45.491" lon="6.71207">
        <ele>2351.1</ele>
        <time>2021-08-15T11:34:58Z</time>
      </trkpt>
      <trkpt lat="45.491" lon="6.71207">
        <ele>2351.1</ele>
        <time>2021-08-15T11:34:59Z</time>
      </trkpt>
      <trkpt lat="45.491" lon="6.71207">
        <ele>2351.1</ele>
        <time>2021-08-15T11:35:00Z</time>
      </trkpt>
      <trkpt lat="45.491" lon="6.71207">
        <ele>2351.1</ele>
        <time>2021-08-15T11:35:01Z</time>
      </trkpt>
      <trkpt lat="45.491" lon="6.71207">
        <ele>2351.1</ele>
        <time>2021-08-15T11:35:02Z</time>
      </trkpt>
      <trkpt lat="45.491" lon="6.71207">
        <ele>2351.1</ele>
        <time>2021-08-15T11:35:03Z</time>
      </trkpt>
      <trkpt lat="45.491" lon="6.71207">
        <ele>2351.1</ele>
        <time>2021-08-15T11:35:04Z</time>
      </trkpt>
      <trkpt lat="45.491" lon="6.71207">
        <ele>2351.1</ele>
        <time>2021-08-15T11:35:05Z</time>
      </trkpt>
      <trkpt lat="45.491" lon="6.71207">
        <ele>2351.1</ele>
        <time>2021-08-15T11:35:06Z</time>
      </trkpt>
      <trkpt lat="45.491" lon="6.71207">
        <ele>2351.1</ele>
        <time>2021-08-15T11:35:07Z</time>
      </trkpt>
      <trkpt lat="45.491" lon="6.71207">
        <ele>2351.1</ele>
        <time>2021-08-15T11:35:08Z</time>
      </trkpt>
      <trkpt lat="45.491" lon="6.71207">
        <ele>2351.1</ele>
        <time>2021-08-15T11:35:09Z</time>
      </trkpt>
      <trkpt lat="45.491" lon="6.71207">
        <ele>2351.1</ele>
        <time>2021-08-15T11:35:10Z</time>
      </trkpt>
      <trkpt lat="45.491" lon="6.71207">
        <ele>2351.1</ele>
        <time>2021-08-15T11:35:11Z</time>
      </trkpt>
      <trkpt lat="45.491" lon="6.71207">
        <ele>2351.1</ele>
        <time>2021-08-15T11:35:12Z</time>
      </trkpt>
      <trkpt lat="45.491" lon="6.71207">
        <ele>2351.1</ele>
        <time>2021-08-15T11:35:13Z</time>
      </trkpt>
      <trkpt lat="45.491" lon="6.71207">
        <ele>2351.1</ele>
        <time>2021-08-15T11:35:14Z</time>
      </trkpt>
      <trkpt lat="45.491" lon="6.71207">
        <ele>2351.1</ele>
        <time>2021-08-15T11:35:15Z</time>
      </trkpt>
      <trkpt lat="45.491" lon="6.71207">
        <ele>2351.1</ele>
        <time>2021-08-15T11:35:16Z</time>
      </trkpt>
      <trkpt lat="45.491" lon="6.71207">
        <ele>2351.1</ele>
        <time>2021-08-15T11:35:17Z</time>
      </trkpt>
      <trkpt lat="45.491" lon="6.71207">
        <ele>2351.1</ele>
        <time>2021-08-15T11:35:18Z</time>
      </trkpt>
      <trkpt lat="45.491" lon="6.71207">
        <ele>2351.1</ele>
        <time>2021-08-15T11:35:19Z</time>
      </trkpt>
      <trkpt lat="45.491" lon="6.71207">
        <ele>2351.1</ele>
        <time>2021-08-15T11:35:20Z</time>
      </trkpt>
      <trkpt lat="45.491" lon="6.71207">
        <ele>2351.1</ele>
        <time>2021-08-15T11:35:21Z</time>
      </trkpt>
      <trkpt lat="45.491" lon="6.71207">
        <ele>2351.1</ele>
        <time>2021-08-15T11:35:22Z</time>
      </trkpt>
      <trkpt lat="45.491" lon="6.71207">
        <ele>2351.1</ele>
        <time>2021-08-15T11:35:23Z</time>
      </trkpt>
      <trkpt lat="45.491" lon="6.71207">
        <ele>2351.1</ele>
        <time>2021-08-15T11:35:24Z</time>
      </trkpt>
      <trkpt lat="45.491" lon="6.71207">
        <ele>2351.1</ele>
        <time>2021-08-15T11:35:25Z</time>
      </trkpt>
      <trkpt lat="45.491" lon="6.71207">
        <ele>2351.1</ele>
        <time>2021-08-15T11:35:26Z</time>
      </trkpt>
      <trkpt lat="45.491" lon="6.71207">
        <ele>2351.1</ele>
        <time>2021-08-15T11:35:27Z</time>
      </trkpt>
      <trkpt lat="45.491" lon="6.71207">
        <ele>2351.1</ele>
        <time>2021-08-15T11:35:28Z</time>
      </trkpt>
      <trkpt lat="45.491" lon="6.71207">
        <ele>2351.1</ele>
        <time>2021-08-15T11:35:29Z</time>
      </trkpt>
      <trkpt lat="45.491" lon="6.71207">
        <ele>2351.1</ele>
        <time>2021-08-15T11:35:30Z</time>
      </trkpt>
      <trkpt lat="45.491" lon="6.71207">
        <ele>2351.1</ele>
        <time>2021-08-15T11:35:31Z</time>
      </trkpt>
      <trkpt lat="45.491" lon="6.71207">
        <ele>2351.1</ele>
        <time>2021-08-15T11:35:32Z</time>
      </trkpt>
      <trkpt lat="45.491" lon="6.71207">
        <ele>2351.1</ele>
        <time>2021-08-15T11:35:33Z</time>
      </trkpt>
      <trkpt lat="45.491" lon="6.71207">
        <ele>2351.1</ele>
        <time>2021-08-15T11:35:34Z</time>
      </trkpt>
      <trkpt lat="45.491" lon="6.71207">
        <ele>2351.1</ele>
        <time>2021-08-15T11:35:35Z</time>
      </trkpt>
      <trkpt lat="45.491" lon="6.71207">
        <ele>2351.1</ele>
        <time>2021-08-15T11:35:36Z</time>
      </trkpt>
      <trkpt lat="45.491" lon="6.71207">
        <ele>2351.1</ele>
        <time>2021-08-15T11:35:37Z</time>
      </trkpt>
      <trkpt lat="45.491" lon="6.71207">
        <ele>2351.1</ele>
        <time>2021-08-15T11:35:38Z</time>
      </trkpt>
      <trkpt lat="45.491" lon="6.71207">
        <ele>2351.1</ele>
        <time>2021-08-15T11:35:39Z</time>
      </trkpt>
      <trkpt lat="45.491" lon="6.71207">
        <ele>2351.1</ele>
        <time>2021-08-15T11:35:40Z</time>
      </trkpt>
      <trkpt lat="45.491" lon="6.71207">
        <ele>2351.1</ele>
        <time>2021-08-15T11:35:41Z</time>
      </trkpt>
      <trkpt lat="45.491" lon="6.71207">
        <ele>2351.1</ele>
        <time>2021-08-15T11:35:42Z</time>
      </trkpt>
      <trkpt lat="45.491" lon="6.71207">
        <ele>2351.1</ele>
        <time>2021-08-15T11:35:43Z</time>
      </trkpt>
      <trkpt lat="45.491" lon="6.71207">
        <ele>2351.1</ele>
        <time>2021-08-15T11:35:44Z</time>
      </trkpt>
      <trkpt lat="45.491" lon="6.71207">
        <ele>2351.1</ele>
        <time>2021-08-15T11:35:45Z</time>
      </trkpt>
      <trkpt lat="45.491" lon="6.71207">
        <ele>2351.1</ele>
        <time>2021-08-15T11:35:46Z</time>
      </trkpt>
      <trkpt lat="45.491" lon="6.71207">
        <ele>2351.1</ele>
        <time>2021-08-15T11:35:47Z</time>
      </trkpt>
      <trkpt lat="45.491" lon="6.71207">
        <ele>2351.1</ele>
        <time>2021-08-15T11:35:48Z</time>
      </trkpt>
      <trkpt lat="45.491" lon="6.71207">
        <ele>2351.1</ele>
        <time>2021-08-15T11:35:49Z</time>
      </trkpt>
      <trkpt lat="45.491" lon="6.71207">
        <ele>2351.1</ele>
        <time>2021-08-15T11:35:50Z</time>
      </trkpt>
      <trkpt lat="45.491" lon="6.71207">
        <ele>2351.1</ele>
        <time>2021-08-15T11:35:51Z</time>
      </trkpt>
      <trkpt lat="45.491" lon="6.71207">
        <ele>2351.1</ele>
        <time>2021-08-15T11:35:52Z</time>
      </trkpt>
      <trkpt lat="45.491" lon="6.71207">
        <ele>2351.1</ele>
        <time>2021-08-15T11:35:53Z</time>
      </trkpt>
      <trkpt lat="45.491" lon="6.71207">
        <ele>2351.1</ele>
        <time>2021-08-15T11:35:54Z</time>
      </trkpt>
      <trkpt lat="45.491" lon="6.71207">
        <ele>2351.1</ele>
        <time>2021-08-15T11:35:55Z</time>
      </trkpt>
      <trkpt lat="45.491" lon="6.71207">
        <ele>2351.1</ele>
        <time>2021-08-15T11:35:56Z</time>
      </trkpt>
      <trkpt lat="45.491" lon="6.71207">
        <ele>2351.1</ele>
        <time>2021-08-15T11:35:57Z</time>
      </trkpt>
      <trkpt lat="45.491" lon="6.71207">
        <ele>2351.1</ele>
        <time>2021-08-15T11:35:58Z</time>
      </trkpt>
      <trkpt lat="45.491" lon="6.71207">
        <ele>2351.1</ele>
        <time>2021-08-15T11:35:59Z</time>
      </trkpt>
      <trkpt lat="45.491" lon="6.71207">
        <ele>2351.1</ele>
        <time>2021-08-15T11:36:00Z</time>
      </trkpt>
      <trkpt lat="45.491" lon="6.71207">
        <ele>2351.1</ele>
        <time>2021-08-15T11:36:01Z</time>
      </trkpt>
      <trkpt lat="45.491" lon="6.71207">
        <ele>2351.1</ele>
        <time>2021-08-15T11:36:02Z</time>
      </trkpt>
      <trkpt lat="45.491" lon="6.71207">
        <ele>2351.1</ele>
        <time>2021-08-15T11:36:03Z</time>
      </trkpt>
      <trkpt lat="45.491" lon="6.71207">
        <ele>2351.1</ele>
        <time>2021-08-15T11:36:04Z</time>
      </trkpt>
      <trkpt lat="45.491" lon="6.71207">
        <ele>2351.1</ele>
        <time>2021-08-15T11:36:05Z</time>
      </trkpt>
      <trkpt lat="45.491" lon="6.71207">
        <ele>2351.1</ele>
        <time>2021-08-15T11:36:06Z</time>
      </trkpt>
      <trkpt lat="45.491" lon="6.71207">
        <ele>2351.1</ele>
        <time>2021-08-15T11:36:07Z</time>
      </trkpt>
      <trkpt lat="45.491" lon="6.71207">
        <ele>2351.1</ele>
        <time>2021-08-15T11:36:08Z</time>
      </trkpt>
      <trkpt lat="45.491" lon="6.71207">
        <ele>2351.1</ele>
        <time>2021-08-15T11:36:09Z</time>
      </trkpt>
      <trkpt lat="45.491" lon="6.71207">
        <ele>2351.1</ele>
        <time>2021-08-15T11:36:10Z</time>
      </trkpt>
      <trkpt lat="45.491" lon="6.71207">
        <ele>2351.1</ele>
        <time>2021-08-15T11:36:11Z</time>
      </trkpt>
      <trkpt lat="45.491" lon="6.71207">
        <ele>2351.1</ele>
        <time>2021-08-15T11:36:12Z</time>
      </trkpt>
      <trkpt lat="45.491" lon="6.71207">
        <ele>2351.1</ele>
        <time>2021-08-15T11:36:13Z</time>
      </trkpt>
      <trkpt lat="45.491" lon="6.71207">
        <ele>2351.1</ele>
        <time>2021-08-15T11:36:14Z</time>
      </trkpt>
      <trkpt lat="45.491" lon="6.71207">
        <ele>2351.1</ele>
        <time>2021-08-15T11:36:15Z</time>
      </trkpt>
      <trkpt lat="45.491" lon="6.71207">
        <ele>2351.1</ele>
        <time>2021-08-15T11:36:16Z</time>
      </trkpt>
      <trkpt lat="45.491" lon="6.71207">
        <ele>2351.1</ele>
        <time>2021-08-15T11:36:17Z</time>
      </trkpt>
      <trkpt lat="45.491" lon="6.71207">
        <ele>2351.1</ele>
        <time>2021-08-15T11:36:18Z</time>
      </trkpt>
      <trkpt lat="45.491" lon="6.71207">
        <ele>2351.1</ele>
        <time>2021-08-15T11:36:19Z</time>
      </trkpt>
      <trkpt lat="45.491" lon="6.71207">
        <ele>2351.1</ele>
        <time>2021-08-15T11:36:20Z</time>
      </trkpt>
      <trkpt lat="45.491" lon="6.71207">
        <ele>2351.1</ele>
        <time>2021-08-15T11:36:21Z</time>
      </trkpt>
      <trkpt lat="45.491" lon="6.71207">
        <ele>2351.1</ele>
        <time>2021-08-15T11:36:22Z</time>
      </trkpt>
      <trkpt lat="45.491" lon="6.71207">
        <ele>2351.1</ele>
        <time>2021-08-15T11:36:23Z</time>
      </trkpt>
      <trkpt lat="45.491" lon="6.71207">
        <ele>2351.1</ele>
        <time>2021-08-15T11:36:24Z</time>
      </trkpt>
      <trkpt lat="45.491" lon="6.71207">
        <ele>2351.1</ele>
        <time>2021-08-15T11:36:25Z</time>
      </trkpt>
      <trkpt lat="45.491" lon="6.71207">
        <ele>2351.1</ele>
        <time>2021-08-15T11:36:26Z</time>
      </trkpt>
      <trkpt lat="45.491" lon="6.71207">
        <ele>2351.1</ele>
        <time>2021-08-15T11:36:27Z</time>
      </trkpt>
      <trkpt lat="45.491" lon="6.71207">
        <ele>2351.1</ele>
        <time>2021-08-15T11:36:28Z</time>
      </trkpt>
      <trkpt lat="45.491" lon="6.71207">
        <ele>2351.1</ele>
        <time>2021-08-15T11:36:29Z</time>
      </trkpt>
      <trkpt lat="45.491" lon="6.71207">
        <ele>2351.1</ele>
        <time>2021-08-15T11:36:30Z</time>
      </trkpt>
      <trkpt lat="45.491" lon="6.71207">
        <ele>2351.1</ele>
        <time>2021-08-15T11:36:31Z</time>
      </trkpt>
      <trkpt lat="45.491" lon="6.71207">
        <ele>2351.1</ele>
        <time>2021-08-15T11:36:32Z</time>
      </trkpt>
      <trkpt lat="45.491" lon="6.71207">
        <ele>2351.1</ele>
        <time>2021-08-15T11:36:33Z</time>
      </trkpt>
      <trkpt lat="45.491" lon="6.71207">
        <ele>2351.1</ele>
        <time>2021-08-15T11:36:34Z</time>
      </trkpt>
      <trkpt lat="45.491" lon="6.71207">
        <ele>2351.1</ele>
        <time>2021-08-15T11:36:35Z</time>
      </trkpt>
      <trkpt lat="45.491" lon="6.71207">
        <ele>2351.1</ele>
        <time>2021-08-15T11:36:36Z</time>
      </trkpt>
      <trkpt lat="45.491" lon="6.71207">
        <ele>2351.1</ele>
        <time>2021-08-15T11:36:37Z</time>
      </trkpt>
      <trkpt lat="45.491" lon="6.71207">
        <ele>2351.1</ele>
        <time>2021-08-15T11:36:38Z</time>
      </trkpt>
      <trkpt lat="45.491" lon="6.71207">
        <ele>2351.1</ele>
        <time>2021-08-15T11:36:39Z</time>
      </trkpt>
      <trkpt lat="45.491" lon="6.71207">
        <ele>2351.1</ele>
        <time>2021-08-15T11:36:40Z</time>
      </trkpt>
      <trkpt lat="45.491" lon="6.71207">
        <ele>2351.1</ele>
        <time>2021-08-15T11:36:41Z</time>
      </trkpt>
      <trkpt lat="45.491" lon="6.71207">
        <ele>2351.1</ele>
        <time>2021-08-15T11:36:42Z</time>
      </trkpt>
      <trkpt lat="45.491" lon="6.71207">
        <ele>2351.1</ele>
        <time>2021-08-15T11:36:43Z</time>
      </trkpt>
      <trkpt lat="45.491" lon="6.71207">
        <ele>2351.1</ele>
        <time>2021-08-15T11:36:44Z</time>
      </trkpt>
      <trkpt lat="45.491" lon="6.71207">
        <ele>2351.1</ele>
        <time>2021-08-15T11:36:45Z</time>
      </trkpt>
      <trkpt lat="45.491" lon="6.71207">
        <ele>2351.1</ele>
        <time>2021-08-15T11:36:46Z</time>
      </trkpt>
      <trkpt lat="45.491" lon="6.71207">
        <ele>2351.1</ele>
        <time>2021-08-15T11:36:47Z</time>
      </trkpt>
      <trkpt lat="45.491" lon="6.71207">
        <ele>2351.1</ele>
        <time>2021-08-15T11:36:48Z</time>
      </trkpt>
      <trkpt lat="45.491" lon="6.71207">
        <ele>2351.1</ele>
        <time>2021-08-15T11:36:49Z</time>
      </trkpt>
      <trkpt lat="45.491" lon="6.71207">
        <ele>2351.1</ele>
        <time>2021-08-15T11:36:50Z</time>
      </trkpt>
      <trkpt lat="45.491" lon="6.71207">
        <ele>2351.1</ele>
        <time>2021-08-15T11:36:51Z</time>
      </trkpt>
      <trkpt lat="45.491" lon="6.71207">
        <ele>2351.1</ele>
        <time>2021-08-15T11:36:52Z</time>
      </trkpt>
      <trkpt lat="45.491" lon="6.71207">
        <ele>2351.1</ele>
        <time>2021-08-15T11:36:53Z</time>
      </trkpt>
      <trkpt lat="45.491" lon="6.71207">
        <ele>2351.1</ele>
        <time>2021-08-15T11:36:54Z</time>
      </trkpt>
      <trkpt lat="45.491" lon="6.71207">
        <ele>2351.1</ele>
        <time>2021-08-15T11:36:55Z</time>
      </trkpt>
      <trkpt lat="45.491" lon="6.71207">
        <ele>2351.1</ele>
        <time>2021-08-15T11:36:56Z</time>
      </trkpt>
      <trkpt lat="45.491" lon="6.71207">
        <ele>2351.1</ele>
        <time>2021-08-15T11:36:57Z</time>
      </trkpt>
      <trkpt lat="45.491" lon="6.71207">
        <ele>2351.1</ele>
        <time>2021-08-15T11:36:58Z</time>
      </trkpt>
      <trkpt lat="45.491" lon="6.71207">
        <ele>2351.1</ele>
        <time>2021-08-15T11:36:59Z</time>
      </trkpt>
      <trkpt lat="45.491" lon="6.71207">
        <ele>2351.1</ele>
        <time>2021-08-15T11:37:00Z</time>
      </trkpt>
      <trkpt lat="45.491" lon="6.71207">
        <ele>2351.1</ele>
        <time>2021-08-15T11:37:01Z</time>
      </trkpt>
      <trkpt lat="45.491" lon="6.71207">
        <ele>2351.1</ele>
        <time>2021-08-15T11:37:02Z</time>
      </trkpt>
      <trkpt lat="45.491" lon="6.71207">
        <ele>2351.1</ele>
        <time>2021-08-15T11:37:03Z</time>
      </trkpt>
      <trkpt lat="45.491" lon="6.71207">
        <ele>2351.1</ele>
        <time>2021-08-15T11:37:04Z</time>
      </trkpt>
      <trkpt lat="45.491" lon="6.71207">
        <ele>2351.1</ele>
        <time>2021-08-15T11:37:05Z</time>
      </trkpt>
      <trkpt lat="45.491" lon="6.71207">
        <ele>2351.1</ele>
        <time>2021-08-15T11:37:06Z</time>
      </trkpt>
      <trkpt lat="45.491" lon="6.71207">
        <ele>2351.1</ele>
        <time>2021-08-15T11:37:07Z</time>
      </trkpt>
      <trkpt lat="45.491" lon="6.71207">
        <ele>2351.1</ele>
        <time>2021-08-15T11:37:08Z</time>
      </trkpt>
      <trkpt lat="45.491" lon="6.71207">
        <ele>2351.1</ele>
        <time>2021-08-15T11:37:09Z</time>
      </trkpt>
      <trkpt lat="45.491" lon="6.71207">
        <ele>2351.1</ele>
        <time>2021-08-15T11:37:10Z</time>
      </trkpt>
      <trkpt lat="45.491" lon="6.71207">
        <ele>2351.1</ele>
        <time>2021-08-15T11:37:11Z</time>
      </trkpt>
      <trkpt lat="45.491" lon="6.71207">
        <ele>2351.1</ele>
        <time>2021-08-15T11:37:12Z</time>
      </trkpt>
      <trkpt lat="45.491" lon="6.71207">
        <ele>2351.1</ele>
        <time>2021-08-15T11:37:13Z</time>
      </trkpt>
      <trkpt lat="45.491" lon="6.71207">
        <ele>2351.1</ele>
        <time>2021-08-15T11:37:14Z</time>
      </trkpt>
      <trkpt lat="45.491" lon="6.71207">
        <ele>2351.1</ele>
        <time>2021-08-15T11:37:15Z</time>
      </trkpt>
      <trkpt lat="45.491" lon="6.71207">
        <ele>2351.1</ele>
        <time>2021-08-15T11:37:16Z</time>
      </trkpt>
      <trkpt lat="45.491" lon="6.71207">
        <ele>2351.1</ele>
        <time>2021-08-15T11:37:17Z</time>
      </trkpt>
      <trkpt lat="45.491" lon="6.71207">
        <ele>2351.1</ele>
        <time>2021-08-15T11:37:18Z</time>
      </trkpt>
      <trkpt lat="45.491" lon="6.71207">
        <ele>2351.1</ele>
        <time>2021-08-15T11:37:19Z</time>
      </trkpt>
      <trkpt lat="45.491" lon="6.71207">
        <ele>2351.1</ele>
        <time>2021-08-15T11:37:20Z</time>
      </trkpt>
      <trkpt lat="45.491" lon="6.71207">
        <ele>2351.1</ele>
        <time>2021-08-15T11:37:21Z</time>
      </trkpt>
      <trkpt lat="45.491" lon="6.71207">
        <ele>2351.1</ele>
        <time>2021-08-15T11:37:22Z</time>
      </trkpt>
      <trkpt lat="45.491" lon="6.71207">
        <ele>2351.1</ele>
        <time>2021-08-15T11:37:23Z</time>
      </trkpt>
      <trkpt lat="45.491" lon="6.71207">
        <ele>2351.1</ele>
        <time>2021-08-15T11:37:24Z</time>
      </trkpt>
      <trkpt lat="45.491" lon="6.71207">
        <ele>2351.1</ele>
        <time>2021-08-15T11:37:25Z</time>
      </trkpt>
      <trkpt lat="45.491" lon="6.71207">
        <ele>2351.1</ele>
        <time>2021-08-15T11:37:26Z</time>
      </trkpt>
      <trkpt lat="45.491" lon="6.71207">
        <ele>2351.1</ele>
        <time>2021-08-15T11:37:27Z</time>
      </trkpt>
      <trkpt lat="45.491" lon="6.71207">
        <ele>2351.1</ele>
        <time>2021-08-15T11:37:28Z</time>
      </trkpt>
      <trkpt lat="45.491" lon="6.71207">
        <ele>2351.1</ele>
        <time>2021-08-15T11:37:29Z</time>
      </trkpt>
      <trkpt lat="45.491" lon="6.71207">
        <ele>2351.1</ele>
        <time>2021-08-15T11:37:30Z</time>
      </trkpt>
      <trkpt lat="45.491" lon="6.71207">
        <ele>2351.1</ele>
        <time>2021-08-15T11:37:31Z</time>
      </trkpt>
      <trkpt lat="45.491" lon="6.71207">
        <ele>2351.1</ele>
        <time>2021-08-15T11:37:32Z</time>
      </trkpt>
      <trkpt lat="45.491" lon="6.71207">
        <ele>2351.1</ele>
        <time>2021-08-15T11:37:33Z</time>
      </trkpt>
      <trkpt lat="45.491" lon="6.71207">
        <ele>2351.1</ele>
        <time>2021-08-15T11:37:34Z</time>
      </trkpt>
      <trkpt lat="45.491" lon="6.71207">
        <ele>2351.1</ele>
        <time>2021-08-15T11:37:35Z</time>
      </trkpt>
      <trkpt lat="45.491" lon="6.71207">
        <ele>2351.1</ele>
        <time>2021-08-15T11:37:36Z</time>
      </trkpt>
      <trkpt lat="45.491" lon="6.71207">
        <ele>2351.1</ele>
        <time>2021-08-15T11:37:37Z</time>
      </trkpt>
      <trkpt lat="45.491" lon="6.71207">
        <ele>2351.1</ele>
        <time>2021-08-15T11:37:38Z</time>
      </trkpt>
      <trkpt lat="45.491" lon="6.71207">
        <ele>2351.1</ele>
        <time>2021-08-15T11:37:39Z</time>
      </trkpt>
      <trkpt lat="45.491" lon="6.71207">
        <ele>2351.1</ele>
        <time>2021-08-15T11:37:40Z</time>
      </trkpt>
      <trkpt lat="45.491" lon="6.71207">
        <ele>2351.1</ele>
        <time>2021-08-15T11:37:41Z</time>
      </trkpt>
      <trkpt lat="45.491" lon="6.71207">
        <ele>2351.1</ele>
        <time>2021-08-15T11:37:42Z</time>
      </trkpt>
      <trkpt lat="45.491" lon="6.71207">
        <ele>2351.1</ele>
        <time>2021-08-15T11:37:43Z</time>
      </trkpt>
      <trkpt lat="45.491" lon="6.71207">
        <ele>2351.1</ele>
        <time>2021-08-15T11:37:44Z</time>
      </trkpt>
      <trkpt lat="45.491" lon="6.71207">
        <ele>2351.1</ele>
        <time>2021-08-15T11:37:45Z</time>
      </trkpt>
      <trkpt lat="45.491" lon="6.71207">
        <ele>2351.1</ele>
        <time>2021-08-15T11:37:46Z</time>
      </trkpt>
      <trkpt lat="45.491" lon="6.71207">
        <ele>2351.1</ele>
        <time>2021-08-15T11:37:47Z</time>
      </trkpt>
      <trkpt lat="45.491" lon="6.71207">
        <ele>2351.1</ele>
        <time>2021-08-15T11:37:48Z</time>
      </trkpt>
      <trkpt lat="45.491" lon="6.71207">
        <ele>2351.1</ele>
        <time>2021-08-15T11:37:49Z</time>
      </trkpt>
      <trkpt lat="45.491" lon="6.71207">
        <ele>2351.1</ele>
        <time>2021-08-15T11:37:50Z</time>
      </trkpt>
      <trkpt lat="45.491" lon="6.71207">
        <ele>2351.1</ele>
        <time>2021-08-15T11:37:51Z</time>
      </trkpt>
      <trkpt lat="45.491" lon="6.71207">
        <ele>2351.1</ele>
        <time>2021-08-15T11:37:52Z</time>
      </trkpt>
      <trkpt lat="45.491" lon="6.71207">
        <ele>2351.1</ele>
        <time>2021-08-15T11:37:53Z</time>
      </trkpt>
      <trkpt lat="45.491" lon="6.71207">
        <ele>2351.1</ele>
        <time>2021-08-15T11:37:54Z</time>
      </trkpt>
      <trkpt lat="45.491" lon="6.71207">
        <ele>2351.1</ele>
        <time>2021-08-15T11:37:55Z</time>
      </trkpt>
      <trkpt lat="45.491" lon="6.71207">
        <ele>2351.1</ele>
        <time>2021-08-15T11:37:56Z</time>
      </trkpt>
      <trkpt lat="45.491" lon="6.71207">
        <ele>2351.1</ele>
        <time>2021-08-15T11:37:57Z</time>
      </trkpt>
      <trkpt lat="45.491" lon="6.71207">
        <ele>2351.1</ele>
        <time>2021-08-15T11:37:58Z</time>
      </trkpt>
      <trkpt lat="45.491" lon="6.71207">
        <ele>2351.1</ele>
        <time>2021-08-15T11:37:59Z</time>
      </trkpt>
      <trkpt lat="45.491" lon="6.71207">
        <ele>2351.1</ele>
        <time>2021-08-15T11:38:00Z</time>
      </trkpt>
      <trkpt lat="45.491" lon="6.71207">
        <ele>2351.1</ele>
        <time>2021-08-15T11:38:01Z</time>
      </trkpt>
      <trkpt lat="45.491" lon="6.71207">
        <ele>2351.1</ele>
        <time>2021-08-15T11:38:02Z</time>
      </trkpt>
      <trkpt lat="45.491" lon="6.71207">
        <ele>2351.1</ele>
        <time>2021-08-15T11:38:03Z</time>
      </trkpt>
      <trkpt lat="45.491" lon="6.71207">
        <ele>2351.1</ele>
        <time>2021-08-15T11:38:04Z</time>
      </trkpt>
      <trkpt lat="45.491" lon="6.71207">
        <ele>2351.1</ele>
        <time>2021-08-15T11:38:05Z</time>
      </trkpt>
      <trkpt lat="45.491" lon="6.71207">
        <ele>2351.1</ele>
        <time>2021-08-15T11:38:06Z</time>
      </trkpt>
      <trkpt lat="45.491" lon="6.71207">
        <ele>2351.1</ele>
        <time>2021-08-15T11:38:07Z</time>
      </trkpt>
      <trkpt lat="45.491" lon="6.71207">
        <ele>2351.1</ele>
        <time>2021-08-15T11:38:08Z</time>
      </trkpt>
      <trkpt lat="45.491" lon="6.71207">
        <ele>2351.1</ele>
        <time>2021-08-15T11:38:09Z</time>
      </trkpt>
      <trkpt lat="45.491" lon="6.71207">
        <ele>2351.1</ele>
        <time>2021-08-15T11:38:10Z</time>
      </trkpt>
      <trkpt lat="45.491" lon="6.71207">
        <ele>2351.1</ele>
        <time>2021-08-15T11:38:11Z</time>
      </trkpt>
      <trkpt lat="45.491" lon="6.71207">
        <ele>2351.1</ele>
        <time>2021-08-15T11:38:12Z</time>
      </trkpt>
      <trkpt lat="45.491" lon="6.71207">
        <ele>2351.1</ele>
        <time>2021-08-15T11:38:13Z</time>
      </trkpt>
      <trkpt lat="45.491" lon="6.71207">
        <ele>2351.1</ele>
        <time>2021-08-15T11:38:14Z</time>
      </trkpt>
      <trkpt lat="45.491" lon="6.71207">
        <ele>2351.1</ele>
        <time>2021-08-15T11:38:15Z</time>
      </trkpt>
      <trkpt lat="45.491" lon="6.71207">
        <ele>2351.1</ele>
        <time>2021-08-15T11:38:16Z</time>
      </trkpt>
      <trkpt lat="45.491" lon="6.71207">
        <ele>2351.1</ele>
        <time>2021-08-15T11:38:17Z</time>
      </trkpt>
      <trkpt lat="45.491" lon="6.71207">
        <ele>2351.1</ele>
        <time>2021-08-15T11:38:18Z</time>
      </trkpt>
      <trkpt lat="45.491" lon="6.71207">
        <ele>2351.1</ele>
        <time>2021-08-15T11:38:19Z</time>
      </trkpt>
      <trkpt lat="45.491" lon="6.71207">
        <ele>2351.1</ele>
        <time>2021-08-15T11:38:20Z</time>
      </trkpt>
      <trkpt lat="45.491" lon="6.71207">
        <ele>2351.1</ele>
        <time>2021-08-15T11:38:21Z</time>
      </trkpt>
      <trkpt lat="45.491" lon="6.71207">
        <ele>2351.1</ele>
        <time>2021-08-15T11:38:22Z</time>
      </trkpt>
      <trkpt lat="45.491" lon="6.71207">
        <ele>2351.1</ele>
        <time>2021-08-15T11:38:23Z</time>
      </trkpt>
      <trkpt lat="45.491" lon="6.71207">
        <ele>2351.1</ele>
        <time>2021-08-15T11:38:24Z</time>
      </trkpt>
      <trkpt lat="45.491" lon="6.71207">
        <ele>2351.1</ele>
        <time>2021-08-15T11:38:25Z</time>
      </trkpt>
      <trkpt lat="45.491" lon="6.71207">
        <ele>2351.1</ele>
        <time>2021-08-15T11:38:26Z</time>
      </trkpt>
      <trkpt lat="45.491" lon="6.71207">
        <ele>2351.1</ele>
        <time>2021-08-15T11:38:27Z</time>
      </trkpt>
      <trkpt lat="45.491" lon="6.71207">
        <ele>2351.1</ele>
        <time>2021-08-15T11:38:28Z</time>
      </trkpt>
      <trkpt lat="45.491" lon="6.71207">
        <ele>2351.1</ele>
        <time>2021-08-15T11:38:29Z</time>
      </trkpt>
      <trkpt lat="45.491" lon="6.71207">
        <ele>2351.1</ele>
        <time>2021-08-15T11:38:30Z</time>
      </trkpt>
      <trkpt lat="45.491" lon="6.71207">
        <ele>2351.1</ele>
        <time>2021-08-15T11:38:31Z</time>
      </trkpt>
      <trkpt lat="45.491" lon="6.71207">
        <ele>2351.1</ele>
        <time>2021-08-15T11:38:32Z</time>
      </trkpt>
      <trkpt lat="45.491" lon="6.71207">
        <ele>2351.1</ele>
        <time>2021-08-15T11:38:33Z</time>
      </trkpt>
      <trkpt lat="45.491" lon="6.71207">
        <ele>2351.1</ele>
        <time>2021-08-15T11:38:34Z</time>
      </trkpt>
      <trkpt lat="45.491" lon="6.71207">
        <ele>2351.1</ele>
        <time>2021-08-15T11:38:35Z</time>
      </trkpt>
      <trkpt lat="45.491" lon="6.71207">
        <ele>2351.1</ele>
        <time>2021-08-15T11:38:36Z</time>
      </trkpt>
      <trkpt lat="45.491" lon="6.71207">
        <ele>2351.1</ele>
        <time>2021-08-15T11:38:37Z</time>
      </trkpt>
      <trkpt lat="45.491" lon="6.71207">
        <ele>2351.1</ele>
        <time>2021-08-15T11:38:38Z</time>
      </trkpt>
      <trkpt lat="45.491" lon="6.71207">
        <ele>2351.1</ele>
        <time>2021-08-15T11:38:39Z</time>
      </trkpt>
      <trkpt lat="45.491" lon="6.71207">
        <ele>2351.1</ele>
        <time>2021-08-15T11:38:40Z</time>
      </trkpt>
      <trkpt lat="45.491" lon="6.71207">
        <ele>2351.1</ele>
        <time>2021-08-15T11:38:41Z</time>
      </trkpt>
      <trkpt lat="45.491" lon="6.71207">
        <ele>2351.1</ele>
        <time>2021-08-15T11:38:42Z</time>
      </trkpt>
      <trkpt lat="45.491" lon="6.71207">
        <ele>2351.1</ele>
        <time>2021-08-15T11:38:43Z</time>
      </trkpt>
      <trkpt lat="45.491" lon="6.71207">
        <ele>2351.1</ele>
        <time>2021-08-15T11:38:44Z</time>
      </trkpt>
      <trkpt lat="45.491" lon="6.71207">
        <ele>2351.1</ele>
        <time>2021-08-15T11:38:45Z</time>
      </trkpt>
      <trkpt lat="45.491" lon="6.71207">
        <ele>2351.1</ele>
        <time>2021-08-15T11:38:46Z</time>
      </trkpt>
      <trkpt lat="45.491" lon="6.71207">
        <ele>2351.1</ele>
        <time>2021-08-15T11:38:47Z</time>
      </trkpt>
      <trkpt lat="45.491" lon="6.71207">
        <ele>2351.1</ele>
        <time>2021-08-15T11:38:48Z</time>
      </trkpt>
      <trkpt lat="45.491" lon="6.71207">
        <ele>2351.1</ele>
        <time>2021-08-15T11:38:49Z</time>
      </trkpt>
      <trkpt lat="45.491" lon="6.71207">
        <ele>2351.1</ele>
        <time>2021-08-15T11:38:50Z</time>
      </trkpt>
      <trkpt lat="45.491" lon="6.71207">
        <ele>2351.1</ele>
        <time>2021-08-15T11:38:51Z</time>
      </trkpt>
      <trkpt lat="45.491" lon="6.71207">
        <ele>2351.1</ele>
        <time>2021-08-15T11:38:52Z</time>
      </trkpt>
      <trkpt lat="45.491" lon="6.71207">
        <ele>2351.1</ele>
        <time>2021-08-15T11:38:53Z</time>
      </trkpt>
      <trkpt lat="45.491" lon="6.71207">
        <ele>2351.1</ele>
        <time>2021-08-15T11:38:54Z</time>
      </trkpt>
      <trkpt lat="45.491" lon="6.71207">
        <ele>2351.1</ele>
        <time>2021-08-15T11:38:55Z</time>
      </trkpt>
      <trkpt lat="45.491" lon="6.71207">
        <ele>2351.1</ele>
        <time>2021-08-15T11:38:56Z</time>
      </trkpt>
      <trkpt lat="45.491" lon="6.71207">
        <ele>2351.1</ele>
        <time>2021-08-15T11:38:57Z</time>
      </trkpt>
      <trkpt lat="45.491" lon="6.71207">
        <ele>2351.1</ele>
        <time>2021-08-15T11:38:58Z</time>
      </trkpt>
      <trkpt lat="45.491" lon="6.71207">
        <ele>2351.1</ele>
        <time>2021-08-15T11:38:59Z</time>
      </trkpt>
      <trkpt lat="45.491" lon="6.71207">
        <ele>2351.1</ele>
        <time>2021-08-15T11:39:00Z</time>
      </trkpt>
      <trkpt lat="45.491" lon="6.71207">
        <ele>2351.1</ele>
        <time>2021-08-15T11:39:01Z</time>
      </trkpt>
      <trkpt lat="45.491" lon="6.71207">
        <ele>2351.1</ele>
        <time>2021-08-15T11:39:02Z</time>
      </trkpt>
      <trkpt lat="45.491" lon="6.71207">
        <ele>2351.1</ele>
        <time>2021-08-15T11:39:03Z</time>
      </trkpt>
      <trkpt lat="45.491" lon="6.71207">
        <ele>2351.1</ele>
        <time>2021-08-15T11:39:04Z</time>
      </trkpt>
      <trkpt lat="45.491" lon="6.71207">
        <ele>2351.1</ele>
        <time>2021-08-15T11:39:05Z</time>
      </trkpt>
      <trkpt lat="45.491" lon="6.71207">
        <ele>2351.1</ele>
        <time>2021-08-15T11:39:06Z</time>
      </trkpt>
      <trkpt lat="45.491" lon="6.71207">
        <ele>2351.1</ele>
        <time>2021-08-15T11:39:07Z</time>
      </trkpt>
      <trkpt lat="45.491" lon="6.71207">
        <ele>2351.1</ele>
        <time>2021-08-15T11:39:08Z</time>
      </trkpt>
      <trkpt lat="45.491" lon="6.71207">
        <ele>2351.1</ele>
        <time>2021-08-15T11:39:09Z</time>
      </trkpt>
      <trkpt lat="45.491" lon="6.71207">
        <ele>2351.1</ele>
        <time>2021-08-15T11:39:10Z</time>
      </trkpt>
      <trkpt lat="45.491" lon="6.71207">
        <ele>2351.1</ele>
        <time>2021-08-15T11:39:11Z</time>
      </trkpt>
      <trkpt lat="45.491" lon="6.71207">
        <ele>2351.1</ele>
        <time>2021-08-15T11:39:12Z</time>
      </trkpt>
      <trkpt lat="45.491" lon="6.71207">
        <ele>2351.1</ele>
        <time>2021-08-15T11:39:13Z</time>
      </trkpt>
      <trkpt lat="45.491" lon="6.71207">
        <ele>2351.1</ele>
        <time>2021-08-15T11:39:14Z</time>
      </trkpt>
      <trkpt lat="45.491" lon="6.71207">
        <ele>2351.1</ele>
        <time>2021-08-15T11:39:15Z</time>
      </trkpt>
      <trkpt lat="45.491" lon="6.71207">
        <ele>2351.1</ele>
        <time>2021-08-15T11:39:16Z</time>
      </trkpt>
      <trkpt lat="45.491" lon="6.71207">
        <ele>2351.1</ele>
        <time>2021-08-15T11:39:17Z</time>
      </trkpt>
      <trkpt lat="45.491" lon="6.71207">
        <ele>2351.1</ele>
        <time>2021-08-15T11:39:18Z</time>
      </trkpt>
      <trkpt lat="45.491" lon="6.71207">
        <ele>2351.1</ele>
        <time>2021-08-15T11:39:19Z</time>
      </trkpt>
      <trkpt lat="45.491" lon="6.71207">
        <ele>2351.1</ele>
        <time>2021-08-15T11:39:20Z</time>
      </trkpt>
      <trkpt lat="45.491" lon="6.71207">
        <ele>2351.1</ele>
        <time>2021-08-15T11:39:21Z</time>
      </trkpt>
      <trkpt lat="45.491" lon="6.71207">
        <ele>2351.1</ele>
        <time>2021-08-15T11:39:22Z</time>
      </trkpt>
      <trkpt lat="45.491" lon="6.71207">
        <ele>2351.1</ele>
        <time>2021-08-15T11:39:23Z</time>
      </trkpt>
      <trkpt lat="45.491" lon="6.71207">
        <ele>2351.1</ele>
        <time>2021-08-15T11:39:24Z</time>
      </trkpt>
      <trkpt lat="45.491" lon="6.71207">
        <ele>2351.1</ele>
        <time>2021-08-15T11:39:25Z</time>
      </trkpt>
      <trkpt lat="45.491" lon="6.71207">
        <ele>2351.1</ele>
        <time>2021-08-15T11:39:26Z</time>
      </trkpt>
      <trkpt lat="45.491" lon="6.71207">
        <ele>2351.1</ele>
        <time>2021-08-15T11:39:27Z</time>
      </trkpt>
      <trkpt lat="45.491" lon="6.71207">
        <ele>2351.1</ele>
        <time>2021-08-15T11:39:28Z</time>
      </trkpt>
      <trkpt lat="45.491" lon="6.71207">
        <ele>2351.1</ele>
        <time>2021-08-15T11:39:29Z</time>
      </trkpt>
      <trkpt lat="45.491" lon="6.71207">
        <ele>2351.1</ele>
        <time>2021-08-15T11:39:30Z</time>
      </trkpt>
      <trkpt lat="45.491" lon="6.71207">
        <ele>2351.1</ele>
        <time>2021-08-15T11:39:31Z</time>
      </trkpt>
      <trkpt lat="45.491" lon="6.71207">
        <ele>2351.1</ele>
        <time>2021-08-15T11:39:32Z</time>
      </trkpt>
      <trkpt lat="45.491" lon="6.71207">
        <ele>2351.1</ele>
        <time>2021-08-15T11:39:33Z</time>
      </trkpt>
      <trkpt lat="45.491" lon="6.71207">
        <ele>2351.1</ele>
        <time>2021-08-15T11:39:34Z</time>
      </trkpt>
      <trkpt lat="45.491" lon="6.71207">
        <ele>2351.1</ele>
        <time>2021-08-15T11:39:35Z</time>
      </trkpt>
      <trkpt lat="45.491" lon="6.71207">
        <ele>2351.1</ele>
        <time>2021-08-15T11:39:36Z</time>
      </trkpt>
      <trkpt lat="45.491" lon="6.71207">
        <ele>2351.1</ele>
        <time>2021-08-15T11:39:37Z</time>
      </trkpt>
      <trkpt lat="45.491" lon="6.71207">
        <ele>2351.1</ele>
        <time>2021-08-15T11:39:38Z</time>
      </trkpt>
      <trkpt lat="45.491" lon="6.71207">
        <ele>2351.1</ele>
        <time>2021-08-15T11:39:39Z</time>
      </trkpt>
      <trkpt lat="45.491" lon="6.71207">
        <ele>2351.1</ele>
        <time>2021-08-15T11:39:40Z</time>
      </trkpt>
      <trkpt lat="45.491" lon="6.71207">
        <ele>2351.1</ele>
        <time>2021-08-15T11:39:41Z</time>
      </trkpt>
      <trkpt lat="45.491" lon="6.71207">
        <ele>2351.1</ele>
        <time>2021-08-15T11:39:42Z</time>
      </trkpt>
      <trkpt lat="45.491" lon="6.71207">
        <ele>2351.1</ele>
        <time>2021-08-15T11:39:43Z</time>
      </trkpt>
      <trkpt lat="45.491" lon="6.71207">
        <ele>2351.1</ele>
        <time>2021-08-15T11:39:44Z</time>
      </trkpt>
      <trkpt lat="45.491" lon="6.71207">
        <ele>2351.1</ele>
        <time>2021-08-15T11:39:45Z</time>
      </trkpt>
      <trkpt lat="45.491" lon="6.71207">
        <ele>2351.1</ele>
        <time>2021-08-15T11:39:46Z</time>
      </trkpt>
      <trkpt lat="45.491" lon="6.71207">
        <ele>2351.1</ele>
        <time>2021-08-15T11:39:47Z</time>
      </trkpt>
      <trkpt lat="45.491" lon="6.71207">
        <ele>2351.1</ele>
        <time>2021-08-15T11:39:48Z</time>
      </trkpt>
      <trkpt lat="45.491" lon="6.71207">
        <ele>2351.1</ele>
        <time>2021-08-15T11:39:49Z</time>
      </trkpt>
      <trkpt lat="45.491" lon="6.71207">
        <ele>2351.1</ele>
        <time>2021-08-15T11:39:50Z</time>
      </trkpt>
      <trkpt lat="45.491" lon="6.71207">
        <ele>2351.1</ele>
        <time>2021-08-15T11:39:51Z</time>
      </trkpt>
      <trkpt lat="45.491" lon="6.71207">
        <ele>2351.1</ele>
        <time>2021-08-15T11:39:52Z</time>
      </trkpt>
      <trkpt lat="45.491" lon="6.71207">
        <ele>2351.1</ele>
        <time>2021-08-15T11:39:53Z</time>
      </trkpt>
      <trkpt lat="45.491" lon="6.71207">
        <ele>2351.1</ele>
        <time>2021-08-15T11:39:54Z</time>
      </trkpt>
      <trkpt lat="45.491" lon="6.71207">
        <ele>2351.1</ele>
        <time>2021-08-15T11:39:55Z</time>
      </trkpt>
      <trkpt lat="45.491" lon="6.71207">
        <ele>2351.1</ele>
        <time>2021-08-15T11:39:56Z</time>
      </trkpt>
      <trkpt lat="45.491" lon="6.71207">
        <ele>2351.1</ele>
        <time>2021-08-15T11:39:57Z</time>
      </trkpt>
      <trkpt lat="45.491" lon="6.71207">
        <ele>2351.1</ele>
        <time>2021-08-15T11:39:58Z</time>
      </trkpt>
      <trkpt lat="45.491" lon="6.71207">
        <ele>2351.1</ele>
        <time>2021-08-15T11:39:59Z</time>
      </trkpt>
      <trkpt lat="45.491" lon="6.71207">
        <ele>2351.1</ele>
        <time>2021-08-15T11:40:00Z</time>
      </trkpt>
      <trkpt lat="45.491" lon="6.71207">
        <ele>2351.1</ele>
        <time>2021-08-15T11:40:01Z</time>
      </trkpt>
      <trkpt lat="45.491" lon="6.71207">
        <ele>2351.1</ele>
        <time>2021-08-15T11:40:02Z</time>
      </trkpt>
      <trkpt lat="45.491" lon="6.71207">
        <ele>2351.1</ele>
        <time>2021-08-15T11:40:03Z</time>
      </trkpt>
      <trkpt lat="45.491" lon="6.71207">
        <ele>2351.1</ele>
        <time>2021-08-15T11:40:04Z</time>
      </trkpt>
      <trkpt lat="45.491" lon="6.71207">
        <ele>2351.1</ele>
        <time>2021-08-15T11:40:05Z</time>
      </trkpt>
      <trkpt lat="45.491" lon="6.71207">
        <ele>2351.1</ele>
        <time>2021-08-15T11:40:06Z</time>
      </trkpt>
      <trkpt lat="45.491" lon="6.71207">
        <ele>2351.1</ele>
        <time>2021-08-15T11:40:07Z</time>
      </trkpt>
      <trkpt lat="45.491" lon="6.71207">
        <ele>2351.1</ele>
        <time>2021-08-15T11:40:08Z</time>
      </trkpt>
      <trkpt lat="45.491" lon="6.71207">
        <ele>2351.1</ele>
        <time>2021-08-15T11:40:09Z</time>
      </trkpt>
      <trkpt lat="45.491" lon="6.71207">
        <ele>2351.1</ele>
        <time>2021-08-15T11:40:10Z</time>
      </trkpt>
      <trkpt lat="45.491" lon="6.71207">
        <ele>2351.1</ele>
        <time>2021-08-15T11:40:11Z</time>
      </trkpt>
      <trkpt lat="45.491" lon="6.71207">
        <ele>2351.1</ele>
        <time>2021-08-15T11:40:12Z</time>
      </trkpt>
      <trkpt lat="45.491" lon="6.71207">
        <ele>2351.1</ele>
        <time>2021-08-15T11:40:13Z</time>
      </trkpt>
      <trkpt lat="45.491" lon="6.71207">
        <ele>2351.1</ele>
        <time>2021-08-15T11:40:14Z</time>
      </trkpt>
      <trkpt lat="45.491" lon="6.71207">
        <ele>2351.1</ele>
        <time>2021-08-15T11:40:15Z</time>
      </trkpt>
      <trkpt lat="45.491" lon="6.71207">
        <ele>2351.1</ele>
        <time>2021-08-15T11:40:16Z</time>
      </trkpt>
      <trkpt lat="45.491" lon="6.71207">
        <ele>2351.1</ele>
        <time>2021-08-15T11:40:17Z</time>
      </trkpt>
      <trkpt lat="45.491" lon="6.71207">
        <ele>2351.1</ele>
        <time>2021-08-15T11:40:18Z</time>
      </trkpt>
      <trkpt lat="45.491" lon="6.71207">
        <ele>2351.1</ele>
        <time>2021-08-15T11:40:19Z</time>
      </trkpt>
      <trkpt lat="45.491" lon="6.71207">
        <ele>2351.1</ele>
        <time>2021-08-15T11:40:20Z</time>
      </trkpt>
      <trkpt lat="45.491" lon="6.71207">
        <ele>2351.1</ele>
        <time>2021-08-15T11:40:21Z</time>
      </trkpt>
      <trkpt lat="45.491" lon="6.71207">
        <ele>2351.1</ele>
        <time>2021-08-15T11:40:22Z</time>
      </trkpt>
      <trkpt lat="45.491" lon="6.71207">
        <ele>2351.1</ele>
        <time>2021-08-15T11:40:23Z</time>
      </trkpt>
      <trkpt lat="45.491" lon="6.71207">
        <ele>2351.1</ele>
        <time>2021-08-15T11:40:24Z</time>
      </trkpt>
      <trkpt lat="45.491" lon="6.71207">
        <ele>2351.1</ele>
        <time>2021-08-15T11:40:25Z</time>
      </trkpt>
      <trkpt lat="45.491" lon="6.71207">
        <ele>2351.1</ele>
        <time>2021-08-15T11:40:26Z</time>
      </trkpt>
      <trkpt lat="45.491" lon="6.71207">
        <ele>2351.1</ele>
        <time>2021-08-15T11:40:27Z</time>
      </trkpt>
      <trkpt lat="45.491" lon="6.71207">
        <ele>2351.1</ele>
        <time>2021-08-15T11:40:28Z</time>
      </trkpt>
      <trkpt lat="45.491" lon="6.71207">
        <ele>2351.1</ele>
        <time>2021-08-15T11:40:29Z</time>
      </trkpt>
      <trkpt lat="45.491" lon="6.71207">
        <ele>2351.1</ele>
        <time>2021-08-15T11:40:30Z</time>
      </trkpt>
      <trkpt lat="45.491" lon="6.71207">
        <ele>2351.1</ele>
        <time>2021-08-15T11:40:31Z</time>
      </trkpt>
      <trkpt lat="45.491" lon="6.71207">
        <ele>2351.1</ele>
        <time>2021-08-15T11:40:32Z</time>
      </trkpt>
      <trkpt lat="45.491" lon="6.71207">
        <ele>2351.1</ele>
        <time>2021-08-15T11:40:33Z</time>
      </trkpt>
      <trkpt lat="45.491" lon="6.71207">
        <ele>2351.1</ele>
        <time>2021-08-15T11:40:34Z</time>
      </trkpt>
      <trkpt lat="45.491" lon="6.71207">
        <ele>2351.1</ele>
        <time>2021-08-15T11:40:35Z</time>
      </trkpt>
      <trkpt lat="45.491" lon="6.71207">
        <ele>2351.1</ele>
        <time>2021-08-15T11:40:36Z</time>
      </trkpt>
      <trkpt lat="45.491" lon="6.71207">
        <ele>2351.1</ele>
        <time>2021-08-15T11:40:37Z</time>
      </trkpt>
      <trkpt lat="45.491" lon="6.71207">
        <ele>2351.1</ele>
        <time>2021-08-15T11:40:38Z</time>
      </trkpt>
      <trkpt lat="45.491" lon="6.71207">
        <ele>2351.1</ele>
        <time>2021-08-15T11:40:39Z</time>
      </trkpt>
      <trkpt lat="45.491" lon="6.71207">
        <ele>2351.1</ele>
        <time>2021-08-15T11:40:40Z</time>
      </trkpt>
      <trkpt lat="45.491" lon="6.71207">
        <ele>2351.1</ele>
        <time>2021-08-15T11:40:41Z</time>
      </trkpt>
      <trkpt lat="45.491" lon="6.71207">
        <ele>2351.1</ele>
        <time>2021-08-15T11:40:42Z</time>
      </trkpt>
      <trkpt lat="45.491" lon="6.71207">
        <ele>2351.1</ele>
        <time>2021-08-15T11:40:43Z</time>
      </trkpt>
      <trkpt lat="45.491" lon="6.71207">
        <ele>2351.1</ele>
        <time>2021-08-15T11:40:44Z</time>
      </trkpt>
      <trkpt lat="45.491" lon="6.71207">
        <ele>2351.1</ele>
        <time>2021-08-15T11:40:45Z</time>
      </trkpt>
      <trkpt lat="45.491" lon="6.71207">
        <ele>2351.1</ele>
        <time>2021-08-15T11:40:46Z</time>
      </trkpt>
      <trkpt lat="45.491" lon="6.71207">
        <ele>2351.1</ele>
        <time>2021-08-15T11:40:47Z</time>
      </trkpt>
      <trkpt lat="45.491" lon="6.71207">
        <ele>2351.1</ele>
        <time>2021-08-15T11:40:48Z</time>
      </trkpt>
      <trkpt lat="45.491" lon="6.71207">
        <ele>2351.1</ele>
        <time>2021-08-15T11:40:49Z</time>
      </trkpt>
      <trkpt lat="45.491" lon="6.71207">
        <ele>2351.1</ele>
        <time>2021-08-15T11:40:50Z</time>
      </trkpt>
      <trkpt lat="45.491" lon="6.71207">
        <ele>2351.1</ele>
        <time>2021-08-15T11:40:51Z</time>
      </trkpt>
      <trkpt lat="45.491" lon="6.71207">
        <ele>2351.1</ele>
        <time>2021-08-15T11:40:52Z</time>
      </trkpt>
      <trkpt lat="45.491" lon="6.71207">
        <ele>2351.1</ele>
        <time>2021-08-15T11:40:53Z</time>
      </trkpt>
      <trkpt lat="45.491" lon="6.71207">
        <ele>2351.1</ele>
        <time>2021-08-15T11:40:54Z</time>
      </trkpt>
      <trkpt lat="45.491" lon="6.71207">
        <ele>2351.1</ele>
        <time>2021-08-15T11:40:55Z</time>
      </trkpt>
      <trkpt lat="45.491" lon="6.71207">
        <ele>2351.1</ele>
        <time>2021-08-15T11:40:56Z</time>
      </trkpt>
      <trkpt lat="45.491" lon="6.71207">
        <ele>2351.1</ele>
        <time>2021-08-15T11:40:57Z</time>
      </trkpt>
      <trkpt lat="45.491" lon="6.71207">
        <ele>2351.1</ele>
        <time>2021-08-15T11:40:58Z</time>
      </trkpt>
      <trkpt lat="45.491" lon="6.71207">
        <ele>2351.1</ele>
        <time>2021-08-15T11:40:59Z</time>
      </trkpt>
      <trkpt lat="45.491" lon="6.71207">
        <ele>2351.1</ele>
        <time>2021-08-15T11:41:00Z</time>
      </trkpt>
      <trkpt lat="45.491" lon="6.71207">
        <ele>2351.1</ele>
        <time>2021-08-15T11:41:01Z</time>
      </trkpt>
      <trkpt lat="45.491" lon="6.71207">
        <ele>2351.1</ele>
        <time>2021-08-15T11:41:02Z</time>
      </trkpt>
      <trkpt lat="45.491" lon="6.71207">
        <ele>2351.1</ele>
        <time>2021-08-15T11:41:03Z</time>
      </trkpt>
      <trkpt lat="45.491" lon="6.71207">
        <ele>2351.1</ele>
        <time>2021-08-15T11:41:04Z</time>
      </trkpt>
      <trkpt lat="45.491" lon="6.71207">
        <ele>2351.1</ele>
        <time>2021-08-15T11:41:05Z</time>
      </trkpt>
      <trkpt lat="45.491" lon="6.71207">
        <ele>2351.1</ele>
        <time>2021-08-15T11:41:06Z</time>
      </trkpt>
      <trkpt lat="45.491" lon="6.71207">
        <ele>2351.1</ele>
        <time>2021-08-15T11:41:07Z</time>
      </trkpt>
      <trkpt lat="45.491" lon="6.71207">
        <ele>2351.1</ele>
        <time>2021-08-15T11:41:08Z</time>
      </trkpt>
      <trkpt lat="45.491" lon="6.71207">
        <ele>2351.1</ele>
        <time>2021-08-15T11:41:09Z</time>
      </trkpt>
      <trkpt lat="45.491" lon="6.71207">
        <ele>2351.1</ele>
        <time>2021-08-15T11:41:10Z</time>
      </trkpt>
      <trkpt lat="45.491" lon="6.71207">
        <ele>2351.1</ele>
        <time>2021-08-15T11:41:11Z</time>
      </trkpt>
      <trkpt lat="45.491" lon="6.71207">
        <ele>2351.1</ele>
        <time>2021-08-15T11:41:12Z</time>
      </trkpt>
      <trkpt lat="45.491" lon="6.71207">
        <ele>2351.1</ele>
        <time>2021-08-15T11:41:13Z</time>
      </trkpt>
      <trkpt lat="45.491" lon="6.71207">
        <ele>2351.1</ele>
        <time>2021-08-15T11:41:14Z</time>
      </trkpt>
      <trkpt lat="45.491" lon="6.71207">
        <ele>2351.1</ele>
        <time>2021-08-15T11:41:15Z</time>
      </trkpt>
      <trkpt lat="45.491" lon="6.71207">
        <ele>2351.1</ele>
        <time>2021-08-15T11:41:16Z</time>
      </trkpt>
      <trkpt lat="45.491" lon="6.71207">
        <ele>2351.1</ele>
        <time>2021-08-15T11:41:17Z</time>
      </trkpt>
      <trkpt lat="45.491" lon="6.71207">
        <ele>2351.1</ele>
        <time>2021-08-15T11:41:18Z</time>
      </trkpt>
      <trkpt lat="45.491" lon="6.71207">
        <ele>2351.1</ele>
        <time>2021-08-15T11:41:19Z</time>
      </trkpt>
      <trkpt lat="45.491" lon="6.71207">
        <ele>2351.1</ele>
        <time>2021-08-15T11:41:20Z</time>
      </trkpt>
      <trkpt lat="45.491" lon="6.71207">
        <ele>2351.1</ele>
        <time>2021-08-15T11:41:21Z</time>
      </trkpt>
      <trkpt lat="45.491" lon="6.71207">
        <ele>2351.1</ele>
        <time>2021-08-15T11:41:22Z</time>
      </trkpt>
      <trkpt lat="45.491" lon="6.71207">
        <ele>2351.1</ele>
        <time>2021-08-15T11:41:23Z</time>
      </trkpt>
      <trkpt lat="45.491" lon="6.71207">
        <ele>2351.1</ele>
        <time>2021-08-15T11:41:24Z</time>
      </trkpt>
      <trkpt lat="45.491" lon="6.71207">
        <ele>2351.1</ele>
        <time>2021-08-15T11:41:25Z</time>
      </trkpt>
      <trkpt lat="45.491" lon="6.71207">
        <ele>2351.1</ele>
        <time>2021-08-15T11:41:26Z</time>
      </trkpt>
      <trkpt lat="45.491" lon="6.71207">
        <ele>2351.1</ele>
        <time>2021-08-15T11:41:27Z</time>
      </trkpt>
      <trkpt lat="45.491" lon="6.71207">
        <ele>2351.1</ele>
        <time>2021-08-15T11:41:28Z</time>
      </trkpt>
      <trkpt lat="45.491" lon="6.71208">
        <ele>2351.1</ele>
        <time>2021-08-15T11:41:29Z</time>
      </trkpt>
      <trkpt lat="45.491" lon="6.71208">
        <ele>2351.1</ele>
        <time>2021-08-15T11:41:30Z</time>
      </trkpt>
      <trkpt lat="45.491" lon="6.71208">
        <ele>2351.1</ele>
        <time>2021-08-15T11:41:31Z</time>
      </trkpt>
      <trkpt lat="45.491" lon="6.71208">
        <ele>2351.1</ele>
        <time>2021-08-15T11:41:32Z</time>
      </trkpt>
      <trkpt lat="45.491" lon="6.71208">
        <ele>2351.1</ele>
        <time>2021-08-15T11:41:33Z</time>
      </trkpt>
      <trkpt lat="45.491" lon="6.71208">
        <ele>2351.1</ele>
        <time>2021-08-15T11:41:34Z</time>
      </trkpt>
      <trkpt lat="45.491" lon="6.71208">
        <ele>2351.1</ele>
        <time>2021-08-15T11:41:35Z</time>
      </trkpt>
      <trkpt lat="45.491" lon="6.71208">
        <ele>2351.1</ele>
        <time>2021-08-15T11:41:36Z</time>
      </trkpt>
      <trkpt lat="45.491" lon="6.71208">
        <ele>2351.1</ele>
        <time>2021-08-15T11:41:37Z</time>
      </trkpt>
      <trkpt lat="45.491" lon="6.71208">
        <ele>2351.1</ele>
        <time>2021-08-15T11:41:38Z</time>
      </trkpt>
      <trkpt lat="45.491" lon="6.71208">
        <ele>2351.1</ele>
        <time>2021-08-15T11:41:39Z</time>
      </trkpt>
      <trkpt lat="45.491" lon="6.71208">
        <ele>2351.1</ele>
        <time>2021-08-15T11:41:40Z</time>
      </trkpt>
      <trkpt lat="45.491" lon="6.71208">
        <ele>2351.1</ele>
        <time>2021-08-15T11:41:41Z</time>
      </trkpt>
      <trkpt lat="45.491" lon="6.71208">
        <ele>2351.1</ele>
        <time>2021-08-15T11:41:42Z</time>
      </trkpt>
      <trkpt lat="45.491" lon="6.71208">
        <ele>2351.1</ele>
        <time>2021-08-15T11:41:43Z</time>
      </trkpt>
      <trkpt lat="45.491" lon="6.71208">
        <ele>2351.1</ele>
        <time>2021-08-15T11:41:44Z</time>
      </trkpt>
      <trkpt lat="45.491" lon="6.71208">
        <ele>2351.1</ele>
        <time>2021-08-15T11:41:45Z</time>
      </trkpt>
      <trkpt lat="45.491" lon="6.71208">
        <ele>2351.1</ele>
        <time>2021-08-15T11:41:46Z</time>
      </trkpt>
      <trkpt lat="45.491" lon="6.71208">
        <ele>2351.1</ele>
        <time>2021-08-15T11:41:47Z</time>
      </trkpt>
      <trkpt lat="45.491" lon="6.71208">
        <ele>2351.1</ele>
        <time>2021-08-15T11:41:48Z</time>
      </trkpt>
      <trkpt lat="45.491" lon="6.71208">
        <ele>2351.1</ele>
        <time>2021-08-15T11:41:49Z</time>
      </trkpt>
      <trkpt lat="45.491" lon="6.71208">
        <ele>2351.1</ele>
        <time>2021-08-15T11:41:50Z</time>
      </trkpt>
      <trkpt lat="45.491" lon="6.71208">
        <ele>2351.1</ele>
        <time>2021-08-15T11:41:51Z</time>
      </trkpt>
      <trkpt lat="45.491" lon="6.71208">
        <ele>2351.1</ele>
        <time>2021-08-15T11:41:52Z</time>
      </trkpt>
      <trkpt lat="45.491" lon="6.71208">
        <ele>2351.1</ele>
        <time>2021-08-15T11:41:53Z</time>
      </trkpt>
      <trkpt lat="45.491" lon="6.71208">
        <ele>2351.1</ele>
        <time>2021-08-15T11:41:54Z</time>
      </trkpt>
      <trkpt lat="45.491" lon="6.71208">
        <ele>2351.1</ele>
        <time>2021-08-15T11:41:55Z</time>
      </trkpt>
      <trkpt lat="45.491" lon="6.71208">
        <ele>2351.1</ele>
        <time>2021-08-15T11:41:56Z</time>
      </trkpt>
      <trkpt lat="45.491" lon="6.71208">
        <ele>2351.1</ele>
        <time>2021-08-15T11:41:57Z</time>
      </trkpt>
      <trkpt lat="45.491" lon="6.71208">
        <ele>2351.1</ele>
        <time>2021-08-15T11:41:58Z</time>
      </trkpt>
      <trkpt lat="45.491" lon="6.71208">
        <ele>2351.1</ele>
        <time>2021-08-15T11:41:59Z</time>
      </trkpt>
      <trkpt lat="45.491" lon="6.71208">
        <ele>2351.1</ele>
        <time>2021-08-15T11:42:00Z</time>
      </trkpt>
      <trkpt lat="45.491" lon="6.71208">
        <ele>2351.1</ele>
        <time>2021-08-15T11:42:01Z</time>
      </trkpt>
      <trkpt lat="45.491" lon="6.71208">
        <ele>2351.1</ele>
        <time>2021-08-15T11:42:02Z</time>
      </trkpt>
      <trkpt lat="45.491" lon="6.71208">
        <ele>2351.1</ele>
        <time>2021-08-15T11:42:03Z</time>
      </trkpt>
      <trkpt lat="45.491" lon="6.71208">
        <ele>2351.1</ele>
        <time>2021-08-15T11:42:04Z</time>
      </trkpt>
      <trkpt lat="45.491" lon="6.71208">
        <ele>2351.1</ele>
        <time>2021-08-15T11:42:05Z</time>
      </trkpt>
      <trkpt lat="45.491" lon="6.71208">
        <ele>2351.1</ele>
        <time>2021-08-15T11:42:06Z</time>
      </trkpt>
      <trkpt lat="45.49101" lon="6.71208">
        <ele>2351.1</ele>
        <time>2021-08-15T11:42:07Z</time>
      </trkpt>
      <trkpt lat="45.49101" lon="6.71208">
        <ele>2351.1</ele>
        <time>2021-08-15T11:42:08Z</time>
      </trkpt>
      <trkpt lat="45.49101" lon="6.71208">
        <ele>2351.1</ele>
        <time>2021-08-15T11:42:09Z</time>
      </trkpt>
      <trkpt lat="45.49101" lon="6.71208">
        <ele>2351.1</ele>
        <time>2021-08-15T11:42:10Z</time>
      </trkpt>
      <trkpt lat="45.49101" lon="6.71208">
        <ele>2351.1</ele>
        <time>2021-08-15T11:42:11Z</time>
      </trkpt>
      <trkpt lat="45.49101" lon="6.71208">
        <ele>2351.1</ele>
        <time>2021-08-15T11:42:12Z</time>
      </trkpt>
      <trkpt lat="45.49101" lon="6.71208">
        <ele>2351.1</ele>
        <time>2021-08-15T11:42:13Z</time>
      </trkpt>
      <trkpt lat="45.49101" lon="6.71208">
        <ele>2351.1</ele>
        <time>2021-08-15T11:42:14Z</time>
      </trkpt>
      <trkpt lat="45.49101" lon="6.71208">
        <ele>2351.1</ele>
        <time>2021-08-15T11:42:15Z</time>
      </trkpt>
      <trkpt lat="45.49101" lon="6.71208">
        <ele>2351.1</ele>
        <time>2021-08-15T11:42:16Z</time>
      </trkpt>
      <trkpt lat="45.49101" lon="6.71208">
        <ele>2351.1</ele>
        <time>2021-08-15T11:42:17Z</time>
      </trkpt>
      <trkpt lat="45.49101" lon="6.71208">
        <ele>2351.1</ele>
        <time>2021-08-15T11:42:18Z</time>
      </trkpt>
      <trkpt lat="45.49101" lon="6.71208">
        <ele>2351.1</ele>
        <time>2021-08-15T11:42:19Z</time>
      </trkpt>
      <trkpt lat="45.49101" lon="6.71208">
        <ele>2351.1</ele>
        <time>2021-08-15T11:42:20Z</time>
      </trkpt>
      <trkpt lat="45.49101" lon="6.71208">
        <ele>2351.1</ele>
        <time>2021-08-15T11:42:21Z</time>
      </trkpt>
      <trkpt lat="45.49101" lon="6.71208">
        <ele>2351.1</ele>
        <time>2021-08-15T11:42:22Z</time>
      </trkpt>
      <trkpt lat="45.49101" lon="6.71208">
        <ele>2351.1</ele>
        <time>2021-08-15T11:42:23Z</time>
      </trkpt>
      <trkpt lat="45.49101" lon="6.71208">
        <ele>2351.1</ele>
        <time>2021-08-15T11:42:24Z</time>
      </trkpt>
      <trkpt lat="45.49101" lon="6.71208">
        <ele>2351.1</ele>
        <time>2021-08-15T11:42:25Z</time>
      </trkpt>
      <trkpt lat="45.49101" lon="6.71208">
        <ele>2351.1</ele>
        <time>2021-08-15T11:42:26Z</time>
      </trkpt>
      <trkpt lat="45.49101" lon="6.71208">
        <ele>2351.1</ele>
        <time>2021-08-15T11:42:27Z</time>
      </trkpt>
      <trkpt lat="45.49101" lon="6.71208">
        <ele>2351.1</ele>
        <time>2021-08-15T11:42:28Z</time>
      </trkpt>
      <trkpt lat="45.49101" lon="6.71208">
        <ele>2351.1</ele>
        <time>2021-08-15T11:42:29Z</time>
      </trkpt>
      <trkpt lat="45.49101" lon="6.71208">
        <ele>2351.1</ele>
        <time>2021-08-15T11:42:30Z</time>
      </trkpt>
      <trkpt lat="45.49101" lon="6.71208">
        <ele>2351.1</ele>
        <time>2021-08-15T11:42:31Z</time>
      </trkpt>
      <trkpt lat="45.49101" lon="6.71208">
        <ele>2351.1</ele>
        <time>2021-08-15T11:42:32Z</time>
      </trkpt>
      <trkpt lat="45.49101" lon="6.71208">
        <ele>2351.1</ele>
        <time>2021-08-15T11:42:33Z</time>
      </trkpt>
      <trkpt lat="45.49101" lon="6.71208">
        <ele>2351.1</ele>
        <time>2021-08-15T11:42:34Z</time>
      </trkpt>
      <trkpt lat="45.49101" lon="6.71208">
        <ele>2351.1</ele>
        <time>2021-08-15T11:42:35Z</time>
      </trkpt>
      <trkpt lat="45.49101" lon="6.71208">
        <ele>2351.1</ele>
        <time>2021-08-15T11:42:36Z</time>
      </trkpt>
      <trkpt lat="45.49101" lon="6.71208">
        <ele>2351.1</ele>
        <time>2021-08-15T11:42:37Z</time>
      </trkpt>
      <trkpt lat="45.49101" lon="6.71208">
        <ele>2351.1</ele>
        <time>2021-08-15T11:42:38Z</time>
      </trkpt>
      <trkpt lat="45.49101" lon="6.71208">
        <ele>2351.1</ele>
        <time>2021-08-15T11:42:39Z</time>
      </trkpt>
      <trkpt lat="45.49101" lon="6.71208">
        <ele>2351.1</ele>
        <time>2021-08-15T11:42:40Z</time>
      </trkpt>
      <trkpt lat="45.49101" lon="6.71208">
        <ele>2351.1</ele>
        <time>2021-08-15T11:42:41Z</time>
      </trkpt>
      <trkpt lat="45.49101" lon="6.71208">
        <ele>2351.1</ele>
        <time>2021-08-15T11:42:42Z</time>
      </trkpt>
      <trkpt lat="45.49101" lon="6.71208">
        <ele>2351.1</ele>
        <time>2021-08-15T11:42:43Z</time>
      </trkpt>
      <trkpt lat="45.49101" lon="6.71208">
        <ele>2351.1</ele>
        <time>2021-08-15T11:42:44Z</time>
      </trkpt>
      <trkpt lat="45.49101" lon="6.71208">
        <ele>2351.1</ele>
        <time>2021-08-15T11:42:45Z</time>
      </trkpt>
      <trkpt lat="45.49101" lon="6.71208">
        <ele>2351.1</ele>
        <time>2021-08-15T11:42:46Z</time>
      </trkpt>
      <trkpt lat="45.49101" lon="6.71208">
        <ele>2351.1</ele>
        <time>2021-08-15T11:42:47Z</time>
      </trkpt>
      <trkpt lat="45.49101" lon="6.71208">
        <ele>2351.1</ele>
        <time>2021-08-15T11:42:48Z</time>
      </trkpt>
      <trkpt lat="45.49101" lon="6.71208">
        <ele>2351.1</ele>
        <time>2021-08-15T11:42:49Z</time>
      </trkpt>
      <trkpt lat="45.49101" lon="6.71208">
        <ele>2351.1</ele>
        <time>2021-08-15T11:42:50Z</time>
      </trkpt>
      <trkpt lat="45.49101" lon="6.71208">
        <ele>2351.1</ele>
        <time>2021-08-15T11:42:51Z</time>
      </trkpt>
      <trkpt lat="45.49101" lon="6.71208">
        <ele>2351.1</ele>
        <time>2021-08-15T11:42:52Z</time>
      </trkpt>
      <trkpt lat="45.49101" lon="6.71208">
        <ele>2351.1</ele>
        <time>2021-08-15T11:42:53Z</time>
      </trkpt>
      <trkpt lat="45.49101" lon="6.71208">
        <ele>2351.1</ele>
        <time>2021-08-15T11:42:54Z</time>
      </trkpt>
      <trkpt lat="45.49101" lon="6.71208">
        <ele>2351.1</ele>
        <time>2021-08-15T11:42:55Z</time>
      </trkpt>
      <trkpt lat="45.49101" lon="6.71208">
        <ele>2351.1</ele>
        <time>2021-08-15T11:42:56Z</time>
      </trkpt>
      <trkpt lat="45.49101" lon="6.71208">
        <ele>2351.1</ele>
        <time>2021-08-15T11:42:57Z</time>
      </trkpt>
      <trkpt lat="45.49101" lon="6.71208">
        <ele>2351.1</ele>
        <time>2021-08-15T11:42:58Z</time>
      </trkpt>
      <trkpt lat="45.49101" lon="6.71208">
        <ele>2351.1</ele>
        <time>2021-08-15T11:42:59Z</time>
      </trkpt>
      <trkpt lat="45.49101" lon="6.71208">
        <ele>2351.1</ele>
        <time>2021-08-15T11:43:00Z</time>
      </trkpt>
      <trkpt lat="45.49101" lon="6.71208">
        <ele>2351.1</ele>
        <time>2021-08-15T11:43:01Z</time>
      </trkpt>
      <trkpt lat="45.49101" lon="6.71208">
        <ele>2351.1</ele>
        <time>2021-08-15T11:43:02Z</time>
      </trkpt>
      <trkpt lat="45.49101" lon="6.71208">
        <ele>2351.1</ele>
        <time>2021-08-15T11:43:03Z</time>
      </trkpt>
      <trkpt lat="45.49101" lon="6.71208">
        <ele>2351.1</ele>
        <time>2021-08-15T11:43:04Z</time>
      </trkpt>
      <trkpt lat="45.49101" lon="6.71208">
        <ele>2351.1</ele>
        <time>2021-08-15T11:43:05Z</time>
      </trkpt>
      <trkpt lat="45.49101" lon="6.71208">
        <ele>2351.1</ele>
        <time>2021-08-15T11:43:06Z</time>
      </trkpt>
      <trkpt lat="45.49101" lon="6.71208">
        <ele>2351.1</ele>
        <time>2021-08-15T11:43:07Z</time>
      </trkpt>
      <trkpt lat="45.49101" lon="6.71208">
        <ele>2351.1</ele>
        <time>2021-08-15T11:43:08Z</time>
      </trkpt>
      <trkpt lat="45.49101" lon="6.71208">
        <ele>2351.1</ele>
        <time>2021-08-15T11:43:09Z</time>
      </trkpt>
      <trkpt lat="45.49101" lon="6.71208">
        <ele>2351.1</ele>
        <time>2021-08-15T11:43:10Z</time>
      </trkpt>
      <trkpt lat="45.49101" lon="6.71208">
        <ele>2351.1</ele>
        <time>2021-08-15T11:43:11Z</time>
      </trkpt>
      <trkpt lat="45.49101" lon="6.71208">
        <ele>2351.1</ele>
        <time>2021-08-15T11:43:12Z</time>
      </trkpt>
      <trkpt lat="45.49101" lon="6.71208">
        <ele>2351.1</ele>
        <time>2021-08-15T11:43:13Z</time>
      </trkpt>
      <trkpt lat="45.49101" lon="6.71208">
        <ele>2351.1</ele>
        <time>2021-08-15T11:43:14Z</time>
      </trkpt>
      <trkpt lat="45.49101" lon="6.71208">
        <ele>2351.1</ele>
        <time>2021-08-15T11:43:15Z</time>
      </trkpt>
      <trkpt lat="45.49101" lon="6.71208">
        <ele>2351.1</ele>
        <time>2021-08-15T11:43:16Z</time>
      </trkpt>
      <trkpt lat="45.49101" lon="6.71208">
        <ele>2351.1</ele>
        <time>2021-08-15T11:43:17Z</time>
      </trkpt>
      <trkpt lat="45.49101" lon="6.71208">
        <ele>2351.1</ele>
        <time>2021-08-15T11:43:18Z</time>
      </trkpt>
      <trkpt lat="45.49101" lon="6.71208">
        <ele>2351.1</ele>
        <time>2021-08-15T11:43:19Z</time>
      </trkpt>
      <trkpt lat="45.49101" lon="6.71208">
        <ele>2351.1</ele>
        <time>2021-08-15T11:43:20Z</time>
      </trkpt>
      <trkpt lat="45.49101" lon="6.71208">
        <ele>2351.1</ele>
        <time>2021-08-15T11:43:21Z</time>
      </trkpt>
      <trkpt lat="45.49101" lon="6.71208">
        <ele>2351.1</ele>
        <time>2021-08-15T11:43:22Z</time>
      </trkpt>
      <trkpt lat="45.49101" lon="6.71208">
        <ele>2351.1</ele>
        <time>2021-08-15T11:43:23Z</time>
      </trkpt>
      <trkpt lat="45.49101" lon="6.71208">
        <ele>2351.1</ele>
        <time>2021-08-15T11:43:24Z</time>
      </trkpt>
      <trkpt lat="45.49101" lon="6.71208">
        <ele>2351.1</ele>
        <time>2021-08-15T11:43:25Z</time>
      </trkpt>
      <trkpt lat="45.49101" lon="6.71208">
        <ele>2351.1</ele>
        <time>2021-08-15T11:43:26Z</time>
      </trkpt>
      <trkpt lat="45.49101" lon="6.71208">
        <ele>2351.1</ele>
        <time>2021-08-15T11:43:27Z</time>
      </trkpt>
      <trkpt lat="45.49101" lon="6.71208">
        <ele>2351.1</ele>
        <time>2021-08-15T11:43:28Z</time>
      </trkpt>
      <trkpt lat="45.49101" lon="6.71208">
        <ele>2351.1</ele>
        <time>2021-08-15T11:43:29Z</time>
      </trkpt>
      <trkpt lat="45.49101" lon="6.71208">
        <ele>2351.1</ele>
        <time>2021-08-15T11:43:30Z</time>
      </trkpt>
      <trkpt lat="45.49101" lon="6.71208">
        <ele>2351.1</ele>
        <time>2021-08-15T11:43:31Z</time>
      </trkpt>
      <trkpt lat="45.49101" lon="6.71208">
        <ele>2351.1</ele>
        <time>2021-08-15T11:43:32Z</time>
      </trkpt>
      <trkpt lat="45.49101" lon="6.71208">
        <ele>2351.1</ele>
        <time>2021-08-15T11:43:33Z</time>
      </trkpt>
      <trkpt lat="45.49101" lon="6.71208">
        <ele>2351.1</ele>
        <time>2021-08-15T11:43:34Z</time>
      </trkpt>
      <trkpt lat="45.49101" lon="6.71208">
        <ele>2351.1</ele>
        <time>2021-08-15T11:43:35Z</time>
      </trkpt>
      <trkpt lat="45.49101" lon="6.71208">
        <ele>2351.1</ele>
        <time>2021-08-15T11:43:36Z</time>
      </trkpt>
      <trkpt lat="45.49101" lon="6.71208">
        <ele>2351.1</ele>
        <time>2021-08-15T11:43:37Z</time>
      </trkpt>
      <trkpt lat="45.49101" lon="6.71208">
        <ele>2351.1</ele>
        <time>2021-08-15T11:43:38Z</time>
      </trkpt>
      <trkpt lat="45.49101" lon="6.71208">
        <ele>2351.1</ele>
        <time>2021-08-15T11:43:39Z</time>
      </trkpt>
      <trkpt lat="45.49101" lon="6.71208">
        <ele>2351.1</ele>
        <time>2021-08-15T11:43:40Z</time>
      </trkpt>
      <trkpt lat="45.49101" lon="6.71208">
        <ele>2351.1</ele>
        <time>2021-08-15T11:43:41Z</time>
      </trkpt>
      <trkpt lat="45.49101" lon="6.71208">
        <ele>2351.1</ele>
        <time>2021-08-15T11:43:42Z</time>
      </trkpt>
      <trkpt lat="45.49101" lon="6.71208">
        <ele>2351.1</ele>
        <time>2021-08-15T11:43:43Z</time>
      </trkpt>
      <trkpt lat="45.49101" lon="6.71208">
        <ele>2351.1</ele>
        <time>2021-08-15T11:43:44Z</time>
      </trkpt>
      <trkpt lat="45.49101" lon="6.71208">
        <ele>2351.1</ele>
        <time>2021-08-15T11:43:45Z</time>
      </trkpt>
      <trkpt lat="45.49101" lon="6.71208">
        <ele>2351.1</ele>
        <time>2021-08-15T11:43:46Z</time>
      </trkpt>
      <trkpt lat="45.49101" lon="6.71208">
        <ele>2351.1</ele>
        <time>2021-08-15T11:43:47Z</time>
      </trkpt>
      <trkpt lat="45.49101" lon="6.71208">
        <ele>2351.1</ele>
        <time>2021-08-15T11:43:48Z</time>
      </trkpt>
      <trkpt lat="45.49101" lon="6.71208">
        <ele>2351.1</ele>
        <time>2021-08-15T11:43:49Z</time>
      </trkpt>
      <trkpt lat="45.49101" lon="6.71208">
        <ele>2351.1</ele>
        <time>2021-08-15T11:43:50Z</time>
      </trkpt>
      <trkpt lat="45.49101" lon="6.71208">
        <ele>2351.1</ele>
        <time>2021-08-15T11:43:51Z</time>
      </trkpt>
      <trkpt lat="45.49101" lon="6.71208">
        <ele>2351.1</ele>
        <time>2021-08-15T11:43:52Z</time>
      </trkpt>
      <trkpt lat="45.49101" lon="6.71208">
        <ele>2351.1</ele>
        <time>2021-08-15T11:43:53Z</time>
      </trkpt>
      <trkpt lat="45.49101" lon="6.71208">
        <ele>2351.1</ele>
        <time>2021-08-15T11:43:54Z</time>
      </trkpt>
      <trkpt lat="45.49101" lon="6.71208">
        <ele>2351.1</ele>
        <time>2021-08-15T11:43:55Z</time>
      </trkpt>
      <trkpt lat="45.49101" lon="6.71208">
        <ele>2351.1</ele>
        <time>2021-08-15T11:43:56Z</time>
      </trkpt>
      <trkpt lat="45.49101" lon="6.71208">
        <ele>2351.1</ele>
        <time>2021-08-15T11:43:57Z</time>
      </trkpt>
      <trkpt lat="45.49101" lon="6.71208">
        <ele>2351.1</ele>
        <time>2021-08-15T11:43:58Z</time>
      </trkpt>
      <trkpt lat="45.49101" lon="6.71208">
        <ele>2351.1</ele>
        <time>2021-08-15T11:43:59Z</time>
      </trkpt>
      <trkpt lat="45.49101" lon="6.71208">
        <ele>2351.1</ele>
        <time>2021-08-15T11:44:00Z</time>
      </trkpt>
      <trkpt lat="45.49101" lon="6.71208">
        <ele>2351.1</ele>
        <time>2021-08-15T11:44:01Z</time>
      </trkpt>
      <trkpt lat="45.49101" lon="6.71208">
        <ele>2351.1</ele>
        <time>2021-08-15T11:44:02Z</time>
      </trkpt>
      <trkpt lat="45.49101" lon="6.71208">
        <ele>2351.1</ele>
        <time>2021-08-15T11:44:03Z</time>
      </trkpt>
      <trkpt lat="45.49101" lon="6.71208">
        <ele>2351.1</ele>
        <time>2021-08-15T11:44:04Z</time>
      </trkpt>
      <trkpt lat="45.49101" lon="6.71208">
        <ele>2351.1</ele>
        <time>2021-08-15T11:44:05Z</time>
      </trkpt>
      <trkpt lat="45.49101" lon="6.71208">
        <ele>2351.1</ele>
        <time>2021-08-15T11:44:06Z</time>
      </trkpt>
      <trkpt lat="45.49101" lon="6.71208">
        <ele>2351.1</ele>
        <time>2021-08-15T11:44:07Z</time>
      </trkpt>
      <trkpt lat="45.49101" lon="6.71208">
        <ele>2351.1</ele>
        <time>2021-08-15T11:44:08Z</time>
      </trkpt>
      <trkpt lat="45.49101" lon="6.71208">
        <ele>2351.1</ele>
        <time>2021-08-15T11:44:09Z</time>
      </trkpt>
      <trkpt lat="45.49101" lon="6.71208">
        <ele>2351.1</ele>
        <time>2021-08-15T11:44:10Z</time>
      </trkpt>
      <trkpt lat="45.49101" lon="6.71208">
        <ele>2351.1</ele>
        <time>2021-08-15T11:44:11Z</time>
      </trkpt>
      <trkpt lat="45.49101" lon="6.71208">
        <ele>2351.1</ele>
        <time>2021-08-15T11:44:12Z</time>
      </trkpt>
      <trkpt lat="45.49101" lon="6.71208">
        <ele>2351.1</ele>
        <time>2021-08-15T11:44:13Z</time>
      </trkpt>
      <trkpt lat="45.49101" lon="6.71208">
        <ele>2351.1</ele>
        <time>2021-08-15T11:44:14Z</time>
      </trkpt>
      <trkpt lat="45.49101" lon="6.71208">
        <ele>2351.1</ele>
        <time>2021-08-15T11:44:15Z</time>
      </trkpt>
      <trkpt lat="45.49101" lon="6.71208">
        <ele>2351.1</ele>
        <time>2021-08-15T11:44:16Z</time>
      </trkpt>
      <trkpt lat="45.49101" lon="6.71208">
        <ele>2351.1</ele>
        <time>2021-08-15T11:44:17Z</time>
      </trkpt>
      <trkpt lat="45.49101" lon="6.71208">
        <ele>2351.1</ele>
        <time>2021-08-15T11:44:18Z</time>
      </trkpt>
      <trkpt lat="45.49101" lon="6.71208">
        <ele>2351.1</ele>
        <time>2021-08-15T11:44:19Z</time>
      </trkpt>
      <trkpt lat="45.49101" lon="6.71208">
        <ele>2351.1</ele>
        <time>2021-08-15T11:44:20Z</time>
      </trkpt>
      <trkpt lat="45.49101" lon="6.71208">
        <ele>2351.1</ele>
        <time>2021-08-15T11:44:21Z</time>
      </trkpt>
      <trkpt lat="45.49101" lon="6.71208">
        <ele>2351.1</ele>
        <time>2021-08-15T11:44:22Z</time>
      </trkpt>
      <trkpt lat="45.49101" lon="6.71208">
        <ele>2351.1</ele>
        <time>2021-08-15T11:44:23Z</time>
      </trkpt>
      <trkpt lat="45.49101" lon="6.71208">
        <ele>2351.1</ele>
        <time>2021-08-15T11:44:24Z</time>
      </trkpt>
      <trkpt lat="45.49101" lon="6.71208">
        <ele>2351.1</ele>
        <time>2021-08-15T11:44:25Z</time>
      </trkpt>
      <trkpt lat="45.49101" lon="6.71208">
        <ele>2351.1</ele>
        <time>2021-08-15T11:44:26Z</time>
      </trkpt>
      <trkpt lat="45.49101" lon="6.71208">
        <ele>2351.1</ele>
        <time>2021-08-15T11:44:27Z</time>
      </trkpt>
      <trkpt lat="45.49101" lon="6.71208">
        <ele>2351.1</ele>
        <time>2021-08-15T11:44:28Z</time>
      </trkpt>
      <trkpt lat="45.49101" lon="6.71208">
        <ele>2351.1</ele>
        <time>2021-08-15T11:44:29Z</time>
      </trkpt>
      <trkpt lat="45.49101" lon="6.71208">
        <ele>2351.1</ele>
        <time>2021-08-15T11:44:30Z</time>
      </trkpt>
      <trkpt lat="45.49101" lon="6.71208">
        <ele>2351.1</ele>
        <time>2021-08-15T11:44:31Z</time>
      </trkpt>
      <trkpt lat="45.49101" lon="6.71208">
        <ele>2351.1</ele>
        <time>2021-08-15T11:44:32Z</time>
      </trkpt>
      <trkpt lat="45.49101" lon="6.71208">
        <ele>2351.1</ele>
        <time>2021-08-15T11:44:33Z</time>
      </trkpt>
      <trkpt lat="45.49101" lon="6.71208">
        <ele>2351.1</ele>
        <time>2021-08-15T11:44:34Z</time>
      </trkpt>
      <trkpt lat="45.49101" lon="6.71208">
        <ele>2351.1</ele>
        <time>2021-08-15T11:44:35Z</time>
      </trkpt>
      <trkpt lat="45.49101" lon="6.71208">
        <ele>2351.1</ele>
        <time>2021-08-15T11:44:36Z</time>
      </trkpt>
      <trkpt lat="45.49101" lon="6.71208">
        <ele>2351.1</ele>
        <time>2021-08-15T11:44:37Z</time>
      </trkpt>
      <trkpt lat="45.49101" lon="6.71208">
        <ele>2351.1</ele>
        <time>2021-08-15T11:44:38Z</time>
      </trkpt>
      <trkpt lat="45.49101" lon="6.71208">
        <ele>2351.1</ele>
        <time>2021-08-15T11:44:39Z</time>
      </trkpt>
      <trkpt lat="45.49101" lon="6.71208">
        <ele>2351.1</ele>
        <time>2021-08-15T11:44:40Z</time>
      </trkpt>
      <trkpt lat="45.49101" lon="6.71208">
        <ele>2351.1</ele>
        <time>2021-08-15T11:44:41Z</time>
      </trkpt>
      <trkpt lat="45.49101" lon="6.71208">
        <ele>2351.1</ele>
        <time>2021-08-15T11:44:42Z</time>
      </trkpt>
      <trkpt lat="45.49101" lon="6.71208">
        <ele>2351.1</ele>
        <time>2021-08-15T11:44:43Z</time>
      </trkpt>
      <trkpt lat="45.49101" lon="6.71208">
        <ele>2351.1</ele>
        <time>2021-08-15T11:44:44Z</time>
      </trkpt>
      <trkpt lat="45.49101" lon="6.71208">
        <ele>2351.1</ele>
        <time>2021-08-15T11:44:45Z</time>
      </trkpt>
      <trkpt lat="45.49101" lon="6.71208">
        <ele>2351.1</ele>
        <time>2021-08-15T11:44:46Z</time>
      </trkpt>
      <trkpt lat="45.49101" lon="6.71208">
        <ele>2351.1</ele>
        <time>2021-08-15T11:44:47Z</time>
      </trkpt>
      <trkpt lat="45.49101" lon="6.71208">
        <ele>2351.1</ele>
        <time>2021-08-15T11:44:48Z</time>
      </trkpt>
      <trkpt lat="45.49101" lon="6.71208">
        <ele>2351.1</ele>
        <time>2021-08-15T11:44:49Z</time>
      </trkpt>
      <trkpt lat="45.49101" lon="6.71208">
        <ele>2351.1</ele>
        <time>2021-08-15T11:44:50Z</time>
      </trkpt>
      <trkpt lat="45.49101" lon="6.71208">
        <ele>2351.1</ele>
        <time>2021-08-15T11:44:51Z</time>
      </trkpt>
      <trkpt lat="45.49101" lon="6.71208">
        <ele>2351.1</ele>
        <time>2021-08-15T11:44:52Z</time>
      </trkpt>
      <trkpt lat="45.49101" lon="6.71208">
        <ele>2351.1</ele>
        <time>2021-08-15T11:44:53Z</time>
      </trkpt>
      <trkpt lat="45.49101" lon="6.71208">
        <ele>2351.1</ele>
        <time>2021-08-15T11:44:54Z</time>
      </trkpt>
      <trkpt lat="45.49101" lon="6.71208">
        <ele>2351.1</ele>
        <time>2021-08-15T11:44:55Z</time>
      </trkpt>
      <trkpt lat="45.49101" lon="6.71208">
        <ele>2351.1</ele>
        <time>2021-08-15T11:44:56Z</time>
      </trkpt>
      <trkpt lat="45.49101" lon="6.71208">
        <ele>2351.1</ele>
        <time>2021-08-15T11:44:57Z</time>
      </trkpt>
      <trkpt lat="45.49101" lon="6.71208">
        <ele>2351.1</ele>
        <time>2021-08-15T11:44:58Z</time>
      </trkpt>
      <trkpt lat="45.49101" lon="6.71208">
        <ele>2351.1</ele>
        <time>2021-08-15T11:44:59Z</time>
      </trkpt>
      <trkpt lat="45.49101" lon="6.71208">
        <ele>2351.1</ele>
        <time>2021-08-15T11:45:00Z</time>
      </trkpt>
      <trkpt lat="45.49101" lon="6.71208">
        <ele>2351.1</ele>
        <time>2021-08-15T11:45:01Z</time>
      </trkpt>
      <trkpt lat="45.49101" lon="6.71208">
        <ele>2351.1</ele>
        <time>2021-08-15T11:45:02Z</time>
      </trkpt>
      <trkpt lat="45.49101" lon="6.71208">
        <ele>2351.1</ele>
        <time>2021-08-15T11:45:03Z</time>
      </trkpt>
      <trkpt lat="45.49101" lon="6.71208">
        <ele>2351.1</ele>
        <time>2021-08-15T11:45:04Z</time>
      </trkpt>
      <trkpt lat="45.49101" lon="6.71208">
        <ele>2351.1</ele>
        <time>2021-08-15T11:45:05Z</time>
      </trkpt>
      <trkpt lat="45.49101" lon="6.71208">
        <ele>2351.1</ele>
        <time>2021-08-15T11:45:06Z</time>
      </trkpt>
      <trkpt lat="45.49101" lon="6.71208">
        <ele>2351.1</ele>
        <time>2021-08-15T11:45:07Z</time>
      </trkpt>
      <trkpt lat="45.49101" lon="6.71208">
        <ele>2351.1</ele>
        <time>2021-08-15T11:45:08Z</time>
      </trkpt>
      <trkpt lat="45.49101" lon="6.71208">
        <ele>2351.1</ele>
        <time>2021-08-15T11:45:09Z</time>
      </trkpt>
      <trkpt lat="45.49101" lon="6.71208">
        <ele>2351.1</ele>
        <time>2021-08-15T11:45:10Z</time>
      </trkpt>
      <trkpt lat="45.49101" lon="6.71208">
        <ele>2351.1</ele>
        <time>2021-08-15T11:45:11Z</time>
      </trkpt>
      <trkpt lat="45.49101" lon="6.71208">
        <ele>2351.1</ele>
        <time>2021-08-15T11:45:12Z</time>
      </trkpt>
      <trkpt lat="45.49101" lon="6.71208">
        <ele>2351.1</ele>
        <time>2021-08-15T11:45:13Z</time>
      </trkpt>
      <trkpt lat="45.49101" lon="6.71208">
        <ele>2351.1</ele>
        <time>2021-08-15T11:45:14Z</time>
      </trkpt>
      <trkpt lat="45.49101" lon="6.71208">
        <ele>2351.1</ele>
        <time>2021-08-15T11:45:15Z</time>
      </trkpt>
      <trkpt lat="45.49101" lon="6.71208">
        <ele>2351.1</ele>
        <time>2021-08-15T11:45:16Z</time>
      </trkpt>
      <trkpt lat="45.49101" lon="6.71208">
        <ele>2351.1</ele>
        <time>2021-08-15T11:45:17Z</time>
      </trkpt>
      <trkpt lat="45.49101" lon="6.71208">
        <ele>2351.1</ele>
        <time>2021-08-15T11:45:18Z</time>
      </trkpt>
      <trkpt lat="45.49101" lon="6.71208">
        <ele>2351.1</ele>
        <time>2021-08-15T11:45:19Z</time>
      </trkpt>
      <trkpt lat="45.49101" lon="6.71208">
        <ele>2351.1</ele>
        <time>2021-08-15T11:45:20Z</time>
      </trkpt>
      <trkpt lat="45.49101" lon="6.71208">
        <ele>2351.1</ele>
        <time>2021-08-15T11:45:21Z</time>
      </trkpt>
      <trkpt lat="45.49101" lon="6.71208">
        <ele>2351.1</ele>
        <time>2021-08-15T11:45:22Z</time>
      </trkpt>
      <trkpt lat="45.49101" lon="6.71208">
        <ele>2351.1</ele>
        <time>2021-08-15T11:45:23Z</time>
      </trkpt>
      <trkpt lat="45.49101" lon="6.71208">
        <ele>2351.1</ele>
        <time>2021-08-15T11:45:24Z</time>
      </trkpt>
      <trkpt lat="45.49101" lon="6.71208">
        <ele>2351.1</ele>
        <time>2021-08-15T11:45:25Z</time>
      </trkpt>
      <trkpt lat="45.49101" lon="6.71208">
        <ele>2351.1</ele>
        <time>2021-08-15T11:45:26Z</time>
      </trkpt>
      <trkpt lat="45.49101" lon="6.71208">
        <ele>2351.1</ele>
        <time>2021-08-15T11:45:27Z</time>
      </trkpt>
      <trkpt lat="45.49101" lon="6.71208">
        <ele>2351.1</ele>
        <time>2021-08-15T11:45:28Z</time>
      </trkpt>
      <trkpt lat="45.49101" lon="6.71208">
        <ele>2351.1</ele>
        <time>2021-08-15T11:45:29Z</time>
      </trkpt>
      <trkpt lat="45.49101" lon="6.71208">
        <ele>2351.1</ele>
        <time>2021-08-15T11:45:30Z</time>
      </trkpt>
      <trkpt lat="45.49101" lon="6.71208">
        <ele>2351.1</ele>
        <time>2021-08-15T11:45:31Z</time>
      </trkpt>
      <trkpt lat="45.49101" lon="6.71208">
        <ele>2351.1</ele>
        <time>2021-08-15T11:45:32Z</time>
      </trkpt>
      <trkpt lat="45.49101" lon="6.71208">
        <ele>2351.1</ele>
        <time>2021-08-15T11:45:33Z</time>
      </trkpt>
      <trkpt lat="45.49101" lon="6.71208">
        <ele>2351.1</ele>
        <time>2021-08-15T11:45:34Z</time>
      </trkpt>
      <trkpt lat="45.49101" lon="6.71208">
        <ele>2351.1</ele>
        <time>2021-08-15T11:45:35Z</time>
      </trkpt>
      <trkpt lat="45.49101" lon="6.71208">
        <ele>2351.1</ele>
        <time>2021-08-15T11:45:36Z</time>
      </trkpt>
      <trkpt lat="45.49101" lon="6.71208">
        <ele>2351.1</ele>
        <time>2021-08-15T11:45:37Z</time>
      </trkpt>
      <trkpt lat="45.49101" lon="6.71208">
        <ele>2351.1</ele>
        <time>2021-08-15T11:45:38Z</time>
      </trkpt>
      <trkpt lat="45.49101" lon="6.71208">
        <ele>2351.1</ele>
        <time>2021-08-15T11:45:39Z</time>
      </trkpt>
      <trkpt lat="45.49101" lon="6.71208">
        <ele>2351.1</ele>
        <time>2021-08-15T11:45:40Z</time>
      </trkpt>
      <trkpt lat="45.49101" lon="6.71208">
        <ele>2351.1</ele>
        <time>2021-08-15T11:45:41Z</time>
      </trkpt>
      <trkpt lat="45.49101" lon="6.71208">
        <ele>2351.1</ele>
        <time>2021-08-15T11:45:42Z</time>
      </trkpt>
      <trkpt lat="45.49101" lon="6.71208">
        <ele>2351.1</ele>
        <time>2021-08-15T11:45:43Z</time>
      </trkpt>
      <trkpt lat="45.49101" lon="6.71208">
        <ele>2351.1</ele>
        <time>2021-08-15T11:45:44Z</time>
      </trkpt>
      <trkpt lat="45.49101" lon="6.71208">
        <ele>2351.1</ele>
        <time>2021-08-15T11:45:45Z</time>
      </trkpt>
      <trkpt lat="45.49101" lon="6.71208">
        <ele>2351.1</ele>
        <time>2021-08-15T11:45:46Z</time>
      </trkpt>
      <trkpt lat="45.49101" lon="6.71208">
        <ele>2351.1</ele>
        <time>2021-08-15T11:45:47Z</time>
      </trkpt>
      <trkpt lat="45.49101" lon="6.71208">
        <ele>2351.1</ele>
        <time>2021-08-15T11:45:48Z</time>
      </trkpt>
      <trkpt lat="45.49101" lon="6.71208">
        <ele>2351.1</ele>
        <time>2021-08-15T11:45:49Z</time>
      </trkpt>
      <trkpt lat="45.49101" lon="6.71208">
        <ele>2351.1</ele>
        <time>2021-08-15T11:45:50Z</time>
      </trkpt>
      <trkpt lat="45.49101" lon="6.71208">
        <ele>2351.1</ele>
        <time>2021-08-15T11:45:51Z</time>
      </trkpt>
      <trkpt lat="45.49101" lon="6.71208">
        <ele>2351.1</ele>
        <time>2021-08-15T11:45:52Z</time>
      </trkpt>
      <trkpt lat="45.49101" lon="6.71208">
        <ele>2351.1</ele>
        <time>2021-08-15T11:45:53Z</time>
      </trkpt>
      <trkpt lat="45.49101" lon="6.71208">
        <ele>2351.1</ele>
        <time>2021-08-15T11:45:54Z</time>
      </trkpt>
      <trkpt lat="45.49101" lon="6.71208">
        <ele>2351.1</ele>
        <time>2021-08-15T11:45:55Z</time>
      </trkpt>
      <trkpt lat="45.49101" lon="6.71208">
        <ele>2351.1</ele>
        <time>2021-08-15T11:45:56Z</time>
      </trkpt>
      <trkpt lat="45.49101" lon="6.71208">
        <ele>2351.1</ele>
        <time>2021-08-15T11:45:57Z</time>
      </trkpt>
      <trkpt lat="45.49101" lon="6.71208">
        <ele>2351.1</ele>
        <time>2021-08-15T11:45:58Z</time>
      </trkpt>
      <trkpt lat="45.49101" lon="6.71208">
        <ele>2351.1</ele>
        <time>2021-08-15T11:45:59Z</time>
      </trkpt>
      <trkpt lat="45.49101" lon="6.71208">
        <ele>2351.1</ele>
        <time>2021-08-15T11:46:00Z</time>
      </trkpt>
      <trkpt lat="45.49101" lon="6.71208">
        <ele>2351.1</ele>
        <time>2021-08-15T11:46:01Z</time>
      </trkpt>
      <trkpt lat="45.49101" lon="6.71208">
        <ele>2351.1</ele>
        <time>2021-08-15T11:46:02Z</time>
      </trkpt>
      <trkpt lat="45.49101" lon="6.71208">
        <ele>2351.1</ele>
        <time>2021-08-15T11:46:03Z</time>
      </trkpt>
      <trkpt lat="45.49101" lon="6.71208">
        <ele>2351.1</ele>
        <time>2021-08-15T11:46:04Z</time>
      </trkpt>
      <trkpt lat="45.49101" lon="6.71208">
        <ele>2351.1</ele>
        <time>2021-08-15T11:46:05Z</time>
      </trkpt>
      <trkpt lat="45.49101" lon="6.71208">
        <ele>2351.1</ele>
        <time>2021-08-15T11:46:06Z</time>
      </trkpt>
      <trkpt lat="45.49101" lon="6.71208">
        <ele>2351.1</ele>
        <time>2021-08-15T11:46:07Z</time>
      </trkpt>
      <trkpt lat="45.49101" lon="6.71208">
        <ele>2351.1</ele>
        <time>2021-08-15T11:46:08Z</time>
      </trkpt>
      <trkpt lat="45.49101" lon="6.71208">
        <ele>2351.1</ele>
        <time>2021-08-15T11:46:09Z</time>
      </trkpt>
      <trkpt lat="45.49101" lon="6.71208">
        <ele>2351.1</ele>
        <time>2021-08-15T11:46:10Z</time>
      </trkpt>
      <trkpt lat="45.49101" lon="6.71208">
        <ele>2351.1</ele>
        <time>2021-08-15T11:46:11Z</time>
      </trkpt>
      <trkpt lat="45.49101" lon="6.71208">
        <ele>2351.1</ele>
        <time>2021-08-15T11:46:12Z</time>
      </trkpt>
      <trkpt lat="45.49101" lon="6.71208">
        <ele>2351.1</ele>
        <time>2021-08-15T11:46:13Z</time>
      </trkpt>
      <trkpt lat="45.49101" lon="6.71208">
        <ele>2351.1</ele>
        <time>2021-08-15T11:46:14Z</time>
      </trkpt>
      <trkpt lat="45.49101" lon="6.71208">
        <ele>2351.1</ele>
        <time>2021-08-15T11:46:15Z</time>
      </trkpt>
      <trkpt lat="45.49101" lon="6.71208">
        <ele>2351.1</ele>
        <time>2021-08-15T11:46:16Z</time>
      </trkpt>
      <trkpt lat="45.49101" lon="6.71208">
        <ele>2351.1</ele>
        <time>2021-08-15T11:46:17Z</time>
      </trkpt>
      <trkpt lat="45.49101" lon="6.71208">
        <ele>2351.1</ele>
        <time>2021-08-15T11:46:18Z</time>
      </trkpt>
      <trkpt lat="45.49101" lon="6.71208">
        <ele>2351.1</ele>
        <time>2021-08-15T11:46:19Z</time>
      </trkpt>
      <trkpt lat="45.49101" lon="6.71208">
        <ele>2351.1</ele>
        <time>2021-08-15T11:46:20Z</time>
      </trkpt>
      <trkpt lat="45.49101" lon="6.71208">
        <ele>2351.1</ele>
        <time>2021-08-15T11:46:21Z</time>
      </trkpt>
      <trkpt lat="45.49101" lon="6.71208">
        <ele>2351.1</ele>
        <time>2021-08-15T11:46:22Z</time>
      </trkpt>
      <trkpt lat="45.49101" lon="6.71208">
        <ele>2351.1</ele>
        <time>2021-08-15T11:46:23Z</time>
      </trkpt>
      <trkpt lat="45.49101" lon="6.71208">
        <ele>2351.1</ele>
        <time>2021-08-15T11:46:24Z</time>
      </trkpt>
      <trkpt lat="45.49101" lon="6.71208">
        <ele>2351.1</ele>
        <time>2021-08-15T11:46:25Z</time>
      </trkpt>
      <trkpt lat="45.49101" lon="6.71208">
        <ele>2351.1</ele>
        <time>2021-08-15T11:46:26Z</time>
      </trkpt>
      <trkpt lat="45.49101" lon="6.71208">
        <ele>2351.1</ele>
        <time>2021-08-15T11:46:27Z</time>
      </trkpt>
      <trkpt lat="45.49101" lon="6.71208">
        <ele>2351.1</ele>
        <time>2021-08-15T11:46:28Z</time>
      </trkpt>
      <trkpt lat="45.49101" lon="6.71208">
        <ele>2351.1</ele>
        <time>2021-08-15T11:46:29Z</time>
      </trkpt>
      <trkpt lat="45.49101" lon="6.71208">
        <ele>2351.1</ele>
        <time>2021-08-15T11:46:30Z</time>
      </trkpt>
      <trkpt lat="45.49101" lon="6.71208">
        <ele>2351.1</ele>
        <time>2021-08-15T11:46:31Z</time>
      </trkpt>
      <trkpt lat="45.49101" lon="6.71208">
        <ele>2351.1</ele>
        <time>2021-08-15T11:46:32Z</time>
      </trkpt>
      <trkpt lat="45.49101" lon="6.71208">
        <ele>2351.1</ele>
        <time>2021-08-15T11:46:33Z</time>
      </trkpt>
      <trkpt lat="45.49101" lon="6.71208">
        <ele>2351.1</ele>
        <time>2021-08-15T11:46:34Z</time>
      </trkpt>
      <trkpt lat="45.49101" lon="6.71208">
        <ele>2351.1</ele>
        <time>2021-08-15T11:46:35Z</time>
      </trkpt>
      <trkpt lat="45.49101" lon="6.71208">
        <ele>2351.1</ele>
        <time>2021-08-15T11:46:36Z</time>
      </trkpt>
      <trkpt lat="45.49101" lon="6.71208">
        <ele>2351.1</ele>
        <time>2021-08-15T11:46:37Z</time>
      </trkpt>
      <trkpt lat="45.49101" lon="6.71208">
        <ele>2351.1</ele>
        <time>2021-08-15T11:46:38Z</time>
      </trkpt>
      <trkpt lat="45.49101" lon="6.71208">
        <ele>2351.1</ele>
        <time>2021-08-15T11:46:39Z</time>
      </trkpt>
      <trkpt lat="45.49101" lon="6.71208">
        <ele>2351.1</ele>
        <time>2021-08-15T11:46:40Z</time>
      </trkpt>
      <trkpt lat="45.49101" lon="6.71208">
        <ele>2351.1</ele>
        <time>2021-08-15T11:46:41Z</time>
      </trkpt>
      <trkpt lat="45.49101" lon="6.71208">
        <ele>2351.1</ele>
        <time>2021-08-15T11:46:42Z</time>
      </trkpt>
      <trkpt lat="45.49101" lon="6.71208">
        <ele>2351.1</ele>
        <time>2021-08-15T11:46:43Z</time>
      </trkpt>
      <trkpt lat="45.49101" lon="6.71208">
        <ele>2351.1</ele>
        <time>2021-08-15T11:46:44Z</time>
      </trkpt>
      <trkpt lat="45.49101" lon="6.71208">
        <ele>2351.1</ele>
        <time>2021-08-15T11:46:45Z</time>
      </trkpt>
      <trkpt lat="45.49101" lon="6.71208">
        <ele>2351.1</ele>
        <time>2021-08-15T11:46:46Z</time>
      </trkpt>
      <trkpt lat="45.49101" lon="6.71208">
        <ele>2351.1</ele>
        <time>2021-08-15T11:46:47Z</time>
      </trkpt>
      <trkpt lat="45.49101" lon="6.71208">
        <ele>2351.1</ele>
        <time>2021-08-15T11:46:48Z</time>
      </trkpt>
      <trkpt lat="45.49101" lon="6.71208">
        <ele>2351.1</ele>
        <time>2021-08-15T11:46:49Z</time>
      </trkpt>
      <trkpt lat="45.49101" lon="6.71208">
        <ele>2351.1</ele>
        <time>2021-08-15T11:46:50Z</time>
      </trkpt>
      <trkpt lat="45.49101" lon="6.71208">
        <ele>2351.1</ele>
        <time>2021-08-15T11:46:51Z</time>
      </trkpt>
      <trkpt lat="45.49101" lon="6.71208">
        <ele>2351.1</ele>
        <time>2021-08-15T11:46:52Z</time>
      </trkpt>
      <trkpt lat="45.49101" lon="6.71208">
        <ele>2351.1</ele>
        <time>2021-08-15T11:46:53Z</time>
      </trkpt>
      <trkpt lat="45.49101" lon="6.71208">
        <ele>2351.1</ele>
        <time>2021-08-15T11:46:54Z</time>
      </trkpt>
      <trkpt lat="45.49101" lon="6.71208">
        <ele>2351.1</ele>
        <time>2021-08-15T11:46:55Z</time>
      </trkpt>
      <trkpt lat="45.49101" lon="6.71208">
        <ele>2351.1</ele>
        <time>2021-08-15T11:46:56Z</time>
      </trkpt>
      <trkpt lat="45.49101" lon="6.71208">
        <ele>2351.1</ele>
        <time>2021-08-15T11:46:57Z</time>
      </trkpt>
      <trkpt lat="45.49101" lon="6.71208">
        <ele>2351.1</ele>
        <time>2021-08-15T11:46:58Z</time>
      </trkpt>
      <trkpt lat="45.49101" lon="6.71208">
        <ele>2351.1</ele>
        <time>2021-08-15T11:46:59Z</time>
      </trkpt>
      <trkpt lat="45.49101" lon="6.71208">
        <ele>2351.1</ele>
        <time>2021-08-15T11:47:00Z</time>
      </trkpt>
      <trkpt lat="45.49101" lon="6.71208">
        <ele>2351.1</ele>
        <time>2021-08-15T11:47:01Z</time>
      </trkpt>
      <trkpt lat="45.49101" lon="6.71208">
        <ele>2351.1</ele>
        <time>2021-08-15T11:47:02Z</time>
      </trkpt>
      <trkpt lat="45.49101" lon="6.71208">
        <ele>2351.1</ele>
        <time>2021-08-15T11:47:03Z</time>
      </trkpt>
      <trkpt lat="45.49101" lon="6.71208">
        <ele>2351.1</ele>
        <time>2021-08-15T11:47:04Z</time>
      </trkpt>
      <trkpt lat="45.49101" lon="6.71208">
        <ele>2351.1</ele>
        <time>2021-08-15T11:47:05Z</time>
      </trkpt>
      <trkpt lat="45.49101" lon="6.71208">
        <ele>2351.1</ele>
        <time>2021-08-15T11:47:06Z</time>
      </trkpt>
      <trkpt lat="45.49101" lon="6.71208">
        <ele>2351.1</ele>
        <time>2021-08-15T11:47:07Z</time>
      </trkpt>
      <trkpt lat="45.49101" lon="6.71208">
        <ele>2351.1</ele>
        <time>2021-08-15T11:47:08Z</time>
      </trkpt>
      <trkpt lat="45.49101" lon="6.71208">
        <ele>2351.1</ele>
        <time>2021-08-15T11:47:09Z</time>
      </trkpt>
      <trkpt lat="45.49101" lon="6.71208">
        <ele>2351.1</ele>
        <time>2021-08-15T11:47:10Z</time>
      </trkpt>
      <trkpt lat="45.49101" lon="6.71208">
        <ele>2351.1</ele>
        <time>2021-08-15T11:47:11Z</time>
      </trkpt>
      <trkpt lat="45.49101" lon="6.71208">
        <ele>2351.1</ele>
        <time>2021-08-15T11:47:12Z</time>
      </trkpt>
      <trkpt lat="45.49101" lon="6.71208">
        <ele>2351.1</ele>
        <time>2021-08-15T11:47:13Z</time>
      </trkpt>
      <trkpt lat="45.49101" lon="6.71208">
        <ele>2351.1</ele>
        <time>2021-08-15T11:47:14Z</time>
      </trkpt>
      <trkpt lat="45.49101" lon="6.71208">
        <ele>2351.1</ele>
        <time>2021-08-15T11:47:15Z</time>
      </trkpt>
      <trkpt lat="45.49101" lon="6.71208">
        <ele>2351.1</ele>
        <time>2021-08-15T11:47:16Z</time>
      </trkpt>
      <trkpt lat="45.49101" lon="6.71208">
        <ele>2351.1</ele>
        <time>2021-08-15T11:47:17Z</time>
      </trkpt>
      <trkpt lat="45.49101" lon="6.71208">
        <ele>2351.1</ele>
        <time>2021-08-15T11:47:18Z</time>
      </trkpt>
      <trkpt lat="45.49101" lon="6.71208">
        <ele>2351.1</ele>
        <time>2021-08-15T11:47:19Z</time>
      </trkpt>
      <trkpt lat="45.49101" lon="6.71208">
        <ele>2351.1</ele>
        <time>2021-08-15T11:47:20Z</time>
      </trkpt>
      <trkpt lat="45.49101" lon="6.71208">
        <ele>2351.1</ele>
        <time>2021-08-15T11:47:21Z</time>
      </trkpt>
      <trkpt lat="45.49101" lon="6.71208">
        <ele>2351.1</ele>
        <time>2021-08-15T11:47:22Z</time>
      </trkpt>
      <trkpt lat="45.49101" lon="6.71208">
        <ele>2351.1</ele>
        <time>2021-08-15T11:47:23Z</time>
      </trkpt>
      <trkpt lat="45.49101" lon="6.71208">
        <ele>2351.1</ele>
        <time>2021-08-15T11:47:24Z</time>
      </trkpt>
      <trkpt lat="45.49101" lon="6.71208">
        <ele>2351.1</ele>
        <time>2021-08-15T11:47:25Z</time>
      </trkpt>
      <trkpt lat="45.49101" lon="6.71208">
        <ele>2351.1</ele>
        <time>2021-08-15T11:47:26Z</time>
      </trkpt>
      <trkpt lat="45.49101" lon="6.71208">
        <ele>2351.1</ele>
        <time>2021-08-15T11:47:27Z</time>
      </trkpt>
      <trkpt lat="45.49101" lon="6.71208">
        <ele>2351.1</ele>
        <time>2021-08-15T11:47:28Z</time>
      </trkpt>
      <trkpt lat="45.49101" lon="6.71208">
        <ele>2351.1</ele>
        <time>2021-08-15T11:47:29Z</time>
      </trkpt>
      <trkpt lat="45.49101" lon="6.71208">
        <ele>2351.1</ele>
        <time>2021-08-15T11:47:30Z</time>
      </trkpt>
      <trkpt lat="45.49101" lon="6.71208">
        <ele>2351.1</ele>
        <time>2021-08-15T11:47:31Z</time>
      </trkpt>
      <trkpt lat="45.49101" lon="6.71208">
        <ele>2351.1</ele>
        <time>2021-08-15T11:47:32Z</time>
      </trkpt>
      <trkpt lat="45.49101" lon="6.71208">
        <ele>2351.1</ele>
        <time>2021-08-15T11:47:33Z</time>
      </trkpt>
      <trkpt lat="45.49101" lon="6.71208">
        <ele>2351.1</ele>
        <time>2021-08-15T11:47:34Z</time>
      </trkpt>
      <trkpt lat="45.49101" lon="6.71208">
        <ele>2351.1</ele>
        <time>2021-08-15T11:47:35Z</time>
      </trkpt>
      <trkpt lat="45.49101" lon="6.71208">
        <ele>2351.1</ele>
        <time>2021-08-15T11:47:36Z</time>
      </trkpt>
      <trkpt lat="45.49101" lon="6.71208">
        <ele>2351.1</ele>
        <time>2021-08-15T11:47:37Z</time>
      </trkpt>
      <trkpt lat="45.49101" lon="6.71208">
        <ele>2351.1</ele>
        <time>2021-08-15T11:47:38Z</time>
      </trkpt>
      <trkpt lat="45.49101" lon="6.71208">
        <ele>2351.1</ele>
        <time>2021-08-15T11:47:39Z</time>
      </trkpt>
      <trkpt lat="45.49101" lon="6.71208">
        <ele>2351.1</ele>
        <time>2021-08-15T11:47:40Z</time>
      </trkpt>
      <trkpt lat="45.49101" lon="6.71208">
        <ele>2351.1</ele>
        <time>2021-08-15T11:47:41Z</time>
      </trkpt>
      <trkpt lat="45.49101" lon="6.71208">
        <ele>2351.1</ele>
        <time>2021-08-15T11:47:42Z</time>
      </trkpt>
      <trkpt lat="45.49101" lon="6.71208">
        <ele>2351.1</ele>
        <time>2021-08-15T11:47:43Z</time>
      </trkpt>
      <trkpt lat="45.49101" lon="6.71208">
        <ele>2351.1</ele>
        <time>2021-08-15T11:47:44Z</time>
      </trkpt>
      <trkpt lat="45.49101" lon="6.71208">
        <ele>2351.1</ele>
        <time>2021-08-15T11:47:45Z</time>
      </trkpt>
      <trkpt lat="45.49101" lon="6.71208">
        <ele>2351.1</ele>
        <time>2021-08-15T11:47:46Z</time>
      </trkpt>
      <trkpt lat="45.49101" lon="6.71208">
        <ele>2351.1</ele>
        <time>2021-08-15T11:47:47Z</time>
      </trkpt>
      <trkpt lat="45.49101" lon="6.71208">
        <ele>2351.1</ele>
        <time>2021-08-15T11:47:48Z</time>
      </trkpt>
      <trkpt lat="45.49101" lon="6.71208">
        <ele>2351.1</ele>
        <time>2021-08-15T11:47:49Z</time>
      </trkpt>
      <trkpt lat="45.49101" lon="6.71208">
        <ele>2351.1</ele>
        <time>2021-08-15T11:47:50Z</time>
      </trkpt>
      <trkpt lat="45.49101" lon="6.71208">
        <ele>2351.1</ele>
        <time>2021-08-15T11:47:51Z</time>
      </trkpt>
      <trkpt lat="45.49101" lon="6.71208">
        <ele>2351.1</ele>
        <time>2021-08-15T11:47:52Z</time>
      </trkpt>
      <trkpt lat="45.49101" lon="6.71208">
        <ele>2351.1</ele>
        <time>2021-08-15T11:47:53Z</time>
      </trkpt>
      <trkpt lat="45.49101" lon="6.71208">
        <ele>2351.1</ele>
        <time>2021-08-15T11:47:54Z</time>
      </trkpt>
      <trkpt lat="45.49101" lon="6.71208">
        <ele>2351.1</ele>
        <time>2021-08-15T11:47:55Z</time>
      </trkpt>
      <trkpt lat="45.49101" lon="6.71208">
        <ele>2351.1</ele>
        <time>2021-08-15T11:47:56Z</time>
      </trkpt>
      <trkpt lat="45.49101" lon="6.71208">
        <ele>2351.1</ele>
        <time>2021-08-15T11:47:57Z</time>
      </trkpt>
      <trkpt lat="45.49101" lon="6.71208">
        <ele>2351.1</ele>
        <time>2021-08-15T11:47:58Z</time>
      </trkpt>
      <trkpt lat="45.49101" lon="6.71208">
        <ele>2351.1</ele>
        <time>2021-08-15T11:47:59Z</time>
      </trkpt>
      <trkpt lat="45.49101" lon="6.71208">
        <ele>2351.1</ele>
        <time>2021-08-15T11:48:00Z</time>
      </trkpt>
      <trkpt lat="45.49101" lon="6.71208">
        <ele>2351.1</ele>
        <time>2021-08-15T11:48:01Z</time>
      </trkpt>
      <trkpt lat="45.49101" lon="6.71208">
        <ele>2351.1</ele>
        <time>2021-08-15T11:48:02Z</time>
      </trkpt>
      <trkpt lat="45.49101" lon="6.71208">
        <ele>2351.1</ele>
        <time>2021-08-15T11:48:03Z</time>
      </trkpt>
      <trkpt lat="45.49101" lon="6.71208">
        <ele>2351.1</ele>
        <time>2021-08-15T11:48:04Z</time>
      </trkpt>
      <trkpt lat="45.49101" lon="6.71208">
        <ele>2351.1</ele>
        <time>2021-08-15T11:48:05Z</time>
      </trkpt>
      <trkpt lat="45.49101" lon="6.71208">
        <ele>2351.1</ele>
        <time>2021-08-15T11:48:06Z</time>
      </trkpt>
      <trkpt lat="45.49101" lon="6.71208">
        <ele>2351.1</ele>
        <time>2021-08-15T11:48:07Z</time>
      </trkpt>
      <trkpt lat="45.49101" lon="6.71208">
        <ele>2351.1</ele>
        <time>2021-08-15T11:48:08Z</time>
      </trkpt>
      <trkpt lat="45.49101" lon="6.71208">
        <ele>2351.1</ele>
        <time>2021-08-15T11:48:09Z</time>
      </trkpt>
      <trkpt lat="45.49101" lon="6.71208">
        <ele>2351.1</ele>
        <time>2021-08-15T11:48:10Z</time>
      </trkpt>
      <trkpt lat="45.49101" lon="6.71208">
        <ele>2351.1</ele>
        <time>2021-08-15T11:48:11Z</time>
      </trkpt>
      <trkpt lat="45.49101" lon="6.71208">
        <ele>2351.1</ele>
        <time>2021-08-15T11:48:12Z</time>
      </trkpt>
      <trkpt lat="45.49101" lon="6.71208">
        <ele>2351.1</ele>
        <time>2021-08-15T11:48:13Z</time>
      </trkpt>
      <trkpt lat="45.49101" lon="6.71208">
        <ele>2351.1</ele>
        <time>2021-08-15T11:48:14Z</time>
      </trkpt>
      <trkpt lat="45.49101" lon="6.71208">
        <ele>2351.1</ele>
        <time>2021-08-15T11:48:15Z</time>
      </trkpt>
      <trkpt lat="45.49101" lon="6.71208">
        <ele>2351.1</ele>
        <time>2021-08-15T11:48:16Z</time>
      </trkpt>
      <trkpt lat="45.49101" lon="6.71208">
        <ele>2351.1</ele>
        <time>2021-08-15T11:48:17Z</time>
      </trkpt>
      <trkpt lat="45.49101" lon="6.71208">
        <ele>2351.1</ele>
        <time>2021-08-15T11:48:18Z</time>
      </trkpt>
      <trkpt lat="45.49101" lon="6.71208">
        <ele>2351.1</ele>
        <time>2021-08-15T11:48:19Z</time>
      </trkpt>
      <trkpt lat="45.49101" lon="6.71208">
        <ele>2351.1</ele>
        <time>2021-08-15T11:48:20Z</time>
      </trkpt>
      <trkpt lat="45.49101" lon="6.71208">
        <ele>2351.1</ele>
        <time>2021-08-15T11:48:21Z</time>
      </trkpt>
      <trkpt lat="45.49101" lon="6.71208">
        <ele>2351.1</ele>
        <time>2021-08-15T11:48:22Z</time>
      </trkpt>
      <trkpt lat="45.49101" lon="6.71208">
        <ele>2351.1</ele>
        <time>2021-08-15T11:48:23Z</time>
      </trkpt>
      <trkpt lat="45.49101" lon="6.71208">
        <ele>2351.1</ele>
        <time>2021-08-15T11:48:24Z</time>
      </trkpt>
      <trkpt lat="45.49101" lon="6.71208">
        <ele>2351.1</ele>
        <time>2021-08-15T11:48:25Z</time>
      </trkpt>
      <trkpt lat="45.49101" lon="6.71208">
        <ele>2351.1</ele>
        <time>2021-08-15T11:48:26Z</time>
      </trkpt>
      <trkpt lat="45.49101" lon="6.71208">
        <ele>2351.1</ele>
        <time>2021-08-15T11:48:27Z</time>
      </trkpt>
      <trkpt lat="45.49101" lon="6.71208">
        <ele>2351.1</ele>
        <time>2021-08-15T11:48:28Z</time>
      </trkpt>
      <trkpt lat="45.49101" lon="6.71208">
        <ele>2351.1</ele>
        <time>2021-08-15T11:48:29Z</time>
      </trkpt>
      <trkpt lat="45.49101" lon="6.71208">
        <ele>2351.1</ele>
        <time>2021-08-15T11:48:30Z</time>
      </trkpt>
      <trkpt lat="45.49101" lon="6.71208">
        <ele>2351.1</ele>
        <time>2021-08-15T11:48:31Z</time>
      </trkpt>
      <trkpt lat="45.49101" lon="6.71208">
        <ele>2351.1</ele>
        <time>2021-08-15T11:48:32Z</time>
      </trkpt>
      <trkpt lat="45.49101" lon="6.71208">
        <ele>2351.1</ele>
        <time>2021-08-15T11:48:33Z</time>
      </trkpt>
      <trkpt lat="45.49101" lon="6.71208">
        <ele>2351.1</ele>
        <time>2021-08-15T11:48:34Z</time>
      </trkpt>
      <trkpt lat="45.49101" lon="6.71208">
        <ele>2351.1</ele>
        <time>2021-08-15T11:48:35Z</time>
      </trkpt>
      <trkpt lat="45.49101" lon="6.71208">
        <ele>2351.1</ele>
        <time>2021-08-15T11:48:36Z</time>
      </trkpt>
      <trkpt lat="45.49101" lon="6.71208">
        <ele>2351.1</ele>
        <time>2021-08-15T11:48:37Z</time>
      </trkpt>
      <trkpt lat="45.49101" lon="6.71208">
        <ele>2351.1</ele>
        <time>2021-08-15T11:48:38Z</time>
      </trkpt>
      <trkpt lat="45.49101" lon="6.71208">
        <ele>2351.1</ele>
        <time>2021-08-15T11:48:39Z</time>
      </trkpt>
      <trkpt lat="45.49101" lon="6.71208">
        <ele>2351.1</ele>
        <time>2021-08-15T11:48:40Z</time>
      </trkpt>
      <trkpt lat="45.49101" lon="6.71208">
        <ele>2351.1</ele>
        <time>2021-08-15T11:48:41Z</time>
      </trkpt>
      <trkpt lat="45.49101" lon="6.71208">
        <ele>2351.1</ele>
        <time>2021-08-15T11:48:42Z</time>
      </trkpt>
      <trkpt lat="45.49101" lon="6.71208">
        <ele>2351.1</ele>
        <time>2021-08-15T11:48:43Z</time>
      </trkpt>
      <trkpt lat="45.49101" lon="6.71208">
        <ele>2351.1</ele>
        <time>2021-08-15T11:48:44Z</time>
      </trkpt>
      <trkpt lat="45.49101" lon="6.71208">
        <ele>2351.1</ele>
        <time>2021-08-15T11:48:45Z</time>
      </trkpt>
      <trkpt lat="45.49101" lon="6.71208">
        <ele>2351.1</ele>
        <time>2021-08-15T11:48:46Z</time>
      </trkpt>
      <trkpt lat="45.49101" lon="6.71208">
        <ele>2351.1</ele>
        <time>2021-08-15T11:48:47Z</time>
      </trkpt>
      <trkpt lat="45.49101" lon="6.71208">
        <ele>2351.1</ele>
        <time>2021-08-15T11:48:48Z</time>
      </trkpt>
      <trkpt lat="45.49101" lon="6.71208">
        <ele>2351.1</ele>
        <time>2021-08-15T11:48:49Z</time>
      </trkpt>
      <trkpt lat="45.49101" lon="6.71208">
        <ele>2351.1</ele>
        <time>2021-08-15T11:48:50Z</time>
      </trkpt>
      <trkpt lat="45.49101" lon="6.71208">
        <ele>2351.1</ele>
        <time>2021-08-15T11:48:51Z</time>
      </trkpt>
      <trkpt lat="45.49101" lon="6.71208">
        <ele>2351.1</ele>
        <time>2021-08-15T11:48:52Z</time>
      </trkpt>
      <trkpt lat="45.49101" lon="6.71208">
        <ele>2351.1</ele>
        <time>2021-08-15T11:48:53Z</time>
      </trkpt>
      <trkpt lat="45.49101" lon="6.71208">
        <ele>2351.1</ele>
        <time>2021-08-15T11:48:54Z</time>
      </trkpt>
      <trkpt lat="45.49101" lon="6.71208">
        <ele>2351.1</ele>
        <time>2021-08-15T11:48:55Z</time>
      </trkpt>
      <trkpt lat="45.49101" lon="6.71208">
        <ele>2351.1</ele>
        <time>2021-08-15T11:48:56Z</time>
      </trkpt>
      <trkpt lat="45.49101" lon="6.71208">
        <ele>2351.1</ele>
        <time>2021-08-15T11:48:57Z</time>
      </trkpt>
      <trkpt lat="45.49101" lon="6.71208">
        <ele>2351.1</ele>
        <time>2021-08-15T11:48:58Z</time>
      </trkpt>
      <trkpt lat="45.49101" lon="6.71208">
        <ele>2351.1</ele>
        <time>2021-08-15T11:48:59Z</time>
      </trkpt>
      <trkpt lat="45.49101" lon="6.71208">
        <ele>2351.1</ele>
        <time>2021-08-15T11:49:00Z</time>
      </trkpt>
      <trkpt lat="45.49101" lon="6.71208">
        <ele>2351.1</ele>
        <time>2021-08-15T11:49:01Z</time>
      </trkpt>
      <trkpt lat="45.49101" lon="6.71208">
        <ele>2351.1</ele>
        <time>2021-08-15T11:49:02Z</time>
      </trkpt>
      <trkpt lat="45.49101" lon="6.71208">
        <ele>2351.1</ele>
        <time>2021-08-15T11:49:03Z</time>
      </trkpt>
      <trkpt lat="45.49101" lon="6.71208">
        <ele>2351.1</ele>
        <time>2021-08-15T11:49:04Z</time>
      </trkpt>
      <trkpt lat="45.49101" lon="6.71208">
        <ele>2351.1</ele>
        <time>2021-08-15T11:49:05Z</time>
      </trkpt>
      <trkpt lat="45.49101" lon="6.71208">
        <ele>2351.1</ele>
        <time>2021-08-15T11:49:06Z</time>
      </trkpt>
      <trkpt lat="45.49101" lon="6.71208">
        <ele>2351.1</ele>
        <time>2021-08-15T11:49:07Z</time>
      </trkpt>
      <trkpt lat="45.49101" lon="6.71208">
        <ele>2351.1</ele>
        <time>2021-08-15T11:49:08Z</time>
      </trkpt>
      <trkpt lat="45.49101" lon="6.71208">
        <ele>2351.1</ele>
        <time>2021-08-15T11:49:09Z</time>
      </trkpt>
      <trkpt lat="45.49101" lon="6.71208">
        <ele>2351.1</ele>
        <time>2021-08-15T11:49:10Z</time>
      </trkpt>
      <trkpt lat="45.49101" lon="6.71208">
        <ele>2351.1</ele>
        <time>2021-08-15T11:49:11Z</time>
      </trkpt>
      <trkpt lat="45.49101" lon="6.71208">
        <ele>2351.1</ele>
        <time>2021-08-15T11:49:12Z</time>
      </trkpt>
      <trkpt lat="45.49101" lon="6.71208">
        <ele>2351.1</ele>
        <time>2021-08-15T11:49:13Z</time>
      </trkpt>
      <trkpt lat="45.49101" lon="6.71208">
        <ele>2351.1</ele>
        <time>2021-08-15T11:49:14Z</time>
      </trkpt>
      <trkpt lat="45.49101" lon="6.71208">
        <ele>2351.1</ele>
        <time>2021-08-15T11:49:15Z</time>
      </trkpt>
      <trkpt lat="45.49101" lon="6.71208">
        <ele>2351.1</ele>
        <time>2021-08-15T11:49:16Z</time>
      </trkpt>
      <trkpt lat="45.49101" lon="6.71208">
        <ele>2351.1</ele>
        <time>2021-08-15T11:49:17Z</time>
      </trkpt>
      <trkpt lat="45.49101" lon="6.71208">
        <ele>2351.1</ele>
        <time>2021-08-15T11:49:18Z</time>
      </trkpt>
      <trkpt lat="45.49101" lon="6.71208">
        <ele>2351.1</ele>
        <time>2021-08-15T11:49:19Z</time>
      </trkpt>
      <trkpt lat="45.49101" lon="6.71208">
        <ele>2351.1</ele>
        <time>2021-08-15T11:49:20Z</time>
      </trkpt>
      <trkpt lat="45.49101" lon="6.71208">
        <ele>2351.1</ele>
        <time>2021-08-15T11:49:21Z</time>
      </trkpt>
      <trkpt lat="45.49101" lon="6.71208">
        <ele>2351.1</ele>
        <time>2021-08-15T11:49:22Z</time>
      </trkpt>
      <trkpt lat="45.49101" lon="6.71208">
        <ele>2351.1</ele>
        <time>2021-08-15T11:49:23Z</time>
      </trkpt>
      <trkpt lat="45.49101" lon="6.71208">
        <ele>2351.1</ele>
        <time>2021-08-15T11:49:24Z</time>
      </trkpt>
      <trkpt lat="45.49101" lon="6.71208">
        <ele>2351.1</ele>
        <time>2021-08-15T11:49:25Z</time>
      </trkpt>
      <trkpt lat="45.49101" lon="6.71208">
        <ele>2351.1</ele>
        <time>2021-08-15T11:49:26Z</time>
      </trkpt>
      <trkpt lat="45.49101" lon="6.71208">
        <ele>2351.1</ele>
        <time>2021-08-15T11:49:27Z</time>
      </trkpt>
      <trkpt lat="45.49101" lon="6.71208">
        <ele>2351.1</ele>
        <time>2021-08-15T11:49:28Z</time>
      </trkpt>
      <trkpt lat="45.49101" lon="6.71208">
        <ele>2351.1</ele>
        <time>2021-08-15T11:49:29Z</time>
      </trkpt>
      <trkpt lat="45.49101" lon="6.71208">
        <ele>2351.1</ele>
        <time>2021-08-15T11:49:30Z</time>
      </trkpt>
      <trkpt lat="45.49101" lon="6.71208">
        <ele>2351.1</ele>
        <time>2021-08-15T11:49:31Z</time>
      </trkpt>
      <trkpt lat="45.49101" lon="6.71208">
        <ele>2351.1</ele>
        <time>2021-08-15T11:49:32Z</time>
      </trkpt>
      <trkpt lat="45.49101" lon="6.71208">
        <ele>2351.1</ele>
        <time>2021-08-15T11:49:33Z</time>
      </trkpt>
      <trkpt lat="45.49101" lon="6.71208">
        <ele>2351.1</ele>
        <time>2021-08-15T11:49:34Z</time>
      </trkpt>
      <trkpt lat="45.49101" lon="6.71208">
        <ele>2351.1</ele>
        <time>2021-08-15T11:49:35Z</time>
      </trkpt>
      <trkpt lat="45.49101" lon="6.71208">
        <ele>2351.1</ele>
        <time>2021-08-15T11:49:36Z</time>
      </trkpt>
      <trkpt lat="45.49101" lon="6.71208">
        <ele>2351.1</ele>
        <time>2021-08-15T11:49:37Z</time>
      </trkpt>
      <trkpt lat="45.49101" lon="6.71208">
        <ele>2351.1</ele>
        <time>2021-08-15T11:49:38Z</time>
      </trkpt>
      <trkpt lat="45.49101" lon="6.71208">
        <ele>2351.1</ele>
        <time>2021-08-15T11:49:39Z</time>
      </trkpt>
      <trkpt lat="45.49101" lon="6.71208">
        <ele>2351.1</ele>
        <time>2021-08-15T11:49:40Z</time>
      </trkpt>
      <trkpt lat="45.49101" lon="6.71208">
        <ele>2351.1</ele>
        <time>2021-08-15T11:49:41Z</time>
      </trkpt>
      <trkpt lat="45.49101" lon="6.71208">
        <ele>2351.1</ele>
        <time>2021-08-15T11:49:42Z</time>
      </trkpt>
      <trkpt lat="45.49101" lon="6.71208">
        <ele>2351.1</ele>
        <time>2021-08-15T11:49:43Z</time>
      </trkpt>
      <trkpt lat="45.49101" lon="6.71208">
        <ele>2351.1</ele>
        <time>2021-08-15T11:49:44Z</time>
      </trkpt>
      <trkpt lat="45.49101" lon="6.71208">
        <ele>2351.1</ele>
        <time>2021-08-15T11:49:45Z</time>
      </trkpt>
      <trkpt lat="45.49101" lon="6.71208">
        <ele>2351.1</ele>
        <time>2021-08-15T11:49:46Z</time>
      </trkpt>
      <trkpt lat="45.49101" lon="6.71208">
        <ele>2351.1</ele>
        <time>2021-08-15T11:49:47Z</time>
      </trkpt>
      <trkpt lat="45.49101" lon="6.71208">
        <ele>2351.1</ele>
        <time>2021-08-15T11:49:48Z</time>
      </trkpt>
      <trkpt lat="45.49101" lon="6.71208">
        <ele>2351.1</ele>
        <time>2021-08-15T11:49:49Z</time>
      </trkpt>
      <trkpt lat="45.49101" lon="6.71208">
        <ele>2351.1</ele>
        <time>2021-08-15T11:49:50Z</time>
      </trkpt>
      <trkpt lat="45.49101" lon="6.71208">
        <ele>2351.1</ele>
        <time>2021-08-15T11:49:51Z</time>
      </trkpt>
      <trkpt lat="45.49101" lon="6.71208">
        <ele>2351.1</ele>
        <time>2021-08-15T11:49:52Z</time>
      </trkpt>
      <trkpt lat="45.49101" lon="6.71208">
        <ele>2351.1</ele>
        <time>2021-08-15T11:49:53Z</time>
      </trkpt>
      <trkpt lat="45.49101" lon="6.71208">
        <ele>2351.1</ele>
        <time>2021-08-15T11:49:54Z</time>
      </trkpt>
      <trkpt lat="45.49101" lon="6.71208">
        <ele>2351.1</ele>
        <time>2021-08-15T11:49:55Z</time>
      </trkpt>
      <trkpt lat="45.49101" lon="6.71208">
        <ele>2351.1</ele>
        <time>2021-08-15T11:49:56Z</time>
      </trkpt>
      <trkpt lat="45.49101" lon="6.71208">
        <ele>2351.1</ele>
        <time>2021-08-15T11:49:57Z</time>
      </trkpt>
      <trkpt lat="45.49101" lon="6.71208">
        <ele>2351.1</ele>
        <time>2021-08-15T11:49:58Z</time>
      </trkpt>
      <trkpt lat="45.49101" lon="6.71208">
        <ele>2351.1</ele>
        <time>2021-08-15T11:49:59Z</time>
      </trkpt>
      <trkpt lat="45.49101" lon="6.71208">
        <ele>2351.1</ele>
        <time>2021-08-15T11:50:00Z</time>
      </trkpt>
      <trkpt lat="45.49101" lon="6.71208">
        <ele>2351.1</ele>
        <time>2021-08-15T11:50:01Z</time>
      </trkpt>
      <trkpt lat="45.49101" lon="6.71208">
        <ele>2351.1</ele>
        <time>2021-08-15T11:50:02Z</time>
      </trkpt>
      <trkpt lat="45.49101" lon="6.71208">
        <ele>2351.1</ele>
        <time>2021-08-15T11:50:03Z</time>
      </trkpt>
      <trkpt lat="45.49101" lon="6.71208">
        <ele>2351.1</ele>
        <time>2021-08-15T11:50:04Z</time>
      </trkpt>
      <trkpt lat="45.49101" lon="6.71208">
        <ele>2351.1</ele>
        <time>2021-08-15T11:50:05Z</time>
      </trkpt>
      <trkpt lat="45.49101" lon="6.71208">
        <ele>2351.1</ele>
        <time>2021-08-15T11:50:06Z</time>
      </trkpt>
      <trkpt lat="45.49101" lon="6.71208">
        <ele>2351.1</ele>
        <time>2021-08-15T11:50:07Z</time>
      </trkpt>
      <trkpt lat="45.49101" lon="6.71208">
        <ele>2351.1</ele>
        <time>2021-08-15T11:50:08Z</time>
      </trkpt>
      <trkpt lat="45.49101" lon="6.71208">
        <ele>2351.1</ele>
        <time>2021-08-15T11:50:09Z</time>
      </trkpt>
      <trkpt lat="45.49101" lon="6.71208">
        <ele>2351.1</ele>
        <time>2021-08-15T11:50:10Z</time>
      </trkpt>
      <trkpt lat="45.49101" lon="6.71208">
        <ele>2351.1</ele>
        <time>2021-08-15T11:50:11Z</time>
      </trkpt>
      <trkpt lat="45.49101" lon="6.71208">
        <ele>2351.1</ele>
        <time>2021-08-15T11:50:12Z</time>
      </trkpt>
      <trkpt lat="45.49101" lon="6.71208">
        <ele>2351.1</ele>
        <time>2021-08-15T11:50:13Z</time>
      </trkpt>
      <trkpt lat="45.49101" lon="6.71208">
        <ele>2351.1</ele>
        <time>2021-08-15T11:50:14Z</time>
      </trkpt>
      <trkpt lat="45.49101" lon="6.71208">
        <ele>2351.1</ele>
        <time>2021-08-15T11:50:15Z</time>
      </trkpt>
      <trkpt lat="45.49101" lon="6.71208">
        <ele>2351.1</ele>
        <time>2021-08-15T11:50:16Z</time>
      </trkpt>
      <trkpt lat="45.49101" lon="6.71208">
        <ele>2351.1</ele>
        <time>2021-08-15T11:50:17Z</time>
      </trkpt>
      <trkpt lat="45.49101" lon="6.71208">
        <ele>2351.1</ele>
        <time>2021-08-15T11:50:18Z</time>
      </trkpt>
      <trkpt lat="45.49101" lon="6.71208">
        <ele>2351.1</ele>
        <time>2021-08-15T11:50:19Z</time>
      </trkpt>
      <trkpt lat="45.49101" lon="6.71208">
        <ele>2351.1</ele>
        <time>2021-08-15T11:50:20Z</time>
      </trkpt>
      <trkpt lat="45.49101" lon="6.71208">
        <ele>2351.1</ele>
        <time>2021-08-15T11:50:21Z</time>
      </trkpt>
      <trkpt lat="45.49101" lon="6.71208">
        <ele>2351.1</ele>
        <time>2021-08-15T11:50:22Z</time>
      </trkpt>
      <trkpt lat="45.49101" lon="6.71208">
        <ele>2351.1</ele>
        <time>2021-08-15T11:50:23Z</time>
      </trkpt>
      <trkpt lat="45.49101" lon="6.71208">
        <ele>2351.1</ele>
        <time>2021-08-15T11:50:24Z</time>
      </trkpt>
      <trkpt lat="45.49101" lon="6.71208">
        <ele>2351.1</ele>
        <time>2021-08-15T11:50:25Z</time>
      </trkpt>
      <trkpt lat="45.49101" lon="6.71208">
        <ele>2351.1</ele>
        <time>2021-08-15T11:50:26Z</time>
      </trkpt>
      <trkpt lat="45.49101" lon="6.71208">
        <ele>2351.1</ele>
        <time>2021-08-15T11:50:27Z</time>
      </trkpt>
      <trkpt lat="45.49101" lon="6.71208">
        <ele>2351.1</ele>
        <time>2021-08-15T11:50:28Z</time>
      </trkpt>
      <trkpt lat="45.49101" lon="6.71208">
        <ele>2351.1</ele>
        <time>2021-08-15T11:50:29Z</time>
      </trkpt>
      <trkpt lat="45.49101" lon="6.71208">
        <ele>2351.1</ele>
        <time>2021-08-15T11:50:30Z</time>
      </trkpt>
      <trkpt lat="45.49101" lon="6.71208">
        <ele>2351.1</ele>
        <time>2021-08-15T11:50:31Z</time>
      </trkpt>
      <trkpt lat="45.49101" lon="6.71208">
        <ele>2351.1</ele>
        <time>2021-08-15T11:50:32Z</time>
      </trkpt>
      <trkpt lat="45.49101" lon="6.71208">
        <ele>2351.1</ele>
        <time>2021-08-15T11:50:33Z</time>
      </trkpt>
      <trkpt lat="45.49101" lon="6.71208">
        <ele>2351.1</ele>
        <time>2021-08-15T11:50:34Z</time>
      </trkpt>
      <trkpt lat="45.49101" lon="6.71208">
        <ele>2351.1</ele>
        <time>2021-08-15T11:50:35Z</time>
      </trkpt>
      <trkpt lat="45.49101" lon="6.71208">
        <ele>2351.1</ele>
        <time>2021-08-15T11:50:36Z</time>
      </trkpt>
      <trkpt lat="45.49101" lon="6.71208">
        <ele>2351.1</ele>
        <time>2021-08-15T11:50:37Z</time>
      </trkpt>
      <trkpt lat="45.49101" lon="6.71208">
        <ele>2351.1</ele>
        <time>2021-08-15T11:50:38Z</time>
      </trkpt>
      <trkpt lat="45.49101" lon="6.71208">
        <ele>2351.1</ele>
        <time>2021-08-15T11:50:39Z</time>
      </trkpt>
      <trkpt lat="45.49101" lon="6.71208">
        <ele>2351.1</ele>
        <time>2021-08-15T11:50:40Z</time>
      </trkpt>
      <trkpt lat="45.49101" lon="6.71208">
        <ele>2351.1</ele>
        <time>2021-08-15T11:50:41Z</time>
      </trkpt>
      <trkpt lat="45.49101" lon="6.71208">
        <ele>2351.1</ele>
        <time>2021-08-15T11:50:42Z</time>
      </trkpt>
      <trkpt lat="45.49101" lon="6.71208">
        <ele>2351.1</ele>
        <time>2021-08-15T11:50:43Z</time>
      </trkpt>
      <trkpt lat="45.49101" lon="6.71208">
        <ele>2351.1</ele>
        <time>2021-08-15T11:50:44Z</time>
      </trkpt>
      <trkpt lat="45.49101" lon="6.71208">
        <ele>2351.1</ele>
        <time>2021-08-15T11:50:45Z</time>
      </trkpt>
      <trkpt lat="45.49101" lon="6.71208">
        <ele>2351.1</ele>
        <time>2021-08-15T11:50:46Z</time>
      </trkpt>
      <trkpt lat="45.49101" lon="6.71208">
        <ele>2351.1</ele>
        <time>2021-08-15T11:50:47Z</time>
      </trkpt>
      <trkpt lat="45.49101" lon="6.71208">
        <ele>2351.1</ele>
        <time>2021-08-15T11:50:48Z</time>
      </trkpt>
      <trkpt lat="45.49101" lon="6.71208">
        <ele>2351.1</ele>
        <time>2021-08-15T11:50:49Z</time>
      </trkpt>
      <trkpt lat="45.49101" lon="6.71208">
        <ele>2351.1</ele>
        <time>2021-08-15T11:50:50Z</time>
      </trkpt>
      <trkpt lat="45.49101" lon="6.71208">
        <ele>2351.1</ele>
        <time>2021-08-15T11:50:51Z</time>
      </trkpt>
      <trkpt lat="45.49101" lon="6.71208">
        <ele>2351.1</ele>
        <time>2021-08-15T11:50:52Z</time>
      </trkpt>
      <trkpt lat="45.49101" lon="6.71208">
        <ele>2351.1</ele>
        <time>2021-08-15T11:50:53Z</time>
      </trkpt>
      <trkpt lat="45.49101" lon="6.71208">
        <ele>2351.1</ele>
        <time>2021-08-15T11:50:54Z</time>
      </trkpt>
      <trkpt lat="45.49101" lon="6.71208">
        <ele>2351.1</ele>
        <time>2021-08-15T11:50:55Z</time>
      </trkpt>
      <trkpt lat="45.49101" lon="6.71208">
        <ele>2351.1</ele>
        <time>2021-08-15T11:50:56Z</time>
      </trkpt>
      <trkpt lat="45.49101" lon="6.71208">
        <ele>2351.1</ele>
        <time>2021-08-15T11:50:57Z</time>
      </trkpt>
      <trkpt lat="45.49101" lon="6.71208">
        <ele>2351.1</ele>
        <time>2021-08-15T11:50:58Z</time>
      </trkpt>
      <trkpt lat="45.49101" lon="6.71208">
        <ele>2351.1</ele>
        <time>2021-08-15T11:50:59Z</time>
      </trkpt>
      <trkpt lat="45.49101" lon="6.71208">
        <ele>2351.1</ele>
        <time>2021-08-15T11:51:00Z</time>
      </trkpt>
      <trkpt lat="45.49101" lon="6.71208">
        <ele>2351.1</ele>
        <time>2021-08-15T11:51:01Z</time>
      </trkpt>
      <trkpt lat="45.49101" lon="6.71208">
        <ele>2351.1</ele>
        <time>2021-08-15T11:51:02Z</time>
      </trkpt>
      <trkpt lat="45.49101" lon="6.71208">
        <ele>2351.1</ele>
        <time>2021-08-15T11:51:03Z</time>
      </trkpt>
      <trkpt lat="45.49101" lon="6.71208">
        <ele>2351.1</ele>
        <time>2021-08-15T11:51:04Z</time>
      </trkpt>
      <trkpt lat="45.49101" lon="6.71208">
        <ele>2351.1</ele>
        <time>2021-08-15T11:51:05Z</time>
      </trkpt>
      <trkpt lat="45.49101" lon="6.71208">
        <ele>2351.1</ele>
        <time>2021-08-15T11:51:06Z</time>
      </trkpt>
      <trkpt lat="45.49101" lon="6.71208">
        <ele>2351.1</ele>
        <time>2021-08-15T11:51:07Z</time>
      </trkpt>
      <trkpt lat="45.49101" lon="6.71208">
        <ele>2351.1</ele>
        <time>2021-08-15T11:51:08Z</time>
      </trkpt>
      <trkpt lat="45.49101" lon="6.71208">
        <ele>2351.1</ele>
        <time>2021-08-15T11:51:09Z</time>
      </trkpt>
      <trkpt lat="45.49101" lon="6.71208">
        <ele>2351.1</ele>
        <time>2021-08-15T11:51:10Z</time>
      </trkpt>
      <trkpt lat="45.49101" lon="6.71208">
        <ele>2351.1</ele>
        <time>2021-08-15T11:51:11Z</time>
      </trkpt>
      <trkpt lat="45.49101" lon="6.71208">
        <ele>2351.1</ele>
        <time>2021-08-15T11:51:12Z</time>
      </trkpt>
      <trkpt lat="45.49101" lon="6.71208">
        <ele>2351.1</ele>
        <time>2021-08-15T11:51:13Z</time>
      </trkpt>
      <trkpt lat="45.49101" lon="6.71208">
        <ele>2351.1</ele>
        <time>2021-08-15T11:51:14Z</time>
      </trkpt>
      <trkpt lat="45.49101" lon="6.71208">
        <ele>2351.1</ele>
        <time>2021-08-15T11:51:15Z</time>
      </trkpt>
      <trkpt lat="45.49101" lon="6.71208">
        <ele>2351.1</ele>
        <time>2021-08-15T11:51:16Z</time>
      </trkpt>
      <trkpt lat="45.49101" lon="6.71208">
        <ele>2351.1</ele>
        <time>2021-08-15T11:51:17Z</time>
      </trkpt>
      <trkpt lat="45.49101" lon="6.71208">
        <ele>2351.1</ele>
        <time>2021-08-15T11:51:18Z</time>
      </trkpt>
      <trkpt lat="45.49101" lon="6.71208">
        <ele>2351.1</ele>
        <time>2021-08-15T11:51:19Z</time>
      </trkpt>
      <trkpt lat="45.49101" lon="6.71208">
        <ele>2351.1</ele>
        <time>2021-08-15T11:51:20Z</time>
      </trkpt>
      <trkpt lat="45.49101" lon="6.71208">
        <ele>2351.1</ele>
        <time>2021-08-15T11:51:21Z</time>
      </trkpt>
      <trkpt lat="45.49101" lon="6.71208">
        <ele>2351.1</ele>
        <time>2021-08-15T11:51:22Z</time>
      </trkpt>
      <trkpt lat="45.49101" lon="6.71208">
        <ele>2351.1</ele>
        <time>2021-08-15T11:51:23Z</time>
      </trkpt>
      <trkpt lat="45.49101" lon="6.71208">
        <ele>2351.1</ele>
        <time>2021-08-15T11:51:24Z</time>
      </trkpt>
      <trkpt lat="45.49101" lon="6.71208">
        <ele>2351.1</ele>
        <time>2021-08-15T11:51:25Z</time>
      </trkpt>
      <trkpt lat="45.49101" lon="6.71208">
        <ele>2351.1</ele>
        <time>2021-08-15T11:51:26Z</time>
      </trkpt>
      <trkpt lat="45.49101" lon="6.71208">
        <ele>2351.1</ele>
        <time>2021-08-15T11:51:27Z</time>
      </trkpt>
      <trkpt lat="45.49101" lon="6.71208">
        <ele>2351.1</ele>
        <time>2021-08-15T11:51:28Z</time>
      </trkpt>
      <trkpt lat="45.49101" lon="6.71208">
        <ele>2351.1</ele>
        <time>2021-08-15T11:51:29Z</time>
      </trkpt>
      <trkpt lat="45.49101" lon="6.71208">
        <ele>2351.1</ele>
        <time>2021-08-15T11:51:30Z</time>
      </trkpt>
      <trkpt lat="45.49101" lon="6.71208">
        <ele>2351.1</ele>
        <time>2021-08-15T11:51:31Z</time>
      </trkpt>
      <trkpt lat="45.49101" lon="6.71208">
        <ele>2351.1</ele>
        <time>2021-08-15T11:51:32Z</time>
      </trkpt>
      <trkpt lat="45.49101" lon="6.71208">
        <ele>2351.1</ele>
        <time>2021-08-15T11:51:33Z</time>
      </trkpt>
      <trkpt lat="45.49101" lon="6.71208">
        <ele>2351.1</ele>
        <time>2021-08-15T11:51:34Z</time>
      </trkpt>
      <trkpt lat="45.49101" lon="6.71208">
        <ele>2351.1</ele>
        <time>2021-08-15T11:51:35Z</time>
      </trkpt>
      <trkpt lat="45.49101" lon="6.71208">
        <ele>2351.1</ele>
        <time>2021-08-15T11:51:36Z</time>
      </trkpt>
      <trkpt lat="45.49101" lon="6.71208">
        <ele>2351.1</ele>
        <time>2021-08-15T11:51:37Z</time>
      </trkpt>
      <trkpt lat="45.49101" lon="6.71208">
        <ele>2351.1</ele>
        <time>2021-08-15T11:51:38Z</time>
      </trkpt>
      <trkpt lat="45.49101" lon="6.71208">
        <ele>2351.1</ele>
        <time>2021-08-15T11:51:39Z</time>
      </trkpt>
      <trkpt lat="45.49101" lon="6.71208">
        <ele>2351.1</ele>
        <time>2021-08-15T11:51:40Z</time>
      </trkpt>
      <trkpt lat="45.49101" lon="6.71208">
        <ele>2351.1</ele>
        <time>2021-08-15T11:51:41Z</time>
      </trkpt>
      <trkpt lat="45.49101" lon="6.71208">
        <ele>2351.1</ele>
        <time>2021-08-15T11:51:42Z</time>
      </trkpt>
      <trkpt lat="45.49101" lon="6.71208">
        <ele>2351.1</ele>
        <time>2021-08-15T11:51:43Z</time>
      </trkpt>
      <trkpt lat="45.49101" lon="6.71208">
        <ele>2351.1</ele>
        <time>2021-08-15T11:51:44Z</time>
      </trkpt>
      <trkpt lat="45.49101" lon="6.71208">
        <ele>2351.1</ele>
        <time>2021-08-15T11:51:45Z</time>
      </trkpt>
      <trkpt lat="45.49101" lon="6.71208">
        <ele>2351.1</ele>
        <time>2021-08-15T11:51:46Z</time>
      </trkpt>
      <trkpt lat="45.49101" lon="6.71208">
        <ele>2351.1</ele>
        <time>2021-08-15T11:51:47Z</time>
      </trkpt>
      <trkpt lat="45.49101" lon="6.71208">
        <ele>2351.1</ele>
        <time>2021-08-15T11:51:48Z</time>
      </trkpt>
      <trkpt lat="45.49101" lon="6.71208">
        <ele>2351.1</ele>
        <time>2021-08-15T11:51:49Z</time>
      </trkpt>
      <trkpt lat="45.49101" lon="6.71208">
        <ele>2351.1</ele>
        <time>2021-08-15T11:51:50Z</time>
      </trkpt>
      <trkpt lat="45.49101" lon="6.71208">
        <ele>2351.1</ele>
        <time>2021-08-15T11:51:51Z</time>
      </trkpt>
      <trkpt lat="45.49101" lon="6.71208">
        <ele>2351.1</ele>
        <time>2021-08-15T11:51:52Z</time>
      </trkpt>
      <trkpt lat="45.49101" lon="6.71208">
        <ele>2351.1</ele>
        <time>2021-08-15T11:51:53Z</time>
      </trkpt>
      <trkpt lat="45.49101" lon="6.71208">
        <ele>2351.1</ele>
        <time>2021-08-15T11:51:54Z</time>
      </trkpt>
      <trkpt lat="45.49101" lon="6.71208">
        <ele>2351.1</ele>
        <time>2021-08-15T11:51:55Z</time>
      </trkpt>
      <trkpt lat="45.49101" lon="6.71208">
        <ele>2351.1</ele>
        <time>2021-08-15T11:51:56Z</time>
      </trkpt>
      <trkpt lat="45.49101" lon="6.71208">
        <ele>2351.1</ele>
        <time>2021-08-15T11:51:57Z</time>
      </trkpt>
      <trkpt lat="45.49101" lon="6.71208">
        <ele>2351.1</ele>
        <time>2021-08-15T11:51:58Z</time>
      </trkpt>
      <trkpt lat="45.49101" lon="6.71208">
        <ele>2351.1</ele>
        <time>2021-08-15T11:51:59Z</time>
      </trkpt>
      <trkpt lat="45.49101" lon="6.71208">
        <ele>2351.1</ele>
        <time>2021-08-15T11:52:00Z</time>
      </trkpt>
      <trkpt lat="45.49101" lon="6.71208">
        <ele>2351.1</ele>
        <time>2021-08-15T11:52:01Z</time>
      </trkpt>
      <trkpt lat="45.49101" lon="6.71208">
        <ele>2351.1</ele>
        <time>2021-08-15T11:52:02Z</time>
      </trkpt>
      <trkpt lat="45.49101" lon="6.71208">
        <ele>2351.1</ele>
        <time>2021-08-15T11:52:03Z</time>
      </trkpt>
      <trkpt lat="45.49101" lon="6.71208">
        <ele>2351.1</ele>
        <time>2021-08-15T11:52:04Z</time>
      </trkpt>
      <trkpt lat="45.49101" lon="6.71208">
        <ele>2351.1</ele>
        <time>2021-08-15T11:52:05Z</time>
      </trkpt>
      <trkpt lat="45.49101" lon="6.71208">
        <ele>2351.1</ele>
        <time>2021-08-15T11:52:06Z</time>
      </trkpt>
      <trkpt lat="45.49101" lon="6.71208">
        <ele>2351.1</ele>
        <time>2021-08-15T11:52:07Z</time>
      </trkpt>
      <trkpt lat="45.49101" lon="6.71208">
        <ele>2351.1</ele>
        <time>2021-08-15T11:52:08Z</time>
      </trkpt>
      <trkpt lat="45.49101" lon="6.71208">
        <ele>2351.1</ele>
        <time>2021-08-15T11:52:09Z</time>
      </trkpt>
      <trkpt lat="45.49101" lon="6.71208">
        <ele>2351.1</ele>
        <time>2021-08-15T11:52:10Z</time>
      </trkpt>
      <trkpt lat="45.49101" lon="6.71208">
        <ele>2351.1</ele>
        <time>2021-08-15T11:52:11Z</time>
      </trkpt>
      <trkpt lat="45.49101" lon="6.71208">
        <ele>2351.1</ele>
        <time>2021-08-15T11:52:12Z</time>
      </trkpt>
      <trkpt lat="45.49101" lon="6.71208">
        <ele>2351.1</ele>
        <time>2021-08-15T11:52:13Z</time>
      </trkpt>
      <trkpt lat="45.49101" lon="6.71208">
        <ele>2351.1</ele>
        <time>2021-08-15T11:52:14Z</time>
      </trkpt>
      <trkpt lat="45.49101" lon="6.71208">
        <ele>2351.1</ele>
        <time>2021-08-15T11:52:15Z</time>
      </trkpt>
      <trkpt lat="45.49101" lon="6.71208">
        <ele>2351.1</ele>
        <time>2021-08-15T11:52:16Z</time>
      </trkpt>
      <trkpt lat="45.49101" lon="6.71208">
        <ele>2351.1</ele>
        <time>2021-08-15T11:52:17Z</time>
      </trkpt>
      <trkpt lat="45.49101" lon="6.71208">
        <ele>2351.1</ele>
        <time>2021-08-15T11:52:18Z</time>
      </trkpt>
      <trkpt lat="45.49101" lon="6.71208">
        <ele>2351.1</ele>
        <time>2021-08-15T11:52:19Z</time>
      </trkpt>
      <trkpt lat="45.49101" lon="6.71208">
        <ele>2351.1</ele>
        <time>2021-08-15T11:52:20Z</time>
      </trkpt>
      <trkpt lat="45.49101" lon="6.71208">
        <ele>2351.1</ele>
        <time>2021-08-15T11:52:21Z</time>
      </trkpt>
      <trkpt lat="45.49101" lon="6.71208">
        <ele>2351.1</ele>
        <time>2021-08-15T11:52:22Z</time>
      </trkpt>
      <trkpt lat="45.49101" lon="6.71208">
        <ele>2351.1</ele>
        <time>2021-08-15T11:52:23Z</time>
      </trkpt>
      <trkpt lat="45.49101" lon="6.71208">
        <ele>2351.1</ele>
        <time>2021-08-15T11:52:24Z</time>
      </trkpt>
      <trkpt lat="45.49101" lon="6.71208">
        <ele>2351.1</ele>
        <time>2021-08-15T11:52:25Z</time>
      </trkpt>
      <trkpt lat="45.49101" lon="6.71208">
        <ele>2351.1</ele>
        <time>2021-08-15T11:52:26Z</time>
      </trkpt>
      <trkpt lat="45.49101" lon="6.71208">
        <ele>2351.1</ele>
        <time>2021-08-15T11:52:27Z</time>
      </trkpt>
      <trkpt lat="45.49101" lon="6.71208">
        <ele>2351.1</ele>
        <time>2021-08-15T11:52:28Z</time>
      </trkpt>
      <trkpt lat="45.49101" lon="6.71208">
        <ele>2351.1</ele>
        <time>2021-08-15T11:52:29Z</time>
      </trkpt>
      <trkpt lat="45.49101" lon="6.71208">
        <ele>2351.1</ele>
        <time>2021-08-15T11:52:30Z</time>
      </trkpt>
      <trkpt lat="45.49101" lon="6.71208">
        <ele>2351.1</ele>
        <time>2021-08-15T11:52:31Z</time>
      </trkpt>
      <trkpt lat="45.49101" lon="6.71208">
        <ele>2351.1</ele>
        <time>2021-08-15T11:52:32Z</time>
      </trkpt>
      <trkpt lat="45.49101" lon="6.71208">
        <ele>2351.1</ele>
        <time>2021-08-15T11:52:33Z</time>
      </trkpt>
      <trkpt lat="45.49101" lon="6.71208">
        <ele>2351.1</ele>
        <time>2021-08-15T11:52:34Z</time>
      </trkpt>
      <trkpt lat="45.49101" lon="6.71208">
        <ele>2351.1</ele>
        <time>2021-08-15T11:52:35Z</time>
      </trkpt>
      <trkpt lat="45.49101" lon="6.71208">
        <ele>2351.1</ele>
        <time>2021-08-15T11:52:36Z</time>
      </trkpt>
      <trkpt lat="45.49101" lon="6.71208">
        <ele>2351.1</ele>
        <time>2021-08-15T11:52:37Z</time>
      </trkpt>
      <trkpt lat="45.49101" lon="6.71208">
        <ele>2351.1</ele>
        <time>2021-08-15T11:52:38Z</time>
      </trkpt>
      <trkpt lat="45.49101" lon="6.71208">
        <ele>2351.1</ele>
        <time>2021-08-15T11:52:39Z</time>
      </trkpt>
      <trkpt lat="45.49101" lon="6.71208">
        <ele>2351.1</ele>
        <time>2021-08-15T11:52:40Z</time>
      </trkpt>
      <trkpt lat="45.49101" lon="6.71208">
        <ele>2351.1</ele>
        <time>2021-08-15T11:52:41Z</time>
      </trkpt>
      <trkpt lat="45.49101" lon="6.71208">
        <ele>2351.1</ele>
        <time>2021-08-15T11:52:42Z</time>
      </trkpt>
      <trkpt lat="45.49101" lon="6.71208">
        <ele>2351.1</ele>
        <time>2021-08-15T11:52:43Z</time>
      </trkpt>
      <trkpt lat="45.49101" lon="6.71208">
        <ele>2351.1</ele>
        <time>2021-08-15T11:52:44Z</time>
      </trkpt>
      <trkpt lat="45.49101" lon="6.71208">
        <ele>2351.1</ele>
        <time>2021-08-15T11:52:45Z</time>
      </trkpt>
      <trkpt lat="45.49101" lon="6.71208">
        <ele>2351.1</ele>
        <time>2021-08-15T11:52:46Z</time>
      </trkpt>
      <trkpt lat="45.49101" lon="6.71208">
        <ele>2351.1</ele>
        <time>2021-08-15T11:52:47Z</time>
      </trkpt>
      <trkpt lat="45.49101" lon="6.71208">
        <ele>2351.1</ele>
        <time>2021-08-15T11:52:48Z</time>
      </trkpt>
      <trkpt lat="45.49101" lon="6.71208">
        <ele>2351.1</ele>
        <time>2021-08-15T11:52:49Z</time>
      </trkpt>
      <trkpt lat="45.49101" lon="6.71208">
        <ele>2351.1</ele>
        <time>2021-08-15T11:52:50Z</time>
      </trkpt>
      <trkpt lat="45.49101" lon="6.71208">
        <ele>2351.1</ele>
        <time>2021-08-15T11:52:51Z</time>
      </trkpt>
      <trkpt lat="45.49101" lon="6.71208">
        <ele>2351.1</ele>
        <time>2021-08-15T11:52:52Z</time>
      </trkpt>
      <trkpt lat="45.49101" lon="6.71208">
        <ele>2351.1</ele>
        <time>2021-08-15T11:52:53Z</time>
      </trkpt>
      <trkpt lat="45.49101" lon="6.71208">
        <ele>2351.1</ele>
        <time>2021-08-15T11:52:54Z</time>
      </trkpt>
      <trkpt lat="45.49101" lon="6.71208">
        <ele>2351.1</ele>
        <time>2021-08-15T11:52:55Z</time>
      </trkpt>
      <trkpt lat="45.49101" lon="6.71208">
        <ele>2351.1</ele>
        <time>2021-08-15T11:52:56Z</time>
      </trkpt>
      <trkpt lat="45.49101" lon="6.71208">
        <ele>2351.1</ele>
        <time>2021-08-15T11:52:57Z</time>
      </trkpt>
      <trkpt lat="45.49101" lon="6.71208">
        <ele>2351.1</ele>
        <time>2021-08-15T11:52:58Z</time>
      </trkpt>
      <trkpt lat="45.49101" lon="6.71208">
        <ele>2351.1</ele>
        <time>2021-08-15T11:52:59Z</time>
      </trkpt>
      <trkpt lat="45.49101" lon="6.71208">
        <ele>2351.1</ele>
        <time>2021-08-15T11:53:00Z</time>
      </trkpt>
      <trkpt lat="45.49101" lon="6.71208">
        <ele>2351.1</ele>
        <time>2021-08-15T11:53:01Z</time>
      </trkpt>
      <trkpt lat="45.49101" lon="6.71208">
        <ele>2351.1</ele>
        <time>2021-08-15T11:53:02Z</time>
      </trkpt>
      <trkpt lat="45.49101" lon="6.71208">
        <ele>2351.1</ele>
        <time>2021-08-15T11:53:03Z</time>
      </trkpt>
      <trkpt lat="45.49101" lon="6.71208">
        <ele>2351.1</ele>
        <time>2021-08-15T11:53:04Z</time>
      </trkpt>
      <trkpt lat="45.49101" lon="6.71208">
        <ele>2351.1</ele>
        <time>2021-08-15T11:53:05Z</time>
      </trkpt>
      <trkpt lat="45.49101" lon="6.71208">
        <ele>2351.1</ele>
        <time>2021-08-15T11:53:06Z</time>
      </trkpt>
      <trkpt lat="45.49101" lon="6.71208">
        <ele>2351.1</ele>
        <time>2021-08-15T11:53:07Z</time>
      </trkpt>
      <trkpt lat="45.49101" lon="6.71208">
        <ele>2351.1</ele>
        <time>2021-08-15T11:53:08Z</time>
      </trkpt>
      <trkpt lat="45.49101" lon="6.71208">
        <ele>2351.1</ele>
        <time>2021-08-15T11:53:09Z</time>
      </trkpt>
      <trkpt lat="45.49101" lon="6.71208">
        <ele>2351.1</ele>
        <time>2021-08-15T11:53:10Z</time>
      </trkpt>
      <trkpt lat="45.49101" lon="6.71208">
        <ele>2351.1</ele>
        <time>2021-08-15T11:53:11Z</time>
      </trkpt>
      <trkpt lat="45.49101" lon="6.71208">
        <ele>2351.1</ele>
        <time>2021-08-15T11:53:12Z</time>
      </trkpt>
      <trkpt lat="45.49101" lon="6.71208">
        <ele>2351.1</ele>
        <time>2021-08-15T11:53:13Z</time>
      </trkpt>
      <trkpt lat="45.49101" lon="6.71208">
        <ele>2351.1</ele>
        <time>2021-08-15T11:53:14Z</time>
      </trkpt>
      <trkpt lat="45.49101" lon="6.71208">
        <ele>2351.1</ele>
        <time>2021-08-15T11:53:15Z</time>
      </trkpt>
      <trkpt lat="45.49101" lon="6.71208">
        <ele>2351.1</ele>
        <time>2021-08-15T11:53:16Z</time>
      </trkpt>
      <trkpt lat="45.49101" lon="6.71208">
        <ele>2351.1</ele>
        <time>2021-08-15T11:53:17Z</time>
      </trkpt>
      <trkpt lat="45.49101" lon="6.71208">
        <ele>2351.1</ele>
        <time>2021-08-15T11:53:18Z</time>
      </trkpt>
      <trkpt lat="45.49101" lon="6.71208">
        <ele>2351.1</ele>
        <time>2021-08-15T11:53:19Z</time>
      </trkpt>
      <trkpt lat="45.49101" lon="6.71208">
        <ele>2351.1</ele>
        <time>2021-08-15T11:53:20Z</time>
      </trkpt>
      <trkpt lat="45.49101" lon="6.71208">
        <ele>2351.1</ele>
        <time>2021-08-15T11:53:21Z</time>
      </trkpt>
      <trkpt lat="45.49101" lon="6.71208">
        <ele>2351.1</ele>
        <time>2021-08-15T11:53:22Z</time>
      </trkpt>
      <trkpt lat="45.49101" lon="6.71208">
        <ele>2351.1</ele>
        <time>2021-08-15T11:53:23Z</time>
      </trkpt>
      <trkpt lat="45.49101" lon="6.71208">
        <ele>2351.1</ele>
        <time>2021-08-15T11:53:24Z</time>
      </trkpt>
      <trkpt lat="45.49101" lon="6.71208">
        <ele>2351.1</ele>
        <time>2021-08-15T11:53:25Z</time>
      </trkpt>
      <trkpt lat="45.49101" lon="6.71208">
        <ele>2351.1</ele>
        <time>2021-08-15T11:53:26Z</time>
      </trkpt>
      <trkpt lat="45.49101" lon="6.71208">
        <ele>2351.1</ele>
        <time>2021-08-15T11:53:27Z</time>
      </trkpt>
      <trkpt lat="45.49101" lon="6.71208">
        <ele>2351.1</ele>
        <time>2021-08-15T11:53:28Z</time>
      </trkpt>
      <trkpt lat="45.49101" lon="6.71208">
        <ele>2351.1</ele>
        <time>2021-08-15T11:53:29Z</time>
      </trkpt>
      <trkpt lat="45.49101" lon="6.71208">
        <ele>2351.1</ele>
        <time>2021-08-15T11:53:30Z</time>
      </trkpt>
      <trkpt lat="45.49101" lon="6.71208">
        <ele>2351.1</ele>
        <time>2021-08-15T11:53:31Z</time>
      </trkpt>
      <trkpt lat="45.49101" lon="6.71208">
        <ele>2351.1</ele>
        <time>2021-08-15T11:53:32Z</time>
      </trkpt>
      <trkpt lat="45.49101" lon="6.71208">
        <ele>2351.1</ele>
        <time>2021-08-15T11:53:33Z</time>
      </trkpt>
      <trkpt lat="45.49101" lon="6.71208">
        <ele>2351.1</ele>
        <time>2021-08-15T11:53:34Z</time>
      </trkpt>
      <trkpt lat="45.49101" lon="6.71208">
        <ele>2351.1</ele>
        <time>2021-08-15T11:53:35Z</time>
      </trkpt>
      <trkpt lat="45.49101" lon="6.71208">
        <ele>2351.1</ele>
        <time>2021-08-15T11:53:36Z</time>
      </trkpt>
      <trkpt lat="45.49101" lon="6.71208">
        <ele>2351.1</ele>
        <time>2021-08-15T11:53:37Z</time>
      </trkpt>
      <trkpt lat="45.49101" lon="6.71208">
        <ele>2351.1</ele>
        <time>2021-08-15T11:53:38Z</time>
      </trkpt>
      <trkpt lat="45.49101" lon="6.71208">
        <ele>2351.1</ele>
        <time>2021-08-15T11:53:39Z</time>
      </trkpt>
      <trkpt lat="45.49101" lon="6.71208">
        <ele>2351.1</ele>
        <time>2021-08-15T11:53:40Z</time>
      </trkpt>
      <trkpt lat="45.49101" lon="6.71208">
        <ele>2351.1</ele>
        <time>2021-08-15T11:53:41Z</time>
      </trkpt>
      <trkpt lat="45.49101" lon="6.71208">
        <ele>2351.1</ele>
        <time>2021-08-15T11:53:42Z</time>
      </trkpt>
      <trkpt lat="45.49101" lon="6.71208">
        <ele>2351.1</ele>
        <time>2021-08-15T11:53:43Z</time>
      </trkpt>
      <trkpt lat="45.49101" lon="6.71208">
        <ele>2351.1</ele>
        <time>2021-08-15T11:53:44Z</time>
      </trkpt>
      <trkpt lat="45.49101" lon="6.71208">
        <ele>2351.1</ele>
        <time>2021-08-15T11:53:45Z</time>
      </trkpt>
      <trkpt lat="45.49101" lon="6.71208">
        <ele>2351.1</ele>
        <time>2021-08-15T11:53:46Z</time>
      </trkpt>
      <trkpt lat="45.49101" lon="6.71208">
        <ele>2351.1</ele>
        <time>2021-08-15T11:53:47Z</time>
      </trkpt>
      <trkpt lat="45.49101" lon="6.71208">
        <ele>2351.1</ele>
        <time>2021-08-15T11:53:48Z</time>
      </trkpt>
      <trkpt lat="45.49101" lon="6.71208">
        <ele>2351.1</ele>
        <time>2021-08-15T11:53:49Z</time>
      </trkpt>
      <trkpt lat="45.49101" lon="6.71208">
        <ele>2351.1</ele>
        <time>2021-08-15T11:53:50Z</time>
      </trkpt>
      <trkpt lat="45.49101" lon="6.71208">
        <ele>2351.1</ele>
        <time>2021-08-15T11:53:51Z</time>
      </trkpt>
      <trkpt lat="45.49101" lon="6.71208">
        <ele>2351.1</ele>
        <time>2021-08-15T11:53:52Z</time>
      </trkpt>
      <trkpt lat="45.49101" lon="6.71208">
        <ele>2351.1</ele>
        <time>2021-08-15T11:53:53Z</time>
      </trkpt>
      <trkpt lat="45.49101" lon="6.71208">
        <ele>2351.1</ele>
        <time>2021-08-15T11:53:54Z</time>
      </trkpt>
      <trkpt lat="45.49101" lon="6.71208">
        <ele>2351.1</ele>
        <time>2021-08-15T11:53:55Z</time>
      </trkpt>
      <trkpt lat="45.49101" lon="6.71208">
        <ele>2351.1</ele>
        <time>2021-08-15T11:53:56Z</time>
      </trkpt>
      <trkpt lat="45.49101" lon="6.71208">
        <ele>2351.1</ele>
        <time>2021-08-15T11:53:57Z</time>
      </trkpt>
      <trkpt lat="45.49101" lon="6.71208">
        <ele>2351.1</ele>
        <time>2021-08-15T11:53:58Z</time>
      </trkpt>
      <trkpt lat="45.49101" lon="6.71208">
        <ele>2351.1</ele>
        <time>2021-08-15T11:53:59Z</time>
      </trkpt>
      <trkpt lat="45.49101" lon="6.71208">
        <ele>2351.1</ele>
        <time>2021-08-15T11:54:00Z</time>
      </trkpt>
      <trkpt lat="45.49101" lon="6.71208">
        <ele>2351.1</ele>
        <time>2021-08-15T11:54:01Z</time>
      </trkpt>
      <trkpt lat="45.49101" lon="6.71208">
        <ele>2351.1</ele>
        <time>2021-08-15T11:54:02Z</time>
      </trkpt>
      <trkpt lat="45.49101" lon="6.71208">
        <ele>2351.1</ele>
        <time>2021-08-15T11:54:03Z</time>
      </trkpt>
      <trkpt lat="45.49101" lon="6.71208">
        <ele>2351.1</ele>
        <time>2021-08-15T11:54:04Z</time>
      </trkpt>
      <trkpt lat="45.49101" lon="6.71208">
        <ele>2351.1</ele>
        <time>2021-08-15T11:54:05Z</time>
      </trkpt>
      <trkpt lat="45.49101" lon="6.71208">
        <ele>2351.1</ele>
        <time>2021-08-15T11:54:06Z</time>
      </trkpt>
      <trkpt lat="45.49101" lon="6.71208">
        <ele>2351.1</ele>
        <time>2021-08-15T11:54:07Z</time>
      </trkpt>
      <trkpt lat="45.49101" lon="6.71208">
        <ele>2351.1</ele>
        <time>2021-08-15T11:54:08Z</time>
      </trkpt>
      <trkpt lat="45.49101" lon="6.71208">
        <ele>2351.1</ele>
        <time>2021-08-15T11:54:09Z</time>
      </trkpt>
      <trkpt lat="45.49101" lon="6.71208">
        <ele>2351.1</ele>
        <time>2021-08-15T11:54:10Z</time>
      </trkpt>
      <trkpt lat="45.49101" lon="6.71208">
        <ele>2351.1</ele>
        <time>2021-08-15T11:54:11Z</time>
      </trkpt>
      <trkpt lat="45.49101" lon="6.71208">
        <ele>2351.1</ele>
        <time>2021-08-15T11:54:12Z</time>
      </trkpt>
      <trkpt lat="45.49101" lon="6.71208">
        <ele>2351.1</ele>
        <time>2021-08-15T11:54:13Z</time>
      </trkpt>
      <trkpt lat="45.49101" lon="6.71208">
        <ele>2351.1</ele>
        <time>2021-08-15T11:54:14Z</time>
      </trkpt>
      <trkpt lat="45.49101" lon="6.71208">
        <ele>2351.1</ele>
        <time>2021-08-15T11:54:15Z</time>
      </trkpt>
      <trkpt lat="45.49101" lon="6.71208">
        <ele>2351.1</ele>
        <time>2021-08-15T11:54:16Z</time>
      </trkpt>
      <trkpt lat="45.49101" lon="6.71208">
        <ele>2351.1</ele>
        <time>2021-08-15T11:54:17Z</time>
      </trkpt>
      <trkpt lat="45.49101" lon="6.71208">
        <ele>2351.1</ele>
        <time>2021-08-15T11:54:18Z</time>
      </trkpt>
      <trkpt lat="45.49101" lon="6.71208">
        <ele>2351.1</ele>
        <time>2021-08-15T11:54:19Z</time>
      </trkpt>
      <trkpt lat="45.49101" lon="6.71208">
        <ele>2351.1</ele>
        <time>2021-08-15T11:54:20Z</time>
      </trkpt>
      <trkpt lat="45.49101" lon="6.71208">
        <ele>2351.1</ele>
        <time>2021-08-15T11:54:21Z</time>
      </trkpt>
      <trkpt lat="45.49101" lon="6.71208">
        <ele>2351.1</ele>
        <time>2021-08-15T11:54:22Z</time>
      </trkpt>
      <trkpt lat="45.49101" lon="6.71208">
        <ele>2351.1</ele>
        <time>2021-08-15T11:54:23Z</time>
      </trkpt>
      <trkpt lat="45.49101" lon="6.71208">
        <ele>2351.1</ele>
        <time>2021-08-15T11:54:24Z</time>
      </trkpt>
      <trkpt lat="45.49101" lon="6.71208">
        <ele>2351.1</ele>
        <time>2021-08-15T11:54:25Z</time>
      </trkpt>
      <trkpt lat="45.49101" lon="6.71208">
        <ele>2351.1</ele>
        <time>2021-08-15T11:54:26Z</time>
      </trkpt>
      <trkpt lat="45.49101" lon="6.71208">
        <ele>2351.1</ele>
        <time>2021-08-15T11:54:27Z</time>
      </trkpt>
      <trkpt lat="45.49101" lon="6.71208">
        <ele>2351.1</ele>
        <time>2021-08-15T11:54:28Z</time>
      </trkpt>
      <trkpt lat="45.49101" lon="6.71208">
        <ele>2351.1</ele>
        <time>2021-08-15T11:54:29Z</time>
      </trkpt>
      <trkpt lat="45.49101" lon="6.71208">
        <ele>2351.1</ele>
        <time>2021-08-15T11:54:30Z</time>
      </trkpt>
      <trkpt lat="45.49101" lon="6.71208">
        <ele>2351.1</ele>
        <time>2021-08-15T11:54:31Z</time>
      </trkpt>
      <trkpt lat="45.49101" lon="6.71208">
        <ele>2351.1</ele>
        <time>2021-08-15T11:54:32Z</time>
      </trkpt>
      <trkpt lat="45.49101" lon="6.71208">
        <ele>2351.1</ele>
        <time>2021-08-15T11:54:33Z</time>
      </trkpt>
      <trkpt lat="45.49101" lon="6.71208">
        <ele>2351.1</ele>
        <time>2021-08-15T11:54:34Z</time>
      </trkpt>
      <trkpt lat="45.49101" lon="6.71208">
        <ele>2351.1</ele>
        <time>2021-08-15T11:54:35Z</time>
      </trkpt>
      <trkpt lat="45.49101" lon="6.71208">
        <ele>2351.1</ele>
        <time>2021-08-15T11:54:36Z</time>
      </trkpt>
      <trkpt lat="45.49101" lon="6.71208">
        <ele>2351.1</ele>
        <time>2021-08-15T11:54:37Z</time>
      </trkpt>
      <trkpt lat="45.49101" lon="6.71208">
        <ele>2351.1</ele>
        <time>2021-08-15T11:54:38Z</time>
      </trkpt>
      <trkpt lat="45.49101" lon="6.71208">
        <ele>2351.1</ele>
        <time>2021-08-15T11:54:39Z</time>
      </trkpt>
      <trkpt lat="45.49101" lon="6.71208">
        <ele>2351.1</ele>
        <time>2021-08-15T11:54:40Z</time>
      </trkpt>
      <trkpt lat="45.49101" lon="6.71208">
        <ele>2351.1</ele>
        <time>2021-08-15T11:54:41Z</time>
      </trkpt>
      <trkpt lat="45.49101" lon="6.71208">
        <ele>2351.1</ele>
        <time>2021-08-15T11:54:42Z</time>
      </trkpt>
      <trkpt lat="45.49101" lon="6.71208">
        <ele>2351.1</ele>
        <time>2021-08-15T11:54:43Z</time>
      </trkpt>
      <trkpt lat="45.49101" lon="6.71208">
        <ele>2351.1</ele>
        <time>2021-08-15T11:54:44Z</time>
      </trkpt>
      <trkpt lat="45.49101" lon="6.71208">
        <ele>2351.1</ele>
        <time>2021-08-15T11:54:45Z</time>
      </trkpt>
      <trkpt lat="45.49101" lon="6.71208">
        <ele>2351.1</ele>
        <time>2021-08-15T11:54:46Z</time>
      </trkpt>
      <trkpt lat="45.49101" lon="6.71208">
        <ele>2351.1</ele>
        <time>2021-08-15T11:54:47Z</time>
      </trkpt>
      <trkpt lat="45.49101" lon="6.71208">
        <ele>2351.1</ele>
        <time>2021-08-15T11:54:48Z</time>
      </trkpt>
      <trkpt lat="45.49101" lon="6.71208">
        <ele>2351.1</ele>
        <time>2021-08-15T11:54:49Z</time>
      </trkpt>
      <trkpt lat="45.49101" lon="6.71208">
        <ele>2351.1</ele>
        <time>2021-08-15T11:54:50Z</time>
      </trkpt>
      <trkpt lat="45.49101" lon="6.71208">
        <ele>2351.1</ele>
        <time>2021-08-15T11:54:51Z</time>
      </trkpt>
      <trkpt lat="45.49101" lon="6.71208">
        <ele>2351.1</ele>
        <time>2021-08-15T11:54:52Z</time>
      </trkpt>
      <trkpt lat="45.49101" lon="6.71208">
        <ele>2351.1</ele>
        <time>2021-08-15T11:54:53Z</time>
      </trkpt>
      <trkpt lat="45.49101" lon="6.71208">
        <ele>2351.1</ele>
        <time>2021-08-15T11:54:54Z</time>
      </trkpt>
      <trkpt lat="45.49101" lon="6.71208">
        <ele>2351.1</ele>
        <time>2021-08-15T11:54:55Z</time>
      </trkpt>
      <trkpt lat="45.49101" lon="6.71208">
        <ele>2351.1</ele>
        <time>2021-08-15T11:54:56Z</time>
      </trkpt>
      <trkpt lat="45.49101" lon="6.71208">
        <ele>2351.1</ele>
        <time>2021-08-15T11:54:57Z</time>
      </trkpt>
      <trkpt lat="45.49101" lon="6.71208">
        <ele>2351.1</ele>
        <time>2021-08-15T11:54:58Z</time>
      </trkpt>
      <trkpt lat="45.49101" lon="6.71208">
        <ele>2351.1</ele>
        <time>2021-08-15T11:54:59Z</time>
      </trkpt>
      <trkpt lat="45.49101" lon="6.71208">
        <ele>2351.1</ele>
        <time>2021-08-15T11:55:00Z</time>
      </trkpt>
      <trkpt lat="45.49101" lon="6.71208">
        <ele>2351.1</ele>
        <time>2021-08-15T11:55:01Z</time>
      </trkpt>
      <trkpt lat="45.49101" lon="6.71208">
        <ele>2351.1</ele>
        <time>2021-08-15T11:55:02Z</time>
      </trkpt>
      <trkpt lat="45.49101" lon="6.71208">
        <ele>2351.1</ele>
        <time>2021-08-15T11:55:03Z</time>
      </trkpt>
      <trkpt lat="45.49101" lon="6.71208">
        <ele>2351.1</ele>
        <time>2021-08-15T11:55:04Z</time>
      </trkpt>
      <trkpt lat="45.49101" lon="6.71208">
        <ele>2351.1</ele>
        <time>2021-08-15T11:55:05Z</time>
      </trkpt>
      <trkpt lat="45.49101" lon="6.71208">
        <ele>2351.1</ele>
        <time>2021-08-15T11:55:06Z</time>
      </trkpt>
      <trkpt lat="45.49101" lon="6.71208">
        <ele>2351.1</ele>
        <time>2021-08-15T11:55:07Z</time>
      </trkpt>
      <trkpt lat="45.49101" lon="6.71208">
        <ele>2351.1</ele>
        <time>2021-08-15T11:55:08Z</time>
      </trkpt>
      <trkpt lat="45.49101" lon="6.71208">
        <ele>2351.1</ele>
        <time>2021-08-15T11:55:09Z</time>
      </trkpt>
      <trkpt lat="45.49101" lon="6.71208">
        <ele>2351.1</ele>
        <time>2021-08-15T11:55:10Z</time>
      </trkpt>
      <trkpt lat="45.49101" lon="6.71208">
        <ele>2351.1</ele>
        <time>2021-08-15T11:55:11Z</time>
      </trkpt>
      <trkpt lat="45.49101" lon="6.71208">
        <ele>2351.1</ele>
        <time>2021-08-15T11:55:12Z</time>
      </trkpt>
      <trkpt lat="45.49101" lon="6.71208">
        <ele>2351.1</ele>
        <time>2021-08-15T11:55:13Z</time>
      </trkpt>
      <trkpt lat="45.49101" lon="6.71208">
        <ele>2351.1</ele>
        <time>2021-08-15T11:55:14Z</time>
      </trkpt>
      <trkpt lat="45.49101" lon="6.71208">
        <ele>2351.1</ele>
        <time>2021-08-15T11:55:15Z</time>
      </trkpt>
      <trkpt lat="45.49101" lon="6.71208">
        <ele>2351.1</ele>
        <time>2021-08-15T11:55:16Z</time>
      </trkpt>
      <trkpt lat="45.49101" lon="6.71208">
        <ele>2351.1</ele>
        <time>2021-08-15T11:55:17Z</time>
      </trkpt>
      <trkpt lat="45.49101" lon="6.71208">
        <ele>2351.1</ele>
        <time>2021-08-15T11:55:18Z</time>
      </trkpt>
      <trkpt lat="45.49101" lon="6.71208">
        <ele>2351.1</ele>
        <time>2021-08-15T11:55:19Z</time>
      </trkpt>
      <trkpt lat="45.49101" lon="6.71208">
        <ele>2351.1</ele>
        <time>2021-08-15T11:55:20Z</time>
      </trkpt>
      <trkpt lat="45.49101" lon="6.71208">
        <ele>2351.1</ele>
        <time>2021-08-15T11:55:21Z</time>
      </trkpt>
      <trkpt lat="45.49101" lon="6.71208">
        <ele>2351.1</ele>
        <time>2021-08-15T11:55:22Z</time>
      </trkpt>
      <trkpt lat="45.49101" lon="6.71208">
        <ele>2351.1</ele>
        <time>2021-08-15T11:55:23Z</time>
      </trkpt>
      <trkpt lat="45.49101" lon="6.71208">
        <ele>2351.1</ele>
        <time>2021-08-15T11:55:24Z</time>
      </trkpt>
      <trkpt lat="45.49101" lon="6.71208">
        <ele>2351.1</ele>
        <time>2021-08-15T11:55:25Z</time>
      </trkpt>
      <trkpt lat="45.49101" lon="6.71208">
        <ele>2351.1</ele>
        <time>2021-08-15T11:55:26Z</time>
      </trkpt>
      <trkpt lat="45.49101" lon="6.71208">
        <ele>2351.1</ele>
        <time>2021-08-15T11:55:27Z</time>
      </trkpt>
      <trkpt lat="45.49101" lon="6.71208">
        <ele>2351.1</ele>
        <time>2021-08-15T11:55:28Z</time>
      </trkpt>
      <trkpt lat="45.49101" lon="6.71208">
        <ele>2351.1</ele>
        <time>2021-08-15T11:55:29Z</time>
      </trkpt>
      <trkpt lat="45.49101" lon="6.71208">
        <ele>2351.1</ele>
        <time>2021-08-15T11:55:30Z</time>
      </trkpt>
      <trkpt lat="45.49101" lon="6.71208">
        <ele>2351.1</ele>
        <time>2021-08-15T11:55:31Z</time>
      </trkpt>
      <trkpt lat="45.49101" lon="6.71208">
        <ele>2351.1</ele>
        <time>2021-08-15T11:55:32Z</time>
      </trkpt>
      <trkpt lat="45.49101" lon="6.71208">
        <ele>2351.1</ele>
        <time>2021-08-15T11:55:33Z</time>
      </trkpt>
      <trkpt lat="45.49101" lon="6.71208">
        <ele>2351.1</ele>
        <time>2021-08-15T11:55:34Z</time>
      </trkpt>
      <trkpt lat="45.49101" lon="6.71208">
        <ele>2351.1</ele>
        <time>2021-08-15T11:55:35Z</time>
      </trkpt>
      <trkpt lat="45.49101" lon="6.71208">
        <ele>2351.1</ele>
        <time>2021-08-15T11:55:36Z</time>
      </trkpt>
      <trkpt lat="45.49101" lon="6.71208">
        <ele>2351.1</ele>
        <time>2021-08-15T11:55:37Z</time>
      </trkpt>
      <trkpt lat="45.49101" lon="6.71208">
        <ele>2351.1</ele>
        <time>2021-08-15T11:55:38Z</time>
      </trkpt>
      <trkpt lat="45.49101" lon="6.71208">
        <ele>2351.1</ele>
        <time>2021-08-15T11:55:39Z</time>
      </trkpt>
      <trkpt lat="45.49101" lon="6.71208">
        <ele>2351.1</ele>
        <time>2021-08-15T11:55:40Z</time>
      </trkpt>
      <trkpt lat="45.49101" lon="6.71208">
        <ele>2351.1</ele>
        <time>2021-08-15T11:55:41Z</time>
      </trkpt>
      <trkpt lat="45.49101" lon="6.71208">
        <ele>2351.1</ele>
        <time>2021-08-15T11:55:42Z</time>
      </trkpt>
      <trkpt lat="45.49101" lon="6.71208">
        <ele>2351.1</ele>
        <time>2021-08-15T11:55:43Z</time>
      </trkpt>
      <trkpt lat="45.49101" lon="6.71208">
        <ele>2351.1</ele>
        <time>2021-08-15T11:55:44Z</time>
      </trkpt>
      <trkpt lat="45.49101" lon="6.71208">
        <ele>2351.1</ele>
        <time>2021-08-15T11:55:45Z</time>
      </trkpt>
      <trkpt lat="45.49101" lon="6.71208">
        <ele>2351.1</ele>
        <time>2021-08-15T11:55:46Z</time>
      </trkpt>
      <trkpt lat="45.49101" lon="6.71208">
        <ele>2351.1</ele>
        <time>2021-08-15T11:55:47Z</time>
      </trkpt>
      <trkpt lat="45.49101" lon="6.71208">
        <ele>2351.1</ele>
        <time>2021-08-15T11:55:48Z</time>
      </trkpt>
      <trkpt lat="45.49101" lon="6.71208">
        <ele>2351.1</ele>
        <time>2021-08-15T11:55:49Z</time>
      </trkpt>
      <trkpt lat="45.49101" lon="6.71208">
        <ele>2351.1</ele>
        <time>2021-08-15T11:55:50Z</time>
      </trkpt>
      <trkpt lat="45.49101" lon="6.71208">
        <ele>2351.1</ele>
        <time>2021-08-15T11:55:51Z</time>
      </trkpt>
      <trkpt lat="45.49101" lon="6.71208">
        <ele>2351.1</ele>
        <time>2021-08-15T11:55:52Z</time>
      </trkpt>
      <trkpt lat="45.49101" lon="6.71208">
        <ele>2351.1</ele>
        <time>2021-08-15T11:55:53Z</time>
      </trkpt>
      <trkpt lat="45.49101" lon="6.71208">
        <ele>2351.1</ele>
        <time>2021-08-15T11:55:54Z</time>
      </trkpt>
      <trkpt lat="45.49101" lon="6.71208">
        <ele>2351.1</ele>
        <time>2021-08-15T11:55:55Z</time>
      </trkpt>
      <trkpt lat="45.49101" lon="6.71208">
        <ele>2351.1</ele>
        <time>2021-08-15T11:55:56Z</time>
      </trkpt>
      <trkpt lat="45.49101" lon="6.71208">
        <ele>2351.1</ele>
        <time>2021-08-15T11:55:57Z</time>
      </trkpt>
      <trkpt lat="45.49101" lon="6.71208">
        <ele>2351.1</ele>
        <time>2021-08-15T11:55:58Z</time>
      </trkpt>
      <trkpt lat="45.49101" lon="6.71208">
        <ele>2351.1</ele>
        <time>2021-08-15T11:55:59Z</time>
      </trkpt>
      <trkpt lat="45.49101" lon="6.71208">
        <ele>2351.1</ele>
        <time>2021-08-15T11:56:00Z</time>
      </trkpt>
      <trkpt lat="45.49101" lon="6.71208">
        <ele>2351.1</ele>
        <time>2021-08-15T11:56:01Z</time>
      </trkpt>
      <trkpt lat="45.49101" lon="6.71208">
        <ele>2351.1</ele>
        <time>2021-08-15T11:56:02Z</time>
      </trkpt>
      <trkpt lat="45.49101" lon="6.71208">
        <ele>2351.1</ele>
        <time>2021-08-15T11:56:03Z</time>
      </trkpt>
      <trkpt lat="45.49101" lon="6.71208">
        <ele>2351.1</ele>
        <time>2021-08-15T11:56:04Z</time>
      </trkpt>
      <trkpt lat="45.49101" lon="6.71208">
        <ele>2351.1</ele>
        <time>2021-08-15T11:56:05Z</time>
      </trkpt>
      <trkpt lat="45.49101" lon="6.71208">
        <ele>2351.1</ele>
        <time>2021-08-15T11:56:06Z</time>
      </trkpt>
      <trkpt lat="45.49101" lon="6.71208">
        <ele>2351.1</ele>
        <time>2021-08-15T11:56:07Z</time>
      </trkpt>
      <trkpt lat="45.49101" lon="6.71208">
        <ele>2351.1</ele>
        <time>2021-08-15T11:56:08Z</time>
      </trkpt>
      <trkpt lat="45.49101" lon="6.71208">
        <ele>2351.1</ele>
        <time>2021-08-15T11:56:09Z</time>
      </trkpt>
      <trkpt lat="45.49101" lon="6.71208">
        <ele>2351.1</ele>
        <time>2021-08-15T11:56:10Z</time>
      </trkpt>
      <trkpt lat="45.49101" lon="6.71208">
        <ele>2351.1</ele>
        <time>2021-08-15T11:56:11Z</time>
      </trkpt>
      <trkpt lat="45.49101" lon="6.71208">
        <ele>2351.1</ele>
        <time>2021-08-15T11:56:12Z</time>
      </trkpt>
      <trkpt lat="45.49101" lon="6.71208">
        <ele>2351.1</ele>
        <time>2021-08-15T11:56:13Z</time>
      </trkpt>
      <trkpt lat="45.49101" lon="6.71208">
        <ele>2351.1</ele>
        <time>2021-08-15T11:56:14Z</time>
      </trkpt>
      <trkpt lat="45.49101" lon="6.71208">
        <ele>2351.1</ele>
        <time>2021-08-15T11:56:15Z</time>
      </trkpt>
      <trkpt lat="45.49101" lon="6.71208">
        <ele>2351.1</ele>
        <time>2021-08-15T11:56:16Z</time>
      </trkpt>
      <trkpt lat="45.49101" lon="6.71208">
        <ele>2351.1</ele>
        <time>2021-08-15T11:56:17Z</time>
      </trkpt>
      <trkpt lat="45.49101" lon="6.71208">
        <ele>2351.1</ele>
        <time>2021-08-15T11:56:18Z</time>
      </trkpt>
      <trkpt lat="45.49101" lon="6.71208">
        <ele>2351.1</ele>
        <time>2021-08-15T11:56:19Z</time>
      </trkpt>
      <trkpt lat="45.49101" lon="6.71208">
        <ele>2351.1</ele>
        <time>2021-08-15T11:56:20Z</time>
      </trkpt>
      <trkpt lat="45.49101" lon="6.71208">
        <ele>2351.1</ele>
        <time>2021-08-15T11:56:21Z</time>
      </trkpt>
      <trkpt lat="45.49101" lon="6.71208">
        <ele>2351.1</ele>
        <time>2021-08-15T11:56:22Z</time>
      </trkpt>
      <trkpt lat="45.49101" lon="6.71208">
        <ele>2351.1</ele>
        <time>2021-08-15T11:56:23Z</time>
      </trkpt>
      <trkpt lat="45.49101" lon="6.71208">
        <ele>2351.1</ele>
        <time>2021-08-15T11:56:24Z</time>
      </trkpt>
      <trkpt lat="45.49101" lon="6.71208">
        <ele>2351.1</ele>
        <time>2021-08-15T11:56:25Z</time>
      </trkpt>
      <trkpt lat="45.49101" lon="6.71208">
        <ele>2351.1</ele>
        <time>2021-08-15T11:56:26Z</time>
      </trkpt>
      <trkpt lat="45.49101" lon="6.71208">
        <ele>2351.1</ele>
        <time>2021-08-15T11:56:27Z</time>
      </trkpt>
      <trkpt lat="45.49101" lon="6.71208">
        <ele>2351.1</ele>
        <time>2021-08-15T11:56:28Z</time>
      </trkpt>
      <trkpt lat="45.49101" lon="6.71208">
        <ele>2351.1</ele>
        <time>2021-08-15T11:56:29Z</time>
      </trkpt>
      <trkpt lat="45.49101" lon="6.71208">
        <ele>2351.1</ele>
        <time>2021-08-15T11:56:30Z</time>
      </trkpt>
      <trkpt lat="45.49101" lon="6.71208">
        <ele>2351.1</ele>
        <time>2021-08-15T11:56:31Z</time>
      </trkpt>
      <trkpt lat="45.49101" lon="6.71208">
        <ele>2351.1</ele>
        <time>2021-08-15T11:56:32Z</time>
      </trkpt>
      <trkpt lat="45.49101" lon="6.71208">
        <ele>2351.1</ele>
        <time>2021-08-15T11:56:33Z</time>
      </trkpt>
      <trkpt lat="45.49101" lon="6.71208">
        <ele>2351.1</ele>
        <time>2021-08-15T11:56:34Z</time>
      </trkpt>
      <trkpt lat="45.49101" lon="6.71208">
        <ele>2351.1</ele>
        <time>2021-08-15T11:56:35Z</time>
      </trkpt>
      <trkpt lat="45.49101" lon="6.71208">
        <ele>2351.1</ele>
        <time>2021-08-15T11:56:36Z</time>
      </trkpt>
      <trkpt lat="45.49101" lon="6.71208">
        <ele>2351.1</ele>
        <time>2021-08-15T11:56:37Z</time>
      </trkpt>
      <trkpt lat="45.49101" lon="6.71208">
        <ele>2351.1</ele>
        <time>2021-08-15T11:56:38Z</time>
      </trkpt>
      <trkpt lat="45.49101" lon="6.71208">
        <ele>2351.1</ele>
        <time>2021-08-15T11:56:39Z</time>
      </trkpt>
      <trkpt lat="45.49101" lon="6.71208">
        <ele>2351.1</ele>
        <time>2021-08-15T11:56:40Z</time>
      </trkpt>
      <trkpt lat="45.49101" lon="6.71208">
        <ele>2351.1</ele>
        <time>2021-08-15T11:56:41Z</time>
      </trkpt>
      <trkpt lat="45.49101" lon="6.71208">
        <ele>2351.1</ele>
        <time>2021-08-15T11:56:42Z</time>
      </trkpt>
      <trkpt lat="45.49101" lon="6.71208">
        <ele>2351.1</ele>
        <time>2021-08-15T11:56:43Z</time>
      </trkpt>
      <trkpt lat="45.49101" lon="6.71208">
        <ele>2351.1</ele>
        <time>2021-08-15T11:56:44Z</time>
      </trkpt>
      <trkpt lat="45.49101" lon="6.71208">
        <ele>2351.1</ele>
        <time>2021-08-15T11:56:45Z</time>
      </trkpt>
      <trkpt lat="45.49101" lon="6.71208">
        <ele>2351.1</ele>
        <time>2021-08-15T11:56:46Z</time>
      </trkpt>
      <trkpt lat="45.49101" lon="6.71208">
        <ele>2351.1</ele>
        <time>2021-08-15T11:56:47Z</time>
      </trkpt>
      <trkpt lat="45.49101" lon="6.71208">
        <ele>2351.1</ele>
        <time>2021-08-15T11:56:48Z</time>
      </trkpt>
      <trkpt lat="45.49101" lon="6.71208">
        <ele>2351.1</ele>
        <time>2021-08-15T11:56:49Z</time>
      </trkpt>
      <trkpt lat="45.49101" lon="6.71208">
        <ele>2351.1</ele>
        <time>2021-08-15T11:56:50Z</time>
      </trkpt>
      <trkpt lat="45.49101" lon="6.71208">
        <ele>2351.1</ele>
        <time>2021-08-15T11:56:51Z</time>
      </trkpt>
      <trkpt lat="45.49101" lon="6.71208">
        <ele>2351.1</ele>
        <time>2021-08-15T11:56:52Z</time>
      </trkpt>
      <trkpt lat="45.49101" lon="6.71208">
        <ele>2351.1</ele>
        <time>2021-08-15T11:56:53Z</time>
      </trkpt>
      <trkpt lat="45.49101" lon="6.71208">
        <ele>2351.1</ele>
        <time>2021-08-15T11:56:54Z</time>
      </trkpt>
      <trkpt lat="45.49101" lon="6.71208">
        <ele>2351.1</ele>
        <time>2021-08-15T11:56:55Z</time>
      </trkpt>
      <trkpt lat="45.49101" lon="6.71208">
        <ele>2351.1</ele>
        <time>2021-08-15T11:56:56Z</time>
      </trkpt>
      <trkpt lat="45.49101" lon="6.71208">
        <ele>2351.1</ele>
        <time>2021-08-15T11:56:57Z</time>
      </trkpt>
      <trkpt lat="45.49101" lon="6.71208">
        <ele>2351.1</ele>
        <time>2021-08-15T11:56:58Z</time>
      </trkpt>
      <trkpt lat="45.49101" lon="6.71208">
        <ele>2351.1</ele>
        <time>2021-08-15T11:56:59Z</time>
      </trkpt>
      <trkpt lat="45.49101" lon="6.71208">
        <ele>2351.1</ele>
        <time>2021-08-15T11:57:00Z</time>
      </trkpt>
      <trkpt lat="45.49101" lon="6.71208">
        <ele>2351.1</ele>
        <time>2021-08-15T11:57:01Z</time>
      </trkpt>
      <trkpt lat="45.49101" lon="6.71208">
        <ele>2351.1</ele>
        <time>2021-08-15T11:57:02Z</time>
      </trkpt>
      <trkpt lat="45.49101" lon="6.71208">
        <ele>2351.1</ele>
        <time>2021-08-15T11:57:03Z</time>
      </trkpt>
      <trkpt lat="45.49101" lon="6.71208">
        <ele>2351.1</ele>
        <time>2021-08-15T11:57:04Z</time>
      </trkpt>
      <trkpt lat="45.49101" lon="6.71208">
        <ele>2351.1</ele>
        <time>2021-08-15T11:57:05Z</time>
      </trkpt>
      <trkpt lat="45.49101" lon="6.71208">
        <ele>2351.1</ele>
        <time>2021-08-15T11:57:06Z</time>
      </trkpt>
      <trkpt lat="45.49101" lon="6.71208">
        <ele>2351.1</ele>
        <time>2021-08-15T11:57:07Z</time>
      </trkpt>
      <trkpt lat="45.49101" lon="6.71208">
        <ele>2351.1</ele>
        <time>2021-08-15T11:57:08Z</time>
      </trkpt>
      <trkpt lat="45.49101" lon="6.71208">
        <ele>2351.1</ele>
        <time>2021-08-15T11:57:09Z</time>
      </trkpt>
      <trkpt lat="45.49101" lon="6.71208">
        <ele>2351.1</ele>
        <time>2021-08-15T11:57:10Z</time>
      </trkpt>
      <trkpt lat="45.49101" lon="6.71208">
        <ele>2351.1</ele>
        <time>2021-08-15T11:57:11Z</time>
      </trkpt>
      <trkpt lat="45.49101" lon="6.71208">
        <ele>2351.1</ele>
        <time>2021-08-15T11:57:12Z</time>
      </trkpt>
      <trkpt lat="45.49101" lon="6.71208">
        <ele>2351.1</ele>
        <time>2021-08-15T11:57:13Z</time>
      </trkpt>
      <trkpt lat="45.49101" lon="6.71208">
        <ele>2351.1</ele>
        <time>2021-08-15T11:57:14Z</time>
      </trkpt>
      <trkpt lat="45.491" lon="6.71208">
        <ele>2351.1</ele>
        <time>2021-08-15T11:57:15Z</time>
      </trkpt>
      <trkpt lat="45.491" lon="6.71208">
        <ele>2351.1</ele>
        <time>2021-08-15T11:57:16Z</time>
      </trkpt>
      <trkpt lat="45.491" lon="6.71208">
        <ele>2351.1</ele>
        <time>2021-08-15T11:57:17Z</time>
      </trkpt>
      <trkpt lat="45.491" lon="6.71208">
        <ele>2351.1</ele>
        <time>2021-08-15T11:57:18Z</time>
      </trkpt>
      <trkpt lat="45.491" lon="6.71208">
        <ele>2351.1</ele>
        <time>2021-08-15T11:57:19Z</time>
      </trkpt>
      <trkpt lat="45.491" lon="6.71208">
        <ele>2351.1</ele>
        <time>2021-08-15T11:57:20Z</time>
      </trkpt>
      <trkpt lat="45.491" lon="6.71208">
        <ele>2351.1</ele>
        <time>2021-08-15T11:57:21Z</time>
      </trkpt>
      <trkpt lat="45.491" lon="6.71208">
        <ele>2351.1</ele>
        <time>2021-08-15T11:57:22Z</time>
      </trkpt>
      <trkpt lat="45.49099" lon="6.71208">
        <ele>2351.1</ele>
        <time>2021-08-15T11:57:23Z</time>
      </trkpt>
      <trkpt lat="45.49099" lon="6.71208">
        <ele>2351.1</ele>
        <time>2021-08-15T11:57:24Z</time>
      </trkpt>
      <trkpt lat="45.49099" lon="6.71208">
        <ele>2351.1</ele>
        <time>2021-08-15T11:57:25Z</time>
      </trkpt>
      <trkpt lat="45.49099" lon="6.71208">
        <ele>2351.1</ele>
        <time>2021-08-15T11:57:26Z</time>
      </trkpt>
      <trkpt lat="45.49099" lon="6.71208">
        <ele>2351.1</ele>
        <time>2021-08-15T11:57:27Z</time>
      </trkpt>
      <trkpt lat="45.49099" lon="6.71208">
        <ele>2351.1</ele>
        <time>2021-08-15T11:57:28Z</time>
      </trkpt>
      <trkpt lat="45.49099" lon="6.71208">
        <ele>2351.1</ele>
        <time>2021-08-15T11:57:29Z</time>
      </trkpt>
      <trkpt lat="45.49099" lon="6.71208">
        <ele>2351.1</ele>
        <time>2021-08-15T11:57:30Z</time>
      </trkpt>
      <trkpt lat="45.49099" lon="6.71208">
        <ele>2351.1</ele>
        <time>2021-08-15T11:57:31Z</time>
      </trkpt>
      <trkpt lat="45.49099" lon="6.71208">
        <ele>2351.1</ele>
        <time>2021-08-15T11:57:32Z</time>
      </trkpt>
      <trkpt lat="45.49099" lon="6.71208">
        <ele>2351.1</ele>
        <time>2021-08-15T11:57:33Z</time>
      </trkpt>
      <trkpt lat="45.49099" lon="6.71208">
        <ele>2351.1</ele>
        <time>2021-08-15T11:57:34Z</time>
      </trkpt>
      <trkpt lat="45.49099" lon="6.71208">
        <ele>2351.1</ele>
        <time>2021-08-15T11:57:35Z</time>
      </trkpt>
      <trkpt lat="45.49099" lon="6.71208">
        <ele>2351.1</ele>
        <time>2021-08-15T11:57:36Z</time>
      </trkpt>
      <trkpt lat="45.49099" lon="6.71208">
        <ele>2351.1</ele>
        <time>2021-08-15T11:57:37Z</time>
      </trkpt>
      <trkpt lat="45.49099" lon="6.71208">
        <ele>2351.1</ele>
        <time>2021-08-15T11:57:38Z</time>
      </trkpt>
      <trkpt lat="45.49099" lon="6.71208">
        <ele>2351.1</ele>
        <time>2021-08-15T11:57:39Z</time>
      </trkpt>
      <trkpt lat="45.49099" lon="6.71208">
        <ele>2351.1</ele>
        <time>2021-08-15T11:57:40Z</time>
      </trkpt>
      <trkpt lat="45.49099" lon="6.71208">
        <ele>2351.1</ele>
        <time>2021-08-15T11:57:41Z</time>
      </trkpt>
      <trkpt lat="45.49099" lon="6.71208">
        <ele>2351.1</ele>
        <time>2021-08-15T11:57:42Z</time>
      </trkpt>
      <trkpt lat="45.49099" lon="6.71208">
        <ele>2351.1</ele>
        <time>2021-08-15T11:57:43Z</time>
      </trkpt>
      <trkpt lat="45.49099" lon="6.71208">
        <ele>2351.1</ele>
        <time>2021-08-15T11:57:44Z</time>
      </trkpt>
      <trkpt lat="45.49099" lon="6.71208">
        <ele>2351.1</ele>
        <time>2021-08-15T11:57:45Z</time>
      </trkpt>
      <trkpt lat="45.49099" lon="6.71208">
        <ele>2351.1</ele>
        <time>2021-08-15T11:57:46Z</time>
      </trkpt>
      <trkpt lat="45.49099" lon="6.71208">
        <ele>2351.1</ele>
        <time>2021-08-15T11:57:47Z</time>
      </trkpt>
      <trkpt lat="45.49099" lon="6.71208">
        <ele>2351.1</ele>
        <time>2021-08-15T11:57:48Z</time>
      </trkpt>
      <trkpt lat="45.49099" lon="6.71208">
        <ele>2351.1</ele>
        <time>2021-08-15T11:57:49Z</time>
      </trkpt>
      <trkpt lat="45.49099" lon="6.71208">
        <ele>2351.1</ele>
        <time>2021-08-15T11:57:50Z</time>
      </trkpt>
      <trkpt lat="45.49099" lon="6.71208">
        <ele>2351.1</ele>
        <time>2021-08-15T11:57:51Z</time>
      </trkpt>
      <trkpt lat="45.49099" lon="6.71208">
        <ele>2351.1</ele>
        <time>2021-08-15T11:57:52Z</time>
      </trkpt>
      <trkpt lat="45.49099" lon="6.71208">
        <ele>2351.1</ele>
        <time>2021-08-15T11:57:53Z</time>
      </trkpt>
      <trkpt lat="45.49099" lon="6.71208">
        <ele>2351.1</ele>
        <time>2021-08-15T11:57:54Z</time>
      </trkpt>
      <trkpt lat="45.49099" lon="6.71208">
        <ele>2351.1</ele>
        <time>2021-08-15T11:57:55Z</time>
      </trkpt>
      <trkpt lat="45.49099" lon="6.71208">
        <ele>2351.1</ele>
        <time>2021-08-15T11:57:56Z</time>
      </trkpt>
      <trkpt lat="45.49099" lon="6.71208">
        <ele>2351.1</ele>
        <time>2021-08-15T11:57:57Z</time>
      </trkpt>
      <trkpt lat="45.49099" lon="6.71208">
        <ele>2351.1</ele>
        <time>2021-08-15T11:57:58Z</time>
      </trkpt>
      <trkpt lat="45.49099" lon="6.71208">
        <ele>2351.1</ele>
        <time>2021-08-15T11:57:59Z</time>
      </trkpt>
      <trkpt lat="45.49099" lon="6.71208">
        <ele>2351.1</ele>
        <time>2021-08-15T11:58:00Z</time>
      </trkpt>
      <trkpt lat="45.49099" lon="6.71208">
        <ele>2351.1</ele>
        <time>2021-08-15T11:58:01Z</time>
      </trkpt>
      <trkpt lat="45.49099" lon="6.71208">
        <ele>2351.1</ele>
        <time>2021-08-15T11:58:02Z</time>
      </trkpt>
      <trkpt lat="45.49099" lon="6.71208">
        <ele>2351.1</ele>
        <time>2021-08-15T11:58:03Z</time>
      </trkpt>
      <trkpt lat="45.49099" lon="6.71208">
        <ele>2351.1</ele>
        <time>2021-08-15T11:58:04Z</time>
      </trkpt>
      <trkpt lat="45.49099" lon="6.71208">
        <ele>2351.1</ele>
        <time>2021-08-15T11:58:05Z</time>
      </trkpt>
      <trkpt lat="45.49099" lon="6.71208">
        <ele>2351.1</ele>
        <time>2021-08-15T11:58:06Z</time>
      </trkpt>
      <trkpt lat="45.49099" lon="6.71208">
        <ele>2351.1</ele>
        <time>2021-08-15T11:58:07Z</time>
      </trkpt>
      <trkpt lat="45.49099" lon="6.71208">
        <ele>2351.1</ele>
        <time>2021-08-15T11:58:08Z</time>
      </trkpt>
      <trkpt lat="45.49099" lon="6.71208">
        <ele>2351.1</ele>
        <time>2021-08-15T11:58:09Z</time>
      </trkpt>
      <trkpt lat="45.49099" lon="6.71208">
        <ele>2351.1</ele>
        <time>2021-08-15T11:58:10Z</time>
      </trkpt>
      <trkpt lat="45.49099" lon="6.71208">
        <ele>2351.1</ele>
        <time>2021-08-15T11:58:11Z</time>
      </trkpt>
      <trkpt lat="45.49099" lon="6.71208">
        <ele>2351.1</ele>
        <time>2021-08-15T11:58:12Z</time>
      </trkpt>
      <trkpt lat="45.49099" lon="6.71208">
        <ele>2351.1</ele>
        <time>2021-08-15T11:58:13Z</time>
      </trkpt>
      <trkpt lat="45.49099" lon="6.71208">
        <ele>2351.1</ele>
        <time>2021-08-15T11:58:14Z</time>
      </trkpt>
      <trkpt lat="45.49099" lon="6.71208">
        <ele>2351.1</ele>
        <time>2021-08-15T11:58:15Z</time>
      </trkpt>
      <trkpt lat="45.49099" lon="6.71208">
        <ele>2351.1</ele>
        <time>2021-08-15T11:58:16Z</time>
      </trkpt>
      <trkpt lat="45.49099" lon="6.71208">
        <ele>2351.1</ele>
        <time>2021-08-15T11:58:17Z</time>
      </trkpt>
      <trkpt lat="45.49099" lon="6.71208">
        <ele>2351.1</ele>
        <time>2021-08-15T11:58:18Z</time>
      </trkpt>
      <trkpt lat="45.49099" lon="6.71208">
        <ele>2351.1</ele>
        <time>2021-08-15T11:58:19Z</time>
      </trkpt>
      <trkpt lat="45.49099" lon="6.71208">
        <ele>2351.1</ele>
        <time>2021-08-15T11:58:20Z</time>
      </trkpt>
      <trkpt lat="45.49099" lon="6.71208">
        <ele>2351.1</ele>
        <time>2021-08-15T11:58:21Z</time>
      </trkpt>
      <trkpt lat="45.49099" lon="6.71208">
        <ele>2351.1</ele>
        <time>2021-08-15T11:58:22Z</time>
      </trkpt>
      <trkpt lat="45.49099" lon="6.71208">
        <ele>2351.1</ele>
        <time>2021-08-15T11:58:23Z</time>
      </trkpt>
      <trkpt lat="45.49099" lon="6.71208">
        <ele>2351.1</ele>
        <time>2021-08-15T11:58:24Z</time>
      </trkpt>
      <trkpt lat="45.49099" lon="6.71208">
        <ele>2351.1</ele>
        <time>2021-08-15T11:58:25Z</time>
      </trkpt>
      <trkpt lat="45.49099" lon="6.71208">
        <ele>2351.1</ele>
        <time>2021-08-15T11:58:26Z</time>
      </trkpt>
      <trkpt lat="45.49099" lon="6.71208">
        <ele>2351.1</ele>
        <time>2021-08-15T11:58:27Z</time>
      </trkpt>
      <trkpt lat="45.49099" lon="6.71208">
        <ele>2351.1</ele>
        <time>2021-08-15T11:58:28Z</time>
      </trkpt>
      <trkpt lat="45.49099" lon="6.71208">
        <ele>2351.1</ele>
        <time>2021-08-15T11:58:29Z</time>
      </trkpt>
      <trkpt lat="45.49099" lon="6.71208">
        <ele>2351.1</ele>
        <time>2021-08-15T11:58:30Z</time>
      </trkpt>
      <trkpt lat="45.49099" lon="6.71208">
        <ele>2351.1</ele>
        <time>2021-08-15T11:58:31Z</time>
      </trkpt>
      <trkpt lat="45.49099" lon="6.71208">
        <ele>2351.1</ele>
        <time>2021-08-15T11:58:32Z</time>
      </trkpt>
      <trkpt lat="45.49099" lon="6.71208">
        <ele>2351.1</ele>
        <time>2021-08-15T11:58:33Z</time>
      </trkpt>
      <trkpt lat="45.49099" lon="6.71208">
        <ele>2351.1</ele>
        <time>2021-08-15T11:58:34Z</time>
      </trkpt>
      <trkpt lat="45.49099" lon="6.71208">
        <ele>2351.1</ele>
        <time>2021-08-15T11:58:35Z</time>
      </trkpt>
      <trkpt lat="45.49099" lon="6.71208">
        <ele>2351.1</ele>
        <time>2021-08-15T11:58:36Z</time>
      </trkpt>
      <trkpt lat="45.49099" lon="6.71208">
        <ele>2351.1</ele>
        <time>2021-08-15T11:58:37Z</time>
      </trkpt>
      <trkpt lat="45.49099" lon="6.71208">
        <ele>2351.1</ele>
        <time>2021-08-15T11:58:38Z</time>
      </trkpt>
      <trkpt lat="45.49099" lon="6.71208">
        <ele>2351.1</ele>
        <time>2021-08-15T11:58:39Z</time>
      </trkpt>
      <trkpt lat="45.49099" lon="6.71208">
        <ele>2351.1</ele>
        <time>2021-08-15T11:58:40Z</time>
      </trkpt>
      <trkpt lat="45.49099" lon="6.71208">
        <ele>2351.1</ele>
        <time>2021-08-15T11:58:41Z</time>
      </trkpt>
      <trkpt lat="45.49099" lon="6.71208">
        <ele>2351.1</ele>
        <time>2021-08-15T11:58:42Z</time>
      </trkpt>
      <trkpt lat="45.49099" lon="6.71208">
        <ele>2351.1</ele>
        <time>2021-08-15T11:58:43Z</time>
      </trkpt>
      <trkpt lat="45.49099" lon="6.71208">
        <ele>2351.1</ele>
        <time>2021-08-15T11:58:44Z</time>
      </trkpt>
      <trkpt lat="45.49099" lon="6.71208">
        <ele>2351.1</ele>
        <time>2021-08-15T11:58:45Z</time>
      </trkpt>
      <trkpt lat="45.49099" lon="6.71208">
        <ele>2351.1</ele>
        <time>2021-08-15T11:58:46Z</time>
      </trkpt>
      <trkpt lat="45.49099" lon="6.71208">
        <ele>2351.1</ele>
        <time>2021-08-15T11:58:47Z</time>
      </trkpt>
      <trkpt lat="45.49099" lon="6.71208">
        <ele>2351.1</ele>
        <time>2021-08-15T11:58:48Z</time>
      </trkpt>
      <trkpt lat="45.49099" lon="6.71208">
        <ele>2351.1</ele>
        <time>2021-08-15T11:58:49Z</time>
      </trkpt>
      <trkpt lat="45.49099" lon="6.71208">
        <ele>2351.1</ele>
        <time>2021-08-15T11:58:50Z</time>
      </trkpt>
      <trkpt lat="45.49099" lon="6.71208">
        <ele>2351.1</ele>
        <time>2021-08-15T11:58:51Z</time>
      </trkpt>
      <trkpt lat="45.49099" lon="6.71208">
        <ele>2351.1</ele>
        <time>2021-08-15T11:58:52Z</time>
      </trkpt>
      <trkpt lat="45.49099" lon="6.71208">
        <ele>2351.1</ele>
        <time>2021-08-15T11:58:53Z</time>
      </trkpt>
      <trkpt lat="45.49099" lon="6.71208">
        <ele>2351.1</ele>
        <time>2021-08-15T11:58:54Z</time>
      </trkpt>
      <trkpt lat="45.49099" lon="6.71208">
        <ele>2351.1</ele>
        <time>2021-08-15T11:58:55Z</time>
      </trkpt>
      <trkpt lat="45.49099" lon="6.71208">
        <ele>2351.1</ele>
        <time>2021-08-15T11:58:56Z</time>
      </trkpt>
      <trkpt lat="45.49099" lon="6.71208">
        <ele>2351.1</ele>
        <time>2021-08-15T11:58:57Z</time>
      </trkpt>
      <trkpt lat="45.49099" lon="6.71208">
        <ele>2351.1</ele>
        <time>2021-08-15T11:58:58Z</time>
      </trkpt>
      <trkpt lat="45.49099" lon="6.71208">
        <ele>2351.1</ele>
        <time>2021-08-15T11:58:59Z</time>
      </trkpt>
      <trkpt lat="45.49099" lon="6.71208">
        <ele>2351.1</ele>
        <time>2021-08-15T11:59:00Z</time>
      </trkpt>
      <trkpt lat="45.49099" lon="6.71208">
        <ele>2351.1</ele>
        <time>2021-08-15T11:59:01Z</time>
      </trkpt>
      <trkpt lat="45.49099" lon="6.71208">
        <ele>2351.1</ele>
        <time>2021-08-15T11:59:02Z</time>
      </trkpt>
      <trkpt lat="45.49099" lon="6.71208">
        <ele>2351.1</ele>
        <time>2021-08-15T11:59:03Z</time>
      </trkpt>
      <trkpt lat="45.49099" lon="6.71208">
        <ele>2351.1</ele>
        <time>2021-08-15T11:59:04Z</time>
      </trkpt>
      <trkpt lat="45.49099" lon="6.71208">
        <ele>2351.1</ele>
        <time>2021-08-15T11:59:05Z</time>
      </trkpt>
      <trkpt lat="45.49099" lon="6.71208">
        <ele>2351.1</ele>
        <time>2021-08-15T11:59:06Z</time>
      </trkpt>
      <trkpt lat="45.49099" lon="6.71208">
        <ele>2351.1</ele>
        <time>2021-08-15T11:59:07Z</time>
      </trkpt>
      <trkpt lat="45.49099" lon="6.71208">
        <ele>2351.1</ele>
        <time>2021-08-15T11:59:08Z</time>
      </trkpt>
      <trkpt lat="45.49099" lon="6.71208">
        <ele>2351.1</ele>
        <time>2021-08-15T11:59:09Z</time>
      </trkpt>
      <trkpt lat="45.49099" lon="6.71208">
        <ele>2351.1</ele>
        <time>2021-08-15T11:59:10Z</time>
      </trkpt>
      <trkpt lat="45.49099" lon="6.71208">
        <ele>2351.1</ele>
        <time>2021-08-15T11:59:11Z</time>
      </trkpt>
      <trkpt lat="45.49099" lon="6.71208">
        <ele>2351.1</ele>
        <time>2021-08-15T11:59:12Z</time>
      </trkpt>
      <trkpt lat="45.49099" lon="6.71208">
        <ele>2351.1</ele>
        <time>2021-08-15T11:59:13Z</time>
      </trkpt>
      <trkpt lat="45.49099" lon="6.71208">
        <ele>2351.1</ele>
        <time>2021-08-15T11:59:14Z</time>
      </trkpt>
      <trkpt lat="45.49099" lon="6.71208">
        <ele>2351.1</ele>
        <time>2021-08-15T11:59:15Z</time>
      </trkpt>
      <trkpt lat="45.49099" lon="6.71208">
        <ele>2351.1</ele>
        <time>2021-08-15T11:59:16Z</time>
      </trkpt>
      <trkpt lat="45.49099" lon="6.71208">
        <ele>2351.1</ele>
        <time>2021-08-15T11:59:17Z</time>
      </trkpt>
      <trkpt lat="45.49099" lon="6.71208">
        <ele>2351.1</ele>
        <time>2021-08-15T11:59:18Z</time>
      </trkpt>
      <trkpt lat="45.49099" lon="6.71208">
        <ele>2351.1</ele>
        <time>2021-08-15T11:59:19Z</time>
      </trkpt>
      <trkpt lat="45.49099" lon="6.71208">
        <ele>2351.1</ele>
        <time>2021-08-15T11:59:20Z</time>
      </trkpt>
      <trkpt lat="45.49099" lon="6.71208">
        <ele>2351.1</ele>
        <time>2021-08-15T11:59:21Z</time>
      </trkpt>
      <trkpt lat="45.49099" lon="6.71208">
        <ele>2351.1</ele>
        <time>2021-08-15T11:59:22Z</time>
      </trkpt>
      <trkpt lat="45.49099" lon="6.71208">
        <ele>2351.1</ele>
        <time>2021-08-15T11:59:23Z</time>
      </trkpt>
      <trkpt lat="45.49099" lon="6.71208">
        <ele>2351.1</ele>
        <time>2021-08-15T11:59:24Z</time>
      </trkpt>
      <trkpt lat="45.49099" lon="6.71208">
        <ele>2351.1</ele>
        <time>2021-08-15T11:59:25Z</time>
      </trkpt>
      <trkpt lat="45.49099" lon="6.71208">
        <ele>2351.1</ele>
        <time>2021-08-15T11:59:26Z</time>
      </trkpt>
      <trkpt lat="45.49099" lon="6.71208">
        <ele>2351.1</ele>
        <time>2021-08-15T11:59:27Z</time>
      </trkpt>
      <trkpt lat="45.49099" lon="6.71208">
        <ele>2351.1</ele>
        <time>2021-08-15T11:59:28Z</time>
      </trkpt>
      <trkpt lat="45.49099" lon="6.71208">
        <ele>2351.1</ele>
        <time>2021-08-15T11:59:29Z</time>
      </trkpt>
      <trkpt lat="45.49099" lon="6.71208">
        <ele>2351.1</ele>
        <time>2021-08-15T11:59:30Z</time>
      </trkpt>
      <trkpt lat="45.49099" lon="6.71208">
        <ele>2351.1</ele>
        <time>2021-08-15T11:59:31Z</time>
      </trkpt>
      <trkpt lat="45.49099" lon="6.71208">
        <ele>2351.1</ele>
        <time>2021-08-15T11:59:32Z</time>
      </trkpt>
      <trkpt lat="45.49099" lon="6.71208">
        <ele>2351.1</ele>
        <time>2021-08-15T11:59:33Z</time>
      </trkpt>
      <trkpt lat="45.49099" lon="6.71208">
        <ele>2351.1</ele>
        <time>2021-08-15T11:59:34Z</time>
      </trkpt>
      <trkpt lat="45.49099" lon="6.71208">
        <ele>2351.1</ele>
        <time>2021-08-15T11:59:35Z</time>
      </trkpt>
      <trkpt lat="45.49099" lon="6.71208">
        <ele>2351.1</ele>
        <time>2021-08-15T11:59:36Z</time>
      </trkpt>
      <trkpt lat="45.49099" lon="6.71208">
        <ele>2351.1</ele>
        <time>2021-08-15T11:59:37Z</time>
      </trkpt>
      <trkpt lat="45.49099" lon="6.71208">
        <ele>2351.1</ele>
        <time>2021-08-15T11:59:38Z</time>
      </trkpt>
      <trkpt lat="45.49099" lon="6.71208">
        <ele>2351.1</ele>
        <time>2021-08-15T11:59:39Z</time>
      </trkpt>
      <trkpt lat="45.49099" lon="6.71208">
        <ele>2351.1</ele>
        <time>2021-08-15T11:59:40Z</time>
      </trkpt>
      <trkpt lat="45.49099" lon="6.71208">
        <ele>2351.1</ele>
        <time>2021-08-15T11:59:41Z</time>
      </trkpt>
      <trkpt lat="45.49099" lon="6.71208">
        <ele>2351.1</ele>
        <time>2021-08-15T11:59:42Z</time>
      </trkpt>
      <trkpt lat="45.49099" lon="6.71208">
        <ele>2351.1</ele>
        <time>2021-08-15T11:59:43Z</time>
      </trkpt>
      <trkpt lat="45.49099" lon="6.71208">
        <ele>2351.1</ele>
        <time>2021-08-15T11:59:44Z</time>
      </trkpt>
      <trkpt lat="45.49099" lon="6.71208">
        <ele>2351.1</ele>
        <time>2021-08-15T11:59:45Z</time>
      </trkpt>
      <trkpt lat="45.49099" lon="6.71208">
        <ele>2351.1</ele>
        <time>2021-08-15T11:59:46Z</time>
      </trkpt>
      <trkpt lat="45.49099" lon="6.71208">
        <ele>2351.1</ele>
        <time>2021-08-15T11:59:47Z</time>
      </trkpt>
      <trkpt lat="45.49099" lon="6.71208">
        <ele>2351.1</ele>
        <time>2021-08-15T11:59:48Z</time>
      </trkpt>
      <trkpt lat="45.49099" lon="6.71208">
        <ele>2351.1</ele>
        <time>2021-08-15T11:59:49Z</time>
      </trkpt>
      <trkpt lat="45.49099" lon="6.71208">
        <ele>2351.1</ele>
        <time>2021-08-15T11:59:50Z</time>
      </trkpt>
      <trkpt lat="45.49099" lon="6.71208">
        <ele>2351.1</ele>
        <time>2021-08-15T11:59:51Z</time>
      </trkpt>
      <trkpt lat="45.49099" lon="6.71208">
        <ele>2351.1</ele>
        <time>2021-08-15T11:59:52Z</time>
      </trkpt>
      <trkpt lat="45.49099" lon="6.71208">
        <ele>2351.1</ele>
        <time>2021-08-15T11:59:53Z</time>
      </trkpt>
      <trkpt lat="45.49099" lon="6.71208">
        <ele>2351.1</ele>
        <time>2021-08-15T11:59:54Z</time>
      </trkpt>
      <trkpt lat="45.49099" lon="6.71208">
        <ele>2351.1</ele>
        <time>2021-08-15T11:59:55Z</time>
      </trkpt>
      <trkpt lat="45.49099" lon="6.71208">
        <ele>2351.1</ele>
        <time>2021-08-15T11:59:56Z</time>
      </trkpt>
      <trkpt lat="45.49099" lon="6.71208">
        <ele>2351.1</ele>
        <time>2021-08-15T11:59:57Z</time>
      </trkpt>
      <trkpt lat="45.49099" lon="6.71208">
        <ele>2351.1</ele>
        <time>2021-08-15T11:59:58Z</time>
      </trkpt>
      <trkpt lat="45.49099" lon="6.71208">
        <ele>2351.1</ele>
        <time>2021-08-15T11:59:59Z</time>
      </trkpt>
      <trkpt lat="45.49099" lon="6.71208">
        <ele>2351.1</ele>
        <time>2021-08-15T12:00:00Z</time>
      </trkpt>
      <trkpt lat="45.49099" lon="6.71208">
        <ele>2351.1</ele>
        <time>2021-08-15T12:00:01Z</time>
      </trkpt>
      <trkpt lat="45.49099" lon="6.71208">
        <ele>2351.1</ele>
        <time>2021-08-15T12:00:02Z</time>
      </trkpt>
      <trkpt lat="45.49099" lon="6.71208">
        <ele>2351.1</ele>
        <time>2021-08-15T12:00:03Z</time>
      </trkpt>
      <trkpt lat="45.49099" lon="6.71208">
        <ele>2351.1</ele>
        <time>2021-08-15T12:00:04Z</time>
      </trkpt>
      <trkpt lat="45.49099" lon="6.71208">
        <ele>2351.1</ele>
        <time>2021-08-15T12:00:05Z</time>
      </trkpt>
      <trkpt lat="45.49099" lon="6.71208">
        <ele>2351.1</ele>
        <time>2021-08-15T12:00:06Z</time>
      </trkpt>
      <trkpt lat="45.49099" lon="6.71208">
        <ele>2351.1</ele>
        <time>2021-08-15T12:00:07Z</time>
      </trkpt>
      <trkpt lat="45.49099" lon="6.71208">
        <ele>2351.1</ele>
        <time>2021-08-15T12:00:08Z</time>
      </trkpt>
      <trkpt lat="45.49099" lon="6.71208">
        <ele>2351.1</ele>
        <time>2021-08-15T12:00:09Z</time>
      </trkpt>
      <trkpt lat="45.49099" lon="6.71208">
        <ele>2351.1</ele>
        <time>2021-08-15T12:00:10Z</time>
      </trkpt>
      <trkpt lat="45.49099" lon="6.71208">
        <ele>2351.1</ele>
        <time>2021-08-15T12:00:11Z</time>
      </trkpt>
      <trkpt lat="45.49099" lon="6.71208">
        <ele>2351.1</ele>
        <time>2021-08-15T12:00:12Z</time>
      </trkpt>
      <trkpt lat="45.49099" lon="6.71208">
        <ele>2351.1</ele>
        <time>2021-08-15T12:00:13Z</time>
      </trkpt>
      <trkpt lat="45.49099" lon="6.71208">
        <ele>2351.1</ele>
        <time>2021-08-15T12:00:14Z</time>
      </trkpt>
      <trkpt lat="45.49099" lon="6.71208">
        <ele>2351.1</ele>
        <time>2021-08-15T12:00:15Z</time>
      </trkpt>
      <trkpt lat="45.49099" lon="6.71208">
        <ele>2351.1</ele>
        <time>2021-08-15T12:00:16Z</time>
      </trkpt>
      <trkpt lat="45.49099" lon="6.71208">
        <ele>2351.1</ele>
        <time>2021-08-15T12:00:17Z</time>
      </trkpt>
      <trkpt lat="45.49099" lon="6.71208">
        <ele>2351.1</ele>
        <time>2021-08-15T12:00:18Z</time>
      </trkpt>
      <trkpt lat="45.49099" lon="6.71208">
        <ele>2351.1</ele>
        <time>2021-08-15T12:00:19Z</time>
      </trkpt>
      <trkpt lat="45.49099" lon="6.71208">
        <ele>2351.1</ele>
        <time>2021-08-15T12:00:20Z</time>
      </trkpt>
      <trkpt lat="45.49099" lon="6.71208">
        <ele>2351.1</ele>
        <time>2021-08-15T12:00:21Z</time>
      </trkpt>
      <trkpt lat="45.49099" lon="6.71208">
        <ele>2351.1</ele>
        <time>2021-08-15T12:00:22Z</time>
      </trkpt>
      <trkpt lat="45.49099" lon="6.71208">
        <ele>2351.1</ele>
        <time>2021-08-15T12:00:23Z</time>
      </trkpt>
      <trkpt lat="45.49099" lon="6.71208">
        <ele>2351.1</ele>
        <time>2021-08-15T12:00:24Z</time>
      </trkpt>
      <trkpt lat="45.49099" lon="6.71208">
        <ele>2351.1</ele>
        <time>2021-08-15T12:00:25Z</time>
      </trkpt>
      <trkpt lat="45.49099" lon="6.71208">
        <ele>2351.1</ele>
        <time>2021-08-15T12:00:26Z</time>
      </trkpt>
      <trkpt lat="45.49099" lon="6.71208">
        <ele>2351.1</ele>
        <time>2021-08-15T12:00:27Z</time>
      </trkpt>
      <trkpt lat="45.49099" lon="6.71208">
        <ele>2351.1</ele>
        <time>2021-08-15T12:00:28Z</time>
      </trkpt>
      <trkpt lat="45.49099" lon="6.71208">
        <ele>2351.1</ele>
        <time>2021-08-15T12:00:29Z</time>
      </trkpt>
      <trkpt lat="45.49099" lon="6.71208">
        <ele>2351.1</ele>
        <time>2021-08-15T12:00:30Z</time>
      </trkpt>
      <trkpt lat="45.49099" lon="6.71208">
        <ele>2351.1</ele>
        <time>2021-08-15T12:00:31Z</time>
      </trkpt>
      <trkpt lat="45.49099" lon="6.71208">
        <ele>2351.1</ele>
        <time>2021-08-15T12:00:32Z</time>
      </trkpt>
      <trkpt lat="45.49099" lon="6.71208">
        <ele>2351.1</ele>
        <time>2021-08-15T12:00:33Z</time>
      </trkpt>
      <trkpt lat="45.49099" lon="6.71208">
        <ele>2351.1</ele>
        <time>2021-08-15T12:00:34Z</time>
      </trkpt>
      <trkpt lat="45.49099" lon="6.71208">
        <ele>2351.1</ele>
        <time>2021-08-15T12:00:35Z</time>
      </trkpt>
      <trkpt lat="45.49099" lon="6.71208">
        <ele>2351.1</ele>
        <time>2021-08-15T12:00:36Z</time>
      </trkpt>
      <trkpt lat="45.49099" lon="6.71208">
        <ele>2351.1</ele>
        <time>2021-08-15T12:00:37Z</time>
      </trkpt>
      <trkpt lat="45.49099" lon="6.71208">
        <ele>2351.1</ele>
        <time>2021-08-15T12:00:38Z</time>
      </trkpt>
      <trkpt lat="45.49099" lon="6.71208">
        <ele>2351.1</ele>
        <time>2021-08-15T12:00:39Z</time>
      </trkpt>
      <trkpt lat="45.49099" lon="6.71208">
        <ele>2351.1</ele>
        <time>2021-08-15T12:00:40Z</time>
      </trkpt>
      <trkpt lat="45.49099" lon="6.71208">
        <ele>2351.1</ele>
        <time>2021-08-15T12:00:41Z</time>
      </trkpt>
      <trkpt lat="45.49099" lon="6.71208">
        <ele>2351.1</ele>
        <time>2021-08-15T12:00:42Z</time>
      </trkpt>
      <trkpt lat="45.49099" lon="6.71208">
        <ele>2351.1</ele>
        <time>2021-08-15T12:00:43Z</time>
      </trkpt>
      <trkpt lat="45.49099" lon="6.71208">
        <ele>2351.1</ele>
        <time>2021-08-15T12:00:44Z</time>
      </trkpt>
      <trkpt lat="45.49099" lon="6.71208">
        <ele>2351.1</ele>
        <time>2021-08-15T12:00:45Z</time>
      </trkpt>
      <trkpt lat="45.49099" lon="6.71208">
        <ele>2351.1</ele>
        <time>2021-08-15T12:00:46Z</time>
      </trkpt>
      <trkpt lat="45.49099" lon="6.71208">
        <ele>2351.1</ele>
        <time>2021-08-15T12:00:47Z</time>
      </trkpt>
      <trkpt lat="45.49099" lon="6.71208">
        <ele>2351.1</ele>
        <time>2021-08-15T12:00:48Z</time>
      </trkpt>
      <trkpt lat="45.49099" lon="6.71208">
        <ele>2351.1</ele>
        <time>2021-08-15T12:00:49Z</time>
      </trkpt>
      <trkpt lat="45.49099" lon="6.71208">
        <ele>2351.1</ele>
        <time>2021-08-15T12:00:50Z</time>
      </trkpt>
      <trkpt lat="45.49099" lon="6.71208">
        <ele>2351.1</ele>
        <time>2021-08-15T12:00:51Z</time>
      </trkpt>
      <trkpt lat="45.49099" lon="6.71208">
        <ele>2351.1</ele>
        <time>2021-08-15T12:00:52Z</time>
      </trkpt>
      <trkpt lat="45.49099" lon="6.71208">
        <ele>2351.1</ele>
        <time>2021-08-15T12:00:53Z</time>
      </trkpt>
      <trkpt lat="45.49099" lon="6.71208">
        <ele>2351.1</ele>
        <time>2021-08-15T12:00:54Z</time>
      </trkpt>
      <trkpt lat="45.49099" lon="6.71208">
        <ele>2351.1</ele>
        <time>2021-08-15T12:00:55Z</time>
      </trkpt>
      <trkpt lat="45.49099" lon="6.71208">
        <ele>2351.1</ele>
        <time>2021-08-15T12:00:56Z</time>
      </trkpt>
      <trkpt lat="45.49099" lon="6.71208">
        <ele>2351.1</ele>
        <time>2021-08-15T12:00:57Z</time>
      </trkpt>
      <trkpt lat="45.49099" lon="6.71208">
        <ele>2351.1</ele>
        <time>2021-08-15T12:00:58Z</time>
      </trkpt>
      <trkpt lat="45.49099" lon="6.71208">
        <ele>2351.1</ele>
        <time>2021-08-15T12:00:59Z</time>
      </trkpt>
      <trkpt lat="45.49099" lon="6.71208">
        <ele>2351.1</ele>
        <time>2021-08-15T12:01:00Z</time>
      </trkpt>
      <trkpt lat="45.49099" lon="6.71208">
        <ele>2351.1</ele>
        <time>2021-08-15T12:01:01Z</time>
      </trkpt>
      <trkpt lat="45.49099" lon="6.71208">
        <ele>2351.1</ele>
        <time>2021-08-15T12:01:02Z</time>
      </trkpt>
      <trkpt lat="45.49099" lon="6.71208">
        <ele>2351.1</ele>
        <time>2021-08-15T12:01:03Z</time>
      </trkpt>
      <trkpt lat="45.49099" lon="6.71208">
        <ele>2351.1</ele>
        <time>2021-08-15T12:01:04Z</time>
      </trkpt>
      <trkpt lat="45.49099" lon="6.71208">
        <ele>2351.1</ele>
        <time>2021-08-15T12:01:05Z</time>
      </trkpt>
      <trkpt lat="45.49099" lon="6.71208">
        <ele>2351.1</ele>
        <time>2021-08-15T12:01:06Z</time>
      </trkpt>
      <trkpt lat="45.49099" lon="6.71208">
        <ele>2351.1</ele>
        <time>2021-08-15T12:01:07Z</time>
      </trkpt>
      <trkpt lat="45.49099" lon="6.71208">
        <ele>2351.1</ele>
        <time>2021-08-15T12:01:08Z</time>
      </trkpt>
      <trkpt lat="45.49099" lon="6.71208">
        <ele>2351.1</ele>
        <time>2021-08-15T12:01:09Z</time>
      </trkpt>
      <trkpt lat="45.49099" lon="6.71208">
        <ele>2351.1</ele>
        <time>2021-08-15T12:01:10Z</time>
      </trkpt>
      <trkpt lat="45.49099" lon="6.71208">
        <ele>2351.1</ele>
        <time>2021-08-15T12:01:11Z</time>
      </trkpt>
      <trkpt lat="45.49099" lon="6.71208">
        <ele>2351.1</ele>
        <time>2021-08-15T12:01:12Z</time>
      </trkpt>
      <trkpt lat="45.49099" lon="6.71208">
        <ele>2351.1</ele>
        <time>2021-08-15T12:01:13Z</time>
      </trkpt>
      <trkpt lat="45.49099" lon="6.71208">
        <ele>2351.1</ele>
        <time>2021-08-15T12:01:14Z</time>
      </trkpt>
      <trkpt lat="45.49099" lon="6.71208">
        <ele>2351.1</ele>
        <time>2021-08-15T12:01:15Z</time>
      </trkpt>
      <trkpt lat="45.49099" lon="6.71208">
        <ele>2351.1</ele>
        <time>2021-08-15T12:01:16Z</time>
      </trkpt>
      <trkpt lat="45.49099" lon="6.71208">
        <ele>2351.1</ele>
        <time>2021-08-15T12:01:17Z</time>
      </trkpt>
      <trkpt lat="45.49099" lon="6.71208">
        <ele>2351.1</ele>
        <time>2021-08-15T12:01:18Z</time>
      </trkpt>
      <trkpt lat="45.49099" lon="6.71208">
        <ele>2351.1</ele>
        <time>2021-08-15T12:01:19Z</time>
      </trkpt>
      <trkpt lat="45.49099" lon="6.71208">
        <ele>2351.1</ele>
        <time>2021-08-15T12:01:20Z</time>
      </trkpt>
      <trkpt lat="45.49099" lon="6.71208">
        <ele>2351.1</ele>
        <time>2021-08-15T12:01:21Z</time>
      </trkpt>
      <trkpt lat="45.49099" lon="6.71208">
        <ele>2351.1</ele>
        <time>2021-08-15T12:01:22Z</time>
      </trkpt>
      <trkpt lat="45.49099" lon="6.71208">
        <ele>2351.1</ele>
        <time>2021-08-15T12:01:23Z</time>
      </trkpt>
      <trkpt lat="45.49099" lon="6.71208">
        <ele>2351.1</ele>
        <time>2021-08-15T12:01:24Z</time>
      </trkpt>
      <trkpt lat="45.49099" lon="6.71208">
        <ele>2351.1</ele>
        <time>2021-08-15T12:01:25Z</time>
      </trkpt>
      <trkpt lat="45.49099" lon="6.71208">
        <ele>2351.1</ele>
        <time>2021-08-15T12:01:26Z</time>
      </trkpt>
      <trkpt lat="45.49099" lon="6.71208">
        <ele>2351.1</ele>
        <time>2021-08-15T12:01:27Z</time>
      </trkpt>
      <trkpt lat="45.49099" lon="6.71208">
        <ele>2351.1</ele>
        <time>2021-08-15T12:01:28Z</time>
      </trkpt>
      <trkpt lat="45.49099" lon="6.71208">
        <ele>2351.1</ele>
        <time>2021-08-15T12:01:29Z</time>
      </trkpt>
      <trkpt lat="45.49099" lon="6.71208">
        <ele>2351.1</ele>
        <time>2021-08-15T12:01:30Z</time>
      </trkpt>
      <trkpt lat="45.49099" lon="6.71208">
        <ele>2351.1</ele>
        <time>2021-08-15T12:01:31Z</time>
      </trkpt>
      <trkpt lat="45.49099" lon="6.71208">
        <ele>2351.1</ele>
        <time>2021-08-15T12:01:32Z</time>
      </trkpt>
      <trkpt lat="45.49099" lon="6.71208">
        <ele>2351.1</ele>
        <time>2021-08-15T12:01:33Z</time>
      </trkpt>
      <trkpt lat="45.49099" lon="6.71208">
        <ele>2351.1</ele>
        <time>2021-08-15T12:01:34Z</time>
      </trkpt>
      <trkpt lat="45.49099" lon="6.71208">
        <ele>2351.1</ele>
        <time>2021-08-15T12:01:35Z</time>
      </trkpt>
      <trkpt lat="45.49099" lon="6.71208">
        <ele>2351.1</ele>
        <time>2021-08-15T12:01:36Z</time>
      </trkpt>
      <trkpt lat="45.49099" lon="6.71208">
        <ele>2351.1</ele>
        <time>2021-08-15T12:01:37Z</time>
      </trkpt>
      <trkpt lat="45.49099" lon="6.71208">
        <ele>2351.1</ele>
        <time>2021-08-15T12:01:38Z</time>
      </trkpt>
      <trkpt lat="45.49099" lon="6.71208">
        <ele>2351.1</ele>
        <time>2021-08-15T12:01:39Z</time>
      </trkpt>
      <trkpt lat="45.49099" lon="6.71208">
        <ele>2351.1</ele>
        <time>2021-08-15T12:01:40Z</time>
      </trkpt>
      <trkpt lat="45.49099" lon="6.71208">
        <ele>2351.1</ele>
        <time>2021-08-15T12:01:41Z</time>
      </trkpt>
      <trkpt lat="45.49099" lon="6.71208">
        <ele>2351.1</ele>
        <time>2021-08-15T12:01:42Z</time>
      </trkpt>
      <trkpt lat="45.49099" lon="6.71208">
        <ele>2351.1</ele>
        <time>2021-08-15T12:01:43Z</time>
      </trkpt>
      <trkpt lat="45.49099" lon="6.71208">
        <ele>2351.1</ele>
        <time>2021-08-15T12:01:44Z</time>
      </trkpt>
      <trkpt lat="45.49099" lon="6.71208">
        <ele>2351.1</ele>
        <time>2021-08-15T12:01:45Z</time>
      </trkpt>
      <trkpt lat="45.49099" lon="6.71208">
        <ele>2351.1</ele>
        <time>2021-08-15T12:01:46Z</time>
      </trkpt>
      <trkpt lat="45.49099" lon="6.71208">
        <ele>2351.1</ele>
        <time>2021-08-15T12:01:47Z</time>
      </trkpt>
      <trkpt lat="45.49099" lon="6.71208">
        <ele>2351.1</ele>
        <time>2021-08-15T12:01:48Z</time>
      </trkpt>
      <trkpt lat="45.49099" lon="6.71208">
        <ele>2351.1</ele>
        <time>2021-08-15T12:01:49Z</time>
      </trkpt>
      <trkpt lat="45.49099" lon="6.71208">
        <ele>2351.1</ele>
        <time>2021-08-15T12:01:50Z</time>
      </trkpt>
      <trkpt lat="45.49099" lon="6.71208">
        <ele>2351.1</ele>
        <time>2021-08-15T12:01:51Z</time>
      </trkpt>
      <trkpt lat="45.49099" lon="6.71208">
        <ele>2351.1</ele>
        <time>2021-08-15T12:01:52Z</time>
      </trkpt>
      <trkpt lat="45.49099" lon="6.71208">
        <ele>2351.1</ele>
        <time>2021-08-15T12:01:53Z</time>
      </trkpt>
      <trkpt lat="45.49099" lon="6.71208">
        <ele>2351.1</ele>
        <time>2021-08-15T12:01:54Z</time>
      </trkpt>
      <trkpt lat="45.49099" lon="6.71208">
        <ele>2351.1</ele>
        <time>2021-08-15T12:01:55Z</time>
      </trkpt>
      <trkpt lat="45.49099" lon="6.71208">
        <ele>2351.1</ele>
        <time>2021-08-15T12:01:56Z</time>
      </trkpt>
      <trkpt lat="45.49099" lon="6.71208">
        <ele>2351.1</ele>
        <time>2021-08-15T12:01:57Z</time>
      </trkpt>
      <trkpt lat="45.49099" lon="6.71208">
        <ele>2351.1</ele>
        <time>2021-08-15T12:01:58Z</time>
      </trkpt>
      <trkpt lat="45.49099" lon="6.71208">
        <ele>2351.1</ele>
        <time>2021-08-15T12:01:59Z</time>
      </trkpt>
      <trkpt lat="45.49099" lon="6.71208">
        <ele>2351.1</ele>
        <time>2021-08-15T12:02:00Z</time>
      </trkpt>
      <trkpt lat="45.49099" lon="6.71208">
        <ele>2351.1</ele>
        <time>2021-08-15T12:02:01Z</time>
      </trkpt>
      <trkpt lat="45.49099" lon="6.71208">
        <ele>2351.1</ele>
        <time>2021-08-15T12:02:02Z</time>
      </trkpt>
      <trkpt lat="45.49099" lon="6.71208">
        <ele>2351.1</ele>
        <time>2021-08-15T12:02:03Z</time>
      </trkpt>
      <trkpt lat="45.49099" lon="6.71208">
        <ele>2351.1</ele>
        <time>2021-08-15T12:02:04Z</time>
      </trkpt>
      <trkpt lat="45.49099" lon="6.71208">
        <ele>2351.1</ele>
        <time>2021-08-15T12:02:05Z</time>
      </trkpt>
      <trkpt lat="45.49099" lon="6.71208">
        <ele>2351.1</ele>
        <time>2021-08-15T12:02:06Z</time>
      </trkpt>
      <trkpt lat="45.49099" lon="6.71208">
        <ele>2351.1</ele>
        <time>2021-08-15T12:02:07Z</time>
      </trkpt>
      <trkpt lat="45.49099" lon="6.71208">
        <ele>2351.1</ele>
        <time>2021-08-15T12:02:08Z</time>
      </trkpt>
      <trkpt lat="45.49099" lon="6.71208">
        <ele>2351.1</ele>
        <time>2021-08-15T12:02:09Z</time>
      </trkpt>
      <trkpt lat="45.49099" lon="6.71208">
        <ele>2351.1</ele>
        <time>2021-08-15T12:02:10Z</time>
      </trkpt>
      <trkpt lat="45.49099" lon="6.71208">
        <ele>2351.1</ele>
        <time>2021-08-15T12:02:11Z</time>
      </trkpt>
      <trkpt lat="45.49099" lon="6.71208">
        <ele>2351.1</ele>
        <time>2021-08-15T12:02:12Z</time>
      </trkpt>
      <trkpt lat="45.49099" lon="6.71208">
        <ele>2351.1</ele>
        <time>2021-08-15T12:02:13Z</time>
      </trkpt>
      <trkpt lat="45.49099" lon="6.71208">
        <ele>2351.1</ele>
        <time>2021-08-15T12:02:14Z</time>
      </trkpt>
      <trkpt lat="45.49099" lon="6.71208">
        <ele>2351.1</ele>
        <time>2021-08-15T12:02:15Z</time>
      </trkpt>
      <trkpt lat="45.49099" lon="6.71208">
        <ele>2351.1</ele>
        <time>2021-08-15T12:02:16Z</time>
      </trkpt>
      <trkpt lat="45.49099" lon="6.71208">
        <ele>2351.1</ele>
        <time>2021-08-15T12:02:17Z</time>
      </trkpt>
      <trkpt lat="45.49099" lon="6.71208">
        <ele>2351.1</ele>
        <time>2021-08-15T12:02:18Z</time>
      </trkpt>
      <trkpt lat="45.49099" lon="6.71208">
        <ele>2351.1</ele>
        <time>2021-08-15T12:02:19Z</time>
      </trkpt>
      <trkpt lat="45.49099" lon="6.71208">
        <ele>2351.1</ele>
        <time>2021-08-15T12:02:20Z</time>
      </trkpt>
      <trkpt lat="45.49099" lon="6.71208">
        <ele>2351.1</ele>
        <time>2021-08-15T12:02:21Z</time>
      </trkpt>
      <trkpt lat="45.49099" lon="6.71208">
        <ele>2351.1</ele>
        <time>2021-08-15T12:02:22Z</time>
      </trkpt>
      <trkpt lat="45.49099" lon="6.71208">
        <ele>2351.1</ele>
        <time>2021-08-15T12:02:23Z</time>
      </trkpt>
      <trkpt lat="45.49099" lon="6.71208">
        <ele>2351.1</ele>
        <time>2021-08-15T12:02:24Z</time>
      </trkpt>
      <trkpt lat="45.49099" lon="6.71208">
        <ele>2351.1</ele>
        <time>2021-08-15T12:02:25Z</time>
      </trkpt>
      <trkpt lat="45.49099" lon="6.71208">
        <ele>2351.1</ele>
        <time>2021-08-15T12:02:26Z</time>
      </trkpt>
      <trkpt lat="45.49099" lon="6.71208">
        <ele>2351.1</ele>
        <time>2021-08-15T12:02:27Z</time>
      </trkpt>
      <trkpt lat="45.49099" lon="6.71208">
        <ele>2351.1</ele>
        <time>2021-08-15T12:02:28Z</time>
      </trkpt>
      <trkpt lat="45.49099" lon="6.71208">
        <ele>2351.1</ele>
        <time>2021-08-15T12:02:29Z</time>
      </trkpt>
      <trkpt lat="45.49099" lon="6.71208">
        <ele>2351.1</ele>
        <time>2021-08-15T12:02:30Z</time>
      </trkpt>
      <trkpt lat="45.49099" lon="6.71208">
        <ele>2351.1</ele>
        <time>2021-08-15T12:02:31Z</time>
      </trkpt>
      <trkpt lat="45.49099" lon="6.71208">
        <ele>2351.1</ele>
        <time>2021-08-15T12:02:32Z</time>
      </trkpt>
      <trkpt lat="45.49099" lon="6.71208">
        <ele>2351.1</ele>
        <time>2021-08-15T12:02:33Z</time>
      </trkpt>
      <trkpt lat="45.49099" lon="6.71208">
        <ele>2351.1</ele>
        <time>2021-08-15T12:02:34Z</time>
      </trkpt>
      <trkpt lat="45.49099" lon="6.71208">
        <ele>2351.1</ele>
        <time>2021-08-15T12:02:35Z</time>
      </trkpt>
      <trkpt lat="45.49099" lon="6.71208">
        <ele>2351.1</ele>
        <time>2021-08-15T12:02:36Z</time>
      </trkpt>
      <trkpt lat="45.49099" lon="6.71208">
        <ele>2351.1</ele>
        <time>2021-08-15T12:02:37Z</time>
      </trkpt>
      <trkpt lat="45.49099" lon="6.71208">
        <ele>2351.1</ele>
        <time>2021-08-15T12:02:38Z</time>
      </trkpt>
      <trkpt lat="45.49099" lon="6.71208">
        <ele>2351.1</ele>
        <time>2021-08-15T12:02:39Z</time>
      </trkpt>
      <trkpt lat="45.49099" lon="6.71208">
        <ele>2351.1</ele>
        <time>2021-08-15T12:02:40Z</time>
      </trkpt>
      <trkpt lat="45.49099" lon="6.71208">
        <ele>2351.1</ele>
        <time>2021-08-15T12:02:41Z</time>
      </trkpt>
      <trkpt lat="45.49099" lon="6.71208">
        <ele>2351.1</ele>
        <time>2021-08-15T12:02:42Z</time>
      </trkpt>
      <trkpt lat="45.49099" lon="6.71208">
        <ele>2351.1</ele>
        <time>2021-08-15T12:02:43Z</time>
      </trkpt>
      <trkpt lat="45.49099" lon="6.71208">
        <ele>2351.1</ele>
        <time>2021-08-15T12:02:44Z</time>
      </trkpt>
      <trkpt lat="45.49099" lon="6.71208">
        <ele>2351.1</ele>
        <time>2021-08-15T12:02:45Z</time>
      </trkpt>
      <trkpt lat="45.49099" lon="6.71208">
        <ele>2351.1</ele>
        <time>2021-08-15T12:02:46Z</time>
      </trkpt>
      <trkpt lat="45.49099" lon="6.71208">
        <ele>2351.1</ele>
        <time>2021-08-15T12:02:47Z</time>
      </trkpt>
      <trkpt lat="45.49099" lon="6.71208">
        <ele>2351.1</ele>
        <time>2021-08-15T12:02:48Z</time>
      </trkpt>
      <trkpt lat="45.49099" lon="6.71208">
        <ele>2351.1</ele>
        <time>2021-08-15T12:02:49Z</time>
      </trkpt>
      <trkpt lat="45.49099" lon="6.71208">
        <ele>2351.1</ele>
        <time>2021-08-15T12:02:50Z</time>
      </trkpt>
      <trkpt lat="45.49099" lon="6.71208">
        <ele>2351.1</ele>
        <time>2021-08-15T12:02:51Z</time>
      </trkpt>
      <trkpt lat="45.49099" lon="6.71208">
        <ele>2351.1</ele>
        <time>2021-08-15T12:02:52Z</time>
      </trkpt>
      <trkpt lat="45.49099" lon="6.71208">
        <ele>2351.1</ele>
        <time>2021-08-15T12:02:53Z</time>
      </trkpt>
      <trkpt lat="45.49099" lon="6.71208">
        <ele>2351.1</ele>
        <time>2021-08-15T12:02:54Z</time>
      </trkpt>
      <trkpt lat="45.49099" lon="6.71208">
        <ele>2351.1</ele>
        <time>2021-08-15T12:02:55Z</time>
      </trkpt>
      <trkpt lat="45.49099" lon="6.71208">
        <ele>2351.1</ele>
        <time>2021-08-15T12:02:56Z</time>
      </trkpt>
      <trkpt lat="45.49099" lon="6.71208">
        <ele>2351.1</ele>
        <time>2021-08-15T12:02:57Z</time>
      </trkpt>
      <trkpt lat="45.49099" lon="6.71208">
        <ele>2351.1</ele>
        <time>2021-08-15T12:02:58Z</time>
      </trkpt>
      <trkpt lat="45.49099" lon="6.71208">
        <ele>2351.1</ele>
        <time>2021-08-15T12:02:59Z</time>
      </trkpt>
      <trkpt lat="45.49099" lon="6.71208">
        <ele>2351.1</ele>
        <time>2021-08-15T12:03:00Z</time>
      </trkpt>
      <trkpt lat="45.49099" lon="6.71208">
        <ele>2351.1</ele>
        <time>2021-08-15T12:03:01Z</time>
      </trkpt>
      <trkpt lat="45.49099" lon="6.71208">
        <ele>2351.1</ele>
        <time>2021-08-15T12:03:02Z</time>
      </trkpt>
      <trkpt lat="45.49099" lon="6.71208">
        <ele>2351.1</ele>
        <time>2021-08-15T12:03:03Z</time>
      </trkpt>
      <trkpt lat="45.49099" lon="6.71208">
        <ele>2351.1</ele>
        <time>2021-08-15T12:03:04Z</time>
      </trkpt>
      <trkpt lat="45.49099" lon="6.71208">
        <ele>2351.1</ele>
        <time>2021-08-15T12:03:05Z</time>
      </trkpt>
      <trkpt lat="45.49099" lon="6.71208">
        <ele>2351.1</ele>
        <time>2021-08-15T12:03:06Z</time>
      </trkpt>
      <trkpt lat="45.49099" lon="6.71208">
        <ele>2351.1</ele>
        <time>2021-08-15T12:03:07Z</time>
      </trkpt>
      <trkpt lat="45.49099" lon="6.71208">
        <ele>2351.1</ele>
        <time>2021-08-15T12:03:08Z</time>
      </trkpt>
      <trkpt lat="45.49099" lon="6.71208">
        <ele>2351.1</ele>
        <time>2021-08-15T12:03:09Z</time>
      </trkpt>
      <trkpt lat="45.49099" lon="6.71208">
        <ele>2351.1</ele>
        <time>2021-08-15T12:03:10Z</time>
      </trkpt>
      <trkpt lat="45.49099" lon="6.71208">
        <ele>2351.1</ele>
        <time>2021-08-15T12:03:11Z</time>
      </trkpt>
      <trkpt lat="45.49099" lon="6.71208">
        <ele>2351.1</ele>
        <time>2021-08-15T12:03:12Z</time>
      </trkpt>
      <trkpt lat="45.49099" lon="6.71208">
        <ele>2351.1</ele>
        <time>2021-08-15T12:03:13Z</time>
      </trkpt>
      <trkpt lat="45.49099" lon="6.71208">
        <ele>2351.1</ele>
        <time>2021-08-15T12:03:14Z</time>
      </trkpt>
      <trkpt lat="45.49099" lon="6.71208">
        <ele>2351.1</ele>
        <time>2021-08-15T12:03:15Z</time>
      </trkpt>
      <trkpt lat="45.49099" lon="6.71208">
        <ele>2351.1</ele>
        <time>2021-08-15T12:03:16Z</time>
      </trkpt>
      <trkpt lat="45.49099" lon="6.71208">
        <ele>2351.1</ele>
        <time>2021-08-15T12:03:17Z</time>
      </trkpt>
      <trkpt lat="45.49099" lon="6.71208">
        <ele>2351.1</ele>
        <time>2021-08-15T12:03:18Z</time>
      </trkpt>
      <trkpt lat="45.49099" lon="6.71208">
        <ele>2351.1</ele>
        <time>2021-08-15T12:03:19Z</time>
      </trkpt>
      <trkpt lat="45.49099" lon="6.71208">
        <ele>2351.1</ele>
        <time>2021-08-15T12:03:20Z</time>
      </trkpt>
      <trkpt lat="45.49099" lon="6.71208">
        <ele>2351.1</ele>
        <time>2021-08-15T12:03:21Z</time>
      </trkpt>
      <trkpt lat="45.49099" lon="6.71208">
        <ele>2351.1</ele>
        <time>2021-08-15T12:03:22Z</time>
      </trkpt>
      <trkpt lat="45.49099" lon="6.71208">
        <ele>2351.1</ele>
        <time>2021-08-15T12:03:23Z</time>
      </trkpt>
      <trkpt lat="45.49099" lon="6.71208">
        <ele>2351.1</ele>
        <time>2021-08-15T12:03:24Z</time>
      </trkpt>
      <trkpt lat="45.49099" lon="6.71208">
        <ele>2351.1</ele>
        <time>2021-08-15T12:03:25Z</time>
      </trkpt>
      <trkpt lat="45.49099" lon="6.71208">
        <ele>2351.1</ele>
        <time>2021-08-15T12:03:26Z</time>
      </trkpt>
      <trkpt lat="45.49099" lon="6.71208">
        <ele>2351.1</ele>
        <time>2021-08-15T12:03:27Z</time>
      </trkpt>
      <trkpt lat="45.49099" lon="6.71208">
        <ele>2351.1</ele>
        <time>2021-08-15T12:03:28Z</time>
      </trkpt>
      <trkpt lat="45.49099" lon="6.71208">
        <ele>2351.1</ele>
        <time>2021-08-15T12:03:29Z</time>
      </trkpt>
      <trkpt lat="45.49099" lon="6.71208">
        <ele>2351.1</ele>
        <time>2021-08-15T12:03:30Z</time>
      </trkpt>
      <trkpt lat="45.49099" lon="6.71208">
        <ele>2351.1</ele>
        <time>2021-08-15T12:03:31Z</time>
      </trkpt>
      <trkpt lat="45.49099" lon="6.71208">
        <ele>2351.1</ele>
        <time>2021-08-15T12:03:32Z</time>
      </trkpt>
      <trkpt lat="45.49099" lon="6.71208">
        <ele>2351.1</ele>
        <time>2021-08-15T12:03:33Z</time>
      </trkpt>
      <trkpt lat="45.49099" lon="6.71208">
        <ele>2351.1</ele>
        <time>2021-08-15T12:03:34Z</time>
      </trkpt>
      <trkpt lat="45.49099" lon="6.71208">
        <ele>2351.1</ele>
        <time>2021-08-15T12:03:35Z</time>
      </trkpt>
      <trkpt lat="45.49099" lon="6.71208">
        <ele>2351.1</ele>
        <time>2021-08-15T12:03:36Z</time>
      </trkpt>
      <trkpt lat="45.49099" lon="6.71208">
        <ele>2351.1</ele>
        <time>2021-08-15T12:03:37Z</time>
      </trkpt>
      <trkpt lat="45.49099" lon="6.71208">
        <ele>2351.1</ele>
        <time>2021-08-15T12:03:38Z</time>
      </trkpt>
      <trkpt lat="45.49099" lon="6.71208">
        <ele>2351.1</ele>
        <time>2021-08-15T12:03:39Z</time>
      </trkpt>
      <trkpt lat="45.49099" lon="6.71208">
        <ele>2351.1</ele>
        <time>2021-08-15T12:03:40Z</time>
      </trkpt>
      <trkpt lat="45.49099" lon="6.71208">
        <ele>2351.1</ele>
        <time>2021-08-15T12:03:41Z</time>
      </trkpt>
      <trkpt lat="45.49099" lon="6.71208">
        <ele>2351.1</ele>
        <time>2021-08-15T12:03:42Z</time>
      </trkpt>
      <trkpt lat="45.49099" lon="6.71208">
        <ele>2351.1</ele>
        <time>2021-08-15T12:03:43Z</time>
      </trkpt>
      <trkpt lat="45.49099" lon="6.71208">
        <ele>2351.1</ele>
        <time>2021-08-15T12:03:44Z</time>
      </trkpt>
      <trkpt lat="45.49099" lon="6.71208">
        <ele>2351.1</ele>
        <time>2021-08-15T12:03:45Z</time>
      </trkpt>
      <trkpt lat="45.49099" lon="6.71208">
        <ele>2351.1</ele>
        <time>2021-08-15T12:03:46Z</time>
      </trkpt>
      <trkpt lat="45.49099" lon="6.71208">
        <ele>2351.1</ele>
        <time>2021-08-15T12:03:47Z</time>
      </trkpt>
      <trkpt lat="45.49099" lon="6.71208">
        <ele>2351.1</ele>
        <time>2021-08-15T12:03:48Z</time>
      </trkpt>
      <trkpt lat="45.49099" lon="6.71208">
        <ele>2351.1</ele>
        <time>2021-08-15T12:03:49Z</time>
      </trkpt>
      <trkpt lat="45.49099" lon="6.71208">
        <ele>2351.1</ele>
        <time>2021-08-15T12:03:50Z</time>
      </trkpt>
      <trkpt lat="45.49099" lon="6.71208">
        <ele>2351.1</ele>
        <time>2021-08-15T12:03:51Z</time>
      </trkpt>
      <trkpt lat="45.49099" lon="6.71208">
        <ele>2351.1</ele>
        <time>2021-08-15T12:03:52Z</time>
      </trkpt>
      <trkpt lat="45.49099" lon="6.71208">
        <ele>2351.1</ele>
        <time>2021-08-15T12:03:53Z</time>
      </trkpt>
      <trkpt lat="45.49099" lon="6.71208">
        <ele>2351.1</ele>
        <time>2021-08-15T12:03:54Z</time>
      </trkpt>
      <trkpt lat="45.49099" lon="6.71208">
        <ele>2351.1</ele>
        <time>2021-08-15T12:03:55Z</time>
      </trkpt>
      <trkpt lat="45.49099" lon="6.71208">
        <ele>2351.1</ele>
        <time>2021-08-15T12:03:56Z</time>
      </trkpt>
      <trkpt lat="45.49099" lon="6.71208">
        <ele>2351.1</ele>
        <time>2021-08-15T12:03:57Z</time>
      </trkpt>
      <trkpt lat="45.49099" lon="6.71208">
        <ele>2351.1</ele>
        <time>2021-08-15T12:03:58Z</time>
      </trkpt>
      <trkpt lat="45.49099" lon="6.71208">
        <ele>2351.1</ele>
        <time>2021-08-15T12:03:59Z</time>
      </trkpt>
      <trkpt lat="45.49099" lon="6.71208">
        <ele>2351.1</ele>
        <time>2021-08-15T12:04:00Z</time>
      </trkpt>
      <trkpt lat="45.49099" lon="6.71208">
        <ele>2351.1</ele>
        <time>2021-08-15T12:04:01Z</time>
      </trkpt>
      <trkpt lat="45.49099" lon="6.71208">
        <ele>2351.1</ele>
        <time>2021-08-15T12:04:02Z</time>
      </trkpt>
      <trkpt lat="45.49099" lon="6.71208">
        <ele>2351.1</ele>
        <time>2021-08-15T12:04:03Z</time>
      </trkpt>
      <trkpt lat="45.49099" lon="6.71208">
        <ele>2351.1</ele>
        <time>2021-08-15T12:04:04Z</time>
      </trkpt>
      <trkpt lat="45.49099" lon="6.71208">
        <ele>2351.1</ele>
        <time>2021-08-15T12:04:05Z</time>
      </trkpt>
      <trkpt lat="45.49099" lon="6.71208">
        <ele>2351.1</ele>
        <time>2021-08-15T12:04:06Z</time>
      </trkpt>
      <trkpt lat="45.49099" lon="6.71208">
        <ele>2351.1</ele>
        <time>2021-08-15T12:04:07Z</time>
      </trkpt>
      <trkpt lat="45.49099" lon="6.71208">
        <ele>2351.1</ele>
        <time>2021-08-15T12:04:08Z</time>
      </trkpt>
      <trkpt lat="45.49099" lon="6.71208">
        <ele>2351.1</ele>
        <time>2021-08-15T12:04:09Z</time>
      </trkpt>
      <trkpt lat="45.49099" lon="6.71208">
        <ele>2351.1</ele>
        <time>2021-08-15T12:04:10Z</time>
      </trkpt>
      <trkpt lat="45.49099" lon="6.71208">
        <ele>2351.1</ele>
        <time>2021-08-15T12:04:11Z</time>
      </trkpt>
      <trkpt lat="45.49099" lon="6.71208">
        <ele>2351.1</ele>
        <time>2021-08-15T12:04:12Z</time>
      </trkpt>
      <trkpt lat="45.49099" lon="6.71208">
        <ele>2351.1</ele>
        <time>2021-08-15T12:04:13Z</time>
      </trkpt>
      <trkpt lat="45.49099" lon="6.71208">
        <ele>2351.1</ele>
        <time>2021-08-15T12:04:14Z</time>
      </trkpt>
      <trkpt lat="45.49099" lon="6.71208">
        <ele>2351.1</ele>
        <time>2021-08-15T12:04:15Z</time>
      </trkpt>
      <trkpt lat="45.49099" lon="6.71208">
        <ele>2351.1</ele>
        <time>2021-08-15T12:04:16Z</time>
      </trkpt>
      <trkpt lat="45.49099" lon="6.71208">
        <ele>2351.1</ele>
        <time>2021-08-15T12:04:17Z</time>
      </trkpt>
      <trkpt lat="45.49099" lon="6.71208">
        <ele>2351.1</ele>
        <time>2021-08-15T12:04:18Z</time>
      </trkpt>
      <trkpt lat="45.49099" lon="6.71208">
        <ele>2351.1</ele>
        <time>2021-08-15T12:04:19Z</time>
      </trkpt>
      <trkpt lat="45.49099" lon="6.71208">
        <ele>2351.1</ele>
        <time>2021-08-15T12:04:20Z</time>
      </trkpt>
      <trkpt lat="45.49099" lon="6.71208">
        <ele>2351.1</ele>
        <time>2021-08-15T12:04:21Z</time>
      </trkpt>
      <trkpt lat="45.49099" lon="6.71208">
        <ele>2351.1</ele>
        <time>2021-08-15T12:04:22Z</time>
      </trkpt>
      <trkpt lat="45.49099" lon="6.71208">
        <ele>2351.1</ele>
        <time>2021-08-15T12:04:23Z</time>
      </trkpt>
      <trkpt lat="45.49099" lon="6.71208">
        <ele>2351.1</ele>
        <time>2021-08-15T12:04:24Z</time>
      </trkpt>
      <trkpt lat="45.49099" lon="6.71208">
        <ele>2351.1</ele>
        <time>2021-08-15T12:04:25Z</time>
      </trkpt>
      <trkpt lat="45.49099" lon="6.71208">
        <ele>2351.1</ele>
        <time>2021-08-15T12:04:26Z</time>
      </trkpt>
      <trkpt lat="45.49099" lon="6.71208">
        <ele>2351.1</ele>
        <time>2021-08-15T12:04:27Z</time>
      </trkpt>
      <trkpt lat="45.49099" lon="6.71208">
        <ele>2351.1</ele>
        <time>2021-08-15T12:04:28Z</time>
      </trkpt>
      <trkpt lat="45.49099" lon="6.71208">
        <ele>2351.1</ele>
        <time>2021-08-15T12:04:29Z</time>
      </trkpt>
      <trkpt lat="45.49099" lon="6.71208">
        <ele>2351.1</ele>
        <time>2021-08-15T12:04:30Z</time>
      </trkpt>
      <trkpt lat="45.49099" lon="6.71208">
        <ele>2351.1</ele>
        <time>2021-08-15T12:04:31Z</time>
      </trkpt>
      <trkpt lat="45.49099" lon="6.71208">
        <ele>2351.1</ele>
        <time>2021-08-15T12:04:32Z</time>
      </trkpt>
      <trkpt lat="45.49099" lon="6.71208">
        <ele>2351.1</ele>
        <time>2021-08-15T12:04:33Z</time>
      </trkpt>
      <trkpt lat="45.49099" lon="6.71208">
        <ele>2351.1</ele>
        <time>2021-08-15T12:04:34Z</time>
      </trkpt>
      <trkpt lat="45.49099" lon="6.71208">
        <ele>2351.1</ele>
        <time>2021-08-15T12:04:35Z</time>
      </trkpt>
      <trkpt lat="45.49099" lon="6.71208">
        <ele>2351.1</ele>
        <time>2021-08-15T12:04:36Z</time>
      </trkpt>
      <trkpt lat="45.49099" lon="6.71208">
        <ele>2351.1</ele>
        <time>2021-08-15T12:04:37Z</time>
      </trkpt>
      <trkpt lat="45.49099" lon="6.71208">
        <ele>2351.1</ele>
        <time>2021-08-15T12:04:38Z</time>
      </trkpt>
      <trkpt lat="45.49099" lon="6.71208">
        <ele>2351.1</ele>
        <time>2021-08-15T12:04:39Z</time>
      </trkpt>
      <trkpt lat="45.49099" lon="6.71208">
        <ele>2351.1</ele>
        <time>2021-08-15T12:04:40Z</time>
      </trkpt>
      <trkpt lat="45.49099" lon="6.71208">
        <ele>2351.1</ele>
        <time>2021-08-15T12:04:41Z</time>
      </trkpt>
      <trkpt lat="45.49099" lon="6.71208">
        <ele>2351.1</ele>
        <time>2021-08-15T12:04:42Z</time>
      </trkpt>
      <trkpt lat="45.49099" lon="6.71208">
        <ele>2351.1</ele>
        <time>2021-08-15T12:04:43Z</time>
      </trkpt>
      <trkpt lat="45.49099" lon="6.71208">
        <ele>2351.1</ele>
        <time>2021-08-15T12:04:44Z</time>
      </trkpt>
      <trkpt lat="45.49099" lon="6.71208">
        <ele>2351.1</ele>
        <time>2021-08-15T12:04:45Z</time>
      </trkpt>
      <trkpt lat="45.49099" lon="6.71208">
        <ele>2351.1</ele>
        <time>2021-08-15T12:04:46Z</time>
      </trkpt>
      <trkpt lat="45.49099" lon="6.71208">
        <ele>2351.1</ele>
        <time>2021-08-15T12:04:47Z</time>
      </trkpt>
      <trkpt lat="45.49099" lon="6.71208">
        <ele>2351.1</ele>
        <time>2021-08-15T12:04:48Z</time>
      </trkpt>
      <trkpt lat="45.49099" lon="6.71208">
        <ele>2351.1</ele>
        <time>2021-08-15T12:04:49Z</time>
      </trkpt>
      <trkpt lat="45.49099" lon="6.71208">
        <ele>2351.1</ele>
        <time>2021-08-15T12:04:50Z</time>
      </trkpt>
      <trkpt lat="45.49099" lon="6.71208">
        <ele>2351.1</ele>
        <time>2021-08-15T12:04:51Z</time>
      </trkpt>
      <trkpt lat="45.49099" lon="6.71208">
        <ele>2351.1</ele>
        <time>2021-08-15T12:04:52Z</time>
      </trkpt>
      <trkpt lat="45.49099" lon="6.71208">
        <ele>2351.1</ele>
        <time>2021-08-15T12:04:53Z</time>
      </trkpt>
      <trkpt lat="45.49099" lon="6.71208">
        <ele>2351.1</ele>
        <time>2021-08-15T12:04:54Z</time>
      </trkpt>
      <trkpt lat="45.49099" lon="6.71208">
        <ele>2351.1</ele>
        <time>2021-08-15T12:04:55Z</time>
      </trkpt>
      <trkpt lat="45.49099" lon="6.71208">
        <ele>2351.1</ele>
        <time>2021-08-15T12:04:56Z</time>
      </trkpt>
      <trkpt lat="45.49099" lon="6.71208">
        <ele>2351.1</ele>
        <time>2021-08-15T12:04:57Z</time>
      </trkpt>
      <trkpt lat="45.49099" lon="6.71208">
        <ele>2351.1</ele>
        <time>2021-08-15T12:04:58Z</time>
      </trkpt>
      <trkpt lat="45.49099" lon="6.71208">
        <ele>2351.1</ele>
        <time>2021-08-15T12:04:59Z</time>
      </trkpt>
      <trkpt lat="45.49099" lon="6.71208">
        <ele>2351.1</ele>
        <time>2021-08-15T12:05:00Z</time>
      </trkpt>
      <trkpt lat="45.49099" lon="6.71208">
        <ele>2351.1</ele>
        <time>2021-08-15T12:05:01Z</time>
      </trkpt>
      <trkpt lat="45.49099" lon="6.71208">
        <ele>2351.1</ele>
        <time>2021-08-15T12:05:02Z</time>
      </trkpt>
      <trkpt lat="45.49099" lon="6.71208">
        <ele>2351.1</ele>
        <time>2021-08-15T12:05:03Z</time>
      </trkpt>
      <trkpt lat="45.49099" lon="6.71208">
        <ele>2351.1</ele>
        <time>2021-08-15T12:05:04Z</time>
      </trkpt>
      <trkpt lat="45.49099" lon="6.71208">
        <ele>2351.1</ele>
        <time>2021-08-15T12:05:05Z</time>
      </trkpt>
      <trkpt lat="45.49099" lon="6.71208">
        <ele>2351.1</ele>
        <time>2021-08-15T12:05:06Z</time>
      </trkpt>
      <trkpt lat="45.49099" lon="6.71208">
        <ele>2351.1</ele>
        <time>2021-08-15T12:05:07Z</time>
      </trkpt>
      <trkpt lat="45.49099" lon="6.71208">
        <ele>2351.1</ele>
        <time>2021-08-15T12:05:08Z</time>
      </trkpt>
      <trkpt lat="45.49099" lon="6.71208">
        <ele>2351.1</ele>
        <time>2021-08-15T12:05:09Z</time>
      </trkpt>
      <trkpt lat="45.49099" lon="6.71208">
        <ele>2351.1</ele>
        <time>2021-08-15T12:05:10Z</time>
      </trkpt>
      <trkpt lat="45.49099" lon="6.71208">
        <ele>2351.1</ele>
        <time>2021-08-15T12:05:11Z</time>
      </trkpt>
      <trkpt lat="45.49099" lon="6.71208">
        <ele>2351.1</ele>
        <time>2021-08-15T12:05:12Z</time>
      </trkpt>
      <trkpt lat="45.49099" lon="6.71208">
        <ele>2351.1</ele>
        <time>2021-08-15T12:05:13Z</time>
      </trkpt>
      <trkpt lat="45.49099" lon="6.71208">
        <ele>2351.1</ele>
        <time>2021-08-15T12:05:14Z</time>
      </trkpt>
      <trkpt lat="45.49099" lon="6.71208">
        <ele>2351.1</ele>
        <time>2021-08-15T12:05:15Z</time>
      </trkpt>
      <trkpt lat="45.49099" lon="6.71208">
        <ele>2351.1</ele>
        <time>2021-08-15T12:05:16Z</time>
      </trkpt>
      <trkpt lat="45.49099" lon="6.71208">
        <ele>2351.1</ele>
        <time>2021-08-15T12:05:17Z</time>
      </trkpt>
      <trkpt lat="45.49099" lon="6.71208">
        <ele>2351.1</ele>
        <time>2021-08-15T12:05:18Z</time>
      </trkpt>
      <trkpt lat="45.49099" lon="6.71208">
        <ele>2351.1</ele>
        <time>2021-08-15T12:05:19Z</time>
      </trkpt>
      <trkpt lat="45.49099" lon="6.71208">
        <ele>2351.1</ele>
        <time>2021-08-15T12:05:20Z</time>
      </trkpt>
      <trkpt lat="45.49099" lon="6.71208">
        <ele>2351.1</ele>
        <time>2021-08-15T12:05:21Z</time>
      </trkpt>
      <trkpt lat="45.49099" lon="6.71208">
        <ele>2351.1</ele>
        <time>2021-08-15T12:05:22Z</time>
      </trkpt>
      <trkpt lat="45.49099" lon="6.71208">
        <ele>2351.1</ele>
        <time>2021-08-15T12:05:23Z</time>
      </trkpt>
      <trkpt lat="45.49099" lon="6.71208">
        <ele>2351.1</ele>
        <time>2021-08-15T12:05:24Z</time>
      </trkpt>
      <trkpt lat="45.49099" lon="6.71208">
        <ele>2351.1</ele>
        <time>2021-08-15T12:05:25Z</time>
      </trkpt>
      <trkpt lat="45.49099" lon="6.71208">
        <ele>2351.1</ele>
        <time>2021-08-15T12:05:26Z</time>
      </trkpt>
      <trkpt lat="45.49099" lon="6.71208">
        <ele>2351.1</ele>
        <time>2021-08-15T12:05:27Z</time>
      </trkpt>
      <trkpt lat="45.49099" lon="6.71208">
        <ele>2351.1</ele>
        <time>2021-08-15T12:05:28Z</time>
      </trkpt>
      <trkpt lat="45.49099" lon="6.71208">
        <ele>2351.1</ele>
        <time>2021-08-15T12:05:29Z</time>
      </trkpt>
      <trkpt lat="45.49099" lon="6.71208">
        <ele>2351.1</ele>
        <time>2021-08-15T12:05:30Z</time>
      </trkpt>
      <trkpt lat="45.49099" lon="6.71208">
        <ele>2351.1</ele>
        <time>2021-08-15T12:05:31Z</time>
      </trkpt>
      <trkpt lat="45.49099" lon="6.71208">
        <ele>2351.1</ele>
        <time>2021-08-15T12:05:32Z</time>
      </trkpt>
      <trkpt lat="45.49099" lon="6.71208">
        <ele>2351.1</ele>
        <time>2021-08-15T12:05:33Z</time>
      </trkpt>
      <trkpt lat="45.49099" lon="6.71208">
        <ele>2351.1</ele>
        <time>2021-08-15T12:05:34Z</time>
      </trkpt>
      <trkpt lat="45.49099" lon="6.71208">
        <ele>2351.1</ele>
        <time>2021-08-15T12:05:35Z</time>
      </trkpt>
      <trkpt lat="45.49099" lon="6.71208">
        <ele>2351.1</ele>
        <time>2021-08-15T12:05:36Z</time>
      </trkpt>
      <trkpt lat="45.49099" lon="6.71208">
        <ele>2351.1</ele>
        <time>2021-08-15T12:05:37Z</time>
      </trkpt>
      <trkpt lat="45.49099" lon="6.71208">
        <ele>2351.1</ele>
        <time>2021-08-15T12:05:38Z</time>
      </trkpt>
      <trkpt lat="45.49099" lon="6.71208">
        <ele>2351.1</ele>
        <time>2021-08-15T12:05:39Z</time>
      </trkpt>
      <trkpt lat="45.49099" lon="6.71208">
        <ele>2351.1</ele>
        <time>2021-08-15T12:05:40Z</time>
      </trkpt>
      <trkpt lat="45.49099" lon="6.71208">
        <ele>2351.1</ele>
        <time>2021-08-15T12:05:41Z</time>
      </trkpt>
      <trkpt lat="45.49099" lon="6.71208">
        <ele>2351.1</ele>
        <time>2021-08-15T12:05:42Z</time>
      </trkpt>
      <trkpt lat="45.49099" lon="6.71208">
        <ele>2351.1</ele>
        <time>2021-08-15T12:05:43Z</time>
      </trkpt>
      <trkpt lat="45.49099" lon="6.71208">
        <ele>2351.1</ele>
        <time>2021-08-15T12:05:44Z</time>
      </trkpt>
      <trkpt lat="45.49099" lon="6.71208">
        <ele>2351.1</ele>
        <time>2021-08-15T12:05:45Z</time>
      </trkpt>
      <trkpt lat="45.49099" lon="6.71208">
        <ele>2351.1</ele>
        <time>2021-08-15T12:05:46Z</time>
      </trkpt>
      <trkpt lat="45.49099" lon="6.71208">
        <ele>2351.1</ele>
        <time>2021-08-15T12:05:47Z</time>
      </trkpt>
      <trkpt lat="45.49099" lon="6.71208">
        <ele>2351.1</ele>
        <time>2021-08-15T12:05:48Z</time>
      </trkpt>
      <trkpt lat="45.49099" lon="6.71208">
        <ele>2351.1</ele>
        <time>2021-08-15T12:05:49Z</time>
      </trkpt>
      <trkpt lat="45.49099" lon="6.71208">
        <ele>2351.1</ele>
        <time>2021-08-15T12:05:50Z</time>
      </trkpt>
      <trkpt lat="45.49099" lon="6.71208">
        <ele>2351.1</ele>
        <time>2021-08-15T12:05:51Z</time>
      </trkpt>
      <trkpt lat="45.49099" lon="6.71208">
        <ele>2351.1</ele>
        <time>2021-08-15T12:05:52Z</time>
      </trkpt>
      <trkpt lat="45.49099" lon="6.71208">
        <ele>2351.1</ele>
        <time>2021-08-15T12:05:53Z</time>
      </trkpt>
      <trkpt lat="45.49099" lon="6.71208">
        <ele>2351.1</ele>
        <time>2021-08-15T12:05:54Z</time>
      </trkpt>
      <trkpt lat="45.49099" lon="6.71208">
        <ele>2351.1</ele>
        <time>2021-08-15T12:05:55Z</time>
      </trkpt>
      <trkpt lat="45.49099" lon="6.71208">
        <ele>2351.1</ele>
        <time>2021-08-15T12:05:56Z</time>
      </trkpt>
      <trkpt lat="45.49099" lon="6.71208">
        <ele>2351.1</ele>
        <time>2021-08-15T12:05:57Z</time>
      </trkpt>
      <trkpt lat="45.49099" lon="6.71208">
        <ele>2351.1</ele>
        <time>2021-08-15T12:05:58Z</time>
      </trkpt>
      <trkpt lat="45.49099" lon="6.71208">
        <ele>2351.1</ele>
        <time>2021-08-15T12:05:59Z</time>
      </trkpt>
      <trkpt lat="45.49099" lon="6.71208">
        <ele>2351.1</ele>
        <time>2021-08-15T12:06:00Z</time>
      </trkpt>
      <trkpt lat="45.49099" lon="6.71208">
        <ele>2351.1</ele>
        <time>2021-08-15T12:06:01Z</time>
      </trkpt>
      <trkpt lat="45.49099" lon="6.71208">
        <ele>2351.1</ele>
        <time>2021-08-15T12:06:02Z</time>
      </trkpt>
      <trkpt lat="45.49099" lon="6.71208">
        <ele>2351.1</ele>
        <time>2021-08-15T12:06:03Z</time>
      </trkpt>
      <trkpt lat="45.49099" lon="6.71208">
        <ele>2351.1</ele>
        <time>2021-08-15T12:06:04Z</time>
      </trkpt>
      <trkpt lat="45.49099" lon="6.71208">
        <ele>2351.1</ele>
        <time>2021-08-15T12:06:05Z</time>
      </trkpt>
      <trkpt lat="45.49099" lon="6.71208">
        <ele>2351.1</ele>
        <time>2021-08-15T12:06:06Z</time>
      </trkpt>
      <trkpt lat="45.49099" lon="6.71208">
        <ele>2351.1</ele>
        <time>2021-08-15T12:06:07Z</time>
      </trkpt>
      <trkpt lat="45.49099" lon="6.71208">
        <ele>2351.1</ele>
        <time>2021-08-15T12:06:08Z</time>
      </trkpt>
      <trkpt lat="45.49099" lon="6.71208">
        <ele>2351.1</ele>
        <time>2021-08-15T12:06:09Z</time>
      </trkpt>
      <trkpt lat="45.49099" lon="6.71208">
        <ele>2351.1</ele>
        <time>2021-08-15T12:06:10Z</time>
      </trkpt>
      <trkpt lat="45.49099" lon="6.71208">
        <ele>2351.1</ele>
        <time>2021-08-15T12:06:11Z</time>
      </trkpt>
      <trkpt lat="45.49099" lon="6.71208">
        <ele>2351.1</ele>
        <time>2021-08-15T12:06:12Z</time>
      </trkpt>
      <trkpt lat="45.49099" lon="6.71208">
        <ele>2351.1</ele>
        <time>2021-08-15T12:06:13Z</time>
      </trkpt>
      <trkpt lat="45.49099" lon="6.71208">
        <ele>2351.1</ele>
        <time>2021-08-15T12:06:14Z</time>
      </trkpt>
      <trkpt lat="45.49099" lon="6.71208">
        <ele>2351.1</ele>
        <time>2021-08-15T12:06:15Z</time>
      </trkpt>
      <trkpt lat="45.49099" lon="6.71208">
        <ele>2351.1</ele>
        <time>2021-08-15T12:06:16Z</time>
      </trkpt>
      <trkpt lat="45.49099" lon="6.71208">
        <ele>2351.1</ele>
        <time>2021-08-15T12:06:17Z</time>
      </trkpt>
      <trkpt lat="45.49099" lon="6.71208">
        <ele>2351.1</ele>
        <time>2021-08-15T12:06:18Z</time>
      </trkpt>
      <trkpt lat="45.49099" lon="6.71208">
        <ele>2351.1</ele>
        <time>2021-08-15T12:06:19Z</time>
      </trkpt>
      <trkpt lat="45.49099" lon="6.71208">
        <ele>2351.1</ele>
        <time>2021-08-15T12:06:20Z</time>
      </trkpt>
      <trkpt lat="45.49099" lon="6.71208">
        <ele>2351.1</ele>
        <time>2021-08-15T12:06:21Z</time>
      </trkpt>
      <trkpt lat="45.49099" lon="6.71208">
        <ele>2351.1</ele>
        <time>2021-08-15T12:06:22Z</time>
      </trkpt>
      <trkpt lat="45.49099" lon="6.71208">
        <ele>2351.1</ele>
        <time>2021-08-15T12:06:23Z</time>
      </trkpt>
      <trkpt lat="45.49099" lon="6.71208">
        <ele>2351.1</ele>
        <time>2021-08-15T12:06:24Z</time>
      </trkpt>
      <trkpt lat="45.49099" lon="6.71208">
        <ele>2351.1</ele>
        <time>2021-08-15T12:06:25Z</time>
      </trkpt>
      <trkpt lat="45.49099" lon="6.71208">
        <ele>2351.1</ele>
        <time>2021-08-15T12:06:26Z</time>
      </trkpt>
      <trkpt lat="45.49099" lon="6.71208">
        <ele>2351.1</ele>
        <time>2021-08-15T12:06:27Z</time>
      </trkpt>
      <trkpt lat="45.49099" lon="6.71208">
        <ele>2351.1</ele>
        <time>2021-08-15T12:06:28Z</time>
      </trkpt>
      <trkpt lat="45.49099" lon="6.71208">
        <ele>2351.1</ele>
        <time>2021-08-15T12:06:29Z</time>
      </trkpt>
      <trkpt lat="45.49099" lon="6.71208">
        <ele>2351.1</ele>
        <time>2021-08-15T12:06:30Z</time>
      </trkpt>
      <trkpt lat="45.49099" lon="6.71208">
        <ele>2351.1</ele>
        <time>2021-08-15T12:06:31Z</time>
      </trkpt>
      <trkpt lat="45.49099" lon="6.71208">
        <ele>2351.1</ele>
        <time>2021-08-15T12:06:32Z</time>
      </trkpt>
      <trkpt lat="45.49099" lon="6.71208">
        <ele>2351.1</ele>
        <time>2021-08-15T12:06:33Z</time>
      </trkpt>
      <trkpt lat="45.49099" lon="6.71208">
        <ele>2351.1</ele>
        <time>2021-08-15T12:06:34Z</time>
      </trkpt>
      <trkpt lat="45.49099" lon="6.71208">
        <ele>2351.1</ele>
        <time>2021-08-15T12:06:35Z</time>
      </trkpt>
      <trkpt lat="45.49099" lon="6.71207">
        <ele>2351.1</ele>
        <time>2021-08-15T12:06:36Z</time>
      </trkpt>
      <trkpt lat="45.49099" lon="6.71207">
        <ele>2351.1</ele>
        <time>2021-08-15T12:06:37Z</time>
      </trkpt>
      <trkpt lat="45.49099" lon="6.71207">
        <ele>2351.1</ele>
        <time>2021-08-15T12:06:38Z</time>
      </trkpt>
      <trkpt lat="45.49099" lon="6.71207">
        <ele>2351.1</ele>
        <time>2021-08-15T12:06:39Z</time>
      </trkpt>
      <trkpt lat="45.49099" lon="6.71207">
        <ele>2351.1</ele>
        <time>2021-08-15T12:06:40Z</time>
      </trkpt>
      <trkpt lat="45.49099" lon="6.71207">
        <ele>2351.1</ele>
        <time>2021-08-15T12:06:41Z</time>
      </trkpt>
      <trkpt lat="45.49099" lon="6.71207">
        <ele>2351.1</ele>
        <time>2021-08-15T12:06:42Z</time>
      </trkpt>
      <trkpt lat="45.49099" lon="6.71207">
        <ele>2351.1</ele>
        <time>2021-08-15T12:06:43Z</time>
      </trkpt>
      <trkpt lat="45.49099" lon="6.71207">
        <ele>2351.1</ele>
        <time>2021-08-15T12:06:44Z</time>
      </trkpt>
      <trkpt lat="45.49099" lon="6.71207">
        <ele>2351.1</ele>
        <time>2021-08-15T12:06:45Z</time>
      </trkpt>
      <trkpt lat="45.49099" lon="6.71207">
        <ele>2351.1</ele>
        <time>2021-08-15T12:06:46Z</time>
      </trkpt>
      <trkpt lat="45.49099" lon="6.71207">
        <ele>2351.1</ele>
        <time>2021-08-15T12:06:47Z</time>
      </trkpt>
      <trkpt lat="45.49099" lon="6.71207">
        <ele>2351.1</ele>
        <time>2021-08-15T12:06:48Z</time>
      </trkpt>
      <trkpt lat="45.49099" lon="6.71207">
        <ele>2351.1</ele>
        <time>2021-08-15T12:06:49Z</time>
      </trkpt>
      <trkpt lat="45.49099" lon="6.71207">
        <ele>2351.1</ele>
        <time>2021-08-15T12:06:50Z</time>
      </trkpt>
      <trkpt lat="45.49099" lon="6.71207">
        <ele>2351.1</ele>
        <time>2021-08-15T12:06:51Z</time>
      </trkpt>
      <trkpt lat="45.49099" lon="6.71207">
        <ele>2351.1</ele>
        <time>2021-08-15T12:06:52Z</time>
      </trkpt>
      <trkpt lat="45.49099" lon="6.71207">
        <ele>2351.1</ele>
        <time>2021-08-15T12:06:53Z</time>
      </trkpt>
      <trkpt lat="45.49099" lon="6.71207">
        <ele>2351.1</ele>
        <time>2021-08-15T12:06:54Z</time>
      </trkpt>
      <trkpt lat="45.49099" lon="6.71207">
        <ele>2351.1</ele>
        <time>2021-08-15T12:06:55Z</time>
      </trkpt>
      <trkpt lat="45.49099" lon="6.71207">
        <ele>2351.1</ele>
        <time>2021-08-15T12:06:56Z</time>
      </trkpt>
      <trkpt lat="45.49099" lon="6.71207">
        <ele>2351.1</ele>
        <time>2021-08-15T12:06:57Z</time>
      </trkpt>
      <trkpt lat="45.49099" lon="6.71207">
        <ele>2351.1</ele>
        <time>2021-08-15T12:06:58Z</time>
      </trkpt>
      <trkpt lat="45.49099" lon="6.71207">
        <ele>2351.1</ele>
        <time>2021-08-15T12:06:59Z</time>
      </trkpt>
      <trkpt lat="45.49099" lon="6.71207">
        <ele>2351.1</ele>
        <time>2021-08-15T12:07:00Z</time>
      </trkpt>
      <trkpt lat="45.49099" lon="6.71207">
        <ele>2351.1</ele>
        <time>2021-08-15T12:07:01Z</time>
      </trkpt>
      <trkpt lat="45.49099" lon="6.71207">
        <ele>2351.1</ele>
        <time>2021-08-15T12:07:02Z</time>
      </trkpt>
      <trkpt lat="45.49099" lon="6.71207">
        <ele>2351.1</ele>
        <time>2021-08-15T12:07:03Z</time>
      </trkpt>
      <trkpt lat="45.49099" lon="6.71207">
        <ele>2351.1</ele>
        <time>2021-08-15T12:07:04Z</time>
      </trkpt>
      <trkpt lat="45.49099" lon="6.71207">
        <ele>2351.1</ele>
        <time>2021-08-15T12:07:05Z</time>
      </trkpt>
      <trkpt lat="45.49099" lon="6.71207">
        <ele>2351.1</ele>
        <time>2021-08-15T12:07:06Z</time>
      </trkpt>
      <trkpt lat="45.49099" lon="6.71207">
        <ele>2351.1</ele>
        <time>2021-08-15T12:07:07Z</time>
      </trkpt>
      <trkpt lat="45.49099" lon="6.71207">
        <ele>2351.1</ele>
        <time>2021-08-15T12:07:08Z</time>
      </trkpt>
      <trkpt lat="45.49099" lon="6.71207">
        <ele>2351.1</ele>
        <time>2021-08-15T12:07:09Z</time>
      </trkpt>
      <trkpt lat="45.49099" lon="6.71207">
        <ele>2351.1</ele>
        <time>2021-08-15T12:07:10Z</time>
      </trkpt>
      <trkpt lat="45.49099" lon="6.71207">
        <ele>2351.1</ele>
        <time>2021-08-15T12:07:11Z</time>
      </trkpt>
      <trkpt lat="45.49099" lon="6.71207">
        <ele>2351.1</ele>
        <time>2021-08-15T12:07:12Z</time>
      </trkpt>
      <trkpt lat="45.49099" lon="6.71207">
        <ele>2351.1</ele>
        <time>2021-08-15T12:07:13Z</time>
      </trkpt>
      <trkpt lat="45.49099" lon="6.71207">
        <ele>2351.1</ele>
        <time>2021-08-15T12:07:14Z</time>
      </trkpt>
      <trkpt lat="45.49099" lon="6.71207">
        <ele>2351.1</ele>
        <time>2021-08-15T12:07:15Z</time>
      </trkpt>
      <trkpt lat="45.49099" lon="6.71207">
        <ele>2351.1</ele>
        <time>2021-08-15T12:07:16Z</time>
      </trkpt>
      <trkpt lat="45.49099" lon="6.71207">
        <ele>2351.1</ele>
        <time>2021-08-15T12:07:17Z</time>
      </trkpt>
      <trkpt lat="45.49099" lon="6.71207">
        <ele>2351.1</ele>
        <time>2021-08-15T12:07:18Z</time>
      </trkpt>
      <trkpt lat="45.49099" lon="6.71207">
        <ele>2351.1</ele>
        <time>2021-08-15T12:07:19Z</time>
      </trkpt>
      <trkpt lat="45.49099" lon="6.71207">
        <ele>2351.1</ele>
        <time>2021-08-15T12:07:20Z</time>
      </trkpt>
      <trkpt lat="45.49099" lon="6.71207">
        <ele>2351.1</ele>
        <time>2021-08-15T12:07:21Z</time>
      </trkpt>
      <trkpt lat="45.49099" lon="6.71207">
        <ele>2351.1</ele>
        <time>2021-08-15T12:07:22Z</time>
      </trkpt>
      <trkpt lat="45.49099" lon="6.71207">
        <ele>2351.1</ele>
        <time>2021-08-15T12:07:23Z</time>
      </trkpt>
      <trkpt lat="45.49099" lon="6.71207">
        <ele>2351.1</ele>
        <time>2021-08-15T12:07:24Z</time>
      </trkpt>
      <trkpt lat="45.49099" lon="6.71207">
        <ele>2351.1</ele>
        <time>2021-08-15T12:07:25Z</time>
      </trkpt>
      <trkpt lat="45.49099" lon="6.71207">
        <ele>2351.1</ele>
        <time>2021-08-15T12:07:26Z</time>
      </trkpt>
      <trkpt lat="45.49099" lon="6.71207">
        <ele>2351.1</ele>
        <time>2021-08-15T12:07:27Z</time>
      </trkpt>
      <trkpt lat="45.49099" lon="6.71207">
        <ele>2351.1</ele>
        <time>2021-08-15T12:07:28Z</time>
      </trkpt>
      <trkpt lat="45.49099" lon="6.71207">
        <ele>2351.1</ele>
        <time>2021-08-15T12:07:29Z</time>
      </trkpt>
      <trkpt lat="45.49099" lon="6.71207">
        <ele>2351.1</ele>
        <time>2021-08-15T12:07:30Z</time>
      </trkpt>
      <trkpt lat="45.49099" lon="6.71207">
        <ele>2351.1</ele>
        <time>2021-08-15T12:07:31Z</time>
      </trkpt>
      <trkpt lat="45.49099" lon="6.71207">
        <ele>2351.1</ele>
        <time>2021-08-15T12:07:32Z</time>
      </trkpt>
      <trkpt lat="45.49099" lon="6.71207">
        <ele>2351.1</ele>
        <time>2021-08-15T12:07:33Z</time>
      </trkpt>
      <trkpt lat="45.49099" lon="6.71207">
        <ele>2351.1</ele>
        <time>2021-08-15T12:07:34Z</time>
      </trkpt>
      <trkpt lat="45.49099" lon="6.71207">
        <ele>2351.1</ele>
        <time>2021-08-15T12:07:35Z</time>
      </trkpt>
      <trkpt lat="45.49099" lon="6.71207">
        <ele>2351.1</ele>
        <time>2021-08-15T12:07:36Z</time>
      </trkpt>
      <trkpt lat="45.49099" lon="6.71207">
        <ele>2351.1</ele>
        <time>2021-08-15T12:07:37Z</time>
      </trkpt>
      <trkpt lat="45.49099" lon="6.71207">
        <ele>2351.1</ele>
        <time>2021-08-15T12:07:38Z</time>
      </trkpt>
      <trkpt lat="45.49099" lon="6.71207">
        <ele>2351.1</ele>
        <time>2021-08-15T12:07:39Z</time>
      </trkpt>
      <trkpt lat="45.49099" lon="6.71207">
        <ele>2351.1</ele>
        <time>2021-08-15T12:07:40Z</time>
      </trkpt>
      <trkpt lat="45.49099" lon="6.71207">
        <ele>2351.1</ele>
        <time>2021-08-15T12:07:41Z</time>
      </trkpt>
      <trkpt lat="45.49099" lon="6.71207">
        <ele>2351.1</ele>
        <time>2021-08-15T12:07:42Z</time>
      </trkpt>
      <trkpt lat="45.49099" lon="6.71207">
        <ele>2351.1</ele>
        <time>2021-08-15T12:07:43Z</time>
      </trkpt>
      <trkpt lat="45.49099" lon="6.71207">
        <ele>2351.1</ele>
        <time>2021-08-15T12:07:44Z</time>
      </trkpt>
      <trkpt lat="45.49099" lon="6.71207">
        <ele>2351.1</ele>
        <time>2021-08-15T12:07:45Z</time>
      </trkpt>
      <trkpt lat="45.49099" lon="6.71207">
        <ele>2351.1</ele>
        <time>2021-08-15T12:07:46Z</time>
      </trkpt>
      <trkpt lat="45.49099" lon="6.71207">
        <ele>2351.1</ele>
        <time>2021-08-15T12:07:47Z</time>
      </trkpt>
      <trkpt lat="45.49099" lon="6.71207">
        <ele>2351.1</ele>
        <time>2021-08-15T12:07:48Z</time>
      </trkpt>
      <trkpt lat="45.49099" lon="6.71207">
        <ele>2351.1</ele>
        <time>2021-08-15T12:07:49Z</time>
      </trkpt>
      <trkpt lat="45.49099" lon="6.71207">
        <ele>2351.1</ele>
        <time>2021-08-15T12:07:50Z</time>
      </trkpt>
      <trkpt lat="45.49099" lon="6.71207">
        <ele>2351.1</ele>
        <time>2021-08-15T12:07:51Z</time>
      </trkpt>
      <trkpt lat="45.49099" lon="6.71207">
        <ele>2351.1</ele>
        <time>2021-08-15T12:07:52Z</time>
      </trkpt>
      <trkpt lat="45.49099" lon="6.71207">
        <ele>2351.1</ele>
        <time>2021-08-15T12:07:53Z</time>
      </trkpt>
      <trkpt lat="45.49099" lon="6.71207">
        <ele>2351.1</ele>
        <time>2021-08-15T12:07:54Z</time>
      </trkpt>
      <trkpt lat="45.49099" lon="6.71207">
        <ele>2351.1</ele>
        <time>2021-08-15T12:07:55Z</time>
      </trkpt>
      <trkpt lat="45.49099" lon="6.71207">
        <ele>2351.1</ele>
        <time>2021-08-15T12:07:56Z</time>
      </trkpt>
      <trkpt lat="45.49099" lon="6.71207">
        <ele>2351.1</ele>
        <time>2021-08-15T12:07:57Z</time>
      </trkpt>
      <trkpt lat="45.49099" lon="6.71207">
        <ele>2351.1</ele>
        <time>2021-08-15T12:07:58Z</time>
      </trkpt>
      <trkpt lat="45.49099" lon="6.71207">
        <ele>2351.1</ele>
        <time>2021-08-15T12:07:59Z</time>
      </trkpt>
      <trkpt lat="45.49099" lon="6.71207">
        <ele>2351.1</ele>
        <time>2021-08-15T12:08:00Z</time>
      </trkpt>
      <trkpt lat="45.49099" lon="6.71207">
        <ele>2351.1</ele>
        <time>2021-08-15T12:08:01Z</time>
      </trkpt>
      <trkpt lat="45.49099" lon="6.71207">
        <ele>2351.1</ele>
        <time>2021-08-15T12:08:02Z</time>
      </trkpt>
      <trkpt lat="45.49099" lon="6.71207">
        <ele>2351.1</ele>
        <time>2021-08-15T12:08:03Z</time>
      </trkpt>
      <trkpt lat="45.49099" lon="6.71207">
        <ele>2351.1</ele>
        <time>2021-08-15T12:08:04Z</time>
      </trkpt>
      <trkpt lat="45.49099" lon="6.71207">
        <ele>2351.1</ele>
        <time>2021-08-15T12:08:05Z</time>
      </trkpt>
      <trkpt lat="45.49099" lon="6.71207">
        <ele>2351.1</ele>
        <time>2021-08-15T12:08:06Z</time>
      </trkpt>
      <trkpt lat="45.49099" lon="6.71207">
        <ele>2351.1</ele>
        <time>2021-08-15T12:08:07Z</time>
      </trkpt>
      <trkpt lat="45.49099" lon="6.71207">
        <ele>2351.1</ele>
        <time>2021-08-15T12:08:08Z</time>
      </trkpt>
      <trkpt lat="45.49099" lon="6.71207">
        <ele>2351.1</ele>
        <time>2021-08-15T12:08:09Z</time>
      </trkpt>
      <trkpt lat="45.49099" lon="6.71207">
        <ele>2351.1</ele>
        <time>2021-08-15T12:08:10Z</time>
      </trkpt>
      <trkpt lat="45.49099" lon="6.71207">
        <ele>2351.1</ele>
        <time>2021-08-15T12:08:11Z</time>
      </trkpt>
      <trkpt lat="45.49099" lon="6.71207">
        <ele>2351.1</ele>
        <time>2021-08-15T12:08:12Z</time>
      </trkpt>
      <trkpt lat="45.49099" lon="6.71207">
        <ele>2351.1</ele>
        <time>2021-08-15T12:08:13Z</time>
      </trkpt>
      <trkpt lat="45.49099" lon="6.71207">
        <ele>2351.1</ele>
        <time>2021-08-15T12:08:14Z</time>
      </trkpt>
      <trkpt lat="45.49099" lon="6.71207">
        <ele>2351.1</ele>
        <time>2021-08-15T12:08:15Z</time>
      </trkpt>
      <trkpt lat="45.49099" lon="6.71207">
        <ele>2351.1</ele>
        <time>2021-08-15T12:08:16Z</time>
      </trkpt>
      <trkpt lat="45.49099" lon="6.71207">
        <ele>2351.1</ele>
        <time>2021-08-15T12:08:17Z</time>
      </trkpt>
      <trkpt lat="45.49099" lon="6.71207">
        <ele>2351.1</ele>
        <time>2021-08-15T12:08:18Z</time>
      </trkpt>
      <trkpt lat="45.49099" lon="6.71207">
        <ele>2351.1</ele>
        <time>2021-08-15T12:08:19Z</time>
      </trkpt>
      <trkpt lat="45.49099" lon="6.71207">
        <ele>2351.1</ele>
        <time>2021-08-15T12:08:20Z</time>
      </trkpt>
      <trkpt lat="45.49099" lon="6.71207">
        <ele>2351.1</ele>
        <time>2021-08-15T12:08:21Z</time>
      </trkpt>
      <trkpt lat="45.49099" lon="6.71207">
        <ele>2351.1</ele>
        <time>2021-08-15T12:08:22Z</time>
      </trkpt>
      <trkpt lat="45.49099" lon="6.71207">
        <ele>2351.1</ele>
        <time>2021-08-15T12:08:23Z</time>
      </trkpt>
      <trkpt lat="45.49099" lon="6.71207">
        <ele>2351.1</ele>
        <time>2021-08-15T12:08:24Z</time>
      </trkpt>
      <trkpt lat="45.49099" lon="6.71207">
        <ele>2351.1</ele>
        <time>2021-08-15T12:08:25Z</time>
      </trkpt>
      <trkpt lat="45.49099" lon="6.71207">
        <ele>2351.1</ele>
        <time>2021-08-15T12:08:26Z</time>
      </trkpt>
      <trkpt lat="45.49099" lon="6.71207">
        <ele>2351.1</ele>
        <time>2021-08-15T12:08:27Z</time>
      </trkpt>
      <trkpt lat="45.49099" lon="6.71207">
        <ele>2351.1</ele>
        <time>2021-08-15T12:08:28Z</time>
      </trkpt>
      <trkpt lat="45.49099" lon="6.71207">
        <ele>2351.1</ele>
        <time>2021-08-15T12:08:29Z</time>
      </trkpt>
      <trkpt lat="45.49099" lon="6.71207">
        <ele>2351.1</ele>
        <time>2021-08-15T12:08:30Z</time>
      </trkpt>
      <trkpt lat="45.49099" lon="6.71207">
        <ele>2351.1</ele>
        <time>2021-08-15T12:08:31Z</time>
      </trkpt>
      <trkpt lat="45.49099" lon="6.71207">
        <ele>2351.1</ele>
        <time>2021-08-15T12:08:32Z</time>
      </trkpt>
      <trkpt lat="45.49099" lon="6.71207">
        <ele>2351.1</ele>
        <time>2021-08-15T12:08:33Z</time>
      </trkpt>
      <trkpt lat="45.49099" lon="6.71207">
        <ele>2351.1</ele>
        <time>2021-08-15T12:08:34Z</time>
      </trkpt>
      <trkpt lat="45.49099" lon="6.71207">
        <ele>2351.1</ele>
        <time>2021-08-15T12:08:35Z</time>
      </trkpt>
      <trkpt lat="45.49099" lon="6.71207">
        <ele>2351.1</ele>
        <time>2021-08-15T12:08:36Z</time>
      </trkpt>
      <trkpt lat="45.49099" lon="6.71207">
        <ele>2351.1</ele>
        <time>2021-08-15T12:08:37Z</time>
      </trkpt>
      <trkpt lat="45.49099" lon="6.71207">
        <ele>2351.1</ele>
        <time>2021-08-15T12:08:38Z</time>
      </trkpt>
      <trkpt lat="45.49099" lon="6.71207">
        <ele>2351.1</ele>
        <time>2021-08-15T12:08:39Z</time>
      </trkpt>
      <trkpt lat="45.49099" lon="6.71207">
        <ele>2351.1</ele>
        <time>2021-08-15T12:08:40Z</time>
      </trkpt>
      <trkpt lat="45.49099" lon="6.71207">
        <ele>2351.1</ele>
        <time>2021-08-15T12:08:41Z</time>
      </trkpt>
      <trkpt lat="45.49099" lon="6.71207">
        <ele>2351.1</ele>
        <time>2021-08-15T12:08:42Z</time>
      </trkpt>
      <trkpt lat="45.49099" lon="6.71207">
        <ele>2351.1</ele>
        <time>2021-08-15T12:08:43Z</time>
      </trkpt>
      <trkpt lat="45.49099" lon="6.71207">
        <ele>2351.1</ele>
        <time>2021-08-15T12:08:44Z</time>
      </trkpt>
      <trkpt lat="45.49099" lon="6.71207">
        <ele>2351.1</ele>
        <time>2021-08-15T12:08:45Z</time>
      </trkpt>
      <trkpt lat="45.49099" lon="6.71207">
        <ele>2351.1</ele>
        <time>2021-08-15T12:08:46Z</time>
      </trkpt>
      <trkpt lat="45.49099" lon="6.71207">
        <ele>2351.1</ele>
        <time>2021-08-15T12:08:47Z</time>
      </trkpt>
      <trkpt lat="45.49099" lon="6.71207">
        <ele>2351.1</ele>
        <time>2021-08-15T12:08:48Z</time>
      </trkpt>
      <trkpt lat="45.49099" lon="6.71207">
        <ele>2351.1</ele>
        <time>2021-08-15T12:08:49Z</time>
      </trkpt>
      <trkpt lat="45.49099" lon="6.71207">
        <ele>2351.1</ele>
        <time>2021-08-15T12:08:50Z</time>
      </trkpt>
      <trkpt lat="45.49099" lon="6.71207">
        <ele>2351.1</ele>
        <time>2021-08-15T12:08:51Z</time>
      </trkpt>
      <trkpt lat="45.49099" lon="6.71207">
        <ele>2351.1</ele>
        <time>2021-08-15T12:08:52Z</time>
      </trkpt>
      <trkpt lat="45.49099" lon="6.71207">
        <ele>2351.1</ele>
        <time>2021-08-15T12:08:53Z</time>
      </trkpt>
      <trkpt lat="45.49099" lon="6.71207">
        <ele>2351.1</ele>
        <time>2021-08-15T12:08:54Z</time>
      </trkpt>
      <trkpt lat="45.49099" lon="6.71207">
        <ele>2351.1</ele>
        <time>2021-08-15T12:08:55Z</time>
      </trkpt>
      <trkpt lat="45.49099" lon="6.71207">
        <ele>2351.1</ele>
        <time>2021-08-15T12:08:56Z</time>
      </trkpt>
      <trkpt lat="45.49099" lon="6.71207">
        <ele>2351.1</ele>
        <time>2021-08-15T12:08:57Z</time>
      </trkpt>
      <trkpt lat="45.49099" lon="6.71207">
        <ele>2351.1</ele>
        <time>2021-08-15T12:08:58Z</time>
      </trkpt>
      <trkpt lat="45.49099" lon="6.71207">
        <ele>2351.1</ele>
        <time>2021-08-15T12:08:59Z</time>
      </trkpt>
      <trkpt lat="45.49099" lon="6.71207">
        <ele>2351.1</ele>
        <time>2021-08-15T12:09:00Z</time>
      </trkpt>
      <trkpt lat="45.49099" lon="6.71207">
        <ele>2351.1</ele>
        <time>2021-08-15T12:09:01Z</time>
      </trkpt>
      <trkpt lat="45.49099" lon="6.71207">
        <ele>2351.1</ele>
        <time>2021-08-15T12:09:02Z</time>
      </trkpt>
      <trkpt lat="45.49099" lon="6.71207">
        <ele>2351.1</ele>
        <time>2021-08-15T12:09:03Z</time>
      </trkpt>
      <trkpt lat="45.49099" lon="6.71207">
        <ele>2351.1</ele>
        <time>2021-08-15T12:09:04Z</time>
      </trkpt>
      <trkpt lat="45.49099" lon="6.71207">
        <ele>2351.1</ele>
        <time>2021-08-15T12:09:05Z</time>
      </trkpt>
      <trkpt lat="45.49099" lon="6.71207">
        <ele>2351.1</ele>
        <time>2021-08-15T12:09:06Z</time>
      </trkpt>
      <trkpt lat="45.49099" lon="6.71207">
        <ele>2351.1</ele>
        <time>2021-08-15T12:09:07Z</time>
      </trkpt>
      <trkpt lat="45.49099" lon="6.71207">
        <ele>2351.1</ele>
        <time>2021-08-15T12:09:08Z</time>
      </trkpt>
      <trkpt lat="45.49099" lon="6.71207">
        <ele>2351.1</ele>
        <time>2021-08-15T12:09:09Z</time>
      </trkpt>
      <trkpt lat="45.49099" lon="6.71207">
        <ele>2351.1</ele>
        <time>2021-08-15T12:09:10Z</time>
      </trkpt>
      <trkpt lat="45.49099" lon="6.71207">
        <ele>2351.1</ele>
        <time>2021-08-15T12:09:11Z</time>
      </trkpt>
      <trkpt lat="45.49099" lon="6.71207">
        <ele>2351.1</ele>
        <time>2021-08-15T12:09:12Z</time>
      </trkpt>
      <trkpt lat="45.49099" lon="6.71207">
        <ele>2351.1</ele>
        <time>2021-08-15T12:09:13Z</time>
      </trkpt>
      <trkpt lat="45.49099" lon="6.71207">
        <ele>2351.1</ele>
        <time>2021-08-15T12:09:14Z</time>
      </trkpt>
      <trkpt lat="45.49099" lon="6.71207">
        <ele>2351.1</ele>
        <time>2021-08-15T12:09:15Z</time>
      </trkpt>
      <trkpt lat="45.49099" lon="6.71207">
        <ele>2351.1</ele>
        <time>2021-08-15T12:09:16Z</time>
      </trkpt>
      <trkpt lat="45.49099" lon="6.71207">
        <ele>2351.1</ele>
        <time>2021-08-15T12:09:17Z</time>
      </trkpt>
      <trkpt lat="45.49099" lon="6.71207">
        <ele>2351.1</ele>
        <time>2021-08-15T12:09:18Z</time>
      </trkpt>
      <trkpt lat="45.49099" lon="6.71207">
        <ele>2351.1</ele>
        <time>2021-08-15T12:09:19Z</time>
      </trkpt>
      <trkpt lat="45.49099" lon="6.71207">
        <ele>2351.1</ele>
        <time>2021-08-15T12:09:20Z</time>
      </trkpt>
      <trkpt lat="45.49099" lon="6.71207">
        <ele>2351.1</ele>
        <time>2021-08-15T12:09:21Z</time>
      </trkpt>
      <trkpt lat="45.49099" lon="6.71207">
        <ele>2351.1</ele>
        <time>2021-08-15T12:09:22Z</time>
      </trkpt>
      <trkpt lat="45.49099" lon="6.71207">
        <ele>2351.1</ele>
        <time>2021-08-15T12:09:23Z</time>
      </trkpt>
      <trkpt lat="45.49099" lon="6.71207">
        <ele>2351.1</ele>
        <time>2021-08-15T12:09:24Z</time>
      </trkpt>
      <trkpt lat="45.49099" lon="6.71207">
        <ele>2351.1</ele>
        <time>2021-08-15T12:09:25Z</time>
      </trkpt>
      <trkpt lat="45.49099" lon="6.71207">
        <ele>2351.1</ele>
        <time>2021-08-15T12:09:26Z</time>
      </trkpt>
      <trkpt lat="45.49099" lon="6.71207">
        <ele>2351.1</ele>
        <time>2021-08-15T12:09:27Z</time>
      </trkpt>
      <trkpt lat="45.49099" lon="6.71207">
        <ele>2351.1</ele>
        <time>2021-08-15T12:09:28Z</time>
      </trkpt>
      <trkpt lat="45.49099" lon="6.71207">
        <ele>2351.1</ele>
        <time>2021-08-15T12:09:29Z</time>
      </trkpt>
      <trkpt lat="45.49099" lon="6.71207">
        <ele>2351.1</ele>
        <time>2021-08-15T12:09:30Z</time>
      </trkpt>
      <trkpt lat="45.49099" lon="6.71207">
        <ele>2351.1</ele>
        <time>2021-08-15T12:09:31Z</time>
      </trkpt>
      <trkpt lat="45.49099" lon="6.71207">
        <ele>2351.1</ele>
        <time>2021-08-15T12:09:32Z</time>
      </trkpt>
      <trkpt lat="45.49099" lon="6.71207">
        <ele>2351.1</ele>
        <time>2021-08-15T12:09:33Z</time>
      </trkpt>
      <trkpt lat="45.49099" lon="6.71207">
        <ele>2351.1</ele>
        <time>2021-08-15T12:09:34Z</time>
      </trkpt>
      <trkpt lat="45.49099" lon="6.71207">
        <ele>2351.1</ele>
        <time>2021-08-15T12:09:35Z</time>
      </trkpt>
      <trkpt lat="45.49099" lon="6.71207">
        <ele>2351.1</ele>
        <time>2021-08-15T12:09:36Z</time>
      </trkpt>
      <trkpt lat="45.49099" lon="6.71207">
        <ele>2351.1</ele>
        <time>2021-08-15T12:09:37Z</time>
      </trkpt>
      <trkpt lat="45.49099" lon="6.71207">
        <ele>2351.1</ele>
        <time>2021-08-15T12:09:38Z</time>
      </trkpt>
      <trkpt lat="45.49099" lon="6.71207">
        <ele>2351.1</ele>
        <time>2021-08-15T12:09:39Z</time>
      </trkpt>
      <trkpt lat="45.49099" lon="6.71207">
        <ele>2351.1</ele>
        <time>2021-08-15T12:09:40Z</time>
      </trkpt>
      <trkpt lat="45.49099" lon="6.71207">
        <ele>2351.1</ele>
        <time>2021-08-15T12:09:41Z</time>
      </trkpt>
      <trkpt lat="45.49099" lon="6.71207">
        <ele>2351.1</ele>
        <time>2021-08-15T12:09:42Z</time>
      </trkpt>
      <trkpt lat="45.49099" lon="6.71207">
        <ele>2351.1</ele>
        <time>2021-08-15T12:09:43Z</time>
      </trkpt>
      <trkpt lat="45.49099" lon="6.71207">
        <ele>2351.1</ele>
        <time>2021-08-15T12:09:44Z</time>
      </trkpt>
      <trkpt lat="45.49099" lon="6.71207">
        <ele>2351.1</ele>
        <time>2021-08-15T12:09:45Z</time>
      </trkpt>
      <trkpt lat="45.49099" lon="6.71207">
        <ele>2351.1</ele>
        <time>2021-08-15T12:09:46Z</time>
      </trkpt>
      <trkpt lat="45.49099" lon="6.71207">
        <ele>2351.1</ele>
        <time>2021-08-15T12:09:47Z</time>
      </trkpt>
      <trkpt lat="45.49099" lon="6.71207">
        <ele>2351.1</ele>
        <time>2021-08-15T12:09:48Z</time>
      </trkpt>
      <trkpt lat="45.49099" lon="6.71207">
        <ele>2351.1</ele>
        <time>2021-08-15T12:09:49Z</time>
      </trkpt>
      <trkpt lat="45.49099" lon="6.71207">
        <ele>2351.1</ele>
        <time>2021-08-15T12:09:50Z</time>
      </trkpt>
      <trkpt lat="45.49099" lon="6.71207">
        <ele>2351.1</ele>
        <time>2021-08-15T12:09:51Z</time>
      </trkpt>
      <trkpt lat="45.49099" lon="6.71207">
        <ele>2351.1</ele>
        <time>2021-08-15T12:09:52Z</time>
      </trkpt>
      <trkpt lat="45.49099" lon="6.71207">
        <ele>2351.1</ele>
        <time>2021-08-15T12:09:53Z</time>
      </trkpt>
      <trkpt lat="45.49099" lon="6.71207">
        <ele>2351.1</ele>
        <time>2021-08-15T12:09:54Z</time>
      </trkpt>
      <trkpt lat="45.49099" lon="6.71207">
        <ele>2351.1</ele>
        <time>2021-08-15T12:09:55Z</time>
      </trkpt>
      <trkpt lat="45.49099" lon="6.71207">
        <ele>2351.1</ele>
        <time>2021-08-15T12:09:56Z</time>
      </trkpt>
      <trkpt lat="45.49099" lon="6.71207">
        <ele>2351.1</ele>
        <time>2021-08-15T12:09:57Z</time>
      </trkpt>
      <trkpt lat="45.49099" lon="6.71207">
        <ele>2351.1</ele>
        <time>2021-08-15T12:09:58Z</time>
      </trkpt>
      <trkpt lat="45.49099" lon="6.71207">
        <ele>2351.1</ele>
        <time>2021-08-15T12:09:59Z</time>
      </trkpt>
      <trkpt lat="45.49099" lon="6.71207">
        <ele>2351.1</ele>
        <time>2021-08-15T12:10:00Z</time>
      </trkpt>
      <trkpt lat="45.49099" lon="6.71207">
        <ele>2351.1</ele>
        <time>2021-08-15T12:10:01Z</time>
      </trkpt>
      <trkpt lat="45.49099" lon="6.71207">
        <ele>2351.1</ele>
        <time>2021-08-15T12:10:02Z</time>
      </trkpt>
      <trkpt lat="45.49099" lon="6.71207">
        <ele>2351.1</ele>
        <time>2021-08-15T12:10:03Z</time>
      </trkpt>
      <trkpt lat="45.49099" lon="6.71207">
        <ele>2351.1</ele>
        <time>2021-08-15T12:10:04Z</time>
      </trkpt>
      <trkpt lat="45.49099" lon="6.71207">
        <ele>2351.1</ele>
        <time>2021-08-15T12:10:05Z</time>
      </trkpt>
      <trkpt lat="45.49099" lon="6.71207">
        <ele>2351.1</ele>
        <time>2021-08-15T12:10:06Z</time>
      </trkpt>
      <trkpt lat="45.49099" lon="6.71207">
        <ele>2351.1</ele>
        <time>2021-08-15T12:10:07Z</time>
      </trkpt>
      <trkpt lat="45.49099" lon="6.71207">
        <ele>2351.1</ele>
        <time>2021-08-15T12:10:08Z</time>
      </trkpt>
      <trkpt lat="45.49099" lon="6.71207">
        <ele>2351.1</ele>
        <time>2021-08-15T12:10:09Z</time>
      </trkpt>
      <trkpt lat="45.49099" lon="6.71207">
        <ele>2351.1</ele>
        <time>2021-08-15T12:10:10Z</time>
      </trkpt>
      <trkpt lat="45.49099" lon="6.71207">
        <ele>2351.1</ele>
        <time>2021-08-15T12:10:11Z</time>
      </trkpt>
      <trkpt lat="45.49099" lon="6.71207">
        <ele>2351.1</ele>
        <time>2021-08-15T12:10:12Z</time>
      </trkpt>
      <trkpt lat="45.49099" lon="6.71207">
        <ele>2351.1</ele>
        <time>2021-08-15T12:10:13Z</time>
      </trkpt>
      <trkpt lat="45.49099" lon="6.71207">
        <ele>2351.1</ele>
        <time>2021-08-15T12:10:14Z</time>
      </trkpt>
      <trkpt lat="45.49099" lon="6.71207">
        <ele>2351.1</ele>
        <time>2021-08-15T12:10:15Z</time>
      </trkpt>
      <trkpt lat="45.49099" lon="6.71207">
        <ele>2351.1</ele>
        <time>2021-08-15T12:10:16Z</time>
      </trkpt>
      <trkpt lat="45.49099" lon="6.71207">
        <ele>2351.1</ele>
        <time>2021-08-15T12:10:17Z</time>
      </trkpt>
      <trkpt lat="45.49099" lon="6.71207">
        <ele>2351.1</ele>
        <time>2021-08-15T12:10:18Z</time>
      </trkpt>
      <trkpt lat="45.49099" lon="6.71207">
        <ele>2351.1</ele>
        <time>2021-08-15T12:10:19Z</time>
      </trkpt>
      <trkpt lat="45.49099" lon="6.71207">
        <ele>2351.1</ele>
        <time>2021-08-15T12:10:20Z</time>
      </trkpt>
      <trkpt lat="45.49099" lon="6.71207">
        <ele>2351.1</ele>
        <time>2021-08-15T12:10:21Z</time>
      </trkpt>
      <trkpt lat="45.49099" lon="6.71207">
        <ele>2351.1</ele>
        <time>2021-08-15T12:10:22Z</time>
      </trkpt>
      <trkpt lat="45.49099" lon="6.71207">
        <ele>2351.1</ele>
        <time>2021-08-15T12:10:23Z</time>
      </trkpt>
      <trkpt lat="45.49099" lon="6.71207">
        <ele>2351.1</ele>
        <time>2021-08-15T12:10:24Z</time>
      </trkpt>
      <trkpt lat="45.49099" lon="6.71207">
        <ele>2351.1</ele>
        <time>2021-08-15T12:10:25Z</time>
      </trkpt>
      <trkpt lat="45.49099" lon="6.71207">
        <ele>2351.1</ele>
        <time>2021-08-15T12:10:26Z</time>
      </trkpt>
      <trkpt lat="45.49099" lon="6.71207">
        <ele>2351.1</ele>
        <time>2021-08-15T12:10:27Z</time>
      </trkpt>
      <trkpt lat="45.49099" lon="6.71207">
        <ele>2351.1</ele>
        <time>2021-08-15T12:10:28Z</time>
      </trkpt>
      <trkpt lat="45.49099" lon="6.71207">
        <ele>2351.1</ele>
        <time>2021-08-15T12:10:29Z</time>
      </trkpt>
      <trkpt lat="45.49099" lon="6.71207">
        <ele>2351.1</ele>
        <time>2021-08-15T12:10:30Z</time>
      </trkpt>
      <trkpt lat="45.49099" lon="6.71207">
        <ele>2351.1</ele>
        <time>2021-08-15T12:10:31Z</time>
      </trkpt>
      <trkpt lat="45.49099" lon="6.71207">
        <ele>2351.1</ele>
        <time>2021-08-15T12:10:32Z</time>
      </trkpt>
      <trkpt lat="45.49099" lon="6.71207">
        <ele>2351.1</ele>
        <time>2021-08-15T12:10:33Z</time>
      </trkpt>
      <trkpt lat="45.49099" lon="6.71207">
        <ele>2351.1</ele>
        <time>2021-08-15T12:10:34Z</time>
      </trkpt>
      <trkpt lat="45.49099" lon="6.71207">
        <ele>2351.1</ele>
        <time>2021-08-15T12:10:35Z</time>
      </trkpt>
      <trkpt lat="45.49099" lon="6.71207">
        <ele>2351.1</ele>
        <time>2021-08-15T12:10:36Z</time>
      </trkpt>
      <trkpt lat="45.49099" lon="6.71207">
        <ele>2351.1</ele>
        <time>2021-08-15T12:10:37Z</time>
      </trkpt>
      <trkpt lat="45.49099" lon="6.71207">
        <ele>2351.1</ele>
        <time>2021-08-15T12:10:38Z</time>
      </trkpt>
      <trkpt lat="45.49099" lon="6.71207">
        <ele>2351.1</ele>
        <time>2021-08-15T12:10:39Z</time>
      </trkpt>
      <trkpt lat="45.49099" lon="6.71207">
        <ele>2351.1</ele>
        <time>2021-08-15T12:10:40Z</time>
      </trkpt>
      <trkpt lat="45.49099" lon="6.71207">
        <ele>2351.1</ele>
        <time>2021-08-15T12:10:41Z</time>
      </trkpt>
      <trkpt lat="45.49099" lon="6.71207">
        <ele>2351.1</ele>
        <time>2021-08-15T12:10:42Z</time>
      </trkpt>
      <trkpt lat="45.49099" lon="6.71207">
        <ele>2351.1</ele>
        <time>2021-08-15T12:10:43Z</time>
      </trkpt>
      <trkpt lat="45.49099" lon="6.71207">
        <ele>2351.1</ele>
        <time>2021-08-15T12:10:44Z</time>
      </trkpt>
      <trkpt lat="45.49099" lon="6.71207">
        <ele>2351.1</ele>
        <time>2021-08-15T12:10:45Z</time>
      </trkpt>
      <trkpt lat="45.49099" lon="6.71207">
        <ele>2351.1</ele>
        <time>2021-08-15T12:10:46Z</time>
      </trkpt>
      <trkpt lat="45.49099" lon="6.71207">
        <ele>2351.1</ele>
        <time>2021-08-15T12:10:47Z</time>
      </trkpt>
      <trkpt lat="45.49099" lon="6.71207">
        <ele>2351.1</ele>
        <time>2021-08-15T12:10:48Z</time>
      </trkpt>
      <trkpt lat="45.49099" lon="6.71207">
        <ele>2351.1</ele>
        <time>2021-08-15T12:10:49Z</time>
      </trkpt>
      <trkpt lat="45.49099" lon="6.71207">
        <ele>2351.1</ele>
        <time>2021-08-15T12:10:50Z</time>
      </trkpt>
      <trkpt lat="45.49099" lon="6.71207">
        <ele>2351.1</ele>
        <time>2021-08-15T12:10:51Z</time>
      </trkpt>
      <trkpt lat="45.49099" lon="6.71207">
        <ele>2351.1</ele>
        <time>2021-08-15T12:10:52Z</time>
      </trkpt>
      <trkpt lat="45.49099" lon="6.71207">
        <ele>2351.1</ele>
        <time>2021-08-15T12:10:53Z</time>
      </trkpt>
      <trkpt lat="45.49099" lon="6.71207">
        <ele>2351.1</ele>
        <time>2021-08-15T12:10:54Z</time>
      </trkpt>
      <trkpt lat="45.49099" lon="6.71207">
        <ele>2351.1</ele>
        <time>2021-08-15T12:10:55Z</time>
      </trkpt>
      <trkpt lat="45.49099" lon="6.71207">
        <ele>2351.1</ele>
        <time>2021-08-15T12:10:56Z</time>
      </trkpt>
      <trkpt lat="45.49099" lon="6.71207">
        <ele>2351.1</ele>
        <time>2021-08-15T12:10:57Z</time>
      </trkpt>
      <trkpt lat="45.49099" lon="6.71207">
        <ele>2351.1</ele>
        <time>2021-08-15T12:10:58Z</time>
      </trkpt>
      <trkpt lat="45.49099" lon="6.71207">
        <ele>2351.1</ele>
        <time>2021-08-15T12:10:59Z</time>
      </trkpt>
      <trkpt lat="45.49099" lon="6.71207">
        <ele>2351.1</ele>
        <time>2021-08-15T12:11:00Z</time>
      </trkpt>
      <trkpt lat="45.49099" lon="6.71207">
        <ele>2351.1</ele>
        <time>2021-08-15T12:11:01Z</time>
      </trkpt>
      <trkpt lat="45.49099" lon="6.71207">
        <ele>2351.1</ele>
        <time>2021-08-15T12:11:02Z</time>
      </trkpt>
      <trkpt lat="45.49099" lon="6.71207">
        <ele>2351.1</ele>
        <time>2021-08-15T12:11:03Z</time>
      </trkpt>
      <trkpt lat="45.49099" lon="6.71207">
        <ele>2351.1</ele>
        <time>2021-08-15T12:11:04Z</time>
      </trkpt>
      <trkpt lat="45.49099" lon="6.71207">
        <ele>2351.1</ele>
        <time>2021-08-15T12:11:05Z</time>
      </trkpt>
      <trkpt lat="45.49099" lon="6.71207">
        <ele>2351.1</ele>
        <time>2021-08-15T12:11:06Z</time>
      </trkpt>
      <trkpt lat="45.49099" lon="6.71207">
        <ele>2351.1</ele>
        <time>2021-08-15T12:11:07Z</time>
      </trkpt>
      <trkpt lat="45.49099" lon="6.71207">
        <ele>2351.1</ele>
        <time>2021-08-15T12:11:08Z</time>
      </trkpt>
      <trkpt lat="45.49099" lon="6.71207">
        <ele>2351.1</ele>
        <time>2021-08-15T12:11:09Z</time>
      </trkpt>
      <trkpt lat="45.49099" lon="6.71207">
        <ele>2351.1</ele>
        <time>2021-08-15T12:11:10Z</time>
      </trkpt>
      <trkpt lat="45.49099" lon="6.71207">
        <ele>2351.1</ele>
        <time>2021-08-15T12:11:11Z</time>
      </trkpt>
      <trkpt lat="45.49099" lon="6.71207">
        <ele>2351.1</ele>
        <time>2021-08-15T12:11:12Z</time>
      </trkpt>
      <trkpt lat="45.49099" lon="6.71207">
        <ele>2351.1</ele>
        <time>2021-08-15T12:11:13Z</time>
      </trkpt>
      <trkpt lat="45.49099" lon="6.71207">
        <ele>2351.1</ele>
        <time>2021-08-15T12:11:14Z</time>
      </trkpt>
      <trkpt lat="45.49099" lon="6.71207">
        <ele>2351.1</ele>
        <time>2021-08-15T12:11:15Z</time>
      </trkpt>
      <trkpt lat="45.49099" lon="6.71207">
        <ele>2351.1</ele>
        <time>2021-08-15T12:11:16Z</time>
      </trkpt>
      <trkpt lat="45.49099" lon="6.71207">
        <ele>2351.1</ele>
        <time>2021-08-15T12:11:17Z</time>
      </trkpt>
      <trkpt lat="45.49099" lon="6.71207">
        <ele>2351.1</ele>
        <time>2021-08-15T12:11:18Z</time>
      </trkpt>
      <trkpt lat="45.49099" lon="6.71207">
        <ele>2351.1</ele>
        <time>2021-08-15T12:11:19Z</time>
      </trkpt>
      <trkpt lat="45.49099" lon="6.71207">
        <ele>2351.1</ele>
        <time>2021-08-15T12:11:20Z</time>
      </trkpt>
      <trkpt lat="45.49099" lon="6.71207">
        <ele>2351.1</ele>
        <time>2021-08-15T12:11:21Z</time>
      </trkpt>
      <trkpt lat="45.49099" lon="6.71207">
        <ele>2351.1</ele>
        <time>2021-08-15T12:11:22Z</time>
      </trkpt>
      <trkpt lat="45.49099" lon="6.71207">
        <ele>2351.1</ele>
        <time>2021-08-15T12:11:23Z</time>
      </trkpt>
      <trkpt lat="45.49099" lon="6.71207">
        <ele>2351.1</ele>
        <time>2021-08-15T12:11:24Z</time>
      </trkpt>
      <trkpt lat="45.49099" lon="6.71207">
        <ele>2351.1</ele>
        <time>2021-08-15T12:11:25Z</time>
      </trkpt>
      <trkpt lat="45.49099" lon="6.71207">
        <ele>2351.1</ele>
        <time>2021-08-15T12:11:26Z</time>
      </trkpt>
      <trkpt lat="45.49099" lon="6.71207">
        <ele>2351.1</ele>
        <time>2021-08-15T12:11:27Z</time>
      </trkpt>
      <trkpt lat="45.49099" lon="6.71207">
        <ele>2351.1</ele>
        <time>2021-08-15T12:11:28Z</time>
      </trkpt>
      <trkpt lat="45.49099" lon="6.71207">
        <ele>2351.1</ele>
        <time>2021-08-15T12:11:29Z</time>
      </trkpt>
      <trkpt lat="45.49099" lon="6.71207">
        <ele>2351.1</ele>
        <time>2021-08-15T12:11:30Z</time>
      </trkpt>
      <trkpt lat="45.49099" lon="6.71207">
        <ele>2351.1</ele>
        <time>2021-08-15T12:11:31Z</time>
      </trkpt>
      <trkpt lat="45.49099" lon="6.71207">
        <ele>2351.1</ele>
        <time>2021-08-15T12:11:32Z</time>
      </trkpt>
      <trkpt lat="45.49099" lon="6.71207">
        <ele>2351.1</ele>
        <time>2021-08-15T12:11:33Z</time>
      </trkpt>
      <trkpt lat="45.49099" lon="6.71207">
        <ele>2351.1</ele>
        <time>2021-08-15T12:11:34Z</time>
      </trkpt>
      <trkpt lat="45.49099" lon="6.71207">
        <ele>2351.1</ele>
        <time>2021-08-15T12:11:35Z</time>
      </trkpt>
      <trkpt lat="45.49099" lon="6.71207">
        <ele>2351.1</ele>
        <time>2021-08-15T12:11:36Z</time>
      </trkpt>
      <trkpt lat="45.49099" lon="6.71207">
        <ele>2351.1</ele>
        <time>2021-08-15T12:11:37Z</time>
      </trkpt>
      <trkpt lat="45.49099" lon="6.71207">
        <ele>2351.1</ele>
        <time>2021-08-15T12:11:38Z</time>
      </trkpt>
      <trkpt lat="45.49099" lon="6.71207">
        <ele>2351.1</ele>
        <time>2021-08-15T12:11:39Z</time>
      </trkpt>
      <trkpt lat="45.49099" lon="6.71207">
        <ele>2351.1</ele>
        <time>2021-08-15T12:11:40Z</time>
      </trkpt>
      <trkpt lat="45.49099" lon="6.71207">
        <ele>2351.1</ele>
        <time>2021-08-15T12:11:41Z</time>
      </trkpt>
      <trkpt lat="45.49099" lon="6.71207">
        <ele>2351.1</ele>
        <time>2021-08-15T12:11:42Z</time>
      </trkpt>
      <trkpt lat="45.49099" lon="6.71207">
        <ele>2351.1</ele>
        <time>2021-08-15T12:11:43Z</time>
      </trkpt>
      <trkpt lat="45.49099" lon="6.71207">
        <ele>2351.1</ele>
        <time>2021-08-15T12:11:44Z</time>
      </trkpt>
      <trkpt lat="45.49099" lon="6.71207">
        <ele>2351.1</ele>
        <time>2021-08-15T12:11:45Z</time>
      </trkpt>
      <trkpt lat="45.49099" lon="6.71207">
        <ele>2351.1</ele>
        <time>2021-08-15T12:11:46Z</time>
      </trkpt>
      <trkpt lat="45.49099" lon="6.71207">
        <ele>2351.1</ele>
        <time>2021-08-15T12:11:47Z</time>
      </trkpt>
      <trkpt lat="45.49099" lon="6.71207">
        <ele>2351.1</ele>
        <time>2021-08-15T12:11:48Z</time>
      </trkpt>
      <trkpt lat="45.49099" lon="6.71207">
        <ele>2351.1</ele>
        <time>2021-08-15T12:11:49Z</time>
      </trkpt>
      <trkpt lat="45.49099" lon="6.71207">
        <ele>2351.1</ele>
        <time>2021-08-15T12:11:50Z</time>
      </trkpt>
      <trkpt lat="45.49099" lon="6.71207">
        <ele>2351.1</ele>
        <time>2021-08-15T12:11:51Z</time>
      </trkpt>
      <trkpt lat="45.49099" lon="6.71207">
        <ele>2351.1</ele>
        <time>2021-08-15T12:11:52Z</time>
      </trkpt>
      <trkpt lat="45.49099" lon="6.71207">
        <ele>2351.1</ele>
        <time>2021-08-15T12:11:53Z</time>
      </trkpt>
      <trkpt lat="45.49099" lon="6.71207">
        <ele>2351.1</ele>
        <time>2021-08-15T12:11:54Z</time>
      </trkpt>
      <trkpt lat="45.49099" lon="6.71207">
        <ele>2351.1</ele>
        <time>2021-08-15T12:11:55Z</time>
      </trkpt>
      <trkpt lat="45.49099" lon="6.71207">
        <ele>2351.1</ele>
        <time>2021-08-15T12:11:56Z</time>
      </trkpt>
      <trkpt lat="45.49099" lon="6.71207">
        <ele>2351.1</ele>
        <time>2021-08-15T12:11:57Z</time>
      </trkpt>
      <trkpt lat="45.49099" lon="6.71207">
        <ele>2351.1</ele>
        <time>2021-08-15T12:11:58Z</time>
      </trkpt>
      <trkpt lat="45.49099" lon="6.71207">
        <ele>2351.1</ele>
        <time>2021-08-15T12:11:59Z</time>
      </trkpt>
      <trkpt lat="45.49099" lon="6.71207">
        <ele>2351.1</ele>
        <time>2021-08-15T12:12:00Z</time>
      </trkpt>
      <trkpt lat="45.49099" lon="6.71207">
        <ele>2351.1</ele>
        <time>2021-08-15T12:12:01Z</time>
      </trkpt>
      <trkpt lat="45.49099" lon="6.71207">
        <ele>2351.1</ele>
        <time>2021-08-15T12:12:02Z</time>
      </trkpt>
      <trkpt lat="45.49099" lon="6.71207">
        <ele>2351.1</ele>
        <time>2021-08-15T12:12:03Z</time>
      </trkpt>
      <trkpt lat="45.49099" lon="6.71207">
        <ele>2351.1</ele>
        <time>2021-08-15T12:12:04Z</time>
      </trkpt>
      <trkpt lat="45.49099" lon="6.71207">
        <ele>2351.1</ele>
        <time>2021-08-15T12:12:05Z</time>
      </trkpt>
      <trkpt lat="45.49099" lon="6.71207">
        <ele>2351.1</ele>
        <time>2021-08-15T12:12:06Z</time>
      </trkpt>
      <trkpt lat="45.49099" lon="6.71207">
        <ele>2351.1</ele>
        <time>2021-08-15T12:12:07Z</time>
      </trkpt>
      <trkpt lat="45.49099" lon="6.71207">
        <ele>2351.1</ele>
        <time>2021-08-15T12:12:08Z</time>
      </trkpt>
      <trkpt lat="45.49099" lon="6.71207">
        <ele>2351.1</ele>
        <time>2021-08-15T12:12:09Z</time>
      </trkpt>
      <trkpt lat="45.49099" lon="6.71207">
        <ele>2351.1</ele>
        <time>2021-08-15T12:12:10Z</time>
      </trkpt>
      <trkpt lat="45.49099" lon="6.71207">
        <ele>2351.1</ele>
        <time>2021-08-15T12:12:11Z</time>
      </trkpt>
      <trkpt lat="45.49099" lon="6.71207">
        <ele>2351.1</ele>
        <time>2021-08-15T12:12:12Z</time>
      </trkpt>
      <trkpt lat="45.49099" lon="6.71207">
        <ele>2351.1</ele>
        <time>2021-08-15T12:12:13Z</time>
      </trkpt>
      <trkpt lat="45.49099" lon="6.71207">
        <ele>2351.1</ele>
        <time>2021-08-15T12:12:14Z</time>
      </trkpt>
      <trkpt lat="45.49099" lon="6.71207">
        <ele>2351.1</ele>
        <time>2021-08-15T12:12:15Z</time>
      </trkpt>
      <trkpt lat="45.49099" lon="6.71207">
        <ele>2351.1</ele>
        <time>2021-08-15T12:12:16Z</time>
      </trkpt>
      <trkpt lat="45.49099" lon="6.71207">
        <ele>2351.1</ele>
        <time>2021-08-15T12:12:17Z</time>
      </trkpt>
      <trkpt lat="45.49099" lon="6.71207">
        <ele>2351.1</ele>
        <time>2021-08-15T12:12:18Z</time>
      </trkpt>
      <trkpt lat="45.49099" lon="6.71207">
        <ele>2351.1</ele>
        <time>2021-08-15T12:12:19Z</time>
      </trkpt>
      <trkpt lat="45.49099" lon="6.71207">
        <ele>2351.1</ele>
        <time>2021-08-15T12:12:20Z</time>
      </trkpt>
      <trkpt lat="45.49099" lon="6.71207">
        <ele>2351.1</ele>
        <time>2021-08-15T12:12:21Z</time>
      </trkpt>
      <trkpt lat="45.49099" lon="6.71207">
        <ele>2351.1</ele>
        <time>2021-08-15T12:12:22Z</time>
      </trkpt>
      <trkpt lat="45.49099" lon="6.71207">
        <ele>2351.1</ele>
        <time>2021-08-15T12:12:23Z</time>
      </trkpt>
      <trkpt lat="45.49099" lon="6.71207">
        <ele>2351.1</ele>
        <time>2021-08-15T12:12:24Z</time>
      </trkpt>
      <trkpt lat="45.49099" lon="6.71207">
        <ele>2351.1</ele>
        <time>2021-08-15T12:12:25Z</time>
      </trkpt>
      <trkpt lat="45.49099" lon="6.71207">
        <ele>2351.1</ele>
        <time>2021-08-15T12:12:26Z</time>
      </trkpt>
      <trkpt lat="45.49099" lon="6.71207">
        <ele>2351.1</ele>
        <time>2021-08-15T12:12:27Z</time>
      </trkpt>
      <trkpt lat="45.49099" lon="6.71207">
        <ele>2351.1</ele>
        <time>2021-08-15T12:12:28Z</time>
      </trkpt>
      <trkpt lat="45.49099" lon="6.71207">
        <ele>2351.1</ele>
        <time>2021-08-15T12:12:29Z</time>
      </trkpt>
      <trkpt lat="45.49099" lon="6.71207">
        <ele>2351.1</ele>
        <time>2021-08-15T12:12:30Z</time>
      </trkpt>
      <trkpt lat="45.49099" lon="6.71207">
        <ele>2351.1</ele>
        <time>2021-08-15T12:12:31Z</time>
      </trkpt>
      <trkpt lat="45.49099" lon="6.71207">
        <ele>2351.1</ele>
        <time>2021-08-15T12:12:32Z</time>
      </trkpt>
      <trkpt lat="45.49099" lon="6.71207">
        <ele>2351.1</ele>
        <time>2021-08-15T12:12:33Z</time>
      </trkpt>
      <trkpt lat="45.49099" lon="6.71207">
        <ele>2351.1</ele>
        <time>2021-08-15T12:12:34Z</time>
      </trkpt>
      <trkpt lat="45.49099" lon="6.71207">
        <ele>2351.1</ele>
        <time>2021-08-15T12:12:35Z</time>
      </trkpt>
      <trkpt lat="45.49099" lon="6.71207">
        <ele>2351.1</ele>
        <time>2021-08-15T12:12:36Z</time>
      </trkpt>
      <trkpt lat="45.49099" lon="6.71207">
        <ele>2351.1</ele>
        <time>2021-08-15T12:12:37Z</time>
      </trkpt>
      <trkpt lat="45.49099" lon="6.71207">
        <ele>2351.1</ele>
        <time>2021-08-15T12:12:38Z</time>
      </trkpt>
      <trkpt lat="45.49099" lon="6.71207">
        <ele>2351.1</ele>
        <time>2021-08-15T12:12:39Z</time>
      </trkpt>
      <trkpt lat="45.49099" lon="6.71207">
        <ele>2351.1</ele>
        <time>2021-08-15T12:12:40Z</time>
      </trkpt>
      <trkpt lat="45.49099" lon="6.71207">
        <ele>2351.1</ele>
        <time>2021-08-15T12:12:41Z</time>
      </trkpt>
      <trkpt lat="45.49099" lon="6.71207">
        <ele>2351.1</ele>
        <time>2021-08-15T12:12:42Z</time>
      </trkpt>
      <trkpt lat="45.49099" lon="6.71207">
        <ele>2351.1</ele>
        <time>2021-08-15T12:12:43Z</time>
      </trkpt>
      <trkpt lat="45.49099" lon="6.71207">
        <ele>2351.1</ele>
        <time>2021-08-15T12:12:44Z</time>
      </trkpt>
      <trkpt lat="45.49099" lon="6.71207">
        <ele>2351.1</ele>
        <time>2021-08-15T12:12:45Z</time>
      </trkpt>
      <trkpt lat="45.49099" lon="6.71207">
        <ele>2351.1</ele>
        <time>2021-08-15T12:12:46Z</time>
      </trkpt>
      <trkpt lat="45.49099" lon="6.71207">
        <ele>2351.1</ele>
        <time>2021-08-15T12:12:47Z</time>
      </trkpt>
      <trkpt lat="45.49099" lon="6.71207">
        <ele>2351.1</ele>
        <time>2021-08-15T12:12:48Z</time>
      </trkpt>
      <trkpt lat="45.49099" lon="6.71207">
        <ele>2351.1</ele>
        <time>2021-08-15T12:12:49Z</time>
      </trkpt>
      <trkpt lat="45.49099" lon="6.71207">
        <ele>2351.1</ele>
        <time>2021-08-15T12:12:50Z</time>
      </trkpt>
      <trkpt lat="45.49099" lon="6.71207">
        <ele>2351.1</ele>
        <time>2021-08-15T12:12:51Z</time>
      </trkpt>
      <trkpt lat="45.49099" lon="6.71207">
        <ele>2351.1</ele>
        <time>2021-08-15T12:12:52Z</time>
      </trkpt>
      <trkpt lat="45.49099" lon="6.71207">
        <ele>2351.1</ele>
        <time>2021-08-15T12:12:53Z</time>
      </trkpt>
      <trkpt lat="45.49099" lon="6.71207">
        <ele>2351.1</ele>
        <time>2021-08-15T12:12:54Z</time>
      </trkpt>
      <trkpt lat="45.49099" lon="6.71207">
        <ele>2351.1</ele>
        <time>2021-08-15T12:12:55Z</time>
      </trkpt>
      <trkpt lat="45.49099" lon="6.71207">
        <ele>2351.1</ele>
        <time>2021-08-15T12:12:56Z</time>
      </trkpt>
      <trkpt lat="45.49099" lon="6.71207">
        <ele>2351.1</ele>
        <time>2021-08-15T12:12:57Z</time>
      </trkpt>
      <trkpt lat="45.49099" lon="6.71207">
        <ele>2351.1</ele>
        <time>2021-08-15T12:12:58Z</time>
      </trkpt>
      <trkpt lat="45.49099" lon="6.71207">
        <ele>2351.1</ele>
        <time>2021-08-15T12:12:59Z</time>
      </trkpt>
      <trkpt lat="45.49099" lon="6.71207">
        <ele>2351.1</ele>
        <time>2021-08-15T12:13:00Z</time>
      </trkpt>
      <trkpt lat="45.49099" lon="6.71207">
        <ele>2351.1</ele>
        <time>2021-08-15T12:13:01Z</time>
      </trkpt>
      <trkpt lat="45.49099" lon="6.71207">
        <ele>2351.1</ele>
        <time>2021-08-15T12:13:02Z</time>
      </trkpt>
      <trkpt lat="45.49099" lon="6.71207">
        <ele>2351.1</ele>
        <time>2021-08-15T12:13:03Z</time>
      </trkpt>
      <trkpt lat="45.49099" lon="6.71207">
        <ele>2351.1</ele>
        <time>2021-08-15T12:13:04Z</time>
      </trkpt>
      <trkpt lat="45.49099" lon="6.71207">
        <ele>2351.1</ele>
        <time>2021-08-15T12:13:05Z</time>
      </trkpt>
      <trkpt lat="45.49099" lon="6.71207">
        <ele>2351.1</ele>
        <time>2021-08-15T12:13:06Z</time>
      </trkpt>
      <trkpt lat="45.49099" lon="6.71207">
        <ele>2351.1</ele>
        <time>2021-08-15T12:13:07Z</time>
      </trkpt>
      <trkpt lat="45.49099" lon="6.71207">
        <ele>2351.1</ele>
        <time>2021-08-15T12:13:08Z</time>
      </trkpt>
      <trkpt lat="45.49099" lon="6.71207">
        <ele>2351.1</ele>
        <time>2021-08-15T12:13:09Z</time>
      </trkpt>
      <trkpt lat="45.49099" lon="6.71207">
        <ele>2351.1</ele>
        <time>2021-08-15T12:13:10Z</time>
      </trkpt>
      <trkpt lat="45.49099" lon="6.71207">
        <ele>2351.1</ele>
        <time>2021-08-15T12:13:11Z</time>
      </trkpt>
      <trkpt lat="45.49099" lon="6.71207">
        <ele>2351.1</ele>
        <time>2021-08-15T12:13:12Z</time>
      </trkpt>
      <trkpt lat="45.49099" lon="6.71207">
        <ele>2351.1</ele>
        <time>2021-08-15T12:13:13Z</time>
      </trkpt>
      <trkpt lat="45.49099" lon="6.71207">
        <ele>2351.1</ele>
        <time>2021-08-15T12:13:14Z</time>
      </trkpt>
      <trkpt lat="45.49099" lon="6.71207">
        <ele>2351.1</ele>
        <time>2021-08-15T12:13:15Z</time>
      </trkpt>
      <trkpt lat="45.49099" lon="6.71207">
        <ele>2351.1</ele>
        <time>2021-08-15T12:13:16Z</time>
      </trkpt>
      <trkpt lat="45.49099" lon="6.71207">
        <ele>2351.1</ele>
        <time>2021-08-15T12:13:17Z</time>
      </trkpt>
      <trkpt lat="45.49099" lon="6.71207">
        <ele>2351.1</ele>
        <time>2021-08-15T12:13:18Z</time>
      </trkpt>
      <trkpt lat="45.49099" lon="6.71207">
        <ele>2351.1</ele>
        <time>2021-08-15T12:13:19Z</time>
      </trkpt>
      <trkpt lat="45.49099" lon="6.71207">
        <ele>2351.1</ele>
        <time>2021-08-15T12:13:20Z</time>
      </trkpt>
      <trkpt lat="45.49099" lon="6.71207">
        <ele>2351.1</ele>
        <time>2021-08-15T12:13:21Z</time>
      </trkpt>
      <trkpt lat="45.49099" lon="6.71207">
        <ele>2351.1</ele>
        <time>2021-08-15T12:13:22Z</time>
      </trkpt>
      <trkpt lat="45.49099" lon="6.71207">
        <ele>2351.1</ele>
        <time>2021-08-15T12:13:23Z</time>
      </trkpt>
      <trkpt lat="45.49099" lon="6.71207">
        <ele>2351.1</ele>
        <time>2021-08-15T12:13:24Z</time>
      </trkpt>
      <trkpt lat="45.49099" lon="6.71207">
        <ele>2351.1</ele>
        <time>2021-08-15T12:13:25Z</time>
      </trkpt>
      <trkpt lat="45.49099" lon="6.71207">
        <ele>2351.1</ele>
        <time>2021-08-15T12:13:26Z</time>
      </trkpt>
      <trkpt lat="45.49099" lon="6.71207">
        <ele>2351.1</ele>
        <time>2021-08-15T12:13:27Z</time>
      </trkpt>
      <trkpt lat="45.49099" lon="6.71207">
        <ele>2351.1</ele>
        <time>2021-08-15T12:13:28Z</time>
      </trkpt>
      <trkpt lat="45.49099" lon="6.71207">
        <ele>2351.1</ele>
        <time>2021-08-15T12:13:29Z</time>
      </trkpt>
      <trkpt lat="45.49099" lon="6.71207">
        <ele>2351.1</ele>
        <time>2021-08-15T12:13:30Z</time>
      </trkpt>
      <trkpt lat="45.49099" lon="6.71207">
        <ele>2351.1</ele>
        <time>2021-08-15T12:13:31Z</time>
      </trkpt>
      <trkpt lat="45.49099" lon="6.71207">
        <ele>2351.1</ele>
        <time>2021-08-15T12:13:32Z</time>
      </trkpt>
      <trkpt lat="45.49099" lon="6.71207">
        <ele>2351.1</ele>
        <time>2021-08-15T12:13:33Z</time>
      </trkpt>
      <trkpt lat="45.49099" lon="6.71207">
        <ele>2351.1</ele>
        <time>2021-08-15T12:13:34Z</time>
      </trkpt>
      <trkpt lat="45.49099" lon="6.71207">
        <ele>2351.1</ele>
        <time>2021-08-15T12:13:35Z</time>
      </trkpt>
      <trkpt lat="45.49099" lon="6.71207">
        <ele>2351.1</ele>
        <time>2021-08-15T12:13:36Z</time>
      </trkpt>
      <trkpt lat="45.49099" lon="6.71207">
        <ele>2351.1</ele>
        <time>2021-08-15T12:13:37Z</time>
      </trkpt>
      <trkpt lat="45.49099" lon="6.71207">
        <ele>2351.1</ele>
        <time>2021-08-15T12:13:38Z</time>
      </trkpt>
      <trkpt lat="45.49099" lon="6.71207">
        <ele>2351.1</ele>
        <time>2021-08-15T12:13:39Z</time>
      </trkpt>
      <trkpt lat="45.49099" lon="6.71207">
        <ele>2351.1</ele>
        <time>2021-08-15T12:13:40Z</time>
      </trkpt>
      <trkpt lat="45.49099" lon="6.71207">
        <ele>2351.1</ele>
        <time>2021-08-15T12:13:41Z</time>
      </trkpt>
      <trkpt lat="45.49099" lon="6.71207">
        <ele>2351.1</ele>
        <time>2021-08-15T12:13:42Z</time>
      </trkpt>
      <trkpt lat="45.49099" lon="6.71207">
        <ele>2351.1</ele>
        <time>2021-08-15T12:13:43Z</time>
      </trkpt>
      <trkpt lat="45.49099" lon="6.71207">
        <ele>2351.1</ele>
        <time>2021-08-15T12:13:44Z</time>
      </trkpt>
      <trkpt lat="45.49099" lon="6.71207">
        <ele>2351.1</ele>
        <time>2021-08-15T12:13:45Z</time>
      </trkpt>
      <trkpt lat="45.49099" lon="6.71207">
        <ele>2351.1</ele>
        <time>2021-08-15T12:13:46Z</time>
      </trkpt>
      <trkpt lat="45.49099" lon="6.71207">
        <ele>2351.1</ele>
        <time>2021-08-15T12:13:47Z</time>
      </trkpt>
      <trkpt lat="45.49099" lon="6.71207">
        <ele>2351.1</ele>
        <time>2021-08-15T12:13:48Z</time>
      </trkpt>
      <trkpt lat="45.49099" lon="6.71207">
        <ele>2351.1</ele>
        <time>2021-08-15T12:13:49Z</time>
      </trkpt>
      <trkpt lat="45.49099" lon="6.71207">
        <ele>2351.1</ele>
        <time>2021-08-15T12:13:50Z</time>
      </trkpt>
      <trkpt lat="45.49099" lon="6.71207">
        <ele>2351.1</ele>
        <time>2021-08-15T12:13:51Z</time>
      </trkpt>
      <trkpt lat="45.49099" lon="6.71207">
        <ele>2351.1</ele>
        <time>2021-08-15T12:13:52Z</time>
      </trkpt>
      <trkpt lat="45.49099" lon="6.71207">
        <ele>2351.1</ele>
        <time>2021-08-15T12:13:53Z</time>
      </trkpt>
      <trkpt lat="45.49099" lon="6.71207">
        <ele>2351.1</ele>
        <time>2021-08-15T12:13:54Z</time>
      </trkpt>
      <trkpt lat="45.49099" lon="6.71207">
        <ele>2351.1</ele>
        <time>2021-08-15T12:13:55Z</time>
      </trkpt>
      <trkpt lat="45.49099" lon="6.71207">
        <ele>2351.1</ele>
        <time>2021-08-15T12:13:56Z</time>
      </trkpt>
      <trkpt lat="45.49099" lon="6.71207">
        <ele>2351.1</ele>
        <time>2021-08-15T12:13:57Z</time>
      </trkpt>
      <trkpt lat="45.49099" lon="6.71207">
        <ele>2351.1</ele>
        <time>2021-08-15T12:13:58Z</time>
      </trkpt>
      <trkpt lat="45.49099" lon="6.71207">
        <ele>2351.1</ele>
        <time>2021-08-15T12:13:59Z</time>
      </trkpt>
      <trkpt lat="45.49099" lon="6.71207">
        <ele>2351.1</ele>
        <time>2021-08-15T12:14:00Z</time>
      </trkpt>
      <trkpt lat="45.49099" lon="6.71207">
        <ele>2351.1</ele>
        <time>2021-08-15T12:14:01Z</time>
      </trkpt>
      <trkpt lat="45.49099" lon="6.71207">
        <ele>2351.1</ele>
        <time>2021-08-15T12:14:02Z</time>
      </trkpt>
      <trkpt lat="45.49099" lon="6.71207">
        <ele>2351.1</ele>
        <time>2021-08-15T12:14:03Z</time>
      </trkpt>
      <trkpt lat="45.49099" lon="6.71207">
        <ele>2351.1</ele>
        <time>2021-08-15T12:14:04Z</time>
      </trkpt>
      <trkpt lat="45.49099" lon="6.71207">
        <ele>2351.1</ele>
        <time>2021-08-15T12:14:05Z</time>
      </trkpt>
      <trkpt lat="45.49099" lon="6.71207">
        <ele>2351.1</ele>
        <time>2021-08-15T12:14:06Z</time>
      </trkpt>
      <trkpt lat="45.49099" lon="6.71207">
        <ele>2351.1</ele>
        <time>2021-08-15T12:14:07Z</time>
      </trkpt>
      <trkpt lat="45.49099" lon="6.71207">
        <ele>2351.1</ele>
        <time>2021-08-15T12:14:08Z</time>
      </trkpt>
      <trkpt lat="45.49099" lon="6.71207">
        <ele>2351.1</ele>
        <time>2021-08-15T12:14:09Z</time>
      </trkpt>
      <trkpt lat="45.49099" lon="6.71207">
        <ele>2351.1</ele>
        <time>2021-08-15T12:14:10Z</time>
      </trkpt>
      <trkpt lat="45.49099" lon="6.71207">
        <ele>2351.1</ele>
        <time>2021-08-15T12:14:11Z</time>
      </trkpt>
      <trkpt lat="45.49099" lon="6.71207">
        <ele>2351.1</ele>
        <time>2021-08-15T12:14:12Z</time>
      </trkpt>
      <trkpt lat="45.49099" lon="6.71207">
        <ele>2351.1</ele>
        <time>2021-08-15T12:14:13Z</time>
      </trkpt>
      <trkpt lat="45.49099" lon="6.71207">
        <ele>2351.1</ele>
        <time>2021-08-15T12:14:14Z</time>
      </trkpt>
      <trkpt lat="45.49099" lon="6.71207">
        <ele>2351.1</ele>
        <time>2021-08-15T12:14:15Z</time>
      </trkpt>
      <trkpt lat="45.49099" lon="6.71207">
        <ele>2351.1</ele>
        <time>2021-08-15T12:14:16Z</time>
      </trkpt>
      <trkpt lat="45.49099" lon="6.71207">
        <ele>2351.1</ele>
        <time>2021-08-15T12:14:17Z</time>
      </trkpt>
      <trkpt lat="45.49099" lon="6.71207">
        <ele>2351.1</ele>
        <time>2021-08-15T12:14:18Z</time>
      </trkpt>
      <trkpt lat="45.49099" lon="6.71207">
        <ele>2351.1</ele>
        <time>2021-08-15T12:14:19Z</time>
      </trkpt>
      <trkpt lat="45.49099" lon="6.71207">
        <ele>2351.1</ele>
        <time>2021-08-15T12:14:20Z</time>
      </trkpt>
      <trkpt lat="45.49099" lon="6.71207">
        <ele>2351.1</ele>
        <time>2021-08-15T12:14:21Z</time>
      </trkpt>
      <trkpt lat="45.49099" lon="6.71207">
        <ele>2351.1</ele>
        <time>2021-08-15T12:14:22Z</time>
      </trkpt>
      <trkpt lat="45.49099" lon="6.71207">
        <ele>2351.1</ele>
        <time>2021-08-15T12:14:23Z</time>
      </trkpt>
      <trkpt lat="45.49099" lon="6.71207">
        <ele>2351.1</ele>
        <time>2021-08-15T12:14:24Z</time>
      </trkpt>
      <trkpt lat="45.49099" lon="6.71207">
        <ele>2351.1</ele>
        <time>2021-08-15T12:14:25Z</time>
      </trkpt>
      <trkpt lat="45.49099" lon="6.71207">
        <ele>2351.1</ele>
        <time>2021-08-15T12:14:26Z</time>
      </trkpt>
      <trkpt lat="45.49099" lon="6.71207">
        <ele>2351.1</ele>
        <time>2021-08-15T12:14:27Z</time>
      </trkpt>
      <trkpt lat="45.49099" lon="6.71207">
        <ele>2351.1</ele>
        <time>2021-08-15T12:14:28Z</time>
      </trkpt>
      <trkpt lat="45.49099" lon="6.71207">
        <ele>2351.1</ele>
        <time>2021-08-15T12:14:29Z</time>
      </trkpt>
      <trkpt lat="45.49099" lon="6.71207">
        <ele>2351.1</ele>
        <time>2021-08-15T12:14:30Z</time>
      </trkpt>
      <trkpt lat="45.49099" lon="6.71207">
        <ele>2351.1</ele>
        <time>2021-08-15T12:14:31Z</time>
      </trkpt>
      <trkpt lat="45.49099" lon="6.71207">
        <ele>2351.1</ele>
        <time>2021-08-15T12:14:32Z</time>
      </trkpt>
      <trkpt lat="45.49099" lon="6.71207">
        <ele>2351.1</ele>
        <time>2021-08-15T12:14:33Z</time>
      </trkpt>
      <trkpt lat="45.49099" lon="6.71207">
        <ele>2351.1</ele>
        <time>2021-08-15T12:14:34Z</time>
      </trkpt>
      <trkpt lat="45.49099" lon="6.71207">
        <ele>2351.1</ele>
        <time>2021-08-15T12:14:35Z</time>
      </trkpt>
      <trkpt lat="45.49099" lon="6.71207">
        <ele>2351.1</ele>
        <time>2021-08-15T12:14:36Z</time>
      </trkpt>
      <trkpt lat="45.49099" lon="6.71207">
        <ele>2351.1</ele>
        <time>2021-08-15T12:14:37Z</time>
      </trkpt>
      <trkpt lat="45.49099" lon="6.71207">
        <ele>2351.1</ele>
        <time>2021-08-15T12:14:38Z</time>
      </trkpt>
      <trkpt lat="45.49099" lon="6.71207">
        <ele>2351.1</ele>
        <time>2021-08-15T12:14:39Z</time>
      </trkpt>
      <trkpt lat="45.49099" lon="6.71207">
        <ele>2351.1</ele>
        <time>2021-08-15T12:14:40Z</time>
      </trkpt>
      <trkpt lat="45.49099" lon="6.71207">
        <ele>2351.1</ele>
        <time>2021-08-15T12:14:41Z</time>
      </trkpt>
      <trkpt lat="45.49099" lon="6.71207">
        <ele>2351.1</ele>
        <time>2021-08-15T12:14:42Z</time>
      </trkpt>
      <trkpt lat="45.49099" lon="6.71207">
        <ele>2351.1</ele>
        <time>2021-08-15T12:14:43Z</time>
      </trkpt>
      <trkpt lat="45.49099" lon="6.71207">
        <ele>2351.1</ele>
        <time>2021-08-15T12:14:44Z</time>
      </trkpt>
      <trkpt lat="45.49099" lon="6.71207">
        <ele>2351.1</ele>
        <time>2021-08-15T12:14:45Z</time>
      </trkpt>
      <trkpt lat="45.49099" lon="6.71207">
        <ele>2351.1</ele>
        <time>2021-08-15T12:14:46Z</time>
      </trkpt>
      <trkpt lat="45.49099" lon="6.71207">
        <ele>2351.1</ele>
        <time>2021-08-15T12:14:47Z</time>
      </trkpt>
      <trkpt lat="45.49099" lon="6.71207">
        <ele>2351.1</ele>
        <time>2021-08-15T12:14:48Z</time>
      </trkpt>
      <trkpt lat="45.49099" lon="6.71207">
        <ele>2351.1</ele>
        <time>2021-08-15T12:14:49Z</time>
      </trkpt>
      <trkpt lat="45.49099" lon="6.71207">
        <ele>2351.1</ele>
        <time>2021-08-15T12:14:50Z</time>
      </trkpt>
      <trkpt lat="45.49099" lon="6.71207">
        <ele>2351.1</ele>
        <time>2021-08-15T12:14:51Z</time>
      </trkpt>
      <trkpt lat="45.49099" lon="6.71207">
        <ele>2351.1</ele>
        <time>2021-08-15T12:14:52Z</time>
      </trkpt>
      <trkpt lat="45.49099" lon="6.71207">
        <ele>2351.1</ele>
        <time>2021-08-15T12:14:53Z</time>
      </trkpt>
      <trkpt lat="45.49099" lon="6.71207">
        <ele>2351.1</ele>
        <time>2021-08-15T12:14:54Z</time>
      </trkpt>
      <trkpt lat="45.49099" lon="6.71207">
        <ele>2351.1</ele>
        <time>2021-08-15T12:14:55Z</time>
      </trkpt>
      <trkpt lat="45.49099" lon="6.71207">
        <ele>2351.1</ele>
        <time>2021-08-15T12:14:56Z</time>
      </trkpt>
      <trkpt lat="45.49099" lon="6.71207">
        <ele>2351.1</ele>
        <time>2021-08-15T12:14:57Z</time>
      </trkpt>
      <trkpt lat="45.49099" lon="6.71207">
        <ele>2351.1</ele>
        <time>2021-08-15T12:14:58Z</time>
      </trkpt>
      <trkpt lat="45.49099" lon="6.71207">
        <ele>2351.1</ele>
        <time>2021-08-15T12:14:59Z</time>
      </trkpt>
      <trkpt lat="45.49099" lon="6.71207">
        <ele>2351.1</ele>
        <time>2021-08-15T12:15:00Z</time>
      </trkpt>
      <trkpt lat="45.49099" lon="6.71207">
        <ele>2351.1</ele>
        <time>2021-08-15T12:15:01Z</time>
      </trkpt>
      <trkpt lat="45.49099" lon="6.71207">
        <ele>2351.1</ele>
        <time>2021-08-15T12:15:02Z</time>
      </trkpt>
      <trkpt lat="45.49099" lon="6.71207">
        <ele>2351.1</ele>
        <time>2021-08-15T12:15:03Z</time>
      </trkpt>
      <trkpt lat="45.49099" lon="6.71207">
        <ele>2351.1</ele>
        <time>2021-08-15T12:15:04Z</time>
      </trkpt>
      <trkpt lat="45.49099" lon="6.71207">
        <ele>2351.1</ele>
        <time>2021-08-15T12:15:05Z</time>
      </trkpt>
      <trkpt lat="45.49099" lon="6.71207">
        <ele>2351.1</ele>
        <time>2021-08-15T12:15:06Z</time>
      </trkpt>
      <trkpt lat="45.49099" lon="6.71207">
        <ele>2351.1</ele>
        <time>2021-08-15T12:15:07Z</time>
      </trkpt>
      <trkpt lat="45.49099" lon="6.71207">
        <ele>2351.1</ele>
        <time>2021-08-15T12:15:08Z</time>
      </trkpt>
      <trkpt lat="45.49099" lon="6.71207">
        <ele>2351.1</ele>
        <time>2021-08-15T12:15:09Z</time>
      </trkpt>
      <trkpt lat="45.49099" lon="6.71207">
        <ele>2351.1</ele>
        <time>2021-08-15T12:15:10Z</time>
      </trkpt>
      <trkpt lat="45.49099" lon="6.71207">
        <ele>2351.1</ele>
        <time>2021-08-15T12:15:11Z</time>
      </trkpt>
      <trkpt lat="45.49099" lon="6.71207">
        <ele>2351.1</ele>
        <time>2021-08-15T12:15:12Z</time>
      </trkpt>
      <trkpt lat="45.49099" lon="6.71207">
        <ele>2351.1</ele>
        <time>2021-08-15T12:15:13Z</time>
      </trkpt>
      <trkpt lat="45.49099" lon="6.71207">
        <ele>2351.1</ele>
        <time>2021-08-15T12:15:14Z</time>
      </trkpt>
      <trkpt lat="45.49099" lon="6.71207">
        <ele>2351.1</ele>
        <time>2021-08-15T12:15:15Z</time>
      </trkpt>
      <trkpt lat="45.49099" lon="6.71207">
        <ele>2351.1</ele>
        <time>2021-08-15T12:15:16Z</time>
      </trkpt>
      <trkpt lat="45.49099" lon="6.71207">
        <ele>2351.1</ele>
        <time>2021-08-15T12:15:17Z</time>
      </trkpt>
      <trkpt lat="45.49099" lon="6.71207">
        <ele>2351.1</ele>
        <time>2021-08-15T12:15:18Z</time>
      </trkpt>
      <trkpt lat="45.49099" lon="6.71207">
        <ele>2351.1</ele>
        <time>2021-08-15T12:15:19Z</time>
      </trkpt>
      <trkpt lat="45.49099" lon="6.71207">
        <ele>2351.1</ele>
        <time>2021-08-15T12:15:20Z</time>
      </trkpt>
      <trkpt lat="45.49099" lon="6.71207">
        <ele>2351.1</ele>
        <time>2021-08-15T12:15:21Z</time>
      </trkpt>
      <trkpt lat="45.49099" lon="6.71207">
        <ele>2351.1</ele>
        <time>2021-08-15T12:15:22Z</time>
      </trkpt>
      <trkpt lat="45.49099" lon="6.71207">
        <ele>2351.1</ele>
        <time>2021-08-15T12:15:23Z</time>
      </trkpt>
      <trkpt lat="45.49099" lon="6.71207">
        <ele>2351.1</ele>
        <time>2021-08-15T12:15:24Z</time>
      </trkpt>
      <trkpt lat="45.49099" lon="6.71207">
        <ele>2351.1</ele>
        <time>2021-08-15T12:15:25Z</time>
      </trkpt>
      <trkpt lat="45.49099" lon="6.71207">
        <ele>2351.1</ele>
        <time>2021-08-15T12:15:26Z</time>
      </trkpt>
      <trkpt lat="45.49099" lon="6.71207">
        <ele>2351.1</ele>
        <time>2021-08-15T12:15:27Z</time>
      </trkpt>
      <trkpt lat="45.49099" lon="6.71207">
        <ele>2351.1</ele>
        <time>2021-08-15T12:15:28Z</time>
      </trkpt>
      <trkpt lat="45.49099" lon="6.71207">
        <ele>2351.1</ele>
        <time>2021-08-15T12:15:29Z</time>
      </trkpt>
      <trkpt lat="45.49099" lon="6.71207">
        <ele>2351.1</ele>
        <time>2021-08-15T12:15:30Z</time>
      </trkpt>
      <trkpt lat="45.49099" lon="6.71207">
        <ele>2351.1</ele>
        <time>2021-08-15T12:15:31Z</time>
      </trkpt>
      <trkpt lat="45.49099" lon="6.71207">
        <ele>2351.1</ele>
        <time>2021-08-15T12:15:32Z</time>
      </trkpt>
      <trkpt lat="45.49099" lon="6.71207">
        <ele>2351.1</ele>
        <time>2021-08-15T12:15:33Z</time>
      </trkpt>
      <trkpt lat="45.49099" lon="6.71207">
        <ele>2351.1</ele>
        <time>2021-08-15T12:15:34Z</time>
      </trkpt>
      <trkpt lat="45.49099" lon="6.71207">
        <ele>2351.1</ele>
        <time>2021-08-15T12:15:35Z</time>
      </trkpt>
      <trkpt lat="45.49099" lon="6.71207">
        <ele>2351.1</ele>
        <time>2021-08-15T12:15:36Z</time>
      </trkpt>
      <trkpt lat="45.49099" lon="6.71207">
        <ele>2351.1</ele>
        <time>2021-08-15T12:15:37Z</time>
      </trkpt>
      <trkpt lat="45.49099" lon="6.71207">
        <ele>2351.1</ele>
        <time>2021-08-15T12:15:38Z</time>
      </trkpt>
      <trkpt lat="45.49099" lon="6.71207">
        <ele>2351.1</ele>
        <time>2021-08-15T12:15:39Z</time>
      </trkpt>
      <trkpt lat="45.49099" lon="6.71207">
        <ele>2351.1</ele>
        <time>2021-08-15T12:15:40Z</time>
      </trkpt>
      <trkpt lat="45.49099" lon="6.71207">
        <ele>2351.1</ele>
        <time>2021-08-15T12:15:41Z</time>
      </trkpt>
      <trkpt lat="45.49099" lon="6.71207">
        <ele>2351.1</ele>
        <time>2021-08-15T12:15:42Z</time>
      </trkpt>
      <trkpt lat="45.49099" lon="6.71207">
        <ele>2351.1</ele>
        <time>2021-08-15T12:15:43Z</time>
      </trkpt>
      <trkpt lat="45.49099" lon="6.71207">
        <ele>2351.1</ele>
        <time>2021-08-15T12:15:44Z</time>
      </trkpt>
      <trkpt lat="45.49099" lon="6.71207">
        <ele>2351.1</ele>
        <time>2021-08-15T12:15:45Z</time>
      </trkpt>
      <trkpt lat="45.49099" lon="6.71207">
        <ele>2351.1</ele>
        <time>2021-08-15T12:15:46Z</time>
      </trkpt>
      <trkpt lat="45.49099" lon="6.71207">
        <ele>2351.1</ele>
        <time>2021-08-15T12:15:47Z</time>
      </trkpt>
      <trkpt lat="45.49099" lon="6.71207">
        <ele>2351.1</ele>
        <time>2021-08-15T12:15:48Z</time>
      </trkpt>
      <trkpt lat="45.49099" lon="6.71207">
        <ele>2351.1</ele>
        <time>2021-08-15T12:15:49Z</time>
      </trkpt>
      <trkpt lat="45.49099" lon="6.71207">
        <ele>2351.1</ele>
        <time>2021-08-15T12:15:50Z</time>
      </trkpt>
      <trkpt lat="45.49099" lon="6.71207">
        <ele>2351.1</ele>
        <time>2021-08-15T12:15:51Z</time>
      </trkpt>
      <trkpt lat="45.49099" lon="6.71207">
        <ele>2351.1</ele>
        <time>2021-08-15T12:15:52Z</time>
      </trkpt>
      <trkpt lat="45.49099" lon="6.71207">
        <ele>2351.1</ele>
        <time>2021-08-15T12:15:53Z</time>
      </trkpt>
      <trkpt lat="45.49099" lon="6.71207">
        <ele>2351.1</ele>
        <time>2021-08-15T12:15:54Z</time>
      </trkpt>
      <trkpt lat="45.49099" lon="6.71207">
        <ele>2351.1</ele>
        <time>2021-08-15T12:15:55Z</time>
      </trkpt>
      <trkpt lat="45.49099" lon="6.71207">
        <ele>2351.1</ele>
        <time>2021-08-15T12:15:56Z</time>
      </trkpt>
      <trkpt lat="45.49099" lon="6.71207">
        <ele>2351.1</ele>
        <time>2021-08-15T12:15:57Z</time>
      </trkpt>
      <trkpt lat="45.49099" lon="6.71207">
        <ele>2351.1</ele>
        <time>2021-08-15T12:15:58Z</time>
      </trkpt>
      <trkpt lat="45.49099" lon="6.71207">
        <ele>2351.1</ele>
        <time>2021-08-15T12:15:59Z</time>
      </trkpt>
      <trkpt lat="45.49099" lon="6.71207">
        <ele>2351.1</ele>
        <time>2021-08-15T12:16:00Z</time>
      </trkpt>
      <trkpt lat="45.49099" lon="6.71207">
        <ele>2351.1</ele>
        <time>2021-08-15T12:16:01Z</time>
      </trkpt>
      <trkpt lat="45.49099" lon="6.71207">
        <ele>2351.1</ele>
        <time>2021-08-15T12:16:02Z</time>
      </trkpt>
      <trkpt lat="45.49099" lon="6.71207">
        <ele>2351.1</ele>
        <time>2021-08-15T12:16:03Z</time>
      </trkpt>
      <trkpt lat="45.49099" lon="6.71207">
        <ele>2351.1</ele>
        <time>2021-08-15T12:16:04Z</time>
      </trkpt>
      <trkpt lat="45.49099" lon="6.71207">
        <ele>2351.1</ele>
        <time>2021-08-15T12:16:05Z</time>
      </trkpt>
      <trkpt lat="45.49099" lon="6.71207">
        <ele>2351.1</ele>
        <time>2021-08-15T12:16:06Z</time>
      </trkpt>
      <trkpt lat="45.49099" lon="6.71207">
        <ele>2351.1</ele>
        <time>2021-08-15T12:16:07Z</time>
      </trkpt>
      <trkpt lat="45.49099" lon="6.71207">
        <ele>2351.1</ele>
        <time>2021-08-15T12:16:08Z</time>
      </trkpt>
      <trkpt lat="45.49099" lon="6.71207">
        <ele>2351.1</ele>
        <time>2021-08-15T12:16:09Z</time>
      </trkpt>
      <trkpt lat="45.49099" lon="6.71207">
        <ele>2351.1</ele>
        <time>2021-08-15T12:16:10Z</time>
      </trkpt>
      <trkpt lat="45.49099" lon="6.71207">
        <ele>2351.1</ele>
        <time>2021-08-15T12:16:11Z</time>
      </trkpt>
      <trkpt lat="45.49099" lon="6.71207">
        <ele>2351.1</ele>
        <time>2021-08-15T12:16:12Z</time>
      </trkpt>
      <trkpt lat="45.49099" lon="6.71207">
        <ele>2351.1</ele>
        <time>2021-08-15T12:16:13Z</time>
      </trkpt>
      <trkpt lat="45.49099" lon="6.71207">
        <ele>2351.1</ele>
        <time>2021-08-15T12:16:14Z</time>
      </trkpt>
      <trkpt lat="45.49099" lon="6.71207">
        <ele>2351.1</ele>
        <time>2021-08-15T12:16:15Z</time>
      </trkpt>
      <trkpt lat="45.49099" lon="6.71207">
        <ele>2351.1</ele>
        <time>2021-08-15T12:16:16Z</time>
      </trkpt>
      <trkpt lat="45.49099" lon="6.71207">
        <ele>2351.1</ele>
        <time>2021-08-15T12:16:17Z</time>
      </trkpt>
      <trkpt lat="45.49099" lon="6.71207">
        <ele>2351.1</ele>
        <time>2021-08-15T12:16:18Z</time>
      </trkpt>
      <trkpt lat="45.49099" lon="6.71207">
        <ele>2351.1</ele>
        <time>2021-08-15T12:16:19Z</time>
      </trkpt>
      <trkpt lat="45.49099" lon="6.71207">
        <ele>2351.1</ele>
        <time>2021-08-15T12:16:20Z</time>
      </trkpt>
      <trkpt lat="45.49099" lon="6.71207">
        <ele>2351.1</ele>
        <time>2021-08-15T12:16:21Z</time>
      </trkpt>
      <trkpt lat="45.49099" lon="6.71207">
        <ele>2351.1</ele>
        <time>2021-08-15T12:16:22Z</time>
      </trkpt>
      <trkpt lat="45.49099" lon="6.71207">
        <ele>2351.1</ele>
        <time>2021-08-15T12:16:23Z</time>
      </trkpt>
      <trkpt lat="45.49099" lon="6.71207">
        <ele>2351.1</ele>
        <time>2021-08-15T12:16:24Z</time>
      </trkpt>
      <trkpt lat="45.49099" lon="6.71207">
        <ele>2351.1</ele>
        <time>2021-08-15T12:16:25Z</time>
      </trkpt>
      <trkpt lat="45.49099" lon="6.71207">
        <ele>2351.1</ele>
        <time>2021-08-15T12:16:26Z</time>
      </trkpt>
      <trkpt lat="45.49099" lon="6.71207">
        <ele>2351.1</ele>
        <time>2021-08-15T12:16:27Z</time>
      </trkpt>
      <trkpt lat="45.49099" lon="6.71207">
        <ele>2351.1</ele>
        <time>2021-08-15T12:16:28Z</time>
      </trkpt>
      <trkpt lat="45.49099" lon="6.71207">
        <ele>2351.1</ele>
        <time>2021-08-15T12:16:29Z</time>
      </trkpt>
      <trkpt lat="45.49099" lon="6.71207">
        <ele>2351.1</ele>
        <time>2021-08-15T12:16:30Z</time>
      </trkpt>
      <trkpt lat="45.49099" lon="6.71207">
        <ele>2351.1</ele>
        <time>2021-08-15T12:16:31Z</time>
      </trkpt>
      <trkpt lat="45.49099" lon="6.71207">
        <ele>2351.1</ele>
        <time>2021-08-15T12:16:32Z</time>
      </trkpt>
      <trkpt lat="45.49099" lon="6.71207">
        <ele>2351.1</ele>
        <time>2021-08-15T12:16:33Z</time>
      </trkpt>
      <trkpt lat="45.49099" lon="6.71207">
        <ele>2351.1</ele>
        <time>2021-08-15T12:16:34Z</time>
      </trkpt>
      <trkpt lat="45.49099" lon="6.71207">
        <ele>2351.1</ele>
        <time>2021-08-15T12:16:35Z</time>
      </trkpt>
      <trkpt lat="45.49099" lon="6.71207">
        <ele>2351.1</ele>
        <time>2021-08-15T12:16:36Z</time>
      </trkpt>
      <trkpt lat="45.49099" lon="6.71207">
        <ele>2351.1</ele>
        <time>2021-08-15T12:16:37Z</time>
      </trkpt>
      <trkpt lat="45.49099" lon="6.71207">
        <ele>2351.1</ele>
        <time>2021-08-15T12:16:38Z</time>
      </trkpt>
      <trkpt lat="45.49099" lon="6.71207">
        <ele>2351.1</ele>
        <time>2021-08-15T12:16:39Z</time>
      </trkpt>
      <trkpt lat="45.49099" lon="6.71207">
        <ele>2351.1</ele>
        <time>2021-08-15T12:16:40Z</time>
      </trkpt>
      <trkpt lat="45.49099" lon="6.71207">
        <ele>2351.1</ele>
        <time>2021-08-15T12:16:41Z</time>
      </trkpt>
      <trkpt lat="45.49099" lon="6.71207">
        <ele>2351.1</ele>
        <time>2021-08-15T12:16:42Z</time>
      </trkpt>
      <trkpt lat="45.49099" lon="6.71207">
        <ele>2351.1</ele>
        <time>2021-08-15T12:16:43Z</time>
      </trkpt>
      <trkpt lat="45.49099" lon="6.71207">
        <ele>2351.1</ele>
        <time>2021-08-15T12:16:44Z</time>
      </trkpt>
      <trkpt lat="45.49099" lon="6.71207">
        <ele>2351.1</ele>
        <time>2021-08-15T12:16:45Z</time>
      </trkpt>
      <trkpt lat="45.49099" lon="6.71207">
        <ele>2351.1</ele>
        <time>2021-08-15T12:16:46Z</time>
      </trkpt>
      <trkpt lat="45.49099" lon="6.71207">
        <ele>2351.1</ele>
        <time>2021-08-15T12:16:47Z</time>
      </trkpt>
      <trkpt lat="45.49099" lon="6.71207">
        <ele>2351.1</ele>
        <time>2021-08-15T12:16:48Z</time>
      </trkpt>
      <trkpt lat="45.49099" lon="6.71207">
        <ele>2351.1</ele>
        <time>2021-08-15T12:16:49Z</time>
      </trkpt>
      <trkpt lat="45.49099" lon="6.71207">
        <ele>2351.1</ele>
        <time>2021-08-15T12:16:50Z</time>
      </trkpt>
      <trkpt lat="45.49099" lon="6.71207">
        <ele>2351.1</ele>
        <time>2021-08-15T12:16:51Z</time>
      </trkpt>
      <trkpt lat="45.49099" lon="6.71207">
        <ele>2351.1</ele>
        <time>2021-08-15T12:16:52Z</time>
      </trkpt>
      <trkpt lat="45.49099" lon="6.71207">
        <ele>2351.1</ele>
        <time>2021-08-15T12:16:53Z</time>
      </trkpt>
      <trkpt lat="45.49099" lon="6.71207">
        <ele>2351.1</ele>
        <time>2021-08-15T12:16:54Z</time>
      </trkpt>
      <trkpt lat="45.49099" lon="6.71207">
        <ele>2351.1</ele>
        <time>2021-08-15T12:16:55Z</time>
      </trkpt>
      <trkpt lat="45.49099" lon="6.71207">
        <ele>2351.1</ele>
        <time>2021-08-15T12:16:56Z</time>
      </trkpt>
      <trkpt lat="45.49099" lon="6.71207">
        <ele>2351.1</ele>
        <time>2021-08-15T12:16:57Z</time>
      </trkpt>
      <trkpt lat="45.49099" lon="6.71207">
        <ele>2351.1</ele>
        <time>2021-08-15T12:16:58Z</time>
      </trkpt>
      <trkpt lat="45.49099" lon="6.71207">
        <ele>2351.1</ele>
        <time>2021-08-15T12:16:59Z</time>
      </trkpt>
      <trkpt lat="45.49099" lon="6.71207">
        <ele>2351.1</ele>
        <time>2021-08-15T12:17:00Z</time>
      </trkpt>
      <trkpt lat="45.49099" lon="6.71207">
        <ele>2351.1</ele>
        <time>2021-08-15T12:17:01Z</time>
      </trkpt>
      <trkpt lat="45.49099" lon="6.71207">
        <ele>2351.1</ele>
        <time>2021-08-15T12:17:02Z</time>
      </trkpt>
      <trkpt lat="45.49099" lon="6.71207">
        <ele>2351.1</ele>
        <time>2021-08-15T12:17:03Z</time>
      </trkpt>
      <trkpt lat="45.49099" lon="6.71207">
        <ele>2351.1</ele>
        <time>2021-08-15T12:17:04Z</time>
      </trkpt>
      <trkpt lat="45.49099" lon="6.71207">
        <ele>2351.1</ele>
        <time>2021-08-15T12:17:05Z</time>
      </trkpt>
      <trkpt lat="45.49099" lon="6.71207">
        <ele>2351.1</ele>
        <time>2021-08-15T12:17:06Z</time>
      </trkpt>
      <trkpt lat="45.49099" lon="6.71207">
        <ele>2351.1</ele>
        <time>2021-08-15T12:17:07Z</time>
      </trkpt>
      <trkpt lat="45.49099" lon="6.71207">
        <ele>2351.1</ele>
        <time>2021-08-15T12:17:08Z</time>
      </trkpt>
      <trkpt lat="45.49099" lon="6.71207">
        <ele>2351.1</ele>
        <time>2021-08-15T12:17:09Z</time>
      </trkpt>
      <trkpt lat="45.49099" lon="6.71207">
        <ele>2351.1</ele>
        <time>2021-08-15T12:17:10Z</time>
      </trkpt>
      <trkpt lat="45.49099" lon="6.71207">
        <ele>2351.1</ele>
        <time>2021-08-15T12:17:11Z</time>
      </trkpt>
      <trkpt lat="45.49099" lon="6.71207">
        <ele>2351.1</ele>
        <time>2021-08-15T12:17:12Z</time>
      </trkpt>
      <trkpt lat="45.49099" lon="6.71207">
        <ele>2351.1</ele>
        <time>2021-08-15T12:17:13Z</time>
      </trkpt>
      <trkpt lat="45.49099" lon="6.71207">
        <ele>2351.1</ele>
        <time>2021-08-15T12:17:14Z</time>
      </trkpt>
      <trkpt lat="45.49099" lon="6.71207">
        <ele>2351.1</ele>
        <time>2021-08-15T12:17:15Z</time>
      </trkpt>
      <trkpt lat="45.49099" lon="6.71207">
        <ele>2351.1</ele>
        <time>2021-08-15T12:17:16Z</time>
      </trkpt>
      <trkpt lat="45.49099" lon="6.71207">
        <ele>2351.1</ele>
        <time>2021-08-15T12:17:17Z</time>
      </trkpt>
      <trkpt lat="45.49099" lon="6.71207">
        <ele>2351.1</ele>
        <time>2021-08-15T12:17:18Z</time>
      </trkpt>
      <trkpt lat="45.49099" lon="6.71207">
        <ele>2351.1</ele>
        <time>2021-08-15T12:17:19Z</time>
      </trkpt>
      <trkpt lat="45.49099" lon="6.71207">
        <ele>2351.1</ele>
        <time>2021-08-15T12:17:20Z</time>
      </trkpt>
      <trkpt lat="45.49099" lon="6.71207">
        <ele>2351.1</ele>
        <time>2021-08-15T12:17:21Z</time>
      </trkpt>
      <trkpt lat="45.49099" lon="6.71207">
        <ele>2351.1</ele>
        <time>2021-08-15T12:17:22Z</time>
      </trkpt>
      <trkpt lat="45.49099" lon="6.71207">
        <ele>2351.1</ele>
        <time>2021-08-15T12:17:23Z</time>
      </trkpt>
      <trkpt lat="45.49099" lon="6.71207">
        <ele>2351.1</ele>
        <time>2021-08-15T12:17:24Z</time>
      </trkpt>
      <trkpt lat="45.49099" lon="6.71207">
        <ele>2351.1</ele>
        <time>2021-08-15T12:17:25Z</time>
      </trkpt>
      <trkpt lat="45.49099" lon="6.71207">
        <ele>2351.1</ele>
        <time>2021-08-15T12:17:26Z</time>
      </trkpt>
      <trkpt lat="45.49099" lon="6.71207">
        <ele>2351.1</ele>
        <time>2021-08-15T12:17:27Z</time>
      </trkpt>
      <trkpt lat="45.49099" lon="6.71207">
        <ele>2351.1</ele>
        <time>2021-08-15T12:17:28Z</time>
      </trkpt>
      <trkpt lat="45.49099" lon="6.71207">
        <ele>2351.1</ele>
        <time>2021-08-15T12:17:29Z</time>
      </trkpt>
      <trkpt lat="45.49099" lon="6.71207">
        <ele>2351.1</ele>
        <time>2021-08-15T12:17:30Z</time>
      </trkpt>
      <trkpt lat="45.49099" lon="6.71207">
        <ele>2351.1</ele>
        <time>2021-08-15T12:17:31Z</time>
      </trkpt>
      <trkpt lat="45.49099" lon="6.71207">
        <ele>2351.1</ele>
        <time>2021-08-15T12:17:32Z</time>
      </trkpt>
      <trkpt lat="45.49099" lon="6.71207">
        <ele>2351.1</ele>
        <time>2021-08-15T12:17:33Z</time>
      </trkpt>
      <trkpt lat="45.49099" lon="6.71207">
        <ele>2351.1</ele>
        <time>2021-08-15T12:17:34Z</time>
      </trkpt>
      <trkpt lat="45.49099" lon="6.71207">
        <ele>2351.1</ele>
        <time>2021-08-15T12:17:35Z</time>
      </trkpt>
      <trkpt lat="45.49099" lon="6.71207">
        <ele>2351.1</ele>
        <time>2021-08-15T12:17:36Z</time>
      </trkpt>
      <trkpt lat="45.49099" lon="6.71207">
        <ele>2351.1</ele>
        <time>2021-08-15T12:17:37Z</time>
      </trkpt>
      <trkpt lat="45.49099" lon="6.71207">
        <ele>2351.1</ele>
        <time>2021-08-15T12:17:38Z</time>
      </trkpt>
      <trkpt lat="45.49099" lon="6.71207">
        <ele>2351.1</ele>
        <time>2021-08-15T12:17:39Z</time>
      </trkpt>
      <trkpt lat="45.49099" lon="6.71207">
        <ele>2351.1</ele>
        <time>2021-08-15T12:17:40Z</time>
      </trkpt>
      <trkpt lat="45.49099" lon="6.71207">
        <ele>2351.1</ele>
        <time>2021-08-15T12:17:41Z</time>
      </trkpt>
      <trkpt lat="45.49099" lon="6.71207">
        <ele>2351.1</ele>
        <time>2021-08-15T12:17:42Z</time>
      </trkpt>
      <trkpt lat="45.49099" lon="6.71207">
        <ele>2351.1</ele>
        <time>2021-08-15T12:17:43Z</time>
      </trkpt>
      <trkpt lat="45.49099" lon="6.71207">
        <ele>2351.1</ele>
        <time>2021-08-15T12:17:44Z</time>
      </trkpt>
      <trkpt lat="45.49099" lon="6.71207">
        <ele>2351.1</ele>
        <time>2021-08-15T12:17:45Z</time>
      </trkpt>
      <trkpt lat="45.49099" lon="6.71207">
        <ele>2351.1</ele>
        <time>2021-08-15T12:17:46Z</time>
      </trkpt>
      <trkpt lat="45.49099" lon="6.71207">
        <ele>2351.1</ele>
        <time>2021-08-15T12:17:47Z</time>
      </trkpt>
      <trkpt lat="45.49099" lon="6.71207">
        <ele>2351.1</ele>
        <time>2021-08-15T12:17:48Z</time>
      </trkpt>
      <trkpt lat="45.49099" lon="6.71207">
        <ele>2351.1</ele>
        <time>2021-08-15T12:17:49Z</time>
      </trkpt>
      <trkpt lat="45.49099" lon="6.71207">
        <ele>2351.1</ele>
        <time>2021-08-15T12:17:50Z</time>
      </trkpt>
      <trkpt lat="45.49099" lon="6.71207">
        <ele>2351.1</ele>
        <time>2021-08-15T12:17:51Z</time>
      </trkpt>
      <trkpt lat="45.49099" lon="6.71207">
        <ele>2351.1</ele>
        <time>2021-08-15T12:17:52Z</time>
      </trkpt>
      <trkpt lat="45.49099" lon="6.71207">
        <ele>2351.1</ele>
        <time>2021-08-15T12:17:53Z</time>
      </trkpt>
      <trkpt lat="45.49099" lon="6.71207">
        <ele>2351.1</ele>
        <time>2021-08-15T12:17:54Z</time>
      </trkpt>
      <trkpt lat="45.49099" lon="6.71207">
        <ele>2351.1</ele>
        <time>2021-08-15T12:17:55Z</time>
      </trkpt>
      <trkpt lat="45.49099" lon="6.71207">
        <ele>2351.1</ele>
        <time>2021-08-15T12:17:56Z</time>
      </trkpt>
      <trkpt lat="45.49099" lon="6.71207">
        <ele>2351.1</ele>
        <time>2021-08-15T12:17:57Z</time>
      </trkpt>
      <trkpt lat="45.49099" lon="6.71207">
        <ele>2351.1</ele>
        <time>2021-08-15T12:17:58Z</time>
      </trkpt>
      <trkpt lat="45.49099" lon="6.71207">
        <ele>2351.1</ele>
        <time>2021-08-15T12:17:59Z</time>
      </trkpt>
      <trkpt lat="45.49099" lon="6.71207">
        <ele>2351.1</ele>
        <time>2021-08-15T12:18:00Z</time>
      </trkpt>
      <trkpt lat="45.49099" lon="6.71207">
        <ele>2351.1</ele>
        <time>2021-08-15T12:18:01Z</time>
      </trkpt>
      <trkpt lat="45.49099" lon="6.71207">
        <ele>2351.1</ele>
        <time>2021-08-15T12:18:02Z</time>
      </trkpt>
      <trkpt lat="45.49099" lon="6.71207">
        <ele>2351.1</ele>
        <time>2021-08-15T12:18:03Z</time>
      </trkpt>
      <trkpt lat="45.49099" lon="6.71207">
        <ele>2351.1</ele>
        <time>2021-08-15T12:18:04Z</time>
      </trkpt>
      <trkpt lat="45.49099" lon="6.71207">
        <ele>2351.1</ele>
        <time>2021-08-15T12:18:05Z</time>
      </trkpt>
      <trkpt lat="45.49099" lon="6.71207">
        <ele>2351.1</ele>
        <time>2021-08-15T12:18:06Z</time>
      </trkpt>
      <trkpt lat="45.49099" lon="6.71207">
        <ele>2351.1</ele>
        <time>2021-08-15T12:18:07Z</time>
      </trkpt>
      <trkpt lat="45.49099" lon="6.71207">
        <ele>2351.1</ele>
        <time>2021-08-15T12:18:08Z</time>
      </trkpt>
      <trkpt lat="45.49099" lon="6.71207">
        <ele>2351.1</ele>
        <time>2021-08-15T12:18:09Z</time>
      </trkpt>
      <trkpt lat="45.49099" lon="6.71207">
        <ele>2351.1</ele>
        <time>2021-08-15T12:18:10Z</time>
      </trkpt>
      <trkpt lat="45.49099" lon="6.71207">
        <ele>2351.1</ele>
        <time>2021-08-15T12:18:11Z</time>
      </trkpt>
      <trkpt lat="45.49099" lon="6.71207">
        <ele>2351.1</ele>
        <time>2021-08-15T12:18:12Z</time>
      </trkpt>
      <trkpt lat="45.49099" lon="6.71207">
        <ele>2351.1</ele>
        <time>2021-08-15T12:18:13Z</time>
      </trkpt>
      <trkpt lat="45.49099" lon="6.71207">
        <ele>2351.1</ele>
        <time>2021-08-15T12:18:14Z</time>
      </trkpt>
      <trkpt lat="45.49099" lon="6.71207">
        <ele>2351.1</ele>
        <time>2021-08-15T12:18:15Z</time>
      </trkpt>
      <trkpt lat="45.49099" lon="6.71207">
        <ele>2351.1</ele>
        <time>2021-08-15T12:18:16Z</time>
      </trkpt>
      <trkpt lat="45.49099" lon="6.71207">
        <ele>2351.1</ele>
        <time>2021-08-15T12:18:17Z</time>
      </trkpt>
      <trkpt lat="45.49099" lon="6.71207">
        <ele>2351.1</ele>
        <time>2021-08-15T12:18:18Z</time>
      </trkpt>
      <trkpt lat="45.49099" lon="6.71207">
        <ele>2351.1</ele>
        <time>2021-08-15T12:18:19Z</time>
      </trkpt>
      <trkpt lat="45.49099" lon="6.71208">
        <ele>2351.1</ele>
        <time>2021-08-15T12:18:20Z</time>
      </trkpt>
      <trkpt lat="45.49099" lon="6.71208">
        <ele>2351.1</ele>
        <time>2021-08-15T12:18:21Z</time>
      </trkpt>
      <trkpt lat="45.49099" lon="6.71208">
        <ele>2351</ele>
        <time>2021-08-15T12:18:22Z</time>
      </trkpt>
      <trkpt lat="45.49099" lon="6.71208">
        <ele>2351</ele>
        <time>2021-08-15T12:18:23Z</time>
      </trkpt>
      <trkpt lat="45.49098" lon="6.71208">
        <ele>2351</ele>
        <time>2021-08-15T12:18:24Z</time>
      </trkpt>
      <trkpt lat="45.49098" lon="6.71208">
        <ele>2351</ele>
        <time>2021-08-15T12:18:25Z</time>
      </trkpt>
      <trkpt lat="45.49098" lon="6.71208">
        <ele>2351</ele>
        <time>2021-08-15T12:18:26Z</time>
      </trkpt>
      <trkpt lat="45.49098" lon="6.71207">
        <ele>2351</ele>
        <time>2021-08-15T12:18:27Z</time>
      </trkpt>
      <trkpt lat="45.49098" lon="6.71207">
        <ele>2351</ele>
        <time>2021-08-15T12:18:28Z</time>
      </trkpt>
      <trkpt lat="45.49098" lon="6.71206">
        <ele>2350.9</ele>
        <time>2021-08-15T12:18:29Z</time>
      </trkpt>
      <trkpt lat="45.49098" lon="6.71206">
        <ele>2350.9</ele>
        <time>2021-08-15T12:18:30Z</time>
      </trkpt>
      <trkpt lat="45.49098" lon="6.71206">
        <ele>2350.9</ele>
        <time>2021-08-15T12:18:31Z</time>
      </trkpt>
      <trkpt lat="45.49098" lon="6.71205">
        <ele>2350.9</ele>
        <time>2021-08-15T12:18:32Z</time>
      </trkpt>
      <trkpt lat="45.49098" lon="6.71205">
        <ele>2350.9</ele>
        <time>2021-08-15T12:18:33Z</time>
      </trkpt>
      <trkpt lat="45.49098" lon="6.71205">
        <ele>2350.9</ele>
        <time>2021-08-15T12:18:34Z</time>
      </trkpt>
      <trkpt lat="45.49098" lon="6.71205">
        <ele>2350.9</ele>
        <time>2021-08-15T12:18:35Z</time>
      </trkpt>
      <trkpt lat="45.49098" lon="6.71205">
        <ele>2350.9</ele>
        <time>2021-08-15T12:18:36Z</time>
      </trkpt>
      <trkpt lat="45.49098" lon="6.71205">
        <ele>2350.9</ele>
        <time>2021-08-15T12:18:37Z</time>
      </trkpt>
      <trkpt lat="45.49098" lon="6.71205">
        <ele>2350.9</ele>
        <time>2021-08-15T12:18:38Z</time>
      </trkpt>
      <trkpt lat="45.49098" lon="6.71205">
        <ele>2350.9</ele>
        <time>2021-08-15T12:18:39Z</time>
      </trkpt>
      <trkpt lat="45.49098" lon="6.71205">
        <ele>2350.9</ele>
        <time>2021-08-15T12:18:40Z</time>
      </trkpt>
      <trkpt lat="45.49098" lon="6.71205">
        <ele>2350.9</ele>
        <time>2021-08-15T12:18:41Z</time>
      </trkpt>
      <trkpt lat="45.49098" lon="6.71205">
        <ele>2350.9</ele>
        <time>2021-08-15T12:18:42Z</time>
      </trkpt>
      <trkpt lat="45.49098" lon="6.71205">
        <ele>2350.9</ele>
        <time>2021-08-15T12:18:43Z</time>
      </trkpt>
      <trkpt lat="45.49098" lon="6.71205">
        <ele>2350.9</ele>
        <time>2021-08-15T12:18:44Z</time>
      </trkpt>
      <trkpt lat="45.49098" lon="6.71205">
        <ele>2350.9</ele>
        <time>2021-08-15T12:18:45Z</time>
      </trkpt>
      <trkpt lat="45.49098" lon="6.71205">
        <ele>2350.9</ele>
        <time>2021-08-15T12:18:46Z</time>
      </trkpt>
      <trkpt lat="45.49098" lon="6.71205">
        <ele>2350.9</ele>
        <time>2021-08-15T12:18:47Z</time>
      </trkpt>
      <trkpt lat="45.49098" lon="6.71205">
        <ele>2350.9</ele>
        <time>2021-08-15T12:18:48Z</time>
      </trkpt>
      <trkpt lat="45.49098" lon="6.71205">
        <ele>2350.9</ele>
        <time>2021-08-15T12:18:49Z</time>
      </trkpt>
      <trkpt lat="45.49098" lon="6.71205">
        <ele>2350.9</ele>
        <time>2021-08-15T12:18:50Z</time>
      </trkpt>
      <trkpt lat="45.49098" lon="6.71205">
        <ele>2350.9</ele>
        <time>2021-08-15T12:18:51Z</time>
      </trkpt>
      <trkpt lat="45.49098" lon="6.71205">
        <ele>2350.9</ele>
        <time>2021-08-15T12:18:52Z</time>
      </trkpt>
      <trkpt lat="45.49098" lon="6.71205">
        <ele>2350.9</ele>
        <time>2021-08-15T12:18:53Z</time>
      </trkpt>
      <trkpt lat="45.49097" lon="6.71205">
        <ele>2350.9</ele>
        <time>2021-08-15T12:18:54Z</time>
      </trkpt>
      <trkpt lat="45.49097" lon="6.71205">
        <ele>2350.9</ele>
        <time>2021-08-15T12:18:55Z</time>
      </trkpt>
      <trkpt lat="45.49097" lon="6.71205">
        <ele>2350.8</ele>
        <time>2021-08-15T12:18:56Z</time>
      </trkpt>
      <trkpt lat="45.49097" lon="6.71204">
        <ele>2350.8</ele>
        <time>2021-08-15T12:18:57Z</time>
      </trkpt>
      <trkpt lat="45.49096" lon="6.71204">
        <ele>2350.8</ele>
        <time>2021-08-15T12:18:58Z</time>
      </trkpt>
      <trkpt lat="45.49096" lon="6.71203">
        <ele>2350.8</ele>
        <time>2021-08-15T12:18:59Z</time>
      </trkpt>
      <trkpt lat="45.49096" lon="6.71203">
        <ele>2350.7</ele>
        <time>2021-08-15T12:19:00Z</time>
      </trkpt>
      <trkpt lat="45.49095" lon="6.71202">
        <ele>2350.7</ele>
        <time>2021-08-15T12:19:01Z</time>
      </trkpt>
      <trkpt lat="45.49095" lon="6.71201">
        <ele>2350.7</ele>
        <time>2021-08-15T12:19:02Z</time>
      </trkpt>
      <trkpt lat="45.49094" lon="6.71201">
        <ele>2350.6</ele>
        <time>2021-08-15T12:19:03Z</time>
      </trkpt>
      <trkpt lat="45.49094" lon="6.712">
        <ele>2350.6</ele>
        <time>2021-08-15T12:19:04Z</time>
      </trkpt>
      <trkpt lat="45.49094" lon="6.71199">
        <ele>2350.6</ele>
        <time>2021-08-15T12:19:05Z</time>
      </trkpt>
      <trkpt lat="45.49094" lon="6.71198">
        <ele>2350.6</ele>
        <time>2021-08-15T12:19:06Z</time>
      </trkpt>
      <trkpt lat="45.49094" lon="6.71198">
        <ele>2350.5</ele>
        <time>2021-08-15T12:19:07Z</time>
      </trkpt>
      <trkpt lat="45.49093" lon="6.71197">
        <ele>2350.5</ele>
        <time>2021-08-15T12:19:08Z</time>
      </trkpt>
      <trkpt lat="45.49093" lon="6.71196">
        <ele>2350.5</ele>
        <time>2021-08-15T12:19:09Z</time>
      </trkpt>
      <trkpt lat="45.49093" lon="6.71195">
        <ele>2350.5</ele>
        <time>2021-08-15T12:19:10Z</time>
      </trkpt>
      <trkpt lat="45.49093" lon="6.71194">
        <ele>2350.4</ele>
        <time>2021-08-15T12:19:11Z</time>
      </trkpt>
      <trkpt lat="45.49093" lon="6.71194">
        <ele>2350.4</ele>
        <time>2021-08-15T12:19:12Z</time>
      </trkpt>
      <trkpt lat="45.49093" lon="6.71193">
        <ele>2350.4</ele>
        <time>2021-08-15T12:19:13Z</time>
      </trkpt>
      <trkpt lat="45.49093" lon="6.71192">
        <ele>2350.4</ele>
        <time>2021-08-15T12:19:14Z</time>
      </trkpt>
      <trkpt lat="45.49093" lon="6.71191">
        <ele>2350.4</ele>
        <time>2021-08-15T12:19:15Z</time>
      </trkpt>
      <trkpt lat="45.49093" lon="6.7119">
        <ele>2350.3</ele>
        <time>2021-08-15T12:19:16Z</time>
      </trkpt>
      <trkpt lat="45.49093" lon="6.71189">
        <ele>2350.3</ele>
        <time>2021-08-15T12:19:17Z</time>
      </trkpt>
      <trkpt lat="45.49094" lon="6.71188">
        <ele>2350.3</ele>
        <time>2021-08-15T12:19:18Z</time>
      </trkpt>
      <trkpt lat="45.49094" lon="6.71187">
        <ele>2350.3</ele>
        <time>2021-08-15T12:19:19Z</time>
      </trkpt>
      <trkpt lat="45.49094" lon="6.71186">
        <ele>2350.3</ele>
        <time>2021-08-15T12:19:20Z</time>
      </trkpt>
      <trkpt lat="45.49094" lon="6.71186">
        <ele>2350.2</ele>
        <time>2021-08-15T12:19:21Z</time>
      </trkpt>
      <trkpt lat="45.49094" lon="6.71185">
        <ele>2350.2</ele>
        <time>2021-08-15T12:19:22Z</time>
      </trkpt>
      <trkpt lat="45.49093" lon="6.71184">
        <ele>2350.2</ele>
        <time>2021-08-15T12:19:23Z</time>
      </trkpt>
      <trkpt lat="45.49093" lon="6.71183">
        <ele>2350.2</ele>
        <time>2021-08-15T12:19:24Z</time>
      </trkpt>
      <trkpt lat="45.49093" lon="6.71182">
        <ele>2350.1</ele>
        <time>2021-08-15T12:19:25Z</time>
      </trkpt>
      <trkpt lat="45.49093" lon="6.71181">
        <ele>2350.1</ele>
        <time>2021-08-15T12:19:26Z</time>
      </trkpt>
      <trkpt lat="45.49093" lon="6.71179">
        <ele>2350.1</ele>
        <time>2021-08-15T12:19:27Z</time>
      </trkpt>
      <trkpt lat="45.49093" lon="6.71178">
        <ele>2350.1</ele>
        <time>2021-08-15T12:19:28Z</time>
      </trkpt>
      <trkpt lat="45.49092" lon="6.71177">
        <ele>2350.1</ele>
        <time>2021-08-15T12:19:29Z</time>
      </trkpt>
      <trkpt lat="45.49092" lon="6.71176">
        <ele>2350</ele>
        <time>2021-08-15T12:19:30Z</time>
      </trkpt>
      <trkpt lat="45.49092" lon="6.71175">
        <ele>2350</ele>
        <time>2021-08-15T12:19:31Z</time>
      </trkpt>
      <trkpt lat="45.49091" lon="6.71174">
        <ele>2350</ele>
        <time>2021-08-15T12:19:32Z</time>
      </trkpt>
      <trkpt lat="45.49091" lon="6.71173">
        <ele>2350</ele>
        <time>2021-08-15T12:19:33Z</time>
      </trkpt>
      <trkpt lat="45.49091" lon="6.71172">
        <ele>2350</ele>
        <time>2021-08-15T12:19:34Z</time>
      </trkpt>
      <trkpt lat="45.4909" lon="6.71171">
        <ele>2349.9</ele>
        <time>2021-08-15T12:19:35Z</time>
      </trkpt>
      <trkpt lat="45.4909" lon="6.7117">
        <ele>2349.9</ele>
        <time>2021-08-15T12:19:36Z</time>
      </trkpt>
      <trkpt lat="45.4909" lon="6.71169">
        <ele>2349.9</ele>
        <time>2021-08-15T12:19:37Z</time>
      </trkpt>
      <trkpt lat="45.49089" lon="6.71168">
        <ele>2349.9</ele>
        <time>2021-08-15T12:19:38Z</time>
      </trkpt>
      <trkpt lat="45.49089" lon="6.71168">
        <ele>2349.9</ele>
        <time>2021-08-15T12:19:39Z</time>
      </trkpt>
      <trkpt lat="45.49088" lon="6.71167">
        <ele>2349.8</ele>
        <time>2021-08-15T12:19:40Z</time>
      </trkpt>
      <trkpt lat="45.49088" lon="6.71166">
        <ele>2349.8</ele>
        <time>2021-08-15T12:19:41Z</time>
      </trkpt>
      <trkpt lat="45.49088" lon="6.71165">
        <ele>2349.8</ele>
        <time>2021-08-15T12:19:42Z</time>
      </trkpt>
      <trkpt lat="45.49088" lon="6.71165">
        <ele>2349.8</ele>
        <time>2021-08-15T12:19:43Z</time>
      </trkpt>
      <trkpt lat="45.49087" lon="6.71164">
        <ele>2349.8</ele>
        <time>2021-08-15T12:19:44Z</time>
      </trkpt>
      <trkpt lat="45.49087" lon="6.71163">
        <ele>2349.8</ele>
        <time>2021-08-15T12:19:45Z</time>
      </trkpt>
      <trkpt lat="45.49087" lon="6.71163">
        <ele>2349.8</ele>
        <time>2021-08-15T12:19:46Z</time>
      </trkpt>
      <trkpt lat="45.49087" lon="6.71162">
        <ele>2349.8</ele>
        <time>2021-08-15T12:19:47Z</time>
      </trkpt>
      <trkpt lat="45.49087" lon="6.71162">
        <ele>2349.7</ele>
        <time>2021-08-15T12:19:48Z</time>
      </trkpt>
      <trkpt lat="45.49087" lon="6.71162">
        <ele>2349.7</ele>
        <time>2021-08-15T12:19:49Z</time>
      </trkpt>
      <trkpt lat="45.49086" lon="6.71161">
        <ele>2349.7</ele>
        <time>2021-08-15T12:19:50Z</time>
      </trkpt>
      <trkpt lat="45.49086" lon="6.71161">
        <ele>2349.7</ele>
        <time>2021-08-15T12:19:51Z</time>
      </trkpt>
      <trkpt lat="45.49086" lon="6.71161">
        <ele>2349.7</ele>
        <time>2021-08-15T12:19:52Z</time>
      </trkpt>
      <trkpt lat="45.49086" lon="6.71161">
        <ele>2349.7</ele>
        <time>2021-08-15T12:19:53Z</time>
      </trkpt>
      <trkpt lat="45.49086" lon="6.71161">
        <ele>2349.7</ele>
        <time>2021-08-15T12:19:54Z</time>
      </trkpt>
      <trkpt lat="45.49086" lon="6.7116">
        <ele>2349.7</ele>
        <time>2021-08-15T12:19:55Z</time>
      </trkpt>
      <trkpt lat="45.49086" lon="6.7116">
        <ele>2349.7</ele>
        <time>2021-08-15T12:19:56Z</time>
      </trkpt>
      <trkpt lat="45.49086" lon="6.7116">
        <ele>2349.7</ele>
        <time>2021-08-15T12:19:57Z</time>
      </trkpt>
      <trkpt lat="45.49086" lon="6.7116">
        <ele>2349.7</ele>
        <time>2021-08-15T12:19:58Z</time>
      </trkpt>
      <trkpt lat="45.49086" lon="6.7116">
        <ele>2349.7</ele>
        <time>2021-08-15T12:19:59Z</time>
      </trkpt>
      <trkpt lat="45.49086" lon="6.7116">
        <ele>2349.7</ele>
        <time>2021-08-15T12:20:00Z</time>
      </trkpt>
      <trkpt lat="45.49086" lon="6.7116">
        <ele>2349.7</ele>
        <time>2021-08-15T12:20:01Z</time>
      </trkpt>
      <trkpt lat="45.49086" lon="6.7116">
        <ele>2349.7</ele>
        <time>2021-08-15T12:20:02Z</time>
      </trkpt>
      <trkpt lat="45.49086" lon="6.7116">
        <ele>2349.7</ele>
        <time>2021-08-15T12:20:03Z</time>
      </trkpt>
      <trkpt lat="45.49086" lon="6.7116">
        <ele>2349.7</ele>
        <time>2021-08-15T12:20:04Z</time>
      </trkpt>
      <trkpt lat="45.49086" lon="6.7116">
        <ele>2349.7</ele>
        <time>2021-08-15T12:20:05Z</time>
      </trkpt>
      <trkpt lat="45.49086" lon="6.71161">
        <ele>2349.7</ele>
        <time>2021-08-15T12:20:06Z</time>
      </trkpt>
      <trkpt lat="45.49086" lon="6.71161">
        <ele>2349.7</ele>
        <time>2021-08-15T12:20:07Z</time>
      </trkpt>
      <trkpt lat="45.49086" lon="6.71161">
        <ele>2349.7</ele>
        <time>2021-08-15T12:20:08Z</time>
      </trkpt>
      <trkpt lat="45.49086" lon="6.71161">
        <ele>2349.7</ele>
        <time>2021-08-15T12:20:09Z</time>
      </trkpt>
      <trkpt lat="45.49086" lon="6.71161">
        <ele>2349.7</ele>
        <time>2021-08-15T12:20:10Z</time>
      </trkpt>
      <trkpt lat="45.49086" lon="6.7116">
        <ele>2349.7</ele>
        <time>2021-08-15T12:20:11Z</time>
      </trkpt>
      <trkpt lat="45.49086" lon="6.7116">
        <ele>2349.7</ele>
        <time>2021-08-15T12:20:12Z</time>
      </trkpt>
      <trkpt lat="45.49086" lon="6.7116">
        <ele>2349.7</ele>
        <time>2021-08-15T12:20:13Z</time>
      </trkpt>
      <trkpt lat="45.49086" lon="6.7116">
        <ele>2349.7</ele>
        <time>2021-08-15T12:20:14Z</time>
      </trkpt>
      <trkpt lat="45.49086" lon="6.71159">
        <ele>2349.7</ele>
        <time>2021-08-15T12:20:15Z</time>
      </trkpt>
      <trkpt lat="45.49086" lon="6.71159">
        <ele>2349.7</ele>
        <time>2021-08-15T12:20:16Z</time>
      </trkpt>
      <trkpt lat="45.49086" lon="6.71158">
        <ele>2349.7</ele>
        <time>2021-08-15T12:20:17Z</time>
      </trkpt>
      <trkpt lat="45.49086" lon="6.71157">
        <ele>2349.7</ele>
        <time>2021-08-15T12:20:18Z</time>
      </trkpt>
      <trkpt lat="45.49086" lon="6.71157">
        <ele>2349.7</ele>
        <time>2021-08-15T12:20:19Z</time>
      </trkpt>
      <trkpt lat="45.49086" lon="6.71156">
        <ele>2349.7</ele>
        <time>2021-08-15T12:20:20Z</time>
      </trkpt>
      <trkpt lat="45.49086" lon="6.71155">
        <ele>2349.6</ele>
        <time>2021-08-15T12:20:21Z</time>
      </trkpt>
      <trkpt lat="45.49086" lon="6.71153">
        <ele>2349.6</ele>
        <time>2021-08-15T12:20:22Z</time>
      </trkpt>
      <trkpt lat="45.49086" lon="6.71152">
        <ele>2349.6</ele>
        <time>2021-08-15T12:20:23Z</time>
      </trkpt>
      <trkpt lat="45.49086" lon="6.71151">
        <ele>2349.6</ele>
        <time>2021-08-15T12:20:24Z</time>
      </trkpt>
      <trkpt lat="45.49086" lon="6.71149">
        <ele>2349.6</ele>
        <time>2021-08-15T12:20:25Z</time>
      </trkpt>
      <trkpt lat="45.49086" lon="6.71148">
        <ele>2349.6</ele>
        <time>2021-08-15T12:20:26Z</time>
      </trkpt>
      <trkpt lat="45.49085" lon="6.71146">
        <ele>2349.6</ele>
        <time>2021-08-15T12:20:27Z</time>
      </trkpt>
      <trkpt lat="45.49085" lon="6.71145">
        <ele>2349.5</ele>
        <time>2021-08-15T12:20:28Z</time>
      </trkpt>
      <trkpt lat="45.49085" lon="6.71143">
        <ele>2349.5</ele>
        <time>2021-08-15T12:20:29Z</time>
      </trkpt>
      <trkpt lat="45.49085" lon="6.71141">
        <ele>2349.5</ele>
        <time>2021-08-15T12:20:30Z</time>
      </trkpt>
      <trkpt lat="45.49084" lon="6.7114">
        <ele>2349.5</ele>
        <time>2021-08-15T12:20:31Z</time>
      </trkpt>
      <trkpt lat="45.49084" lon="6.71138">
        <ele>2349.5</ele>
        <time>2021-08-15T12:20:32Z</time>
      </trkpt>
      <trkpt lat="45.49084" lon="6.71137">
        <ele>2349.5</ele>
        <time>2021-08-15T12:20:33Z</time>
      </trkpt>
      <trkpt lat="45.49084" lon="6.71135">
        <ele>2349.5</ele>
        <time>2021-08-15T12:20:34Z</time>
      </trkpt>
      <trkpt lat="45.49084" lon="6.71134">
        <ele>2349.5</ele>
        <time>2021-08-15T12:20:35Z</time>
      </trkpt>
      <trkpt lat="45.49083" lon="6.71133">
        <ele>2349.5</ele>
        <time>2021-08-15T12:20:36Z</time>
      </trkpt>
      <trkpt lat="45.49083" lon="6.71131">
        <ele>2349.5</ele>
        <time>2021-08-15T12:20:37Z</time>
      </trkpt>
      <trkpt lat="45.49083" lon="6.7113">
        <ele>2349.5</ele>
        <time>2021-08-15T12:20:38Z</time>
      </trkpt>
      <trkpt lat="45.49083" lon="6.71129">
        <ele>2349.5</ele>
        <time>2021-08-15T12:20:39Z</time>
      </trkpt>
      <trkpt lat="45.49083" lon="6.71128">
        <ele>2349.5</ele>
        <time>2021-08-15T12:20:40Z</time>
      </trkpt>
      <trkpt lat="45.49083" lon="6.71126">
        <ele>2349.5</ele>
        <time>2021-08-15T12:20:41Z</time>
      </trkpt>
      <trkpt lat="45.49083" lon="6.71125">
        <ele>2349.6</ele>
        <time>2021-08-15T12:20:42Z</time>
      </trkpt>
      <trkpt lat="45.49083" lon="6.71124">
        <ele>2349.6</ele>
        <time>2021-08-15T12:20:43Z</time>
      </trkpt>
      <trkpt lat="45.49083" lon="6.71122">
        <ele>2349.6</ele>
        <time>2021-08-15T12:20:44Z</time>
      </trkpt>
      <trkpt lat="45.49083" lon="6.71121">
        <ele>2349.6</ele>
        <time>2021-08-15T12:20:45Z</time>
      </trkpt>
      <trkpt lat="45.49084" lon="6.7112">
        <ele>2349.6</ele>
        <time>2021-08-15T12:20:46Z</time>
      </trkpt>
      <trkpt lat="45.49084" lon="6.71118">
        <ele>2349.6</ele>
        <time>2021-08-15T12:20:47Z</time>
      </trkpt>
      <trkpt lat="45.49084" lon="6.71117">
        <ele>2349.6</ele>
        <time>2021-08-15T12:20:48Z</time>
      </trkpt>
      <trkpt lat="45.49085" lon="6.71116">
        <ele>2349.6</ele>
        <time>2021-08-15T12:20:49Z</time>
      </trkpt>
      <trkpt lat="45.49085" lon="6.71114">
        <ele>2349.7</ele>
        <time>2021-08-15T12:20:50Z</time>
      </trkpt>
      <trkpt lat="45.49086" lon="6.71113">
        <ele>2349.7</ele>
        <time>2021-08-15T12:20:51Z</time>
      </trkpt>
      <trkpt lat="45.49086" lon="6.71112">
        <ele>2349.7</ele>
        <time>2021-08-15T12:20:52Z</time>
      </trkpt>
      <trkpt lat="45.49087" lon="6.71111">
        <ele>2349.7</ele>
        <time>2021-08-15T12:20:53Z</time>
      </trkpt>
      <trkpt lat="45.49087" lon="6.71109">
        <ele>2349.8</ele>
        <time>2021-08-15T12:20:54Z</time>
      </trkpt>
      <trkpt lat="45.49088" lon="6.71108">
        <ele>2349.8</ele>
        <time>2021-08-15T12:20:55Z</time>
      </trkpt>
      <trkpt lat="45.49088" lon="6.71107">
        <ele>2349.8</ele>
        <time>2021-08-15T12:20:56Z</time>
      </trkpt>
      <trkpt lat="45.49089" lon="6.71106">
        <ele>2349.8</ele>
        <time>2021-08-15T12:20:57Z</time>
      </trkpt>
      <trkpt lat="45.49089" lon="6.71105">
        <ele>2349.9</ele>
        <time>2021-08-15T12:20:58Z</time>
      </trkpt>
      <trkpt lat="45.4909" lon="6.71104">
        <ele>2349.9</ele>
        <time>2021-08-15T12:20:59Z</time>
      </trkpt>
      <trkpt lat="45.4909" lon="6.71103">
        <ele>2349.9</ele>
        <time>2021-08-15T12:21:00Z</time>
      </trkpt>
      <trkpt lat="45.4909" lon="6.71102">
        <ele>2349.9</ele>
        <time>2021-08-15T12:21:01Z</time>
      </trkpt>
      <trkpt lat="45.49091" lon="6.71102">
        <ele>2350</ele>
        <time>2021-08-15T12:21:02Z</time>
      </trkpt>
      <trkpt lat="45.49091" lon="6.71101">
        <ele>2350</ele>
        <time>2021-08-15T12:21:03Z</time>
      </trkpt>
      <trkpt lat="45.49091" lon="6.71101">
        <ele>2350</ele>
        <time>2021-08-15T12:21:04Z</time>
      </trkpt>
      <trkpt lat="45.49091" lon="6.711">
        <ele>2350</ele>
        <time>2021-08-15T12:21:05Z</time>
      </trkpt>
      <trkpt lat="45.49091" lon="6.711">
        <ele>2350</ele>
        <time>2021-08-15T12:21:06Z</time>
      </trkpt>
      <trkpt lat="45.49091" lon="6.711">
        <ele>2350</ele>
        <time>2021-08-15T12:21:07Z</time>
      </trkpt>
      <trkpt lat="45.49092" lon="6.71099">
        <ele>2350</ele>
        <time>2021-08-15T12:21:08Z</time>
      </trkpt>
      <trkpt lat="45.49092" lon="6.71099">
        <ele>2350</ele>
        <time>2021-08-15T12:21:09Z</time>
      </trkpt>
      <trkpt lat="45.49092" lon="6.71099">
        <ele>2350</ele>
        <time>2021-08-15T12:21:10Z</time>
      </trkpt>
      <trkpt lat="45.49092" lon="6.71099">
        <ele>2350</ele>
        <time>2021-08-15T12:21:11Z</time>
      </trkpt>
      <trkpt lat="45.49092" lon="6.71099">
        <ele>2350</ele>
        <time>2021-08-15T12:21:12Z</time>
      </trkpt>
      <trkpt lat="45.49092" lon="6.71099">
        <ele>2350</ele>
        <time>2021-08-15T12:21:13Z</time>
      </trkpt>
      <trkpt lat="45.49092" lon="6.71098">
        <ele>2350</ele>
        <time>2021-08-15T12:21:14Z</time>
      </trkpt>
      <trkpt lat="45.49093" lon="6.71098">
        <ele>2350.1</ele>
        <time>2021-08-15T12:21:15Z</time>
      </trkpt>
      <trkpt lat="45.49093" lon="6.71098">
        <ele>2350.1</ele>
        <time>2021-08-15T12:21:16Z</time>
      </trkpt>
      <trkpt lat="45.49094" lon="6.71098">
        <ele>2350.1</ele>
        <time>2021-08-15T12:21:17Z</time>
      </trkpt>
      <trkpt lat="45.49094" lon="6.71097">
        <ele>2350.1</ele>
        <time>2021-08-15T12:21:18Z</time>
      </trkpt>
      <trkpt lat="45.49094" lon="6.71096">
        <ele>2350.1</ele>
        <time>2021-08-15T12:21:19Z</time>
      </trkpt>
      <trkpt lat="45.49095" lon="6.71096">
        <ele>2350.1</ele>
        <time>2021-08-15T12:21:20Z</time>
      </trkpt>
      <trkpt lat="45.49095" lon="6.71095">
        <ele>2350.1</ele>
        <time>2021-08-15T12:21:21Z</time>
      </trkpt>
      <trkpt lat="45.49095" lon="6.71094">
        <ele>2350.1</ele>
        <time>2021-08-15T12:21:22Z</time>
      </trkpt>
      <trkpt lat="45.49096" lon="6.71093">
        <ele>2350.1</ele>
        <time>2021-08-15T12:21:23Z</time>
      </trkpt>
      <trkpt lat="45.49096" lon="6.71091">
        <ele>2350.1</ele>
        <time>2021-08-15T12:21:24Z</time>
      </trkpt>
      <trkpt lat="45.49096" lon="6.7109">
        <ele>2350.1</ele>
        <time>2021-08-15T12:21:25Z</time>
      </trkpt>
      <trkpt lat="45.49096" lon="6.71088">
        <ele>2350.1</ele>
        <time>2021-08-15T12:21:26Z</time>
      </trkpt>
      <trkpt lat="45.49096" lon="6.71087">
        <ele>2350.1</ele>
        <time>2021-08-15T12:21:27Z</time>
      </trkpt>
      <trkpt lat="45.49097" lon="6.71085">
        <ele>2350.1</ele>
        <time>2021-08-15T12:21:28Z</time>
      </trkpt>
      <trkpt lat="45.49097" lon="6.71083">
        <ele>2350.1</ele>
        <time>2021-08-15T12:21:29Z</time>
      </trkpt>
      <trkpt lat="45.49097" lon="6.71081">
        <ele>2350</ele>
        <time>2021-08-15T12:21:30Z</time>
      </trkpt>
      <trkpt lat="45.49097" lon="6.7108">
        <ele>2350</ele>
        <time>2021-08-15T12:21:31Z</time>
      </trkpt>
      <trkpt lat="45.49097" lon="6.71078">
        <ele>2349.9</ele>
        <time>2021-08-15T12:21:32Z</time>
      </trkpt>
      <trkpt lat="45.49097" lon="6.71076">
        <ele>2349.9</ele>
        <time>2021-08-15T12:21:33Z</time>
      </trkpt>
      <trkpt lat="45.49097" lon="6.71075">
        <ele>2349.8</ele>
        <time>2021-08-15T12:21:34Z</time>
      </trkpt>
      <trkpt lat="45.49097" lon="6.71073">
        <ele>2349.8</ele>
        <time>2021-08-15T12:21:35Z</time>
      </trkpt>
      <trkpt lat="45.49097" lon="6.71072">
        <ele>2349.7</ele>
        <time>2021-08-15T12:21:36Z</time>
      </trkpt>
      <trkpt lat="45.49097" lon="6.71071">
        <ele>2349.7</ele>
        <time>2021-08-15T12:21:37Z</time>
      </trkpt>
      <trkpt lat="45.49097" lon="6.7107">
        <ele>2349.6</ele>
        <time>2021-08-15T12:21:38Z</time>
      </trkpt>
      <trkpt lat="45.49097" lon="6.71069">
        <ele>2349.6</ele>
        <time>2021-08-15T12:21:39Z</time>
      </trkpt>
      <trkpt lat="45.49097" lon="6.71067">
        <ele>2349.5</ele>
        <time>2021-08-15T12:21:40Z</time>
      </trkpt>
      <trkpt lat="45.49097" lon="6.71066">
        <ele>2349.4</ele>
        <time>2021-08-15T12:21:41Z</time>
      </trkpt>
      <trkpt lat="45.49097" lon="6.71065">
        <ele>2349.4</ele>
        <time>2021-08-15T12:21:42Z</time>
      </trkpt>
      <trkpt lat="45.49097" lon="6.71064">
        <ele>2349.3</ele>
        <time>2021-08-15T12:21:43Z</time>
      </trkpt>
      <trkpt lat="45.49097" lon="6.71062">
        <ele>2349.3</ele>
        <time>2021-08-15T12:21:44Z</time>
      </trkpt>
      <trkpt lat="45.49097" lon="6.71061">
        <ele>2349.2</ele>
        <time>2021-08-15T12:21:45Z</time>
      </trkpt>
      <trkpt lat="45.49097" lon="6.7106">
        <ele>2349.1</ele>
        <time>2021-08-15T12:21:46Z</time>
      </trkpt>
      <trkpt lat="45.49096" lon="6.71058">
        <ele>2349</ele>
        <time>2021-08-15T12:21:47Z</time>
      </trkpt>
      <trkpt lat="45.49096" lon="6.71057">
        <ele>2348.9</ele>
        <time>2021-08-15T12:21:48Z</time>
      </trkpt>
      <trkpt lat="45.49096" lon="6.71056">
        <ele>2348.9</ele>
        <time>2021-08-15T12:21:49Z</time>
      </trkpt>
      <trkpt lat="45.49096" lon="6.71055">
        <ele>2348.8</ele>
        <time>2021-08-15T12:21:50Z</time>
      </trkpt>
      <trkpt lat="45.49096" lon="6.71054">
        <ele>2348.7</ele>
        <time>2021-08-15T12:21:51Z</time>
      </trkpt>
      <trkpt lat="45.49095" lon="6.71053">
        <ele>2348.6</ele>
        <time>2021-08-15T12:21:52Z</time>
      </trkpt>
      <trkpt lat="45.49095" lon="6.71052">
        <ele>2348.6</ele>
        <time>2021-08-15T12:21:53Z</time>
      </trkpt>
      <trkpt lat="45.49095" lon="6.71052">
        <ele>2348.6</ele>
        <time>2021-08-15T12:21:54Z</time>
      </trkpt>
      <trkpt lat="45.49095" lon="6.71051">
        <ele>2348.5</ele>
        <time>2021-08-15T12:21:55Z</time>
      </trkpt>
      <trkpt lat="45.49095" lon="6.71051">
        <ele>2348.5</ele>
        <time>2021-08-15T12:21:56Z</time>
      </trkpt>
      <trkpt lat="45.49095" lon="6.71051">
        <ele>2348.5</ele>
        <time>2021-08-15T12:21:57Z</time>
      </trkpt>
      <trkpt lat="45.49095" lon="6.7105">
        <ele>2348.5</ele>
        <time>2021-08-15T12:21:58Z</time>
      </trkpt>
      <trkpt lat="45.49095" lon="6.7105">
        <ele>2348.5</ele>
        <time>2021-08-15T12:21:59Z</time>
      </trkpt>
      <trkpt lat="45.49095" lon="6.7105">
        <ele>2348.4</ele>
        <time>2021-08-15T12:22:00Z</time>
      </trkpt>
      <trkpt lat="45.49096" lon="6.7105">
        <ele>2348.4</ele>
        <time>2021-08-15T12:22:01Z</time>
      </trkpt>
      <trkpt lat="45.49096" lon="6.7105">
        <ele>2348.4</ele>
        <time>2021-08-15T12:22:02Z</time>
      </trkpt>
      <trkpt lat="45.49096" lon="6.71049">
        <ele>2348.4</ele>
        <time>2021-08-15T12:22:03Z</time>
      </trkpt>
      <trkpt lat="45.49096" lon="6.71049">
        <ele>2348.3</ele>
        <time>2021-08-15T12:22:04Z</time>
      </trkpt>
      <trkpt lat="45.49096" lon="6.71048">
        <ele>2348.3</ele>
        <time>2021-08-15T12:22:05Z</time>
      </trkpt>
      <trkpt lat="45.49096" lon="6.71048">
        <ele>2348.2</ele>
        <time>2021-08-15T12:22:06Z</time>
      </trkpt>
      <trkpt lat="45.49097" lon="6.71047">
        <ele>2348.2</ele>
        <time>2021-08-15T12:22:07Z</time>
      </trkpt>
      <trkpt lat="45.49097" lon="6.71046">
        <ele>2348.1</ele>
        <time>2021-08-15T12:22:08Z</time>
      </trkpt>
      <trkpt lat="45.49097" lon="6.71045">
        <ele>2348</ele>
        <time>2021-08-15T12:22:09Z</time>
      </trkpt>
      <trkpt lat="45.49097" lon="6.71044">
        <ele>2348</ele>
        <time>2021-08-15T12:22:10Z</time>
      </trkpt>
      <trkpt lat="45.49097" lon="6.71043">
        <ele>2347.9</ele>
        <time>2021-08-15T12:22:11Z</time>
      </trkpt>
      <trkpt lat="45.49098" lon="6.71043">
        <ele>2347.8</ele>
        <time>2021-08-15T12:22:12Z</time>
      </trkpt>
      <trkpt lat="45.49098" lon="6.71042">
        <ele>2347.7</ele>
        <time>2021-08-15T12:22:13Z</time>
      </trkpt>
      <trkpt lat="45.49098" lon="6.71041">
        <ele>2347.7</ele>
        <time>2021-08-15T12:22:14Z</time>
      </trkpt>
      <trkpt lat="45.49098" lon="6.71039">
        <ele>2347.6</ele>
        <time>2021-08-15T12:22:15Z</time>
      </trkpt>
      <trkpt lat="45.49098" lon="6.71038">
        <ele>2347.5</ele>
        <time>2021-08-15T12:22:16Z</time>
      </trkpt>
      <trkpt lat="45.49099" lon="6.71037">
        <ele>2347.4</ele>
        <time>2021-08-15T12:22:17Z</time>
      </trkpt>
      <trkpt lat="45.49099" lon="6.71036">
        <ele>2347.3</ele>
        <time>2021-08-15T12:22:18Z</time>
      </trkpt>
      <trkpt lat="45.49099" lon="6.71035">
        <ele>2347.3</ele>
        <time>2021-08-15T12:22:19Z</time>
      </trkpt>
      <trkpt lat="45.49099" lon="6.71034">
        <ele>2347.2</ele>
        <time>2021-08-15T12:22:20Z</time>
      </trkpt>
      <trkpt lat="45.49099" lon="6.71033">
        <ele>2347.1</ele>
        <time>2021-08-15T12:22:21Z</time>
      </trkpt>
      <trkpt lat="45.491" lon="6.71032">
        <ele>2347</ele>
        <time>2021-08-15T12:22:22Z</time>
      </trkpt>
      <trkpt lat="45.491" lon="6.7103">
        <ele>2347</ele>
        <time>2021-08-15T12:22:23Z</time>
      </trkpt>
      <trkpt lat="45.491" lon="6.71029">
        <ele>2346.9</ele>
        <time>2021-08-15T12:22:24Z</time>
      </trkpt>
      <trkpt lat="45.49101" lon="6.71028">
        <ele>2346.9</ele>
        <time>2021-08-15T12:22:25Z</time>
      </trkpt>
      <trkpt lat="45.49101" lon="6.71027">
        <ele>2346.8</ele>
        <time>2021-08-15T12:22:26Z</time>
      </trkpt>
      <trkpt lat="45.49101" lon="6.71026">
        <ele>2346.8</ele>
        <time>2021-08-15T12:22:27Z</time>
      </trkpt>
      <trkpt lat="45.49102" lon="6.71025">
        <ele>2346.8</ele>
        <time>2021-08-15T12:22:28Z</time>
      </trkpt>
      <trkpt lat="45.49102" lon="6.71023">
        <ele>2346.7</ele>
        <time>2021-08-15T12:22:29Z</time>
      </trkpt>
      <trkpt lat="45.49103" lon="6.71022">
        <ele>2346.7</ele>
        <time>2021-08-15T12:22:30Z</time>
      </trkpt>
      <trkpt lat="45.49103" lon="6.71021">
        <ele>2346.7</ele>
        <time>2021-08-15T12:22:31Z</time>
      </trkpt>
      <trkpt lat="45.49104" lon="6.7102">
        <ele>2346.7</ele>
        <time>2021-08-15T12:22:32Z</time>
      </trkpt>
      <trkpt lat="45.49104" lon="6.71019">
        <ele>2346.7</ele>
        <time>2021-08-15T12:22:33Z</time>
      </trkpt>
      <trkpt lat="45.49105" lon="6.71018">
        <ele>2346.8</ele>
        <time>2021-08-15T12:22:34Z</time>
      </trkpt>
      <trkpt lat="45.49106" lon="6.71017">
        <ele>2346.8</ele>
        <time>2021-08-15T12:22:35Z</time>
      </trkpt>
      <trkpt lat="45.49107" lon="6.71016">
        <ele>2346.8</ele>
        <time>2021-08-15T12:22:36Z</time>
      </trkpt>
      <trkpt lat="45.49107" lon="6.71015">
        <ele>2346.9</ele>
        <time>2021-08-15T12:22:37Z</time>
      </trkpt>
      <trkpt lat="45.49108" lon="6.71014">
        <ele>2346.9</ele>
        <time>2021-08-15T12:22:38Z</time>
      </trkpt>
      <trkpt lat="45.49109" lon="6.71013">
        <ele>2347</ele>
        <time>2021-08-15T12:22:39Z</time>
      </trkpt>
      <trkpt lat="45.4911" lon="6.71012">
        <ele>2347</ele>
        <time>2021-08-15T12:22:40Z</time>
      </trkpt>
      <trkpt lat="45.4911" lon="6.71012">
        <ele>2347.1</ele>
        <time>2021-08-15T12:22:41Z</time>
      </trkpt>
      <trkpt lat="45.49111" lon="6.71011">
        <ele>2347.1</ele>
        <time>2021-08-15T12:22:42Z</time>
      </trkpt>
      <trkpt lat="45.49112" lon="6.7101">
        <ele>2347.6</ele>
        <time>2021-08-15T12:22:43Z</time>
      </trkpt>
      <trkpt lat="45.49112" lon="6.71009">
        <ele>2347.7</ele>
        <time>2021-08-15T12:22:44Z</time>
      </trkpt>
      <trkpt lat="45.49113" lon="6.71008">
        <ele>2347.7</ele>
        <time>2021-08-15T12:22:45Z</time>
      </trkpt>
      <trkpt lat="45.49114" lon="6.71008">
        <ele>2347.8</ele>
        <time>2021-08-15T12:22:46Z</time>
      </trkpt>
      <trkpt lat="45.49114" lon="6.71007">
        <ele>2347.9</ele>
        <time>2021-08-15T12:22:47Z</time>
      </trkpt>
      <trkpt lat="45.49115" lon="6.71006">
        <ele>2348</ele>
        <time>2021-08-15T12:22:48Z</time>
      </trkpt>
      <trkpt lat="45.49115" lon="6.71006">
        <ele>2348</ele>
        <time>2021-08-15T12:22:49Z</time>
      </trkpt>
      <trkpt lat="45.49116" lon="6.71005">
        <ele>2348.1</ele>
        <time>2021-08-15T12:22:50Z</time>
      </trkpt>
      <trkpt lat="45.49117" lon="6.71005">
        <ele>2348.1</ele>
        <time>2021-08-15T12:22:51Z</time>
      </trkpt>
      <trkpt lat="45.49117" lon="6.71004">
        <ele>2348.2</ele>
        <time>2021-08-15T12:22:52Z</time>
      </trkpt>
      <trkpt lat="45.49118" lon="6.71004">
        <ele>2348.2</ele>
        <time>2021-08-15T12:22:53Z</time>
      </trkpt>
      <trkpt lat="45.49118" lon="6.71004">
        <ele>2348.3</ele>
        <time>2021-08-15T12:22:54Z</time>
      </trkpt>
      <trkpt lat="45.49119" lon="6.71003">
        <ele>2348.4</ele>
        <time>2021-08-15T12:22:55Z</time>
      </trkpt>
      <trkpt lat="45.4912" lon="6.71003">
        <ele>2348.4</ele>
        <time>2021-08-15T12:22:56Z</time>
      </trkpt>
      <trkpt lat="45.4912" lon="6.71003">
        <ele>2348.5</ele>
        <time>2021-08-15T12:22:57Z</time>
      </trkpt>
      <trkpt lat="45.49121" lon="6.71003">
        <ele>2348.5</ele>
        <time>2021-08-15T12:22:58Z</time>
      </trkpt>
      <trkpt lat="45.49121" lon="6.71003">
        <ele>2348.6</ele>
        <time>2021-08-15T12:22:59Z</time>
      </trkpt>
      <trkpt lat="45.49122" lon="6.71002">
        <ele>2348.7</ele>
        <time>2021-08-15T12:23:00Z</time>
      </trkpt>
      <trkpt lat="45.49123" lon="6.71002">
        <ele>2348.7</ele>
        <time>2021-08-15T12:23:01Z</time>
      </trkpt>
      <trkpt lat="45.49123" lon="6.71002">
        <ele>2348.8</ele>
        <time>2021-08-15T12:23:02Z</time>
      </trkpt>
      <trkpt lat="45.49124" lon="6.71001">
        <ele>2348.8</ele>
        <time>2021-08-15T12:23:03Z</time>
      </trkpt>
      <trkpt lat="45.49124" lon="6.71001">
        <ele>2348.9</ele>
        <time>2021-08-15T12:23:04Z</time>
      </trkpt>
      <trkpt lat="45.49125" lon="6.71">
        <ele>2349</ele>
        <time>2021-08-15T12:23:05Z</time>
      </trkpt>
      <trkpt lat="45.49126" lon="6.70999">
        <ele>2349</ele>
        <time>2021-08-15T12:23:06Z</time>
      </trkpt>
      <trkpt lat="45.49126" lon="6.70999">
        <ele>2349.1</ele>
        <time>2021-08-15T12:23:07Z</time>
      </trkpt>
      <trkpt lat="45.49127" lon="6.70998">
        <ele>2349.2</ele>
        <time>2021-08-15T12:23:08Z</time>
      </trkpt>
      <trkpt lat="45.49127" lon="6.70997">
        <ele>2349.3</ele>
        <time>2021-08-15T12:23:09Z</time>
      </trkpt>
      <trkpt lat="45.49128" lon="6.70997">
        <ele>2349.3</ele>
        <time>2021-08-15T12:23:10Z</time>
      </trkpt>
      <trkpt lat="45.49129" lon="6.70996">
        <ele>2349.4</ele>
        <time>2021-08-15T12:23:11Z</time>
      </trkpt>
      <trkpt lat="45.49129" lon="6.70995">
        <ele>2349.5</ele>
        <time>2021-08-15T12:23:12Z</time>
      </trkpt>
      <trkpt lat="45.4913" lon="6.70995">
        <ele>2349.6</ele>
        <time>2021-08-15T12:23:13Z</time>
      </trkpt>
      <trkpt lat="45.4913" lon="6.70994">
        <ele>2349.7</ele>
        <time>2021-08-15T12:23:14Z</time>
      </trkpt>
      <trkpt lat="45.49131" lon="6.70993">
        <ele>2349.7</ele>
        <time>2021-08-15T12:23:15Z</time>
      </trkpt>
      <trkpt lat="45.49132" lon="6.70992">
        <ele>2349.8</ele>
        <time>2021-08-15T12:23:16Z</time>
      </trkpt>
      <trkpt lat="45.49132" lon="6.70992">
        <ele>2349.9</ele>
        <time>2021-08-15T12:23:17Z</time>
      </trkpt>
      <trkpt lat="45.49133" lon="6.70991">
        <ele>2350</ele>
        <time>2021-08-15T12:23:18Z</time>
      </trkpt>
      <trkpt lat="45.49134" lon="6.70991">
        <ele>2350.1</ele>
        <time>2021-08-15T12:23:19Z</time>
      </trkpt>
      <trkpt lat="45.49135" lon="6.7099">
        <ele>2350.1</ele>
        <time>2021-08-15T12:23:20Z</time>
      </trkpt>
      <trkpt lat="45.49135" lon="6.70989">
        <ele>2350.2</ele>
        <time>2021-08-15T12:23:21Z</time>
      </trkpt>
      <trkpt lat="45.49136" lon="6.70989">
        <ele>2350.3</ele>
        <time>2021-08-15T12:23:22Z</time>
      </trkpt>
      <trkpt lat="45.49137" lon="6.70989">
        <ele>2350.4</ele>
        <time>2021-08-15T12:23:23Z</time>
      </trkpt>
      <trkpt lat="45.49138" lon="6.70988">
        <ele>2350.5</ele>
        <time>2021-08-15T12:23:24Z</time>
      </trkpt>
      <trkpt lat="45.49138" lon="6.70988">
        <ele>2350.6</ele>
        <time>2021-08-15T12:23:25Z</time>
      </trkpt>
      <trkpt lat="45.49139" lon="6.70988">
        <ele>2350.6</ele>
        <time>2021-08-15T12:23:26Z</time>
      </trkpt>
      <trkpt lat="45.4914" lon="6.70988">
        <ele>2350.7</ele>
        <time>2021-08-15T12:23:27Z</time>
      </trkpt>
      <trkpt lat="45.49141" lon="6.70987">
        <ele>2350.8</ele>
        <time>2021-08-15T12:23:28Z</time>
      </trkpt>
      <trkpt lat="45.49142" lon="6.70987">
        <ele>2350.9</ele>
        <time>2021-08-15T12:23:29Z</time>
      </trkpt>
      <trkpt lat="45.49142" lon="6.70987">
        <ele>2351</ele>
        <time>2021-08-15T12:23:30Z</time>
      </trkpt>
      <trkpt lat="45.49143" lon="6.70987">
        <ele>2351.1</ele>
        <time>2021-08-15T12:23:31Z</time>
      </trkpt>
      <trkpt lat="45.49144" lon="6.70986">
        <ele>2351.1</ele>
        <time>2021-08-15T12:23:32Z</time>
      </trkpt>
      <trkpt lat="45.49145" lon="6.70986">
        <ele>2351.2</ele>
        <time>2021-08-15T12:23:33Z</time>
      </trkpt>
      <trkpt lat="45.49145" lon="6.70986">
        <ele>2351.3</ele>
        <time>2021-08-15T12:23:34Z</time>
      </trkpt>
      <trkpt lat="45.49146" lon="6.70986">
        <ele>2351.4</ele>
        <time>2021-08-15T12:23:35Z</time>
      </trkpt>
      <trkpt lat="45.49147" lon="6.70985">
        <ele>2351.4</ele>
        <time>2021-08-15T12:23:36Z</time>
      </trkpt>
      <trkpt lat="45.49147" lon="6.70985">
        <ele>2351.5</ele>
        <time>2021-08-15T12:23:37Z</time>
      </trkpt>
      <trkpt lat="45.49148" lon="6.70985">
        <ele>2351.6</ele>
        <time>2021-08-15T12:23:38Z</time>
      </trkpt>
      <trkpt lat="45.49149" lon="6.70985">
        <ele>2351.7</ele>
        <time>2021-08-15T12:23:39Z</time>
      </trkpt>
      <trkpt lat="45.49149" lon="6.70984">
        <ele>2351.7</ele>
        <time>2021-08-15T12:23:40Z</time>
      </trkpt>
      <trkpt lat="45.4915" lon="6.70984">
        <ele>2351.8</ele>
        <time>2021-08-15T12:23:41Z</time>
      </trkpt>
      <trkpt lat="45.4915" lon="6.70984">
        <ele>2351.9</ele>
        <time>2021-08-15T12:23:42Z</time>
      </trkpt>
      <trkpt lat="45.49151" lon="6.70984">
        <ele>2351.9</ele>
        <time>2021-08-15T12:23:43Z</time>
      </trkpt>
      <trkpt lat="45.49151" lon="6.70983">
        <ele>2352</ele>
        <time>2021-08-15T12:23:44Z</time>
      </trkpt>
      <trkpt lat="45.49152" lon="6.70983">
        <ele>2352</ele>
        <time>2021-08-15T12:23:45Z</time>
      </trkpt>
      <trkpt lat="45.49153" lon="6.70983">
        <ele>2352.1</ele>
        <time>2021-08-15T12:23:46Z</time>
      </trkpt>
      <trkpt lat="45.49153" lon="6.70983">
        <ele>2352.2</ele>
        <time>2021-08-15T12:23:47Z</time>
      </trkpt>
      <trkpt lat="45.49154" lon="6.70982">
        <ele>2352.2</ele>
        <time>2021-08-15T12:23:48Z</time>
      </trkpt>
      <trkpt lat="45.49154" lon="6.70982">
        <ele>2352.3</ele>
        <time>2021-08-15T12:23:49Z</time>
      </trkpt>
      <trkpt lat="45.49155" lon="6.70982">
        <ele>2352.4</ele>
        <time>2021-08-15T12:23:50Z</time>
      </trkpt>
      <trkpt lat="45.49156" lon="6.70982">
        <ele>2352.5</ele>
        <time>2021-08-15T12:23:51Z</time>
      </trkpt>
      <trkpt lat="45.49156" lon="6.70981">
        <ele>2352.5</ele>
        <time>2021-08-15T12:23:52Z</time>
      </trkpt>
      <trkpt lat="45.49157" lon="6.70981">
        <ele>2352.6</ele>
        <time>2021-08-15T12:23:53Z</time>
      </trkpt>
      <trkpt lat="45.49158" lon="6.70981">
        <ele>2352.7</ele>
        <time>2021-08-15T12:23:54Z</time>
      </trkpt>
      <trkpt lat="45.49158" lon="6.7098">
        <ele>2352.8</ele>
        <time>2021-08-15T12:23:55Z</time>
      </trkpt>
      <trkpt lat="45.49159" lon="6.7098">
        <ele>2352.8</ele>
        <time>2021-08-15T12:23:56Z</time>
      </trkpt>
      <trkpt lat="45.4916" lon="6.7098">
        <ele>2352.9</ele>
        <time>2021-08-15T12:23:57Z</time>
      </trkpt>
      <trkpt lat="45.4916" lon="6.70979">
        <ele>2353</ele>
        <time>2021-08-15T12:23:58Z</time>
      </trkpt>
      <trkpt lat="45.49161" lon="6.70979">
        <ele>2353</ele>
        <time>2021-08-15T12:23:59Z</time>
      </trkpt>
      <trkpt lat="45.49161" lon="6.70979">
        <ele>2353.1</ele>
        <time>2021-08-15T12:24:00Z</time>
      </trkpt>
      <trkpt lat="45.49162" lon="6.70978">
        <ele>2353.1</ele>
        <time>2021-08-15T12:24:01Z</time>
      </trkpt>
      <trkpt lat="45.49162" lon="6.70978">
        <ele>2353.1</ele>
        <time>2021-08-15T12:24:02Z</time>
      </trkpt>
      <trkpt lat="45.49162" lon="6.70978">
        <ele>2353.2</ele>
        <time>2021-08-15T12:24:03Z</time>
      </trkpt>
      <trkpt lat="45.49162" lon="6.70978">
        <ele>2353.2</ele>
        <time>2021-08-15T12:24:04Z</time>
      </trkpt>
      <trkpt lat="45.49163" lon="6.70977">
        <ele>2353.2</ele>
        <time>2021-08-15T12:24:05Z</time>
      </trkpt>
      <trkpt lat="45.49163" lon="6.70977">
        <ele>2353.2</ele>
        <time>2021-08-15T12:24:06Z</time>
      </trkpt>
      <trkpt lat="45.49163" lon="6.70977">
        <ele>2353.3</ele>
        <time>2021-08-15T12:24:07Z</time>
      </trkpt>
      <trkpt lat="45.49163" lon="6.70977">
        <ele>2353.3</ele>
        <time>2021-08-15T12:24:08Z</time>
      </trkpt>
      <trkpt lat="45.49164" lon="6.70977">
        <ele>2353.4</ele>
        <time>2021-08-15T12:24:09Z</time>
      </trkpt>
      <trkpt lat="45.49164" lon="6.70977">
        <ele>2353.4</ele>
        <time>2021-08-15T12:24:10Z</time>
      </trkpt>
      <trkpt lat="45.49165" lon="6.70976">
        <ele>2353.5</ele>
        <time>2021-08-15T12:24:11Z</time>
      </trkpt>
      <trkpt lat="45.49166" lon="6.70976">
        <ele>2353.6</ele>
        <time>2021-08-15T12:24:12Z</time>
      </trkpt>
      <trkpt lat="45.49167" lon="6.70976">
        <ele>2353.7</ele>
        <time>2021-08-15T12:24:13Z</time>
      </trkpt>
      <trkpt lat="45.49168" lon="6.70976">
        <ele>2353.8</ele>
        <time>2021-08-15T12:24:14Z</time>
      </trkpt>
      <trkpt lat="45.49169" lon="6.70976">
        <ele>2353.9</ele>
        <time>2021-08-15T12:24:15Z</time>
      </trkpt>
      <trkpt lat="45.49171" lon="6.70976">
        <ele>2354</ele>
        <time>2021-08-15T12:24:16Z</time>
      </trkpt>
      <trkpt lat="45.49171" lon="6.70975">
        <ele>2354.1</ele>
        <time>2021-08-15T12:24:17Z</time>
      </trkpt>
      <trkpt lat="45.49172" lon="6.70975">
        <ele>2354.2</ele>
        <time>2021-08-15T12:24:18Z</time>
      </trkpt>
      <trkpt lat="45.49173" lon="6.70975">
        <ele>2354.3</ele>
        <time>2021-08-15T12:24:19Z</time>
      </trkpt>
      <trkpt lat="45.49174" lon="6.70974">
        <ele>2354.4</ele>
        <time>2021-08-15T12:24:20Z</time>
      </trkpt>
      <trkpt lat="45.49175" lon="6.70974">
        <ele>2354.5</ele>
        <time>2021-08-15T12:24:21Z</time>
      </trkpt>
      <trkpt lat="45.49175" lon="6.70973">
        <ele>2354.5</ele>
        <time>2021-08-15T12:24:22Z</time>
      </trkpt>
      <trkpt lat="45.49176" lon="6.70973">
        <ele>2354.6</ele>
        <time>2021-08-15T12:24:23Z</time>
      </trkpt>
      <trkpt lat="45.49177" lon="6.70972">
        <ele>2354.7</ele>
        <time>2021-08-15T12:24:24Z</time>
      </trkpt>
      <trkpt lat="45.49178" lon="6.70971">
        <ele>2354.8</ele>
        <time>2021-08-15T12:24:25Z</time>
      </trkpt>
      <trkpt lat="45.49179" lon="6.70971">
        <ele>2354.9</ele>
        <time>2021-08-15T12:24:26Z</time>
      </trkpt>
      <trkpt lat="45.49179" lon="6.7097">
        <ele>2355</ele>
        <time>2021-08-15T12:24:27Z</time>
      </trkpt>
      <trkpt lat="45.4918" lon="6.70969">
        <ele>2355.1</ele>
        <time>2021-08-15T12:24:28Z</time>
      </trkpt>
      <trkpt lat="45.49181" lon="6.70969">
        <ele>2355.1</ele>
        <time>2021-08-15T12:24:29Z</time>
      </trkpt>
      <trkpt lat="45.49182" lon="6.70968">
        <ele>2355.2</ele>
        <time>2021-08-15T12:24:30Z</time>
      </trkpt>
      <trkpt lat="45.49183" lon="6.70967">
        <ele>2355.3</ele>
        <time>2021-08-15T12:24:31Z</time>
      </trkpt>
      <trkpt lat="45.49183" lon="6.70966">
        <ele>2355.4</ele>
        <time>2021-08-15T12:24:32Z</time>
      </trkpt>
      <trkpt lat="45.49184" lon="6.70966">
        <ele>2355.5</ele>
        <time>2021-08-15T12:24:33Z</time>
      </trkpt>
      <trkpt lat="45.49185" lon="6.70965">
        <ele>2355.6</ele>
        <time>2021-08-15T12:24:34Z</time>
      </trkpt>
      <trkpt lat="45.49186" lon="6.70964">
        <ele>2355.6</ele>
        <time>2021-08-15T12:24:35Z</time>
      </trkpt>
      <trkpt lat="45.49186" lon="6.70963">
        <ele>2355.7</ele>
        <time>2021-08-15T12:24:36Z</time>
      </trkpt>
      <trkpt lat="45.49187" lon="6.70962">
        <ele>2355.8</ele>
        <time>2021-08-15T12:24:37Z</time>
      </trkpt>
      <trkpt lat="45.49188" lon="6.70961">
        <ele>2356.1</ele>
        <time>2021-08-15T12:24:38Z</time>
      </trkpt>
      <trkpt lat="45.49188" lon="6.7096">
        <ele>2356</ele>
        <time>2021-08-15T12:24:39Z</time>
      </trkpt>
      <trkpt lat="45.49189" lon="6.70959">
        <ele>2356</ele>
        <time>2021-08-15T12:24:40Z</time>
      </trkpt>
      <trkpt lat="45.49189" lon="6.70958">
        <ele>2355.9</ele>
        <time>2021-08-15T12:24:41Z</time>
      </trkpt>
      <trkpt lat="45.4919" lon="6.70957">
        <ele>2355.9</ele>
        <time>2021-08-15T12:24:42Z</time>
      </trkpt>
      <trkpt lat="45.49191" lon="6.70956">
        <ele>2355.8</ele>
        <time>2021-08-15T12:24:43Z</time>
      </trkpt>
      <trkpt lat="45.49191" lon="6.70955">
        <ele>2355.8</ele>
        <time>2021-08-15T12:24:44Z</time>
      </trkpt>
      <trkpt lat="45.49192" lon="6.70954">
        <ele>2355.7</ele>
        <time>2021-08-15T12:24:45Z</time>
      </trkpt>
      <trkpt lat="45.49192" lon="6.70953">
        <ele>2355.7</ele>
        <time>2021-08-15T12:24:46Z</time>
      </trkpt>
      <trkpt lat="45.49193" lon="6.70952">
        <ele>2355.6</ele>
        <time>2021-08-15T12:24:47Z</time>
      </trkpt>
      <trkpt lat="45.49193" lon="6.70951">
        <ele>2355.6</ele>
        <time>2021-08-15T12:24:48Z</time>
      </trkpt>
      <trkpt lat="45.49193" lon="6.7095">
        <ele>2355.5</ele>
        <time>2021-08-15T12:24:49Z</time>
      </trkpt>
      <trkpt lat="45.49194" lon="6.70949">
        <ele>2355.5</ele>
        <time>2021-08-15T12:24:50Z</time>
      </trkpt>
      <trkpt lat="45.49194" lon="6.70948">
        <ele>2355.4</ele>
        <time>2021-08-15T12:24:51Z</time>
      </trkpt>
      <trkpt lat="45.49195" lon="6.70947">
        <ele>2355.3</ele>
        <time>2021-08-15T12:24:52Z</time>
      </trkpt>
      <trkpt lat="45.49195" lon="6.70946">
        <ele>2355.3</ele>
        <time>2021-08-15T12:24:53Z</time>
      </trkpt>
      <trkpt lat="45.49195" lon="6.70946">
        <ele>2355.2</ele>
        <time>2021-08-15T12:24:54Z</time>
      </trkpt>
      <trkpt lat="45.49196" lon="6.70945">
        <ele>2355.2</ele>
        <time>2021-08-15T12:24:55Z</time>
      </trkpt>
      <trkpt lat="45.49196" lon="6.70944">
        <ele>2355.1</ele>
        <time>2021-08-15T12:24:56Z</time>
      </trkpt>
      <trkpt lat="45.49196" lon="6.70943">
        <ele>2355.1</ele>
        <time>2021-08-15T12:24:57Z</time>
      </trkpt>
      <trkpt lat="45.49197" lon="6.70942">
        <ele>2355</ele>
        <time>2021-08-15T12:24:58Z</time>
      </trkpt>
      <trkpt lat="45.49197" lon="6.70942">
        <ele>2355</ele>
        <time>2021-08-15T12:24:59Z</time>
      </trkpt>
      <trkpt lat="45.49198" lon="6.70941">
        <ele>2354.9</ele>
        <time>2021-08-15T12:25:00Z</time>
      </trkpt>
      <trkpt lat="45.49198" lon="6.70941">
        <ele>2354.9</ele>
        <time>2021-08-15T12:25:01Z</time>
      </trkpt>
      <trkpt lat="45.49199" lon="6.7094">
        <ele>2354.8</ele>
        <time>2021-08-15T12:25:02Z</time>
      </trkpt>
      <trkpt lat="45.49199" lon="6.7094">
        <ele>2354.8</ele>
        <time>2021-08-15T12:25:03Z</time>
      </trkpt>
      <trkpt lat="45.49199" lon="6.70939">
        <ele>2354.7</ele>
        <time>2021-08-15T12:25:04Z</time>
      </trkpt>
      <trkpt lat="45.492" lon="6.70939">
        <ele>2354.7</ele>
        <time>2021-08-15T12:25:05Z</time>
      </trkpt>
      <trkpt lat="45.49201" lon="6.70938">
        <ele>2354.6</ele>
        <time>2021-08-15T12:25:06Z</time>
      </trkpt>
      <trkpt lat="45.49201" lon="6.70938">
        <ele>2354.6</ele>
        <time>2021-08-15T12:25:07Z</time>
      </trkpt>
      <trkpt lat="45.49202" lon="6.70937">
        <ele>2354.5</ele>
        <time>2021-08-15T12:25:08Z</time>
      </trkpt>
      <trkpt lat="45.49202" lon="6.70937">
        <ele>2354.4</ele>
        <time>2021-08-15T12:25:09Z</time>
      </trkpt>
      <trkpt lat="45.49203" lon="6.70936">
        <ele>2354.4</ele>
        <time>2021-08-15T12:25:10Z</time>
      </trkpt>
      <trkpt lat="45.49204" lon="6.70936">
        <ele>2354.3</ele>
        <time>2021-08-15T12:25:11Z</time>
      </trkpt>
      <trkpt lat="45.49204" lon="6.70935">
        <ele>2354.2</ele>
        <time>2021-08-15T12:25:12Z</time>
      </trkpt>
      <trkpt lat="45.49205" lon="6.70935">
        <ele>2354.2</ele>
        <time>2021-08-15T12:25:13Z</time>
      </trkpt>
      <trkpt lat="45.49206" lon="6.70934">
        <ele>2354.1</ele>
        <time>2021-08-15T12:25:14Z</time>
      </trkpt>
      <trkpt lat="45.49206" lon="6.70934">
        <ele>2354.1</ele>
        <time>2021-08-15T12:25:15Z</time>
      </trkpt>
      <trkpt lat="45.49207" lon="6.70933">
        <ele>2354</ele>
        <time>2021-08-15T12:25:16Z</time>
      </trkpt>
      <trkpt lat="45.49207" lon="6.70933">
        <ele>2354</ele>
        <time>2021-08-15T12:25:17Z</time>
      </trkpt>
      <trkpt lat="45.49207" lon="6.70933">
        <ele>2354</ele>
        <time>2021-08-15T12:25:18Z</time>
      </trkpt>
      <trkpt lat="45.49208" lon="6.70933">
        <ele>2353.9</ele>
        <time>2021-08-15T12:25:19Z</time>
      </trkpt>
      <trkpt lat="45.49208" lon="6.70933">
        <ele>2353.9</ele>
        <time>2021-08-15T12:25:20Z</time>
      </trkpt>
      <trkpt lat="45.49208" lon="6.70933">
        <ele>2353.9</ele>
        <time>2021-08-15T12:25:21Z</time>
      </trkpt>
      <trkpt lat="45.49208" lon="6.70933">
        <ele>2353.9</ele>
        <time>2021-08-15T12:25:22Z</time>
      </trkpt>
      <trkpt lat="45.49208" lon="6.70933">
        <ele>2353.9</ele>
        <time>2021-08-15T12:25:23Z</time>
      </trkpt>
      <trkpt lat="45.49208" lon="6.70933">
        <ele>2353.9</ele>
        <time>2021-08-15T12:25:24Z</time>
      </trkpt>
      <trkpt lat="45.49208" lon="6.70933">
        <ele>2353.9</ele>
        <time>2021-08-15T12:25:25Z</time>
      </trkpt>
      <trkpt lat="45.49208" lon="6.70933">
        <ele>2353.9</ele>
        <time>2021-08-15T12:25:26Z</time>
      </trkpt>
      <trkpt lat="45.49209" lon="6.70933">
        <ele>2353.9</ele>
        <time>2021-08-15T12:25:27Z</time>
      </trkpt>
      <trkpt lat="45.49209" lon="6.70933">
        <ele>2353.9</ele>
        <time>2021-08-15T12:25:28Z</time>
      </trkpt>
      <trkpt lat="45.49209" lon="6.70933">
        <ele>2353.9</ele>
        <time>2021-08-15T12:25:29Z</time>
      </trkpt>
      <trkpt lat="45.49209" lon="6.70933">
        <ele>2353.9</ele>
        <time>2021-08-15T12:25:30Z</time>
      </trkpt>
      <trkpt lat="45.49209" lon="6.70933">
        <ele>2353.9</ele>
        <time>2021-08-15T12:25:31Z</time>
      </trkpt>
      <trkpt lat="45.49209" lon="6.70933">
        <ele>2353.9</ele>
        <time>2021-08-15T12:25:32Z</time>
      </trkpt>
      <trkpt lat="45.49209" lon="6.70933">
        <ele>2353.9</ele>
        <time>2021-08-15T12:25:33Z</time>
      </trkpt>
      <trkpt lat="45.49209" lon="6.70933">
        <ele>2353.9</ele>
        <time>2021-08-15T12:25:34Z</time>
      </trkpt>
      <trkpt lat="45.49208" lon="6.70933">
        <ele>2353.9</ele>
        <time>2021-08-15T12:25:35Z</time>
      </trkpt>
      <trkpt lat="45.49208" lon="6.70933">
        <ele>2353.9</ele>
        <time>2021-08-15T12:25:36Z</time>
      </trkpt>
      <trkpt lat="45.49208" lon="6.70933">
        <ele>2353.9</ele>
        <time>2021-08-15T12:25:37Z</time>
      </trkpt>
      <trkpt lat="45.49208" lon="6.70933">
        <ele>2353.8</ele>
        <time>2021-08-15T12:25:38Z</time>
      </trkpt>
      <trkpt lat="45.49208" lon="6.70933">
        <ele>2353.8</ele>
        <time>2021-08-15T12:25:39Z</time>
      </trkpt>
      <trkpt lat="45.49208" lon="6.70933">
        <ele>2353.8</ele>
        <time>2021-08-15T12:25:40Z</time>
      </trkpt>
      <trkpt lat="45.49208" lon="6.70933">
        <ele>2353.8</ele>
        <time>2021-08-15T12:25:41Z</time>
      </trkpt>
      <trkpt lat="45.49208" lon="6.70933">
        <ele>2353.7</ele>
        <time>2021-08-15T12:25:42Z</time>
      </trkpt>
      <trkpt lat="45.49208" lon="6.70933">
        <ele>2353.7</ele>
        <time>2021-08-15T12:25:43Z</time>
      </trkpt>
      <trkpt lat="45.49208" lon="6.70933">
        <ele>2353.7</ele>
        <time>2021-08-15T12:25:44Z</time>
      </trkpt>
      <trkpt lat="45.49208" lon="6.70933">
        <ele>2353.7</ele>
        <time>2021-08-15T12:25:45Z</time>
      </trkpt>
      <trkpt lat="45.49208" lon="6.70933">
        <ele>2353.7</ele>
        <time>2021-08-15T12:25:46Z</time>
      </trkpt>
      <trkpt lat="45.49209" lon="6.70933">
        <ele>2353.7</ele>
        <time>2021-08-15T12:25:47Z</time>
      </trkpt>
      <trkpt lat="45.49209" lon="6.70933">
        <ele>2353.7</ele>
        <time>2021-08-15T12:25:48Z</time>
      </trkpt>
      <trkpt lat="45.49209" lon="6.70933">
        <ele>2353.6</ele>
        <time>2021-08-15T12:25:49Z</time>
      </trkpt>
      <trkpt lat="45.4921" lon="6.70933">
        <ele>2353.6</ele>
        <time>2021-08-15T12:25:50Z</time>
      </trkpt>
      <trkpt lat="45.4921" lon="6.70933">
        <ele>2353.6</ele>
        <time>2021-08-15T12:25:51Z</time>
      </trkpt>
      <trkpt lat="45.49211" lon="6.70932">
        <ele>2353.5</ele>
        <time>2021-08-15T12:25:52Z</time>
      </trkpt>
      <trkpt lat="45.49212" lon="6.70932">
        <ele>2353.4</ele>
        <time>2021-08-15T12:25:53Z</time>
      </trkpt>
      <trkpt lat="45.49212" lon="6.70932">
        <ele>2353.4</ele>
        <time>2021-08-15T12:25:54Z</time>
      </trkpt>
      <trkpt lat="45.49213" lon="6.70932">
        <ele>2353.3</ele>
        <time>2021-08-15T12:25:55Z</time>
      </trkpt>
      <trkpt lat="45.49214" lon="6.70932">
        <ele>2353.2</ele>
        <time>2021-08-15T12:25:56Z</time>
      </trkpt>
      <trkpt lat="45.49215" lon="6.70932">
        <ele>2353.2</ele>
        <time>2021-08-15T12:25:57Z</time>
      </trkpt>
      <trkpt lat="45.49215" lon="6.70931">
        <ele>2353.1</ele>
        <time>2021-08-15T12:25:58Z</time>
      </trkpt>
      <trkpt lat="45.49216" lon="6.70931">
        <ele>2353</ele>
        <time>2021-08-15T12:25:59Z</time>
      </trkpt>
      <trkpt lat="45.49217" lon="6.70931">
        <ele>2353</ele>
        <time>2021-08-15T12:26:00Z</time>
      </trkpt>
      <trkpt lat="45.49218" lon="6.70931">
        <ele>2352.9</ele>
        <time>2021-08-15T12:26:01Z</time>
      </trkpt>
      <trkpt lat="45.49219" lon="6.7093">
        <ele>2352.8</ele>
        <time>2021-08-15T12:26:02Z</time>
      </trkpt>
      <trkpt lat="45.49219" lon="6.7093">
        <ele>2352.8</ele>
        <time>2021-08-15T12:26:03Z</time>
      </trkpt>
      <trkpt lat="45.4922" lon="6.7093">
        <ele>2352.7</ele>
        <time>2021-08-15T12:26:04Z</time>
      </trkpt>
      <trkpt lat="45.49221" lon="6.70929">
        <ele>2352.6</ele>
        <time>2021-08-15T12:26:05Z</time>
      </trkpt>
      <trkpt lat="45.49222" lon="6.70929">
        <ele>2352.5</ele>
        <time>2021-08-15T12:26:06Z</time>
      </trkpt>
      <trkpt lat="45.49222" lon="6.70929">
        <ele>2352.4</ele>
        <time>2021-08-15T12:26:07Z</time>
      </trkpt>
      <trkpt lat="45.49223" lon="6.70928">
        <ele>2352.3</ele>
        <time>2021-08-15T12:26:08Z</time>
      </trkpt>
      <trkpt lat="45.49224" lon="6.70928">
        <ele>2352.2</ele>
        <time>2021-08-15T12:26:09Z</time>
      </trkpt>
      <trkpt lat="45.49224" lon="6.70928">
        <ele>2352.2</ele>
        <time>2021-08-15T12:26:10Z</time>
      </trkpt>
      <trkpt lat="45.49225" lon="6.70927">
        <ele>2352.1</ele>
        <time>2021-08-15T12:26:11Z</time>
      </trkpt>
      <trkpt lat="45.49226" lon="6.70927">
        <ele>2352</ele>
        <time>2021-08-15T12:26:12Z</time>
      </trkpt>
      <trkpt lat="45.49227" lon="6.70927">
        <ele>2351.9</ele>
        <time>2021-08-15T12:26:13Z</time>
      </trkpt>
      <trkpt lat="45.49227" lon="6.70926">
        <ele>2351.8</ele>
        <time>2021-08-15T12:26:14Z</time>
      </trkpt>
      <trkpt lat="45.49228" lon="6.70926">
        <ele>2351.8</ele>
        <time>2021-08-15T12:26:15Z</time>
      </trkpt>
      <trkpt lat="45.49229" lon="6.70925">
        <ele>2351.7</ele>
        <time>2021-08-15T12:26:16Z</time>
      </trkpt>
      <trkpt lat="45.4923" lon="6.70925">
        <ele>2351.6</ele>
        <time>2021-08-15T12:26:17Z</time>
      </trkpt>
      <trkpt lat="45.4923" lon="6.70924">
        <ele>2351.5</ele>
        <time>2021-08-15T12:26:18Z</time>
      </trkpt>
      <trkpt lat="45.49231" lon="6.70924">
        <ele>2351.4</ele>
        <time>2021-08-15T12:26:19Z</time>
      </trkpt>
      <trkpt lat="45.49232" lon="6.70924">
        <ele>2351.3</ele>
        <time>2021-08-15T12:26:20Z</time>
      </trkpt>
      <trkpt lat="45.49232" lon="6.70923">
        <ele>2351.2</ele>
        <time>2021-08-15T12:26:21Z</time>
      </trkpt>
      <trkpt lat="45.49233" lon="6.70923">
        <ele>2351.1</ele>
        <time>2021-08-15T12:26:22Z</time>
      </trkpt>
      <trkpt lat="45.49234" lon="6.70922">
        <ele>2351</ele>
        <time>2021-08-15T12:26:23Z</time>
      </trkpt>
      <trkpt lat="45.49235" lon="6.70922">
        <ele>2350.9</ele>
        <time>2021-08-15T12:26:24Z</time>
      </trkpt>
      <trkpt lat="45.49236" lon="6.70921">
        <ele>2350.8</ele>
        <time>2021-08-15T12:26:25Z</time>
      </trkpt>
      <trkpt lat="45.49236" lon="6.70921">
        <ele>2350.7</ele>
        <time>2021-08-15T12:26:26Z</time>
      </trkpt>
      <trkpt lat="45.49237" lon="6.7092">
        <ele>2350.6</ele>
        <time>2021-08-15T12:26:27Z</time>
      </trkpt>
      <trkpt lat="45.49238" lon="6.7092">
        <ele>2350.5</ele>
        <time>2021-08-15T12:26:28Z</time>
      </trkpt>
      <trkpt lat="45.49239" lon="6.70919">
        <ele>2350.4</ele>
        <time>2021-08-15T12:26:29Z</time>
      </trkpt>
      <trkpt lat="45.49239" lon="6.70919">
        <ele>2350.3</ele>
        <time>2021-08-15T12:26:30Z</time>
      </trkpt>
      <trkpt lat="45.4924" lon="6.70918">
        <ele>2350.2</ele>
        <time>2021-08-15T12:26:31Z</time>
      </trkpt>
      <trkpt lat="45.49241" lon="6.70917">
        <ele>2350.1</ele>
        <time>2021-08-15T12:26:32Z</time>
      </trkpt>
      <trkpt lat="45.49242" lon="6.70917">
        <ele>2350</ele>
        <time>2021-08-15T12:26:33Z</time>
      </trkpt>
      <trkpt lat="45.49242" lon="6.70916">
        <ele>2349.8</ele>
        <time>2021-08-15T12:26:34Z</time>
      </trkpt>
      <trkpt lat="45.49243" lon="6.70915">
        <ele>2349.7</ele>
        <time>2021-08-15T12:26:35Z</time>
      </trkpt>
      <trkpt lat="45.49244" lon="6.70915">
        <ele>2349.6</ele>
        <time>2021-08-15T12:26:36Z</time>
      </trkpt>
      <trkpt lat="45.49245" lon="6.70914">
        <ele>2349.5</ele>
        <time>2021-08-15T12:26:37Z</time>
      </trkpt>
      <trkpt lat="45.49245" lon="6.70913">
        <ele>2349.4</ele>
        <time>2021-08-15T12:26:38Z</time>
      </trkpt>
      <trkpt lat="45.49246" lon="6.70912">
        <ele>2349.2</ele>
        <time>2021-08-15T12:26:39Z</time>
      </trkpt>
      <trkpt lat="45.49247" lon="6.70911">
        <ele>2349.1</ele>
        <time>2021-08-15T12:26:40Z</time>
      </trkpt>
      <trkpt lat="45.49247" lon="6.7091">
        <ele>2349</ele>
        <time>2021-08-15T12:26:41Z</time>
      </trkpt>
      <trkpt lat="45.49248" lon="6.70909">
        <ele>2348.9</ele>
        <time>2021-08-15T12:26:42Z</time>
      </trkpt>
      <trkpt lat="45.49248" lon="6.70908">
        <ele>2348.8</ele>
        <time>2021-08-15T12:26:43Z</time>
      </trkpt>
      <trkpt lat="45.49249" lon="6.70908">
        <ele>2348.7</ele>
        <time>2021-08-15T12:26:44Z</time>
      </trkpt>
      <trkpt lat="45.49249" lon="6.70907">
        <ele>2348.6</ele>
        <time>2021-08-15T12:26:45Z</time>
      </trkpt>
      <trkpt lat="45.49249" lon="6.70907">
        <ele>2348.6</ele>
        <time>2021-08-15T12:26:46Z</time>
      </trkpt>
      <trkpt lat="45.49249" lon="6.70907">
        <ele>2348.6</ele>
        <time>2021-08-15T12:26:47Z</time>
      </trkpt>
      <trkpt lat="45.49249" lon="6.70907">
        <ele>2348.6</ele>
        <time>2021-08-15T12:26:48Z</time>
      </trkpt>
      <trkpt lat="45.49249" lon="6.70907">
        <ele>2348.6</ele>
        <time>2021-08-15T12:26:49Z</time>
      </trkpt>
      <trkpt lat="45.49249" lon="6.70907">
        <ele>2348.6</ele>
        <time>2021-08-15T12:26:50Z</time>
      </trkpt>
      <trkpt lat="45.49249" lon="6.70907">
        <ele>2348.6</ele>
        <time>2021-08-15T12:26:51Z</time>
      </trkpt>
      <trkpt lat="45.49249" lon="6.70907">
        <ele>2348.6</ele>
        <time>2021-08-15T12:26:52Z</time>
      </trkpt>
      <trkpt lat="45.49249" lon="6.70907">
        <ele>2348.6</ele>
        <time>2021-08-15T12:26:53Z</time>
      </trkpt>
      <trkpt lat="45.49249" lon="6.70907">
        <ele>2348.6</ele>
        <time>2021-08-15T12:26:54Z</time>
      </trkpt>
      <trkpt lat="45.49249" lon="6.70906">
        <ele>2348.6</ele>
        <time>2021-08-15T12:26:55Z</time>
      </trkpt>
      <trkpt lat="45.49249" lon="6.70906">
        <ele>2348.5</ele>
        <time>2021-08-15T12:26:56Z</time>
      </trkpt>
      <trkpt lat="45.49248" lon="6.70906">
        <ele>2348.5</ele>
        <time>2021-08-15T12:26:57Z</time>
      </trkpt>
      <trkpt lat="45.49248" lon="6.70906">
        <ele>2348.4</ele>
        <time>2021-08-15T12:26:58Z</time>
      </trkpt>
      <trkpt lat="45.49248" lon="6.70905">
        <ele>2348.4</ele>
        <time>2021-08-15T12:26:59Z</time>
      </trkpt>
      <trkpt lat="45.49247" lon="6.70905">
        <ele>2348.3</ele>
        <time>2021-08-15T12:27:00Z</time>
      </trkpt>
      <trkpt lat="45.49247" lon="6.70904">
        <ele>2348.2</ele>
        <time>2021-08-15T12:27:01Z</time>
      </trkpt>
      <trkpt lat="45.49246" lon="6.70903">
        <ele>2348.1</ele>
        <time>2021-08-15T12:27:02Z</time>
      </trkpt>
      <trkpt lat="45.49246" lon="6.70902">
        <ele>2348</ele>
        <time>2021-08-15T12:27:03Z</time>
      </trkpt>
      <trkpt lat="45.49245" lon="6.70902">
        <ele>2347.9</ele>
        <time>2021-08-15T12:27:04Z</time>
      </trkpt>
      <trkpt lat="45.49244" lon="6.70901">
        <ele>2347.8</ele>
        <time>2021-08-15T12:27:05Z</time>
      </trkpt>
      <trkpt lat="45.49244" lon="6.709">
        <ele>2347.7</ele>
        <time>2021-08-15T12:27:06Z</time>
      </trkpt>
      <trkpt lat="45.49243" lon="6.709">
        <ele>2347.6</ele>
        <time>2021-08-15T12:27:07Z</time>
      </trkpt>
      <trkpt lat="45.49242" lon="6.70899">
        <ele>2347.5</ele>
        <time>2021-08-15T12:27:08Z</time>
      </trkpt>
      <trkpt lat="45.49242" lon="6.70899">
        <ele>2347.4</ele>
        <time>2021-08-15T12:27:09Z</time>
      </trkpt>
      <trkpt lat="45.49241" lon="6.70899">
        <ele>2347.3</ele>
        <time>2021-08-15T12:27:10Z</time>
      </trkpt>
      <trkpt lat="45.4924" lon="6.70899">
        <ele>2347.3</ele>
        <time>2021-08-15T12:27:11Z</time>
      </trkpt>
      <trkpt lat="45.4924" lon="6.70898">
        <ele>2347.2</ele>
        <time>2021-08-15T12:27:12Z</time>
      </trkpt>
      <trkpt lat="45.49239" lon="6.70898">
        <ele>2347.1</ele>
        <time>2021-08-15T12:27:13Z</time>
      </trkpt>
      <trkpt lat="45.49239" lon="6.70898">
        <ele>2347</ele>
        <time>2021-08-15T12:27:14Z</time>
      </trkpt>
      <trkpt lat="45.49238" lon="6.70899">
        <ele>2347</ele>
        <time>2021-08-15T12:27:15Z</time>
      </trkpt>
      <trkpt lat="45.49237" lon="6.70899">
        <ele>2346.9</ele>
        <time>2021-08-15T12:27:16Z</time>
      </trkpt>
      <trkpt lat="45.49237" lon="6.70899">
        <ele>2346.8</ele>
        <time>2021-08-15T12:27:17Z</time>
      </trkpt>
      <trkpt lat="45.49236" lon="6.70899">
        <ele>2346.7</ele>
        <time>2021-08-15T12:27:18Z</time>
      </trkpt>
      <trkpt lat="45.49235" lon="6.70899">
        <ele>2346.6</ele>
        <time>2021-08-15T12:27:19Z</time>
      </trkpt>
      <trkpt lat="45.49234" lon="6.70899">
        <ele>2346.5</ele>
        <time>2021-08-15T12:27:20Z</time>
      </trkpt>
      <trkpt lat="45.49233" lon="6.70899">
        <ele>2346.3</ele>
        <time>2021-08-15T12:27:21Z</time>
      </trkpt>
      <trkpt lat="45.49232" lon="6.709">
        <ele>2346.2</ele>
        <time>2021-08-15T12:27:22Z</time>
      </trkpt>
      <trkpt lat="45.49231" lon="6.709">
        <ele>2346.1</ele>
        <time>2021-08-15T12:27:23Z</time>
      </trkpt>
      <trkpt lat="45.4923" lon="6.709">
        <ele>2346</ele>
        <time>2021-08-15T12:27:24Z</time>
      </trkpt>
      <trkpt lat="45.4923" lon="6.709">
        <ele>2345.9</ele>
        <time>2021-08-15T12:27:25Z</time>
      </trkpt>
      <trkpt lat="45.49229" lon="6.709">
        <ele>2345.8</ele>
        <time>2021-08-15T12:27:26Z</time>
      </trkpt>
      <trkpt lat="45.49228" lon="6.709">
        <ele>2345.8</ele>
        <time>2021-08-15T12:27:27Z</time>
      </trkpt>
      <trkpt lat="45.49228" lon="6.709">
        <ele>2345.7</ele>
        <time>2021-08-15T12:27:28Z</time>
      </trkpt>
      <trkpt lat="45.49228" lon="6.709">
        <ele>2345.7</ele>
        <time>2021-08-15T12:27:29Z</time>
      </trkpt>
      <trkpt lat="45.49227" lon="6.709">
        <ele>2345.7</ele>
        <time>2021-08-15T12:27:30Z</time>
      </trkpt>
      <trkpt lat="45.49227" lon="6.709">
        <ele>2345.6</ele>
        <time>2021-08-15T12:27:31Z</time>
      </trkpt>
      <trkpt lat="45.49227" lon="6.709">
        <ele>2345.6</ele>
        <time>2021-08-15T12:27:32Z</time>
      </trkpt>
      <trkpt lat="45.49227" lon="6.709">
        <ele>2345.6</ele>
        <time>2021-08-15T12:27:33Z</time>
      </trkpt>
      <trkpt lat="45.49227" lon="6.709">
        <ele>2345.6</ele>
        <time>2021-08-15T12:27:34Z</time>
      </trkpt>
      <trkpt lat="45.49227" lon="6.709">
        <ele>2345.6</ele>
        <time>2021-08-15T12:27:35Z</time>
      </trkpt>
      <trkpt lat="45.49227" lon="6.709">
        <ele>2345.6</ele>
        <time>2021-08-15T12:27:36Z</time>
      </trkpt>
      <trkpt lat="45.49227" lon="6.709">
        <ele>2345.6</ele>
        <time>2021-08-15T12:27:37Z</time>
      </trkpt>
      <trkpt lat="45.49227" lon="6.709">
        <ele>2345.6</ele>
        <time>2021-08-15T12:27:38Z</time>
      </trkpt>
      <trkpt lat="45.49227" lon="6.709">
        <ele>2345.5</ele>
        <time>2021-08-15T12:27:39Z</time>
      </trkpt>
      <trkpt lat="45.49226" lon="6.709">
        <ele>2345.5</ele>
        <time>2021-08-15T12:27:40Z</time>
      </trkpt>
      <trkpt lat="45.49226" lon="6.709">
        <ele>2345.4</ele>
        <time>2021-08-15T12:27:41Z</time>
      </trkpt>
      <trkpt lat="45.49225" lon="6.709">
        <ele>2345.3</ele>
        <time>2021-08-15T12:27:42Z</time>
      </trkpt>
      <trkpt lat="45.49224" lon="6.70901">
        <ele>2345.2</ele>
        <time>2021-08-15T12:27:43Z</time>
      </trkpt>
      <trkpt lat="45.49223" lon="6.70901">
        <ele>2345.1</ele>
        <time>2021-08-15T12:27:44Z</time>
      </trkpt>
      <trkpt lat="45.49223" lon="6.70901">
        <ele>2345</ele>
        <time>2021-08-15T12:27:45Z</time>
      </trkpt>
      <trkpt lat="45.49222" lon="6.70901">
        <ele>2344.9</ele>
        <time>2021-08-15T12:27:46Z</time>
      </trkpt>
      <trkpt lat="45.49221" lon="6.70901">
        <ele>2344.8</ele>
        <time>2021-08-15T12:27:47Z</time>
      </trkpt>
      <trkpt lat="45.4922" lon="6.70902">
        <ele>2344.7</ele>
        <time>2021-08-15T12:27:48Z</time>
      </trkpt>
      <trkpt lat="45.49219" lon="6.70902">
        <ele>2344.6</ele>
        <time>2021-08-15T12:27:49Z</time>
      </trkpt>
      <trkpt lat="45.49218" lon="6.70902">
        <ele>2344.5</ele>
        <time>2021-08-15T12:27:50Z</time>
      </trkpt>
      <trkpt lat="45.49218" lon="6.70902">
        <ele>2344.4</ele>
        <time>2021-08-15T12:27:51Z</time>
      </trkpt>
      <trkpt lat="45.49217" lon="6.70901">
        <ele>2344.3</ele>
        <time>2021-08-15T12:27:52Z</time>
      </trkpt>
      <trkpt lat="45.49216" lon="6.70901">
        <ele>2344.2</ele>
        <time>2021-08-15T12:27:53Z</time>
      </trkpt>
      <trkpt lat="45.49215" lon="6.70901">
        <ele>2344.1</ele>
        <time>2021-08-15T12:27:54Z</time>
      </trkpt>
      <trkpt lat="45.49215" lon="6.70901">
        <ele>2344</ele>
        <time>2021-08-15T12:27:55Z</time>
      </trkpt>
      <trkpt lat="45.49214" lon="6.70901">
        <ele>2343.9</ele>
        <time>2021-08-15T12:27:56Z</time>
      </trkpt>
      <trkpt lat="45.49213" lon="6.70901">
        <ele>2343.9</ele>
        <time>2021-08-15T12:27:57Z</time>
      </trkpt>
      <trkpt lat="45.49212" lon="6.709">
        <ele>2343.8</ele>
        <time>2021-08-15T12:27:58Z</time>
      </trkpt>
      <trkpt lat="45.49212" lon="6.709">
        <ele>2343.7</ele>
        <time>2021-08-15T12:27:59Z</time>
      </trkpt>
      <trkpt lat="45.49211" lon="6.709">
        <ele>2343.6</ele>
        <time>2021-08-15T12:28:00Z</time>
      </trkpt>
      <trkpt lat="45.4921" lon="6.70899">
        <ele>2343.5</ele>
        <time>2021-08-15T12:28:01Z</time>
      </trkpt>
      <trkpt lat="45.49209" lon="6.70899">
        <ele>2343.4</ele>
        <time>2021-08-15T12:28:02Z</time>
      </trkpt>
      <trkpt lat="45.49209" lon="6.70899">
        <ele>2343.3</ele>
        <time>2021-08-15T12:28:03Z</time>
      </trkpt>
      <trkpt lat="45.49208" lon="6.70899">
        <ele>2343.2</ele>
        <time>2021-08-15T12:28:04Z</time>
      </trkpt>
      <trkpt lat="45.49207" lon="6.70899">
        <ele>2343.1</ele>
        <time>2021-08-15T12:28:05Z</time>
      </trkpt>
      <trkpt lat="45.49207" lon="6.70899">
        <ele>2343.1</ele>
        <time>2021-08-15T12:28:06Z</time>
      </trkpt>
      <trkpt lat="45.49206" lon="6.70899">
        <ele>2343</ele>
        <time>2021-08-15T12:28:07Z</time>
      </trkpt>
      <trkpt lat="45.49206" lon="6.70899">
        <ele>2343</ele>
        <time>2021-08-15T12:28:08Z</time>
      </trkpt>
      <trkpt lat="45.49206" lon="6.70899">
        <ele>2343</ele>
        <time>2021-08-15T12:28:09Z</time>
      </trkpt>
      <trkpt lat="45.49206" lon="6.70899">
        <ele>2343</ele>
        <time>2021-08-15T12:28:10Z</time>
      </trkpt>
      <trkpt lat="45.49206" lon="6.70899">
        <ele>2343</ele>
        <time>2021-08-15T12:28:11Z</time>
      </trkpt>
      <trkpt lat="45.49206" lon="6.70899">
        <ele>2343</ele>
        <time>2021-08-15T12:28:12Z</time>
      </trkpt>
      <trkpt lat="45.49206" lon="6.70899">
        <ele>2342.9</ele>
        <time>2021-08-15T12:28:13Z</time>
      </trkpt>
      <trkpt lat="45.49205" lon="6.70898">
        <ele>2342.9</ele>
        <time>2021-08-15T12:28:14Z</time>
      </trkpt>
      <trkpt lat="45.49205" lon="6.70898">
        <ele>2342.8</ele>
        <time>2021-08-15T12:28:15Z</time>
      </trkpt>
      <trkpt lat="45.49204" lon="6.70897">
        <ele>2342.7</ele>
        <time>2021-08-15T12:28:16Z</time>
      </trkpt>
      <trkpt lat="45.49203" lon="6.70897">
        <ele>2342.6</ele>
        <time>2021-08-15T12:28:17Z</time>
      </trkpt>
      <trkpt lat="45.49202" lon="6.70896">
        <ele>2342.5</ele>
        <time>2021-08-15T12:28:18Z</time>
      </trkpt>
      <trkpt lat="45.49201" lon="6.70896">
        <ele>2342.4</ele>
        <time>2021-08-15T12:28:19Z</time>
      </trkpt>
      <trkpt lat="45.49201" lon="6.70896">
        <ele>2342.3</ele>
        <time>2021-08-15T12:28:20Z</time>
      </trkpt>
      <trkpt lat="45.492" lon="6.70896">
        <ele>2342.2</ele>
        <time>2021-08-15T12:28:21Z</time>
      </trkpt>
      <trkpt lat="45.49199" lon="6.70896">
        <ele>2342.1</ele>
        <time>2021-08-15T12:28:22Z</time>
      </trkpt>
      <trkpt lat="45.49198" lon="6.70896">
        <ele>2342</ele>
        <time>2021-08-15T12:28:23Z</time>
      </trkpt>
      <trkpt lat="45.49197" lon="6.70897">
        <ele>2341.9</ele>
        <time>2021-08-15T12:28:24Z</time>
      </trkpt>
      <trkpt lat="45.49196" lon="6.70897">
        <ele>2341.8</ele>
        <time>2021-08-15T12:28:25Z</time>
      </trkpt>
      <trkpt lat="45.49195" lon="6.70897">
        <ele>2341.8</ele>
        <time>2021-08-15T12:28:26Z</time>
      </trkpt>
      <trkpt lat="45.49194" lon="6.70897">
        <ele>2341.7</ele>
        <time>2021-08-15T12:28:27Z</time>
      </trkpt>
      <trkpt lat="45.49194" lon="6.70898">
        <ele>2341.6</ele>
        <time>2021-08-15T12:28:28Z</time>
      </trkpt>
      <trkpt lat="45.49193" lon="6.70898">
        <ele>2341.5</ele>
        <time>2021-08-15T12:28:29Z</time>
      </trkpt>
      <trkpt lat="45.49192" lon="6.70898">
        <ele>2341.4</ele>
        <time>2021-08-15T12:28:30Z</time>
      </trkpt>
      <trkpt lat="45.49191" lon="6.70898">
        <ele>2341.3</ele>
        <time>2021-08-15T12:28:31Z</time>
      </trkpt>
      <trkpt lat="45.4919" lon="6.70898">
        <ele>2341.2</ele>
        <time>2021-08-15T12:28:32Z</time>
      </trkpt>
      <trkpt lat="45.49189" lon="6.70899">
        <ele>2341.1</ele>
        <time>2021-08-15T12:28:33Z</time>
      </trkpt>
      <trkpt lat="45.49188" lon="6.70899">
        <ele>2341</ele>
        <time>2021-08-15T12:28:34Z</time>
      </trkpt>
      <trkpt lat="45.49187" lon="6.70899">
        <ele>2340.9</ele>
        <time>2021-08-15T12:28:35Z</time>
      </trkpt>
      <trkpt lat="45.49187" lon="6.70899">
        <ele>2340.8</ele>
        <time>2021-08-15T12:28:36Z</time>
      </trkpt>
      <trkpt lat="45.49186" lon="6.70899">
        <ele>2340.7</ele>
        <time>2021-08-15T12:28:37Z</time>
      </trkpt>
      <trkpt lat="45.49185" lon="6.70899">
        <ele>2340.7</ele>
        <time>2021-08-15T12:28:38Z</time>
      </trkpt>
      <trkpt lat="45.49184" lon="6.70899">
        <ele>2340.6</ele>
        <time>2021-08-15T12:28:39Z</time>
      </trkpt>
      <trkpt lat="45.49183" lon="6.70899">
        <ele>2340.5</ele>
        <time>2021-08-15T12:28:40Z</time>
      </trkpt>
      <trkpt lat="45.49182" lon="6.70899">
        <ele>2340.4</ele>
        <time>2021-08-15T12:28:41Z</time>
      </trkpt>
      <trkpt lat="45.49182" lon="6.70899">
        <ele>2340.3</ele>
        <time>2021-08-15T12:28:42Z</time>
      </trkpt>
      <trkpt lat="45.49181" lon="6.70899">
        <ele>2340.2</ele>
        <time>2021-08-15T12:28:43Z</time>
      </trkpt>
      <trkpt lat="45.4918" lon="6.70899">
        <ele>2340.1</ele>
        <time>2021-08-15T12:28:44Z</time>
      </trkpt>
      <trkpt lat="45.49179" lon="6.70899">
        <ele>2340</ele>
        <time>2021-08-15T12:28:45Z</time>
      </trkpt>
      <trkpt lat="45.49178" lon="6.70899">
        <ele>2339.9</ele>
        <time>2021-08-15T12:28:46Z</time>
      </trkpt>
      <trkpt lat="45.49177" lon="6.70899">
        <ele>2339.8</ele>
        <time>2021-08-15T12:28:47Z</time>
      </trkpt>
      <trkpt lat="45.49176" lon="6.70898">
        <ele>2339.7</ele>
        <time>2021-08-15T12:28:48Z</time>
      </trkpt>
      <trkpt lat="45.49176" lon="6.70898">
        <ele>2339.7</ele>
        <time>2021-08-15T12:28:49Z</time>
      </trkpt>
      <trkpt lat="45.49175" lon="6.70898">
        <ele>2339.6</ele>
        <time>2021-08-15T12:28:50Z</time>
      </trkpt>
      <trkpt lat="45.49174" lon="6.70898">
        <ele>2339.5</ele>
        <time>2021-08-15T12:28:51Z</time>
      </trkpt>
      <trkpt lat="45.49173" lon="6.70897">
        <ele>2339.4</ele>
        <time>2021-08-15T12:28:52Z</time>
      </trkpt>
      <trkpt lat="45.49172" lon="6.70897">
        <ele>2339.3</ele>
        <time>2021-08-15T12:28:53Z</time>
      </trkpt>
      <trkpt lat="45.49171" lon="6.70897">
        <ele>2339.2</ele>
        <time>2021-08-15T12:28:54Z</time>
      </trkpt>
      <trkpt lat="45.49171" lon="6.70896">
        <ele>2339.1</ele>
        <time>2021-08-15T12:28:55Z</time>
      </trkpt>
      <trkpt lat="45.4917" lon="6.70896">
        <ele>2339</ele>
        <time>2021-08-15T12:28:56Z</time>
      </trkpt>
      <trkpt lat="45.49169" lon="6.70895">
        <ele>2338.9</ele>
        <time>2021-08-15T12:28:57Z</time>
      </trkpt>
      <trkpt lat="45.49168" lon="6.70895">
        <ele>2338.8</ele>
        <time>2021-08-15T12:28:58Z</time>
      </trkpt>
      <trkpt lat="45.49167" lon="6.70894">
        <ele>2338.7</ele>
        <time>2021-08-15T12:28:59Z</time>
      </trkpt>
      <trkpt lat="45.49166" lon="6.70894">
        <ele>2338.6</ele>
        <time>2021-08-15T12:29:00Z</time>
      </trkpt>
      <trkpt lat="45.49166" lon="6.70893">
        <ele>2338.5</ele>
        <time>2021-08-15T12:29:01Z</time>
      </trkpt>
      <trkpt lat="45.49165" lon="6.70892">
        <ele>2338.4</ele>
        <time>2021-08-15T12:29:02Z</time>
      </trkpt>
      <trkpt lat="45.49164" lon="6.70891">
        <ele>2338.3</ele>
        <time>2021-08-15T12:29:03Z</time>
      </trkpt>
      <trkpt lat="45.49163" lon="6.70891">
        <ele>2338.2</ele>
        <time>2021-08-15T12:29:04Z</time>
      </trkpt>
      <trkpt lat="45.49162" lon="6.7089">
        <ele>2338.1</ele>
        <time>2021-08-15T12:29:05Z</time>
      </trkpt>
      <trkpt lat="45.49162" lon="6.70889">
        <ele>2338</ele>
        <time>2021-08-15T12:29:06Z</time>
      </trkpt>
      <trkpt lat="45.49161" lon="6.70888">
        <ele>2337.9</ele>
        <time>2021-08-15T12:29:07Z</time>
      </trkpt>
      <trkpt lat="45.4916" lon="6.70887">
        <ele>2337.7</ele>
        <time>2021-08-15T12:29:08Z</time>
      </trkpt>
      <trkpt lat="45.4916" lon="6.70886">
        <ele>2337.6</ele>
        <time>2021-08-15T12:29:09Z</time>
      </trkpt>
      <trkpt lat="45.49159" lon="6.70886">
        <ele>2337.5</ele>
        <time>2021-08-15T12:29:10Z</time>
      </trkpt>
      <trkpt lat="45.49158" lon="6.70885">
        <ele>2337.4</ele>
        <time>2021-08-15T12:29:11Z</time>
      </trkpt>
      <trkpt lat="45.49158" lon="6.70884">
        <ele>2337.3</ele>
        <time>2021-08-15T12:29:12Z</time>
      </trkpt>
      <trkpt lat="45.49157" lon="6.70883">
        <ele>2337.2</ele>
        <time>2021-08-15T12:29:13Z</time>
      </trkpt>
      <trkpt lat="45.49157" lon="6.70882">
        <ele>2337.1</ele>
        <time>2021-08-15T12:29:14Z</time>
      </trkpt>
      <trkpt lat="45.49156" lon="6.70881">
        <ele>2337</ele>
        <time>2021-08-15T12:29:15Z</time>
      </trkpt>
      <trkpt lat="45.49156" lon="6.7088">
        <ele>2336.9</ele>
        <time>2021-08-15T12:29:16Z</time>
      </trkpt>
      <trkpt lat="45.49155" lon="6.70879">
        <ele>2336.8</ele>
        <time>2021-08-15T12:29:17Z</time>
      </trkpt>
      <trkpt lat="45.49155" lon="6.70878">
        <ele>2336.7</ele>
        <time>2021-08-15T12:29:18Z</time>
      </trkpt>
      <trkpt lat="45.49155" lon="6.70877">
        <ele>2336.6</ele>
        <time>2021-08-15T12:29:19Z</time>
      </trkpt>
      <trkpt lat="45.49154" lon="6.70876">
        <ele>2336.5</ele>
        <time>2021-08-15T12:29:20Z</time>
      </trkpt>
      <trkpt lat="45.49154" lon="6.70875">
        <ele>2336.4</ele>
        <time>2021-08-15T12:29:21Z</time>
      </trkpt>
      <trkpt lat="45.49154" lon="6.70874">
        <ele>2336.3</ele>
        <time>2021-08-15T12:29:22Z</time>
      </trkpt>
      <trkpt lat="45.49154" lon="6.70873">
        <ele>2336.2</ele>
        <time>2021-08-15T12:29:23Z</time>
      </trkpt>
      <trkpt lat="45.49154" lon="6.70872">
        <ele>2336.1</ele>
        <time>2021-08-15T12:29:24Z</time>
      </trkpt>
      <trkpt lat="45.49153" lon="6.70871">
        <ele>2336</ele>
        <time>2021-08-15T12:29:25Z</time>
      </trkpt>
      <trkpt lat="45.49153" lon="6.7087">
        <ele>2335.9</ele>
        <time>2021-08-15T12:29:26Z</time>
      </trkpt>
      <trkpt lat="45.49153" lon="6.70869">
        <ele>2335.8</ele>
        <time>2021-08-15T12:29:27Z</time>
      </trkpt>
      <trkpt lat="45.49153" lon="6.70868">
        <ele>2335.7</ele>
        <time>2021-08-15T12:29:28Z</time>
      </trkpt>
      <trkpt lat="45.49153" lon="6.70867">
        <ele>2335.6</ele>
        <time>2021-08-15T12:29:29Z</time>
      </trkpt>
      <trkpt lat="45.49153" lon="6.70865">
        <ele>2335.5</ele>
        <time>2021-08-15T12:29:30Z</time>
      </trkpt>
      <trkpt lat="45.49153" lon="6.70864">
        <ele>2335.3</ele>
        <time>2021-08-15T12:29:31Z</time>
      </trkpt>
      <trkpt lat="45.49153" lon="6.70863">
        <ele>2335.2</ele>
        <time>2021-08-15T12:29:32Z</time>
      </trkpt>
      <trkpt lat="45.49153" lon="6.70862">
        <ele>2335.1</ele>
        <time>2021-08-15T12:29:33Z</time>
      </trkpt>
      <trkpt lat="45.49152" lon="6.70861">
        <ele>2334.9</ele>
        <time>2021-08-15T12:29:34Z</time>
      </trkpt>
      <trkpt lat="45.49152" lon="6.70859">
        <ele>2334.8</ele>
        <time>2021-08-15T12:29:35Z</time>
      </trkpt>
      <trkpt lat="45.49152" lon="6.70858">
        <ele>2334.6</ele>
        <time>2021-08-15T12:29:36Z</time>
      </trkpt>
      <trkpt lat="45.49152" lon="6.70856">
        <ele>2334.5</ele>
        <time>2021-08-15T12:29:37Z</time>
      </trkpt>
      <trkpt lat="45.49152" lon="6.70855">
        <ele>2334.3</ele>
        <time>2021-08-15T12:29:38Z</time>
      </trkpt>
      <trkpt lat="45.49152" lon="6.70853">
        <ele>2334.2</ele>
        <time>2021-08-15T12:29:39Z</time>
      </trkpt>
      <trkpt lat="45.49151" lon="6.70852">
        <ele>2334</ele>
        <time>2021-08-15T12:29:40Z</time>
      </trkpt>
      <trkpt lat="45.49151" lon="6.7085">
        <ele>2333.9</ele>
        <time>2021-08-15T12:29:41Z</time>
      </trkpt>
      <trkpt lat="45.49151" lon="6.70849">
        <ele>2333.7</ele>
        <time>2021-08-15T12:29:42Z</time>
      </trkpt>
      <trkpt lat="45.49151" lon="6.70848">
        <ele>2333.5</ele>
        <time>2021-08-15T12:29:43Z</time>
      </trkpt>
      <trkpt lat="45.49151" lon="6.70846">
        <ele>2333.4</ele>
        <time>2021-08-15T12:29:44Z</time>
      </trkpt>
      <trkpt lat="45.49151" lon="6.70845">
        <ele>2333.2</ele>
        <time>2021-08-15T12:29:45Z</time>
      </trkpt>
      <trkpt lat="45.49151" lon="6.70844">
        <ele>2333.1</ele>
        <time>2021-08-15T12:29:46Z</time>
      </trkpt>
      <trkpt lat="45.49151" lon="6.70842">
        <ele>2333</ele>
        <time>2021-08-15T12:29:47Z</time>
      </trkpt>
      <trkpt lat="45.49151" lon="6.70841">
        <ele>2332.9</ele>
        <time>2021-08-15T12:29:48Z</time>
      </trkpt>
      <trkpt lat="45.49151" lon="6.7084">
        <ele>2332.7</ele>
        <time>2021-08-15T12:29:49Z</time>
      </trkpt>
      <trkpt lat="45.49151" lon="6.70839">
        <ele>2332.6</ele>
        <time>2021-08-15T12:29:50Z</time>
      </trkpt>
      <trkpt lat="45.49151" lon="6.70838">
        <ele>2332.5</ele>
        <time>2021-08-15T12:29:51Z</time>
      </trkpt>
      <trkpt lat="45.49152" lon="6.70837">
        <ele>2332.4</ele>
        <time>2021-08-15T12:29:52Z</time>
      </trkpt>
      <trkpt lat="45.49152" lon="6.70836">
        <ele>2332.3</ele>
        <time>2021-08-15T12:29:53Z</time>
      </trkpt>
      <trkpt lat="45.49152" lon="6.70836">
        <ele>2332.2</ele>
        <time>2021-08-15T12:29:54Z</time>
      </trkpt>
      <trkpt lat="45.49152" lon="6.70835">
        <ele>2332.1</ele>
        <time>2021-08-15T12:29:55Z</time>
      </trkpt>
      <trkpt lat="45.49153" lon="6.70834">
        <ele>2332</ele>
        <time>2021-08-15T12:29:56Z</time>
      </trkpt>
      <trkpt lat="45.49153" lon="6.70833">
        <ele>2331.9</ele>
        <time>2021-08-15T12:29:57Z</time>
      </trkpt>
      <trkpt lat="45.49153" lon="6.70832">
        <ele>2331.8</ele>
        <time>2021-08-15T12:29:58Z</time>
      </trkpt>
      <trkpt lat="45.49153" lon="6.70831">
        <ele>2331.7</ele>
        <time>2021-08-15T12:29:59Z</time>
      </trkpt>
      <trkpt lat="45.49153" lon="6.7083">
        <ele>2331.6</ele>
        <time>2021-08-15T12:30:00Z</time>
      </trkpt>
      <trkpt lat="45.49154" lon="6.70829">
        <ele>2331.5</ele>
        <time>2021-08-15T12:30:01Z</time>
      </trkpt>
      <trkpt lat="45.49154" lon="6.70828">
        <ele>2331.4</ele>
        <time>2021-08-15T12:30:02Z</time>
      </trkpt>
      <trkpt lat="45.49154" lon="6.70827">
        <ele>2331.3</ele>
        <time>2021-08-15T12:30:03Z</time>
      </trkpt>
      <trkpt lat="45.49154" lon="6.70826">
        <ele>2331.2</ele>
        <time>2021-08-15T12:30:04Z</time>
      </trkpt>
      <trkpt lat="45.49154" lon="6.70825">
        <ele>2331.1</ele>
        <time>2021-08-15T12:30:05Z</time>
      </trkpt>
      <trkpt lat="45.49154" lon="6.70824">
        <ele>2331</ele>
        <time>2021-08-15T12:30:06Z</time>
      </trkpt>
      <trkpt lat="45.49154" lon="6.70823">
        <ele>2330.9</ele>
        <time>2021-08-15T12:30:07Z</time>
      </trkpt>
      <trkpt lat="45.49155" lon="6.70823">
        <ele>2330.8</ele>
        <time>2021-08-15T12:30:08Z</time>
      </trkpt>
      <trkpt lat="45.49155" lon="6.70822">
        <ele>2330.7</ele>
        <time>2021-08-15T12:30:09Z</time>
      </trkpt>
      <trkpt lat="45.49155" lon="6.70821">
        <ele>2330.6</ele>
        <time>2021-08-15T12:30:10Z</time>
      </trkpt>
      <trkpt lat="45.49155" lon="6.7082">
        <ele>2330.5</ele>
        <time>2021-08-15T12:30:11Z</time>
      </trkpt>
      <trkpt lat="45.49155" lon="6.70819">
        <ele>2330.4</ele>
        <time>2021-08-15T12:30:12Z</time>
      </trkpt>
      <trkpt lat="45.49155" lon="6.70818">
        <ele>2330.3</ele>
        <time>2021-08-15T12:30:13Z</time>
      </trkpt>
      <trkpt lat="45.49156" lon="6.70817">
        <ele>2330.2</ele>
        <time>2021-08-15T12:30:14Z</time>
      </trkpt>
      <trkpt lat="45.49156" lon="6.70816">
        <ele>2330.1</ele>
        <time>2021-08-15T12:30:15Z</time>
      </trkpt>
      <trkpt lat="45.49156" lon="6.70815">
        <ele>2330</ele>
        <time>2021-08-15T12:30:16Z</time>
      </trkpt>
      <trkpt lat="45.49156" lon="6.70814">
        <ele>2329.9</ele>
        <time>2021-08-15T12:30:17Z</time>
      </trkpt>
      <trkpt lat="45.49156" lon="6.70813">
        <ele>2329.8</ele>
        <time>2021-08-15T12:30:18Z</time>
      </trkpt>
      <trkpt lat="45.49156" lon="6.70812">
        <ele>2329.7</ele>
        <time>2021-08-15T12:30:19Z</time>
      </trkpt>
      <trkpt lat="45.49157" lon="6.70811">
        <ele>2329.6</ele>
        <time>2021-08-15T12:30:20Z</time>
      </trkpt>
      <trkpt lat="45.49157" lon="6.7081">
        <ele>2329.5</ele>
        <time>2021-08-15T12:30:21Z</time>
      </trkpt>
      <trkpt lat="45.49157" lon="6.70809">
        <ele>2329.5</ele>
        <time>2021-08-15T12:30:22Z</time>
      </trkpt>
      <trkpt lat="45.49157" lon="6.70809">
        <ele>2329.4</ele>
        <time>2021-08-15T12:30:23Z</time>
      </trkpt>
      <trkpt lat="45.49157" lon="6.70808">
        <ele>2329.3</ele>
        <time>2021-08-15T12:30:24Z</time>
      </trkpt>
      <trkpt lat="45.49157" lon="6.70807">
        <ele>2329.2</ele>
        <time>2021-08-15T12:30:25Z</time>
      </trkpt>
      <trkpt lat="45.49158" lon="6.70806">
        <ele>2329.1</ele>
        <time>2021-08-15T12:30:26Z</time>
      </trkpt>
      <trkpt lat="45.49158" lon="6.70806">
        <ele>2329.1</ele>
        <time>2021-08-15T12:30:27Z</time>
      </trkpt>
      <trkpt lat="45.49158" lon="6.70805">
        <ele>2329</ele>
        <time>2021-08-15T12:30:28Z</time>
      </trkpt>
      <trkpt lat="45.49158" lon="6.70804">
        <ele>2328.9</ele>
        <time>2021-08-15T12:30:29Z</time>
      </trkpt>
      <trkpt lat="45.49158" lon="6.70804">
        <ele>2328.9</ele>
        <time>2021-08-15T12:30:30Z</time>
      </trkpt>
      <trkpt lat="45.49158" lon="6.70803">
        <ele>2328.8</ele>
        <time>2021-08-15T12:30:31Z</time>
      </trkpt>
      <trkpt lat="45.49158" lon="6.70803">
        <ele>2328.8</ele>
        <time>2021-08-15T12:30:32Z</time>
      </trkpt>
      <trkpt lat="45.49158" lon="6.70802">
        <ele>2328.7</ele>
        <time>2021-08-15T12:30:33Z</time>
      </trkpt>
      <trkpt lat="45.49159" lon="6.70802">
        <ele>2328.7</ele>
        <time>2021-08-15T12:30:34Z</time>
      </trkpt>
      <trkpt lat="45.49159" lon="6.70802">
        <ele>2328.7</ele>
        <time>2021-08-15T12:30:35Z</time>
      </trkpt>
      <trkpt lat="45.49159" lon="6.70802">
        <ele>2328.7</ele>
        <time>2021-08-15T12:30:36Z</time>
      </trkpt>
      <trkpt lat="45.49159" lon="6.70801">
        <ele>2328.7</ele>
        <time>2021-08-15T12:30:37Z</time>
      </trkpt>
      <trkpt lat="45.49159" lon="6.70801">
        <ele>2328.6</ele>
        <time>2021-08-15T12:30:38Z</time>
      </trkpt>
      <trkpt lat="45.49159" lon="6.70801">
        <ele>2328.6</ele>
        <time>2021-08-15T12:30:39Z</time>
      </trkpt>
      <trkpt lat="45.49159" lon="6.70801">
        <ele>2328.6</ele>
        <time>2021-08-15T12:30:40Z</time>
      </trkpt>
      <trkpt lat="45.49159" lon="6.70801">
        <ele>2328.6</ele>
        <time>2021-08-15T12:30:41Z</time>
      </trkpt>
      <trkpt lat="45.49159" lon="6.70802">
        <ele>2328.6</ele>
        <time>2021-08-15T12:30:42Z</time>
      </trkpt>
      <trkpt lat="45.49159" lon="6.70802">
        <ele>2328.6</ele>
        <time>2021-08-15T12:30:43Z</time>
      </trkpt>
      <trkpt lat="45.49159" lon="6.70802">
        <ele>2328.6</ele>
        <time>2021-08-15T12:30:44Z</time>
      </trkpt>
      <trkpt lat="45.49159" lon="6.70802">
        <ele>2328.6</ele>
        <time>2021-08-15T12:30:45Z</time>
      </trkpt>
      <trkpt lat="45.49159" lon="6.70802">
        <ele>2328.6</ele>
        <time>2021-08-15T12:30:46Z</time>
      </trkpt>
      <trkpt lat="45.49159" lon="6.70802">
        <ele>2328.6</ele>
        <time>2021-08-15T12:30:47Z</time>
      </trkpt>
      <trkpt lat="45.49159" lon="6.70802">
        <ele>2328.6</ele>
        <time>2021-08-15T12:30:48Z</time>
      </trkpt>
      <trkpt lat="45.49159" lon="6.70802">
        <ele>2328.6</ele>
        <time>2021-08-15T12:30:49Z</time>
      </trkpt>
      <trkpt lat="45.49159" lon="6.70802">
        <ele>2328.6</ele>
        <time>2021-08-15T12:30:50Z</time>
      </trkpt>
      <trkpt lat="45.49159" lon="6.70802">
        <ele>2328.5</ele>
        <time>2021-08-15T12:30:51Z</time>
      </trkpt>
      <trkpt lat="45.49159" lon="6.70802">
        <ele>2328.5</ele>
        <time>2021-08-15T12:30:52Z</time>
      </trkpt>
      <trkpt lat="45.49159" lon="6.70802">
        <ele>2328.5</ele>
        <time>2021-08-15T12:30:53Z</time>
      </trkpt>
      <trkpt lat="45.49159" lon="6.70802">
        <ele>2328.5</ele>
        <time>2021-08-15T12:30:54Z</time>
      </trkpt>
      <trkpt lat="45.49159" lon="6.70801">
        <ele>2328.4</ele>
        <time>2021-08-15T12:30:55Z</time>
      </trkpt>
      <trkpt lat="45.49159" lon="6.70801">
        <ele>2328.4</ele>
        <time>2021-08-15T12:30:56Z</time>
      </trkpt>
      <trkpt lat="45.49159" lon="6.708">
        <ele>2328.3</ele>
        <time>2021-08-15T12:30:57Z</time>
      </trkpt>
      <trkpt lat="45.4916" lon="6.708">
        <ele>2328.3</ele>
        <time>2021-08-15T12:30:58Z</time>
      </trkpt>
      <trkpt lat="45.4916" lon="6.70799">
        <ele>2328.2</ele>
        <time>2021-08-15T12:30:59Z</time>
      </trkpt>
      <trkpt lat="45.4916" lon="6.70798">
        <ele>2328.1</ele>
        <time>2021-08-15T12:31:00Z</time>
      </trkpt>
      <trkpt lat="45.4916" lon="6.70797">
        <ele>2328</ele>
        <time>2021-08-15T12:31:01Z</time>
      </trkpt>
      <trkpt lat="45.49161" lon="6.70796">
        <ele>2327.9</ele>
        <time>2021-08-15T12:31:02Z</time>
      </trkpt>
      <trkpt lat="45.49161" lon="6.70795">
        <ele>2327.8</ele>
        <time>2021-08-15T12:31:03Z</time>
      </trkpt>
      <trkpt lat="45.49161" lon="6.70793">
        <ele>2327.7</ele>
        <time>2021-08-15T12:31:04Z</time>
      </trkpt>
      <trkpt lat="45.49161" lon="6.70792">
        <ele>2327.5</ele>
        <time>2021-08-15T12:31:05Z</time>
      </trkpt>
      <trkpt lat="45.49161" lon="6.7079">
        <ele>2327.4</ele>
        <time>2021-08-15T12:31:06Z</time>
      </trkpt>
      <trkpt lat="45.49161" lon="6.70788">
        <ele>2327.2</ele>
        <time>2021-08-15T12:31:07Z</time>
      </trkpt>
      <trkpt lat="45.49161" lon="6.70787">
        <ele>2327.1</ele>
        <time>2021-08-15T12:31:08Z</time>
      </trkpt>
      <trkpt lat="45.49161" lon="6.70785">
        <ele>2327</ele>
        <time>2021-08-15T12:31:09Z</time>
      </trkpt>
      <trkpt lat="45.49161" lon="6.70784">
        <ele>2326.9</ele>
        <time>2021-08-15T12:31:10Z</time>
      </trkpt>
      <trkpt lat="45.49161" lon="6.70784">
        <ele>2326.9</ele>
        <time>2021-08-15T12:31:11Z</time>
      </trkpt>
      <trkpt lat="45.49161" lon="6.70784">
        <ele>2326.9</ele>
        <time>2021-08-15T12:31:12Z</time>
      </trkpt>
      <trkpt lat="45.49161" lon="6.70784">
        <ele>2326.9</ele>
        <time>2021-08-15T12:31:13Z</time>
      </trkpt>
      <trkpt lat="45.49161" lon="6.70784">
        <ele>2326.8</ele>
        <time>2021-08-15T12:31:14Z</time>
      </trkpt>
      <trkpt lat="45.49161" lon="6.70784">
        <ele>2326.8</ele>
        <time>2021-08-15T12:31:15Z</time>
      </trkpt>
      <trkpt lat="45.49161" lon="6.70785">
        <ele>2326.8</ele>
        <time>2021-08-15T12:31:16Z</time>
      </trkpt>
      <trkpt lat="45.49161" lon="6.70785">
        <ele>2326.8</ele>
        <time>2021-08-15T12:31:17Z</time>
      </trkpt>
      <trkpt lat="45.49161" lon="6.70785">
        <ele>2326.8</ele>
        <time>2021-08-15T12:31:18Z</time>
      </trkpt>
      <trkpt lat="45.49161" lon="6.70785">
        <ele>2326.8</ele>
        <time>2021-08-15T12:31:19Z</time>
      </trkpt>
      <trkpt lat="45.49161" lon="6.70784">
        <ele>2326.8</ele>
        <time>2021-08-15T12:31:20Z</time>
      </trkpt>
      <trkpt lat="45.49161" lon="6.70784">
        <ele>2326.7</ele>
        <time>2021-08-15T12:31:21Z</time>
      </trkpt>
      <trkpt lat="45.49162" lon="6.70784">
        <ele>2326.7</ele>
        <time>2021-08-15T12:31:22Z</time>
      </trkpt>
      <trkpt lat="45.49162" lon="6.70783">
        <ele>2326.7</ele>
        <time>2021-08-15T12:31:23Z</time>
      </trkpt>
      <trkpt lat="45.49162" lon="6.70783">
        <ele>2326.6</ele>
        <time>2021-08-15T12:31:24Z</time>
      </trkpt>
      <trkpt lat="45.49162" lon="6.70782">
        <ele>2326.5</ele>
        <time>2021-08-15T12:31:25Z</time>
      </trkpt>
      <trkpt lat="45.49162" lon="6.70781">
        <ele>2326.5</ele>
        <time>2021-08-15T12:31:26Z</time>
      </trkpt>
      <trkpt lat="45.49162" lon="6.7078">
        <ele>2326.4</ele>
        <time>2021-08-15T12:31:27Z</time>
      </trkpt>
      <trkpt lat="45.49162" lon="6.70779">
        <ele>2326.3</ele>
        <time>2021-08-15T12:31:28Z</time>
      </trkpt>
      <trkpt lat="45.49162" lon="6.70778">
        <ele>2326.2</ele>
        <time>2021-08-15T12:31:29Z</time>
      </trkpt>
      <trkpt lat="45.49163" lon="6.70777">
        <ele>2326.1</ele>
        <time>2021-08-15T12:31:30Z</time>
      </trkpt>
      <trkpt lat="45.49163" lon="6.70776">
        <ele>2326</ele>
        <time>2021-08-15T12:31:31Z</time>
      </trkpt>
      <trkpt lat="45.49163" lon="6.70774">
        <ele>2325.9</ele>
        <time>2021-08-15T12:31:32Z</time>
      </trkpt>
      <trkpt lat="45.49163" lon="6.70773">
        <ele>2325.8</ele>
        <time>2021-08-15T12:31:33Z</time>
      </trkpt>
      <trkpt lat="45.49164" lon="6.70772">
        <ele>2325.7</ele>
        <time>2021-08-15T12:31:34Z</time>
      </trkpt>
      <trkpt lat="45.49164" lon="6.70771">
        <ele>2325.6</ele>
        <time>2021-08-15T12:31:35Z</time>
      </trkpt>
      <trkpt lat="45.49164" lon="6.7077">
        <ele>2325.5</ele>
        <time>2021-08-15T12:31:36Z</time>
      </trkpt>
      <trkpt lat="45.49164" lon="6.70769">
        <ele>2325.4</ele>
        <time>2021-08-15T12:31:37Z</time>
      </trkpt>
      <trkpt lat="45.49164" lon="6.70768">
        <ele>2325.4</ele>
        <time>2021-08-15T12:31:38Z</time>
      </trkpt>
      <trkpt lat="45.49165" lon="6.70767">
        <ele>2325.3</ele>
        <time>2021-08-15T12:31:39Z</time>
      </trkpt>
      <trkpt lat="45.49165" lon="6.70766">
        <ele>2325.2</ele>
        <time>2021-08-15T12:31:40Z</time>
      </trkpt>
      <trkpt lat="45.49165" lon="6.70765">
        <ele>2325.1</ele>
        <time>2021-08-15T12:31:41Z</time>
      </trkpt>
      <trkpt lat="45.49165" lon="6.70764">
        <ele>2325</ele>
        <time>2021-08-15T12:31:42Z</time>
      </trkpt>
      <trkpt lat="45.49165" lon="6.70763">
        <ele>2325</ele>
        <time>2021-08-15T12:31:43Z</time>
      </trkpt>
      <trkpt lat="45.49166" lon="6.70762">
        <ele>2324.9</ele>
        <time>2021-08-15T12:31:44Z</time>
      </trkpt>
      <trkpt lat="45.49166" lon="6.70761">
        <ele>2324.8</ele>
        <time>2021-08-15T12:31:45Z</time>
      </trkpt>
      <trkpt lat="45.49166" lon="6.7076">
        <ele>2324.7</ele>
        <time>2021-08-15T12:31:46Z</time>
      </trkpt>
      <trkpt lat="45.49166" lon="6.70759">
        <ele>2324.7</ele>
        <time>2021-08-15T12:31:47Z</time>
      </trkpt>
      <trkpt lat="45.49166" lon="6.70758">
        <ele>2324.6</ele>
        <time>2021-08-15T12:31:48Z</time>
      </trkpt>
      <trkpt lat="45.49166" lon="6.70757">
        <ele>2324.5</ele>
        <time>2021-08-15T12:31:49Z</time>
      </trkpt>
      <trkpt lat="45.49167" lon="6.70756">
        <ele>2324.4</ele>
        <time>2021-08-15T12:31:50Z</time>
      </trkpt>
      <trkpt lat="45.49167" lon="6.70755">
        <ele>2324.3</ele>
        <time>2021-08-15T12:31:51Z</time>
      </trkpt>
      <trkpt lat="45.49167" lon="6.70754">
        <ele>2324.3</ele>
        <time>2021-08-15T12:31:52Z</time>
      </trkpt>
      <trkpt lat="45.49167" lon="6.70753">
        <ele>2324.2</ele>
        <time>2021-08-15T12:31:53Z</time>
      </trkpt>
      <trkpt lat="45.49167" lon="6.70752">
        <ele>2324.1</ele>
        <time>2021-08-15T12:31:54Z</time>
      </trkpt>
      <trkpt lat="45.49168" lon="6.70751">
        <ele>2324</ele>
        <time>2021-08-15T12:31:55Z</time>
      </trkpt>
      <trkpt lat="45.49168" lon="6.70749">
        <ele>2323.9</ele>
        <time>2021-08-15T12:31:56Z</time>
      </trkpt>
      <trkpt lat="45.49168" lon="6.70748">
        <ele>2323.8</ele>
        <time>2021-08-15T12:31:57Z</time>
      </trkpt>
      <trkpt lat="45.49168" lon="6.70747">
        <ele>2323.7</ele>
        <time>2021-08-15T12:31:58Z</time>
      </trkpt>
      <trkpt lat="45.49168" lon="6.70746">
        <ele>2323.6</ele>
        <time>2021-08-15T12:31:59Z</time>
      </trkpt>
      <trkpt lat="45.49169" lon="6.70744">
        <ele>2323.5</ele>
        <time>2021-08-15T12:32:00Z</time>
      </trkpt>
      <trkpt lat="45.49169" lon="6.70743">
        <ele>2323.4</ele>
        <time>2021-08-15T12:32:01Z</time>
      </trkpt>
      <trkpt lat="45.49169" lon="6.70742">
        <ele>2323.3</ele>
        <time>2021-08-15T12:32:02Z</time>
      </trkpt>
      <trkpt lat="45.4917" lon="6.70741">
        <ele>2323.2</ele>
        <time>2021-08-15T12:32:03Z</time>
      </trkpt>
      <trkpt lat="45.4917" lon="6.70739">
        <ele>2323.1</ele>
        <time>2021-08-15T12:32:04Z</time>
      </trkpt>
      <trkpt lat="45.4917" lon="6.70738">
        <ele>2322.9</ele>
        <time>2021-08-15T12:32:05Z</time>
      </trkpt>
      <trkpt lat="45.4917" lon="6.70737">
        <ele>2322.8</ele>
        <time>2021-08-15T12:32:06Z</time>
      </trkpt>
      <trkpt lat="45.49171" lon="6.70735">
        <ele>2322.7</ele>
        <time>2021-08-15T12:32:07Z</time>
      </trkpt>
      <trkpt lat="45.49171" lon="6.70734">
        <ele>2322.6</ele>
        <time>2021-08-15T12:32:08Z</time>
      </trkpt>
      <trkpt lat="45.49171" lon="6.70733">
        <ele>2322.5</ele>
        <time>2021-08-15T12:32:09Z</time>
      </trkpt>
      <trkpt lat="45.49171" lon="6.70731">
        <ele>2322.4</ele>
        <time>2021-08-15T12:32:10Z</time>
      </trkpt>
      <trkpt lat="45.49171" lon="6.7073">
        <ele>2322.3</ele>
        <time>2021-08-15T12:32:11Z</time>
      </trkpt>
      <trkpt lat="45.49172" lon="6.70729">
        <ele>2322.2</ele>
        <time>2021-08-15T12:32:12Z</time>
      </trkpt>
      <trkpt lat="45.49172" lon="6.70727">
        <ele>2322.1</ele>
        <time>2021-08-15T12:32:13Z</time>
      </trkpt>
      <trkpt lat="45.49172" lon="6.70726">
        <ele>2322</ele>
        <time>2021-08-15T12:32:14Z</time>
      </trkpt>
      <trkpt lat="45.49172" lon="6.70725">
        <ele>2321.9</ele>
        <time>2021-08-15T12:32:15Z</time>
      </trkpt>
      <trkpt lat="45.49172" lon="6.70724">
        <ele>2321.8</ele>
        <time>2021-08-15T12:32:16Z</time>
      </trkpt>
      <trkpt lat="45.49172" lon="6.70722">
        <ele>2321.7</ele>
        <time>2021-08-15T12:32:17Z</time>
      </trkpt>
      <trkpt lat="45.49172" lon="6.70721">
        <ele>2321.6</ele>
        <time>2021-08-15T12:32:18Z</time>
      </trkpt>
      <trkpt lat="45.49173" lon="6.7072">
        <ele>2321.5</ele>
        <time>2021-08-15T12:32:19Z</time>
      </trkpt>
      <trkpt lat="45.49173" lon="6.70719">
        <ele>2321.4</ele>
        <time>2021-08-15T12:32:20Z</time>
      </trkpt>
      <trkpt lat="45.49173" lon="6.70718">
        <ele>2321.3</ele>
        <time>2021-08-15T12:32:21Z</time>
      </trkpt>
      <trkpt lat="45.49173" lon="6.70716">
        <ele>2321.2</ele>
        <time>2021-08-15T12:32:22Z</time>
      </trkpt>
      <trkpt lat="45.49173" lon="6.70715">
        <ele>2321</ele>
        <time>2021-08-15T12:32:23Z</time>
      </trkpt>
      <trkpt lat="45.49173" lon="6.70714">
        <ele>2320.9</ele>
        <time>2021-08-15T12:32:24Z</time>
      </trkpt>
      <trkpt lat="45.49173" lon="6.70713">
        <ele>2320.8</ele>
        <time>2021-08-15T12:32:25Z</time>
      </trkpt>
      <trkpt lat="45.49174" lon="6.70711">
        <ele>2320.7</ele>
        <time>2021-08-15T12:32:26Z</time>
      </trkpt>
      <trkpt lat="45.49174" lon="6.7071">
        <ele>2320.6</ele>
        <time>2021-08-15T12:32:27Z</time>
      </trkpt>
      <trkpt lat="45.49174" lon="6.70709">
        <ele>2320.5</ele>
        <time>2021-08-15T12:32:28Z</time>
      </trkpt>
      <trkpt lat="45.49174" lon="6.70708">
        <ele>2320.4</ele>
        <time>2021-08-15T12:32:29Z</time>
      </trkpt>
      <trkpt lat="45.49175" lon="6.70707">
        <ele>2320.3</ele>
        <time>2021-08-15T12:32:30Z</time>
      </trkpt>
      <trkpt lat="45.49175" lon="6.70706">
        <ele>2320.2</ele>
        <time>2021-08-15T12:32:31Z</time>
      </trkpt>
      <trkpt lat="45.49175" lon="6.70705">
        <ele>2320.1</ele>
        <time>2021-08-15T12:32:32Z</time>
      </trkpt>
      <trkpt lat="45.49175" lon="6.70704">
        <ele>2320.1</ele>
        <time>2021-08-15T12:32:33Z</time>
      </trkpt>
      <trkpt lat="45.49176" lon="6.70703">
        <ele>2320</ele>
        <time>2021-08-15T12:32:34Z</time>
      </trkpt>
      <trkpt lat="45.49176" lon="6.70703">
        <ele>2319.9</ele>
        <time>2021-08-15T12:32:35Z</time>
      </trkpt>
      <trkpt lat="45.49176" lon="6.70702">
        <ele>2319.9</ele>
        <time>2021-08-15T12:32:36Z</time>
      </trkpt>
      <trkpt lat="45.49176" lon="6.70702">
        <ele>2319.9</ele>
        <time>2021-08-15T12:32:37Z</time>
      </trkpt>
      <trkpt lat="45.49176" lon="6.70702">
        <ele>2319.8</ele>
        <time>2021-08-15T12:32:38Z</time>
      </trkpt>
      <trkpt lat="45.49176" lon="6.70701">
        <ele>2319.8</ele>
        <time>2021-08-15T12:32:39Z</time>
      </trkpt>
      <trkpt lat="45.49176" lon="6.70701">
        <ele>2319.8</ele>
        <time>2021-08-15T12:32:40Z</time>
      </trkpt>
      <trkpt lat="45.49176" lon="6.70701">
        <ele>2319.8</ele>
        <time>2021-08-15T12:32:41Z</time>
      </trkpt>
      <trkpt lat="45.49176" lon="6.70701">
        <ele>2319.8</ele>
        <time>2021-08-15T12:32:42Z</time>
      </trkpt>
      <trkpt lat="45.49176" lon="6.70701">
        <ele>2319.8</ele>
        <time>2021-08-15T12:32:43Z</time>
      </trkpt>
      <trkpt lat="45.49176" lon="6.70701">
        <ele>2319.8</ele>
        <time>2021-08-15T12:32:44Z</time>
      </trkpt>
      <trkpt lat="45.49176" lon="6.70702">
        <ele>2319.8</ele>
        <time>2021-08-15T12:32:45Z</time>
      </trkpt>
      <trkpt lat="45.49176" lon="6.70702">
        <ele>2319.8</ele>
        <time>2021-08-15T12:32:46Z</time>
      </trkpt>
      <trkpt lat="45.49176" lon="6.70702">
        <ele>2319.8</ele>
        <time>2021-08-15T12:32:47Z</time>
      </trkpt>
      <trkpt lat="45.49176" lon="6.70702">
        <ele>2319.8</ele>
        <time>2021-08-15T12:32:48Z</time>
      </trkpt>
      <trkpt lat="45.49176" lon="6.70702">
        <ele>2319.8</ele>
        <time>2021-08-15T12:32:49Z</time>
      </trkpt>
      <trkpt lat="45.49176" lon="6.70702">
        <ele>2319.8</ele>
        <time>2021-08-15T12:32:50Z</time>
      </trkpt>
      <trkpt lat="45.49176" lon="6.70702">
        <ele>2319.8</ele>
        <time>2021-08-15T12:32:51Z</time>
      </trkpt>
      <trkpt lat="45.49176" lon="6.70701">
        <ele>2319.7</ele>
        <time>2021-08-15T12:32:52Z</time>
      </trkpt>
      <trkpt lat="45.49176" lon="6.70701">
        <ele>2319.7</ele>
        <time>2021-08-15T12:32:53Z</time>
      </trkpt>
      <trkpt lat="45.49176" lon="6.707">
        <ele>2319.6</ele>
        <time>2021-08-15T12:32:54Z</time>
      </trkpt>
      <trkpt lat="45.49177" lon="6.707">
        <ele>2319.6</ele>
        <time>2021-08-15T12:32:55Z</time>
      </trkpt>
      <trkpt lat="45.49177" lon="6.70699">
        <ele>2319.5</ele>
        <time>2021-08-15T12:32:56Z</time>
      </trkpt>
      <trkpt lat="45.49177" lon="6.70698">
        <ele>2319.4</ele>
        <time>2021-08-15T12:32:57Z</time>
      </trkpt>
      <trkpt lat="45.49177" lon="6.70697">
        <ele>2319.3</ele>
        <time>2021-08-15T12:32:58Z</time>
      </trkpt>
      <trkpt lat="45.49177" lon="6.70696">
        <ele>2319.2</ele>
        <time>2021-08-15T12:32:59Z</time>
      </trkpt>
      <trkpt lat="45.49178" lon="6.70695">
        <ele>2319.1</ele>
        <time>2021-08-15T12:33:00Z</time>
      </trkpt>
      <trkpt lat="45.49178" lon="6.70693">
        <ele>2319</ele>
        <time>2021-08-15T12:33:01Z</time>
      </trkpt>
      <trkpt lat="45.49178" lon="6.70692">
        <ele>2318.9</ele>
        <time>2021-08-15T12:33:02Z</time>
      </trkpt>
      <trkpt lat="45.49179" lon="6.70691">
        <ele>2318.8</ele>
        <time>2021-08-15T12:33:03Z</time>
      </trkpt>
      <trkpt lat="45.49179" lon="6.7069">
        <ele>2318.7</ele>
        <time>2021-08-15T12:33:04Z</time>
      </trkpt>
      <trkpt lat="45.49179" lon="6.70689">
        <ele>2318.6</ele>
        <time>2021-08-15T12:33:05Z</time>
      </trkpt>
      <trkpt lat="45.49179" lon="6.70688">
        <ele>2318.5</ele>
        <time>2021-08-15T12:33:06Z</time>
      </trkpt>
      <trkpt lat="45.4918" lon="6.70687">
        <ele>2318.4</ele>
        <time>2021-08-15T12:33:07Z</time>
      </trkpt>
      <trkpt lat="45.4918" lon="6.70686">
        <ele>2318.4</ele>
        <time>2021-08-15T12:33:08Z</time>
      </trkpt>
      <trkpt lat="45.4918" lon="6.70685">
        <ele>2318.3</ele>
        <time>2021-08-15T12:33:09Z</time>
      </trkpt>
      <trkpt lat="45.4918" lon="6.70684">
        <ele>2318.2</ele>
        <time>2021-08-15T12:33:10Z</time>
      </trkpt>
      <trkpt lat="45.4918" lon="6.70683">
        <ele>2318.2</ele>
        <time>2021-08-15T12:33:11Z</time>
      </trkpt>
      <trkpt lat="45.49181" lon="6.70683">
        <ele>2318.1</ele>
        <time>2021-08-15T12:33:12Z</time>
      </trkpt>
      <trkpt lat="45.49181" lon="6.70683">
        <ele>2318.1</ele>
        <time>2021-08-15T12:33:13Z</time>
      </trkpt>
      <trkpt lat="45.49181" lon="6.70682">
        <ele>2318</ele>
        <time>2021-08-15T12:33:14Z</time>
      </trkpt>
      <trkpt lat="45.49181" lon="6.70682">
        <ele>2318</ele>
        <time>2021-08-15T12:33:15Z</time>
      </trkpt>
      <trkpt lat="45.49181" lon="6.70682">
        <ele>2318</ele>
        <time>2021-08-15T12:33:16Z</time>
      </trkpt>
      <trkpt lat="45.49181" lon="6.70682">
        <ele>2318</ele>
        <time>2021-08-15T12:33:17Z</time>
      </trkpt>
      <trkpt lat="45.49181" lon="6.70682">
        <ele>2318</ele>
        <time>2021-08-15T12:33:18Z</time>
      </trkpt>
      <trkpt lat="45.49181" lon="6.70682">
        <ele>2318</ele>
        <time>2021-08-15T12:33:19Z</time>
      </trkpt>
      <trkpt lat="45.49181" lon="6.70682">
        <ele>2318</ele>
        <time>2021-08-15T12:33:20Z</time>
      </trkpt>
      <trkpt lat="45.49181" lon="6.70682">
        <ele>2318</ele>
        <time>2021-08-15T12:33:21Z</time>
      </trkpt>
      <trkpt lat="45.49181" lon="6.70682">
        <ele>2318</ele>
        <time>2021-08-15T12:33:22Z</time>
      </trkpt>
      <trkpt lat="45.49181" lon="6.70681">
        <ele>2318</ele>
        <time>2021-08-15T12:33:23Z</time>
      </trkpt>
      <trkpt lat="45.49181" lon="6.70681">
        <ele>2317.9</ele>
        <time>2021-08-15T12:33:24Z</time>
      </trkpt>
      <trkpt lat="45.49181" lon="6.7068">
        <ele>2317.8</ele>
        <time>2021-08-15T12:33:25Z</time>
      </trkpt>
      <trkpt lat="45.49181" lon="6.70679">
        <ele>2317.8</ele>
        <time>2021-08-15T12:33:26Z</time>
      </trkpt>
      <trkpt lat="45.49182" lon="6.70678">
        <ele>2317.7</ele>
        <time>2021-08-15T12:33:27Z</time>
      </trkpt>
      <trkpt lat="45.49182" lon="6.70677">
        <ele>2317.6</ele>
        <time>2021-08-15T12:33:28Z</time>
      </trkpt>
      <trkpt lat="45.49182" lon="6.70675">
        <ele>2317.5</ele>
        <time>2021-08-15T12:33:29Z</time>
      </trkpt>
      <trkpt lat="45.49182" lon="6.70674">
        <ele>2317.4</ele>
        <time>2021-08-15T12:33:30Z</time>
      </trkpt>
      <trkpt lat="45.49183" lon="6.70673">
        <ele>2317.3</ele>
        <time>2021-08-15T12:33:31Z</time>
      </trkpt>
      <trkpt lat="45.49183" lon="6.70671">
        <ele>2317.2</ele>
        <time>2021-08-15T12:33:32Z</time>
      </trkpt>
      <trkpt lat="45.49183" lon="6.7067">
        <ele>2317.1</ele>
        <time>2021-08-15T12:33:33Z</time>
      </trkpt>
      <trkpt lat="45.49183" lon="6.70669">
        <ele>2317</ele>
        <time>2021-08-15T12:33:34Z</time>
      </trkpt>
      <trkpt lat="45.49183" lon="6.70668">
        <ele>2316.9</ele>
        <time>2021-08-15T12:33:35Z</time>
      </trkpt>
      <trkpt lat="45.49183" lon="6.70667">
        <ele>2316.9</ele>
        <time>2021-08-15T12:33:36Z</time>
      </trkpt>
      <trkpt lat="45.49183" lon="6.70667">
        <ele>2316.8</ele>
        <time>2021-08-15T12:33:37Z</time>
      </trkpt>
      <trkpt lat="45.49183" lon="6.70666">
        <ele>2316.8</ele>
        <time>2021-08-15T12:33:38Z</time>
      </trkpt>
      <trkpt lat="45.49183" lon="6.70666">
        <ele>2316.7</ele>
        <time>2021-08-15T12:33:39Z</time>
      </trkpt>
      <trkpt lat="45.49183" lon="6.70665">
        <ele>2316.7</ele>
        <time>2021-08-15T12:33:40Z</time>
      </trkpt>
      <trkpt lat="45.49183" lon="6.70664">
        <ele>2316.7</ele>
        <time>2021-08-15T12:33:41Z</time>
      </trkpt>
      <trkpt lat="45.49183" lon="6.70664">
        <ele>2316.6</ele>
        <time>2021-08-15T12:33:42Z</time>
      </trkpt>
      <trkpt lat="45.49183" lon="6.70663">
        <ele>2316.5</ele>
        <time>2021-08-15T12:33:43Z</time>
      </trkpt>
      <trkpt lat="45.49184" lon="6.70662">
        <ele>2316.5</ele>
        <time>2021-08-15T12:33:44Z</time>
      </trkpt>
      <trkpt lat="45.49184" lon="6.70661">
        <ele>2316.4</ele>
        <time>2021-08-15T12:33:45Z</time>
      </trkpt>
      <trkpt lat="45.49185" lon="6.7066">
        <ele>2316.3</ele>
        <time>2021-08-15T12:33:46Z</time>
      </trkpt>
      <trkpt lat="45.49185" lon="6.70659">
        <ele>2316.2</ele>
        <time>2021-08-15T12:33:47Z</time>
      </trkpt>
      <trkpt lat="45.49186" lon="6.70658">
        <ele>2316.1</ele>
        <time>2021-08-15T12:33:48Z</time>
      </trkpt>
      <trkpt lat="45.49186" lon="6.70657">
        <ele>2315.9</ele>
        <time>2021-08-15T12:33:49Z</time>
      </trkpt>
      <trkpt lat="45.49187" lon="6.70656">
        <ele>2315.9</ele>
        <time>2021-08-15T12:33:50Z</time>
      </trkpt>
      <trkpt lat="45.49187" lon="6.70655">
        <ele>2315.8</ele>
        <time>2021-08-15T12:33:51Z</time>
      </trkpt>
      <trkpt lat="45.49188" lon="6.70654">
        <ele>2315.7</ele>
        <time>2021-08-15T12:33:52Z</time>
      </trkpt>
      <trkpt lat="45.49188" lon="6.70653">
        <ele>2315.6</ele>
        <time>2021-08-15T12:33:53Z</time>
      </trkpt>
      <trkpt lat="45.49189" lon="6.70652">
        <ele>2315.6</ele>
        <time>2021-08-15T12:33:54Z</time>
      </trkpt>
      <trkpt lat="45.49189" lon="6.70652">
        <ele>2315.5</ele>
        <time>2021-08-15T12:33:55Z</time>
      </trkpt>
      <trkpt lat="45.49189" lon="6.70651">
        <ele>2315.5</ele>
        <time>2021-08-15T12:33:56Z</time>
      </trkpt>
      <trkpt lat="45.49189" lon="6.70651">
        <ele>2315.5</ele>
        <time>2021-08-15T12:33:57Z</time>
      </trkpt>
      <trkpt lat="45.49189" lon="6.7065">
        <ele>2315.5</ele>
        <time>2021-08-15T12:33:58Z</time>
      </trkpt>
      <trkpt lat="45.49189" lon="6.7065">
        <ele>2315.5</ele>
        <time>2021-08-15T12:33:59Z</time>
      </trkpt>
      <trkpt lat="45.49189" lon="6.7065">
        <ele>2315.4</ele>
        <time>2021-08-15T12:34:00Z</time>
      </trkpt>
      <trkpt lat="45.49189" lon="6.7065">
        <ele>2315.4</ele>
        <time>2021-08-15T12:34:01Z</time>
      </trkpt>
      <trkpt lat="45.49189" lon="6.7065">
        <ele>2315.4</ele>
        <time>2021-08-15T12:34:02Z</time>
      </trkpt>
      <trkpt lat="45.49189" lon="6.7065">
        <ele>2315.4</ele>
        <time>2021-08-15T12:34:03Z</time>
      </trkpt>
      <trkpt lat="45.49189" lon="6.7065">
        <ele>2315.4</ele>
        <time>2021-08-15T12:34:04Z</time>
      </trkpt>
      <trkpt lat="45.4919" lon="6.70649">
        <ele>2315.3</ele>
        <time>2021-08-15T12:34:05Z</time>
      </trkpt>
      <trkpt lat="45.4919" lon="6.70648">
        <ele>2315.3</ele>
        <time>2021-08-15T12:34:06Z</time>
      </trkpt>
      <trkpt lat="45.4919" lon="6.70647">
        <ele>2315.2</ele>
        <time>2021-08-15T12:34:07Z</time>
      </trkpt>
      <trkpt lat="45.49191" lon="6.70646">
        <ele>2315.2</ele>
        <time>2021-08-15T12:34:08Z</time>
      </trkpt>
      <trkpt lat="45.49191" lon="6.70645">
        <ele>2315.1</ele>
        <time>2021-08-15T12:34:09Z</time>
      </trkpt>
      <trkpt lat="45.49192" lon="6.70644">
        <ele>2315</ele>
        <time>2021-08-15T12:34:10Z</time>
      </trkpt>
      <trkpt lat="45.49192" lon="6.70643">
        <ele>2314.9</ele>
        <time>2021-08-15T12:34:11Z</time>
      </trkpt>
      <trkpt lat="45.49193" lon="6.70642">
        <ele>2314.9</ele>
        <time>2021-08-15T12:34:12Z</time>
      </trkpt>
      <trkpt lat="45.49193" lon="6.70641">
        <ele>2314.8</ele>
        <time>2021-08-15T12:34:13Z</time>
      </trkpt>
      <trkpt lat="45.49194" lon="6.7064">
        <ele>2314.7</ele>
        <time>2021-08-15T12:34:14Z</time>
      </trkpt>
      <trkpt lat="45.49194" lon="6.70639">
        <ele>2314.7</ele>
        <time>2021-08-15T12:34:15Z</time>
      </trkpt>
      <trkpt lat="45.49195" lon="6.70637">
        <ele>2314.6</ele>
        <time>2021-08-15T12:34:16Z</time>
      </trkpt>
      <trkpt lat="45.49195" lon="6.70636">
        <ele>2314.5</ele>
        <time>2021-08-15T12:34:17Z</time>
      </trkpt>
      <trkpt lat="45.49196" lon="6.70635">
        <ele>2314.4</ele>
        <time>2021-08-15T12:34:18Z</time>
      </trkpt>
      <trkpt lat="45.49196" lon="6.70634">
        <ele>2314.4</ele>
        <time>2021-08-15T12:34:19Z</time>
      </trkpt>
      <trkpt lat="45.49197" lon="6.70633">
        <ele>2314.3</ele>
        <time>2021-08-15T12:34:20Z</time>
      </trkpt>
      <trkpt lat="45.49197" lon="6.70632">
        <ele>2314.2</ele>
        <time>2021-08-15T12:34:21Z</time>
      </trkpt>
      <trkpt lat="45.49198" lon="6.70631">
        <ele>2314.2</ele>
        <time>2021-08-15T12:34:22Z</time>
      </trkpt>
      <trkpt lat="45.49198" lon="6.70629">
        <ele>2314.1</ele>
        <time>2021-08-15T12:34:23Z</time>
      </trkpt>
      <trkpt lat="45.49199" lon="6.70628">
        <ele>2314</ele>
        <time>2021-08-15T12:34:24Z</time>
      </trkpt>
      <trkpt lat="45.49199" lon="6.70627">
        <ele>2314</ele>
        <time>2021-08-15T12:34:25Z</time>
      </trkpt>
      <trkpt lat="45.492" lon="6.70626">
        <ele>2313.9</ele>
        <time>2021-08-15T12:34:26Z</time>
      </trkpt>
      <trkpt lat="45.492" lon="6.70625">
        <ele>2313.8</ele>
        <time>2021-08-15T12:34:27Z</time>
      </trkpt>
      <trkpt lat="45.49201" lon="6.70624">
        <ele>2313.8</ele>
        <time>2021-08-15T12:34:28Z</time>
      </trkpt>
      <trkpt lat="45.49201" lon="6.70623">
        <ele>2313.7</ele>
        <time>2021-08-15T12:34:29Z</time>
      </trkpt>
      <trkpt lat="45.49202" lon="6.70622">
        <ele>2313.6</ele>
        <time>2021-08-15T12:34:30Z</time>
      </trkpt>
      <trkpt lat="45.49202" lon="6.70621">
        <ele>2313.5</ele>
        <time>2021-08-15T12:34:31Z</time>
      </trkpt>
      <trkpt lat="45.49203" lon="6.7062">
        <ele>2313.5</ele>
        <time>2021-08-15T12:34:32Z</time>
      </trkpt>
      <trkpt lat="45.49203" lon="6.70619">
        <ele>2313.4</ele>
        <time>2021-08-15T12:34:33Z</time>
      </trkpt>
      <trkpt lat="45.49204" lon="6.70617">
        <ele>2313.3</ele>
        <time>2021-08-15T12:34:34Z</time>
      </trkpt>
      <trkpt lat="45.49205" lon="6.70616">
        <ele>2313.2</ele>
        <time>2021-08-15T12:34:35Z</time>
      </trkpt>
      <trkpt lat="45.49205" lon="6.70615">
        <ele>2313.1</ele>
        <time>2021-08-15T12:34:36Z</time>
      </trkpt>
      <trkpt lat="45.49206" lon="6.70614">
        <ele>2313.1</ele>
        <time>2021-08-15T12:34:37Z</time>
      </trkpt>
      <trkpt lat="45.49206" lon="6.70613">
        <ele>2313</ele>
        <time>2021-08-15T12:34:38Z</time>
      </trkpt>
      <trkpt lat="45.49207" lon="6.70612">
        <ele>2312.9</ele>
        <time>2021-08-15T12:34:39Z</time>
      </trkpt>
      <trkpt lat="45.49208" lon="6.70611">
        <ele>2312.8</ele>
        <time>2021-08-15T12:34:40Z</time>
      </trkpt>
      <trkpt lat="45.49208" lon="6.7061">
        <ele>2312.8</ele>
        <time>2021-08-15T12:34:41Z</time>
      </trkpt>
      <trkpt lat="45.49209" lon="6.70609">
        <ele>2312.7</ele>
        <time>2021-08-15T12:34:42Z</time>
      </trkpt>
      <trkpt lat="45.49209" lon="6.70608">
        <ele>2312.6</ele>
        <time>2021-08-15T12:34:43Z</time>
      </trkpt>
      <trkpt lat="45.4921" lon="6.70608">
        <ele>2312.6</ele>
        <time>2021-08-15T12:34:44Z</time>
      </trkpt>
      <trkpt lat="45.4921" lon="6.70608">
        <ele>2312.5</ele>
        <time>2021-08-15T12:34:45Z</time>
      </trkpt>
      <trkpt lat="45.49211" lon="6.70607">
        <ele>2312.5</ele>
        <time>2021-08-15T12:34:46Z</time>
      </trkpt>
      <trkpt lat="45.49211" lon="6.70607">
        <ele>2312.4</ele>
        <time>2021-08-15T12:34:47Z</time>
      </trkpt>
      <trkpt lat="45.49212" lon="6.70607">
        <ele>2312.4</ele>
        <time>2021-08-15T12:34:48Z</time>
      </trkpt>
      <trkpt lat="45.49212" lon="6.70607">
        <ele>2312.4</ele>
        <time>2021-08-15T12:34:49Z</time>
      </trkpt>
      <trkpt lat="45.49213" lon="6.70607">
        <ele>2312.3</ele>
        <time>2021-08-15T12:34:50Z</time>
      </trkpt>
      <trkpt lat="45.49213" lon="6.70607">
        <ele>2312.3</ele>
        <time>2021-08-15T12:34:51Z</time>
      </trkpt>
      <trkpt lat="45.49214" lon="6.70607">
        <ele>2312.2</ele>
        <time>2021-08-15T12:34:52Z</time>
      </trkpt>
      <trkpt lat="45.49214" lon="6.70607">
        <ele>2312.2</ele>
        <time>2021-08-15T12:34:53Z</time>
      </trkpt>
      <trkpt lat="45.49215" lon="6.70607">
        <ele>2312.1</ele>
        <time>2021-08-15T12:34:54Z</time>
      </trkpt>
      <trkpt lat="45.49216" lon="6.70606">
        <ele>2312</ele>
        <time>2021-08-15T12:34:55Z</time>
      </trkpt>
      <trkpt lat="45.49216" lon="6.70606">
        <ele>2312</ele>
        <time>2021-08-15T12:34:56Z</time>
      </trkpt>
      <trkpt lat="45.49217" lon="6.70606">
        <ele>2311.9</ele>
        <time>2021-08-15T12:34:57Z</time>
      </trkpt>
      <trkpt lat="45.49218" lon="6.70605">
        <ele>2311.8</ele>
        <time>2021-08-15T12:34:58Z</time>
      </trkpt>
      <trkpt lat="45.49218" lon="6.70604">
        <ele>2311.7</ele>
        <time>2021-08-15T12:34:59Z</time>
      </trkpt>
      <trkpt lat="45.49219" lon="6.70604">
        <ele>2311.6</ele>
        <time>2021-08-15T12:35:00Z</time>
      </trkpt>
      <trkpt lat="45.4922" lon="6.70603">
        <ele>2311.5</ele>
        <time>2021-08-15T12:35:01Z</time>
      </trkpt>
      <trkpt lat="45.49221" lon="6.70602">
        <ele>2311.4</ele>
        <time>2021-08-15T12:35:02Z</time>
      </trkpt>
      <trkpt lat="45.49222" lon="6.70601">
        <ele>2311.3</ele>
        <time>2021-08-15T12:35:03Z</time>
      </trkpt>
      <trkpt lat="45.49222" lon="6.706">
        <ele>2311.2</ele>
        <time>2021-08-15T12:35:04Z</time>
      </trkpt>
      <trkpt lat="45.49223" lon="6.706">
        <ele>2311.1</ele>
        <time>2021-08-15T12:35:05Z</time>
      </trkpt>
      <trkpt lat="45.49224" lon="6.70599">
        <ele>2311</ele>
        <time>2021-08-15T12:35:06Z</time>
      </trkpt>
      <trkpt lat="45.49225" lon="6.70598">
        <ele>2310.9</ele>
        <time>2021-08-15T12:35:07Z</time>
      </trkpt>
      <trkpt lat="45.49226" lon="6.70597">
        <ele>2310.8</ele>
        <time>2021-08-15T12:35:08Z</time>
      </trkpt>
      <trkpt lat="45.49227" lon="6.70597">
        <ele>2310.6</ele>
        <time>2021-08-15T12:35:09Z</time>
      </trkpt>
      <trkpt lat="45.49228" lon="6.70596">
        <ele>2310.5</ele>
        <time>2021-08-15T12:35:10Z</time>
      </trkpt>
      <trkpt lat="45.49229" lon="6.70595">
        <ele>2310.4</ele>
        <time>2021-08-15T12:35:11Z</time>
      </trkpt>
      <trkpt lat="45.4923" lon="6.70594">
        <ele>2310.3</ele>
        <time>2021-08-15T12:35:12Z</time>
      </trkpt>
      <trkpt lat="45.49231" lon="6.70594">
        <ele>2310.2</ele>
        <time>2021-08-15T12:35:13Z</time>
      </trkpt>
      <trkpt lat="45.49232" lon="6.70593">
        <ele>2310.1</ele>
        <time>2021-08-15T12:35:14Z</time>
      </trkpt>
      <trkpt lat="45.49233" lon="6.70592">
        <ele>2310</ele>
        <time>2021-08-15T12:35:15Z</time>
      </trkpt>
      <trkpt lat="45.49234" lon="6.70592">
        <ele>2309.9</ele>
        <time>2021-08-15T12:35:16Z</time>
      </trkpt>
      <trkpt lat="45.49235" lon="6.70591">
        <ele>2309.8</ele>
        <time>2021-08-15T12:35:17Z</time>
      </trkpt>
      <trkpt lat="45.49235" lon="6.7059">
        <ele>2309.7</ele>
        <time>2021-08-15T12:35:18Z</time>
      </trkpt>
      <trkpt lat="45.49236" lon="6.7059">
        <ele>2309.6</ele>
        <time>2021-08-15T12:35:19Z</time>
      </trkpt>
      <trkpt lat="45.49237" lon="6.70589">
        <ele>2309.5</ele>
        <time>2021-08-15T12:35:20Z</time>
      </trkpt>
      <trkpt lat="45.49238" lon="6.70588">
        <ele>2309.4</ele>
        <time>2021-08-15T12:35:21Z</time>
      </trkpt>
      <trkpt lat="45.49239" lon="6.70587">
        <ele>2309.3</ele>
        <time>2021-08-15T12:35:22Z</time>
      </trkpt>
      <trkpt lat="45.4924" lon="6.70586">
        <ele>2309.2</ele>
        <time>2021-08-15T12:35:23Z</time>
      </trkpt>
      <trkpt lat="45.4924" lon="6.70586">
        <ele>2309.1</ele>
        <time>2021-08-15T12:35:24Z</time>
      </trkpt>
      <trkpt lat="45.49241" lon="6.70585">
        <ele>2309</ele>
        <time>2021-08-15T12:35:25Z</time>
      </trkpt>
      <trkpt lat="45.49242" lon="6.70584">
        <ele>2308.9</ele>
        <time>2021-08-15T12:35:26Z</time>
      </trkpt>
      <trkpt lat="45.49243" lon="6.70584">
        <ele>2308.8</ele>
        <time>2021-08-15T12:35:27Z</time>
      </trkpt>
      <trkpt lat="45.49243" lon="6.70583">
        <ele>2308.7</ele>
        <time>2021-08-15T12:35:28Z</time>
      </trkpt>
      <trkpt lat="45.49244" lon="6.70583">
        <ele>2308.7</ele>
        <time>2021-08-15T12:35:29Z</time>
      </trkpt>
      <trkpt lat="45.49244" lon="6.70582">
        <ele>2308.6</ele>
        <time>2021-08-15T12:35:30Z</time>
      </trkpt>
      <trkpt lat="45.49245" lon="6.70582">
        <ele>2308.5</ele>
        <time>2021-08-15T12:35:31Z</time>
      </trkpt>
      <trkpt lat="45.49245" lon="6.70582">
        <ele>2308.5</ele>
        <time>2021-08-15T12:35:32Z</time>
      </trkpt>
      <trkpt lat="45.49246" lon="6.70582">
        <ele>2308.4</ele>
        <time>2021-08-15T12:35:33Z</time>
      </trkpt>
      <trkpt lat="45.49247" lon="6.70581">
        <ele>2308.3</ele>
        <time>2021-08-15T12:35:34Z</time>
      </trkpt>
      <trkpt lat="45.49247" lon="6.70581">
        <ele>2308.3</ele>
        <time>2021-08-15T12:35:35Z</time>
      </trkpt>
      <trkpt lat="45.49248" lon="6.7058">
        <ele>2308.2</ele>
        <time>2021-08-15T12:35:36Z</time>
      </trkpt>
      <trkpt lat="45.49249" lon="6.7058">
        <ele>2308.1</ele>
        <time>2021-08-15T12:35:37Z</time>
      </trkpt>
      <trkpt lat="45.49249" lon="6.7058">
        <ele>2308</ele>
        <time>2021-08-15T12:35:38Z</time>
      </trkpt>
      <trkpt lat="45.4925" lon="6.70579">
        <ele>2307.9</ele>
        <time>2021-08-15T12:35:39Z</time>
      </trkpt>
      <trkpt lat="45.49251" lon="6.70579">
        <ele>2307.8</ele>
        <time>2021-08-15T12:35:40Z</time>
      </trkpt>
      <trkpt lat="45.49252" lon="6.70579">
        <ele>2307.8</ele>
        <time>2021-08-15T12:35:41Z</time>
      </trkpt>
      <trkpt lat="45.49253" lon="6.70578">
        <ele>2307.7</ele>
        <time>2021-08-15T12:35:42Z</time>
      </trkpt>
      <trkpt lat="45.49254" lon="6.70578">
        <ele>2307.5</ele>
        <time>2021-08-15T12:35:43Z</time>
      </trkpt>
      <trkpt lat="45.49255" lon="6.70577">
        <ele>2307.4</ele>
        <time>2021-08-15T12:35:44Z</time>
      </trkpt>
      <trkpt lat="45.49256" lon="6.70577">
        <ele>2307.3</ele>
        <time>2021-08-15T12:35:45Z</time>
      </trkpt>
      <trkpt lat="45.49257" lon="6.70576">
        <ele>2307.2</ele>
        <time>2021-08-15T12:35:46Z</time>
      </trkpt>
      <trkpt lat="45.49258" lon="6.70576">
        <ele>2307.1</ele>
        <time>2021-08-15T12:35:47Z</time>
      </trkpt>
      <trkpt lat="45.49258" lon="6.70576">
        <ele>2307</ele>
        <time>2021-08-15T12:35:48Z</time>
      </trkpt>
      <trkpt lat="45.49259" lon="6.70575">
        <ele>2306.9</ele>
        <time>2021-08-15T12:35:49Z</time>
      </trkpt>
      <trkpt lat="45.4926" lon="6.70575">
        <ele>2306.8</ele>
        <time>2021-08-15T12:35:50Z</time>
      </trkpt>
      <trkpt lat="45.49261" lon="6.70574">
        <ele>2306.7</ele>
        <time>2021-08-15T12:35:51Z</time>
      </trkpt>
      <trkpt lat="45.49262" lon="6.70574">
        <ele>2306.6</ele>
        <time>2021-08-15T12:35:52Z</time>
      </trkpt>
      <trkpt lat="45.49263" lon="6.70574">
        <ele>2306.5</ele>
        <time>2021-08-15T12:35:53Z</time>
      </trkpt>
      <trkpt lat="45.49264" lon="6.70573">
        <ele>2306.3</ele>
        <time>2021-08-15T12:35:54Z</time>
      </trkpt>
      <trkpt lat="45.49265" lon="6.70573">
        <ele>2306.2</ele>
        <time>2021-08-15T12:35:55Z</time>
      </trkpt>
      <trkpt lat="45.49266" lon="6.70572">
        <ele>2306.1</ele>
        <time>2021-08-15T12:35:56Z</time>
      </trkpt>
      <trkpt lat="45.49267" lon="6.70572">
        <ele>2306</ele>
        <time>2021-08-15T12:35:57Z</time>
      </trkpt>
      <trkpt lat="45.49268" lon="6.70572">
        <ele>2305.9</ele>
        <time>2021-08-15T12:35:58Z</time>
      </trkpt>
      <trkpt lat="45.49269" lon="6.70571">
        <ele>2305.8</ele>
        <time>2021-08-15T12:35:59Z</time>
      </trkpt>
      <trkpt lat="45.4927" lon="6.70571">
        <ele>2305.7</ele>
        <time>2021-08-15T12:36:00Z</time>
      </trkpt>
      <trkpt lat="45.49271" lon="6.70571">
        <ele>2305.6</ele>
        <time>2021-08-15T12:36:01Z</time>
      </trkpt>
      <trkpt lat="45.49272" lon="6.7057">
        <ele>2305.5</ele>
        <time>2021-08-15T12:36:02Z</time>
      </trkpt>
      <trkpt lat="45.49273" lon="6.7057">
        <ele>2305.4</ele>
        <time>2021-08-15T12:36:03Z</time>
      </trkpt>
      <trkpt lat="45.49273" lon="6.7057">
        <ele>2305.3</ele>
        <time>2021-08-15T12:36:04Z</time>
      </trkpt>
      <trkpt lat="45.49274" lon="6.70569">
        <ele>2305.2</ele>
        <time>2021-08-15T12:36:05Z</time>
      </trkpt>
      <trkpt lat="45.49275" lon="6.70569">
        <ele>2305.1</ele>
        <time>2021-08-15T12:36:06Z</time>
      </trkpt>
      <trkpt lat="45.49276" lon="6.70568">
        <ele>2305</ele>
        <time>2021-08-15T12:36:07Z</time>
      </trkpt>
      <trkpt lat="45.49277" lon="6.70568">
        <ele>2304.9</ele>
        <time>2021-08-15T12:36:08Z</time>
      </trkpt>
      <trkpt lat="45.49277" lon="6.70567">
        <ele>2304.8</ele>
        <time>2021-08-15T12:36:09Z</time>
      </trkpt>
      <trkpt lat="45.49278" lon="6.70567">
        <ele>2304.8</ele>
        <time>2021-08-15T12:36:10Z</time>
      </trkpt>
      <trkpt lat="45.49279" lon="6.70566">
        <ele>2304.7</ele>
        <time>2021-08-15T12:36:11Z</time>
      </trkpt>
      <trkpt lat="45.49279" lon="6.70566">
        <ele>2304.6</ele>
        <time>2021-08-15T12:36:12Z</time>
      </trkpt>
      <trkpt lat="45.4928" lon="6.70565">
        <ele>2304.5</ele>
        <time>2021-08-15T12:36:13Z</time>
      </trkpt>
      <trkpt lat="45.49281" lon="6.70565">
        <ele>2304.4</ele>
        <time>2021-08-15T12:36:14Z</time>
      </trkpt>
      <trkpt lat="45.49281" lon="6.70564">
        <ele>2304.3</ele>
        <time>2021-08-15T12:36:15Z</time>
      </trkpt>
      <trkpt lat="45.49282" lon="6.70564">
        <ele>2304.2</ele>
        <time>2021-08-15T12:36:16Z</time>
      </trkpt>
      <trkpt lat="45.49283" lon="6.70563">
        <ele>2304.2</ele>
        <time>2021-08-15T12:36:17Z</time>
      </trkpt>
      <trkpt lat="45.49283" lon="6.70562">
        <ele>2304.1</ele>
        <time>2021-08-15T12:36:18Z</time>
      </trkpt>
      <trkpt lat="45.49284" lon="6.70561">
        <ele>2304</ele>
        <time>2021-08-15T12:36:19Z</time>
      </trkpt>
      <trkpt lat="45.49284" lon="6.70561">
        <ele>2303.9</ele>
        <time>2021-08-15T12:36:20Z</time>
      </trkpt>
      <trkpt lat="45.49285" lon="6.7056">
        <ele>2303.8</ele>
        <time>2021-08-15T12:36:21Z</time>
      </trkpt>
      <trkpt lat="45.49285" lon="6.70559">
        <ele>2303.7</ele>
        <time>2021-08-15T12:36:22Z</time>
      </trkpt>
      <trkpt lat="45.49286" lon="6.70558">
        <ele>2303.6</ele>
        <time>2021-08-15T12:36:23Z</time>
      </trkpt>
      <trkpt lat="45.49286" lon="6.70557">
        <ele>2303.6</ele>
        <time>2021-08-15T12:36:24Z</time>
      </trkpt>
      <trkpt lat="45.49287" lon="6.70556">
        <ele>2303.5</ele>
        <time>2021-08-15T12:36:25Z</time>
      </trkpt>
      <trkpt lat="45.49287" lon="6.70555">
        <ele>2303.4</ele>
        <time>2021-08-15T12:36:26Z</time>
      </trkpt>
      <trkpt lat="45.49288" lon="6.70554">
        <ele>2303.3</ele>
        <time>2021-08-15T12:36:27Z</time>
      </trkpt>
      <trkpt lat="45.49288" lon="6.70554">
        <ele>2303.2</ele>
        <time>2021-08-15T12:36:28Z</time>
      </trkpt>
      <trkpt lat="45.49289" lon="6.70553">
        <ele>2303.1</ele>
        <time>2021-08-15T12:36:29Z</time>
      </trkpt>
      <trkpt lat="45.49289" lon="6.70552">
        <ele>2303.1</ele>
        <time>2021-08-15T12:36:30Z</time>
      </trkpt>
      <trkpt lat="45.49289" lon="6.70551">
        <ele>2303</ele>
        <time>2021-08-15T12:36:31Z</time>
      </trkpt>
      <trkpt lat="45.4929" lon="6.7055">
        <ele>2302.9</ele>
        <time>2021-08-15T12:36:32Z</time>
      </trkpt>
      <trkpt lat="45.4929" lon="6.7055">
        <ele>2302.9</ele>
        <time>2021-08-15T12:36:33Z</time>
      </trkpt>
      <trkpt lat="45.4929" lon="6.70549">
        <ele>2302.8</ele>
        <time>2021-08-15T12:36:34Z</time>
      </trkpt>
      <trkpt lat="45.49291" lon="6.70548">
        <ele>2302.8</ele>
        <time>2021-08-15T12:36:35Z</time>
      </trkpt>
      <trkpt lat="45.49291" lon="6.70548">
        <ele>2302.7</ele>
        <time>2021-08-15T12:36:36Z</time>
      </trkpt>
      <trkpt lat="45.49291" lon="6.70547">
        <ele>2302.6</ele>
        <time>2021-08-15T12:36:37Z</time>
      </trkpt>
      <trkpt lat="45.49292" lon="6.70547">
        <ele>2302.6</ele>
        <time>2021-08-15T12:36:38Z</time>
      </trkpt>
      <trkpt lat="45.49292" lon="6.70546">
        <ele>2302.5</ele>
        <time>2021-08-15T12:36:39Z</time>
      </trkpt>
      <trkpt lat="45.49292" lon="6.70545">
        <ele>2302.5</ele>
        <time>2021-08-15T12:36:40Z</time>
      </trkpt>
      <trkpt lat="45.49293" lon="6.70544">
        <ele>2302.4</ele>
        <time>2021-08-15T12:36:41Z</time>
      </trkpt>
      <trkpt lat="45.49293" lon="6.70544">
        <ele>2302.3</ele>
        <time>2021-08-15T12:36:42Z</time>
      </trkpt>
      <trkpt lat="45.49294" lon="6.70543">
        <ele>2302.2</ele>
        <time>2021-08-15T12:36:43Z</time>
      </trkpt>
      <trkpt lat="45.49294" lon="6.70542">
        <ele>2302.1</ele>
        <time>2021-08-15T12:36:44Z</time>
      </trkpt>
      <trkpt lat="45.49295" lon="6.70541">
        <ele>2302</ele>
        <time>2021-08-15T12:36:45Z</time>
      </trkpt>
      <trkpt lat="45.49295" lon="6.70539">
        <ele>2301.9</ele>
        <time>2021-08-15T12:36:46Z</time>
      </trkpt>
      <trkpt lat="45.49296" lon="6.70538">
        <ele>2301.8</ele>
        <time>2021-08-15T12:36:47Z</time>
      </trkpt>
      <trkpt lat="45.49296" lon="6.70537">
        <ele>2301.7</ele>
        <time>2021-08-15T12:36:48Z</time>
      </trkpt>
      <trkpt lat="45.49297" lon="6.70536">
        <ele>2301.6</ele>
        <time>2021-08-15T12:36:49Z</time>
      </trkpt>
      <trkpt lat="45.49298" lon="6.70535">
        <ele>2301.5</ele>
        <time>2021-08-15T12:36:50Z</time>
      </trkpt>
      <trkpt lat="45.49298" lon="6.70534">
        <ele>2301.4</ele>
        <time>2021-08-15T12:36:51Z</time>
      </trkpt>
      <trkpt lat="45.49299" lon="6.70532">
        <ele>2301.3</ele>
        <time>2021-08-15T12:36:52Z</time>
      </trkpt>
      <trkpt lat="45.49299" lon="6.70531">
        <ele>2301.2</ele>
        <time>2021-08-15T12:36:53Z</time>
      </trkpt>
      <trkpt lat="45.493" lon="6.7053">
        <ele>2301.1</ele>
        <time>2021-08-15T12:36:54Z</time>
      </trkpt>
      <trkpt lat="45.49301" lon="6.70529">
        <ele>2300.9</ele>
        <time>2021-08-15T12:36:55Z</time>
      </trkpt>
      <trkpt lat="45.49301" lon="6.70528">
        <ele>2300.8</ele>
        <time>2021-08-15T12:36:56Z</time>
      </trkpt>
      <trkpt lat="45.49302" lon="6.70527">
        <ele>2300.7</ele>
        <time>2021-08-15T12:36:57Z</time>
      </trkpt>
      <trkpt lat="45.49302" lon="6.70526">
        <ele>2300.6</ele>
        <time>2021-08-15T12:36:58Z</time>
      </trkpt>
      <trkpt lat="45.49303" lon="6.70525">
        <ele>2300.5</ele>
        <time>2021-08-15T12:36:59Z</time>
      </trkpt>
      <trkpt lat="45.49303" lon="6.70524">
        <ele>2300.4</ele>
        <time>2021-08-15T12:37:00Z</time>
      </trkpt>
      <trkpt lat="45.49304" lon="6.70523">
        <ele>2300.3</ele>
        <time>2021-08-15T12:37:01Z</time>
      </trkpt>
      <trkpt lat="45.49305" lon="6.70522">
        <ele>2300.2</ele>
        <time>2021-08-15T12:37:02Z</time>
      </trkpt>
      <trkpt lat="45.49305" lon="6.70521">
        <ele>2300.1</ele>
        <time>2021-08-15T12:37:03Z</time>
      </trkpt>
      <trkpt lat="45.49306" lon="6.7052">
        <ele>2300.1</ele>
        <time>2021-08-15T12:37:04Z</time>
      </trkpt>
      <trkpt lat="45.49306" lon="6.70519">
        <ele>2300</ele>
        <time>2021-08-15T12:37:05Z</time>
      </trkpt>
      <trkpt lat="45.49307" lon="6.70518">
        <ele>2299.9</ele>
        <time>2021-08-15T12:37:06Z</time>
      </trkpt>
      <trkpt lat="45.49308" lon="6.70517">
        <ele>2299.8</ele>
        <time>2021-08-15T12:37:07Z</time>
      </trkpt>
      <trkpt lat="45.49308" lon="6.70516">
        <ele>2299.7</ele>
        <time>2021-08-15T12:37:08Z</time>
      </trkpt>
      <trkpt lat="45.49309" lon="6.70515">
        <ele>2299.6</ele>
        <time>2021-08-15T12:37:09Z</time>
      </trkpt>
      <trkpt lat="45.49309" lon="6.70514">
        <ele>2299.5</ele>
        <time>2021-08-15T12:37:10Z</time>
      </trkpt>
      <trkpt lat="45.4931" lon="6.70513">
        <ele>2299.4</ele>
        <time>2021-08-15T12:37:11Z</time>
      </trkpt>
      <trkpt lat="45.4931" lon="6.70512">
        <ele>2299.3</ele>
        <time>2021-08-15T12:37:12Z</time>
      </trkpt>
      <trkpt lat="45.49311" lon="6.70511">
        <ele>2299.3</ele>
        <time>2021-08-15T12:37:13Z</time>
      </trkpt>
      <trkpt lat="45.49312" lon="6.7051">
        <ele>2299.2</ele>
        <time>2021-08-15T12:37:14Z</time>
      </trkpt>
      <trkpt lat="45.49312" lon="6.70509">
        <ele>2299.1</ele>
        <time>2021-08-15T12:37:15Z</time>
      </trkpt>
      <trkpt lat="45.49313" lon="6.70509">
        <ele>2299</ele>
        <time>2021-08-15T12:37:16Z</time>
      </trkpt>
      <trkpt lat="45.49313" lon="6.70508">
        <ele>2298.9</ele>
        <time>2021-08-15T12:37:17Z</time>
      </trkpt>
      <trkpt lat="45.49314" lon="6.70507">
        <ele>2298.9</ele>
        <time>2021-08-15T12:37:18Z</time>
      </trkpt>
      <trkpt lat="45.49315" lon="6.70506">
        <ele>2298.8</ele>
        <time>2021-08-15T12:37:19Z</time>
      </trkpt>
      <trkpt lat="45.49315" lon="6.70505">
        <ele>2298.7</ele>
        <time>2021-08-15T12:37:20Z</time>
      </trkpt>
      <trkpt lat="45.49316" lon="6.70504">
        <ele>2298.6</ele>
        <time>2021-08-15T12:37:21Z</time>
      </trkpt>
      <trkpt lat="45.49316" lon="6.70503">
        <ele>2298.5</ele>
        <time>2021-08-15T12:37:22Z</time>
      </trkpt>
      <trkpt lat="45.49317" lon="6.70502">
        <ele>2298.5</ele>
        <time>2021-08-15T12:37:23Z</time>
      </trkpt>
      <trkpt lat="45.49318" lon="6.70502">
        <ele>2298.4</ele>
        <time>2021-08-15T12:37:24Z</time>
      </trkpt>
      <trkpt lat="45.49318" lon="6.70501">
        <ele>2298.3</ele>
        <time>2021-08-15T12:37:25Z</time>
      </trkpt>
      <trkpt lat="45.49319" lon="6.705">
        <ele>2298.2</ele>
        <time>2021-08-15T12:37:26Z</time>
      </trkpt>
      <trkpt lat="45.49319" lon="6.70499">
        <ele>2298.1</ele>
        <time>2021-08-15T12:37:27Z</time>
      </trkpt>
      <trkpt lat="45.4932" lon="6.70498">
        <ele>2298</ele>
        <time>2021-08-15T12:37:28Z</time>
      </trkpt>
      <trkpt lat="45.49321" lon="6.70498">
        <ele>2298</ele>
        <time>2021-08-15T12:37:29Z</time>
      </trkpt>
      <trkpt lat="45.49321" lon="6.70497">
        <ele>2297.9</ele>
        <time>2021-08-15T12:37:30Z</time>
      </trkpt>
      <trkpt lat="45.49322" lon="6.70496">
        <ele>2297.8</ele>
        <time>2021-08-15T12:37:31Z</time>
      </trkpt>
      <trkpt lat="45.49323" lon="6.70495">
        <ele>2297.7</ele>
        <time>2021-08-15T12:37:32Z</time>
      </trkpt>
      <trkpt lat="45.49323" lon="6.70495">
        <ele>2297.6</ele>
        <time>2021-08-15T12:37:33Z</time>
      </trkpt>
      <trkpt lat="45.49324" lon="6.70494">
        <ele>2297.6</ele>
        <time>2021-08-15T12:37:34Z</time>
      </trkpt>
      <trkpt lat="45.49325" lon="6.70493">
        <ele>2297.5</ele>
        <time>2021-08-15T12:37:35Z</time>
      </trkpt>
      <trkpt lat="45.49325" lon="6.70492">
        <ele>2297.4</ele>
        <time>2021-08-15T12:37:36Z</time>
      </trkpt>
      <trkpt lat="45.49326" lon="6.70491">
        <ele>2297.3</ele>
        <time>2021-08-15T12:37:37Z</time>
      </trkpt>
      <trkpt lat="45.49326" lon="6.7049">
        <ele>2297.2</ele>
        <time>2021-08-15T12:37:38Z</time>
      </trkpt>
      <trkpt lat="45.49327" lon="6.70489">
        <ele>2297.2</ele>
        <time>2021-08-15T12:37:39Z</time>
      </trkpt>
      <trkpt lat="45.49327" lon="6.70488">
        <ele>2297.1</ele>
        <time>2021-08-15T12:37:40Z</time>
      </trkpt>
      <trkpt lat="45.49328" lon="6.70487">
        <ele>2297</ele>
        <time>2021-08-15T12:37:41Z</time>
      </trkpt>
      <trkpt lat="45.49328" lon="6.70486">
        <ele>2296.9</ele>
        <time>2021-08-15T12:37:42Z</time>
      </trkpt>
      <trkpt lat="45.49328" lon="6.70484">
        <ele>2296.8</ele>
        <time>2021-08-15T12:37:43Z</time>
      </trkpt>
      <trkpt lat="45.49329" lon="6.70483">
        <ele>2296.7</ele>
        <time>2021-08-15T12:37:44Z</time>
      </trkpt>
      <trkpt lat="45.49329" lon="6.70482">
        <ele>2296.6</ele>
        <time>2021-08-15T12:37:45Z</time>
      </trkpt>
      <trkpt lat="45.49329" lon="6.7048">
        <ele>2296.5</ele>
        <time>2021-08-15T12:37:46Z</time>
      </trkpt>
      <trkpt lat="45.49329" lon="6.70479">
        <ele>2296.4</ele>
        <time>2021-08-15T12:37:47Z</time>
      </trkpt>
      <trkpt lat="45.49329" lon="6.70478">
        <ele>2296.3</ele>
        <time>2021-08-15T12:37:48Z</time>
      </trkpt>
      <trkpt lat="45.4933" lon="6.70476">
        <ele>2296.2</ele>
        <time>2021-08-15T12:37:49Z</time>
      </trkpt>
      <trkpt lat="45.4933" lon="6.70475">
        <ele>2296.1</ele>
        <time>2021-08-15T12:37:50Z</time>
      </trkpt>
      <trkpt lat="45.4933" lon="6.70474">
        <ele>2296</ele>
        <time>2021-08-15T12:37:51Z</time>
      </trkpt>
      <trkpt lat="45.4933" lon="6.70473">
        <ele>2296</ele>
        <time>2021-08-15T12:37:52Z</time>
      </trkpt>
      <trkpt lat="45.4933" lon="6.70472">
        <ele>2295.9</ele>
        <time>2021-08-15T12:37:53Z</time>
      </trkpt>
      <trkpt lat="45.4933" lon="6.70471">
        <ele>2295.8</ele>
        <time>2021-08-15T12:37:54Z</time>
      </trkpt>
      <trkpt lat="45.49331" lon="6.7047">
        <ele>2295.7</ele>
        <time>2021-08-15T12:37:55Z</time>
      </trkpt>
      <trkpt lat="45.49331" lon="6.70469">
        <ele>2295.7</ele>
        <time>2021-08-15T12:37:56Z</time>
      </trkpt>
      <trkpt lat="45.49331" lon="6.70468">
        <ele>2295.6</ele>
        <time>2021-08-15T12:37:57Z</time>
      </trkpt>
      <trkpt lat="45.49331" lon="6.70467">
        <ele>2295.5</ele>
        <time>2021-08-15T12:37:58Z</time>
      </trkpt>
      <trkpt lat="45.49332" lon="6.70467">
        <ele>2295.5</ele>
        <time>2021-08-15T12:37:59Z</time>
      </trkpt>
      <trkpt lat="45.49332" lon="6.70466">
        <ele>2295.4</ele>
        <time>2021-08-15T12:38:00Z</time>
      </trkpt>
      <trkpt lat="45.49332" lon="6.70465">
        <ele>2295.4</ele>
        <time>2021-08-15T12:38:01Z</time>
      </trkpt>
      <trkpt lat="45.49333" lon="6.70465">
        <ele>2295.3</ele>
        <time>2021-08-15T12:38:02Z</time>
      </trkpt>
      <trkpt lat="45.49333" lon="6.70464">
        <ele>2295.3</ele>
        <time>2021-08-15T12:38:03Z</time>
      </trkpt>
      <trkpt lat="45.49333" lon="6.70464">
        <ele>2295.2</ele>
        <time>2021-08-15T12:38:04Z</time>
      </trkpt>
      <trkpt lat="45.49334" lon="6.70462">
        <ele>2295</ele>
        <time>2021-08-15T12:38:05Z</time>
      </trkpt>
      <trkpt lat="45.49335" lon="6.70461">
        <ele>2295</ele>
        <time>2021-08-15T12:38:06Z</time>
      </trkpt>
      <trkpt lat="45.49335" lon="6.7046">
        <ele>2294.9</ele>
        <time>2021-08-15T12:38:07Z</time>
      </trkpt>
      <trkpt lat="45.49336" lon="6.70459">
        <ele>2294.8</ele>
        <time>2021-08-15T12:38:08Z</time>
      </trkpt>
      <trkpt lat="45.49336" lon="6.70459">
        <ele>2294.7</ele>
        <time>2021-08-15T12:38:09Z</time>
      </trkpt>
      <trkpt lat="45.49337" lon="6.70458">
        <ele>2294.6</ele>
        <time>2021-08-15T12:38:10Z</time>
      </trkpt>
      <trkpt lat="45.49337" lon="6.70457">
        <ele>2294.5</ele>
        <time>2021-08-15T12:38:11Z</time>
      </trkpt>
      <trkpt lat="45.49338" lon="6.70456">
        <ele>2294.5</ele>
        <time>2021-08-15T12:38:12Z</time>
      </trkpt>
      <trkpt lat="45.49338" lon="6.70455">
        <ele>2294.4</ele>
        <time>2021-08-15T12:38:13Z</time>
      </trkpt>
      <trkpt lat="45.49339" lon="6.70454">
        <ele>2294.3</ele>
        <time>2021-08-15T12:38:14Z</time>
      </trkpt>
      <trkpt lat="45.49339" lon="6.70453">
        <ele>2294.2</ele>
        <time>2021-08-15T12:38:15Z</time>
      </trkpt>
      <trkpt lat="45.4934" lon="6.70453">
        <ele>2294.1</ele>
        <time>2021-08-15T12:38:16Z</time>
      </trkpt>
      <trkpt lat="45.4934" lon="6.70452">
        <ele>2294</ele>
        <time>2021-08-15T12:38:17Z</time>
      </trkpt>
      <trkpt lat="45.49341" lon="6.70451">
        <ele>2294</ele>
        <time>2021-08-15T12:38:18Z</time>
      </trkpt>
      <trkpt lat="45.49341" lon="6.7045">
        <ele>2293.9</ele>
        <time>2021-08-15T12:38:19Z</time>
      </trkpt>
      <trkpt lat="45.49342" lon="6.70449">
        <ele>2293.8</ele>
        <time>2021-08-15T12:38:20Z</time>
      </trkpt>
      <trkpt lat="45.49342" lon="6.70448">
        <ele>2293.7</ele>
        <time>2021-08-15T12:38:21Z</time>
      </trkpt>
      <trkpt lat="45.49343" lon="6.70447">
        <ele>2293.6</ele>
        <time>2021-08-15T12:38:22Z</time>
      </trkpt>
      <trkpt lat="45.49343" lon="6.70446">
        <ele>2293.5</ele>
        <time>2021-08-15T12:38:23Z</time>
      </trkpt>
      <trkpt lat="45.49344" lon="6.70446">
        <ele>2293.4</ele>
        <time>2021-08-15T12:38:24Z</time>
      </trkpt>
      <trkpt lat="45.49344" lon="6.70445">
        <ele>2293.3</ele>
        <time>2021-08-15T12:38:25Z</time>
      </trkpt>
      <trkpt lat="45.49345" lon="6.70444">
        <ele>2293.2</ele>
        <time>2021-08-15T12:38:26Z</time>
      </trkpt>
      <trkpt lat="45.49346" lon="6.70443">
        <ele>2293.1</ele>
        <time>2021-08-15T12:38:27Z</time>
      </trkpt>
      <trkpt lat="45.49346" lon="6.70442">
        <ele>2293</ele>
        <time>2021-08-15T12:38:28Z</time>
      </trkpt>
      <trkpt lat="45.49347" lon="6.70441">
        <ele>2292.9</ele>
        <time>2021-08-15T12:38:29Z</time>
      </trkpt>
      <trkpt lat="45.49347" lon="6.7044">
        <ele>2292.8</ele>
        <time>2021-08-15T12:38:30Z</time>
      </trkpt>
      <trkpt lat="45.49348" lon="6.70439">
        <ele>2292.7</ele>
        <time>2021-08-15T12:38:31Z</time>
      </trkpt>
      <trkpt lat="45.49348" lon="6.70438">
        <ele>2292.6</ele>
        <time>2021-08-15T12:38:32Z</time>
      </trkpt>
      <trkpt lat="45.49349" lon="6.70437">
        <ele>2292.5</ele>
        <time>2021-08-15T12:38:33Z</time>
      </trkpt>
      <trkpt lat="45.49349" lon="6.70436">
        <ele>2292.4</ele>
        <time>2021-08-15T12:38:34Z</time>
      </trkpt>
      <trkpt lat="45.4935" lon="6.70435">
        <ele>2292.3</ele>
        <time>2021-08-15T12:38:35Z</time>
      </trkpt>
      <trkpt lat="45.4935" lon="6.70434">
        <ele>2292.2</ele>
        <time>2021-08-15T12:38:36Z</time>
      </trkpt>
      <trkpt lat="45.4935" lon="6.70434">
        <ele>2292.2</ele>
        <time>2021-08-15T12:38:37Z</time>
      </trkpt>
      <trkpt lat="45.49351" lon="6.70433">
        <ele>2292.1</ele>
        <time>2021-08-15T12:38:38Z</time>
      </trkpt>
      <trkpt lat="45.49351" lon="6.70432">
        <ele>2292</ele>
        <time>2021-08-15T12:38:39Z</time>
      </trkpt>
      <trkpt lat="45.49351" lon="6.70432">
        <ele>2292</ele>
        <time>2021-08-15T12:38:40Z</time>
      </trkpt>
      <trkpt lat="45.49352" lon="6.70431">
        <ele>2291.9</ele>
        <time>2021-08-15T12:38:41Z</time>
      </trkpt>
      <trkpt lat="45.49352" lon="6.70431">
        <ele>2291.9</ele>
        <time>2021-08-15T12:38:42Z</time>
      </trkpt>
      <trkpt lat="45.49352" lon="6.7043">
        <ele>2291.8</ele>
        <time>2021-08-15T12:38:43Z</time>
      </trkpt>
      <trkpt lat="45.49353" lon="6.7043">
        <ele>2291.8</ele>
        <time>2021-08-15T12:38:44Z</time>
      </trkpt>
      <trkpt lat="45.49353" lon="6.7043">
        <ele>2291.7</ele>
        <time>2021-08-15T12:38:45Z</time>
      </trkpt>
      <trkpt lat="45.49353" lon="6.7043">
        <ele>2291.7</ele>
        <time>2021-08-15T12:38:46Z</time>
      </trkpt>
      <trkpt lat="45.49353" lon="6.70429">
        <ele>2291.7</ele>
        <time>2021-08-15T12:38:47Z</time>
      </trkpt>
      <trkpt lat="45.49353" lon="6.70429">
        <ele>2291.7</ele>
        <time>2021-08-15T12:38:48Z</time>
      </trkpt>
      <trkpt lat="45.49353" lon="6.70429">
        <ele>2291.7</ele>
        <time>2021-08-15T12:38:49Z</time>
      </trkpt>
      <trkpt lat="45.49353" lon="6.70429">
        <ele>2291.6</ele>
        <time>2021-08-15T12:38:50Z</time>
      </trkpt>
      <trkpt lat="45.49353" lon="6.70429">
        <ele>2291.6</ele>
        <time>2021-08-15T12:38:51Z</time>
      </trkpt>
      <trkpt lat="45.49354" lon="6.7043">
        <ele>2291.6</ele>
        <time>2021-08-15T12:38:52Z</time>
      </trkpt>
      <trkpt lat="45.49354" lon="6.7043">
        <ele>2291.6</ele>
        <time>2021-08-15T12:38:53Z</time>
      </trkpt>
      <trkpt lat="45.49354" lon="6.7043">
        <ele>2291.6</ele>
        <time>2021-08-15T12:38:54Z</time>
      </trkpt>
      <trkpt lat="45.49354" lon="6.7043">
        <ele>2291.6</ele>
        <time>2021-08-15T12:38:55Z</time>
      </trkpt>
      <trkpt lat="45.49354" lon="6.7043">
        <ele>2291.6</ele>
        <time>2021-08-15T12:38:56Z</time>
      </trkpt>
      <trkpt lat="45.49354" lon="6.7043">
        <ele>2291.5</ele>
        <time>2021-08-15T12:38:57Z</time>
      </trkpt>
      <trkpt lat="45.49354" lon="6.7043">
        <ele>2291.5</ele>
        <time>2021-08-15T12:38:58Z</time>
      </trkpt>
      <trkpt lat="45.49354" lon="6.70429">
        <ele>2291.5</ele>
        <time>2021-08-15T12:38:59Z</time>
      </trkpt>
      <trkpt lat="45.49354" lon="6.70429">
        <ele>2291.4</ele>
        <time>2021-08-15T12:39:00Z</time>
      </trkpt>
      <trkpt lat="45.49355" lon="6.70428">
        <ele>2291.4</ele>
        <time>2021-08-15T12:39:01Z</time>
      </trkpt>
      <trkpt lat="45.49355" lon="6.70428">
        <ele>2291.3</ele>
        <time>2021-08-15T12:39:02Z</time>
      </trkpt>
      <trkpt lat="45.49355" lon="6.70427">
        <ele>2291.2</ele>
        <time>2021-08-15T12:39:03Z</time>
      </trkpt>
      <trkpt lat="45.49356" lon="6.70426">
        <ele>2291.1</ele>
        <time>2021-08-15T12:39:04Z</time>
      </trkpt>
      <trkpt lat="45.49356" lon="6.70425">
        <ele>2291</ele>
        <time>2021-08-15T12:39:05Z</time>
      </trkpt>
      <trkpt lat="45.49357" lon="6.70424">
        <ele>2290.9</ele>
        <time>2021-08-15T12:39:06Z</time>
      </trkpt>
      <trkpt lat="45.49357" lon="6.70423">
        <ele>2290.8</ele>
        <time>2021-08-15T12:39:07Z</time>
      </trkpt>
      <trkpt lat="45.49358" lon="6.70422">
        <ele>2290.7</ele>
        <time>2021-08-15T12:39:08Z</time>
      </trkpt>
      <trkpt lat="45.49358" lon="6.70421">
        <ele>2290.6</ele>
        <time>2021-08-15T12:39:09Z</time>
      </trkpt>
      <trkpt lat="45.49359" lon="6.7042">
        <ele>2290.5</ele>
        <time>2021-08-15T12:39:10Z</time>
      </trkpt>
      <trkpt lat="45.49359" lon="6.70419">
        <ele>2290.4</ele>
        <time>2021-08-15T12:39:11Z</time>
      </trkpt>
      <trkpt lat="45.4936" lon="6.70418">
        <ele>2290.2</ele>
        <time>2021-08-15T12:39:12Z</time>
      </trkpt>
      <trkpt lat="45.49361" lon="6.70417">
        <ele>2290.1</ele>
        <time>2021-08-15T12:39:13Z</time>
      </trkpt>
      <trkpt lat="45.49361" lon="6.70416">
        <ele>2290</ele>
        <time>2021-08-15T12:39:14Z</time>
      </trkpt>
      <trkpt lat="45.49362" lon="6.70415">
        <ele>2289.9</ele>
        <time>2021-08-15T12:39:15Z</time>
      </trkpt>
      <trkpt lat="45.49362" lon="6.70414">
        <ele>2289.8</ele>
        <time>2021-08-15T12:39:16Z</time>
      </trkpt>
      <trkpt lat="45.49363" lon="6.70413">
        <ele>2289.7</ele>
        <time>2021-08-15T12:39:17Z</time>
      </trkpt>
      <trkpt lat="45.49364" lon="6.70412">
        <ele>2289.5</ele>
        <time>2021-08-15T12:39:18Z</time>
      </trkpt>
      <trkpt lat="45.49364" lon="6.70411">
        <ele>2289.4</ele>
        <time>2021-08-15T12:39:19Z</time>
      </trkpt>
      <trkpt lat="45.49365" lon="6.7041">
        <ele>2289.3</ele>
        <time>2021-08-15T12:39:20Z</time>
      </trkpt>
      <trkpt lat="45.49365" lon="6.70409">
        <ele>2289.2</ele>
        <time>2021-08-15T12:39:21Z</time>
      </trkpt>
      <trkpt lat="45.49366" lon="6.70408">
        <ele>2289.1</ele>
        <time>2021-08-15T12:39:22Z</time>
      </trkpt>
      <trkpt lat="45.49367" lon="6.70407">
        <ele>2289</ele>
        <time>2021-08-15T12:39:23Z</time>
      </trkpt>
      <trkpt lat="45.49367" lon="6.70407">
        <ele>2288.9</ele>
        <time>2021-08-15T12:39:24Z</time>
      </trkpt>
      <trkpt lat="45.49368" lon="6.70406">
        <ele>2288.8</ele>
        <time>2021-08-15T12:39:25Z</time>
      </trkpt>
      <trkpt lat="45.49369" lon="6.70405">
        <ele>2288.7</ele>
        <time>2021-08-15T12:39:26Z</time>
      </trkpt>
      <trkpt lat="45.49369" lon="6.70404">
        <ele>2288.6</ele>
        <time>2021-08-15T12:39:27Z</time>
      </trkpt>
      <trkpt lat="45.4937" lon="6.70403">
        <ele>2288.5</ele>
        <time>2021-08-15T12:39:28Z</time>
      </trkpt>
      <trkpt lat="45.4937" lon="6.70402">
        <ele>2288.4</ele>
        <time>2021-08-15T12:39:29Z</time>
      </trkpt>
      <trkpt lat="45.49371" lon="6.70401">
        <ele>2288.3</ele>
        <time>2021-08-15T12:39:30Z</time>
      </trkpt>
      <trkpt lat="45.49371" lon="6.704">
        <ele>2288.2</ele>
        <time>2021-08-15T12:39:31Z</time>
      </trkpt>
      <trkpt lat="45.49372" lon="6.704">
        <ele>2288.2</ele>
        <time>2021-08-15T12:39:32Z</time>
      </trkpt>
      <trkpt lat="45.49372" lon="6.70399">
        <ele>2288.1</ele>
        <time>2021-08-15T12:39:33Z</time>
      </trkpt>
      <trkpt lat="45.49373" lon="6.70398">
        <ele>2288</ele>
        <time>2021-08-15T12:39:34Z</time>
      </trkpt>
      <trkpt lat="45.49374" lon="6.70397">
        <ele>2287.9</ele>
        <time>2021-08-15T12:39:35Z</time>
      </trkpt>
      <trkpt lat="45.49374" lon="6.70396">
        <ele>2287.8</ele>
        <time>2021-08-15T12:39:36Z</time>
      </trkpt>
      <trkpt lat="45.49375" lon="6.70395">
        <ele>2287.8</ele>
        <time>2021-08-15T12:39:37Z</time>
      </trkpt>
      <trkpt lat="45.49375" lon="6.70395">
        <ele>2287.7</ele>
        <time>2021-08-15T12:39:38Z</time>
      </trkpt>
      <trkpt lat="45.49376" lon="6.70394">
        <ele>2287.6</ele>
        <time>2021-08-15T12:39:39Z</time>
      </trkpt>
      <trkpt lat="45.49376" lon="6.70393">
        <ele>2287.5</ele>
        <time>2021-08-15T12:39:40Z</time>
      </trkpt>
      <trkpt lat="45.49377" lon="6.70392">
        <ele>2287.4</ele>
        <time>2021-08-15T12:39:41Z</time>
      </trkpt>
      <trkpt lat="45.49377" lon="6.70391">
        <ele>2287.3</ele>
        <time>2021-08-15T12:39:42Z</time>
      </trkpt>
      <trkpt lat="45.49378" lon="6.7039">
        <ele>2287.3</ele>
        <time>2021-08-15T12:39:43Z</time>
      </trkpt>
      <trkpt lat="45.49378" lon="6.7039">
        <ele>2287.2</ele>
        <time>2021-08-15T12:39:44Z</time>
      </trkpt>
      <trkpt lat="45.49379" lon="6.70389">
        <ele>2287.1</ele>
        <time>2021-08-15T12:39:45Z</time>
      </trkpt>
      <trkpt lat="45.49379" lon="6.70388">
        <ele>2287</ele>
        <time>2021-08-15T12:39:46Z</time>
      </trkpt>
      <trkpt lat="45.4938" lon="6.70387">
        <ele>2286.9</ele>
        <time>2021-08-15T12:39:47Z</time>
      </trkpt>
      <trkpt lat="45.49381" lon="6.70386">
        <ele>2286.8</ele>
        <time>2021-08-15T12:39:48Z</time>
      </trkpt>
      <trkpt lat="45.49381" lon="6.70386">
        <ele>2286.8</ele>
        <time>2021-08-15T12:39:49Z</time>
      </trkpt>
      <trkpt lat="45.49382" lon="6.70385">
        <ele>2286.7</ele>
        <time>2021-08-15T12:39:50Z</time>
      </trkpt>
      <trkpt lat="45.49382" lon="6.70384">
        <ele>2286.6</ele>
        <time>2021-08-15T12:39:51Z</time>
      </trkpt>
      <trkpt lat="45.49383" lon="6.70383">
        <ele>2286.5</ele>
        <time>2021-08-15T12:39:52Z</time>
      </trkpt>
      <trkpt lat="45.49384" lon="6.70383">
        <ele>2286.4</ele>
        <time>2021-08-15T12:39:53Z</time>
      </trkpt>
      <trkpt lat="45.49384" lon="6.70382">
        <ele>2286.3</ele>
        <time>2021-08-15T12:39:54Z</time>
      </trkpt>
      <trkpt lat="45.49385" lon="6.70381">
        <ele>2286.3</ele>
        <time>2021-08-15T12:39:55Z</time>
      </trkpt>
      <trkpt lat="45.49385" lon="6.70381">
        <ele>2286.2</ele>
        <time>2021-08-15T12:39:56Z</time>
      </trkpt>
      <trkpt lat="45.49386" lon="6.7038">
        <ele>2286.1</ele>
        <time>2021-08-15T12:39:57Z</time>
      </trkpt>
      <trkpt lat="45.49386" lon="6.7038">
        <ele>2286</ele>
        <time>2021-08-15T12:39:58Z</time>
      </trkpt>
      <trkpt lat="45.49387" lon="6.70379">
        <ele>2286</ele>
        <time>2021-08-15T12:39:59Z</time>
      </trkpt>
      <trkpt lat="45.49387" lon="6.70379">
        <ele>2286</ele>
        <time>2021-08-15T12:40:00Z</time>
      </trkpt>
      <trkpt lat="45.49387" lon="6.70379">
        <ele>2285.9</ele>
        <time>2021-08-15T12:40:01Z</time>
      </trkpt>
      <trkpt lat="45.49388" lon="6.70378">
        <ele>2285.9</ele>
        <time>2021-08-15T12:40:02Z</time>
      </trkpt>
      <trkpt lat="45.49388" lon="6.70378">
        <ele>2285.8</ele>
        <time>2021-08-15T12:40:03Z</time>
      </trkpt>
      <trkpt lat="45.49388" lon="6.70377">
        <ele>2285.8</ele>
        <time>2021-08-15T12:40:04Z</time>
      </trkpt>
      <trkpt lat="45.49388" lon="6.70377">
        <ele>2285.7</ele>
        <time>2021-08-15T12:40:05Z</time>
      </trkpt>
      <trkpt lat="45.49389" lon="6.70376">
        <ele>2285.7</ele>
        <time>2021-08-15T12:40:06Z</time>
      </trkpt>
      <trkpt lat="45.49389" lon="6.70375">
        <ele>2285.6</ele>
        <time>2021-08-15T12:40:07Z</time>
      </trkpt>
      <trkpt lat="45.49389" lon="6.70374">
        <ele>2285.5</ele>
        <time>2021-08-15T12:40:08Z</time>
      </trkpt>
      <trkpt lat="45.4939" lon="6.70374">
        <ele>2285.5</ele>
        <time>2021-08-15T12:40:09Z</time>
      </trkpt>
      <trkpt lat="45.4939" lon="6.70373">
        <ele>2285.4</ele>
        <time>2021-08-15T12:40:10Z</time>
      </trkpt>
      <trkpt lat="45.4939" lon="6.70373">
        <ele>2285.4</ele>
        <time>2021-08-15T12:40:11Z</time>
      </trkpt>
      <trkpt lat="45.4939" lon="6.70372">
        <ele>2285.3</ele>
        <time>2021-08-15T12:40:12Z</time>
      </trkpt>
      <trkpt lat="45.49391" lon="6.70372">
        <ele>2285.3</ele>
        <time>2021-08-15T12:40:13Z</time>
      </trkpt>
      <trkpt lat="45.49391" lon="6.70371">
        <ele>2285.2</ele>
        <time>2021-08-15T12:40:14Z</time>
      </trkpt>
      <trkpt lat="45.49391" lon="6.70371">
        <ele>2285.2</ele>
        <time>2021-08-15T12:40:15Z</time>
      </trkpt>
      <trkpt lat="45.49391" lon="6.70371">
        <ele>2285.2</ele>
        <time>2021-08-15T12:40:16Z</time>
      </trkpt>
      <trkpt lat="45.49391" lon="6.70371">
        <ele>2285.2</ele>
        <time>2021-08-15T12:40:17Z</time>
      </trkpt>
      <trkpt lat="45.49391" lon="6.70371">
        <ele>2285.2</ele>
        <time>2021-08-15T12:40:18Z</time>
      </trkpt>
      <trkpt lat="45.49391" lon="6.70371">
        <ele>2285.2</ele>
        <time>2021-08-15T12:40:19Z</time>
      </trkpt>
      <trkpt lat="45.49391" lon="6.70371">
        <ele>2285.2</ele>
        <time>2021-08-15T12:40:20Z</time>
      </trkpt>
      <trkpt lat="45.49391" lon="6.70371">
        <ele>2285.1</ele>
        <time>2021-08-15T12:40:21Z</time>
      </trkpt>
      <trkpt lat="45.49391" lon="6.70371">
        <ele>2285.1</ele>
        <time>2021-08-15T12:40:22Z</time>
      </trkpt>
      <trkpt lat="45.49391" lon="6.70371">
        <ele>2285.1</ele>
        <time>2021-08-15T12:40:23Z</time>
      </trkpt>
      <trkpt lat="45.49391" lon="6.70371">
        <ele>2285.1</ele>
        <time>2021-08-15T12:40:24Z</time>
      </trkpt>
      <trkpt lat="45.49391" lon="6.70371">
        <ele>2285.1</ele>
        <time>2021-08-15T12:40:25Z</time>
      </trkpt>
      <trkpt lat="45.49391" lon="6.70371">
        <ele>2285.1</ele>
        <time>2021-08-15T12:40:26Z</time>
      </trkpt>
      <trkpt lat="45.49391" lon="6.70371">
        <ele>2285.1</ele>
        <time>2021-08-15T12:40:27Z</time>
      </trkpt>
      <trkpt lat="45.49391" lon="6.70371">
        <ele>2285.1</ele>
        <time>2021-08-15T12:40:28Z</time>
      </trkpt>
      <trkpt lat="45.4939" lon="6.70371">
        <ele>2285</ele>
        <time>2021-08-15T12:40:29Z</time>
      </trkpt>
      <trkpt lat="45.4939" lon="6.70371">
        <ele>2285</ele>
        <time>2021-08-15T12:40:30Z</time>
      </trkpt>
      <trkpt lat="45.4939" lon="6.7037">
        <ele>2285</ele>
        <time>2021-08-15T12:40:31Z</time>
      </trkpt>
      <trkpt lat="45.4939" lon="6.7037">
        <ele>2285</ele>
        <time>2021-08-15T12:40:32Z</time>
      </trkpt>
      <trkpt lat="45.4939" lon="6.70369">
        <ele>2284.9</ele>
        <time>2021-08-15T12:40:33Z</time>
      </trkpt>
      <trkpt lat="45.4939" lon="6.70369">
        <ele>2284.9</ele>
        <time>2021-08-15T12:40:34Z</time>
      </trkpt>
      <trkpt lat="45.49391" lon="6.70368">
        <ele>2284.8</ele>
        <time>2021-08-15T12:40:35Z</time>
      </trkpt>
      <trkpt lat="45.49391" lon="6.70368">
        <ele>2284.8</ele>
        <time>2021-08-15T12:40:36Z</time>
      </trkpt>
      <trkpt lat="45.49391" lon="6.70367">
        <ele>2284.7</ele>
        <time>2021-08-15T12:40:37Z</time>
      </trkpt>
      <trkpt lat="45.49391" lon="6.70366">
        <ele>2284.7</ele>
        <time>2021-08-15T12:40:38Z</time>
      </trkpt>
      <trkpt lat="45.49391" lon="6.70366">
        <ele>2284.6</ele>
        <time>2021-08-15T12:40:39Z</time>
      </trkpt>
      <trkpt lat="45.49391" lon="6.70365">
        <ele>2284.6</ele>
        <time>2021-08-15T12:40:40Z</time>
      </trkpt>
      <trkpt lat="45.49391" lon="6.70364">
        <ele>2284.5</ele>
        <time>2021-08-15T12:40:41Z</time>
      </trkpt>
      <trkpt lat="45.49391" lon="6.70363">
        <ele>2284.4</ele>
        <time>2021-08-15T12:40:42Z</time>
      </trkpt>
      <trkpt lat="45.49392" lon="6.70362">
        <ele>2284.4</ele>
        <time>2021-08-15T12:40:43Z</time>
      </trkpt>
      <trkpt lat="45.49392" lon="6.70361">
        <ele>2284.3</ele>
        <time>2021-08-15T12:40:44Z</time>
      </trkpt>
      <trkpt lat="45.49392" lon="6.70361">
        <ele>2284.2</ele>
        <time>2021-08-15T12:40:45Z</time>
      </trkpt>
      <trkpt lat="45.49392" lon="6.7036">
        <ele>2284.1</ele>
        <time>2021-08-15T12:40:46Z</time>
      </trkpt>
      <trkpt lat="45.49393" lon="6.70359">
        <ele>2284.1</ele>
        <time>2021-08-15T12:40:47Z</time>
      </trkpt>
      <trkpt lat="45.49393" lon="6.70358">
        <ele>2284</ele>
        <time>2021-08-15T12:40:48Z</time>
      </trkpt>
      <trkpt lat="45.49393" lon="6.70357">
        <ele>2283.9</ele>
        <time>2021-08-15T12:40:49Z</time>
      </trkpt>
      <trkpt lat="45.49394" lon="6.70356">
        <ele>2283.8</ele>
        <time>2021-08-15T12:40:50Z</time>
      </trkpt>
      <trkpt lat="45.49394" lon="6.70356">
        <ele>2283.8</ele>
        <time>2021-08-15T12:40:51Z</time>
      </trkpt>
      <trkpt lat="45.49394" lon="6.70355">
        <ele>2283.7</ele>
        <time>2021-08-15T12:40:52Z</time>
      </trkpt>
      <trkpt lat="45.49395" lon="6.70354">
        <ele>2283.6</ele>
        <time>2021-08-15T12:40:53Z</time>
      </trkpt>
      <trkpt lat="45.49395" lon="6.70353">
        <ele>2283.5</ele>
        <time>2021-08-15T12:40:54Z</time>
      </trkpt>
      <trkpt lat="45.49396" lon="6.70352">
        <ele>2283.4</ele>
        <time>2021-08-15T12:40:55Z</time>
      </trkpt>
      <trkpt lat="45.49396" lon="6.70351">
        <ele>2283.4</ele>
        <time>2021-08-15T12:40:56Z</time>
      </trkpt>
      <trkpt lat="45.49396" lon="6.70351">
        <ele>2283.3</ele>
        <time>2021-08-15T12:40:57Z</time>
      </trkpt>
      <trkpt lat="45.49397" lon="6.7035">
        <ele>2283.2</ele>
        <time>2021-08-15T12:40:58Z</time>
      </trkpt>
      <trkpt lat="45.49397" lon="6.70349">
        <ele>2283.1</ele>
        <time>2021-08-15T12:40:59Z</time>
      </trkpt>
      <trkpt lat="45.49398" lon="6.70348">
        <ele>2283</ele>
        <time>2021-08-15T12:41:00Z</time>
      </trkpt>
      <trkpt lat="45.49398" lon="6.70348">
        <ele>2283</ele>
        <time>2021-08-15T12:41:01Z</time>
      </trkpt>
      <trkpt lat="45.49398" lon="6.70347">
        <ele>2282.9</ele>
        <time>2021-08-15T12:41:02Z</time>
      </trkpt>
      <trkpt lat="45.49399" lon="6.70346">
        <ele>2282.8</ele>
        <time>2021-08-15T12:41:03Z</time>
      </trkpt>
      <trkpt lat="45.49399" lon="6.70345">
        <ele>2282.7</ele>
        <time>2021-08-15T12:41:04Z</time>
      </trkpt>
      <trkpt lat="45.494" lon="6.70344">
        <ele>2282.7</ele>
        <time>2021-08-15T12:41:05Z</time>
      </trkpt>
      <trkpt lat="45.494" lon="6.70344">
        <ele>2282.6</ele>
        <time>2021-08-15T12:41:06Z</time>
      </trkpt>
      <trkpt lat="45.494" lon="6.70343">
        <ele>2282.5</ele>
        <time>2021-08-15T12:41:07Z</time>
      </trkpt>
      <trkpt lat="45.49401" lon="6.70342">
        <ele>2282.4</ele>
        <time>2021-08-15T12:41:08Z</time>
      </trkpt>
      <trkpt lat="45.49401" lon="6.70341">
        <ele>2282.4</ele>
        <time>2021-08-15T12:41:09Z</time>
      </trkpt>
      <trkpt lat="45.49402" lon="6.7034">
        <ele>2282.3</ele>
        <time>2021-08-15T12:41:10Z</time>
      </trkpt>
      <trkpt lat="45.49402" lon="6.70339">
        <ele>2282.2</ele>
        <time>2021-08-15T12:41:11Z</time>
      </trkpt>
      <trkpt lat="45.49402" lon="6.70339">
        <ele>2282.2</ele>
        <time>2021-08-15T12:41:12Z</time>
      </trkpt>
      <trkpt lat="45.49403" lon="6.70338">
        <ele>2282.1</ele>
        <time>2021-08-15T12:41:13Z</time>
      </trkpt>
      <trkpt lat="45.49403" lon="6.70337">
        <ele>2282</ele>
        <time>2021-08-15T12:41:14Z</time>
      </trkpt>
      <trkpt lat="45.49403" lon="6.70336">
        <ele>2281.9</ele>
        <time>2021-08-15T12:41:15Z</time>
      </trkpt>
      <trkpt lat="45.49404" lon="6.70335">
        <ele>2281.8</ele>
        <time>2021-08-15T12:41:16Z</time>
      </trkpt>
      <trkpt lat="45.49404" lon="6.70334">
        <ele>2281.8</ele>
        <time>2021-08-15T12:41:17Z</time>
      </trkpt>
      <trkpt lat="45.49404" lon="6.70333">
        <ele>2281.7</ele>
        <time>2021-08-15T12:41:18Z</time>
      </trkpt>
      <trkpt lat="45.49405" lon="6.70332">
        <ele>2281.6</ele>
        <time>2021-08-15T12:41:19Z</time>
      </trkpt>
      <trkpt lat="45.49405" lon="6.7033">
        <ele>2281.5</ele>
        <time>2021-08-15T12:41:20Z</time>
      </trkpt>
      <trkpt lat="45.49405" lon="6.70329">
        <ele>2281.4</ele>
        <time>2021-08-15T12:41:21Z</time>
      </trkpt>
      <trkpt lat="45.49406" lon="6.70328">
        <ele>2281.3</ele>
        <time>2021-08-15T12:41:22Z</time>
      </trkpt>
      <trkpt lat="45.49406" lon="6.70327">
        <ele>2281.2</ele>
        <time>2021-08-15T12:41:23Z</time>
      </trkpt>
      <trkpt lat="45.49406" lon="6.70326">
        <ele>2281.1</ele>
        <time>2021-08-15T12:41:24Z</time>
      </trkpt>
      <trkpt lat="45.49406" lon="6.70325">
        <ele>2281.1</ele>
        <time>2021-08-15T12:41:25Z</time>
      </trkpt>
      <trkpt lat="45.49406" lon="6.70324">
        <ele>2281</ele>
        <time>2021-08-15T12:41:26Z</time>
      </trkpt>
      <trkpt lat="45.49407" lon="6.70323">
        <ele>2280.9</ele>
        <time>2021-08-15T12:41:27Z</time>
      </trkpt>
      <trkpt lat="45.49407" lon="6.70323">
        <ele>2280.9</ele>
        <time>2021-08-15T12:41:28Z</time>
      </trkpt>
      <trkpt lat="45.49407" lon="6.70322">
        <ele>2280.8</ele>
        <time>2021-08-15T12:41:29Z</time>
      </trkpt>
      <trkpt lat="45.49407" lon="6.70322">
        <ele>2280.8</ele>
        <time>2021-08-15T12:41:30Z</time>
      </trkpt>
      <trkpt lat="45.49407" lon="6.70321">
        <ele>2280.8</ele>
        <time>2021-08-15T12:41:31Z</time>
      </trkpt>
      <trkpt lat="45.49406" lon="6.70321">
        <ele>2280.8</ele>
        <time>2021-08-15T12:41:32Z</time>
      </trkpt>
      <trkpt lat="45.49406" lon="6.70321">
        <ele>2280.7</ele>
        <time>2021-08-15T12:41:33Z</time>
      </trkpt>
      <trkpt lat="45.49406" lon="6.7032">
        <ele>2280.7</ele>
        <time>2021-08-15T12:41:34Z</time>
      </trkpt>
      <trkpt lat="45.49407" lon="6.7032">
        <ele>2280.7</ele>
        <time>2021-08-15T12:41:35Z</time>
      </trkpt>
      <trkpt lat="45.49407" lon="6.70319">
        <ele>2280.6</ele>
        <time>2021-08-15T12:41:36Z</time>
      </trkpt>
      <trkpt lat="45.49407" lon="6.70319">
        <ele>2280.6</ele>
        <time>2021-08-15T12:41:37Z</time>
      </trkpt>
      <trkpt lat="45.49407" lon="6.70318">
        <ele>2280.5</ele>
        <time>2021-08-15T12:41:38Z</time>
      </trkpt>
      <trkpt lat="45.49408" lon="6.70317">
        <ele>2280.5</ele>
        <time>2021-08-15T12:41:39Z</time>
      </trkpt>
      <trkpt lat="45.49408" lon="6.70317">
        <ele>2280.4</ele>
        <time>2021-08-15T12:41:40Z</time>
      </trkpt>
      <trkpt lat="45.49409" lon="6.70316">
        <ele>2280.3</ele>
        <time>2021-08-15T12:41:41Z</time>
      </trkpt>
      <trkpt lat="45.49409" lon="6.70315">
        <ele>2280.2</ele>
        <time>2021-08-15T12:41:42Z</time>
      </trkpt>
      <trkpt lat="45.4941" lon="6.70313">
        <ele>2280.1</ele>
        <time>2021-08-15T12:41:43Z</time>
      </trkpt>
      <trkpt lat="45.4941" lon="6.70312">
        <ele>2280</ele>
        <time>2021-08-15T12:41:44Z</time>
      </trkpt>
      <trkpt lat="45.49411" lon="6.70311">
        <ele>2279.9</ele>
        <time>2021-08-15T12:41:45Z</time>
      </trkpt>
      <trkpt lat="45.49412" lon="6.7031">
        <ele>2279.8</ele>
        <time>2021-08-15T12:41:46Z</time>
      </trkpt>
      <trkpt lat="45.49412" lon="6.70308">
        <ele>2279.6</ele>
        <time>2021-08-15T12:41:47Z</time>
      </trkpt>
      <trkpt lat="45.49413" lon="6.70307">
        <ele>2279.5</ele>
        <time>2021-08-15T12:41:48Z</time>
      </trkpt>
      <trkpt lat="45.49413" lon="6.70306">
        <ele>2279.4</ele>
        <time>2021-08-15T12:41:49Z</time>
      </trkpt>
      <trkpt lat="45.49414" lon="6.70304">
        <ele>2279.3</ele>
        <time>2021-08-15T12:41:50Z</time>
      </trkpt>
      <trkpt lat="45.49414" lon="6.70303">
        <ele>2279.2</ele>
        <time>2021-08-15T12:41:51Z</time>
      </trkpt>
      <trkpt lat="45.49415" lon="6.70301">
        <ele>2279.1</ele>
        <time>2021-08-15T12:41:52Z</time>
      </trkpt>
      <trkpt lat="45.49415" lon="6.703">
        <ele>2279</ele>
        <time>2021-08-15T12:41:53Z</time>
      </trkpt>
      <trkpt lat="45.49415" lon="6.70299">
        <ele>2278.9</ele>
        <time>2021-08-15T12:41:54Z</time>
      </trkpt>
      <trkpt lat="45.49416" lon="6.70297">
        <ele>2278.8</ele>
        <time>2021-08-15T12:41:55Z</time>
      </trkpt>
      <trkpt lat="45.49416" lon="6.70296">
        <ele>2278.7</ele>
        <time>2021-08-15T12:41:56Z</time>
      </trkpt>
      <trkpt lat="45.49416" lon="6.70294">
        <ele>2278.6</ele>
        <time>2021-08-15T12:41:57Z</time>
      </trkpt>
      <trkpt lat="45.49417" lon="6.70293">
        <ele>2278.4</ele>
        <time>2021-08-15T12:41:58Z</time>
      </trkpt>
      <trkpt lat="45.49417" lon="6.70291">
        <ele>2278.3</ele>
        <time>2021-08-15T12:41:59Z</time>
      </trkpt>
      <trkpt lat="45.49417" lon="6.7029">
        <ele>2278.2</ele>
        <time>2021-08-15T12:42:00Z</time>
      </trkpt>
      <trkpt lat="45.49418" lon="6.70288">
        <ele>2278.1</ele>
        <time>2021-08-15T12:42:01Z</time>
      </trkpt>
      <trkpt lat="45.49418" lon="6.70287">
        <ele>2278</ele>
        <time>2021-08-15T12:42:02Z</time>
      </trkpt>
      <trkpt lat="45.49418" lon="6.70286">
        <ele>2278</ele>
        <time>2021-08-15T12:42:03Z</time>
      </trkpt>
      <trkpt lat="45.49419" lon="6.70284">
        <ele>2277.9</ele>
        <time>2021-08-15T12:42:04Z</time>
      </trkpt>
      <trkpt lat="45.49419" lon="6.70283">
        <ele>2277.8</ele>
        <time>2021-08-15T12:42:05Z</time>
      </trkpt>
      <trkpt lat="45.49419" lon="6.70281">
        <ele>2277.7</ele>
        <time>2021-08-15T12:42:06Z</time>
      </trkpt>
      <trkpt lat="45.4942" lon="6.7028">
        <ele>2277.6</ele>
        <time>2021-08-15T12:42:07Z</time>
      </trkpt>
      <trkpt lat="45.4942" lon="6.70279">
        <ele>2277.5</ele>
        <time>2021-08-15T12:42:08Z</time>
      </trkpt>
      <trkpt lat="45.4942" lon="6.70278">
        <ele>2277.4</ele>
        <time>2021-08-15T12:42:09Z</time>
      </trkpt>
      <trkpt lat="45.49421" lon="6.70276">
        <ele>2277.3</ele>
        <time>2021-08-15T12:42:10Z</time>
      </trkpt>
      <trkpt lat="45.49421" lon="6.70275">
        <ele>2277.2</ele>
        <time>2021-08-15T12:42:11Z</time>
      </trkpt>
      <trkpt lat="45.49422" lon="6.70274">
        <ele>2277.2</ele>
        <time>2021-08-15T12:42:12Z</time>
      </trkpt>
      <trkpt lat="45.49422" lon="6.70273">
        <ele>2277.1</ele>
        <time>2021-08-15T12:42:13Z</time>
      </trkpt>
      <trkpt lat="45.49423" lon="6.70272">
        <ele>2277</ele>
        <time>2021-08-15T12:42:14Z</time>
      </trkpt>
      <trkpt lat="45.49423" lon="6.70271">
        <ele>2276.9</ele>
        <time>2021-08-15T12:42:15Z</time>
      </trkpt>
      <trkpt lat="45.49424" lon="6.70269">
        <ele>2276.8</ele>
        <time>2021-08-15T12:42:16Z</time>
      </trkpt>
      <trkpt lat="45.49424" lon="6.70268">
        <ele>2276.8</ele>
        <time>2021-08-15T12:42:17Z</time>
      </trkpt>
      <trkpt lat="45.49425" lon="6.70267">
        <ele>2276.7</ele>
        <time>2021-08-15T12:42:18Z</time>
      </trkpt>
      <trkpt lat="45.49425" lon="6.70266">
        <ele>2276.6</ele>
        <time>2021-08-15T12:42:19Z</time>
      </trkpt>
      <trkpt lat="45.49426" lon="6.70265">
        <ele>2276.5</ele>
        <time>2021-08-15T12:42:20Z</time>
      </trkpt>
      <trkpt lat="45.49426" lon="6.70264">
        <ele>2276.5</ele>
        <time>2021-08-15T12:42:21Z</time>
      </trkpt>
      <trkpt lat="45.49427" lon="6.70263">
        <ele>2276.4</ele>
        <time>2021-08-15T12:42:22Z</time>
      </trkpt>
      <trkpt lat="45.49427" lon="6.70262">
        <ele>2276.3</ele>
        <time>2021-08-15T12:42:23Z</time>
      </trkpt>
      <trkpt lat="45.49428" lon="6.70261">
        <ele>2276.2</ele>
        <time>2021-08-15T12:42:24Z</time>
      </trkpt>
      <trkpt lat="45.49428" lon="6.7026">
        <ele>2276.2</ele>
        <time>2021-08-15T12:42:25Z</time>
      </trkpt>
      <trkpt lat="45.49429" lon="6.70259">
        <ele>2276.1</ele>
        <time>2021-08-15T12:42:26Z</time>
      </trkpt>
      <trkpt lat="45.49429" lon="6.70258">
        <ele>2276</ele>
        <time>2021-08-15T12:42:27Z</time>
      </trkpt>
      <trkpt lat="45.4943" lon="6.70257">
        <ele>2276</ele>
        <time>2021-08-15T12:42:28Z</time>
      </trkpt>
      <trkpt lat="45.4943" lon="6.70255">
        <ele>2275.9</ele>
        <time>2021-08-15T12:42:29Z</time>
      </trkpt>
      <trkpt lat="45.49431" lon="6.70254">
        <ele>2275.8</ele>
        <time>2021-08-15T12:42:30Z</time>
      </trkpt>
      <trkpt lat="45.49431" lon="6.70253">
        <ele>2275.7</ele>
        <time>2021-08-15T12:42:31Z</time>
      </trkpt>
      <trkpt lat="45.49432" lon="6.70252">
        <ele>2275.7</ele>
        <time>2021-08-15T12:42:32Z</time>
      </trkpt>
      <trkpt lat="45.49432" lon="6.70251">
        <ele>2275.6</ele>
        <time>2021-08-15T12:42:33Z</time>
      </trkpt>
      <trkpt lat="45.49433" lon="6.7025">
        <ele>2275.5</ele>
        <time>2021-08-15T12:42:34Z</time>
      </trkpt>
      <trkpt lat="45.49433" lon="6.70249">
        <ele>2275.4</ele>
        <time>2021-08-15T12:42:35Z</time>
      </trkpt>
      <trkpt lat="45.49434" lon="6.70247">
        <ele>2275.4</ele>
        <time>2021-08-15T12:42:36Z</time>
      </trkpt>
      <trkpt lat="45.49434" lon="6.70246">
        <ele>2275.3</ele>
        <time>2021-08-15T12:42:37Z</time>
      </trkpt>
      <trkpt lat="45.49435" lon="6.70245">
        <ele>2275.2</ele>
        <time>2021-08-15T12:42:38Z</time>
      </trkpt>
      <trkpt lat="45.49436" lon="6.70244">
        <ele>2275.2</ele>
        <time>2021-08-15T12:42:39Z</time>
      </trkpt>
      <trkpt lat="45.49436" lon="6.70243">
        <ele>2275.1</ele>
        <time>2021-08-15T12:42:40Z</time>
      </trkpt>
      <trkpt lat="45.49437" lon="6.70241">
        <ele>2275</ele>
        <time>2021-08-15T12:42:41Z</time>
      </trkpt>
      <trkpt lat="45.49437" lon="6.7024">
        <ele>2275</ele>
        <time>2021-08-15T12:42:42Z</time>
      </trkpt>
      <trkpt lat="45.49438" lon="6.70239">
        <ele>2274.9</ele>
        <time>2021-08-15T12:42:43Z</time>
      </trkpt>
      <trkpt lat="45.49438" lon="6.70238">
        <ele>2274.8</ele>
        <time>2021-08-15T12:42:44Z</time>
      </trkpt>
      <trkpt lat="45.49439" lon="6.70237">
        <ele>2274.8</ele>
        <time>2021-08-15T12:42:45Z</time>
      </trkpt>
      <trkpt lat="45.4944" lon="6.70235">
        <ele>2274.7</ele>
        <time>2021-08-15T12:42:46Z</time>
      </trkpt>
      <trkpt lat="45.4944" lon="6.70234">
        <ele>2274.6</ele>
        <time>2021-08-15T12:42:47Z</time>
      </trkpt>
      <trkpt lat="45.49441" lon="6.70233">
        <ele>2274.6</ele>
        <time>2021-08-15T12:42:48Z</time>
      </trkpt>
      <trkpt lat="45.49442" lon="6.70232">
        <ele>2274.5</ele>
        <time>2021-08-15T12:42:49Z</time>
      </trkpt>
      <trkpt lat="45.49442" lon="6.70231">
        <ele>2274.4</ele>
        <time>2021-08-15T12:42:50Z</time>
      </trkpt>
      <trkpt lat="45.49443" lon="6.70229">
        <ele>2274.3</ele>
        <time>2021-08-15T12:42:51Z</time>
      </trkpt>
      <trkpt lat="45.49443" lon="6.70228">
        <ele>2274.3</ele>
        <time>2021-08-15T12:42:52Z</time>
      </trkpt>
      <trkpt lat="45.49444" lon="6.70227">
        <ele>2274.2</ele>
        <time>2021-08-15T12:42:53Z</time>
      </trkpt>
      <trkpt lat="45.49444" lon="6.70226">
        <ele>2274.1</ele>
        <time>2021-08-15T12:42:54Z</time>
      </trkpt>
      <trkpt lat="45.49445" lon="6.70224">
        <ele>2274.1</ele>
        <time>2021-08-15T12:42:55Z</time>
      </trkpt>
      <trkpt lat="45.49445" lon="6.70223">
        <ele>2274</ele>
        <time>2021-08-15T12:42:56Z</time>
      </trkpt>
      <trkpt lat="45.49445" lon="6.7022">
        <ele>2273.9</ele>
        <time>2021-08-15T12:42:57Z</time>
      </trkpt>
      <trkpt lat="45.49445" lon="6.70219">
        <ele>2273.9</ele>
        <time>2021-08-15T12:42:58Z</time>
      </trkpt>
      <trkpt lat="45.49445" lon="6.70218">
        <ele>2273.8</ele>
        <time>2021-08-15T12:42:59Z</time>
      </trkpt>
      <trkpt lat="45.49445" lon="6.70216">
        <ele>2273.7</ele>
        <time>2021-08-15T12:43:00Z</time>
      </trkpt>
      <trkpt lat="45.49445" lon="6.70215">
        <ele>2273.7</ele>
        <time>2021-08-15T12:43:01Z</time>
      </trkpt>
      <trkpt lat="45.49445" lon="6.70214">
        <ele>2273.6</ele>
        <time>2021-08-15T12:43:02Z</time>
      </trkpt>
      <trkpt lat="45.49445" lon="6.70213">
        <ele>2273.6</ele>
        <time>2021-08-15T12:43:03Z</time>
      </trkpt>
      <trkpt lat="45.49445" lon="6.70211">
        <ele>2273.5</ele>
        <time>2021-08-15T12:43:04Z</time>
      </trkpt>
      <trkpt lat="45.49445" lon="6.7021">
        <ele>2273.5</ele>
        <time>2021-08-15T12:43:05Z</time>
      </trkpt>
      <trkpt lat="45.49445" lon="6.70209">
        <ele>2273.4</ele>
        <time>2021-08-15T12:43:06Z</time>
      </trkpt>
      <trkpt lat="45.49445" lon="6.70207">
        <ele>2273.4</ele>
        <time>2021-08-15T12:43:07Z</time>
      </trkpt>
      <trkpt lat="45.49445" lon="6.70206">
        <ele>2273.3</ele>
        <time>2021-08-15T12:43:08Z</time>
      </trkpt>
      <trkpt lat="45.49445" lon="6.70205">
        <ele>2273.3</ele>
        <time>2021-08-15T12:43:09Z</time>
      </trkpt>
      <trkpt lat="45.49445" lon="6.70204">
        <ele>2273.2</ele>
        <time>2021-08-15T12:43:10Z</time>
      </trkpt>
      <trkpt lat="45.49445" lon="6.70202">
        <ele>2273.2</ele>
        <time>2021-08-15T12:43:11Z</time>
      </trkpt>
      <trkpt lat="45.49444" lon="6.70201">
        <ele>2273.1</ele>
        <time>2021-08-15T12:43:12Z</time>
      </trkpt>
      <trkpt lat="45.49444" lon="6.702">
        <ele>2273.1</ele>
        <time>2021-08-15T12:43:13Z</time>
      </trkpt>
      <trkpt lat="45.49444" lon="6.70198">
        <ele>2273</ele>
        <time>2021-08-15T12:43:14Z</time>
      </trkpt>
      <trkpt lat="45.49444" lon="6.70197">
        <ele>2273</ele>
        <time>2021-08-15T12:43:15Z</time>
      </trkpt>
      <trkpt lat="45.49444" lon="6.70196">
        <ele>2272.9</ele>
        <time>2021-08-15T12:43:16Z</time>
      </trkpt>
      <trkpt lat="45.49444" lon="6.70195">
        <ele>2272.9</ele>
        <time>2021-08-15T12:43:17Z</time>
      </trkpt>
      <trkpt lat="45.49444" lon="6.70193">
        <ele>2272.8</ele>
        <time>2021-08-15T12:43:18Z</time>
      </trkpt>
      <trkpt lat="45.49444" lon="6.70192">
        <ele>2272.8</ele>
        <time>2021-08-15T12:43:19Z</time>
      </trkpt>
      <trkpt lat="45.49444" lon="6.70191">
        <ele>2272.7</ele>
        <time>2021-08-15T12:43:20Z</time>
      </trkpt>
      <trkpt lat="45.49444" lon="6.7019">
        <ele>2272.7</ele>
        <time>2021-08-15T12:43:21Z</time>
      </trkpt>
      <trkpt lat="45.49444" lon="6.70188">
        <ele>2272.6</ele>
        <time>2021-08-15T12:43:22Z</time>
      </trkpt>
      <trkpt lat="45.49444" lon="6.70187">
        <ele>2272.6</ele>
        <time>2021-08-15T12:43:23Z</time>
      </trkpt>
      <trkpt lat="45.49444" lon="6.70186">
        <ele>2272.5</ele>
        <time>2021-08-15T12:43:24Z</time>
      </trkpt>
      <trkpt lat="45.49444" lon="6.70184">
        <ele>2272.5</ele>
        <time>2021-08-15T12:43:25Z</time>
      </trkpt>
      <trkpt lat="45.49444" lon="6.70183">
        <ele>2272.4</ele>
        <time>2021-08-15T12:43:26Z</time>
      </trkpt>
      <trkpt lat="45.49444" lon="6.70182">
        <ele>2272.4</ele>
        <time>2021-08-15T12:43:27Z</time>
      </trkpt>
      <trkpt lat="45.49444" lon="6.70181">
        <ele>2272.3</ele>
        <time>2021-08-15T12:43:28Z</time>
      </trkpt>
      <trkpt lat="45.49444" lon="6.70179">
        <ele>2272.3</ele>
        <time>2021-08-15T12:43:29Z</time>
      </trkpt>
      <trkpt lat="45.49444" lon="6.70178">
        <ele>2272.2</ele>
        <time>2021-08-15T12:43:30Z</time>
      </trkpt>
      <trkpt lat="45.49443" lon="6.70177">
        <ele>2272.2</ele>
        <time>2021-08-15T12:43:31Z</time>
      </trkpt>
      <trkpt lat="45.49443" lon="6.70175">
        <ele>2272.1</ele>
        <time>2021-08-15T12:43:32Z</time>
      </trkpt>
      <trkpt lat="45.49443" lon="6.70174">
        <ele>2272.1</ele>
        <time>2021-08-15T12:43:33Z</time>
      </trkpt>
      <trkpt lat="45.49443" lon="6.70173">
        <ele>2272</ele>
        <time>2021-08-15T12:43:34Z</time>
      </trkpt>
      <trkpt lat="45.49442" lon="6.70172">
        <ele>2272</ele>
        <time>2021-08-15T12:43:35Z</time>
      </trkpt>
      <trkpt lat="45.49441" lon="6.70171">
        <ele>2271.9</ele>
        <time>2021-08-15T12:43:36Z</time>
      </trkpt>
      <trkpt lat="45.49441" lon="6.7017">
        <ele>2271.9</ele>
        <time>2021-08-15T12:43:37Z</time>
      </trkpt>
      <trkpt lat="45.49441" lon="6.70169">
        <ele>2271.8</ele>
        <time>2021-08-15T12:43:38Z</time>
      </trkpt>
      <trkpt lat="45.49441" lon="6.70167">
        <ele>2271.8</ele>
        <time>2021-08-15T12:43:39Z</time>
      </trkpt>
      <trkpt lat="45.49441" lon="6.70166">
        <ele>2271.7</ele>
        <time>2021-08-15T12:43:40Z</time>
      </trkpt>
      <trkpt lat="45.49441" lon="6.70165">
        <ele>2271.7</ele>
        <time>2021-08-15T12:43:41Z</time>
      </trkpt>
      <trkpt lat="45.49441" lon="6.70163">
        <ele>2271.6</ele>
        <time>2021-08-15T12:43:42Z</time>
      </trkpt>
      <trkpt lat="45.4944" lon="6.70162">
        <ele>2271.6</ele>
        <time>2021-08-15T12:43:43Z</time>
      </trkpt>
      <trkpt lat="45.4944" lon="6.70161">
        <ele>2271.5</ele>
        <time>2021-08-15T12:43:44Z</time>
      </trkpt>
      <trkpt lat="45.49439" lon="6.7016">
        <ele>2271.5</ele>
        <time>2021-08-15T12:43:45Z</time>
      </trkpt>
      <trkpt lat="45.49439" lon="6.70159">
        <ele>2271.4</ele>
        <time>2021-08-15T12:43:46Z</time>
      </trkpt>
      <trkpt lat="45.49438" lon="6.70158">
        <ele>2271.4</ele>
        <time>2021-08-15T12:43:47Z</time>
      </trkpt>
      <trkpt lat="45.49438" lon="6.70157">
        <ele>2271.4</ele>
        <time>2021-08-15T12:43:48Z</time>
      </trkpt>
      <trkpt lat="45.49437" lon="6.70157">
        <ele>2271.3</ele>
        <time>2021-08-15T12:43:49Z</time>
      </trkpt>
      <trkpt lat="45.49437" lon="6.70156">
        <ele>2271.3</ele>
        <time>2021-08-15T12:43:50Z</time>
      </trkpt>
      <trkpt lat="45.49436" lon="6.70155">
        <ele>2271.2</ele>
        <time>2021-08-15T12:43:51Z</time>
      </trkpt>
      <trkpt lat="45.49436" lon="6.70154">
        <ele>2271.2</ele>
        <time>2021-08-15T12:43:52Z</time>
      </trkpt>
      <trkpt lat="45.49435" lon="6.70154">
        <ele>2271.2</ele>
        <time>2021-08-15T12:43:53Z</time>
      </trkpt>
      <trkpt lat="45.49435" lon="6.70153">
        <ele>2271.1</ele>
        <time>2021-08-15T12:43:54Z</time>
      </trkpt>
      <trkpt lat="45.49434" lon="6.70153">
        <ele>2271.1</ele>
        <time>2021-08-15T12:43:55Z</time>
      </trkpt>
      <trkpt lat="45.49434" lon="6.70152">
        <ele>2271.1</ele>
        <time>2021-08-15T12:43:56Z</time>
      </trkpt>
      <trkpt lat="45.49434" lon="6.70152">
        <ele>2271.1</ele>
        <time>2021-08-15T12:43:57Z</time>
      </trkpt>
      <trkpt lat="45.49433" lon="6.70152">
        <ele>2271</ele>
        <time>2021-08-15T12:43:58Z</time>
      </trkpt>
      <trkpt lat="45.49433" lon="6.70151">
        <ele>2271</ele>
        <time>2021-08-15T12:43:59Z</time>
      </trkpt>
      <trkpt lat="45.49433" lon="6.70151">
        <ele>2271</ele>
        <time>2021-08-15T12:44:00Z</time>
      </trkpt>
      <trkpt lat="45.49433" lon="6.70151">
        <ele>2271</ele>
        <time>2021-08-15T12:44:01Z</time>
      </trkpt>
      <trkpt lat="45.49433" lon="6.70151">
        <ele>2271</ele>
        <time>2021-08-15T12:44:02Z</time>
      </trkpt>
      <trkpt lat="45.49433" lon="6.70151">
        <ele>2271</ele>
        <time>2021-08-15T12:44:03Z</time>
      </trkpt>
      <trkpt lat="45.49433" lon="6.70151">
        <ele>2271</ele>
        <time>2021-08-15T12:44:04Z</time>
      </trkpt>
      <trkpt lat="45.49433" lon="6.70151">
        <ele>2271</ele>
        <time>2021-08-15T12:44:05Z</time>
      </trkpt>
      <trkpt lat="45.49433" lon="6.70151">
        <ele>2271</ele>
        <time>2021-08-15T12:44:06Z</time>
      </trkpt>
      <trkpt lat="45.49433" lon="6.70151">
        <ele>2271</ele>
        <time>2021-08-15T12:44:07Z</time>
      </trkpt>
      <trkpt lat="45.49433" lon="6.70151">
        <ele>2271</ele>
        <time>2021-08-15T12:44:08Z</time>
      </trkpt>
      <trkpt lat="45.49433" lon="6.70151">
        <ele>2271</ele>
        <time>2021-08-15T12:44:09Z</time>
      </trkpt>
      <trkpt lat="45.49433" lon="6.70151">
        <ele>2271</ele>
        <time>2021-08-15T12:44:10Z</time>
      </trkpt>
      <trkpt lat="45.49433" lon="6.70151">
        <ele>2271</ele>
        <time>2021-08-15T12:44:11Z</time>
      </trkpt>
      <trkpt lat="45.49433" lon="6.70151">
        <ele>2271</ele>
        <time>2021-08-15T12:44:12Z</time>
      </trkpt>
      <trkpt lat="45.49433" lon="6.70151">
        <ele>2271</ele>
        <time>2021-08-15T12:44:13Z</time>
      </trkpt>
      <trkpt lat="45.49433" lon="6.70151">
        <ele>2271</ele>
        <time>2021-08-15T12:44:14Z</time>
      </trkpt>
      <trkpt lat="45.49433" lon="6.70151">
        <ele>2271</ele>
        <time>2021-08-15T12:44:15Z</time>
      </trkpt>
      <trkpt lat="45.49433" lon="6.70151">
        <ele>2271</ele>
        <time>2021-08-15T12:44:16Z</time>
      </trkpt>
      <trkpt lat="45.49433" lon="6.70151">
        <ele>2271</ele>
        <time>2021-08-15T12:44:17Z</time>
      </trkpt>
      <trkpt lat="45.49433" lon="6.70151">
        <ele>2271</ele>
        <time>2021-08-15T12:44:18Z</time>
      </trkpt>
      <trkpt lat="45.49433" lon="6.70151">
        <ele>2271</ele>
        <time>2021-08-15T12:44:19Z</time>
      </trkpt>
      <trkpt lat="45.49433" lon="6.70151">
        <ele>2271</ele>
        <time>2021-08-15T12:44:20Z</time>
      </trkpt>
      <trkpt lat="45.49433" lon="6.70151">
        <ele>2271</ele>
        <time>2021-08-15T12:44:21Z</time>
      </trkpt>
      <trkpt lat="45.49433" lon="6.70151">
        <ele>2271</ele>
        <time>2021-08-15T12:44:22Z</time>
      </trkpt>
      <trkpt lat="45.49433" lon="6.70151">
        <ele>2271</ele>
        <time>2021-08-15T12:44:23Z</time>
      </trkpt>
      <trkpt lat="45.49433" lon="6.70151">
        <ele>2271</ele>
        <time>2021-08-15T12:44:24Z</time>
      </trkpt>
      <trkpt lat="45.49433" lon="6.70151">
        <ele>2271</ele>
        <time>2021-08-15T12:44:25Z</time>
      </trkpt>
      <trkpt lat="45.49433" lon="6.70151">
        <ele>2271</ele>
        <time>2021-08-15T12:44:26Z</time>
      </trkpt>
      <trkpt lat="45.49433" lon="6.70151">
        <ele>2271</ele>
        <time>2021-08-15T12:44:27Z</time>
      </trkpt>
      <trkpt lat="45.49433" lon="6.70151">
        <ele>2271</ele>
        <time>2021-08-15T12:44:28Z</time>
      </trkpt>
      <trkpt lat="45.49433" lon="6.70151">
        <ele>2271</ele>
        <time>2021-08-15T12:44:29Z</time>
      </trkpt>
      <trkpt lat="45.49433" lon="6.70151">
        <ele>2271</ele>
        <time>2021-08-15T12:44:30Z</time>
      </trkpt>
      <trkpt lat="45.49433" lon="6.70151">
        <ele>2271</ele>
        <time>2021-08-15T12:44:31Z</time>
      </trkpt>
      <trkpt lat="45.49433" lon="6.70151">
        <ele>2271</ele>
        <time>2021-08-15T12:44:32Z</time>
      </trkpt>
      <trkpt lat="45.49433" lon="6.70151">
        <ele>2271</ele>
        <time>2021-08-15T12:44:33Z</time>
      </trkpt>
      <trkpt lat="45.49433" lon="6.70151">
        <ele>2271</ele>
        <time>2021-08-15T12:44:34Z</time>
      </trkpt>
      <trkpt lat="45.49433" lon="6.70151">
        <ele>2271</ele>
        <time>2021-08-15T12:44:35Z</time>
      </trkpt>
      <trkpt lat="45.49433" lon="6.70151">
        <ele>2271</ele>
        <time>2021-08-15T12:44:36Z</time>
      </trkpt>
      <trkpt lat="45.49433" lon="6.70151">
        <ele>2271</ele>
        <time>2021-08-15T12:44:37Z</time>
      </trkpt>
      <trkpt lat="45.49434" lon="6.70152">
        <ele>2271</ele>
        <time>2021-08-15T12:44:38Z</time>
      </trkpt>
      <trkpt lat="45.49434" lon="6.70152">
        <ele>2271</ele>
        <time>2021-08-15T12:44:39Z</time>
      </trkpt>
      <trkpt lat="45.49434" lon="6.70152">
        <ele>2270.9</ele>
        <time>2021-08-15T12:44:40Z</time>
      </trkpt>
      <trkpt lat="45.49434" lon="6.70152">
        <ele>2270.9</ele>
        <time>2021-08-15T12:44:41Z</time>
      </trkpt>
      <trkpt lat="45.49434" lon="6.70153">
        <ele>2270.9</ele>
        <time>2021-08-15T12:44:42Z</time>
      </trkpt>
      <trkpt lat="45.49435" lon="6.70153">
        <ele>2270.9</ele>
        <time>2021-08-15T12:44:43Z</time>
      </trkpt>
      <trkpt lat="45.49435" lon="6.70153">
        <ele>2270.8</ele>
        <time>2021-08-15T12:44:44Z</time>
      </trkpt>
      <trkpt lat="45.49436" lon="6.70154">
        <ele>2270.8</ele>
        <time>2021-08-15T12:44:45Z</time>
      </trkpt>
      <trkpt lat="45.49437" lon="6.70154">
        <ele>2270.8</ele>
        <time>2021-08-15T12:44:46Z</time>
      </trkpt>
      <trkpt lat="45.49437" lon="6.70155">
        <ele>2270.7</ele>
        <time>2021-08-15T12:44:47Z</time>
      </trkpt>
      <trkpt lat="45.49438" lon="6.70155">
        <ele>2270.7</ele>
        <time>2021-08-15T12:44:48Z</time>
      </trkpt>
      <trkpt lat="45.49439" lon="6.70156">
        <ele>2270.6</ele>
        <time>2021-08-15T12:44:49Z</time>
      </trkpt>
      <trkpt lat="45.4944" lon="6.70156">
        <ele>2270.6</ele>
        <time>2021-08-15T12:44:50Z</time>
      </trkpt>
      <trkpt lat="45.49441" lon="6.70157">
        <ele>2270.5</ele>
        <time>2021-08-15T12:44:51Z</time>
      </trkpt>
      <trkpt lat="45.49442" lon="6.70157">
        <ele>2270.5</ele>
        <time>2021-08-15T12:44:52Z</time>
      </trkpt>
      <trkpt lat="45.49443" lon="6.70158">
        <ele>2270.4</ele>
        <time>2021-08-15T12:44:53Z</time>
      </trkpt>
      <trkpt lat="45.49444" lon="6.70158">
        <ele>2270.3</ele>
        <time>2021-08-15T12:44:54Z</time>
      </trkpt>
      <trkpt lat="45.49445" lon="6.70158">
        <ele>2270.3</ele>
        <time>2021-08-15T12:44:55Z</time>
      </trkpt>
      <trkpt lat="45.49446" lon="6.70158">
        <ele>2270.2</ele>
        <time>2021-08-15T12:44:56Z</time>
      </trkpt>
      <trkpt lat="45.49447" lon="6.70158">
        <ele>2270.2</ele>
        <time>2021-08-15T12:44:57Z</time>
      </trkpt>
      <trkpt lat="45.49448" lon="6.70158">
        <ele>2270.1</ele>
        <time>2021-08-15T12:44:58Z</time>
      </trkpt>
      <trkpt lat="45.49449" lon="6.70158">
        <ele>2270.1</ele>
        <time>2021-08-15T12:44:59Z</time>
      </trkpt>
      <trkpt lat="45.4945" lon="6.70157">
        <ele>2270</ele>
        <time>2021-08-15T12:45:00Z</time>
      </trkpt>
      <trkpt lat="45.49451" lon="6.70157">
        <ele>2270</ele>
        <time>2021-08-15T12:45:01Z</time>
      </trkpt>
      <trkpt lat="45.49452" lon="6.70157">
        <ele>2270</ele>
        <time>2021-08-15T12:45:02Z</time>
      </trkpt>
      <trkpt lat="45.49453" lon="6.70156">
        <ele>2269.9</ele>
        <time>2021-08-15T12:45:03Z</time>
      </trkpt>
      <trkpt lat="45.49453" lon="6.70156">
        <ele>2269.9</ele>
        <time>2021-08-15T12:45:04Z</time>
      </trkpt>
      <trkpt lat="45.49454" lon="6.70155">
        <ele>2269.8</ele>
        <time>2021-08-15T12:45:05Z</time>
      </trkpt>
      <trkpt lat="45.49455" lon="6.70155">
        <ele>2269.8</ele>
        <time>2021-08-15T12:45:06Z</time>
      </trkpt>
      <trkpt lat="45.49456" lon="6.70154">
        <ele>2269.8</ele>
        <time>2021-08-15T12:45:07Z</time>
      </trkpt>
      <trkpt lat="45.49457" lon="6.70154">
        <ele>2269.7</ele>
        <time>2021-08-15T12:45:08Z</time>
      </trkpt>
      <trkpt lat="45.49458" lon="6.70153">
        <ele>2269.7</ele>
        <time>2021-08-15T12:45:09Z</time>
      </trkpt>
      <trkpt lat="45.49458" lon="6.70153">
        <ele>2269.6</ele>
        <time>2021-08-15T12:45:10Z</time>
      </trkpt>
      <trkpt lat="45.49459" lon="6.70152">
        <ele>2269.6</ele>
        <time>2021-08-15T12:45:11Z</time>
      </trkpt>
      <trkpt lat="45.4946" lon="6.70151">
        <ele>2269.6</ele>
        <time>2021-08-15T12:45:12Z</time>
      </trkpt>
      <trkpt lat="45.49461" lon="6.7015">
        <ele>2269.5</ele>
        <time>2021-08-15T12:45:13Z</time>
      </trkpt>
      <trkpt lat="45.49462" lon="6.7015">
        <ele>2269.5</ele>
        <time>2021-08-15T12:45:14Z</time>
      </trkpt>
      <trkpt lat="45.49463" lon="6.70149">
        <ele>2269.4</ele>
        <time>2021-08-15T12:45:15Z</time>
      </trkpt>
      <trkpt lat="45.49463" lon="6.70148">
        <ele>2269.4</ele>
        <time>2021-08-15T12:45:16Z</time>
      </trkpt>
      <trkpt lat="45.49464" lon="6.70146">
        <ele>2269.4</ele>
        <time>2021-08-15T12:45:17Z</time>
      </trkpt>
      <trkpt lat="45.49465" lon="6.70145">
        <ele>2269.3</ele>
        <time>2021-08-15T12:45:18Z</time>
      </trkpt>
      <trkpt lat="45.49466" lon="6.70144">
        <ele>2269.3</ele>
        <time>2021-08-15T12:45:19Z</time>
      </trkpt>
      <trkpt lat="45.49467" lon="6.70143">
        <ele>2269.2</ele>
        <time>2021-08-15T12:45:20Z</time>
      </trkpt>
      <trkpt lat="45.49467" lon="6.70141">
        <ele>2269.2</ele>
        <time>2021-08-15T12:45:21Z</time>
      </trkpt>
      <trkpt lat="45.49468" lon="6.7014">
        <ele>2269.1</ele>
        <time>2021-08-15T12:45:22Z</time>
      </trkpt>
      <trkpt lat="45.49469" lon="6.70139">
        <ele>2269.1</ele>
        <time>2021-08-15T12:45:23Z</time>
      </trkpt>
      <trkpt lat="45.4947" lon="6.70138">
        <ele>2269</ele>
        <time>2021-08-15T12:45:24Z</time>
      </trkpt>
      <trkpt lat="45.49471" lon="6.70137">
        <ele>2269</ele>
        <time>2021-08-15T12:45:25Z</time>
      </trkpt>
      <trkpt lat="45.49471" lon="6.70136">
        <ele>2269</ele>
        <time>2021-08-15T12:45:26Z</time>
      </trkpt>
      <trkpt lat="45.49472" lon="6.70136">
        <ele>2268.9</ele>
        <time>2021-08-15T12:45:27Z</time>
      </trkpt>
      <trkpt lat="45.49473" lon="6.70135">
        <ele>2268.9</ele>
        <time>2021-08-15T12:45:28Z</time>
      </trkpt>
      <trkpt lat="45.49474" lon="6.70134">
        <ele>2268.8</ele>
        <time>2021-08-15T12:45:29Z</time>
      </trkpt>
      <trkpt lat="45.49475" lon="6.70134">
        <ele>2268.8</ele>
        <time>2021-08-15T12:45:30Z</time>
      </trkpt>
      <trkpt lat="45.49475" lon="6.70133">
        <ele>2268.8</ele>
        <time>2021-08-15T12:45:31Z</time>
      </trkpt>
      <trkpt lat="45.49476" lon="6.70133">
        <ele>2268.7</ele>
        <time>2021-08-15T12:45:32Z</time>
      </trkpt>
      <trkpt lat="45.49476" lon="6.70132">
        <ele>2268.7</ele>
        <time>2021-08-15T12:45:33Z</time>
      </trkpt>
      <trkpt lat="45.49477" lon="6.70131">
        <ele>2268.6</ele>
        <time>2021-08-15T12:45:34Z</time>
      </trkpt>
      <trkpt lat="45.49477" lon="6.7013">
        <ele>2268.6</ele>
        <time>2021-08-15T12:45:35Z</time>
      </trkpt>
      <trkpt lat="45.49478" lon="6.7013">
        <ele>2268.5</ele>
        <time>2021-08-15T12:45:36Z</time>
      </trkpt>
      <trkpt lat="45.49478" lon="6.70129">
        <ele>2268.5</ele>
        <time>2021-08-15T12:45:37Z</time>
      </trkpt>
      <trkpt lat="45.49478" lon="6.70128">
        <ele>2268.5</ele>
        <time>2021-08-15T12:45:38Z</time>
      </trkpt>
      <trkpt lat="45.49478" lon="6.70127">
        <ele>2268.5</ele>
        <time>2021-08-15T12:45:39Z</time>
      </trkpt>
      <trkpt lat="45.49478" lon="6.70126">
        <ele>2268.4</ele>
        <time>2021-08-15T12:45:40Z</time>
      </trkpt>
      <trkpt lat="45.49478" lon="6.70126">
        <ele>2268.4</ele>
        <time>2021-08-15T12:45:41Z</time>
      </trkpt>
      <trkpt lat="45.49478" lon="6.70125">
        <ele>2268.4</ele>
        <time>2021-08-15T12:45:42Z</time>
      </trkpt>
      <trkpt lat="45.49478" lon="6.70125">
        <ele>2268.4</ele>
        <time>2021-08-15T12:45:43Z</time>
      </trkpt>
      <trkpt lat="45.49478" lon="6.70124">
        <ele>2268.3</ele>
        <time>2021-08-15T12:45:44Z</time>
      </trkpt>
      <trkpt lat="45.49478" lon="6.70124">
        <ele>2268.3</ele>
        <time>2021-08-15T12:45:45Z</time>
      </trkpt>
      <trkpt lat="45.49478" lon="6.70123">
        <ele>2268.3</ele>
        <time>2021-08-15T12:45:46Z</time>
      </trkpt>
      <trkpt lat="45.49478" lon="6.70123">
        <ele>2268.3</ele>
        <time>2021-08-15T12:45:47Z</time>
      </trkpt>
      <trkpt lat="45.49478" lon="6.70122">
        <ele>2268.3</ele>
        <time>2021-08-15T12:45:48Z</time>
      </trkpt>
      <trkpt lat="45.49478" lon="6.70121">
        <ele>2268.2</ele>
        <time>2021-08-15T12:45:49Z</time>
      </trkpt>
      <trkpt lat="45.49478" lon="6.70121">
        <ele>2268.2</ele>
        <time>2021-08-15T12:45:50Z</time>
      </trkpt>
      <trkpt lat="45.49478" lon="6.7012">
        <ele>2268.2</ele>
        <time>2021-08-15T12:45:51Z</time>
      </trkpt>
      <trkpt lat="45.49479" lon="6.70119">
        <ele>2268.1</ele>
        <time>2021-08-15T12:45:52Z</time>
      </trkpt>
      <trkpt lat="45.49479" lon="6.70118">
        <ele>2268.1</ele>
        <time>2021-08-15T12:45:53Z</time>
      </trkpt>
      <trkpt lat="45.49479" lon="6.70117">
        <ele>2268</ele>
        <time>2021-08-15T12:45:54Z</time>
      </trkpt>
      <trkpt lat="45.4948" lon="6.70116">
        <ele>2268</ele>
        <time>2021-08-15T12:45:55Z</time>
      </trkpt>
      <trkpt lat="45.49481" lon="6.70115">
        <ele>2267.9</ele>
        <time>2021-08-15T12:45:56Z</time>
      </trkpt>
      <trkpt lat="45.49482" lon="6.70114">
        <ele>2267.8</ele>
        <time>2021-08-15T12:45:57Z</time>
      </trkpt>
      <trkpt lat="45.49482" lon="6.70113">
        <ele>2267.8</ele>
        <time>2021-08-15T12:45:58Z</time>
      </trkpt>
      <trkpt lat="45.49483" lon="6.70111">
        <ele>2267.7</ele>
        <time>2021-08-15T12:45:59Z</time>
      </trkpt>
      <trkpt lat="45.49483" lon="6.7011">
        <ele>2267.6</ele>
        <time>2021-08-15T12:46:00Z</time>
      </trkpt>
      <trkpt lat="45.49484" lon="6.7011">
        <ele>2267.6</ele>
        <time>2021-08-15T12:46:01Z</time>
      </trkpt>
      <trkpt lat="45.49484" lon="6.70109">
        <ele>2267.5</ele>
        <time>2021-08-15T12:46:02Z</time>
      </trkpt>
      <trkpt lat="45.49484" lon="6.70108">
        <ele>2267.5</ele>
        <time>2021-08-15T12:46:03Z</time>
      </trkpt>
      <trkpt lat="45.49484" lon="6.70108">
        <ele>2267.5</ele>
        <time>2021-08-15T12:46:04Z</time>
      </trkpt>
      <trkpt lat="45.49484" lon="6.70107">
        <ele>2267.5</ele>
        <time>2021-08-15T12:46:05Z</time>
      </trkpt>
      <trkpt lat="45.49484" lon="6.70107">
        <ele>2267.4</ele>
        <time>2021-08-15T12:46:06Z</time>
      </trkpt>
      <trkpt lat="45.49484" lon="6.70106">
        <ele>2267.4</ele>
        <time>2021-08-15T12:46:07Z</time>
      </trkpt>
      <trkpt lat="45.49484" lon="6.70106">
        <ele>2267.4</ele>
        <time>2021-08-15T12:46:08Z</time>
      </trkpt>
      <trkpt lat="45.49483" lon="6.70106">
        <ele>2267.4</ele>
        <time>2021-08-15T12:46:09Z</time>
      </trkpt>
      <trkpt lat="45.49483" lon="6.70105">
        <ele>2267.3</ele>
        <time>2021-08-15T12:46:10Z</time>
      </trkpt>
      <trkpt lat="45.49483" lon="6.70105">
        <ele>2267.3</ele>
        <time>2021-08-15T12:46:11Z</time>
      </trkpt>
      <trkpt lat="45.49482" lon="6.70105">
        <ele>2267.2</ele>
        <time>2021-08-15T12:46:12Z</time>
      </trkpt>
      <trkpt lat="45.49482" lon="6.70104">
        <ele>2267.2</ele>
        <time>2021-08-15T12:46:13Z</time>
      </trkpt>
      <trkpt lat="45.49481" lon="6.70104">
        <ele>2267.2</ele>
        <time>2021-08-15T12:46:14Z</time>
      </trkpt>
      <trkpt lat="45.4948" lon="6.70104">
        <ele>2267.1</ele>
        <time>2021-08-15T12:46:15Z</time>
      </trkpt>
      <trkpt lat="45.4948" lon="6.70103">
        <ele>2267</ele>
        <time>2021-08-15T12:46:16Z</time>
      </trkpt>
      <trkpt lat="45.49479" lon="6.70103">
        <ele>2267</ele>
        <time>2021-08-15T12:46:17Z</time>
      </trkpt>
      <trkpt lat="45.49478" lon="6.70102">
        <ele>2266.9</ele>
        <time>2021-08-15T12:46:18Z</time>
      </trkpt>
      <trkpt lat="45.49477" lon="6.70102">
        <ele>2266.8</ele>
        <time>2021-08-15T12:46:19Z</time>
      </trkpt>
      <trkpt lat="45.49476" lon="6.70101">
        <ele>2266.8</ele>
        <time>2021-08-15T12:46:20Z</time>
      </trkpt>
      <trkpt lat="45.49475" lon="6.701">
        <ele>2266.7</ele>
        <time>2021-08-15T12:46:21Z</time>
      </trkpt>
      <trkpt lat="45.49475" lon="6.701">
        <ele>2266.6</ele>
        <time>2021-08-15T12:46:22Z</time>
      </trkpt>
      <trkpt lat="45.49474" lon="6.70099">
        <ele>2266.5</ele>
        <time>2021-08-15T12:46:23Z</time>
      </trkpt>
      <trkpt lat="45.49473" lon="6.70098">
        <ele>2266.4</ele>
        <time>2021-08-15T12:46:24Z</time>
      </trkpt>
      <trkpt lat="45.49472" lon="6.70098">
        <ele>2266.4</ele>
        <time>2021-08-15T12:46:25Z</time>
      </trkpt>
      <trkpt lat="45.49471" lon="6.70097">
        <ele>2266.3</ele>
        <time>2021-08-15T12:46:26Z</time>
      </trkpt>
      <trkpt lat="45.4947" lon="6.70096">
        <ele>2266.2</ele>
        <time>2021-08-15T12:46:27Z</time>
      </trkpt>
      <trkpt lat="45.49469" lon="6.70095">
        <ele>2266.1</ele>
        <time>2021-08-15T12:46:28Z</time>
      </trkpt>
      <trkpt lat="45.49468" lon="6.70094">
        <ele>2266</ele>
        <time>2021-08-15T12:46:29Z</time>
      </trkpt>
      <trkpt lat="45.49467" lon="6.70093">
        <ele>2265.9</ele>
        <time>2021-08-15T12:46:30Z</time>
      </trkpt>
      <trkpt lat="45.49466" lon="6.70093">
        <ele>2265.8</ele>
        <time>2021-08-15T12:46:31Z</time>
      </trkpt>
      <trkpt lat="45.49466" lon="6.70092">
        <ele>2265.7</ele>
        <time>2021-08-15T12:46:32Z</time>
      </trkpt>
      <trkpt lat="45.49465" lon="6.70091">
        <ele>2265.6</ele>
        <time>2021-08-15T12:46:33Z</time>
      </trkpt>
      <trkpt lat="45.49464" lon="6.7009">
        <ele>2265.6</ele>
        <time>2021-08-15T12:46:34Z</time>
      </trkpt>
      <trkpt lat="45.49464" lon="6.70089">
        <ele>2265.5</ele>
        <time>2021-08-15T12:46:35Z</time>
      </trkpt>
      <trkpt lat="45.49463" lon="6.70089">
        <ele>2265.4</ele>
        <time>2021-08-15T12:46:36Z</time>
      </trkpt>
      <trkpt lat="45.49463" lon="6.70088">
        <ele>2265.4</ele>
        <time>2021-08-15T12:46:37Z</time>
      </trkpt>
      <trkpt lat="45.49462" lon="6.70087">
        <ele>2265.3</ele>
        <time>2021-08-15T12:46:38Z</time>
      </trkpt>
      <trkpt lat="45.49462" lon="6.70087">
        <ele>2265.3</ele>
        <time>2021-08-15T12:46:39Z</time>
      </trkpt>
      <trkpt lat="45.49461" lon="6.70086">
        <ele>2265.2</ele>
        <time>2021-08-15T12:46:40Z</time>
      </trkpt>
      <trkpt lat="45.49461" lon="6.70085">
        <ele>2265.1</ele>
        <time>2021-08-15T12:46:41Z</time>
      </trkpt>
      <trkpt lat="45.4946" lon="6.70085">
        <ele>2265.1</ele>
        <time>2021-08-15T12:46:42Z</time>
      </trkpt>
      <trkpt lat="45.4946" lon="6.70084">
        <ele>2265</ele>
        <time>2021-08-15T12:46:43Z</time>
      </trkpt>
      <trkpt lat="45.49459" lon="6.70083">
        <ele>2265</ele>
        <time>2021-08-15T12:46:44Z</time>
      </trkpt>
      <trkpt lat="45.49459" lon="6.70083">
        <ele>2264.9</ele>
        <time>2021-08-15T12:46:45Z</time>
      </trkpt>
      <trkpt lat="45.49458" lon="6.70082">
        <ele>2264.8</ele>
        <time>2021-08-15T12:46:46Z</time>
      </trkpt>
      <trkpt lat="45.49457" lon="6.70081">
        <ele>2264.8</ele>
        <time>2021-08-15T12:46:47Z</time>
      </trkpt>
      <trkpt lat="45.49457" lon="6.70081">
        <ele>2264.7</ele>
        <time>2021-08-15T12:46:48Z</time>
      </trkpt>
      <trkpt lat="45.49456" lon="6.7008">
        <ele>2264.6</ele>
        <time>2021-08-15T12:46:49Z</time>
      </trkpt>
      <trkpt lat="45.49456" lon="6.70079">
        <ele>2264.5</ele>
        <time>2021-08-15T12:46:50Z</time>
      </trkpt>
      <trkpt lat="45.49455" lon="6.70078">
        <ele>2264.5</ele>
        <time>2021-08-15T12:46:51Z</time>
      </trkpt>
      <trkpt lat="45.49455" lon="6.70077">
        <ele>2264.4</ele>
        <time>2021-08-15T12:46:52Z</time>
      </trkpt>
      <trkpt lat="45.49455" lon="6.70076">
        <ele>2264.3</ele>
        <time>2021-08-15T12:46:53Z</time>
      </trkpt>
      <trkpt lat="45.49454" lon="6.70074">
        <ele>2264.2</ele>
        <time>2021-08-15T12:46:54Z</time>
      </trkpt>
      <trkpt lat="45.49454" lon="6.70073">
        <ele>2264.1</ele>
        <time>2021-08-15T12:46:55Z</time>
      </trkpt>
      <trkpt lat="45.49454" lon="6.70072">
        <ele>2264</ele>
        <time>2021-08-15T12:46:56Z</time>
      </trkpt>
      <trkpt lat="45.49454" lon="6.7007">
        <ele>2263.9</ele>
        <time>2021-08-15T12:46:57Z</time>
      </trkpt>
      <trkpt lat="45.49454" lon="6.70069">
        <ele>2263.8</ele>
        <time>2021-08-15T12:46:58Z</time>
      </trkpt>
      <trkpt lat="45.49454" lon="6.70068">
        <ele>2263.7</ele>
        <time>2021-08-15T12:46:59Z</time>
      </trkpt>
      <trkpt lat="45.49454" lon="6.70066">
        <ele>2263.6</ele>
        <time>2021-08-15T12:47:00Z</time>
      </trkpt>
      <trkpt lat="45.49454" lon="6.70065">
        <ele>2263.6</ele>
        <time>2021-08-15T12:47:01Z</time>
      </trkpt>
      <trkpt lat="45.49454" lon="6.70064">
        <ele>2263.5</ele>
        <time>2021-08-15T12:47:02Z</time>
      </trkpt>
      <trkpt lat="45.49455" lon="6.70063">
        <ele>2263.4</ele>
        <time>2021-08-15T12:47:03Z</time>
      </trkpt>
      <trkpt lat="45.49455" lon="6.70063">
        <ele>2263.4</ele>
        <time>2021-08-15T12:47:04Z</time>
      </trkpt>
      <trkpt lat="45.49455" lon="6.70062">
        <ele>2263.3</ele>
        <time>2021-08-15T12:47:05Z</time>
      </trkpt>
      <trkpt lat="45.49455" lon="6.70062">
        <ele>2263.3</ele>
        <time>2021-08-15T12:47:06Z</time>
      </trkpt>
      <trkpt lat="45.49455" lon="6.70062">
        <ele>2263.3</ele>
        <time>2021-08-15T12:47:07Z</time>
      </trkpt>
      <trkpt lat="45.49455" lon="6.70062">
        <ele>2263.3</ele>
        <time>2021-08-15T12:47:08Z</time>
      </trkpt>
      <trkpt lat="45.49455" lon="6.70061">
        <ele>2263.3</ele>
        <time>2021-08-15T12:47:09Z</time>
      </trkpt>
      <trkpt lat="45.49455" lon="6.70061">
        <ele>2263.2</ele>
        <time>2021-08-15T12:47:10Z</time>
      </trkpt>
      <trkpt lat="45.49454" lon="6.70061">
        <ele>2263.2</ele>
        <time>2021-08-15T12:47:11Z</time>
      </trkpt>
      <trkpt lat="45.49454" lon="6.70061">
        <ele>2263.1</ele>
        <time>2021-08-15T12:47:12Z</time>
      </trkpt>
      <trkpt lat="45.49453" lon="6.70061">
        <ele>2263</ele>
        <time>2021-08-15T12:47:13Z</time>
      </trkpt>
      <trkpt lat="45.49453" lon="6.70061">
        <ele>2263</ele>
        <time>2021-08-15T12:47:14Z</time>
      </trkpt>
      <trkpt lat="45.49452" lon="6.70061">
        <ele>2263</ele>
        <time>2021-08-15T12:47:15Z</time>
      </trkpt>
      <trkpt lat="45.49452" lon="6.7006">
        <ele>2262.9</ele>
        <time>2021-08-15T12:47:16Z</time>
      </trkpt>
      <trkpt lat="45.49452" lon="6.7006">
        <ele>2262.9</ele>
        <time>2021-08-15T12:47:17Z</time>
      </trkpt>
      <trkpt lat="45.49452" lon="6.7006">
        <ele>2262.9</ele>
        <time>2021-08-15T12:47:18Z</time>
      </trkpt>
      <trkpt lat="45.49452" lon="6.7006">
        <ele>2262.9</ele>
        <time>2021-08-15T12:47:19Z</time>
      </trkpt>
      <trkpt lat="45.49452" lon="6.7006">
        <ele>2262.9</ele>
        <time>2021-08-15T12:47:20Z</time>
      </trkpt>
      <trkpt lat="45.49452" lon="6.7006">
        <ele>2262.9</ele>
        <time>2021-08-15T12:47:21Z</time>
      </trkpt>
      <trkpt lat="45.49452" lon="6.7006">
        <ele>2262.9</ele>
        <time>2021-08-15T12:47:22Z</time>
      </trkpt>
      <trkpt lat="45.49452" lon="6.7006">
        <ele>2262.9</ele>
        <time>2021-08-15T12:47:23Z</time>
      </trkpt>
      <trkpt lat="45.49452" lon="6.7006">
        <ele>2262.9</ele>
        <time>2021-08-15T12:47:24Z</time>
      </trkpt>
      <trkpt lat="45.49452" lon="6.7006">
        <ele>2262.8</ele>
        <time>2021-08-15T12:47:25Z</time>
      </trkpt>
      <trkpt lat="45.49452" lon="6.7006">
        <ele>2262.8</ele>
        <time>2021-08-15T12:47:26Z</time>
      </trkpt>
      <trkpt lat="45.49452" lon="6.7006">
        <ele>2262.8</ele>
        <time>2021-08-15T12:47:27Z</time>
      </trkpt>
      <trkpt lat="45.49452" lon="6.70059">
        <ele>2262.8</ele>
        <time>2021-08-15T12:47:28Z</time>
      </trkpt>
      <trkpt lat="45.49451" lon="6.70059">
        <ele>2262.7</ele>
        <time>2021-08-15T12:47:29Z</time>
      </trkpt>
      <trkpt lat="45.49451" lon="6.70058">
        <ele>2262.7</ele>
        <time>2021-08-15T12:47:30Z</time>
      </trkpt>
      <trkpt lat="45.49451" lon="6.70058">
        <ele>2262.7</ele>
        <time>2021-08-15T12:47:31Z</time>
      </trkpt>
      <trkpt lat="45.49451" lon="6.70057">
        <ele>2262.6</ele>
        <time>2021-08-15T12:47:32Z</time>
      </trkpt>
      <trkpt lat="45.49451" lon="6.70057">
        <ele>2262.6</ele>
        <time>2021-08-15T12:47:33Z</time>
      </trkpt>
      <trkpt lat="45.49451" lon="6.70056">
        <ele>2262.5</ele>
        <time>2021-08-15T12:47:34Z</time>
      </trkpt>
      <trkpt lat="45.49452" lon="6.70055">
        <ele>2262.4</ele>
        <time>2021-08-15T12:47:35Z</time>
      </trkpt>
      <trkpt lat="45.49452" lon="6.70054">
        <ele>2262.4</ele>
        <time>2021-08-15T12:47:36Z</time>
      </trkpt>
      <trkpt lat="45.49452" lon="6.70053">
        <ele>2262.3</ele>
        <time>2021-08-15T12:47:37Z</time>
      </trkpt>
      <trkpt lat="45.49453" lon="6.70052">
        <ele>2262.2</ele>
        <time>2021-08-15T12:47:38Z</time>
      </trkpt>
      <trkpt lat="45.49453" lon="6.70051">
        <ele>2262.1</ele>
        <time>2021-08-15T12:47:39Z</time>
      </trkpt>
      <trkpt lat="45.49454" lon="6.7005">
        <ele>2262</ele>
        <time>2021-08-15T12:47:40Z</time>
      </trkpt>
      <trkpt lat="45.49454" lon="6.70049">
        <ele>2261.9</ele>
        <time>2021-08-15T12:47:41Z</time>
      </trkpt>
      <trkpt lat="45.49455" lon="6.70048">
        <ele>2261.8</ele>
        <time>2021-08-15T12:47:42Z</time>
      </trkpt>
      <trkpt lat="45.49455" lon="6.70047">
        <ele>2261.7</ele>
        <time>2021-08-15T12:47:43Z</time>
      </trkpt>
      <trkpt lat="45.49456" lon="6.70046">
        <ele>2261.7</ele>
        <time>2021-08-15T12:47:44Z</time>
      </trkpt>
      <trkpt lat="45.49456" lon="6.70045">
        <ele>2261.6</ele>
        <time>2021-08-15T12:47:45Z</time>
      </trkpt>
      <trkpt lat="45.49457" lon="6.70044">
        <ele>2261.5</ele>
        <time>2021-08-15T12:47:46Z</time>
      </trkpt>
      <trkpt lat="45.49457" lon="6.70043">
        <ele>2261.4</ele>
        <time>2021-08-15T12:47:47Z</time>
      </trkpt>
      <trkpt lat="45.49458" lon="6.70042">
        <ele>2261.3</ele>
        <time>2021-08-15T12:47:48Z</time>
      </trkpt>
      <trkpt lat="45.49459" lon="6.70042">
        <ele>2261.2</ele>
        <time>2021-08-15T12:47:49Z</time>
      </trkpt>
      <trkpt lat="45.49459" lon="6.70041">
        <ele>2261.1</ele>
        <time>2021-08-15T12:47:50Z</time>
      </trkpt>
      <trkpt lat="45.4946" lon="6.7004">
        <ele>2261</ele>
        <time>2021-08-15T12:47:51Z</time>
      </trkpt>
      <trkpt lat="45.4946" lon="6.70039">
        <ele>2261</ele>
        <time>2021-08-15T12:47:52Z</time>
      </trkpt>
      <trkpt lat="45.49461" lon="6.70038">
        <ele>2260.9</ele>
        <time>2021-08-15T12:47:53Z</time>
      </trkpt>
      <trkpt lat="45.49461" lon="6.70038">
        <ele>2260.8</ele>
        <time>2021-08-15T12:47:54Z</time>
      </trkpt>
      <trkpt lat="45.49462" lon="6.70037">
        <ele>2260.7</ele>
        <time>2021-08-15T12:47:55Z</time>
      </trkpt>
      <trkpt lat="45.49462" lon="6.70036">
        <ele>2260.6</ele>
        <time>2021-08-15T12:47:56Z</time>
      </trkpt>
      <trkpt lat="45.49463" lon="6.70036">
        <ele>2260.5</ele>
        <time>2021-08-15T12:47:57Z</time>
      </trkpt>
      <trkpt lat="45.49463" lon="6.70035">
        <ele>2260.5</ele>
        <time>2021-08-15T12:47:58Z</time>
      </trkpt>
      <trkpt lat="45.49464" lon="6.70034">
        <ele>2260.4</ele>
        <time>2021-08-15T12:47:59Z</time>
      </trkpt>
      <trkpt lat="45.49465" lon="6.70034">
        <ele>2260.3</ele>
        <time>2021-08-15T12:48:00Z</time>
      </trkpt>
      <trkpt lat="45.49465" lon="6.70033">
        <ele>2260.2</ele>
        <time>2021-08-15T12:48:01Z</time>
      </trkpt>
      <trkpt lat="45.49466" lon="6.70032">
        <ele>2260.1</ele>
        <time>2021-08-15T12:48:02Z</time>
      </trkpt>
      <trkpt lat="45.49467" lon="6.70032">
        <ele>2260</ele>
        <time>2021-08-15T12:48:03Z</time>
      </trkpt>
      <trkpt lat="45.49467" lon="6.70031">
        <ele>2259.9</ele>
        <time>2021-08-15T12:48:04Z</time>
      </trkpt>
      <trkpt lat="45.49468" lon="6.70031">
        <ele>2259.8</ele>
        <time>2021-08-15T12:48:05Z</time>
      </trkpt>
      <trkpt lat="45.49469" lon="6.7003">
        <ele>2259.7</ele>
        <time>2021-08-15T12:48:06Z</time>
      </trkpt>
      <trkpt lat="45.4947" lon="6.7003">
        <ele>2259.6</ele>
        <time>2021-08-15T12:48:07Z</time>
      </trkpt>
      <trkpt lat="45.4947" lon="6.70029">
        <ele>2259.5</ele>
        <time>2021-08-15T12:48:08Z</time>
      </trkpt>
      <trkpt lat="45.49471" lon="6.70029">
        <ele>2259.4</ele>
        <time>2021-08-15T12:48:09Z</time>
      </trkpt>
      <trkpt lat="45.49472" lon="6.70028">
        <ele>2259.3</ele>
        <time>2021-08-15T12:48:10Z</time>
      </trkpt>
      <trkpt lat="45.49473" lon="6.70028">
        <ele>2259.2</ele>
        <time>2021-08-15T12:48:11Z</time>
      </trkpt>
      <trkpt lat="45.49474" lon="6.70028">
        <ele>2259.1</ele>
        <time>2021-08-15T12:48:12Z</time>
      </trkpt>
      <trkpt lat="45.49474" lon="6.70028">
        <ele>2259</ele>
        <time>2021-08-15T12:48:13Z</time>
      </trkpt>
      <trkpt lat="45.49475" lon="6.70028">
        <ele>2258.9</ele>
        <time>2021-08-15T12:48:14Z</time>
      </trkpt>
      <trkpt lat="45.49476" lon="6.70028">
        <ele>2258.8</ele>
        <time>2021-08-15T12:48:15Z</time>
      </trkpt>
      <trkpt lat="45.49477" lon="6.70028">
        <ele>2258.8</ele>
        <time>2021-08-15T12:48:16Z</time>
      </trkpt>
      <trkpt lat="45.49477" lon="6.70028">
        <ele>2258.7</ele>
        <time>2021-08-15T12:48:17Z</time>
      </trkpt>
      <trkpt lat="45.49478" lon="6.70028">
        <ele>2258.7</ele>
        <time>2021-08-15T12:48:18Z</time>
      </trkpt>
      <trkpt lat="45.49478" lon="6.70028">
        <ele>2258.6</ele>
        <time>2021-08-15T12:48:19Z</time>
      </trkpt>
      <trkpt lat="45.49478" lon="6.70028">
        <ele>2258.6</ele>
        <time>2021-08-15T12:48:20Z</time>
      </trkpt>
      <trkpt lat="45.49478" lon="6.70028">
        <ele>2258.6</ele>
        <time>2021-08-15T12:48:21Z</time>
      </trkpt>
      <trkpt lat="45.49478" lon="6.70028">
        <ele>2258.6</ele>
        <time>2021-08-15T12:48:22Z</time>
      </trkpt>
      <trkpt lat="45.49477" lon="6.70028">
        <ele>2258.6</ele>
        <time>2021-08-15T12:48:23Z</time>
      </trkpt>
      <trkpt lat="45.49477" lon="6.70028">
        <ele>2258.5</ele>
        <time>2021-08-15T12:48:24Z</time>
      </trkpt>
      <trkpt lat="45.49477" lon="6.70028">
        <ele>2258.5</ele>
        <time>2021-08-15T12:48:25Z</time>
      </trkpt>
      <trkpt lat="45.49476" lon="6.70027">
        <ele>2258.4</ele>
        <time>2021-08-15T12:48:26Z</time>
      </trkpt>
      <trkpt lat="45.49476" lon="6.70027">
        <ele>2258.4</ele>
        <time>2021-08-15T12:48:27Z</time>
      </trkpt>
      <trkpt lat="45.49475" lon="6.70027">
        <ele>2258.3</ele>
        <time>2021-08-15T12:48:28Z</time>
      </trkpt>
      <trkpt lat="45.49475" lon="6.70026">
        <ele>2258.3</ele>
        <time>2021-08-15T12:48:29Z</time>
      </trkpt>
      <trkpt lat="45.49475" lon="6.70026">
        <ele>2258.2</ele>
        <time>2021-08-15T12:48:30Z</time>
      </trkpt>
      <trkpt lat="45.49475" lon="6.70026">
        <ele>2258.2</ele>
        <time>2021-08-15T12:48:31Z</time>
      </trkpt>
      <trkpt lat="45.49474" lon="6.70025">
        <ele>2258.2</ele>
        <time>2021-08-15T12:48:32Z</time>
      </trkpt>
      <trkpt lat="45.49475" lon="6.70025">
        <ele>2258.1</ele>
        <time>2021-08-15T12:48:33Z</time>
      </trkpt>
      <trkpt lat="45.49475" lon="6.70025">
        <ele>2258.1</ele>
        <time>2021-08-15T12:48:34Z</time>
      </trkpt>
      <trkpt lat="45.49475" lon="6.70024">
        <ele>2258.1</ele>
        <time>2021-08-15T12:48:35Z</time>
      </trkpt>
      <trkpt lat="45.49475" lon="6.70024">
        <ele>2258</ele>
        <time>2021-08-15T12:48:36Z</time>
      </trkpt>
      <trkpt lat="45.49476" lon="6.70024">
        <ele>2258</ele>
        <time>2021-08-15T12:48:37Z</time>
      </trkpt>
      <trkpt lat="45.49476" lon="6.70024">
        <ele>2257.9</ele>
        <time>2021-08-15T12:48:38Z</time>
      </trkpt>
      <trkpt lat="45.49477" lon="6.70024">
        <ele>2257.8</ele>
        <time>2021-08-15T12:48:39Z</time>
      </trkpt>
      <trkpt lat="45.49478" lon="6.70024">
        <ele>2257.8</ele>
        <time>2021-08-15T12:48:40Z</time>
      </trkpt>
      <trkpt lat="45.49478" lon="6.70024">
        <ele>2257.7</ele>
        <time>2021-08-15T12:48:41Z</time>
      </trkpt>
      <trkpt lat="45.49479" lon="6.70024">
        <ele>2257.6</ele>
        <time>2021-08-15T12:48:42Z</time>
      </trkpt>
      <trkpt lat="45.4948" lon="6.70024">
        <ele>2257.5</ele>
        <time>2021-08-15T12:48:43Z</time>
      </trkpt>
      <trkpt lat="45.49481" lon="6.70024">
        <ele>2257.4</ele>
        <time>2021-08-15T12:48:44Z</time>
      </trkpt>
      <trkpt lat="45.49482" lon="6.70024">
        <ele>2257.3</ele>
        <time>2021-08-15T12:48:45Z</time>
      </trkpt>
      <trkpt lat="45.49483" lon="6.70024">
        <ele>2257.2</ele>
        <time>2021-08-15T12:48:46Z</time>
      </trkpt>
      <trkpt lat="45.49484" lon="6.70024">
        <ele>2257.1</ele>
        <time>2021-08-15T12:48:47Z</time>
      </trkpt>
      <trkpt lat="45.49485" lon="6.70025">
        <ele>2256.4</ele>
        <time>2021-08-15T12:48:48Z</time>
      </trkpt>
      <trkpt lat="45.49486" lon="6.70025">
        <ele>2256.2</ele>
        <time>2021-08-15T12:48:49Z</time>
      </trkpt>
      <trkpt lat="45.49486" lon="6.70025">
        <ele>2256.1</ele>
        <time>2021-08-15T12:48:50Z</time>
      </trkpt>
      <trkpt lat="45.49487" lon="6.70025">
        <ele>2256</ele>
        <time>2021-08-15T12:48:51Z</time>
      </trkpt>
      <trkpt lat="45.49488" lon="6.70025">
        <ele>2255.9</ele>
        <time>2021-08-15T12:48:52Z</time>
      </trkpt>
      <trkpt lat="45.49489" lon="6.70024">
        <ele>2255.8</ele>
        <time>2021-08-15T12:48:53Z</time>
      </trkpt>
      <trkpt lat="45.4949" lon="6.70024">
        <ele>2255.6</ele>
        <time>2021-08-15T12:48:54Z</time>
      </trkpt>
      <trkpt lat="45.49491" lon="6.70024">
        <ele>2255.5</ele>
        <time>2021-08-15T12:48:55Z</time>
      </trkpt>
      <trkpt lat="45.49492" lon="6.70024">
        <ele>2255.4</ele>
        <time>2021-08-15T12:48:56Z</time>
      </trkpt>
      <trkpt lat="45.49492" lon="6.70024">
        <ele>2255.4</ele>
        <time>2021-08-15T12:48:57Z</time>
      </trkpt>
      <trkpt lat="45.49493" lon="6.70024">
        <ele>2255.3</ele>
        <time>2021-08-15T12:48:58Z</time>
      </trkpt>
      <trkpt lat="45.49494" lon="6.70025">
        <ele>2255.2</ele>
        <time>2021-08-15T12:48:59Z</time>
      </trkpt>
      <trkpt lat="45.49494" lon="6.70026">
        <ele>2255.1</ele>
        <time>2021-08-15T12:49:00Z</time>
      </trkpt>
      <trkpt lat="45.49495" lon="6.70027">
        <ele>2255</ele>
        <time>2021-08-15T12:49:01Z</time>
      </trkpt>
      <trkpt lat="45.49495" lon="6.70028">
        <ele>2254.8</ele>
        <time>2021-08-15T12:49:02Z</time>
      </trkpt>
      <trkpt lat="45.49496" lon="6.70028">
        <ele>2254.7</ele>
        <time>2021-08-15T12:49:03Z</time>
      </trkpt>
      <trkpt lat="45.49497" lon="6.70029">
        <ele>2254.6</ele>
        <time>2021-08-15T12:49:04Z</time>
      </trkpt>
      <trkpt lat="45.49497" lon="6.7003">
        <ele>2254.5</ele>
        <time>2021-08-15T12:49:05Z</time>
      </trkpt>
      <trkpt lat="45.49498" lon="6.7003">
        <ele>2254.4</ele>
        <time>2021-08-15T12:49:06Z</time>
      </trkpt>
      <trkpt lat="45.49499" lon="6.70031">
        <ele>2254.3</ele>
        <time>2021-08-15T12:49:07Z</time>
      </trkpt>
      <trkpt lat="45.495" lon="6.70031">
        <ele>2254.1</ele>
        <time>2021-08-15T12:49:08Z</time>
      </trkpt>
      <trkpt lat="45.49501" lon="6.70032">
        <ele>2254</ele>
        <time>2021-08-15T12:49:09Z</time>
      </trkpt>
      <trkpt lat="45.49501" lon="6.70032">
        <ele>2253.9</ele>
        <time>2021-08-15T12:49:10Z</time>
      </trkpt>
      <trkpt lat="45.49502" lon="6.70033">
        <ele>2253.8</ele>
        <time>2021-08-15T12:49:11Z</time>
      </trkpt>
      <trkpt lat="45.49503" lon="6.70033">
        <ele>2253.7</ele>
        <time>2021-08-15T12:49:12Z</time>
      </trkpt>
      <trkpt lat="45.49503" lon="6.70034">
        <ele>2253.6</ele>
        <time>2021-08-15T12:49:13Z</time>
      </trkpt>
      <trkpt lat="45.49504" lon="6.70034">
        <ele>2253.5</ele>
        <time>2021-08-15T12:49:14Z</time>
      </trkpt>
      <trkpt lat="45.49505" lon="6.70035">
        <ele>2253.3</ele>
        <time>2021-08-15T12:49:15Z</time>
      </trkpt>
      <trkpt lat="45.49505" lon="6.70036">
        <ele>2253.2</ele>
        <time>2021-08-15T12:49:16Z</time>
      </trkpt>
      <trkpt lat="45.49506" lon="6.70037">
        <ele>2253.1</ele>
        <time>2021-08-15T12:49:17Z</time>
      </trkpt>
      <trkpt lat="45.49507" lon="6.70038">
        <ele>2253</ele>
        <time>2021-08-15T12:49:18Z</time>
      </trkpt>
      <trkpt lat="45.49507" lon="6.70038">
        <ele>2252.8</ele>
        <time>2021-08-15T12:49:19Z</time>
      </trkpt>
      <trkpt lat="45.49508" lon="6.70039">
        <ele>2252.7</ele>
        <time>2021-08-15T12:49:20Z</time>
      </trkpt>
      <trkpt lat="45.49509" lon="6.7004">
        <ele>2252.6</ele>
        <time>2021-08-15T12:49:21Z</time>
      </trkpt>
      <trkpt lat="45.4951" lon="6.70041">
        <ele>2252.4</ele>
        <time>2021-08-15T12:49:22Z</time>
      </trkpt>
      <trkpt lat="45.49511" lon="6.70041">
        <ele>2252.3</ele>
        <time>2021-08-15T12:49:23Z</time>
      </trkpt>
      <trkpt lat="45.49511" lon="6.70042">
        <ele>2252.2</ele>
        <time>2021-08-15T12:49:24Z</time>
      </trkpt>
      <trkpt lat="45.49512" lon="6.70042">
        <ele>2252</ele>
        <time>2021-08-15T12:49:25Z</time>
      </trkpt>
      <trkpt lat="45.49513" lon="6.70043">
        <ele>2251.9</ele>
        <time>2021-08-15T12:49:26Z</time>
      </trkpt>
      <trkpt lat="45.49514" lon="6.70044">
        <ele>2251.7</ele>
        <time>2021-08-15T12:49:27Z</time>
      </trkpt>
      <trkpt lat="45.49515" lon="6.70044">
        <ele>2251.6</ele>
        <time>2021-08-15T12:49:28Z</time>
      </trkpt>
      <trkpt lat="45.49516" lon="6.70045">
        <ele>2251.4</ele>
        <time>2021-08-15T12:49:29Z</time>
      </trkpt>
      <trkpt lat="45.49517" lon="6.70045">
        <ele>2251.3</ele>
        <time>2021-08-15T12:49:30Z</time>
      </trkpt>
      <trkpt lat="45.49518" lon="6.70046">
        <ele>2251.1</ele>
        <time>2021-08-15T12:49:31Z</time>
      </trkpt>
      <trkpt lat="45.49518" lon="6.70047">
        <ele>2251</ele>
        <time>2021-08-15T12:49:32Z</time>
      </trkpt>
      <trkpt lat="45.49519" lon="6.70047">
        <ele>2250.9</ele>
        <time>2021-08-15T12:49:33Z</time>
      </trkpt>
      <trkpt lat="45.4952" lon="6.70048">
        <ele>2250.8</ele>
        <time>2021-08-15T12:49:34Z</time>
      </trkpt>
      <trkpt lat="45.4952" lon="6.70049">
        <ele>2250.6</ele>
        <time>2021-08-15T12:49:35Z</time>
      </trkpt>
      <trkpt lat="45.49521" lon="6.70049">
        <ele>2250.5</ele>
        <time>2021-08-15T12:49:36Z</time>
      </trkpt>
      <trkpt lat="45.49522" lon="6.7005">
        <ele>2250.4</ele>
        <time>2021-08-15T12:49:37Z</time>
      </trkpt>
      <trkpt lat="45.49522" lon="6.7005">
        <ele>2250.3</ele>
        <time>2021-08-15T12:49:38Z</time>
      </trkpt>
      <trkpt lat="45.49523" lon="6.70051">
        <ele>2250.3</ele>
        <time>2021-08-15T12:49:39Z</time>
      </trkpt>
      <trkpt lat="45.49523" lon="6.70051">
        <ele>2250.2</ele>
        <time>2021-08-15T12:49:40Z</time>
      </trkpt>
      <trkpt lat="45.49524" lon="6.70051">
        <ele>2250.1</ele>
        <time>2021-08-15T12:49:41Z</time>
      </trkpt>
      <trkpt lat="45.49524" lon="6.70051">
        <ele>2250</ele>
        <time>2021-08-15T12:49:42Z</time>
      </trkpt>
      <trkpt lat="45.49524" lon="6.70051">
        <ele>2250</ele>
        <time>2021-08-15T12:49:43Z</time>
      </trkpt>
      <trkpt lat="45.49525" lon="6.70051">
        <ele>2249.9</ele>
        <time>2021-08-15T12:49:44Z</time>
      </trkpt>
      <trkpt lat="45.49525" lon="6.70051">
        <ele>2249.8</ele>
        <time>2021-08-15T12:49:45Z</time>
      </trkpt>
      <trkpt lat="45.49526" lon="6.70051">
        <ele>2249.8</ele>
        <time>2021-08-15T12:49:46Z</time>
      </trkpt>
      <trkpt lat="45.49526" lon="6.70051">
        <ele>2249.7</ele>
        <time>2021-08-15T12:49:47Z</time>
      </trkpt>
      <trkpt lat="45.49527" lon="6.70052">
        <ele>2249.6</ele>
        <time>2021-08-15T12:49:48Z</time>
      </trkpt>
      <trkpt lat="45.49528" lon="6.70053">
        <ele>2249.5</ele>
        <time>2021-08-15T12:49:49Z</time>
      </trkpt>
      <trkpt lat="45.49528" lon="6.70053">
        <ele>2249.3</ele>
        <time>2021-08-15T12:49:50Z</time>
      </trkpt>
      <trkpt lat="45.49529" lon="6.70054">
        <ele>2249.2</ele>
        <time>2021-08-15T12:49:51Z</time>
      </trkpt>
      <trkpt lat="45.4953" lon="6.70055">
        <ele>2249.1</ele>
        <time>2021-08-15T12:49:52Z</time>
      </trkpt>
      <trkpt lat="45.49531" lon="6.70056">
        <ele>2249</ele>
        <time>2021-08-15T12:49:53Z</time>
      </trkpt>
      <trkpt lat="45.49531" lon="6.70057">
        <ele>2248.8</ele>
        <time>2021-08-15T12:49:54Z</time>
      </trkpt>
      <trkpt lat="45.49532" lon="6.70058">
        <ele>2248.7</ele>
        <time>2021-08-15T12:49:55Z</time>
      </trkpt>
      <trkpt lat="45.49533" lon="6.70058">
        <ele>2248.6</ele>
        <time>2021-08-15T12:49:56Z</time>
      </trkpt>
      <trkpt lat="45.49533" lon="6.70059">
        <ele>2248.4</ele>
        <time>2021-08-15T12:49:57Z</time>
      </trkpt>
      <trkpt lat="45.49534" lon="6.7006">
        <ele>2248.3</ele>
        <time>2021-08-15T12:49:58Z</time>
      </trkpt>
      <trkpt lat="45.49535" lon="6.70061">
        <ele>2248.2</ele>
        <time>2021-08-15T12:49:59Z</time>
      </trkpt>
      <trkpt lat="45.49535" lon="6.70062">
        <ele>2248.1</ele>
        <time>2021-08-15T12:50:00Z</time>
      </trkpt>
      <trkpt lat="45.49536" lon="6.70063">
        <ele>2248</ele>
        <time>2021-08-15T12:50:01Z</time>
      </trkpt>
      <trkpt lat="45.49537" lon="6.70064">
        <ele>2247.9</ele>
        <time>2021-08-15T12:50:02Z</time>
      </trkpt>
      <trkpt lat="45.49537" lon="6.70065">
        <ele>2247.8</ele>
        <time>2021-08-15T12:50:03Z</time>
      </trkpt>
      <trkpt lat="45.49538" lon="6.70065">
        <ele>2247.7</ele>
        <time>2021-08-15T12:50:04Z</time>
      </trkpt>
      <trkpt lat="45.49538" lon="6.70066">
        <ele>2247.6</ele>
        <time>2021-08-15T12:50:05Z</time>
      </trkpt>
      <trkpt lat="45.49539" lon="6.70067">
        <ele>2247.5</ele>
        <time>2021-08-15T12:50:06Z</time>
      </trkpt>
      <trkpt lat="45.49539" lon="6.70067">
        <ele>2247.5</ele>
        <time>2021-08-15T12:50:07Z</time>
      </trkpt>
      <trkpt lat="45.49539" lon="6.70068">
        <ele>2247.5</ele>
        <time>2021-08-15T12:50:08Z</time>
      </trkpt>
      <trkpt lat="45.49539" lon="6.70068">
        <ele>2247.4</ele>
        <time>2021-08-15T12:50:09Z</time>
      </trkpt>
      <trkpt lat="45.49539" lon="6.70069">
        <ele>2247.4</ele>
        <time>2021-08-15T12:50:10Z</time>
      </trkpt>
      <trkpt lat="45.4954" lon="6.70069">
        <ele>2247.3</ele>
        <time>2021-08-15T12:50:11Z</time>
      </trkpt>
      <trkpt lat="45.4954" lon="6.70069">
        <ele>2247.3</ele>
        <time>2021-08-15T12:50:12Z</time>
      </trkpt>
      <trkpt lat="45.49541" lon="6.7007">
        <ele>2247.2</ele>
        <time>2021-08-15T12:50:13Z</time>
      </trkpt>
      <trkpt lat="45.49541" lon="6.7007">
        <ele>2247.1</ele>
        <time>2021-08-15T12:50:14Z</time>
      </trkpt>
      <trkpt lat="45.49542" lon="6.70071">
        <ele>2247.1</ele>
        <time>2021-08-15T12:50:15Z</time>
      </trkpt>
      <trkpt lat="45.49543" lon="6.70071">
        <ele>2247</ele>
        <time>2021-08-15T12:50:16Z</time>
      </trkpt>
      <trkpt lat="45.49543" lon="6.70072">
        <ele>2246.9</ele>
        <time>2021-08-15T12:50:17Z</time>
      </trkpt>
      <trkpt lat="45.49544" lon="6.70072">
        <ele>2246.8</ele>
        <time>2021-08-15T12:50:18Z</time>
      </trkpt>
      <trkpt lat="45.49545" lon="6.70073">
        <ele>2246.7</ele>
        <time>2021-08-15T12:50:19Z</time>
      </trkpt>
      <trkpt lat="45.49546" lon="6.70074">
        <ele>2246.6</ele>
        <time>2021-08-15T12:50:20Z</time>
      </trkpt>
      <trkpt lat="45.49547" lon="6.70074">
        <ele>2246.5</ele>
        <time>2021-08-15T12:50:21Z</time>
      </trkpt>
      <trkpt lat="45.49547" lon="6.70075">
        <ele>2246.4</ele>
        <time>2021-08-15T12:50:22Z</time>
      </trkpt>
      <trkpt lat="45.49548" lon="6.70076">
        <ele>2246.3</ele>
        <time>2021-08-15T12:50:23Z</time>
      </trkpt>
      <trkpt lat="45.49549" lon="6.70076">
        <ele>2246.2</ele>
        <time>2021-08-15T12:50:24Z</time>
      </trkpt>
      <trkpt lat="45.4955" lon="6.70077">
        <ele>2246.1</ele>
        <time>2021-08-15T12:50:25Z</time>
      </trkpt>
      <trkpt lat="45.49551" lon="6.70077">
        <ele>2246</ele>
        <time>2021-08-15T12:50:26Z</time>
      </trkpt>
      <trkpt lat="45.49551" lon="6.70078">
        <ele>2245.9</ele>
        <time>2021-08-15T12:50:27Z</time>
      </trkpt>
      <trkpt lat="45.49552" lon="6.70078">
        <ele>2245.8</ele>
        <time>2021-08-15T12:50:28Z</time>
      </trkpt>
      <trkpt lat="45.49553" lon="6.70079">
        <ele>2245.7</ele>
        <time>2021-08-15T12:50:29Z</time>
      </trkpt>
      <trkpt lat="45.49554" lon="6.70079">
        <ele>2245.6</ele>
        <time>2021-08-15T12:50:30Z</time>
      </trkpt>
      <trkpt lat="45.49554" lon="6.70079">
        <ele>2245.5</ele>
        <time>2021-08-15T12:50:31Z</time>
      </trkpt>
      <trkpt lat="45.49555" lon="6.7008">
        <ele>2245.4</ele>
        <time>2021-08-15T12:50:32Z</time>
      </trkpt>
      <trkpt lat="45.49556" lon="6.7008">
        <ele>2245.3</ele>
        <time>2021-08-15T12:50:33Z</time>
      </trkpt>
      <trkpt lat="45.49557" lon="6.7008">
        <ele>2245.2</ele>
        <time>2021-08-15T12:50:34Z</time>
      </trkpt>
      <trkpt lat="45.49558" lon="6.7008">
        <ele>2245.1</ele>
        <time>2021-08-15T12:50:35Z</time>
      </trkpt>
      <trkpt lat="45.49559" lon="6.7008">
        <ele>2245</ele>
        <time>2021-08-15T12:50:36Z</time>
      </trkpt>
      <trkpt lat="45.4956" lon="6.7008">
        <ele>2244.9</ele>
        <time>2021-08-15T12:50:37Z</time>
      </trkpt>
      <trkpt lat="45.49561" lon="6.7008">
        <ele>2244.8</ele>
        <time>2021-08-15T12:50:38Z</time>
      </trkpt>
      <trkpt lat="45.49562" lon="6.7008">
        <ele>2244.7</ele>
        <time>2021-08-15T12:50:39Z</time>
      </trkpt>
      <trkpt lat="45.49563" lon="6.7008">
        <ele>2244.6</ele>
        <time>2021-08-15T12:50:40Z</time>
      </trkpt>
      <trkpt lat="45.49563" lon="6.7008">
        <ele>2244.4</ele>
        <time>2021-08-15T12:50:41Z</time>
      </trkpt>
      <trkpt lat="45.49564" lon="6.7008">
        <ele>2244.3</ele>
        <time>2021-08-15T12:50:42Z</time>
      </trkpt>
      <trkpt lat="45.49565" lon="6.7008">
        <ele>2244.2</ele>
        <time>2021-08-15T12:50:43Z</time>
      </trkpt>
      <trkpt lat="45.49566" lon="6.7008">
        <ele>2244.1</ele>
        <time>2021-08-15T12:50:44Z</time>
      </trkpt>
      <trkpt lat="45.49567" lon="6.7008">
        <ele>2244</ele>
        <time>2021-08-15T12:50:45Z</time>
      </trkpt>
      <trkpt lat="45.49568" lon="6.7008">
        <ele>2243.9</ele>
        <time>2021-08-15T12:50:46Z</time>
      </trkpt>
      <trkpt lat="45.49569" lon="6.7008">
        <ele>2243.8</ele>
        <time>2021-08-15T12:50:47Z</time>
      </trkpt>
      <trkpt lat="45.4957" lon="6.7008">
        <ele>2243.7</ele>
        <time>2021-08-15T12:50:48Z</time>
      </trkpt>
      <trkpt lat="45.4957" lon="6.70081">
        <ele>2243.6</ele>
        <time>2021-08-15T12:50:49Z</time>
      </trkpt>
      <trkpt lat="45.49571" lon="6.70081">
        <ele>2243.4</ele>
        <time>2021-08-15T12:50:50Z</time>
      </trkpt>
      <trkpt lat="45.49572" lon="6.70081">
        <ele>2243.3</ele>
        <time>2021-08-15T12:50:51Z</time>
      </trkpt>
      <trkpt lat="45.49573" lon="6.70081">
        <ele>2243.2</ele>
        <time>2021-08-15T12:50:52Z</time>
      </trkpt>
      <trkpt lat="45.49574" lon="6.70082">
        <ele>2243.1</ele>
        <time>2021-08-15T12:50:53Z</time>
      </trkpt>
      <trkpt lat="45.49575" lon="6.70082">
        <ele>2243</ele>
        <time>2021-08-15T12:50:54Z</time>
      </trkpt>
      <trkpt lat="45.49575" lon="6.70082">
        <ele>2242.9</ele>
        <time>2021-08-15T12:50:55Z</time>
      </trkpt>
      <trkpt lat="45.49576" lon="6.70082">
        <ele>2242.7</ele>
        <time>2021-08-15T12:50:56Z</time>
      </trkpt>
      <trkpt lat="45.49577" lon="6.70083">
        <ele>2242.6</ele>
        <time>2021-08-15T12:50:57Z</time>
      </trkpt>
      <trkpt lat="45.49578" lon="6.70083">
        <ele>2242.5</ele>
        <time>2021-08-15T12:50:58Z</time>
      </trkpt>
      <trkpt lat="45.49579" lon="6.70083">
        <ele>2242.4</ele>
        <time>2021-08-15T12:50:59Z</time>
      </trkpt>
      <trkpt lat="45.4958" lon="6.70083">
        <ele>2242.2</ele>
        <time>2021-08-15T12:51:00Z</time>
      </trkpt>
      <trkpt lat="45.49581" lon="6.70084">
        <ele>2242.1</ele>
        <time>2021-08-15T12:51:01Z</time>
      </trkpt>
      <trkpt lat="45.49581" lon="6.70084">
        <ele>2242</ele>
        <time>2021-08-15T12:51:02Z</time>
      </trkpt>
      <trkpt lat="45.49582" lon="6.70084">
        <ele>2241.9</ele>
        <time>2021-08-15T12:51:03Z</time>
      </trkpt>
      <trkpt lat="45.49583" lon="6.70084">
        <ele>2241.7</ele>
        <time>2021-08-15T12:51:04Z</time>
      </trkpt>
      <trkpt lat="45.49584" lon="6.70085">
        <ele>2241.6</ele>
        <time>2021-08-15T12:51:05Z</time>
      </trkpt>
      <trkpt lat="45.49585" lon="6.70085">
        <ele>2241.5</ele>
        <time>2021-08-15T12:51:06Z</time>
      </trkpt>
      <trkpt lat="45.49586" lon="6.70085">
        <ele>2241.3</ele>
        <time>2021-08-15T12:51:07Z</time>
      </trkpt>
      <trkpt lat="45.49587" lon="6.70085">
        <ele>2241.2</ele>
        <time>2021-08-15T12:51:08Z</time>
      </trkpt>
      <trkpt lat="45.49587" lon="6.70086">
        <ele>2241.1</ele>
        <time>2021-08-15T12:51:09Z</time>
      </trkpt>
      <trkpt lat="45.49588" lon="6.70086">
        <ele>2241</ele>
        <time>2021-08-15T12:51:10Z</time>
      </trkpt>
      <trkpt lat="45.49589" lon="6.70086">
        <ele>2240.8</ele>
        <time>2021-08-15T12:51:11Z</time>
      </trkpt>
      <trkpt lat="45.4959" lon="6.70086">
        <ele>2240.7</ele>
        <time>2021-08-15T12:51:12Z</time>
      </trkpt>
      <trkpt lat="45.49591" lon="6.70086">
        <ele>2240.6</ele>
        <time>2021-08-15T12:51:13Z</time>
      </trkpt>
      <trkpt lat="45.49592" lon="6.70087">
        <ele>2240.5</ele>
        <time>2021-08-15T12:51:14Z</time>
      </trkpt>
      <trkpt lat="45.49593" lon="6.70087">
        <ele>2240.3</ele>
        <time>2021-08-15T12:51:15Z</time>
      </trkpt>
      <trkpt lat="45.49593" lon="6.70087">
        <ele>2240.2</ele>
        <time>2021-08-15T12:51:16Z</time>
      </trkpt>
      <trkpt lat="45.49594" lon="6.70087">
        <ele>2240.1</ele>
        <time>2021-08-15T12:51:17Z</time>
      </trkpt>
      <trkpt lat="45.49595" lon="6.70088">
        <ele>2240</ele>
        <time>2021-08-15T12:51:18Z</time>
      </trkpt>
      <trkpt lat="45.49596" lon="6.70088">
        <ele>2239.9</ele>
        <time>2021-08-15T12:51:19Z</time>
      </trkpt>
      <trkpt lat="45.49596" lon="6.70088">
        <ele>2239.8</ele>
        <time>2021-08-15T12:51:20Z</time>
      </trkpt>
      <trkpt lat="45.49597" lon="6.70088">
        <ele>2239.6</ele>
        <time>2021-08-15T12:51:21Z</time>
      </trkpt>
      <trkpt lat="45.49598" lon="6.70089">
        <ele>2239.5</ele>
        <time>2021-08-15T12:51:22Z</time>
      </trkpt>
      <trkpt lat="45.49599" lon="6.70089">
        <ele>2239.4</ele>
        <time>2021-08-15T12:51:23Z</time>
      </trkpt>
      <trkpt lat="45.49599" lon="6.70089">
        <ele>2239.3</ele>
        <time>2021-08-15T12:51:24Z</time>
      </trkpt>
      <trkpt lat="45.496" lon="6.70089">
        <ele>2239.2</ele>
        <time>2021-08-15T12:51:25Z</time>
      </trkpt>
      <trkpt lat="45.49601" lon="6.7009">
        <ele>2239.1</ele>
        <time>2021-08-15T12:51:26Z</time>
      </trkpt>
      <trkpt lat="45.49601" lon="6.7009">
        <ele>2239</ele>
        <time>2021-08-15T12:51:27Z</time>
      </trkpt>
      <trkpt lat="45.49602" lon="6.7009">
        <ele>2238.9</ele>
        <time>2021-08-15T12:51:28Z</time>
      </trkpt>
      <trkpt lat="45.49603" lon="6.70091">
        <ele>2238.8</ele>
        <time>2021-08-15T12:51:29Z</time>
      </trkpt>
      <trkpt lat="45.49603" lon="6.70091">
        <ele>2238.7</ele>
        <time>2021-08-15T12:51:30Z</time>
      </trkpt>
      <trkpt lat="45.49604" lon="6.70091">
        <ele>2238.6</ele>
        <time>2021-08-15T12:51:31Z</time>
      </trkpt>
      <trkpt lat="45.49604" lon="6.70092">
        <ele>2238.5</ele>
        <time>2021-08-15T12:51:32Z</time>
      </trkpt>
      <trkpt lat="45.49605" lon="6.70092">
        <ele>2238.4</ele>
        <time>2021-08-15T12:51:33Z</time>
      </trkpt>
      <trkpt lat="45.49606" lon="6.70092">
        <ele>2238.3</ele>
        <time>2021-08-15T12:51:34Z</time>
      </trkpt>
      <trkpt lat="45.49606" lon="6.70093">
        <ele>2238.2</ele>
        <time>2021-08-15T12:51:35Z</time>
      </trkpt>
      <trkpt lat="45.49607" lon="6.70093">
        <ele>2238.1</ele>
        <time>2021-08-15T12:51:36Z</time>
      </trkpt>
      <trkpt lat="45.49608" lon="6.70093">
        <ele>2238.1</ele>
        <time>2021-08-15T12:51:37Z</time>
      </trkpt>
      <trkpt lat="45.49608" lon="6.70094">
        <ele>2238</ele>
        <time>2021-08-15T12:51:38Z</time>
      </trkpt>
      <trkpt lat="45.49609" lon="6.70094">
        <ele>2237.9</ele>
        <time>2021-08-15T12:51:39Z</time>
      </trkpt>
      <trkpt lat="45.4961" lon="6.70094">
        <ele>2237.8</ele>
        <time>2021-08-15T12:51:40Z</time>
      </trkpt>
      <trkpt lat="45.4961" lon="6.70095">
        <ele>2237.7</ele>
        <time>2021-08-15T12:51:41Z</time>
      </trkpt>
      <trkpt lat="45.49611" lon="6.70095">
        <ele>2237.6</ele>
        <time>2021-08-15T12:51:42Z</time>
      </trkpt>
      <trkpt lat="45.49612" lon="6.70095">
        <ele>2237.5</ele>
        <time>2021-08-15T12:51:43Z</time>
      </trkpt>
      <trkpt lat="45.49612" lon="6.70095">
        <ele>2237.4</ele>
        <time>2021-08-15T12:51:44Z</time>
      </trkpt>
      <trkpt lat="45.49613" lon="6.70096">
        <ele>2237.3</ele>
        <time>2021-08-15T12:51:45Z</time>
      </trkpt>
      <trkpt lat="45.49614" lon="6.70096">
        <ele>2237.2</ele>
        <time>2021-08-15T12:51:46Z</time>
      </trkpt>
      <trkpt lat="45.49614" lon="6.70096">
        <ele>2237.1</ele>
        <time>2021-08-15T12:51:47Z</time>
      </trkpt>
      <trkpt lat="45.49615" lon="6.70097">
        <ele>2237</ele>
        <time>2021-08-15T12:51:48Z</time>
      </trkpt>
      <trkpt lat="45.49616" lon="6.70097">
        <ele>2236.9</ele>
        <time>2021-08-15T12:51:49Z</time>
      </trkpt>
      <trkpt lat="45.49616" lon="6.70097">
        <ele>2236.8</ele>
        <time>2021-08-15T12:51:50Z</time>
      </trkpt>
      <trkpt lat="45.49617" lon="6.70097">
        <ele>2236.7</ele>
        <time>2021-08-15T12:51:51Z</time>
      </trkpt>
      <trkpt lat="45.49618" lon="6.70098">
        <ele>2236.7</ele>
        <time>2021-08-15T12:51:52Z</time>
      </trkpt>
      <trkpt lat="45.49618" lon="6.70098">
        <ele>2236.6</ele>
        <time>2021-08-15T12:51:53Z</time>
      </trkpt>
      <trkpt lat="45.49619" lon="6.70098">
        <ele>2236.5</ele>
        <time>2021-08-15T12:51:54Z</time>
      </trkpt>
      <trkpt lat="45.49619" lon="6.70098">
        <ele>2236.4</ele>
        <time>2021-08-15T12:51:55Z</time>
      </trkpt>
      <trkpt lat="45.4962" lon="6.70099">
        <ele>2236.3</ele>
        <time>2021-08-15T12:51:56Z</time>
      </trkpt>
      <trkpt lat="45.4962" lon="6.70099">
        <ele>2236.3</ele>
        <time>2021-08-15T12:51:57Z</time>
      </trkpt>
      <trkpt lat="45.49621" lon="6.70099">
        <ele>2236.2</ele>
        <time>2021-08-15T12:51:58Z</time>
      </trkpt>
      <trkpt lat="45.49622" lon="6.701">
        <ele>2236.1</ele>
        <time>2021-08-15T12:51:59Z</time>
      </trkpt>
      <trkpt lat="45.49622" lon="6.701">
        <ele>2236</ele>
        <time>2021-08-15T12:52:00Z</time>
      </trkpt>
      <trkpt lat="45.49623" lon="6.70101">
        <ele>2235.9</ele>
        <time>2021-08-15T12:52:01Z</time>
      </trkpt>
      <trkpt lat="45.49624" lon="6.70101">
        <ele>2235.8</ele>
        <time>2021-08-15T12:52:02Z</time>
      </trkpt>
      <trkpt lat="45.49625" lon="6.70102">
        <ele>2235.7</ele>
        <time>2021-08-15T12:52:03Z</time>
      </trkpt>
      <trkpt lat="45.49625" lon="6.70102">
        <ele>2235.6</ele>
        <time>2021-08-15T12:52:04Z</time>
      </trkpt>
      <trkpt lat="45.49626" lon="6.70103">
        <ele>2235.4</ele>
        <time>2021-08-15T12:52:05Z</time>
      </trkpt>
      <trkpt lat="45.49627" lon="6.70103">
        <ele>2235.3</ele>
        <time>2021-08-15T12:52:06Z</time>
      </trkpt>
      <trkpt lat="45.49628" lon="6.70104">
        <ele>2235.2</ele>
        <time>2021-08-15T12:52:07Z</time>
      </trkpt>
      <trkpt lat="45.49629" lon="6.70104">
        <ele>2235.1</ele>
        <time>2021-08-15T12:52:08Z</time>
      </trkpt>
      <trkpt lat="45.4963" lon="6.70105">
        <ele>2234.9</ele>
        <time>2021-08-15T12:52:09Z</time>
      </trkpt>
      <trkpt lat="45.49631" lon="6.70105">
        <ele>2234.8</ele>
        <time>2021-08-15T12:52:10Z</time>
      </trkpt>
      <trkpt lat="45.49632" lon="6.70106">
        <ele>2234.7</ele>
        <time>2021-08-15T12:52:11Z</time>
      </trkpt>
      <trkpt lat="45.49633" lon="6.70106">
        <ele>2234.5</ele>
        <time>2021-08-15T12:52:12Z</time>
      </trkpt>
      <trkpt lat="45.49633" lon="6.70107">
        <ele>2234.4</ele>
        <time>2021-08-15T12:52:13Z</time>
      </trkpt>
      <trkpt lat="45.49634" lon="6.70107">
        <ele>2234.3</ele>
        <time>2021-08-15T12:52:14Z</time>
      </trkpt>
      <trkpt lat="45.49635" lon="6.70108">
        <ele>2234.2</ele>
        <time>2021-08-15T12:52:15Z</time>
      </trkpt>
      <trkpt lat="45.49636" lon="6.70108">
        <ele>2234.1</ele>
        <time>2021-08-15T12:52:16Z</time>
      </trkpt>
      <trkpt lat="45.49637" lon="6.70109">
        <ele>2234</ele>
        <time>2021-08-15T12:52:17Z</time>
      </trkpt>
      <trkpt lat="45.49638" lon="6.70109">
        <ele>2233.9</ele>
        <time>2021-08-15T12:52:18Z</time>
      </trkpt>
      <trkpt lat="45.49638" lon="6.70109">
        <ele>2233.8</ele>
        <time>2021-08-15T12:52:19Z</time>
      </trkpt>
      <trkpt lat="45.49639" lon="6.70109">
        <ele>2233.7</ele>
        <time>2021-08-15T12:52:20Z</time>
      </trkpt>
      <trkpt lat="45.4964" lon="6.7011">
        <ele>2233.6</ele>
        <time>2021-08-15T12:52:21Z</time>
      </trkpt>
      <trkpt lat="45.49641" lon="6.7011">
        <ele>2233.5</ele>
        <time>2021-08-15T12:52:22Z</time>
      </trkpt>
      <trkpt lat="45.49641" lon="6.7011">
        <ele>2233.4</ele>
        <time>2021-08-15T12:52:23Z</time>
      </trkpt>
      <trkpt lat="45.49642" lon="6.7011">
        <ele>2233.3</ele>
        <time>2021-08-15T12:52:24Z</time>
      </trkpt>
      <trkpt lat="45.49642" lon="6.7011">
        <ele>2233.3</ele>
        <time>2021-08-15T12:52:25Z</time>
      </trkpt>
      <trkpt lat="45.49643" lon="6.7011">
        <ele>2233.2</ele>
        <time>2021-08-15T12:52:26Z</time>
      </trkpt>
      <trkpt lat="45.49644" lon="6.7011">
        <ele>2233.1</ele>
        <time>2021-08-15T12:52:27Z</time>
      </trkpt>
      <trkpt lat="45.49644" lon="6.70111">
        <ele>2233</ele>
        <time>2021-08-15T12:52:28Z</time>
      </trkpt>
      <trkpt lat="45.49645" lon="6.70111">
        <ele>2232.9</ele>
        <time>2021-08-15T12:52:29Z</time>
      </trkpt>
      <trkpt lat="45.49646" lon="6.70111">
        <ele>2232.8</ele>
        <time>2021-08-15T12:52:30Z</time>
      </trkpt>
      <trkpt lat="45.49646" lon="6.70112">
        <ele>2232.7</ele>
        <time>2021-08-15T12:52:31Z</time>
      </trkpt>
      <trkpt lat="45.49647" lon="6.70112">
        <ele>2232.6</ele>
        <time>2021-08-15T12:52:32Z</time>
      </trkpt>
      <trkpt lat="45.49648" lon="6.70113">
        <ele>2232.5</ele>
        <time>2021-08-15T12:52:33Z</time>
      </trkpt>
      <trkpt lat="45.49649" lon="6.70113">
        <ele>2232.4</ele>
        <time>2021-08-15T12:52:34Z</time>
      </trkpt>
      <trkpt lat="45.4965" lon="6.70114">
        <ele>2232.3</ele>
        <time>2021-08-15T12:52:35Z</time>
      </trkpt>
      <trkpt lat="45.4965" lon="6.70114">
        <ele>2232.2</ele>
        <time>2021-08-15T12:52:36Z</time>
      </trkpt>
      <trkpt lat="45.49651" lon="6.70115">
        <ele>2232.1</ele>
        <time>2021-08-15T12:52:37Z</time>
      </trkpt>
      <trkpt lat="45.49652" lon="6.70115">
        <ele>2232</ele>
        <time>2021-08-15T12:52:38Z</time>
      </trkpt>
      <trkpt lat="45.49653" lon="6.70116">
        <ele>2231.8</ele>
        <time>2021-08-15T12:52:39Z</time>
      </trkpt>
      <trkpt lat="45.49654" lon="6.70116">
        <ele>2231.7</ele>
        <time>2021-08-15T12:52:40Z</time>
      </trkpt>
      <trkpt lat="45.49655" lon="6.70117">
        <ele>2231.6</ele>
        <time>2021-08-15T12:52:41Z</time>
      </trkpt>
      <trkpt lat="45.49656" lon="6.70117">
        <ele>2231.5</ele>
        <time>2021-08-15T12:52:42Z</time>
      </trkpt>
      <trkpt lat="45.49657" lon="6.70117">
        <ele>2231.4</ele>
        <time>2021-08-15T12:52:43Z</time>
      </trkpt>
      <trkpt lat="45.49657" lon="6.70117">
        <ele>2231.3</ele>
        <time>2021-08-15T12:52:44Z</time>
      </trkpt>
      <trkpt lat="45.49658" lon="6.70117">
        <ele>2231.2</ele>
        <time>2021-08-15T12:52:45Z</time>
      </trkpt>
      <trkpt lat="45.49659" lon="6.70117">
        <ele>2231.1</ele>
        <time>2021-08-15T12:52:46Z</time>
      </trkpt>
      <trkpt lat="45.4966" lon="6.70117">
        <ele>2231</ele>
        <time>2021-08-15T12:52:47Z</time>
      </trkpt>
      <trkpt lat="45.4966" lon="6.70117">
        <ele>2230.9</ele>
        <time>2021-08-15T12:52:48Z</time>
      </trkpt>
      <trkpt lat="45.49661" lon="6.70117">
        <ele>2230.8</ele>
        <time>2021-08-15T12:52:49Z</time>
      </trkpt>
      <trkpt lat="45.49661" lon="6.70117">
        <ele>2230.7</ele>
        <time>2021-08-15T12:52:50Z</time>
      </trkpt>
      <trkpt lat="45.49662" lon="6.70117">
        <ele>2230.7</ele>
        <time>2021-08-15T12:52:51Z</time>
      </trkpt>
      <trkpt lat="45.49662" lon="6.70116">
        <ele>2230.6</ele>
        <time>2021-08-15T12:52:52Z</time>
      </trkpt>
      <trkpt lat="45.49662" lon="6.70116">
        <ele>2230.6</ele>
        <time>2021-08-15T12:52:53Z</time>
      </trkpt>
      <trkpt lat="45.49663" lon="6.70116">
        <ele>2230.6</ele>
        <time>2021-08-15T12:52:54Z</time>
      </trkpt>
      <trkpt lat="45.49663" lon="6.70116">
        <ele>2230.5</ele>
        <time>2021-08-15T12:52:55Z</time>
      </trkpt>
      <trkpt lat="45.49663" lon="6.70116">
        <ele>2230.5</ele>
        <time>2021-08-15T12:52:56Z</time>
      </trkpt>
      <trkpt lat="45.49663" lon="6.70116">
        <ele>2230.5</ele>
        <time>2021-08-15T12:52:57Z</time>
      </trkpt>
      <trkpt lat="45.49664" lon="6.70116">
        <ele>2230.4</ele>
        <time>2021-08-15T12:52:58Z</time>
      </trkpt>
      <trkpt lat="45.49664" lon="6.70116">
        <ele>2230.4</ele>
        <time>2021-08-15T12:52:59Z</time>
      </trkpt>
      <trkpt lat="45.49665" lon="6.70117">
        <ele>2230.3</ele>
        <time>2021-08-15T12:53:00Z</time>
      </trkpt>
      <trkpt lat="45.49665" lon="6.70117">
        <ele>2230.2</ele>
        <time>2021-08-15T12:53:01Z</time>
      </trkpt>
      <trkpt lat="45.49666" lon="6.70117">
        <ele>2230.1</ele>
        <time>2021-08-15T12:53:02Z</time>
      </trkpt>
      <trkpt lat="45.49667" lon="6.70118">
        <ele>2230</ele>
        <time>2021-08-15T12:53:03Z</time>
      </trkpt>
      <trkpt lat="45.49668" lon="6.70118">
        <ele>2229.9</ele>
        <time>2021-08-15T12:53:04Z</time>
      </trkpt>
      <trkpt lat="45.49669" lon="6.70119">
        <ele>2229.8</ele>
        <time>2021-08-15T12:53:05Z</time>
      </trkpt>
      <trkpt lat="45.49669" lon="6.7012">
        <ele>2229.6</ele>
        <time>2021-08-15T12:53:06Z</time>
      </trkpt>
      <trkpt lat="45.4967" lon="6.7012">
        <ele>2229.5</ele>
        <time>2021-08-15T12:53:07Z</time>
      </trkpt>
      <trkpt lat="45.49671" lon="6.70121">
        <ele>2229.4</ele>
        <time>2021-08-15T12:53:08Z</time>
      </trkpt>
      <trkpt lat="45.49672" lon="6.70121">
        <ele>2229.2</ele>
        <time>2021-08-15T12:53:09Z</time>
      </trkpt>
      <trkpt lat="45.49673" lon="6.70122">
        <ele>2229.1</ele>
        <time>2021-08-15T12:53:10Z</time>
      </trkpt>
      <trkpt lat="45.49674" lon="6.70122">
        <ele>2229</ele>
        <time>2021-08-15T12:53:11Z</time>
      </trkpt>
      <trkpt lat="45.49675" lon="6.70123">
        <ele>2228.9</ele>
        <time>2021-08-15T12:53:12Z</time>
      </trkpt>
      <trkpt lat="45.49676" lon="6.70123">
        <ele>2228.7</ele>
        <time>2021-08-15T12:53:13Z</time>
      </trkpt>
      <trkpt lat="45.49677" lon="6.70123">
        <ele>2228.6</ele>
        <time>2021-08-15T12:53:14Z</time>
      </trkpt>
      <trkpt lat="45.49677" lon="6.70124">
        <ele>2228.5</ele>
        <time>2021-08-15T12:53:15Z</time>
      </trkpt>
      <trkpt lat="45.49678" lon="6.70124">
        <ele>2228.4</ele>
        <time>2021-08-15T12:53:16Z</time>
      </trkpt>
      <trkpt lat="45.49679" lon="6.70124">
        <ele>2228.3</ele>
        <time>2021-08-15T12:53:17Z</time>
      </trkpt>
      <trkpt lat="45.4968" lon="6.70125">
        <ele>2228.1</ele>
        <time>2021-08-15T12:53:18Z</time>
      </trkpt>
      <trkpt lat="45.49681" lon="6.70125">
        <ele>2228</ele>
        <time>2021-08-15T12:53:19Z</time>
      </trkpt>
      <trkpt lat="45.49681" lon="6.70126">
        <ele>2227.9</ele>
        <time>2021-08-15T12:53:20Z</time>
      </trkpt>
      <trkpt lat="45.49682" lon="6.70126">
        <ele>2227.8</ele>
        <time>2021-08-15T12:53:21Z</time>
      </trkpt>
      <trkpt lat="45.49683" lon="6.70127">
        <ele>2227.7</ele>
        <time>2021-08-15T12:53:22Z</time>
      </trkpt>
      <trkpt lat="45.49684" lon="6.70127">
        <ele>2227.6</ele>
        <time>2021-08-15T12:53:23Z</time>
      </trkpt>
      <trkpt lat="45.49684" lon="6.70128">
        <ele>2227.5</ele>
        <time>2021-08-15T12:53:24Z</time>
      </trkpt>
      <trkpt lat="45.49685" lon="6.70128">
        <ele>2227.3</ele>
        <time>2021-08-15T12:53:25Z</time>
      </trkpt>
      <trkpt lat="45.49686" lon="6.70129">
        <ele>2227.2</ele>
        <time>2021-08-15T12:53:26Z</time>
      </trkpt>
      <trkpt lat="45.49686" lon="6.70129">
        <ele>2227.1</ele>
        <time>2021-08-15T12:53:27Z</time>
      </trkpt>
      <trkpt lat="45.49687" lon="6.7013">
        <ele>2227</ele>
        <time>2021-08-15T12:53:28Z</time>
      </trkpt>
      <trkpt lat="45.49688" lon="6.70131">
        <ele>2226.9</ele>
        <time>2021-08-15T12:53:29Z</time>
      </trkpt>
      <trkpt lat="45.49689" lon="6.70131">
        <ele>2226.8</ele>
        <time>2021-08-15T12:53:30Z</time>
      </trkpt>
      <trkpt lat="45.49689" lon="6.70132">
        <ele>2226.7</ele>
        <time>2021-08-15T12:53:31Z</time>
      </trkpt>
      <trkpt lat="45.4969" lon="6.70132">
        <ele>2226.6</ele>
        <time>2021-08-15T12:53:32Z</time>
      </trkpt>
      <trkpt lat="45.49691" lon="6.70133">
        <ele>2226.4</ele>
        <time>2021-08-15T12:53:33Z</time>
      </trkpt>
      <trkpt lat="45.49691" lon="6.70133">
        <ele>2226.4</ele>
        <time>2021-08-15T12:53:34Z</time>
      </trkpt>
      <trkpt lat="45.49692" lon="6.70134">
        <ele>2226.3</ele>
        <time>2021-08-15T12:53:35Z</time>
      </trkpt>
      <trkpt lat="45.49693" lon="6.70134">
        <ele>2226.1</ele>
        <time>2021-08-15T12:53:36Z</time>
      </trkpt>
      <trkpt lat="45.49693" lon="6.70135">
        <ele>2226</ele>
        <time>2021-08-15T12:53:37Z</time>
      </trkpt>
      <trkpt lat="45.49694" lon="6.70135">
        <ele>2226</ele>
        <time>2021-08-15T12:53:38Z</time>
      </trkpt>
      <trkpt lat="45.49695" lon="6.70136">
        <ele>2225.9</ele>
        <time>2021-08-15T12:53:39Z</time>
      </trkpt>
      <trkpt lat="45.49695" lon="6.70136">
        <ele>2225.8</ele>
        <time>2021-08-15T12:53:40Z</time>
      </trkpt>
      <trkpt lat="45.49696" lon="6.70136">
        <ele>2225.7</ele>
        <time>2021-08-15T12:53:41Z</time>
      </trkpt>
      <trkpt lat="45.49697" lon="6.70137">
        <ele>2225.6</ele>
        <time>2021-08-15T12:53:42Z</time>
      </trkpt>
      <trkpt lat="45.49697" lon="6.70137">
        <ele>2225.5</ele>
        <time>2021-08-15T12:53:43Z</time>
      </trkpt>
      <trkpt lat="45.49698" lon="6.70137">
        <ele>2225.4</ele>
        <time>2021-08-15T12:53:44Z</time>
      </trkpt>
      <trkpt lat="45.49699" lon="6.70137">
        <ele>2225.3</ele>
        <time>2021-08-15T12:53:45Z</time>
      </trkpt>
      <trkpt lat="45.49699" lon="6.70138">
        <ele>2225.2</ele>
        <time>2021-08-15T12:53:46Z</time>
      </trkpt>
      <trkpt lat="45.497" lon="6.70138">
        <ele>2225.1</ele>
        <time>2021-08-15T12:53:47Z</time>
      </trkpt>
      <trkpt lat="45.49701" lon="6.70138">
        <ele>2225</ele>
        <time>2021-08-15T12:53:48Z</time>
      </trkpt>
      <trkpt lat="45.49702" lon="6.70138">
        <ele>2224.9</ele>
        <time>2021-08-15T12:53:49Z</time>
      </trkpt>
      <trkpt lat="45.49702" lon="6.70138">
        <ele>2224.8</ele>
        <time>2021-08-15T12:53:50Z</time>
      </trkpt>
      <trkpt lat="45.49703" lon="6.70139">
        <ele>2224.7</ele>
        <time>2021-08-15T12:53:51Z</time>
      </trkpt>
      <trkpt lat="45.49704" lon="6.70139">
        <ele>2224.6</ele>
        <time>2021-08-15T12:53:52Z</time>
      </trkpt>
      <trkpt lat="45.49704" lon="6.70139">
        <ele>2224.5</ele>
        <time>2021-08-15T12:53:53Z</time>
      </trkpt>
      <trkpt lat="45.49705" lon="6.70139">
        <ele>2224.4</ele>
        <time>2021-08-15T12:53:54Z</time>
      </trkpt>
      <trkpt lat="45.49706" lon="6.70139">
        <ele>2224.3</ele>
        <time>2021-08-15T12:53:55Z</time>
      </trkpt>
      <trkpt lat="45.49707" lon="6.70139">
        <ele>2224.2</ele>
        <time>2021-08-15T12:53:56Z</time>
      </trkpt>
      <trkpt lat="45.49707" lon="6.70139">
        <ele>2224.2</ele>
        <time>2021-08-15T12:53:57Z</time>
      </trkpt>
      <trkpt lat="45.49708" lon="6.7014">
        <ele>2224.1</ele>
        <time>2021-08-15T12:53:58Z</time>
      </trkpt>
      <trkpt lat="45.49709" lon="6.7014">
        <ele>2224</ele>
        <time>2021-08-15T12:53:59Z</time>
      </trkpt>
      <trkpt lat="45.49709" lon="6.7014">
        <ele>2223.8</ele>
        <time>2021-08-15T12:54:00Z</time>
      </trkpt>
      <trkpt lat="45.4971" lon="6.7014">
        <ele>2223.7</ele>
        <time>2021-08-15T12:54:01Z</time>
      </trkpt>
      <trkpt lat="45.49711" lon="6.7014">
        <ele>2223.6</ele>
        <time>2021-08-15T12:54:02Z</time>
      </trkpt>
      <trkpt lat="45.49711" lon="6.7014">
        <ele>2223.5</ele>
        <time>2021-08-15T12:54:03Z</time>
      </trkpt>
      <trkpt lat="45.49712" lon="6.7014">
        <ele>2223.4</ele>
        <time>2021-08-15T12:54:04Z</time>
      </trkpt>
      <trkpt lat="45.49713" lon="6.70141">
        <ele>2223.3</ele>
        <time>2021-08-15T12:54:05Z</time>
      </trkpt>
      <trkpt lat="45.49713" lon="6.70141">
        <ele>2223.2</ele>
        <time>2021-08-15T12:54:06Z</time>
      </trkpt>
      <trkpt lat="45.49714" lon="6.70141">
        <ele>2223.1</ele>
        <time>2021-08-15T12:54:07Z</time>
      </trkpt>
      <trkpt lat="45.49715" lon="6.70141">
        <ele>2223</ele>
        <time>2021-08-15T12:54:08Z</time>
      </trkpt>
      <trkpt lat="45.49715" lon="6.70141">
        <ele>2222.9</ele>
        <time>2021-08-15T12:54:09Z</time>
      </trkpt>
      <trkpt lat="45.49716" lon="6.70141">
        <ele>2222.9</ele>
        <time>2021-08-15T12:54:10Z</time>
      </trkpt>
      <trkpt lat="45.49716" lon="6.70142">
        <ele>2222.8</ele>
        <time>2021-08-15T12:54:11Z</time>
      </trkpt>
      <trkpt lat="45.49717" lon="6.70142">
        <ele>2222.7</ele>
        <time>2021-08-15T12:54:12Z</time>
      </trkpt>
      <trkpt lat="45.49717" lon="6.70142">
        <ele>2222.6</ele>
        <time>2021-08-15T12:54:13Z</time>
      </trkpt>
      <trkpt lat="45.49718" lon="6.70142">
        <ele>2222.6</ele>
        <time>2021-08-15T12:54:14Z</time>
      </trkpt>
      <trkpt lat="45.49718" lon="6.70142">
        <ele>2222.5</ele>
        <time>2021-08-15T12:54:15Z</time>
      </trkpt>
      <trkpt lat="45.49719" lon="6.70142">
        <ele>2222.4</ele>
        <time>2021-08-15T12:54:16Z</time>
      </trkpt>
      <trkpt lat="45.49719" lon="6.70143">
        <ele>2222.3</ele>
        <time>2021-08-15T12:54:17Z</time>
      </trkpt>
      <trkpt lat="45.4972" lon="6.70143">
        <ele>2222.2</ele>
        <time>2021-08-15T12:54:18Z</time>
      </trkpt>
      <trkpt lat="45.49721" lon="6.70143">
        <ele>2222.1</ele>
        <time>2021-08-15T12:54:19Z</time>
      </trkpt>
      <trkpt lat="45.49721" lon="6.70143">
        <ele>2221.9</ele>
        <time>2021-08-15T12:54:20Z</time>
      </trkpt>
      <trkpt lat="45.49722" lon="6.70143">
        <ele>2221.8</ele>
        <time>2021-08-15T12:54:21Z</time>
      </trkpt>
      <trkpt lat="45.49723" lon="6.70144">
        <ele>2221.7</ele>
        <time>2021-08-15T12:54:22Z</time>
      </trkpt>
      <trkpt lat="45.49723" lon="6.70144">
        <ele>2221.6</ele>
        <time>2021-08-15T12:54:23Z</time>
      </trkpt>
      <trkpt lat="45.49723" lon="6.70144">
        <ele>2221.6</ele>
        <time>2021-08-15T12:54:24Z</time>
      </trkpt>
      <trkpt lat="45.49723" lon="6.70144">
        <ele>2221.6</ele>
        <time>2021-08-15T12:54:25Z</time>
      </trkpt>
      <trkpt lat="45.49723" lon="6.70144">
        <ele>2221.5</ele>
        <time>2021-08-15T12:54:26Z</time>
      </trkpt>
      <trkpt lat="45.49723" lon="6.70144">
        <ele>2221.5</ele>
        <time>2021-08-15T12:54:27Z</time>
      </trkpt>
      <trkpt lat="45.49723" lon="6.70144">
        <ele>2221.5</ele>
        <time>2021-08-15T12:54:28Z</time>
      </trkpt>
      <trkpt lat="45.49724" lon="6.70144">
        <ele>2221.5</ele>
        <time>2021-08-15T12:54:29Z</time>
      </trkpt>
      <trkpt lat="45.49724" lon="6.70144">
        <ele>2221.4</ele>
        <time>2021-08-15T12:54:30Z</time>
      </trkpt>
      <trkpt lat="45.49725" lon="6.70144">
        <ele>2221.3</ele>
        <time>2021-08-15T12:54:31Z</time>
      </trkpt>
      <trkpt lat="45.49725" lon="6.70144">
        <ele>2221.2</ele>
        <time>2021-08-15T12:54:32Z</time>
      </trkpt>
      <trkpt lat="45.49726" lon="6.70145">
        <ele>2221</ele>
        <time>2021-08-15T12:54:33Z</time>
      </trkpt>
      <trkpt lat="45.49727" lon="6.70145">
        <ele>2220.9</ele>
        <time>2021-08-15T12:54:34Z</time>
      </trkpt>
      <trkpt lat="45.49728" lon="6.70145">
        <ele>2220.7</ele>
        <time>2021-08-15T12:54:35Z</time>
      </trkpt>
      <trkpt lat="45.49729" lon="6.70146">
        <ele>2220.5</ele>
        <time>2021-08-15T12:54:36Z</time>
      </trkpt>
      <trkpt lat="45.4973" lon="6.70146">
        <ele>2220.4</ele>
        <time>2021-08-15T12:54:37Z</time>
      </trkpt>
      <trkpt lat="45.49731" lon="6.70147">
        <ele>2220.2</ele>
        <time>2021-08-15T12:54:38Z</time>
      </trkpt>
      <trkpt lat="45.49732" lon="6.70147">
        <ele>2220</ele>
        <time>2021-08-15T12:54:39Z</time>
      </trkpt>
      <trkpt lat="45.49733" lon="6.70148">
        <ele>2219.8</ele>
        <time>2021-08-15T12:54:40Z</time>
      </trkpt>
      <trkpt lat="45.49734" lon="6.70148">
        <ele>2219.7</ele>
        <time>2021-08-15T12:54:41Z</time>
      </trkpt>
      <trkpt lat="45.49735" lon="6.70149">
        <ele>2219.5</ele>
        <time>2021-08-15T12:54:42Z</time>
      </trkpt>
      <trkpt lat="45.49735" lon="6.7015">
        <ele>2219.3</ele>
        <time>2021-08-15T12:54:43Z</time>
      </trkpt>
      <trkpt lat="45.49736" lon="6.7015">
        <ele>2219.2</ele>
        <time>2021-08-15T12:54:44Z</time>
      </trkpt>
      <trkpt lat="45.49737" lon="6.70151">
        <ele>2219</ele>
        <time>2021-08-15T12:54:45Z</time>
      </trkpt>
      <trkpt lat="45.49738" lon="6.70152">
        <ele>2218.9</ele>
        <time>2021-08-15T12:54:46Z</time>
      </trkpt>
      <trkpt lat="45.49738" lon="6.70152">
        <ele>2218.7</ele>
        <time>2021-08-15T12:54:47Z</time>
      </trkpt>
      <trkpt lat="45.49739" lon="6.70153">
        <ele>2218.6</ele>
        <time>2021-08-15T12:54:48Z</time>
      </trkpt>
      <trkpt lat="45.4974" lon="6.70154">
        <ele>2218.4</ele>
        <time>2021-08-15T12:54:49Z</time>
      </trkpt>
      <trkpt lat="45.49741" lon="6.70154">
        <ele>2218.3</ele>
        <time>2021-08-15T12:54:50Z</time>
      </trkpt>
      <trkpt lat="45.49741" lon="6.70155">
        <ele>2218.1</ele>
        <time>2021-08-15T12:54:51Z</time>
      </trkpt>
      <trkpt lat="45.49742" lon="6.70156">
        <ele>2218</ele>
        <time>2021-08-15T12:54:52Z</time>
      </trkpt>
      <trkpt lat="45.49743" lon="6.70156">
        <ele>2217.8</ele>
        <time>2021-08-15T12:54:53Z</time>
      </trkpt>
      <trkpt lat="45.49743" lon="6.70157">
        <ele>2217.7</ele>
        <time>2021-08-15T12:54:54Z</time>
      </trkpt>
      <trkpt lat="45.49744" lon="6.70158">
        <ele>2217.5</ele>
        <time>2021-08-15T12:54:55Z</time>
      </trkpt>
      <trkpt lat="45.49744" lon="6.70159">
        <ele>2217.4</ele>
        <time>2021-08-15T12:54:56Z</time>
      </trkpt>
      <trkpt lat="45.49745" lon="6.70159">
        <ele>2217.3</ele>
        <time>2021-08-15T12:54:57Z</time>
      </trkpt>
      <trkpt lat="45.49746" lon="6.7016">
        <ele>2217.1</ele>
        <time>2021-08-15T12:54:58Z</time>
      </trkpt>
      <trkpt lat="45.49746" lon="6.70161">
        <ele>2217</ele>
        <time>2021-08-15T12:54:59Z</time>
      </trkpt>
      <trkpt lat="45.49747" lon="6.70161">
        <ele>2216.8</ele>
        <time>2021-08-15T12:55:00Z</time>
      </trkpt>
      <trkpt lat="45.49747" lon="6.70162">
        <ele>2216.7</ele>
        <time>2021-08-15T12:55:01Z</time>
      </trkpt>
      <trkpt lat="45.49748" lon="6.70163">
        <ele>2216.6</ele>
        <time>2021-08-15T12:55:02Z</time>
      </trkpt>
      <trkpt lat="45.49749" lon="6.70164">
        <ele>2216.4</ele>
        <time>2021-08-15T12:55:03Z</time>
      </trkpt>
      <trkpt lat="45.49749" lon="6.70164">
        <ele>2216.3</ele>
        <time>2021-08-15T12:55:04Z</time>
      </trkpt>
      <trkpt lat="45.4975" lon="6.70165">
        <ele>2216.2</ele>
        <time>2021-08-15T12:55:05Z</time>
      </trkpt>
      <trkpt lat="45.4975" lon="6.70166">
        <ele>2216</ele>
        <time>2021-08-15T12:55:06Z</time>
      </trkpt>
      <trkpt lat="45.49751" lon="6.70166">
        <ele>2215.9</ele>
        <time>2021-08-15T12:55:07Z</time>
      </trkpt>
      <trkpt lat="45.49751" lon="6.70167">
        <ele>2215.8</ele>
        <time>2021-08-15T12:55:08Z</time>
      </trkpt>
      <trkpt lat="45.49752" lon="6.70168">
        <ele>2215.7</ele>
        <time>2021-08-15T12:55:09Z</time>
      </trkpt>
      <trkpt lat="45.49752" lon="6.70169">
        <ele>2215.6</ele>
        <time>2021-08-15T12:55:10Z</time>
      </trkpt>
      <trkpt lat="45.49753" lon="6.70169">
        <ele>2215.4</ele>
        <time>2021-08-15T12:55:11Z</time>
      </trkpt>
      <trkpt lat="45.49753" lon="6.7017">
        <ele>2215.3</ele>
        <time>2021-08-15T12:55:12Z</time>
      </trkpt>
      <trkpt lat="45.49754" lon="6.70171">
        <ele>2215.2</ele>
        <time>2021-08-15T12:55:13Z</time>
      </trkpt>
      <trkpt lat="45.49754" lon="6.70171">
        <ele>2215.1</ele>
        <time>2021-08-15T12:55:14Z</time>
      </trkpt>
      <trkpt lat="45.49755" lon="6.70172">
        <ele>2215</ele>
        <time>2021-08-15T12:55:15Z</time>
      </trkpt>
      <trkpt lat="45.49755" lon="6.70172">
        <ele>2214.9</ele>
        <time>2021-08-15T12:55:16Z</time>
      </trkpt>
      <trkpt lat="45.49755" lon="6.70173">
        <ele>2214.8</ele>
        <time>2021-08-15T12:55:17Z</time>
      </trkpt>
      <trkpt lat="45.49756" lon="6.70174">
        <ele>2214.7</ele>
        <time>2021-08-15T12:55:18Z</time>
      </trkpt>
      <trkpt lat="45.49756" lon="6.70174">
        <ele>2214.6</ele>
        <time>2021-08-15T12:55:19Z</time>
      </trkpt>
      <trkpt lat="45.49756" lon="6.70175">
        <ele>2214.6</ele>
        <time>2021-08-15T12:55:20Z</time>
      </trkpt>
      <trkpt lat="45.49756" lon="6.70175">
        <ele>2214.5</ele>
        <time>2021-08-15T12:55:21Z</time>
      </trkpt>
      <trkpt lat="45.49756" lon="6.70175">
        <ele>2214.5</ele>
        <time>2021-08-15T12:55:22Z</time>
      </trkpt>
      <trkpt lat="45.49756" lon="6.70175">
        <ele>2214.5</ele>
        <time>2021-08-15T12:55:23Z</time>
      </trkpt>
      <trkpt lat="45.49756" lon="6.70175">
        <ele>2214.5</ele>
        <time>2021-08-15T12:55:24Z</time>
      </trkpt>
      <trkpt lat="45.49756" lon="6.70175">
        <ele>2214.4</ele>
        <time>2021-08-15T12:55:25Z</time>
      </trkpt>
      <trkpt lat="45.49755" lon="6.70175">
        <ele>2214.4</ele>
        <time>2021-08-15T12:55:26Z</time>
      </trkpt>
      <trkpt lat="45.49755" lon="6.70174">
        <ele>2214.3</ele>
        <time>2021-08-15T12:55:27Z</time>
      </trkpt>
      <trkpt lat="45.49755" lon="6.70174">
        <ele>2214.3</ele>
        <time>2021-08-15T12:55:28Z</time>
      </trkpt>
      <trkpt lat="45.49755" lon="6.70174">
        <ele>2214.3</ele>
        <time>2021-08-15T12:55:29Z</time>
      </trkpt>
      <trkpt lat="45.49755" lon="6.70174">
        <ele>2214.3</ele>
        <time>2021-08-15T12:55:30Z</time>
      </trkpt>
      <trkpt lat="45.49755" lon="6.70175">
        <ele>2214.3</ele>
        <time>2021-08-15T12:55:31Z</time>
      </trkpt>
      <trkpt lat="45.49756" lon="6.70175">
        <ele>2214.2</ele>
        <time>2021-08-15T12:55:32Z</time>
      </trkpt>
      <trkpt lat="45.49756" lon="6.70175">
        <ele>2214.1</ele>
        <time>2021-08-15T12:55:33Z</time>
      </trkpt>
      <trkpt lat="45.49756" lon="6.70175">
        <ele>2214.1</ele>
        <time>2021-08-15T12:55:34Z</time>
      </trkpt>
      <trkpt lat="45.49757" lon="6.70176">
        <ele>2214</ele>
        <time>2021-08-15T12:55:35Z</time>
      </trkpt>
      <trkpt lat="45.49757" lon="6.70176">
        <ele>2213.9</ele>
        <time>2021-08-15T12:55:36Z</time>
      </trkpt>
      <trkpt lat="45.49758" lon="6.70176">
        <ele>2213.8</ele>
        <time>2021-08-15T12:55:37Z</time>
      </trkpt>
      <trkpt lat="45.49758" lon="6.70176">
        <ele>2213.7</ele>
        <time>2021-08-15T12:55:38Z</time>
      </trkpt>
      <trkpt lat="45.49759" lon="6.70177">
        <ele>2213.6</ele>
        <time>2021-08-15T12:55:39Z</time>
      </trkpt>
      <trkpt lat="45.4976" lon="6.70177">
        <ele>2213.5</ele>
        <time>2021-08-15T12:55:40Z</time>
      </trkpt>
      <trkpt lat="45.4976" lon="6.70177">
        <ele>2213.4</ele>
        <time>2021-08-15T12:55:41Z</time>
      </trkpt>
      <trkpt lat="45.49761" lon="6.70177">
        <ele>2213.3</ele>
        <time>2021-08-15T12:55:42Z</time>
      </trkpt>
      <trkpt lat="45.49761" lon="6.70178">
        <ele>2213.2</ele>
        <time>2021-08-15T12:55:43Z</time>
      </trkpt>
      <trkpt lat="45.49762" lon="6.70178">
        <ele>2213</ele>
        <time>2021-08-15T12:55:44Z</time>
      </trkpt>
      <trkpt lat="45.49763" lon="6.70178">
        <ele>2212.9</ele>
        <time>2021-08-15T12:55:45Z</time>
      </trkpt>
      <trkpt lat="45.49764" lon="6.70178">
        <ele>2212.8</ele>
        <time>2021-08-15T12:55:46Z</time>
      </trkpt>
      <trkpt lat="45.49764" lon="6.70178">
        <ele>2212.7</ele>
        <time>2021-08-15T12:55:47Z</time>
      </trkpt>
      <trkpt lat="45.49765" lon="6.70178">
        <ele>2212.5</ele>
        <time>2021-08-15T12:55:48Z</time>
      </trkpt>
      <trkpt lat="45.49766" lon="6.70178">
        <ele>2212.4</ele>
        <time>2021-08-15T12:55:49Z</time>
      </trkpt>
      <trkpt lat="45.49767" lon="6.70179">
        <ele>2212.3</ele>
        <time>2021-08-15T12:55:50Z</time>
      </trkpt>
      <trkpt lat="45.49767" lon="6.70179">
        <ele>2212.1</ele>
        <time>2021-08-15T12:55:51Z</time>
      </trkpt>
      <trkpt lat="45.49768" lon="6.70179">
        <ele>2212</ele>
        <time>2021-08-15T12:55:52Z</time>
      </trkpt>
      <trkpt lat="45.49769" lon="6.70179">
        <ele>2211.9</ele>
        <time>2021-08-15T12:55:53Z</time>
      </trkpt>
      <trkpt lat="45.4977" lon="6.70179">
        <ele>2211.7</ele>
        <time>2021-08-15T12:55:54Z</time>
      </trkpt>
      <trkpt lat="45.49771" lon="6.70179">
        <ele>2211.6</ele>
        <time>2021-08-15T12:55:55Z</time>
      </trkpt>
      <trkpt lat="45.49772" lon="6.7018">
        <ele>2211.4</ele>
        <time>2021-08-15T12:55:56Z</time>
      </trkpt>
      <trkpt lat="45.49772" lon="6.7018">
        <ele>2211.3</ele>
        <time>2021-08-15T12:55:57Z</time>
      </trkpt>
      <trkpt lat="45.49773" lon="6.7018">
        <ele>2211.2</ele>
        <time>2021-08-15T12:55:58Z</time>
      </trkpt>
      <trkpt lat="45.49774" lon="6.7018">
        <ele>2211</ele>
        <time>2021-08-15T12:55:59Z</time>
      </trkpt>
      <trkpt lat="45.49775" lon="6.7018">
        <ele>2210.9</ele>
        <time>2021-08-15T12:56:00Z</time>
      </trkpt>
      <trkpt lat="45.49776" lon="6.70181">
        <ele>2210.8</ele>
        <time>2021-08-15T12:56:01Z</time>
      </trkpt>
      <trkpt lat="45.49776" lon="6.70181">
        <ele>2210.6</ele>
        <time>2021-08-15T12:56:02Z</time>
      </trkpt>
      <trkpt lat="45.49777" lon="6.70181">
        <ele>2210.5</ele>
        <time>2021-08-15T12:56:03Z</time>
      </trkpt>
      <trkpt lat="45.49778" lon="6.70182">
        <ele>2210.4</ele>
        <time>2021-08-15T12:56:04Z</time>
      </trkpt>
      <trkpt lat="45.49779" lon="6.70182">
        <ele>2210.3</ele>
        <time>2021-08-15T12:56:05Z</time>
      </trkpt>
      <trkpt lat="45.49779" lon="6.70182">
        <ele>2210.1</ele>
        <time>2021-08-15T12:56:06Z</time>
      </trkpt>
      <trkpt lat="45.4978" lon="6.70183">
        <ele>2210</ele>
        <time>2021-08-15T12:56:07Z</time>
      </trkpt>
      <trkpt lat="45.49781" lon="6.70183">
        <ele>2209.9</ele>
        <time>2021-08-15T12:56:08Z</time>
      </trkpt>
      <trkpt lat="45.49782" lon="6.70183">
        <ele>2209.7</ele>
        <time>2021-08-15T12:56:09Z</time>
      </trkpt>
      <trkpt lat="45.49783" lon="6.70183">
        <ele>2209.6</ele>
        <time>2021-08-15T12:56:10Z</time>
      </trkpt>
      <trkpt lat="45.49783" lon="6.70184">
        <ele>2209.5</ele>
        <time>2021-08-15T12:56:11Z</time>
      </trkpt>
      <trkpt lat="45.49784" lon="6.70184">
        <ele>2209.3</ele>
        <time>2021-08-15T12:56:12Z</time>
      </trkpt>
      <trkpt lat="45.49785" lon="6.70184">
        <ele>2209.2</ele>
        <time>2021-08-15T12:56:13Z</time>
      </trkpt>
      <trkpt lat="45.49786" lon="6.70185">
        <ele>2209.1</ele>
        <time>2021-08-15T12:56:14Z</time>
      </trkpt>
      <trkpt lat="45.49786" lon="6.70185">
        <ele>2209</ele>
        <time>2021-08-15T12:56:15Z</time>
      </trkpt>
      <trkpt lat="45.49787" lon="6.70185">
        <ele>2208.9</ele>
        <time>2021-08-15T12:56:16Z</time>
      </trkpt>
      <trkpt lat="45.49788" lon="6.70185">
        <ele>2208.7</ele>
        <time>2021-08-15T12:56:17Z</time>
      </trkpt>
      <trkpt lat="45.49788" lon="6.70186">
        <ele>2208.6</ele>
        <time>2021-08-15T12:56:18Z</time>
      </trkpt>
      <trkpt lat="45.49789" lon="6.70186">
        <ele>2208.5</ele>
        <time>2021-08-15T12:56:19Z</time>
      </trkpt>
      <trkpt lat="45.4979" lon="6.70186">
        <ele>2208.4</ele>
        <time>2021-08-15T12:56:20Z</time>
      </trkpt>
      <trkpt lat="45.49791" lon="6.70186">
        <ele>2208.3</ele>
        <time>2021-08-15T12:56:21Z</time>
      </trkpt>
      <trkpt lat="45.49791" lon="6.70186">
        <ele>2208.1</ele>
        <time>2021-08-15T12:56:22Z</time>
      </trkpt>
      <trkpt lat="45.49792" lon="6.70187">
        <ele>2208</ele>
        <time>2021-08-15T12:56:23Z</time>
      </trkpt>
      <trkpt lat="45.49793" lon="6.70187">
        <ele>2207.9</ele>
        <time>2021-08-15T12:56:24Z</time>
      </trkpt>
      <trkpt lat="45.49793" lon="6.70187">
        <ele>2207.8</ele>
        <time>2021-08-15T12:56:25Z</time>
      </trkpt>
      <trkpt lat="45.49794" lon="6.70187">
        <ele>2207.7</ele>
        <time>2021-08-15T12:56:26Z</time>
      </trkpt>
      <trkpt lat="45.49795" lon="6.70187">
        <ele>2207.6</ele>
        <time>2021-08-15T12:56:27Z</time>
      </trkpt>
      <trkpt lat="45.49795" lon="6.70188">
        <ele>2207.4</ele>
        <time>2021-08-15T12:56:28Z</time>
      </trkpt>
      <trkpt lat="45.49796" lon="6.70188">
        <ele>2207.3</ele>
        <time>2021-08-15T12:56:29Z</time>
      </trkpt>
      <trkpt lat="45.49797" lon="6.70188">
        <ele>2207.2</ele>
        <time>2021-08-15T12:56:30Z</time>
      </trkpt>
      <trkpt lat="45.49798" lon="6.70188">
        <ele>2207.1</ele>
        <time>2021-08-15T12:56:31Z</time>
      </trkpt>
      <trkpt lat="45.49798" lon="6.70189">
        <ele>2207</ele>
        <time>2021-08-15T12:56:32Z</time>
      </trkpt>
      <trkpt lat="45.49799" lon="6.70189">
        <ele>2206.8</ele>
        <time>2021-08-15T12:56:33Z</time>
      </trkpt>
      <trkpt lat="45.498" lon="6.70189">
        <ele>2206.7</ele>
        <time>2021-08-15T12:56:34Z</time>
      </trkpt>
      <trkpt lat="45.498" lon="6.70189">
        <ele>2206.6</ele>
        <time>2021-08-15T12:56:35Z</time>
      </trkpt>
      <trkpt lat="45.49801" lon="6.7019">
        <ele>2206.4</ele>
        <time>2021-08-15T12:56:36Z</time>
      </trkpt>
      <trkpt lat="45.49802" lon="6.7019">
        <ele>2206.3</ele>
        <time>2021-08-15T12:56:37Z</time>
      </trkpt>
      <trkpt lat="45.49803" lon="6.70191">
        <ele>2206.2</ele>
        <time>2021-08-15T12:56:38Z</time>
      </trkpt>
      <trkpt lat="45.49803" lon="6.70191">
        <ele>2206</ele>
        <time>2021-08-15T12:56:39Z</time>
      </trkpt>
      <trkpt lat="45.49804" lon="6.70191">
        <ele>2205.9</ele>
        <time>2021-08-15T12:56:40Z</time>
      </trkpt>
      <trkpt lat="45.49805" lon="6.70192">
        <ele>2205.8</ele>
        <time>2021-08-15T12:56:41Z</time>
      </trkpt>
      <trkpt lat="45.49806" lon="6.70192">
        <ele>2205.6</ele>
        <time>2021-08-15T12:56:42Z</time>
      </trkpt>
      <trkpt lat="45.49806" lon="6.70193">
        <ele>2205.5</ele>
        <time>2021-08-15T12:56:43Z</time>
      </trkpt>
      <trkpt lat="45.49807" lon="6.70193">
        <ele>2205.4</ele>
        <time>2021-08-15T12:56:44Z</time>
      </trkpt>
      <trkpt lat="45.49808" lon="6.70194">
        <ele>2205.3</ele>
        <time>2021-08-15T12:56:45Z</time>
      </trkpt>
      <trkpt lat="45.49808" lon="6.70194">
        <ele>2205.2</ele>
        <time>2021-08-15T12:56:46Z</time>
      </trkpt>
      <trkpt lat="45.49809" lon="6.70195">
        <ele>2205.1</ele>
        <time>2021-08-15T12:56:47Z</time>
      </trkpt>
      <trkpt lat="45.49809" lon="6.70195">
        <ele>2205</ele>
        <time>2021-08-15T12:56:48Z</time>
      </trkpt>
      <trkpt lat="45.4981" lon="6.70195">
        <ele>2204.9</ele>
        <time>2021-08-15T12:56:49Z</time>
      </trkpt>
      <trkpt lat="45.4981" lon="6.70196">
        <ele>2204.8</ele>
        <time>2021-08-15T12:56:50Z</time>
      </trkpt>
      <trkpt lat="45.4981" lon="6.70196">
        <ele>2204.7</ele>
        <time>2021-08-15T12:56:51Z</time>
      </trkpt>
      <trkpt lat="45.49811" lon="6.70196">
        <ele>2204.7</ele>
        <time>2021-08-15T12:56:52Z</time>
      </trkpt>
      <trkpt lat="45.49811" lon="6.70197">
        <ele>2204.6</ele>
        <time>2021-08-15T12:56:53Z</time>
      </trkpt>
      <trkpt lat="45.49812" lon="6.70197">
        <ele>2204.5</ele>
        <time>2021-08-15T12:56:54Z</time>
      </trkpt>
      <trkpt lat="45.49812" lon="6.70197">
        <ele>2204.4</ele>
        <time>2021-08-15T12:56:55Z</time>
      </trkpt>
      <trkpt lat="45.49813" lon="6.70198">
        <ele>2204.3</ele>
        <time>2021-08-15T12:56:56Z</time>
      </trkpt>
      <trkpt lat="45.49813" lon="6.70198">
        <ele>2204.2</ele>
        <time>2021-08-15T12:56:57Z</time>
      </trkpt>
      <trkpt lat="45.49814" lon="6.70198">
        <ele>2204.1</ele>
        <time>2021-08-15T12:56:58Z</time>
      </trkpt>
      <trkpt lat="45.49815" lon="6.70198">
        <ele>2204</ele>
        <time>2021-08-15T12:56:59Z</time>
      </trkpt>
      <trkpt lat="45.49815" lon="6.70199">
        <ele>2203.8</ele>
        <time>2021-08-15T12:57:00Z</time>
      </trkpt>
      <trkpt lat="45.49816" lon="6.70199">
        <ele>2203.7</ele>
        <time>2021-08-15T12:57:01Z</time>
      </trkpt>
      <trkpt lat="45.49817" lon="6.70199">
        <ele>2203.6</ele>
        <time>2021-08-15T12:57:02Z</time>
      </trkpt>
      <trkpt lat="45.49818" lon="6.702">
        <ele>2203.4</ele>
        <time>2021-08-15T12:57:03Z</time>
      </trkpt>
      <trkpt lat="45.49818" lon="6.702">
        <ele>2203.3</ele>
        <time>2021-08-15T12:57:04Z</time>
      </trkpt>
      <trkpt lat="45.49819" lon="6.702">
        <ele>2203.2</ele>
        <time>2021-08-15T12:57:05Z</time>
      </trkpt>
      <trkpt lat="45.4982" lon="6.70201">
        <ele>2203</ele>
        <time>2021-08-15T12:57:06Z</time>
      </trkpt>
      <trkpt lat="45.49821" lon="6.70201">
        <ele>2202.9</ele>
        <time>2021-08-15T12:57:07Z</time>
      </trkpt>
      <trkpt lat="45.49821" lon="6.70201">
        <ele>2202.8</ele>
        <time>2021-08-15T12:57:08Z</time>
      </trkpt>
      <trkpt lat="45.49822" lon="6.70201">
        <ele>2202.7</ele>
        <time>2021-08-15T12:57:09Z</time>
      </trkpt>
      <trkpt lat="45.49823" lon="6.70202">
        <ele>2202.6</ele>
        <time>2021-08-15T12:57:10Z</time>
      </trkpt>
      <trkpt lat="45.49824" lon="6.70202">
        <ele>2202.4</ele>
        <time>2021-08-15T12:57:11Z</time>
      </trkpt>
      <trkpt lat="45.49824" lon="6.70202">
        <ele>2202.3</ele>
        <time>2021-08-15T12:57:12Z</time>
      </trkpt>
      <trkpt lat="45.49825" lon="6.70202">
        <ele>2202.3</ele>
        <time>2021-08-15T12:57:13Z</time>
      </trkpt>
      <trkpt lat="45.49825" lon="6.70203">
        <ele>2202.2</ele>
        <time>2021-08-15T12:57:14Z</time>
      </trkpt>
      <trkpt lat="45.49826" lon="6.70203">
        <ele>2202.1</ele>
        <time>2021-08-15T12:57:15Z</time>
      </trkpt>
      <trkpt lat="45.49826" lon="6.70203">
        <ele>2202</ele>
        <time>2021-08-15T12:57:16Z</time>
      </trkpt>
      <trkpt lat="45.49826" lon="6.70203">
        <ele>2202</ele>
        <time>2021-08-15T12:57:17Z</time>
      </trkpt>
      <trkpt lat="45.49827" lon="6.70203">
        <ele>2201.9</ele>
        <time>2021-08-15T12:57:18Z</time>
      </trkpt>
      <trkpt lat="45.49827" lon="6.70204">
        <ele>2201.9</ele>
        <time>2021-08-15T12:57:19Z</time>
      </trkpt>
      <trkpt lat="45.49827" lon="6.70204">
        <ele>2201.9</ele>
        <time>2021-08-15T12:57:20Z</time>
      </trkpt>
      <trkpt lat="45.49827" lon="6.70204">
        <ele>2201.8</ele>
        <time>2021-08-15T12:57:21Z</time>
      </trkpt>
      <trkpt lat="45.49827" lon="6.70204">
        <ele>2201.8</ele>
        <time>2021-08-15T12:57:22Z</time>
      </trkpt>
      <trkpt lat="45.49827" lon="6.70204">
        <ele>2201.8</ele>
        <time>2021-08-15T12:57:23Z</time>
      </trkpt>
      <trkpt lat="45.49828" lon="6.70204">
        <ele>2201.8</ele>
        <time>2021-08-15T12:57:24Z</time>
      </trkpt>
      <trkpt lat="45.49828" lon="6.70204">
        <ele>2201.7</ele>
        <time>2021-08-15T12:57:25Z</time>
      </trkpt>
      <trkpt lat="45.49828" lon="6.70204">
        <ele>2201.7</ele>
        <time>2021-08-15T12:57:26Z</time>
      </trkpt>
      <trkpt lat="45.49828" lon="6.70204">
        <ele>2201.6</ele>
        <time>2021-08-15T12:57:27Z</time>
      </trkpt>
      <trkpt lat="45.49829" lon="6.70204">
        <ele>2201.6</ele>
        <time>2021-08-15T12:57:28Z</time>
      </trkpt>
      <trkpt lat="45.49829" lon="6.70204">
        <ele>2201.5</ele>
        <time>2021-08-15T12:57:29Z</time>
      </trkpt>
      <trkpt lat="45.49829" lon="6.70203">
        <ele>2201.4</ele>
        <time>2021-08-15T12:57:30Z</time>
      </trkpt>
      <trkpt lat="45.4983" lon="6.70203">
        <ele>2201.4</ele>
        <time>2021-08-15T12:57:31Z</time>
      </trkpt>
      <trkpt lat="45.4983" lon="6.70203">
        <ele>2201.3</ele>
        <time>2021-08-15T12:57:32Z</time>
      </trkpt>
      <trkpt lat="45.49831" lon="6.70203">
        <ele>2201.2</ele>
        <time>2021-08-15T12:57:33Z</time>
      </trkpt>
      <trkpt lat="45.49831" lon="6.70202">
        <ele>2201.1</ele>
        <time>2021-08-15T12:57:34Z</time>
      </trkpt>
      <trkpt lat="45.49832" lon="6.70202">
        <ele>2201</ele>
        <time>2021-08-15T12:57:35Z</time>
      </trkpt>
      <trkpt lat="45.49833" lon="6.70202">
        <ele>2200.9</ele>
        <time>2021-08-15T12:57:36Z</time>
      </trkpt>
      <trkpt lat="45.49833" lon="6.70202">
        <ele>2200.8</ele>
        <time>2021-08-15T12:57:37Z</time>
      </trkpt>
      <trkpt lat="45.49834" lon="6.70202">
        <ele>2200.7</ele>
        <time>2021-08-15T12:57:38Z</time>
      </trkpt>
      <trkpt lat="45.49835" lon="6.70201">
        <ele>2200.5</ele>
        <time>2021-08-15T12:57:39Z</time>
      </trkpt>
      <trkpt lat="45.49836" lon="6.70201">
        <ele>2200.4</ele>
        <time>2021-08-15T12:57:40Z</time>
      </trkpt>
      <trkpt lat="45.49836" lon="6.70201">
        <ele>2200.3</ele>
        <time>2021-08-15T12:57:41Z</time>
      </trkpt>
      <trkpt lat="45.49837" lon="6.70201">
        <ele>2200.1</ele>
        <time>2021-08-15T12:57:42Z</time>
      </trkpt>
      <trkpt lat="45.49838" lon="6.70201">
        <ele>2200</ele>
        <time>2021-08-15T12:57:43Z</time>
      </trkpt>
      <trkpt lat="45.49839" lon="6.70201">
        <ele>2199.9</ele>
        <time>2021-08-15T12:57:44Z</time>
      </trkpt>
      <trkpt lat="45.4984" lon="6.70201">
        <ele>2199.7</ele>
        <time>2021-08-15T12:57:45Z</time>
      </trkpt>
      <trkpt lat="45.49841" lon="6.70201">
        <ele>2199.6</ele>
        <time>2021-08-15T12:57:46Z</time>
      </trkpt>
      <trkpt lat="45.49842" lon="6.70201">
        <ele>2199.5</ele>
        <time>2021-08-15T12:57:47Z</time>
      </trkpt>
      <trkpt lat="45.49843" lon="6.702">
        <ele>2199.3</ele>
        <time>2021-08-15T12:57:48Z</time>
      </trkpt>
      <trkpt lat="45.49843" lon="6.702">
        <ele>2199.2</ele>
        <time>2021-08-15T12:57:49Z</time>
      </trkpt>
      <trkpt lat="45.49844" lon="6.702">
        <ele>2199.1</ele>
        <time>2021-08-15T12:57:50Z</time>
      </trkpt>
      <trkpt lat="45.49845" lon="6.702">
        <ele>2198.9</ele>
        <time>2021-08-15T12:57:51Z</time>
      </trkpt>
      <trkpt lat="45.49846" lon="6.702">
        <ele>2198.8</ele>
        <time>2021-08-15T12:57:52Z</time>
      </trkpt>
      <trkpt lat="45.49847" lon="6.702">
        <ele>2198.7</ele>
        <time>2021-08-15T12:57:53Z</time>
      </trkpt>
      <trkpt lat="45.49848" lon="6.702">
        <ele>2198.6</ele>
        <time>2021-08-15T12:57:54Z</time>
      </trkpt>
      <trkpt lat="45.49848" lon="6.702">
        <ele>2198.4</ele>
        <time>2021-08-15T12:57:55Z</time>
      </trkpt>
      <trkpt lat="45.49849" lon="6.70199">
        <ele>2198.3</ele>
        <time>2021-08-15T12:57:56Z</time>
      </trkpt>
      <trkpt lat="45.4985" lon="6.70199">
        <ele>2198.2</ele>
        <time>2021-08-15T12:57:57Z</time>
      </trkpt>
      <trkpt lat="45.4985" lon="6.70199">
        <ele>2198.1</ele>
        <time>2021-08-15T12:57:58Z</time>
      </trkpt>
      <trkpt lat="45.49851" lon="6.70199">
        <ele>2198</ele>
        <time>2021-08-15T12:57:59Z</time>
      </trkpt>
      <trkpt lat="45.49852" lon="6.70199">
        <ele>2197.9</ele>
        <time>2021-08-15T12:58:00Z</time>
      </trkpt>
      <trkpt lat="45.49852" lon="6.70198">
        <ele>2197.8</ele>
        <time>2021-08-15T12:58:01Z</time>
      </trkpt>
      <trkpt lat="45.49853" lon="6.70198">
        <ele>2197.7</ele>
        <time>2021-08-15T12:58:02Z</time>
      </trkpt>
      <trkpt lat="45.49854" lon="6.70198">
        <ele>2197.7</ele>
        <time>2021-08-15T12:58:03Z</time>
      </trkpt>
      <trkpt lat="45.49854" lon="6.70197">
        <ele>2197.6</ele>
        <time>2021-08-15T12:58:04Z</time>
      </trkpt>
      <trkpt lat="45.49855" lon="6.70197">
        <ele>2197.5</ele>
        <time>2021-08-15T12:58:05Z</time>
      </trkpt>
      <trkpt lat="45.49855" lon="6.70197">
        <ele>2197.4</ele>
        <time>2021-08-15T12:58:06Z</time>
      </trkpt>
      <trkpt lat="45.49856" lon="6.70196">
        <ele>2197.3</ele>
        <time>2021-08-15T12:58:07Z</time>
      </trkpt>
      <trkpt lat="45.49857" lon="6.70196">
        <ele>2197.2</ele>
        <time>2021-08-15T12:58:08Z</time>
      </trkpt>
      <trkpt lat="45.49857" lon="6.70196">
        <ele>2197.1</ele>
        <time>2021-08-15T12:58:09Z</time>
      </trkpt>
      <trkpt lat="45.49858" lon="6.70195">
        <ele>2197</ele>
        <time>2021-08-15T12:58:10Z</time>
      </trkpt>
      <trkpt lat="45.49859" lon="6.70195">
        <ele>2196.9</ele>
        <time>2021-08-15T12:58:11Z</time>
      </trkpt>
      <trkpt lat="45.49859" lon="6.70195">
        <ele>2196.8</ele>
        <time>2021-08-15T12:58:12Z</time>
      </trkpt>
      <trkpt lat="45.4986" lon="6.70194">
        <ele>2196.7</ele>
        <time>2021-08-15T12:58:13Z</time>
      </trkpt>
      <trkpt lat="45.49861" lon="6.70194">
        <ele>2196.6</ele>
        <time>2021-08-15T12:58:14Z</time>
      </trkpt>
      <trkpt lat="45.49861" lon="6.70193">
        <ele>2196.5</ele>
        <time>2021-08-15T12:58:15Z</time>
      </trkpt>
      <trkpt lat="45.49862" lon="6.70193">
        <ele>2196.4</ele>
        <time>2021-08-15T12:58:16Z</time>
      </trkpt>
      <trkpt lat="45.49863" lon="6.70193">
        <ele>2196.3</ele>
        <time>2021-08-15T12:58:17Z</time>
      </trkpt>
      <trkpt lat="45.49864" lon="6.70192">
        <ele>2196.2</ele>
        <time>2021-08-15T12:58:18Z</time>
      </trkpt>
      <trkpt lat="45.49864" lon="6.70192">
        <ele>2196.1</ele>
        <time>2021-08-15T12:58:19Z</time>
      </trkpt>
      <trkpt lat="45.49865" lon="6.70191">
        <ele>2196</ele>
        <time>2021-08-15T12:58:20Z</time>
      </trkpt>
      <trkpt lat="45.49866" lon="6.70191">
        <ele>2195.9</ele>
        <time>2021-08-15T12:58:21Z</time>
      </trkpt>
      <trkpt lat="45.49867" lon="6.7019">
        <ele>2195.8</ele>
        <time>2021-08-15T12:58:22Z</time>
      </trkpt>
      <trkpt lat="45.49867" lon="6.7019">
        <ele>2195.7</ele>
        <time>2021-08-15T12:58:23Z</time>
      </trkpt>
      <trkpt lat="45.49868" lon="6.70189">
        <ele>2195.6</ele>
        <time>2021-08-15T12:58:24Z</time>
      </trkpt>
      <trkpt lat="45.49869" lon="6.70189">
        <ele>2195.5</ele>
        <time>2021-08-15T12:58:25Z</time>
      </trkpt>
      <trkpt lat="45.4987" lon="6.70188">
        <ele>2195.4</ele>
        <time>2021-08-15T12:58:26Z</time>
      </trkpt>
      <trkpt lat="45.49871" lon="6.70188">
        <ele>2195.2</ele>
        <time>2021-08-15T12:58:27Z</time>
      </trkpt>
      <trkpt lat="45.49871" lon="6.70187">
        <ele>2195.2</ele>
        <time>2021-08-15T12:58:28Z</time>
      </trkpt>
      <trkpt lat="45.49872" lon="6.70187">
        <ele>2195</ele>
        <time>2021-08-15T12:58:29Z</time>
      </trkpt>
      <trkpt lat="45.49873" lon="6.70186">
        <ele>2194.9</ele>
        <time>2021-08-15T12:58:30Z</time>
      </trkpt>
      <trkpt lat="45.49874" lon="6.70185">
        <ele>2194.8</ele>
        <time>2021-08-15T12:58:31Z</time>
      </trkpt>
      <trkpt lat="45.49874" lon="6.70185">
        <ele>2194.7</ele>
        <time>2021-08-15T12:58:32Z</time>
      </trkpt>
      <trkpt lat="45.49875" lon="6.70184">
        <ele>2194.6</ele>
        <time>2021-08-15T12:58:33Z</time>
      </trkpt>
      <trkpt lat="45.49875" lon="6.70183">
        <ele>2194.5</ele>
        <time>2021-08-15T12:58:34Z</time>
      </trkpt>
      <trkpt lat="45.49876" lon="6.70182">
        <ele>2194.4</ele>
        <time>2021-08-15T12:58:35Z</time>
      </trkpt>
      <trkpt lat="45.49877" lon="6.70181">
        <ele>2194.3</ele>
        <time>2021-08-15T12:58:36Z</time>
      </trkpt>
      <trkpt lat="45.49877" lon="6.7018">
        <ele>2194.2</ele>
        <time>2021-08-15T12:58:37Z</time>
      </trkpt>
      <trkpt lat="45.49878" lon="6.7018">
        <ele>2194.1</ele>
        <time>2021-08-15T12:58:38Z</time>
      </trkpt>
      <trkpt lat="45.49878" lon="6.70179">
        <ele>2194</ele>
        <time>2021-08-15T12:58:39Z</time>
      </trkpt>
      <trkpt lat="45.49879" lon="6.70178">
        <ele>2193.9</ele>
        <time>2021-08-15T12:58:40Z</time>
      </trkpt>
      <trkpt lat="45.49879" lon="6.70177">
        <ele>2193.9</ele>
        <time>2021-08-15T12:58:41Z</time>
      </trkpt>
      <trkpt lat="45.49879" lon="6.70176">
        <ele>2193.8</ele>
        <time>2021-08-15T12:58:42Z</time>
      </trkpt>
      <trkpt lat="45.4988" lon="6.70175">
        <ele>2193.7</ele>
        <time>2021-08-15T12:58:43Z</time>
      </trkpt>
      <trkpt lat="45.4988" lon="6.70174">
        <ele>2193.6</ele>
        <time>2021-08-15T12:58:44Z</time>
      </trkpt>
      <trkpt lat="45.49881" lon="6.70173">
        <ele>2193.5</ele>
        <time>2021-08-15T12:58:45Z</time>
      </trkpt>
      <trkpt lat="45.49881" lon="6.70171">
        <ele>2193.4</ele>
        <time>2021-08-15T12:58:46Z</time>
      </trkpt>
      <trkpt lat="45.49881" lon="6.7017">
        <ele>2193.3</ele>
        <time>2021-08-15T12:58:47Z</time>
      </trkpt>
      <trkpt lat="45.49882" lon="6.70169">
        <ele>2193.2</ele>
        <time>2021-08-15T12:58:48Z</time>
      </trkpt>
      <trkpt lat="45.49882" lon="6.70168">
        <ele>2193.1</ele>
        <time>2021-08-15T12:58:49Z</time>
      </trkpt>
      <trkpt lat="45.49882" lon="6.70167">
        <ele>2193</ele>
        <time>2021-08-15T12:58:50Z</time>
      </trkpt>
      <trkpt lat="45.49883" lon="6.70166">
        <ele>2192.9</ele>
        <time>2021-08-15T12:58:51Z</time>
      </trkpt>
      <trkpt lat="45.49883" lon="6.70165">
        <ele>2192.8</ele>
        <time>2021-08-15T12:58:52Z</time>
      </trkpt>
      <trkpt lat="45.49883" lon="6.70164">
        <ele>2192.7</ele>
        <time>2021-08-15T12:58:53Z</time>
      </trkpt>
      <trkpt lat="45.49884" lon="6.70163">
        <ele>2192.6</ele>
        <time>2021-08-15T12:58:54Z</time>
      </trkpt>
      <trkpt lat="45.49884" lon="6.70162">
        <ele>2192.5</ele>
        <time>2021-08-15T12:58:55Z</time>
      </trkpt>
      <trkpt lat="45.49885" lon="6.70161">
        <ele>2192.4</ele>
        <time>2021-08-15T12:58:56Z</time>
      </trkpt>
      <trkpt lat="45.49885" lon="6.7016">
        <ele>2192.3</ele>
        <time>2021-08-15T12:58:57Z</time>
      </trkpt>
      <trkpt lat="45.49886" lon="6.7016">
        <ele>2192.3</ele>
        <time>2021-08-15T12:58:58Z</time>
      </trkpt>
      <trkpt lat="45.49886" lon="6.70159">
        <ele>2192.2</ele>
        <time>2021-08-15T12:58:59Z</time>
      </trkpt>
      <trkpt lat="45.49886" lon="6.70158">
        <ele>2192.1</ele>
        <time>2021-08-15T12:59:00Z</time>
      </trkpt>
      <trkpt lat="45.49887" lon="6.70157">
        <ele>2192</ele>
        <time>2021-08-15T12:59:01Z</time>
      </trkpt>
      <trkpt lat="45.49887" lon="6.70156">
        <ele>2191.9</ele>
        <time>2021-08-15T12:59:02Z</time>
      </trkpt>
      <trkpt lat="45.49888" lon="6.70155">
        <ele>2191.8</ele>
        <time>2021-08-15T12:59:03Z</time>
      </trkpt>
      <trkpt lat="45.49888" lon="6.70154">
        <ele>2191.7</ele>
        <time>2021-08-15T12:59:04Z</time>
      </trkpt>
      <trkpt lat="45.49888" lon="6.70153">
        <ele>2191.6</ele>
        <time>2021-08-15T12:59:05Z</time>
      </trkpt>
      <trkpt lat="45.49889" lon="6.70152">
        <ele>2191.5</ele>
        <time>2021-08-15T12:59:06Z</time>
      </trkpt>
      <trkpt lat="45.49889" lon="6.70151">
        <ele>2191.4</ele>
        <time>2021-08-15T12:59:07Z</time>
      </trkpt>
      <trkpt lat="45.49889" lon="6.7015">
        <ele>2191.3</ele>
        <time>2021-08-15T12:59:08Z</time>
      </trkpt>
      <trkpt lat="45.4989" lon="6.70149">
        <ele>2191.2</ele>
        <time>2021-08-15T12:59:09Z</time>
      </trkpt>
      <trkpt lat="45.4989" lon="6.70148">
        <ele>2191.1</ele>
        <time>2021-08-15T12:59:10Z</time>
      </trkpt>
      <trkpt lat="45.4989" lon="6.70147">
        <ele>2191</ele>
        <time>2021-08-15T12:59:11Z</time>
      </trkpt>
      <trkpt lat="45.4989" lon="6.70146">
        <ele>2190.9</ele>
        <time>2021-08-15T12:59:12Z</time>
      </trkpt>
      <trkpt lat="45.4989" lon="6.70144">
        <ele>2190.7</ele>
        <time>2021-08-15T12:59:13Z</time>
      </trkpt>
      <trkpt lat="45.49891" lon="6.70143">
        <ele>2190.6</ele>
        <time>2021-08-15T12:59:14Z</time>
      </trkpt>
      <trkpt lat="45.49891" lon="6.70142">
        <ele>2190.5</ele>
        <time>2021-08-15T12:59:15Z</time>
      </trkpt>
      <trkpt lat="45.49891" lon="6.7014">
        <ele>2190.4</ele>
        <time>2021-08-15T12:59:16Z</time>
      </trkpt>
      <trkpt lat="45.49891" lon="6.70139">
        <ele>2190.2</ele>
        <time>2021-08-15T12:59:17Z</time>
      </trkpt>
      <trkpt lat="45.4989" lon="6.70138">
        <ele>2190.1</ele>
        <time>2021-08-15T12:59:18Z</time>
      </trkpt>
      <trkpt lat="45.4989" lon="6.70136">
        <ele>2190</ele>
        <time>2021-08-15T12:59:19Z</time>
      </trkpt>
      <trkpt lat="45.4989" lon="6.70135">
        <ele>2189.8</ele>
        <time>2021-08-15T12:59:20Z</time>
      </trkpt>
      <trkpt lat="45.49891" lon="6.70133">
        <ele>2189.7</ele>
        <time>2021-08-15T12:59:21Z</time>
      </trkpt>
      <trkpt lat="45.49891" lon="6.70132">
        <ele>2189.6</ele>
        <time>2021-08-15T12:59:22Z</time>
      </trkpt>
      <trkpt lat="45.49891" lon="6.70131">
        <ele>2189.5</ele>
        <time>2021-08-15T12:59:23Z</time>
      </trkpt>
      <trkpt lat="45.49891" lon="6.7013">
        <ele>2189.4</ele>
        <time>2021-08-15T12:59:24Z</time>
      </trkpt>
      <trkpt lat="45.49891" lon="6.70128">
        <ele>2189.2</ele>
        <time>2021-08-15T12:59:25Z</time>
      </trkpt>
      <trkpt lat="45.49892" lon="6.70127">
        <ele>2189.1</ele>
        <time>2021-08-15T12:59:26Z</time>
      </trkpt>
      <trkpt lat="45.49892" lon="6.70126">
        <ele>2189</ele>
        <time>2021-08-15T12:59:27Z</time>
      </trkpt>
      <trkpt lat="45.49893" lon="6.70125">
        <ele>2188.9</ele>
        <time>2021-08-15T12:59:28Z</time>
      </trkpt>
      <trkpt lat="45.49893" lon="6.70125">
        <ele>2188.8</ele>
        <time>2021-08-15T12:59:29Z</time>
      </trkpt>
      <trkpt lat="45.49894" lon="6.70124">
        <ele>2188.7</ele>
        <time>2021-08-15T12:59:30Z</time>
      </trkpt>
      <trkpt lat="45.49895" lon="6.70123">
        <ele>2188.5</ele>
        <time>2021-08-15T12:59:31Z</time>
      </trkpt>
      <trkpt lat="45.49895" lon="6.70122">
        <ele>2188.4</ele>
        <time>2021-08-15T12:59:32Z</time>
      </trkpt>
      <trkpt lat="45.49896" lon="6.70121">
        <ele>2188.3</ele>
        <time>2021-08-15T12:59:33Z</time>
      </trkpt>
      <trkpt lat="45.49896" lon="6.7012">
        <ele>2188.2</ele>
        <time>2021-08-15T12:59:34Z</time>
      </trkpt>
      <trkpt lat="45.49897" lon="6.70119">
        <ele>2188.1</ele>
        <time>2021-08-15T12:59:35Z</time>
      </trkpt>
      <trkpt lat="45.49897" lon="6.70118">
        <ele>2188</ele>
        <time>2021-08-15T12:59:36Z</time>
      </trkpt>
      <trkpt lat="45.49898" lon="6.70117">
        <ele>2187.9</ele>
        <time>2021-08-15T12:59:37Z</time>
      </trkpt>
      <trkpt lat="45.49898" lon="6.70116">
        <ele>2187.8</ele>
        <time>2021-08-15T12:59:38Z</time>
      </trkpt>
      <trkpt lat="45.49898" lon="6.70115">
        <ele>2187.7</ele>
        <time>2021-08-15T12:59:39Z</time>
      </trkpt>
      <trkpt lat="45.49898" lon="6.70113">
        <ele>2187.6</ele>
        <time>2021-08-15T12:59:40Z</time>
      </trkpt>
      <trkpt lat="45.49899" lon="6.70112">
        <ele>2187.5</ele>
        <time>2021-08-15T12:59:41Z</time>
      </trkpt>
      <trkpt lat="45.49899" lon="6.70111">
        <ele>2187.4</ele>
        <time>2021-08-15T12:59:42Z</time>
      </trkpt>
      <trkpt lat="45.49899" lon="6.7011">
        <ele>2187.3</ele>
        <time>2021-08-15T12:59:43Z</time>
      </trkpt>
      <trkpt lat="45.49899" lon="6.70109">
        <ele>2187.2</ele>
        <time>2021-08-15T12:59:44Z</time>
      </trkpt>
      <trkpt lat="45.49899" lon="6.70107">
        <ele>2187.1</ele>
        <time>2021-08-15T12:59:45Z</time>
      </trkpt>
      <trkpt lat="45.49899" lon="6.70106">
        <ele>2187</ele>
        <time>2021-08-15T12:59:46Z</time>
      </trkpt>
      <trkpt lat="45.49899" lon="6.70105">
        <ele>2186.9</ele>
        <time>2021-08-15T12:59:47Z</time>
      </trkpt>
      <trkpt lat="45.499" lon="6.70104">
        <ele>2186.8</ele>
        <time>2021-08-15T12:59:48Z</time>
      </trkpt>
      <trkpt lat="45.499" lon="6.70103">
        <ele>2186.7</ele>
        <time>2021-08-15T12:59:49Z</time>
      </trkpt>
      <trkpt lat="45.499" lon="6.70102">
        <ele>2186.6</ele>
        <time>2021-08-15T12:59:50Z</time>
      </trkpt>
      <trkpt lat="45.499" lon="6.70101">
        <ele>2186.5</ele>
        <time>2021-08-15T12:59:51Z</time>
      </trkpt>
      <trkpt lat="45.49901" lon="6.701">
        <ele>2186.4</ele>
        <time>2021-08-15T12:59:52Z</time>
      </trkpt>
      <trkpt lat="45.49901" lon="6.70099">
        <ele>2186.3</ele>
        <time>2021-08-15T12:59:53Z</time>
      </trkpt>
      <trkpt lat="45.49901" lon="6.70098">
        <ele>2186.2</ele>
        <time>2021-08-15T12:59:54Z</time>
      </trkpt>
      <trkpt lat="45.49902" lon="6.70097">
        <ele>2186.1</ele>
        <time>2021-08-15T12:59:55Z</time>
      </trkpt>
      <trkpt lat="45.49903" lon="6.70096">
        <ele>2186</ele>
        <time>2021-08-15T12:59:56Z</time>
      </trkpt>
      <trkpt lat="45.49903" lon="6.70095">
        <ele>2185.9</ele>
        <time>2021-08-15T12:59:57Z</time>
      </trkpt>
      <trkpt lat="45.49904" lon="6.70094">
        <ele>2185.8</ele>
        <time>2021-08-15T12:59:58Z</time>
      </trkpt>
      <trkpt lat="45.49905" lon="6.70094">
        <ele>2185.7</ele>
        <time>2021-08-15T12:59:59Z</time>
      </trkpt>
      <trkpt lat="45.49905" lon="6.70093">
        <ele>2185.6</ele>
        <time>2021-08-15T13:00:00Z</time>
      </trkpt>
      <trkpt lat="45.49906" lon="6.70093">
        <ele>2185.5</ele>
        <time>2021-08-15T13:00:01Z</time>
      </trkpt>
      <trkpt lat="45.49907" lon="6.70092">
        <ele>2185.4</ele>
        <time>2021-08-15T13:00:02Z</time>
      </trkpt>
      <trkpt lat="45.49907" lon="6.70091">
        <ele>2185.2</ele>
        <time>2021-08-15T13:00:03Z</time>
      </trkpt>
      <trkpt lat="45.49908" lon="6.7009">
        <ele>2185.1</ele>
        <time>2021-08-15T13:00:04Z</time>
      </trkpt>
      <trkpt lat="45.49908" lon="6.70089">
        <ele>2185</ele>
        <time>2021-08-15T13:00:05Z</time>
      </trkpt>
      <trkpt lat="45.49909" lon="6.70088">
        <ele>2184.9</ele>
        <time>2021-08-15T13:00:06Z</time>
      </trkpt>
      <trkpt lat="45.49909" lon="6.70087">
        <ele>2184.8</ele>
        <time>2021-08-15T13:00:07Z</time>
      </trkpt>
      <trkpt lat="45.49909" lon="6.70087">
        <ele>2184.8</ele>
        <time>2021-08-15T13:00:08Z</time>
      </trkpt>
      <trkpt lat="45.49909" lon="6.70086">
        <ele>2184.7</ele>
        <time>2021-08-15T13:00:09Z</time>
      </trkpt>
      <trkpt lat="45.4991" lon="6.70086">
        <ele>2184.7</ele>
        <time>2021-08-15T13:00:10Z</time>
      </trkpt>
      <trkpt lat="45.4991" lon="6.70086">
        <ele>2184.7</ele>
        <time>2021-08-15T13:00:11Z</time>
      </trkpt>
      <trkpt lat="45.4991" lon="6.70086">
        <ele>2184.7</ele>
        <time>2021-08-15T13:00:12Z</time>
      </trkpt>
      <trkpt lat="45.4991" lon="6.70086">
        <ele>2184.6</ele>
        <time>2021-08-15T13:00:13Z</time>
      </trkpt>
      <trkpt lat="45.4991" lon="6.70086">
        <ele>2184.6</ele>
        <time>2021-08-15T13:00:14Z</time>
      </trkpt>
      <trkpt lat="45.49911" lon="6.70085">
        <ele>2184.5</ele>
        <time>2021-08-15T13:00:15Z</time>
      </trkpt>
      <trkpt lat="45.49911" lon="6.70084">
        <ele>2184.4</ele>
        <time>2021-08-15T13:00:16Z</time>
      </trkpt>
      <trkpt lat="45.49912" lon="6.70084">
        <ele>2184.3</ele>
        <time>2021-08-15T13:00:17Z</time>
      </trkpt>
      <trkpt lat="45.49913" lon="6.70083">
        <ele>2184.2</ele>
        <time>2021-08-15T13:00:18Z</time>
      </trkpt>
      <trkpt lat="45.49913" lon="6.70082">
        <ele>2184.1</ele>
        <time>2021-08-15T13:00:19Z</time>
      </trkpt>
      <trkpt lat="45.49914" lon="6.70081">
        <ele>2183.9</ele>
        <time>2021-08-15T13:00:20Z</time>
      </trkpt>
      <trkpt lat="45.49915" lon="6.7008">
        <ele>2183.8</ele>
        <time>2021-08-15T13:00:21Z</time>
      </trkpt>
      <trkpt lat="45.49915" lon="6.70079">
        <ele>2183.7</ele>
        <time>2021-08-15T13:00:22Z</time>
      </trkpt>
      <trkpt lat="45.49916" lon="6.70078">
        <ele>2183.5</ele>
        <time>2021-08-15T13:00:23Z</time>
      </trkpt>
      <trkpt lat="45.49917" lon="6.70077">
        <ele>2183.4</ele>
        <time>2021-08-15T13:00:24Z</time>
      </trkpt>
      <trkpt lat="45.49918" lon="6.70076">
        <ele>2183.3</ele>
        <time>2021-08-15T13:00:25Z</time>
      </trkpt>
      <trkpt lat="45.49918" lon="6.70075">
        <ele>2183.2</ele>
        <time>2021-08-15T13:00:26Z</time>
      </trkpt>
      <trkpt lat="45.49919" lon="6.70074">
        <ele>2183.1</ele>
        <time>2021-08-15T13:00:27Z</time>
      </trkpt>
      <trkpt lat="45.4992" lon="6.70073">
        <ele>2183</ele>
        <time>2021-08-15T13:00:28Z</time>
      </trkpt>
      <trkpt lat="45.4992" lon="6.70073">
        <ele>2182.8</ele>
        <time>2021-08-15T13:00:29Z</time>
      </trkpt>
      <trkpt lat="45.49921" lon="6.70072">
        <ele>2182.7</ele>
        <time>2021-08-15T13:00:30Z</time>
      </trkpt>
      <trkpt lat="45.49921" lon="6.70071">
        <ele>2182.6</ele>
        <time>2021-08-15T13:00:31Z</time>
      </trkpt>
      <trkpt lat="45.49922" lon="6.7007">
        <ele>2182.5</ele>
        <time>2021-08-15T13:00:32Z</time>
      </trkpt>
      <trkpt lat="45.49923" lon="6.7007">
        <ele>2182.4</ele>
        <time>2021-08-15T13:00:33Z</time>
      </trkpt>
      <trkpt lat="45.49923" lon="6.70069">
        <ele>2182.3</ele>
        <time>2021-08-15T13:00:34Z</time>
      </trkpt>
      <trkpt lat="45.49924" lon="6.70068">
        <ele>2182.2</ele>
        <time>2021-08-15T13:00:35Z</time>
      </trkpt>
      <trkpt lat="45.49925" lon="6.70067">
        <ele>2182.1</ele>
        <time>2021-08-15T13:00:36Z</time>
      </trkpt>
      <trkpt lat="45.49925" lon="6.70066">
        <ele>2182</ele>
        <time>2021-08-15T13:00:37Z</time>
      </trkpt>
      <trkpt lat="45.49926" lon="6.70066">
        <ele>2181.9</ele>
        <time>2021-08-15T13:00:38Z</time>
      </trkpt>
      <trkpt lat="45.49926" lon="6.70065">
        <ele>2181.8</ele>
        <time>2021-08-15T13:00:39Z</time>
      </trkpt>
      <trkpt lat="45.49927" lon="6.70064">
        <ele>2181.7</ele>
        <time>2021-08-15T13:00:40Z</time>
      </trkpt>
      <trkpt lat="45.49928" lon="6.70063">
        <ele>2181.6</ele>
        <time>2021-08-15T13:00:41Z</time>
      </trkpt>
      <trkpt lat="45.49928" lon="6.70063">
        <ele>2181.5</ele>
        <time>2021-08-15T13:00:42Z</time>
      </trkpt>
      <trkpt lat="45.49929" lon="6.70062">
        <ele>2181.4</ele>
        <time>2021-08-15T13:00:43Z</time>
      </trkpt>
      <trkpt lat="45.4993" lon="6.70061">
        <ele>2181.3</ele>
        <time>2021-08-15T13:00:44Z</time>
      </trkpt>
      <trkpt lat="45.4993" lon="6.7006">
        <ele>2181.2</ele>
        <time>2021-08-15T13:00:45Z</time>
      </trkpt>
      <trkpt lat="45.49931" lon="6.7006">
        <ele>2181.1</ele>
        <time>2021-08-15T13:00:46Z</time>
      </trkpt>
      <trkpt lat="45.49932" lon="6.70059">
        <ele>2181</ele>
        <time>2021-08-15T13:00:47Z</time>
      </trkpt>
      <trkpt lat="45.49932" lon="6.70058">
        <ele>2180.9</ele>
        <time>2021-08-15T13:00:48Z</time>
      </trkpt>
      <trkpt lat="45.49933" lon="6.70057">
        <ele>2180.7</ele>
        <time>2021-08-15T13:00:49Z</time>
      </trkpt>
      <trkpt lat="45.49934" lon="6.70057">
        <ele>2180.6</ele>
        <time>2021-08-15T13:00:50Z</time>
      </trkpt>
      <trkpt lat="45.49934" lon="6.70056">
        <ele>2180.5</ele>
        <time>2021-08-15T13:00:51Z</time>
      </trkpt>
      <trkpt lat="45.49935" lon="6.70055">
        <ele>2180.4</ele>
        <time>2021-08-15T13:00:52Z</time>
      </trkpt>
      <trkpt lat="45.49936" lon="6.70055">
        <ele>2180.3</ele>
        <time>2021-08-15T13:00:53Z</time>
      </trkpt>
      <trkpt lat="45.49937" lon="6.70054">
        <ele>2180.2</ele>
        <time>2021-08-15T13:00:54Z</time>
      </trkpt>
      <trkpt lat="45.49937" lon="6.70053">
        <ele>2180.1</ele>
        <time>2021-08-15T13:00:55Z</time>
      </trkpt>
      <trkpt lat="45.49938" lon="6.70053">
        <ele>2180.1</ele>
        <time>2021-08-15T13:00:56Z</time>
      </trkpt>
      <trkpt lat="45.49939" lon="6.70052">
        <ele>2180</ele>
        <time>2021-08-15T13:00:57Z</time>
      </trkpt>
      <trkpt lat="45.49939" lon="6.70052">
        <ele>2179.9</ele>
        <time>2021-08-15T13:00:58Z</time>
      </trkpt>
      <trkpt lat="45.4994" lon="6.70051">
        <ele>2179.8</ele>
        <time>2021-08-15T13:00:59Z</time>
      </trkpt>
      <trkpt lat="45.49941" lon="6.70051">
        <ele>2179.7</ele>
        <time>2021-08-15T13:01:00Z</time>
      </trkpt>
      <trkpt lat="45.49941" lon="6.7005">
        <ele>2179.6</ele>
        <time>2021-08-15T13:01:01Z</time>
      </trkpt>
      <trkpt lat="45.49942" lon="6.7005">
        <ele>2179.5</ele>
        <time>2021-08-15T13:01:02Z</time>
      </trkpt>
      <trkpt lat="45.49943" lon="6.70049">
        <ele>2179.4</ele>
        <time>2021-08-15T13:01:03Z</time>
      </trkpt>
      <trkpt lat="45.49943" lon="6.70049">
        <ele>2179.3</ele>
        <time>2021-08-15T13:01:04Z</time>
      </trkpt>
      <trkpt lat="45.49944" lon="6.70048">
        <ele>2179.2</ele>
        <time>2021-08-15T13:01:05Z</time>
      </trkpt>
      <trkpt lat="45.49945" lon="6.70048">
        <ele>2179.1</ele>
        <time>2021-08-15T13:01:06Z</time>
      </trkpt>
      <trkpt lat="45.49946" lon="6.70047">
        <ele>2179</ele>
        <time>2021-08-15T13:01:07Z</time>
      </trkpt>
      <trkpt lat="45.49946" lon="6.70047">
        <ele>2178.9</ele>
        <time>2021-08-15T13:01:08Z</time>
      </trkpt>
      <trkpt lat="45.49947" lon="6.70047">
        <ele>2178.8</ele>
        <time>2021-08-15T13:01:09Z</time>
      </trkpt>
      <trkpt lat="45.49948" lon="6.70046">
        <ele>2178.7</ele>
        <time>2021-08-15T13:01:10Z</time>
      </trkpt>
      <trkpt lat="45.49949" lon="6.70046">
        <ele>2178.6</ele>
        <time>2021-08-15T13:01:11Z</time>
      </trkpt>
      <trkpt lat="45.49949" lon="6.70046">
        <ele>2178.5</ele>
        <time>2021-08-15T13:01:12Z</time>
      </trkpt>
      <trkpt lat="45.4995" lon="6.70045">
        <ele>2178.3</ele>
        <time>2021-08-15T13:01:13Z</time>
      </trkpt>
      <trkpt lat="45.49951" lon="6.70045">
        <ele>2178.2</ele>
        <time>2021-08-15T13:01:14Z</time>
      </trkpt>
      <trkpt lat="45.49952" lon="6.70045">
        <ele>2178.1</ele>
        <time>2021-08-15T13:01:15Z</time>
      </trkpt>
      <trkpt lat="45.49953" lon="6.70045">
        <ele>2178</ele>
        <time>2021-08-15T13:01:16Z</time>
      </trkpt>
      <trkpt lat="45.49953" lon="6.70044">
        <ele>2177.9</ele>
        <time>2021-08-15T13:01:17Z</time>
      </trkpt>
      <trkpt lat="45.49954" lon="6.70044">
        <ele>2177.8</ele>
        <time>2021-08-15T13:01:18Z</time>
      </trkpt>
      <trkpt lat="45.49955" lon="6.70044">
        <ele>2177.7</ele>
        <time>2021-08-15T13:01:19Z</time>
      </trkpt>
      <trkpt lat="45.49956" lon="6.70044">
        <ele>2177.6</ele>
        <time>2021-08-15T13:01:20Z</time>
      </trkpt>
      <trkpt lat="45.49956" lon="6.70044">
        <ele>2177.5</ele>
        <time>2021-08-15T13:01:21Z</time>
      </trkpt>
      <trkpt lat="45.49957" lon="6.70043">
        <ele>2177.4</ele>
        <time>2021-08-15T13:01:22Z</time>
      </trkpt>
      <trkpt lat="45.49957" lon="6.70043">
        <ele>2177.4</ele>
        <time>2021-08-15T13:01:23Z</time>
      </trkpt>
      <trkpt lat="45.49957" lon="6.70043">
        <ele>2177.3</ele>
        <time>2021-08-15T13:01:24Z</time>
      </trkpt>
      <trkpt lat="45.49958" lon="6.70043">
        <ele>2177.3</ele>
        <time>2021-08-15T13:01:25Z</time>
      </trkpt>
      <trkpt lat="45.49958" lon="6.70043">
        <ele>2177.3</ele>
        <time>2021-08-15T13:01:26Z</time>
      </trkpt>
      <trkpt lat="45.49958" lon="6.70043">
        <ele>2177.2</ele>
        <time>2021-08-15T13:01:27Z</time>
      </trkpt>
      <trkpt lat="45.49958" lon="6.70043">
        <ele>2177.2</ele>
        <time>2021-08-15T13:01:28Z</time>
      </trkpt>
      <trkpt lat="45.49958" lon="6.70043">
        <ele>2177.2</ele>
        <time>2021-08-15T13:01:29Z</time>
      </trkpt>
      <trkpt lat="45.49958" lon="6.70043">
        <ele>2177.2</ele>
        <time>2021-08-15T13:01:30Z</time>
      </trkpt>
      <trkpt lat="45.49958" lon="6.70043">
        <ele>2177.2</ele>
        <time>2021-08-15T13:01:31Z</time>
      </trkpt>
      <trkpt lat="45.49958" lon="6.70043">
        <ele>2177.2</ele>
        <time>2021-08-15T13:01:32Z</time>
      </trkpt>
      <trkpt lat="45.49958" lon="6.70043">
        <ele>2177.2</ele>
        <time>2021-08-15T13:01:33Z</time>
      </trkpt>
      <trkpt lat="45.49958" lon="6.70043">
        <ele>2177.2</ele>
        <time>2021-08-15T13:01:34Z</time>
      </trkpt>
      <trkpt lat="45.49958" lon="6.70043">
        <ele>2177.2</ele>
        <time>2021-08-15T13:01:35Z</time>
      </trkpt>
      <trkpt lat="45.49958" lon="6.70043">
        <ele>2177.2</ele>
        <time>2021-08-15T13:01:36Z</time>
      </trkpt>
      <trkpt lat="45.49958" lon="6.70043">
        <ele>2177.2</ele>
        <time>2021-08-15T13:01:37Z</time>
      </trkpt>
      <trkpt lat="45.49958" lon="6.70043">
        <ele>2177.2</ele>
        <time>2021-08-15T13:01:38Z</time>
      </trkpt>
      <trkpt lat="45.49958" lon="6.70043">
        <ele>2177.2</ele>
        <time>2021-08-15T13:01:39Z</time>
      </trkpt>
      <trkpt lat="45.49958" lon="6.70043">
        <ele>2177.2</ele>
        <time>2021-08-15T13:01:40Z</time>
      </trkpt>
      <trkpt lat="45.49958" lon="6.70043">
        <ele>2177.2</ele>
        <time>2021-08-15T13:01:41Z</time>
      </trkpt>
      <trkpt lat="45.49958" lon="6.70043">
        <ele>2177.2</ele>
        <time>2021-08-15T13:01:42Z</time>
      </trkpt>
      <trkpt lat="45.49958" lon="6.70043">
        <ele>2177.2</ele>
        <time>2021-08-15T13:01:43Z</time>
      </trkpt>
      <trkpt lat="45.49958" lon="6.70043">
        <ele>2177.2</ele>
        <time>2021-08-15T13:01:44Z</time>
      </trkpt>
      <trkpt lat="45.49958" lon="6.70043">
        <ele>2177.2</ele>
        <time>2021-08-15T13:01:45Z</time>
      </trkpt>
      <trkpt lat="45.49958" lon="6.70043">
        <ele>2177.1</ele>
        <time>2021-08-15T13:01:46Z</time>
      </trkpt>
      <trkpt lat="45.49958" lon="6.70043">
        <ele>2177.1</ele>
        <time>2021-08-15T13:01:47Z</time>
      </trkpt>
      <trkpt lat="45.49959" lon="6.70043">
        <ele>2177.1</ele>
        <time>2021-08-15T13:01:48Z</time>
      </trkpt>
      <trkpt lat="45.49959" lon="6.70043">
        <ele>2177.1</ele>
        <time>2021-08-15T13:01:49Z</time>
      </trkpt>
      <trkpt lat="45.49959" lon="6.70042">
        <ele>2177</ele>
        <time>2021-08-15T13:01:50Z</time>
      </trkpt>
      <trkpt lat="45.49959" lon="6.70042">
        <ele>2177</ele>
        <time>2021-08-15T13:01:51Z</time>
      </trkpt>
      <trkpt lat="45.49959" lon="6.70042">
        <ele>2177</ele>
        <time>2021-08-15T13:01:52Z</time>
      </trkpt>
      <trkpt lat="45.4996" lon="6.70042">
        <ele>2176.9</ele>
        <time>2021-08-15T13:01:53Z</time>
      </trkpt>
      <trkpt lat="45.4996" lon="6.70042">
        <ele>2176.9</ele>
        <time>2021-08-15T13:01:54Z</time>
      </trkpt>
      <trkpt lat="45.4996" lon="6.70042">
        <ele>2176.8</ele>
        <time>2021-08-15T13:01:55Z</time>
      </trkpt>
      <trkpt lat="45.49961" lon="6.70041">
        <ele>2176.7</ele>
        <time>2021-08-15T13:01:56Z</time>
      </trkpt>
      <trkpt lat="45.49961" lon="6.70041">
        <ele>2176.7</ele>
        <time>2021-08-15T13:01:57Z</time>
      </trkpt>
      <trkpt lat="45.49962" lon="6.70041">
        <ele>2176.5</ele>
        <time>2021-08-15T13:01:58Z</time>
      </trkpt>
      <trkpt lat="45.49963" lon="6.70041">
        <ele>2176.4</ele>
        <time>2021-08-15T13:01:59Z</time>
      </trkpt>
      <trkpt lat="45.49964" lon="6.70041">
        <ele>2176.3</ele>
        <time>2021-08-15T13:02:00Z</time>
      </trkpt>
      <trkpt lat="45.49965" lon="6.70041">
        <ele>2176.2</ele>
        <time>2021-08-15T13:02:01Z</time>
      </trkpt>
      <trkpt lat="45.49966" lon="6.70041">
        <ele>2176.1</ele>
        <time>2021-08-15T13:02:02Z</time>
      </trkpt>
      <trkpt lat="45.49966" lon="6.70041">
        <ele>2176</ele>
        <time>2021-08-15T13:02:03Z</time>
      </trkpt>
      <trkpt lat="45.49967" lon="6.7004">
        <ele>2175.9</ele>
        <time>2021-08-15T13:02:04Z</time>
      </trkpt>
      <trkpt lat="45.49968" lon="6.7004">
        <ele>2175.8</ele>
        <time>2021-08-15T13:02:05Z</time>
      </trkpt>
      <trkpt lat="45.49968" lon="6.7004">
        <ele>2175.7</ele>
        <time>2021-08-15T13:02:06Z</time>
      </trkpt>
      <trkpt lat="45.49968" lon="6.7004">
        <ele>2175.6</ele>
        <time>2021-08-15T13:02:07Z</time>
      </trkpt>
      <trkpt lat="45.49969" lon="6.7004">
        <ele>2175.6</ele>
        <time>2021-08-15T13:02:08Z</time>
      </trkpt>
      <trkpt lat="45.49969" lon="6.7004">
        <ele>2175.6</ele>
        <time>2021-08-15T13:02:09Z</time>
      </trkpt>
      <trkpt lat="45.49969" lon="6.7004">
        <ele>2175.6</ele>
        <time>2021-08-15T13:02:10Z</time>
      </trkpt>
      <trkpt lat="45.49969" lon="6.7004">
        <ele>2175.6</ele>
        <time>2021-08-15T13:02:11Z</time>
      </trkpt>
      <trkpt lat="45.49969" lon="6.7004">
        <ele>2175.6</ele>
        <time>2021-08-15T13:02:12Z</time>
      </trkpt>
      <trkpt lat="45.49969" lon="6.7004">
        <ele>2175.5</ele>
        <time>2021-08-15T13:02:13Z</time>
      </trkpt>
      <trkpt lat="45.49969" lon="6.7004">
        <ele>2175.5</ele>
        <time>2021-08-15T13:02:14Z</time>
      </trkpt>
      <trkpt lat="45.4997" lon="6.7004">
        <ele>2175.4</ele>
        <time>2021-08-15T13:02:15Z</time>
      </trkpt>
      <trkpt lat="45.49971" lon="6.7004">
        <ele>2175.3</ele>
        <time>2021-08-15T13:02:16Z</time>
      </trkpt>
      <trkpt lat="45.49971" lon="6.7004">
        <ele>2175.2</ele>
        <time>2021-08-15T13:02:17Z</time>
      </trkpt>
      <trkpt lat="45.49972" lon="6.7004">
        <ele>2175.1</ele>
        <time>2021-08-15T13:02:18Z</time>
      </trkpt>
      <trkpt lat="45.49973" lon="6.7004">
        <ele>2175</ele>
        <time>2021-08-15T13:02:19Z</time>
      </trkpt>
      <trkpt lat="45.49974" lon="6.7004">
        <ele>2174.9</ele>
        <time>2021-08-15T13:02:20Z</time>
      </trkpt>
      <trkpt lat="45.49974" lon="6.70039">
        <ele>2174.8</ele>
        <time>2021-08-15T13:02:21Z</time>
      </trkpt>
      <trkpt lat="45.49975" lon="6.70039">
        <ele>2174.6</ele>
        <time>2021-08-15T13:02:22Z</time>
      </trkpt>
      <trkpt lat="45.49976" lon="6.70039">
        <ele>2174.5</ele>
        <time>2021-08-15T13:02:23Z</time>
      </trkpt>
      <trkpt lat="45.49977" lon="6.70038">
        <ele>2174.4</ele>
        <time>2021-08-15T13:02:24Z</time>
      </trkpt>
      <trkpt lat="45.49978" lon="6.70038">
        <ele>2174.3</ele>
        <time>2021-08-15T13:02:25Z</time>
      </trkpt>
      <trkpt lat="45.49978" lon="6.70037">
        <ele>2174.1</ele>
        <time>2021-08-15T13:02:26Z</time>
      </trkpt>
      <trkpt lat="45.49979" lon="6.70037">
        <ele>2174</ele>
        <time>2021-08-15T13:02:27Z</time>
      </trkpt>
      <trkpt lat="45.4998" lon="6.70036">
        <ele>2173.9</ele>
        <time>2021-08-15T13:02:28Z</time>
      </trkpt>
      <trkpt lat="45.4998" lon="6.70036">
        <ele>2173.8</ele>
        <time>2021-08-15T13:02:29Z</time>
      </trkpt>
      <trkpt lat="45.49981" lon="6.70035">
        <ele>2173.7</ele>
        <time>2021-08-15T13:02:30Z</time>
      </trkpt>
      <trkpt lat="45.49982" lon="6.70035">
        <ele>2173.6</ele>
        <time>2021-08-15T13:02:31Z</time>
      </trkpt>
      <trkpt lat="45.49982" lon="6.70035">
        <ele>2173.5</ele>
        <time>2021-08-15T13:02:32Z</time>
      </trkpt>
      <trkpt lat="45.49983" lon="6.70035">
        <ele>2173.4</ele>
        <time>2021-08-15T13:02:33Z</time>
      </trkpt>
      <trkpt lat="45.49984" lon="6.70035">
        <ele>2173.3</ele>
        <time>2021-08-15T13:02:34Z</time>
      </trkpt>
      <trkpt lat="45.49984" lon="6.70035">
        <ele>2173.2</ele>
        <time>2021-08-15T13:02:35Z</time>
      </trkpt>
      <trkpt lat="45.49985" lon="6.70035">
        <ele>2173.2</ele>
        <time>2021-08-15T13:02:36Z</time>
      </trkpt>
      <trkpt lat="45.49985" lon="6.70035">
        <ele>2173.1</ele>
        <time>2021-08-15T13:02:37Z</time>
      </trkpt>
      <trkpt lat="45.49986" lon="6.70035">
        <ele>2173</ele>
        <time>2021-08-15T13:02:38Z</time>
      </trkpt>
      <trkpt lat="45.49987" lon="6.70035">
        <ele>2172.9</ele>
        <time>2021-08-15T13:02:39Z</time>
      </trkpt>
      <trkpt lat="45.49987" lon="6.70035">
        <ele>2172.8</ele>
        <time>2021-08-15T13:02:40Z</time>
      </trkpt>
      <trkpt lat="45.49988" lon="6.70035">
        <ele>2172.7</ele>
        <time>2021-08-15T13:02:41Z</time>
      </trkpt>
      <trkpt lat="45.49989" lon="6.70034">
        <ele>2172.6</ele>
        <time>2021-08-15T13:02:42Z</time>
      </trkpt>
      <trkpt lat="45.4999" lon="6.70034">
        <ele>2172.5</ele>
        <time>2021-08-15T13:02:43Z</time>
      </trkpt>
      <trkpt lat="45.4999" lon="6.70034">
        <ele>2172.3</ele>
        <time>2021-08-15T13:02:44Z</time>
      </trkpt>
      <trkpt lat="45.49991" lon="6.70033">
        <ele>2172.2</ele>
        <time>2021-08-15T13:02:45Z</time>
      </trkpt>
      <trkpt lat="45.49992" lon="6.70033">
        <ele>2172.1</ele>
        <time>2021-08-15T13:02:46Z</time>
      </trkpt>
      <trkpt lat="45.49993" lon="6.70032">
        <ele>2172</ele>
        <time>2021-08-15T13:02:47Z</time>
      </trkpt>
      <trkpt lat="45.49994" lon="6.70031">
        <ele>2171.8</ele>
        <time>2021-08-15T13:02:48Z</time>
      </trkpt>
      <trkpt lat="45.49995" lon="6.70031">
        <ele>2171.7</ele>
        <time>2021-08-15T13:02:49Z</time>
      </trkpt>
      <trkpt lat="45.49996" lon="6.7003">
        <ele>2171.5</ele>
        <time>2021-08-15T13:02:50Z</time>
      </trkpt>
      <trkpt lat="45.49997" lon="6.70029">
        <ele>2171.4</ele>
        <time>2021-08-15T13:02:51Z</time>
      </trkpt>
      <trkpt lat="45.49998" lon="6.70028">
        <ele>2171.2</ele>
        <time>2021-08-15T13:02:52Z</time>
      </trkpt>
      <trkpt lat="45.49999" lon="6.70028">
        <ele>2171</ele>
        <time>2021-08-15T13:02:53Z</time>
      </trkpt>
      <trkpt lat="45.5" lon="6.70027">
        <ele>2170.9</ele>
        <time>2021-08-15T13:02:54Z</time>
      </trkpt>
      <trkpt lat="45.50001" lon="6.70026">
        <ele>2170.7</ele>
        <time>2021-08-15T13:02:55Z</time>
      </trkpt>
      <trkpt lat="45.50002" lon="6.70026">
        <ele>2170.6</ele>
        <time>2021-08-15T13:02:56Z</time>
      </trkpt>
      <trkpt lat="45.50003" lon="6.70025">
        <ele>2170.5</ele>
        <time>2021-08-15T13:02:57Z</time>
      </trkpt>
      <trkpt lat="45.50003" lon="6.70025">
        <ele>2170.4</ele>
        <time>2021-08-15T13:02:58Z</time>
      </trkpt>
      <trkpt lat="45.50004" lon="6.70025">
        <ele>2170.3</ele>
        <time>2021-08-15T13:02:59Z</time>
      </trkpt>
      <trkpt lat="45.50004" lon="6.70024">
        <ele>2170.3</ele>
        <time>2021-08-15T13:03:00Z</time>
      </trkpt>
      <trkpt lat="45.50005" lon="6.70024">
        <ele>2170.2</ele>
        <time>2021-08-15T13:03:01Z</time>
      </trkpt>
      <trkpt lat="45.50005" lon="6.70024">
        <ele>2170.2</ele>
        <time>2021-08-15T13:03:02Z</time>
      </trkpt>
      <trkpt lat="45.50005" lon="6.70024">
        <ele>2170.2</ele>
        <time>2021-08-15T13:03:03Z</time>
      </trkpt>
      <trkpt lat="45.50005" lon="6.70024">
        <ele>2170.2</ele>
        <time>2021-08-15T13:03:04Z</time>
      </trkpt>
      <trkpt lat="45.50005" lon="6.70024">
        <ele>2170.2</ele>
        <time>2021-08-15T13:03:05Z</time>
      </trkpt>
      <trkpt lat="45.50005" lon="6.70024">
        <ele>2170.1</ele>
        <time>2021-08-15T13:03:06Z</time>
      </trkpt>
      <trkpt lat="45.50006" lon="6.70024">
        <ele>2170</ele>
        <time>2021-08-15T13:03:07Z</time>
      </trkpt>
      <trkpt lat="45.50007" lon="6.70023">
        <ele>2170</ele>
        <time>2021-08-15T13:03:08Z</time>
      </trkpt>
      <trkpt lat="45.50007" lon="6.70023">
        <ele>2169.8</ele>
        <time>2021-08-15T13:03:09Z</time>
      </trkpt>
      <trkpt lat="45.50008" lon="6.70023">
        <ele>2169.7</ele>
        <time>2021-08-15T13:03:10Z</time>
      </trkpt>
      <trkpt lat="45.50009" lon="6.70022">
        <ele>2169.6</ele>
        <time>2021-08-15T13:03:11Z</time>
      </trkpt>
      <trkpt lat="45.5001" lon="6.70022">
        <ele>2169.5</ele>
        <time>2021-08-15T13:03:12Z</time>
      </trkpt>
      <trkpt lat="45.50011" lon="6.70021">
        <ele>2169.3</ele>
        <time>2021-08-15T13:03:13Z</time>
      </trkpt>
      <trkpt lat="45.50012" lon="6.70021">
        <ele>2169.2</ele>
        <time>2021-08-15T13:03:14Z</time>
      </trkpt>
      <trkpt lat="45.50013" lon="6.7002">
        <ele>2169.1</ele>
        <time>2021-08-15T13:03:15Z</time>
      </trkpt>
      <trkpt lat="45.50013" lon="6.70019">
        <ele>2169</ele>
        <time>2021-08-15T13:03:16Z</time>
      </trkpt>
      <trkpt lat="45.50014" lon="6.70019">
        <ele>2168.9</ele>
        <time>2021-08-15T13:03:17Z</time>
      </trkpt>
      <trkpt lat="45.50015" lon="6.70018">
        <ele>2168.8</ele>
        <time>2021-08-15T13:03:18Z</time>
      </trkpt>
      <trkpt lat="45.50016" lon="6.70018">
        <ele>2168.7</ele>
        <time>2021-08-15T13:03:19Z</time>
      </trkpt>
      <trkpt lat="45.50016" lon="6.70017">
        <ele>2168.6</ele>
        <time>2021-08-15T13:03:20Z</time>
      </trkpt>
      <trkpt lat="45.50017" lon="6.70017">
        <ele>2168.5</ele>
        <time>2021-08-15T13:03:21Z</time>
      </trkpt>
      <trkpt lat="45.50018" lon="6.70016">
        <ele>2168.4</ele>
        <time>2021-08-15T13:03:22Z</time>
      </trkpt>
      <trkpt lat="45.50018" lon="6.70016">
        <ele>2168.4</ele>
        <time>2021-08-15T13:03:23Z</time>
      </trkpt>
      <trkpt lat="45.50019" lon="6.70016">
        <ele>2168.3</ele>
        <time>2021-08-15T13:03:24Z</time>
      </trkpt>
      <trkpt lat="45.5002" lon="6.70015">
        <ele>2168.2</ele>
        <time>2021-08-15T13:03:25Z</time>
      </trkpt>
      <trkpt lat="45.50021" lon="6.70015">
        <ele>2168.1</ele>
        <time>2021-08-15T13:03:26Z</time>
      </trkpt>
      <trkpt lat="45.50021" lon="6.70015">
        <ele>2168</ele>
        <time>2021-08-15T13:03:27Z</time>
      </trkpt>
      <trkpt lat="45.50022" lon="6.70014">
        <ele>2167.9</ele>
        <time>2021-08-15T13:03:28Z</time>
      </trkpt>
      <trkpt lat="45.50023" lon="6.70014">
        <ele>2167.8</ele>
        <time>2021-08-15T13:03:29Z</time>
      </trkpt>
      <trkpt lat="45.50024" lon="6.70014">
        <ele>2167.7</ele>
        <time>2021-08-15T13:03:30Z</time>
      </trkpt>
      <trkpt lat="45.50024" lon="6.70014">
        <ele>2167.7</ele>
        <time>2021-08-15T13:03:31Z</time>
      </trkpt>
      <trkpt lat="45.50025" lon="6.70014">
        <ele>2167.6</ele>
        <time>2021-08-15T13:03:32Z</time>
      </trkpt>
      <trkpt lat="45.50026" lon="6.70014">
        <ele>2167.5</ele>
        <time>2021-08-15T13:03:33Z</time>
      </trkpt>
      <trkpt lat="45.50027" lon="6.70014">
        <ele>2167.4</ele>
        <time>2021-08-15T13:03:34Z</time>
      </trkpt>
      <trkpt lat="45.50028" lon="6.70014">
        <ele>2167.3</ele>
        <time>2021-08-15T13:03:35Z</time>
      </trkpt>
      <trkpt lat="45.50028" lon="6.70014">
        <ele>2167.2</ele>
        <time>2021-08-15T13:03:36Z</time>
      </trkpt>
      <trkpt lat="45.50029" lon="6.70014">
        <ele>2167.1</ele>
        <time>2021-08-15T13:03:37Z</time>
      </trkpt>
      <trkpt lat="45.5003" lon="6.70014">
        <ele>2167</ele>
        <time>2021-08-15T13:03:38Z</time>
      </trkpt>
      <trkpt lat="45.50031" lon="6.70014">
        <ele>2166.9</ele>
        <time>2021-08-15T13:03:39Z</time>
      </trkpt>
      <trkpt lat="45.50032" lon="6.70014">
        <ele>2166.8</ele>
        <time>2021-08-15T13:03:40Z</time>
      </trkpt>
      <trkpt lat="45.50033" lon="6.70014">
        <ele>2166.7</ele>
        <time>2021-08-15T13:03:41Z</time>
      </trkpt>
      <trkpt lat="45.50034" lon="6.70014">
        <ele>2166.6</ele>
        <time>2021-08-15T13:03:42Z</time>
      </trkpt>
      <trkpt lat="45.50034" lon="6.70014">
        <ele>2166.6</ele>
        <time>2021-08-15T13:03:43Z</time>
      </trkpt>
      <trkpt lat="45.50035" lon="6.70014">
        <ele>2166.5</ele>
        <time>2021-08-15T13:03:44Z</time>
      </trkpt>
      <trkpt lat="45.50036" lon="6.70014">
        <ele>2166.4</ele>
        <time>2021-08-15T13:03:45Z</time>
      </trkpt>
      <trkpt lat="45.50037" lon="6.70013">
        <ele>2166.3</ele>
        <time>2021-08-15T13:03:46Z</time>
      </trkpt>
      <trkpt lat="45.50038" lon="6.70013">
        <ele>2166.2</ele>
        <time>2021-08-15T13:03:47Z</time>
      </trkpt>
      <trkpt lat="45.50039" lon="6.70013">
        <ele>2166.1</ele>
        <time>2021-08-15T13:03:48Z</time>
      </trkpt>
      <trkpt lat="45.50039" lon="6.70013">
        <ele>2166</ele>
        <time>2021-08-15T13:03:49Z</time>
      </trkpt>
      <trkpt lat="45.5004" lon="6.70013">
        <ele>2165.9</ele>
        <time>2021-08-15T13:03:50Z</time>
      </trkpt>
      <trkpt lat="45.50041" lon="6.70013">
        <ele>2165.8</ele>
        <time>2021-08-15T13:03:51Z</time>
      </trkpt>
      <trkpt lat="45.50042" lon="6.70012">
        <ele>2165.7</ele>
        <time>2021-08-15T13:03:52Z</time>
      </trkpt>
      <trkpt lat="45.50043" lon="6.70012">
        <ele>2165.6</ele>
        <time>2021-08-15T13:03:53Z</time>
      </trkpt>
      <trkpt lat="45.50044" lon="6.70012">
        <ele>2165.5</ele>
        <time>2021-08-15T13:03:54Z</time>
      </trkpt>
      <trkpt lat="45.50045" lon="6.70012">
        <ele>2165.4</ele>
        <time>2021-08-15T13:03:55Z</time>
      </trkpt>
      <trkpt lat="45.50046" lon="6.70012">
        <ele>2165.3</ele>
        <time>2021-08-15T13:03:56Z</time>
      </trkpt>
      <trkpt lat="45.50046" lon="6.70012">
        <ele>2165.3</ele>
        <time>2021-08-15T13:03:57Z</time>
      </trkpt>
      <trkpt lat="45.50047" lon="6.70012">
        <ele>2165.2</ele>
        <time>2021-08-15T13:03:58Z</time>
      </trkpt>
      <trkpt lat="45.50048" lon="6.70012">
        <ele>2165.1</ele>
        <time>2021-08-15T13:03:59Z</time>
      </trkpt>
      <trkpt lat="45.50049" lon="6.70012">
        <ele>2165</ele>
        <time>2021-08-15T13:04:00Z</time>
      </trkpt>
      <trkpt lat="45.5005" lon="6.70012">
        <ele>2164.9</ele>
        <time>2021-08-15T13:04:01Z</time>
      </trkpt>
      <trkpt lat="45.50051" lon="6.70012">
        <ele>2164.8</ele>
        <time>2021-08-15T13:04:02Z</time>
      </trkpt>
      <trkpt lat="45.50052" lon="6.70012">
        <ele>2164.7</ele>
        <time>2021-08-15T13:04:03Z</time>
      </trkpt>
      <trkpt lat="45.50053" lon="6.70012">
        <ele>2164.6</ele>
        <time>2021-08-15T13:04:04Z</time>
      </trkpt>
      <trkpt lat="45.50054" lon="6.70012">
        <ele>2164.5</ele>
        <time>2021-08-15T13:04:05Z</time>
      </trkpt>
      <trkpt lat="45.50055" lon="6.70012">
        <ele>2164.4</ele>
        <time>2021-08-15T13:04:06Z</time>
      </trkpt>
      <trkpt lat="45.50056" lon="6.70012">
        <ele>2164.3</ele>
        <time>2021-08-15T13:04:07Z</time>
      </trkpt>
      <trkpt lat="45.50056" lon="6.70012">
        <ele>2164.2</ele>
        <time>2021-08-15T13:04:08Z</time>
      </trkpt>
      <trkpt lat="45.50057" lon="6.70012">
        <ele>2164.1</ele>
        <time>2021-08-15T13:04:09Z</time>
      </trkpt>
      <trkpt lat="45.50058" lon="6.70012">
        <ele>2164</ele>
        <time>2021-08-15T13:04:10Z</time>
      </trkpt>
      <trkpt lat="45.50059" lon="6.70012">
        <ele>2163.9</ele>
        <time>2021-08-15T13:04:11Z</time>
      </trkpt>
      <trkpt lat="45.5006" lon="6.70012">
        <ele>2163.8</ele>
        <time>2021-08-15T13:04:12Z</time>
      </trkpt>
      <trkpt lat="45.50061" lon="6.70012">
        <ele>2163.7</ele>
        <time>2021-08-15T13:04:13Z</time>
      </trkpt>
      <trkpt lat="45.50061" lon="6.70012">
        <ele>2163.6</ele>
        <time>2021-08-15T13:04:14Z</time>
      </trkpt>
      <trkpt lat="45.50062" lon="6.70012">
        <ele>2163.6</ele>
        <time>2021-08-15T13:04:15Z</time>
      </trkpt>
      <trkpt lat="45.50063" lon="6.70012">
        <ele>2163.5</ele>
        <time>2021-08-15T13:04:16Z</time>
      </trkpt>
      <trkpt lat="45.50064" lon="6.70012">
        <ele>2163.4</ele>
        <time>2021-08-15T13:04:17Z</time>
      </trkpt>
      <trkpt lat="45.50064" lon="6.70012">
        <ele>2163.3</ele>
        <time>2021-08-15T13:04:18Z</time>
      </trkpt>
      <trkpt lat="45.50065" lon="6.70012">
        <ele>2163.2</ele>
        <time>2021-08-15T13:04:19Z</time>
      </trkpt>
      <trkpt lat="45.50066" lon="6.70012">
        <ele>2163.2</ele>
        <time>2021-08-15T13:04:20Z</time>
      </trkpt>
      <trkpt lat="45.50067" lon="6.70012">
        <ele>2163.1</ele>
        <time>2021-08-15T13:04:21Z</time>
      </trkpt>
      <trkpt lat="45.50068" lon="6.70011">
        <ele>2163</ele>
        <time>2021-08-15T13:04:22Z</time>
      </trkpt>
      <trkpt lat="45.50068" lon="6.70011">
        <ele>2162.9</ele>
        <time>2021-08-15T13:04:23Z</time>
      </trkpt>
      <trkpt lat="45.50069" lon="6.70011">
        <ele>2162.8</ele>
        <time>2021-08-15T13:04:24Z</time>
      </trkpt>
      <trkpt lat="45.5007" lon="6.70011">
        <ele>2162.7</ele>
        <time>2021-08-15T13:04:25Z</time>
      </trkpt>
      <trkpt lat="45.50071" lon="6.70011">
        <ele>2162.7</ele>
        <time>2021-08-15T13:04:26Z</time>
      </trkpt>
      <trkpt lat="45.50072" lon="6.70011">
        <ele>2162.6</ele>
        <time>2021-08-15T13:04:27Z</time>
      </trkpt>
      <trkpt lat="45.50072" lon="6.70012">
        <ele>2162.5</ele>
        <time>2021-08-15T13:04:28Z</time>
      </trkpt>
      <trkpt lat="45.50073" lon="6.70012">
        <ele>2162.4</ele>
        <time>2021-08-15T13:04:29Z</time>
      </trkpt>
      <trkpt lat="45.50074" lon="6.70012">
        <ele>2162.3</ele>
        <time>2021-08-15T13:04:30Z</time>
      </trkpt>
      <trkpt lat="45.50075" lon="6.70012">
        <ele>2162.2</ele>
        <time>2021-08-15T13:04:31Z</time>
      </trkpt>
      <trkpt lat="45.50076" lon="6.70012">
        <ele>2162.1</ele>
        <time>2021-08-15T13:04:32Z</time>
      </trkpt>
      <trkpt lat="45.50077" lon="6.70012">
        <ele>2162.1</ele>
        <time>2021-08-15T13:04:33Z</time>
      </trkpt>
      <trkpt lat="45.50078" lon="6.70012">
        <ele>2162</ele>
        <time>2021-08-15T13:04:34Z</time>
      </trkpt>
      <trkpt lat="45.50079" lon="6.70013">
        <ele>2161.9</ele>
        <time>2021-08-15T13:04:35Z</time>
      </trkpt>
      <trkpt lat="45.5008" lon="6.70013">
        <ele>2161.8</ele>
        <time>2021-08-15T13:04:36Z</time>
      </trkpt>
      <trkpt lat="45.50081" lon="6.70013">
        <ele>2161.7</ele>
        <time>2021-08-15T13:04:37Z</time>
      </trkpt>
      <trkpt lat="45.50082" lon="6.70013">
        <ele>2161.6</ele>
        <time>2021-08-15T13:04:38Z</time>
      </trkpt>
      <trkpt lat="45.50083" lon="6.70013">
        <ele>2161.5</ele>
        <time>2021-08-15T13:04:39Z</time>
      </trkpt>
      <trkpt lat="45.50084" lon="6.70013">
        <ele>2161.4</ele>
        <time>2021-08-15T13:04:40Z</time>
      </trkpt>
      <trkpt lat="45.50085" lon="6.70013">
        <ele>2161.4</ele>
        <time>2021-08-15T13:04:41Z</time>
      </trkpt>
      <trkpt lat="45.50085" lon="6.70013">
        <ele>2161.3</ele>
        <time>2021-08-15T13:04:42Z</time>
      </trkpt>
      <trkpt lat="45.50086" lon="6.70013">
        <ele>2161.2</ele>
        <time>2021-08-15T13:04:43Z</time>
      </trkpt>
      <trkpt lat="45.50087" lon="6.70012">
        <ele>2161.1</ele>
        <time>2021-08-15T13:04:44Z</time>
      </trkpt>
      <trkpt lat="45.50088" lon="6.70012">
        <ele>2161.1</ele>
        <time>2021-08-15T13:04:45Z</time>
      </trkpt>
      <trkpt lat="45.50089" lon="6.70012">
        <ele>2161</ele>
        <time>2021-08-15T13:04:46Z</time>
      </trkpt>
      <trkpt lat="45.5009" lon="6.70011">
        <ele>2160.9</ele>
        <time>2021-08-15T13:04:47Z</time>
      </trkpt>
      <trkpt lat="45.50091" lon="6.70011">
        <ele>2160.8</ele>
        <time>2021-08-15T13:04:48Z</time>
      </trkpt>
      <trkpt lat="45.50091" lon="6.70011">
        <ele>2160.8</ele>
        <time>2021-08-15T13:04:49Z</time>
      </trkpt>
      <trkpt lat="45.50092" lon="6.7001">
        <ele>2160.7</ele>
        <time>2021-08-15T13:04:50Z</time>
      </trkpt>
      <trkpt lat="45.50093" lon="6.7001">
        <ele>2160.6</ele>
        <time>2021-08-15T13:04:51Z</time>
      </trkpt>
      <trkpt lat="45.50094" lon="6.70009">
        <ele>2160.5</ele>
        <time>2021-08-15T13:04:52Z</time>
      </trkpt>
      <trkpt lat="45.50094" lon="6.70009">
        <ele>2160.5</ele>
        <time>2021-08-15T13:04:53Z</time>
      </trkpt>
      <trkpt lat="45.50095" lon="6.70009">
        <ele>2160.4</ele>
        <time>2021-08-15T13:04:54Z</time>
      </trkpt>
      <trkpt lat="45.50096" lon="6.70008">
        <ele>2160.3</ele>
        <time>2021-08-15T13:04:55Z</time>
      </trkpt>
      <trkpt lat="45.50097" lon="6.70008">
        <ele>2160.3</ele>
        <time>2021-08-15T13:04:56Z</time>
      </trkpt>
      <trkpt lat="45.50097" lon="6.70007">
        <ele>2160.2</ele>
        <time>2021-08-15T13:04:57Z</time>
      </trkpt>
      <trkpt lat="45.50098" lon="6.70007">
        <ele>2160.1</ele>
        <time>2021-08-15T13:04:58Z</time>
      </trkpt>
      <trkpt lat="45.50099" lon="6.70007">
        <ele>2160.1</ele>
        <time>2021-08-15T13:04:59Z</time>
      </trkpt>
      <trkpt lat="45.501" lon="6.70007">
        <ele>2160</ele>
        <time>2021-08-15T13:05:00Z</time>
      </trkpt>
      <trkpt lat="45.50101" lon="6.70007">
        <ele>2159.9</ele>
        <time>2021-08-15T13:05:01Z</time>
      </trkpt>
      <trkpt lat="45.50101" lon="6.70006">
        <ele>2159.8</ele>
        <time>2021-08-15T13:05:02Z</time>
      </trkpt>
      <trkpt lat="45.50102" lon="6.70006">
        <ele>2159.8</ele>
        <time>2021-08-15T13:05:03Z</time>
      </trkpt>
      <trkpt lat="45.50103" lon="6.70006">
        <ele>2159.7</ele>
        <time>2021-08-15T13:05:04Z</time>
      </trkpt>
      <trkpt lat="45.50104" lon="6.70006">
        <ele>2159.6</ele>
        <time>2021-08-15T13:05:05Z</time>
      </trkpt>
      <trkpt lat="45.50105" lon="6.70006">
        <ele>2159.6</ele>
        <time>2021-08-15T13:05:06Z</time>
      </trkpt>
      <trkpt lat="45.50106" lon="6.70006">
        <ele>2159.5</ele>
        <time>2021-08-15T13:05:07Z</time>
      </trkpt>
      <trkpt lat="45.50107" lon="6.70006">
        <ele>2159.4</ele>
        <time>2021-08-15T13:05:08Z</time>
      </trkpt>
      <trkpt lat="45.50107" lon="6.70005">
        <ele>2159.3</ele>
        <time>2021-08-15T13:05:09Z</time>
      </trkpt>
      <trkpt lat="45.50108" lon="6.70005">
        <ele>2159.3</ele>
        <time>2021-08-15T13:05:10Z</time>
      </trkpt>
      <trkpt lat="45.50109" lon="6.70004">
        <ele>2159.2</ele>
        <time>2021-08-15T13:05:11Z</time>
      </trkpt>
      <trkpt lat="45.5011" lon="6.70004">
        <ele>2159.1</ele>
        <time>2021-08-15T13:05:12Z</time>
      </trkpt>
      <trkpt lat="45.50111" lon="6.70003">
        <ele>2159</ele>
        <time>2021-08-15T13:05:13Z</time>
      </trkpt>
      <trkpt lat="45.50111" lon="6.70002">
        <ele>2159</ele>
        <time>2021-08-15T13:05:14Z</time>
      </trkpt>
      <trkpt lat="45.50112" lon="6.70001">
        <ele>2158.9</ele>
        <time>2021-08-15T13:05:15Z</time>
      </trkpt>
      <trkpt lat="45.50113" lon="6.70001">
        <ele>2158.8</ele>
        <time>2021-08-15T13:05:16Z</time>
      </trkpt>
      <trkpt lat="45.50113" lon="6.7">
        <ele>2158.7</ele>
        <time>2021-08-15T13:05:17Z</time>
      </trkpt>
      <trkpt lat="45.50114" lon="6.69999">
        <ele>2158.6</ele>
        <time>2021-08-15T13:05:18Z</time>
      </trkpt>
      <trkpt lat="45.50115" lon="6.69998">
        <ele>2158.6</ele>
        <time>2021-08-15T13:05:19Z</time>
      </trkpt>
      <trkpt lat="45.50115" lon="6.69997">
        <ele>2158.5</ele>
        <time>2021-08-15T13:05:20Z</time>
      </trkpt>
      <trkpt lat="45.50116" lon="6.69995">
        <ele>2158.4</ele>
        <time>2021-08-15T13:05:21Z</time>
      </trkpt>
      <trkpt lat="45.50117" lon="6.69994">
        <ele>2158.3</ele>
        <time>2021-08-15T13:05:22Z</time>
      </trkpt>
      <trkpt lat="45.50117" lon="6.69993">
        <ele>2158.2</ele>
        <time>2021-08-15T13:05:23Z</time>
      </trkpt>
      <trkpt lat="45.50118" lon="6.69992">
        <ele>2158.2</ele>
        <time>2021-08-15T13:05:24Z</time>
      </trkpt>
      <trkpt lat="45.50118" lon="6.69991">
        <ele>2158.1</ele>
        <time>2021-08-15T13:05:25Z</time>
      </trkpt>
      <trkpt lat="45.50119" lon="6.6999">
        <ele>2158</ele>
        <time>2021-08-15T13:05:26Z</time>
      </trkpt>
      <trkpt lat="45.50119" lon="6.69989">
        <ele>2157.9</ele>
        <time>2021-08-15T13:05:27Z</time>
      </trkpt>
      <trkpt lat="45.5012" lon="6.69988">
        <ele>2157.9</ele>
        <time>2021-08-15T13:05:28Z</time>
      </trkpt>
      <trkpt lat="45.5012" lon="6.69987">
        <ele>2157.8</ele>
        <time>2021-08-15T13:05:29Z</time>
      </trkpt>
      <trkpt lat="45.5012" lon="6.69987">
        <ele>2157.8</ele>
        <time>2021-08-15T13:05:30Z</time>
      </trkpt>
      <trkpt lat="45.50121" lon="6.69986">
        <ele>2157.7</ele>
        <time>2021-08-15T13:05:31Z</time>
      </trkpt>
      <trkpt lat="45.50121" lon="6.69986">
        <ele>2157.7</ele>
        <time>2021-08-15T13:05:32Z</time>
      </trkpt>
      <trkpt lat="45.50122" lon="6.69985">
        <ele>2157.6</ele>
        <time>2021-08-15T13:05:33Z</time>
      </trkpt>
      <trkpt lat="45.50123" lon="6.69985">
        <ele>2157.6</ele>
        <time>2021-08-15T13:05:34Z</time>
      </trkpt>
      <trkpt lat="45.50124" lon="6.69985">
        <ele>2157.5</ele>
        <time>2021-08-15T13:05:35Z</time>
      </trkpt>
      <trkpt lat="45.50125" lon="6.69986">
        <ele>2157.4</ele>
        <time>2021-08-15T13:05:36Z</time>
      </trkpt>
      <trkpt lat="45.50126" lon="6.69986">
        <ele>2157.3</ele>
        <time>2021-08-15T13:05:37Z</time>
      </trkpt>
      <trkpt lat="45.50127" lon="6.69987">
        <ele>2157.1</ele>
        <time>2021-08-15T13:05:38Z</time>
      </trkpt>
      <trkpt lat="45.50129" lon="6.69987">
        <ele>2156.9</ele>
        <time>2021-08-15T13:05:39Z</time>
      </trkpt>
      <trkpt lat="45.5013" lon="6.69987">
        <ele>2156.9</ele>
        <time>2021-08-15T13:05:40Z</time>
      </trkpt>
      <trkpt lat="45.50131" lon="6.69988">
        <ele>2156.8</ele>
        <time>2021-08-15T13:05:41Z</time>
      </trkpt>
      <trkpt lat="45.50131" lon="6.69988">
        <ele>2156.8</ele>
        <time>2021-08-15T13:05:42Z</time>
      </trkpt>
      <trkpt lat="45.50132" lon="6.69988">
        <ele>2156.8</ele>
        <time>2021-08-15T13:05:43Z</time>
      </trkpt>
      <trkpt lat="45.50133" lon="6.69988">
        <ele>2156.7</ele>
        <time>2021-08-15T13:05:44Z</time>
      </trkpt>
      <trkpt lat="45.50134" lon="6.69988">
        <ele>2156.7</ele>
        <time>2021-08-15T13:05:45Z</time>
      </trkpt>
      <trkpt lat="45.50135" lon="6.69989">
        <ele>2156.7</ele>
        <time>2021-08-15T13:05:46Z</time>
      </trkpt>
      <trkpt lat="45.50135" lon="6.69989">
        <ele>2156.6</ele>
        <time>2021-08-15T13:05:47Z</time>
      </trkpt>
      <trkpt lat="45.50136" lon="6.69989">
        <ele>2156.6</ele>
        <time>2021-08-15T13:05:48Z</time>
      </trkpt>
      <trkpt lat="45.50137" lon="6.69989">
        <ele>2156.6</ele>
        <time>2021-08-15T13:05:49Z</time>
      </trkpt>
      <trkpt lat="45.50137" lon="6.69989">
        <ele>2156.5</ele>
        <time>2021-08-15T13:05:50Z</time>
      </trkpt>
      <trkpt lat="45.50138" lon="6.69989">
        <ele>2156.5</ele>
        <time>2021-08-15T13:05:51Z</time>
      </trkpt>
      <trkpt lat="45.50139" lon="6.69989">
        <ele>2156.5</ele>
        <time>2021-08-15T13:05:52Z</time>
      </trkpt>
      <trkpt lat="45.5014" lon="6.6999">
        <ele>2156.4</ele>
        <time>2021-08-15T13:05:53Z</time>
      </trkpt>
      <trkpt lat="45.50141" lon="6.6999">
        <ele>2156.4</ele>
        <time>2021-08-15T13:05:54Z</time>
      </trkpt>
      <trkpt lat="45.50142" lon="6.6999">
        <ele>2156.3</ele>
        <time>2021-08-15T13:05:55Z</time>
      </trkpt>
      <trkpt lat="45.50143" lon="6.69991">
        <ele>2156.3</ele>
        <time>2021-08-15T13:05:56Z</time>
      </trkpt>
      <trkpt lat="45.50144" lon="6.69991">
        <ele>2156.2</ele>
        <time>2021-08-15T13:05:57Z</time>
      </trkpt>
      <trkpt lat="45.50144" lon="6.69992">
        <ele>2156.1</ele>
        <time>2021-08-15T13:05:58Z</time>
      </trkpt>
      <trkpt lat="45.50145" lon="6.69992">
        <ele>2156.1</ele>
        <time>2021-08-15T13:05:59Z</time>
      </trkpt>
      <trkpt lat="45.50146" lon="6.69993">
        <ele>2156</ele>
        <time>2021-08-15T13:06:00Z</time>
      </trkpt>
      <trkpt lat="45.50147" lon="6.69993">
        <ele>2156</ele>
        <time>2021-08-15T13:06:01Z</time>
      </trkpt>
      <trkpt lat="45.50148" lon="6.69994">
        <ele>2155.9</ele>
        <time>2021-08-15T13:06:02Z</time>
      </trkpt>
      <trkpt lat="45.50149" lon="6.69995">
        <ele>2155.8</ele>
        <time>2021-08-15T13:06:03Z</time>
      </trkpt>
      <trkpt lat="45.5015" lon="6.69995">
        <ele>2155.7</ele>
        <time>2021-08-15T13:06:04Z</time>
      </trkpt>
      <trkpt lat="45.50151" lon="6.69996">
        <ele>2155.7</ele>
        <time>2021-08-15T13:06:05Z</time>
      </trkpt>
      <trkpt lat="45.50151" lon="6.69997">
        <ele>2155.6</ele>
        <time>2021-08-15T13:06:06Z</time>
      </trkpt>
      <trkpt lat="45.50152" lon="6.69998">
        <ele>2155.5</ele>
        <time>2021-08-15T13:06:07Z</time>
      </trkpt>
      <trkpt lat="45.50153" lon="6.69999">
        <ele>2155.5</ele>
        <time>2021-08-15T13:06:08Z</time>
      </trkpt>
      <trkpt lat="45.50153" lon="6.7">
        <ele>2155.4</ele>
        <time>2021-08-15T13:06:09Z</time>
      </trkpt>
      <trkpt lat="45.50154" lon="6.70001">
        <ele>2155.3</ele>
        <time>2021-08-15T13:06:10Z</time>
      </trkpt>
      <trkpt lat="45.50155" lon="6.70002">
        <ele>2155.3</ele>
        <time>2021-08-15T13:06:11Z</time>
      </trkpt>
      <trkpt lat="45.50155" lon="6.70003">
        <ele>2155.2</ele>
        <time>2021-08-15T13:06:12Z</time>
      </trkpt>
      <trkpt lat="45.50156" lon="6.70004">
        <ele>2155.2</ele>
        <time>2021-08-15T13:06:13Z</time>
      </trkpt>
      <trkpt lat="45.50156" lon="6.70005">
        <ele>2155.1</ele>
        <time>2021-08-15T13:06:14Z</time>
      </trkpt>
      <trkpt lat="45.50157" lon="6.70006">
        <ele>2155</ele>
        <time>2021-08-15T13:06:15Z</time>
      </trkpt>
      <trkpt lat="45.50157" lon="6.70007">
        <ele>2155</ele>
        <time>2021-08-15T13:06:16Z</time>
      </trkpt>
      <trkpt lat="45.50158" lon="6.70008">
        <ele>2154.9</ele>
        <time>2021-08-15T13:06:17Z</time>
      </trkpt>
      <trkpt lat="45.50158" lon="6.7001">
        <ele>2154.8</ele>
        <time>2021-08-15T13:06:18Z</time>
      </trkpt>
      <trkpt lat="45.50158" lon="6.70011">
        <ele>2154.8</ele>
        <time>2021-08-15T13:06:19Z</time>
      </trkpt>
      <trkpt lat="45.50159" lon="6.70012">
        <ele>2154.7</ele>
        <time>2021-08-15T13:06:20Z</time>
      </trkpt>
      <trkpt lat="45.50159" lon="6.70013">
        <ele>2154.6</ele>
        <time>2021-08-15T13:06:21Z</time>
      </trkpt>
      <trkpt lat="45.5016" lon="6.70014">
        <ele>2154.6</ele>
        <time>2021-08-15T13:06:22Z</time>
      </trkpt>
      <trkpt lat="45.5016" lon="6.70015">
        <ele>2154.5</ele>
        <time>2021-08-15T13:06:23Z</time>
      </trkpt>
      <trkpt lat="45.50161" lon="6.70017">
        <ele>2154.5</ele>
        <time>2021-08-15T13:06:24Z</time>
      </trkpt>
      <trkpt lat="45.50161" lon="6.70018">
        <ele>2154.4</ele>
        <time>2021-08-15T13:06:25Z</time>
      </trkpt>
      <trkpt lat="45.50162" lon="6.70019">
        <ele>2154.3</ele>
        <time>2021-08-15T13:06:26Z</time>
      </trkpt>
      <trkpt lat="45.50162" lon="6.7002">
        <ele>2154.3</ele>
        <time>2021-08-15T13:06:27Z</time>
      </trkpt>
      <trkpt lat="45.50163" lon="6.70021">
        <ele>2154.2</ele>
        <time>2021-08-15T13:06:28Z</time>
      </trkpt>
      <trkpt lat="45.50164" lon="6.70022">
        <ele>2154.2</ele>
        <time>2021-08-15T13:06:29Z</time>
      </trkpt>
      <trkpt lat="45.50164" lon="6.70023">
        <ele>2154.1</ele>
        <time>2021-08-15T13:06:30Z</time>
      </trkpt>
      <trkpt lat="45.50165" lon="6.70024">
        <ele>2154.6</ele>
        <time>2021-08-15T13:06:31Z</time>
      </trkpt>
      <trkpt lat="45.50166" lon="6.70025">
        <ele>2154.6</ele>
        <time>2021-08-15T13:06:32Z</time>
      </trkpt>
      <trkpt lat="45.50166" lon="6.70026">
        <ele>2154.6</ele>
        <time>2021-08-15T13:06:33Z</time>
      </trkpt>
      <trkpt lat="45.50167" lon="6.70027">
        <ele>2154.6</ele>
        <time>2021-08-15T13:06:34Z</time>
      </trkpt>
      <trkpt lat="45.50168" lon="6.70027">
        <ele>2154.7</ele>
        <time>2021-08-15T13:06:35Z</time>
      </trkpt>
      <trkpt lat="45.50168" lon="6.70028">
        <ele>2154.7</ele>
        <time>2021-08-15T13:06:36Z</time>
      </trkpt>
      <trkpt lat="45.50169" lon="6.70029">
        <ele>2154.7</ele>
        <time>2021-08-15T13:06:37Z</time>
      </trkpt>
      <trkpt lat="45.50169" lon="6.7003">
        <ele>2154.7</ele>
        <time>2021-08-15T13:06:38Z</time>
      </trkpt>
      <trkpt lat="45.50169" lon="6.70031">
        <ele>2154.7</ele>
        <time>2021-08-15T13:06:39Z</time>
      </trkpt>
      <trkpt lat="45.50169" lon="6.70031">
        <ele>2154.7</ele>
        <time>2021-08-15T13:06:40Z</time>
      </trkpt>
      <trkpt lat="45.50169" lon="6.70032">
        <ele>2154.7</ele>
        <time>2021-08-15T13:06:41Z</time>
      </trkpt>
      <trkpt lat="45.50169" lon="6.70033">
        <ele>2154.7</ele>
        <time>2021-08-15T13:06:42Z</time>
      </trkpt>
      <trkpt lat="45.50169" lon="6.70033">
        <ele>2154.7</ele>
        <time>2021-08-15T13:06:43Z</time>
      </trkpt>
      <trkpt lat="45.50169" lon="6.70034">
        <ele>2154.7</ele>
        <time>2021-08-15T13:06:44Z</time>
      </trkpt>
      <trkpt lat="45.50169" lon="6.70034">
        <ele>2154.8</ele>
        <time>2021-08-15T13:06:45Z</time>
      </trkpt>
      <trkpt lat="45.50169" lon="6.70034">
        <ele>2154.8</ele>
        <time>2021-08-15T13:06:46Z</time>
      </trkpt>
      <trkpt lat="45.50168" lon="6.70034">
        <ele>2154.8</ele>
        <time>2021-08-15T13:06:47Z</time>
      </trkpt>
      <trkpt lat="45.50168" lon="6.70033">
        <ele>2154.8</ele>
        <time>2021-08-15T13:06:48Z</time>
      </trkpt>
      <trkpt lat="45.50169" lon="6.70032">
        <ele>2154.8</ele>
        <time>2021-08-15T13:06:49Z</time>
      </trkpt>
      <trkpt lat="45.50169" lon="6.70031">
        <ele>2154.8</ele>
        <time>2021-08-15T13:06:50Z</time>
      </trkpt>
      <trkpt lat="45.50169" lon="6.7003">
        <ele>2154.8</ele>
        <time>2021-08-15T13:06:51Z</time>
      </trkpt>
      <trkpt lat="45.50169" lon="6.70029">
        <ele>2154.8</ele>
        <time>2021-08-15T13:06:52Z</time>
      </trkpt>
      <trkpt lat="45.50169" lon="6.70029">
        <ele>2154.8</ele>
        <time>2021-08-15T13:06:53Z</time>
      </trkpt>
      <trkpt lat="45.50169" lon="6.70028">
        <ele>2154.8</ele>
        <time>2021-08-15T13:06:54Z</time>
      </trkpt>
      <trkpt lat="45.50169" lon="6.70028">
        <ele>2154.8</ele>
        <time>2021-08-15T13:06:55Z</time>
      </trkpt>
      <trkpt lat="45.50169" lon="6.70028">
        <ele>2154.8</ele>
        <time>2021-08-15T13:06:56Z</time>
      </trkpt>
      <trkpt lat="45.50169" lon="6.70028">
        <ele>2154.8</ele>
        <time>2021-08-15T13:06:57Z</time>
      </trkpt>
      <trkpt lat="45.50169" lon="6.70028">
        <ele>2154.8</ele>
        <time>2021-08-15T13:06:58Z</time>
      </trkpt>
      <trkpt lat="45.50169" lon="6.70028">
        <ele>2154.8</ele>
        <time>2021-08-15T13:06:59Z</time>
      </trkpt>
      <trkpt lat="45.50169" lon="6.70028">
        <ele>2154.8</ele>
        <time>2021-08-15T13:07:00Z</time>
      </trkpt>
      <trkpt lat="45.50169" lon="6.70028">
        <ele>2154.8</ele>
        <time>2021-08-15T13:07:01Z</time>
      </trkpt>
      <trkpt lat="45.50169" lon="6.70028">
        <ele>2154.8</ele>
        <time>2021-08-15T13:07:02Z</time>
      </trkpt>
      <trkpt lat="45.5017" lon="6.70027">
        <ele>2154.9</ele>
        <time>2021-08-15T13:07:03Z</time>
      </trkpt>
      <trkpt lat="45.5017" lon="6.70026">
        <ele>2154.9</ele>
        <time>2021-08-15T13:07:04Z</time>
      </trkpt>
      <trkpt lat="45.5017" lon="6.70025">
        <ele>2154.9</ele>
        <time>2021-08-15T13:07:05Z</time>
      </trkpt>
      <trkpt lat="45.50171" lon="6.70024">
        <ele>2154.9</ele>
        <time>2021-08-15T13:07:06Z</time>
      </trkpt>
      <trkpt lat="45.50171" lon="6.70023">
        <ele>2154.9</ele>
        <time>2021-08-15T13:07:07Z</time>
      </trkpt>
      <trkpt lat="45.50171" lon="6.70022">
        <ele>2154.9</ele>
        <time>2021-08-15T13:07:08Z</time>
      </trkpt>
      <trkpt lat="45.50171" lon="6.70021">
        <ele>2154.9</ele>
        <time>2021-08-15T13:07:09Z</time>
      </trkpt>
      <trkpt lat="45.5017" lon="6.7002">
        <ele>2155</ele>
        <time>2021-08-15T13:07:10Z</time>
      </trkpt>
      <trkpt lat="45.5017" lon="6.70019">
        <ele>2155</ele>
        <time>2021-08-15T13:07:11Z</time>
      </trkpt>
      <trkpt lat="45.50169" lon="6.70018">
        <ele>2155</ele>
        <time>2021-08-15T13:07:12Z</time>
      </trkpt>
      <trkpt lat="45.50168" lon="6.70017">
        <ele>2155</ele>
        <time>2021-08-15T13:07:13Z</time>
      </trkpt>
      <trkpt lat="45.50168" lon="6.70016">
        <ele>2155</ele>
        <time>2021-08-15T13:07:14Z</time>
      </trkpt>
      <trkpt lat="45.50168" lon="6.70014">
        <ele>2155.1</ele>
        <time>2021-08-15T13:07:15Z</time>
      </trkpt>
      <trkpt lat="45.50168" lon="6.70013">
        <ele>2155.1</ele>
        <time>2021-08-15T13:07:16Z</time>
      </trkpt>
      <trkpt lat="45.50168" lon="6.70011">
        <ele>2155.1</ele>
        <time>2021-08-15T13:07:17Z</time>
      </trkpt>
      <trkpt lat="45.50168" lon="6.7001">
        <ele>2155.1</ele>
        <time>2021-08-15T13:07:18Z</time>
      </trkpt>
      <trkpt lat="45.50168" lon="6.70009">
        <ele>2155.1</ele>
        <time>2021-08-15T13:07:19Z</time>
      </trkpt>
      <trkpt lat="45.50168" lon="6.70008">
        <ele>2155.2</ele>
        <time>2021-08-15T13:07:20Z</time>
      </trkpt>
      <trkpt lat="45.50169" lon="6.70007">
        <ele>2155.2</ele>
        <time>2021-08-15T13:07:21Z</time>
      </trkpt>
      <trkpt lat="45.50169" lon="6.70007">
        <ele>2155.2</ele>
        <time>2021-08-15T13:07:22Z</time>
      </trkpt>
      <trkpt lat="45.50169" lon="6.70007">
        <ele>2155.2</ele>
        <time>2021-08-15T13:07:23Z</time>
      </trkpt>
      <trkpt lat="45.50169" lon="6.70006">
        <ele>2155.2</ele>
        <time>2021-08-15T13:07:24Z</time>
      </trkpt>
      <trkpt lat="45.50169" lon="6.70006">
        <ele>2155.2</ele>
        <time>2021-08-15T13:07:25Z</time>
      </trkpt>
      <trkpt lat="45.50169" lon="6.70007">
        <ele>2155.2</ele>
        <time>2021-08-15T13:07:26Z</time>
      </trkpt>
      <trkpt lat="45.50169" lon="6.70007">
        <ele>2155.2</ele>
        <time>2021-08-15T13:07:27Z</time>
      </trkpt>
      <trkpt lat="45.50169" lon="6.70007">
        <ele>2155.2</ele>
        <time>2021-08-15T13:07:28Z</time>
      </trkpt>
      <trkpt lat="45.50169" lon="6.70007">
        <ele>2155.2</ele>
        <time>2021-08-15T13:07:29Z</time>
      </trkpt>
      <trkpt lat="45.50169" lon="6.70007">
        <ele>2155.2</ele>
        <time>2021-08-15T13:07:30Z</time>
      </trkpt>
      <trkpt lat="45.50169" lon="6.70007">
        <ele>2155.2</ele>
        <time>2021-08-15T13:07:31Z</time>
      </trkpt>
      <trkpt lat="45.50169" lon="6.70007">
        <ele>2155.2</ele>
        <time>2021-08-15T13:07:32Z</time>
      </trkpt>
      <trkpt lat="45.50169" lon="6.70007">
        <ele>2155.2</ele>
        <time>2021-08-15T13:07:33Z</time>
      </trkpt>
      <trkpt lat="45.50169" lon="6.70007">
        <ele>2155.2</ele>
        <time>2021-08-15T13:07:34Z</time>
      </trkpt>
      <trkpt lat="45.50169" lon="6.70007">
        <ele>2155.2</ele>
        <time>2021-08-15T13:07:35Z</time>
      </trkpt>
      <trkpt lat="45.50169" lon="6.70007">
        <ele>2155.2</ele>
        <time>2021-08-15T13:07:36Z</time>
      </trkpt>
      <trkpt lat="45.50169" lon="6.70008">
        <ele>2155.2</ele>
        <time>2021-08-15T13:07:37Z</time>
      </trkpt>
      <trkpt lat="45.50169" lon="6.70008">
        <ele>2155.2</ele>
        <time>2021-08-15T13:07:38Z</time>
      </trkpt>
      <trkpt lat="45.50169" lon="6.70009">
        <ele>2155.2</ele>
        <time>2021-08-15T13:07:39Z</time>
      </trkpt>
      <trkpt lat="45.50169" lon="6.7001">
        <ele>2155.2</ele>
        <time>2021-08-15T13:07:40Z</time>
      </trkpt>
      <trkpt lat="45.50169" lon="6.70011">
        <ele>2155.3</ele>
        <time>2021-08-15T13:07:41Z</time>
      </trkpt>
      <trkpt lat="45.50169" lon="6.70012">
        <ele>2155.3</ele>
        <time>2021-08-15T13:07:42Z</time>
      </trkpt>
      <trkpt lat="45.50169" lon="6.70014">
        <ele>2155.3</ele>
        <time>2021-08-15T13:07:43Z</time>
      </trkpt>
      <trkpt lat="45.50169" lon="6.70015">
        <ele>2155.3</ele>
        <time>2021-08-15T13:07:44Z</time>
      </trkpt>
      <trkpt lat="45.50169" lon="6.70016">
        <ele>2155.3</ele>
        <time>2021-08-15T13:07:45Z</time>
      </trkpt>
      <trkpt lat="45.50169" lon="6.70018">
        <ele>2155.4</ele>
        <time>2021-08-15T13:07:46Z</time>
      </trkpt>
      <trkpt lat="45.50168" lon="6.70019">
        <ele>2155.4</ele>
        <time>2021-08-15T13:07:47Z</time>
      </trkpt>
      <trkpt lat="45.50168" lon="6.70021">
        <ele>2155.4</ele>
        <time>2021-08-15T13:07:48Z</time>
      </trkpt>
      <trkpt lat="45.50168" lon="6.70022">
        <ele>2155.4</ele>
        <time>2021-08-15T13:07:49Z</time>
      </trkpt>
      <trkpt lat="45.50168" lon="6.70023">
        <ele>2155.4</ele>
        <time>2021-08-15T13:07:50Z</time>
      </trkpt>
      <trkpt lat="45.50168" lon="6.70025">
        <ele>2155.5</ele>
        <time>2021-08-15T13:07:51Z</time>
      </trkpt>
      <trkpt lat="45.50168" lon="6.70026">
        <ele>2155.5</ele>
        <time>2021-08-15T13:07:52Z</time>
      </trkpt>
      <trkpt lat="45.50168" lon="6.70027">
        <ele>2155.5</ele>
        <time>2021-08-15T13:07:53Z</time>
      </trkpt>
      <trkpt lat="45.50168" lon="6.70029">
        <ele>2155.5</ele>
        <time>2021-08-15T13:07:54Z</time>
      </trkpt>
      <trkpt lat="45.50168" lon="6.7003">
        <ele>2155.5</ele>
        <time>2021-08-15T13:07:55Z</time>
      </trkpt>
      <trkpt lat="45.50168" lon="6.70031">
        <ele>2155.5</ele>
        <time>2021-08-15T13:07:56Z</time>
      </trkpt>
      <trkpt lat="45.50168" lon="6.70032">
        <ele>2155.6</ele>
        <time>2021-08-15T13:07:57Z</time>
      </trkpt>
      <trkpt lat="45.50168" lon="6.70034">
        <ele>2155.6</ele>
        <time>2021-08-15T13:07:58Z</time>
      </trkpt>
      <trkpt lat="45.50167" lon="6.70035">
        <ele>2155.6</ele>
        <time>2021-08-15T13:07:59Z</time>
      </trkpt>
      <trkpt lat="45.50167" lon="6.70036">
        <ele>2155.6</ele>
        <time>2021-08-15T13:08:00Z</time>
      </trkpt>
      <trkpt lat="45.50167" lon="6.70037">
        <ele>2155.6</ele>
        <time>2021-08-15T13:08:01Z</time>
      </trkpt>
      <trkpt lat="45.50167" lon="6.70039">
        <ele>2155.7</ele>
        <time>2021-08-15T13:08:02Z</time>
      </trkpt>
      <trkpt lat="45.50167" lon="6.7004">
        <ele>2155.7</ele>
        <time>2021-08-15T13:08:03Z</time>
      </trkpt>
      <trkpt lat="45.50167" lon="6.70041">
        <ele>2155.7</ele>
        <time>2021-08-15T13:08:04Z</time>
      </trkpt>
      <trkpt lat="45.50167" lon="6.70043">
        <ele>2155.7</ele>
        <time>2021-08-15T13:08:05Z</time>
      </trkpt>
      <trkpt lat="45.50167" lon="6.70044">
        <ele>2155.7</ele>
        <time>2021-08-15T13:08:06Z</time>
      </trkpt>
      <trkpt lat="45.50166" lon="6.70045">
        <ele>2155.7</ele>
        <time>2021-08-15T13:08:07Z</time>
      </trkpt>
      <trkpt lat="45.50166" lon="6.70047">
        <ele>2155.8</ele>
        <time>2021-08-15T13:08:08Z</time>
      </trkpt>
      <trkpt lat="45.50166" lon="6.70048">
        <ele>2155.8</ele>
        <time>2021-08-15T13:08:09Z</time>
      </trkpt>
      <trkpt lat="45.50166" lon="6.7005">
        <ele>2155.8</ele>
        <time>2021-08-15T13:08:10Z</time>
      </trkpt>
      <trkpt lat="45.50166" lon="6.70051">
        <ele>2155.8</ele>
        <time>2021-08-15T13:08:11Z</time>
      </trkpt>
      <trkpt lat="45.50166" lon="6.70052">
        <ele>2155.9</ele>
        <time>2021-08-15T13:08:12Z</time>
      </trkpt>
      <trkpt lat="45.50166" lon="6.70054">
        <ele>2155.8</ele>
        <time>2021-08-15T13:08:13Z</time>
      </trkpt>
      <trkpt lat="45.50166" lon="6.70055">
        <ele>2155.8</ele>
        <time>2021-08-15T13:08:14Z</time>
      </trkpt>
      <trkpt lat="45.50165" lon="6.70056">
        <ele>2155.8</ele>
        <time>2021-08-15T13:08:15Z</time>
      </trkpt>
      <trkpt lat="45.50165" lon="6.70056">
        <ele>2155.8</ele>
        <time>2021-08-15T13:08:16Z</time>
      </trkpt>
      <trkpt lat="45.50165" lon="6.70057">
        <ele>2155.7</ele>
        <time>2021-08-15T13:08:17Z</time>
      </trkpt>
      <trkpt lat="45.50165" lon="6.70057">
        <ele>2155.7</ele>
        <time>2021-08-15T13:08:18Z</time>
      </trkpt>
      <trkpt lat="45.50165" lon="6.70057">
        <ele>2155.7</ele>
        <time>2021-08-15T13:08:19Z</time>
      </trkpt>
      <trkpt lat="45.50165" lon="6.70057">
        <ele>2155.7</ele>
        <time>2021-08-15T13:08:20Z</time>
      </trkpt>
      <trkpt lat="45.50165" lon="6.70056">
        <ele>2155.7</ele>
        <time>2021-08-15T13:08:21Z</time>
      </trkpt>
      <trkpt lat="45.50165" lon="6.70056">
        <ele>2155.7</ele>
        <time>2021-08-15T13:08:22Z</time>
      </trkpt>
      <trkpt lat="45.50165" lon="6.70055">
        <ele>2155.7</ele>
        <time>2021-08-15T13:08:23Z</time>
      </trkpt>
      <trkpt lat="45.50165" lon="6.70054">
        <ele>2155.6</ele>
        <time>2021-08-15T13:08:24Z</time>
      </trkpt>
      <trkpt lat="45.50165" lon="6.70054">
        <ele>2155.6</ele>
        <time>2021-08-15T13:08:25Z</time>
      </trkpt>
      <trkpt lat="45.50165" lon="6.70053">
        <ele>2155.6</ele>
        <time>2021-08-15T13:08:26Z</time>
      </trkpt>
      <trkpt lat="45.50165" lon="6.70051">
        <ele>2155.5</ele>
        <time>2021-08-15T13:08:27Z</time>
      </trkpt>
      <trkpt lat="45.50165" lon="6.7005">
        <ele>2155.5</ele>
        <time>2021-08-15T13:08:28Z</time>
      </trkpt>
      <trkpt lat="45.50165" lon="6.70049">
        <ele>2155.5</ele>
        <time>2021-08-15T13:08:29Z</time>
      </trkpt>
      <trkpt lat="45.50166" lon="6.70048">
        <ele>2155.4</ele>
        <time>2021-08-15T13:08:30Z</time>
      </trkpt>
      <trkpt lat="45.50166" lon="6.70047">
        <ele>2155.4</ele>
        <time>2021-08-15T13:08:31Z</time>
      </trkpt>
      <trkpt lat="45.50166" lon="6.70046">
        <ele>2155.3</ele>
        <time>2021-08-15T13:08:32Z</time>
      </trkpt>
      <trkpt lat="45.50166" lon="6.70045">
        <ele>2155.3</ele>
        <time>2021-08-15T13:08:33Z</time>
      </trkpt>
      <trkpt lat="45.50167" lon="6.70043">
        <ele>2155.3</ele>
        <time>2021-08-15T13:08:34Z</time>
      </trkpt>
      <trkpt lat="45.50167" lon="6.70042">
        <ele>2155.2</ele>
        <time>2021-08-15T13:08:35Z</time>
      </trkpt>
      <trkpt lat="45.50167" lon="6.70041">
        <ele>2155.2</ele>
        <time>2021-08-15T13:08:36Z</time>
      </trkpt>
      <trkpt lat="45.50167" lon="6.7004">
        <ele>2155.1</ele>
        <time>2021-08-15T13:08:37Z</time>
      </trkpt>
      <trkpt lat="45.50167" lon="6.70039">
        <ele>2155.1</ele>
        <time>2021-08-15T13:08:38Z</time>
      </trkpt>
      <trkpt lat="45.50167" lon="6.70038">
        <ele>2155.1</ele>
        <time>2021-08-15T13:08:39Z</time>
      </trkpt>
      <trkpt lat="45.50167" lon="6.70037">
        <ele>2155</ele>
        <time>2021-08-15T13:08:40Z</time>
      </trkpt>
      <trkpt lat="45.50167" lon="6.70036">
        <ele>2155</ele>
        <time>2021-08-15T13:08:41Z</time>
      </trkpt>
      <trkpt lat="45.50167" lon="6.70035">
        <ele>2155</ele>
        <time>2021-08-15T13:08:42Z</time>
      </trkpt>
      <trkpt lat="45.50166" lon="6.70034">
        <ele>2154.9</ele>
        <time>2021-08-15T13:08:43Z</time>
      </trkpt>
      <trkpt lat="45.50166" lon="6.70033">
        <ele>2154.9</ele>
        <time>2021-08-15T13:08:44Z</time>
      </trkpt>
      <trkpt lat="45.50166" lon="6.70032">
        <ele>2154.9</ele>
        <time>2021-08-15T13:08:45Z</time>
      </trkpt>
      <trkpt lat="45.50166" lon="6.70031">
        <ele>2154.8</ele>
        <time>2021-08-15T13:08:46Z</time>
      </trkpt>
      <trkpt lat="45.50166" lon="6.7003">
        <ele>2154.8</ele>
        <time>2021-08-15T13:08:47Z</time>
      </trkpt>
      <trkpt lat="45.50167" lon="6.70029">
        <ele>2154.8</ele>
        <time>2021-08-15T13:08:48Z</time>
      </trkpt>
      <trkpt lat="45.50167" lon="6.70027">
        <ele>2154.7</ele>
        <time>2021-08-15T13:08:49Z</time>
      </trkpt>
      <trkpt lat="45.50167" lon="6.70026">
        <ele>2154.7</ele>
        <time>2021-08-15T13:08:50Z</time>
      </trkpt>
      <trkpt lat="45.50167" lon="6.70025">
        <ele>2154.6</ele>
        <time>2021-08-15T13:08:51Z</time>
      </trkpt>
      <trkpt lat="45.50168" lon="6.70024">
        <ele>2154.6</ele>
        <time>2021-08-15T13:08:52Z</time>
      </trkpt>
      <trkpt lat="45.50168" lon="6.70022">
        <ele>2154.6</ele>
        <time>2021-08-15T13:08:53Z</time>
      </trkpt>
      <trkpt lat="45.50168" lon="6.70021">
        <ele>2154.5</ele>
        <time>2021-08-15T13:08:54Z</time>
      </trkpt>
      <trkpt lat="45.50168" lon="6.7002">
        <ele>2154.5</ele>
        <time>2021-08-15T13:08:55Z</time>
      </trkpt>
      <trkpt lat="45.50168" lon="6.70018">
        <ele>2154.5</ele>
        <time>2021-08-15T13:08:56Z</time>
      </trkpt>
      <trkpt lat="45.50167" lon="6.70017">
        <ele>2154.4</ele>
        <time>2021-08-15T13:08:57Z</time>
      </trkpt>
      <trkpt lat="45.50167" lon="6.70016">
        <ele>2154.4</ele>
        <time>2021-08-15T13:08:58Z</time>
      </trkpt>
      <trkpt lat="45.50166" lon="6.70015">
        <ele>2154.4</ele>
        <time>2021-08-15T13:08:59Z</time>
      </trkpt>
      <trkpt lat="45.50166" lon="6.70013">
        <ele>2154.3</ele>
        <time>2021-08-15T13:09:00Z</time>
      </trkpt>
      <trkpt lat="45.50166" lon="6.70012">
        <ele>2154.3</ele>
        <time>2021-08-15T13:09:01Z</time>
      </trkpt>
      <trkpt lat="45.50166" lon="6.70011">
        <ele>2154.3</ele>
        <time>2021-08-15T13:09:02Z</time>
      </trkpt>
      <trkpt lat="45.50166" lon="6.7001">
        <ele>2154.3</ele>
        <time>2021-08-15T13:09:03Z</time>
      </trkpt>
      <trkpt lat="45.50167" lon="6.70009">
        <ele>2154.2</ele>
        <time>2021-08-15T13:09:04Z</time>
      </trkpt>
      <trkpt lat="45.50167" lon="6.70008">
        <ele>2154.2</ele>
        <time>2021-08-15T13:09:05Z</time>
      </trkpt>
      <trkpt lat="45.50168" lon="6.70007">
        <ele>2154.2</ele>
        <time>2021-08-15T13:09:06Z</time>
      </trkpt>
      <trkpt lat="45.50168" lon="6.70007">
        <ele>2154.2</ele>
        <time>2021-08-15T13:09:07Z</time>
      </trkpt>
      <trkpt lat="45.50168" lon="6.70007">
        <ele>2154.2</ele>
        <time>2021-08-15T13:09:08Z</time>
      </trkpt>
      <trkpt lat="45.50168" lon="6.70007">
        <ele>2154.2</ele>
        <time>2021-08-15T13:09:09Z</time>
      </trkpt>
      <trkpt lat="45.50168" lon="6.70007">
        <ele>2154.2</ele>
        <time>2021-08-15T13:09:10Z</time>
      </trkpt>
      <trkpt lat="45.50168" lon="6.70007">
        <ele>2154.2</ele>
        <time>2021-08-15T13:09:11Z</time>
      </trkpt>
      <trkpt lat="45.50168" lon="6.70007">
        <ele>2154.2</ele>
        <time>2021-08-15T13:09:12Z</time>
      </trkpt>
      <trkpt lat="45.50169" lon="6.70006">
        <ele>2154.2</ele>
        <time>2021-08-15T13:09:13Z</time>
      </trkpt>
      <trkpt lat="45.50169" lon="6.70006">
        <ele>2154.2</ele>
        <time>2021-08-15T13:09:14Z</time>
      </trkpt>
      <trkpt lat="45.5017" lon="6.70005">
        <ele>2154.2</ele>
        <time>2021-08-15T13:09:15Z</time>
      </trkpt>
      <trkpt lat="45.50171" lon="6.70005">
        <ele>2154.1</ele>
        <time>2021-08-15T13:09:16Z</time>
      </trkpt>
      <trkpt lat="45.50172" lon="6.70005">
        <ele>2154.1</ele>
        <time>2021-08-15T13:09:17Z</time>
      </trkpt>
      <trkpt lat="45.50173" lon="6.70005">
        <ele>2154.1</ele>
        <time>2021-08-15T13:09:18Z</time>
      </trkpt>
      <trkpt lat="45.50174" lon="6.70005">
        <ele>2153.6</ele>
        <time>2021-08-15T13:09:19Z</time>
      </trkpt>
      <trkpt lat="45.50175" lon="6.70005">
        <ele>2153.4</ele>
        <time>2021-08-15T13:09:20Z</time>
      </trkpt>
      <trkpt lat="45.50176" lon="6.70005">
        <ele>2153.3</ele>
        <time>2021-08-15T13:09:21Z</time>
      </trkpt>
      <trkpt lat="45.50178" lon="6.70006">
        <ele>2153.2</ele>
        <time>2021-08-15T13:09:22Z</time>
      </trkpt>
      <trkpt lat="45.50179" lon="6.70006">
        <ele>2153</ele>
        <time>2021-08-15T13:09:23Z</time>
      </trkpt>
      <trkpt lat="45.5018" lon="6.70007">
        <ele>2152.9</ele>
        <time>2021-08-15T13:09:24Z</time>
      </trkpt>
      <trkpt lat="45.50181" lon="6.70007">
        <ele>2152.7</ele>
        <time>2021-08-15T13:09:25Z</time>
      </trkpt>
      <trkpt lat="45.50182" lon="6.70008">
        <ele>2152.6</ele>
        <time>2021-08-15T13:09:26Z</time>
      </trkpt>
      <trkpt lat="45.50184" lon="6.70009">
        <ele>2152.4</ele>
        <time>2021-08-15T13:09:27Z</time>
      </trkpt>
      <trkpt lat="45.50185" lon="6.70009">
        <ele>2152.3</ele>
        <time>2021-08-15T13:09:28Z</time>
      </trkpt>
      <trkpt lat="45.50186" lon="6.7001">
        <ele>2152.1</ele>
        <time>2021-08-15T13:09:29Z</time>
      </trkpt>
      <trkpt lat="45.50186" lon="6.70011">
        <ele>2152</ele>
        <time>2021-08-15T13:09:30Z</time>
      </trkpt>
      <trkpt lat="45.50187" lon="6.70011">
        <ele>2151.9</ele>
        <time>2021-08-15T13:09:31Z</time>
      </trkpt>
      <trkpt lat="45.50188" lon="6.70012">
        <ele>2151.7</ele>
        <time>2021-08-15T13:09:32Z</time>
      </trkpt>
      <trkpt lat="45.50189" lon="6.70012">
        <ele>2151.6</ele>
        <time>2021-08-15T13:09:33Z</time>
      </trkpt>
      <trkpt lat="45.5019" lon="6.70013">
        <ele>2151.5</ele>
        <time>2021-08-15T13:09:34Z</time>
      </trkpt>
      <trkpt lat="45.50191" lon="6.70014">
        <ele>2151.3</ele>
        <time>2021-08-15T13:09:35Z</time>
      </trkpt>
      <trkpt lat="45.50192" lon="6.70014">
        <ele>2151.2</ele>
        <time>2021-08-15T13:09:36Z</time>
      </trkpt>
      <trkpt lat="45.50192" lon="6.70014">
        <ele>2151.1</ele>
        <time>2021-08-15T13:09:37Z</time>
      </trkpt>
      <trkpt lat="45.50193" lon="6.70015">
        <ele>2150.9</ele>
        <time>2021-08-15T13:09:38Z</time>
      </trkpt>
      <trkpt lat="45.50194" lon="6.70015">
        <ele>2150.8</ele>
        <time>2021-08-15T13:09:39Z</time>
      </trkpt>
      <trkpt lat="45.50195" lon="6.70015">
        <ele>2150.7</ele>
        <time>2021-08-15T13:09:40Z</time>
      </trkpt>
      <trkpt lat="45.50196" lon="6.70015">
        <ele>2150.6</ele>
        <time>2021-08-15T13:09:41Z</time>
      </trkpt>
      <trkpt lat="45.50196" lon="6.70016">
        <ele>2150.5</ele>
        <time>2021-08-15T13:09:42Z</time>
      </trkpt>
      <trkpt lat="45.50197" lon="6.70016">
        <ele>2150.4</ele>
        <time>2021-08-15T13:09:43Z</time>
      </trkpt>
      <trkpt lat="45.50197" lon="6.70016">
        <ele>2150.3</ele>
        <time>2021-08-15T13:09:44Z</time>
      </trkpt>
      <trkpt lat="45.50198" lon="6.70016">
        <ele>2150.2</ele>
        <time>2021-08-15T13:09:45Z</time>
      </trkpt>
      <trkpt lat="45.50198" lon="6.70016">
        <ele>2150.2</ele>
        <time>2021-08-15T13:09:46Z</time>
      </trkpt>
      <trkpt lat="45.50198" lon="6.70016">
        <ele>2150.2</ele>
        <time>2021-08-15T13:09:47Z</time>
      </trkpt>
      <trkpt lat="45.50198" lon="6.70016">
        <ele>2150.2</ele>
        <time>2021-08-15T13:09:48Z</time>
      </trkpt>
      <trkpt lat="45.50198" lon="6.70016">
        <ele>2150.2</ele>
        <time>2021-08-15T13:09:49Z</time>
      </trkpt>
      <trkpt lat="45.50198" lon="6.70016">
        <ele>2150.2</ele>
        <time>2021-08-15T13:09:50Z</time>
      </trkpt>
      <trkpt lat="45.50198" lon="6.70016">
        <ele>2150.2</ele>
        <time>2021-08-15T13:09:51Z</time>
      </trkpt>
      <trkpt lat="45.50198" lon="6.70016">
        <ele>2150.1</ele>
        <time>2021-08-15T13:09:52Z</time>
      </trkpt>
      <trkpt lat="45.50199" lon="6.70016">
        <ele>2150.1</ele>
        <time>2021-08-15T13:09:53Z</time>
      </trkpt>
      <trkpt lat="45.50199" lon="6.70015">
        <ele>2150</ele>
        <time>2021-08-15T13:09:54Z</time>
      </trkpt>
      <trkpt lat="45.50199" lon="6.70015">
        <ele>2150</ele>
        <time>2021-08-15T13:09:55Z</time>
      </trkpt>
      <trkpt lat="45.502" lon="6.70015">
        <ele>2149.9</ele>
        <time>2021-08-15T13:09:56Z</time>
      </trkpt>
      <trkpt lat="45.502" lon="6.70015">
        <ele>2149.8</ele>
        <time>2021-08-15T13:09:57Z</time>
      </trkpt>
      <trkpt lat="45.502" lon="6.70015">
        <ele>2149.8</ele>
        <time>2021-08-15T13:09:58Z</time>
      </trkpt>
      <trkpt lat="45.50201" lon="6.70015">
        <ele>2149.7</ele>
        <time>2021-08-15T13:09:59Z</time>
      </trkpt>
      <trkpt lat="45.50201" lon="6.70015">
        <ele>2149.7</ele>
        <time>2021-08-15T13:10:00Z</time>
      </trkpt>
      <trkpt lat="45.50201" lon="6.70015">
        <ele>2149.7</ele>
        <time>2021-08-15T13:10:01Z</time>
      </trkpt>
      <trkpt lat="45.50201" lon="6.70015">
        <ele>2149.6</ele>
        <time>2021-08-15T13:10:02Z</time>
      </trkpt>
      <trkpt lat="45.50201" lon="6.70015">
        <ele>2149.6</ele>
        <time>2021-08-15T13:10:03Z</time>
      </trkpt>
      <trkpt lat="45.50201" lon="6.70015">
        <ele>2149.6</ele>
        <time>2021-08-15T13:10:04Z</time>
      </trkpt>
      <trkpt lat="45.50202" lon="6.70015">
        <ele>2149.5</ele>
        <time>2021-08-15T13:10:05Z</time>
      </trkpt>
      <trkpt lat="45.50202" lon="6.70015">
        <ele>2149.5</ele>
        <time>2021-08-15T13:10:06Z</time>
      </trkpt>
      <trkpt lat="45.50202" lon="6.70014">
        <ele>2149.4</ele>
        <time>2021-08-15T13:10:07Z</time>
      </trkpt>
      <trkpt lat="45.50202" lon="6.70014">
        <ele>2149.4</ele>
        <time>2021-08-15T13:10:08Z</time>
      </trkpt>
      <trkpt lat="45.50202" lon="6.70013">
        <ele>2149.3</ele>
        <time>2021-08-15T13:10:09Z</time>
      </trkpt>
      <trkpt lat="45.50202" lon="6.70012">
        <ele>2149.2</ele>
        <time>2021-08-15T13:10:10Z</time>
      </trkpt>
      <trkpt lat="45.50202" lon="6.70012">
        <ele>2149.2</ele>
        <time>2021-08-15T13:10:11Z</time>
      </trkpt>
      <trkpt lat="45.50202" lon="6.70012">
        <ele>2149.1</ele>
        <time>2021-08-15T13:10:12Z</time>
      </trkpt>
      <trkpt lat="45.50202" lon="6.70011">
        <ele>2149.1</ele>
        <time>2021-08-15T13:10:13Z</time>
      </trkpt>
      <trkpt lat="45.50202" lon="6.70011">
        <ele>2149.1</ele>
        <time>2021-08-15T13:10:14Z</time>
      </trkpt>
      <trkpt lat="45.50202" lon="6.70011">
        <ele>2149.1</ele>
        <time>2021-08-15T13:10:15Z</time>
      </trkpt>
      <trkpt lat="45.50202" lon="6.70011">
        <ele>2149.1</ele>
        <time>2021-08-15T13:10:16Z</time>
      </trkpt>
      <trkpt lat="45.50202" lon="6.70011">
        <ele>2149.1</ele>
        <time>2021-08-15T13:10:17Z</time>
      </trkpt>
      <trkpt lat="45.50202" lon="6.70011">
        <ele>2149.1</ele>
        <time>2021-08-15T13:10:18Z</time>
      </trkpt>
      <trkpt lat="45.50202" lon="6.70011">
        <ele>2149.1</ele>
        <time>2021-08-15T13:10:19Z</time>
      </trkpt>
      <trkpt lat="45.50202" lon="6.70011">
        <ele>2149.1</ele>
        <time>2021-08-15T13:10:20Z</time>
      </trkpt>
      <trkpt lat="45.50202" lon="6.70011">
        <ele>2149.1</ele>
        <time>2021-08-15T13:10:21Z</time>
      </trkpt>
      <trkpt lat="45.50202" lon="6.70011">
        <ele>2149.1</ele>
        <time>2021-08-15T13:10:22Z</time>
      </trkpt>
      <trkpt lat="45.50202" lon="6.70011">
        <ele>2149.1</ele>
        <time>2021-08-15T13:10:23Z</time>
      </trkpt>
      <trkpt lat="45.50202" lon="6.70011">
        <ele>2149.1</ele>
        <time>2021-08-15T13:10:24Z</time>
      </trkpt>
      <trkpt lat="45.50202" lon="6.70011">
        <ele>2149.1</ele>
        <time>2021-08-15T13:10:25Z</time>
      </trkpt>
      <trkpt lat="45.50202" lon="6.70011">
        <ele>2149.1</ele>
        <time>2021-08-15T13:10:26Z</time>
      </trkpt>
      <trkpt lat="45.50202" lon="6.70011">
        <ele>2149.1</ele>
        <time>2021-08-15T13:10:27Z</time>
      </trkpt>
      <trkpt lat="45.50202" lon="6.70011">
        <ele>2149.1</ele>
        <time>2021-08-15T13:10:28Z</time>
      </trkpt>
      <trkpt lat="45.50202" lon="6.70011">
        <ele>2149.1</ele>
        <time>2021-08-15T13:10:29Z</time>
      </trkpt>
      <trkpt lat="45.50202" lon="6.70011">
        <ele>2149.1</ele>
        <time>2021-08-15T13:10:30Z</time>
      </trkpt>
      <trkpt lat="45.50202" lon="6.70011">
        <ele>2149.1</ele>
        <time>2021-08-15T13:10:31Z</time>
      </trkpt>
      <trkpt lat="45.50202" lon="6.70011">
        <ele>2149.1</ele>
        <time>2021-08-15T13:10:32Z</time>
      </trkpt>
      <trkpt lat="45.50202" lon="6.70011">
        <ele>2149.1</ele>
        <time>2021-08-15T13:10:33Z</time>
      </trkpt>
      <trkpt lat="45.50202" lon="6.70011">
        <ele>2149.1</ele>
        <time>2021-08-15T13:10:34Z</time>
      </trkpt>
      <trkpt lat="45.50202" lon="6.70011">
        <ele>2149.1</ele>
        <time>2021-08-15T13:10:35Z</time>
      </trkpt>
      <trkpt lat="45.50202" lon="6.70011">
        <ele>2149.1</ele>
        <time>2021-08-15T13:10:36Z</time>
      </trkpt>
      <trkpt lat="45.50202" lon="6.70011">
        <ele>2149.1</ele>
        <time>2021-08-15T13:10:37Z</time>
      </trkpt>
      <trkpt lat="45.50202" lon="6.70011">
        <ele>2149.1</ele>
        <time>2021-08-15T13:10:38Z</time>
      </trkpt>
      <trkpt lat="45.50202" lon="6.70011">
        <ele>2149.1</ele>
        <time>2021-08-15T13:10:39Z</time>
      </trkpt>
      <trkpt lat="45.50202" lon="6.70011">
        <ele>2149.1</ele>
        <time>2021-08-15T13:10:40Z</time>
      </trkpt>
      <trkpt lat="45.50202" lon="6.70011">
        <ele>2149.1</ele>
        <time>2021-08-15T13:10:41Z</time>
      </trkpt>
      <trkpt lat="45.50202" lon="6.70011">
        <ele>2149.1</ele>
        <time>2021-08-15T13:10:42Z</time>
      </trkpt>
      <trkpt lat="45.50202" lon="6.70011">
        <ele>2149.1</ele>
        <time>2021-08-15T13:10:43Z</time>
      </trkpt>
      <trkpt lat="45.50202" lon="6.70011">
        <ele>2149.1</ele>
        <time>2021-08-15T13:10:44Z</time>
      </trkpt>
      <trkpt lat="45.50202" lon="6.70011">
        <ele>2149.1</ele>
        <time>2021-08-15T13:10:45Z</time>
      </trkpt>
      <trkpt lat="45.50202" lon="6.70011">
        <ele>2149.1</ele>
        <time>2021-08-15T13:10:46Z</time>
      </trkpt>
      <trkpt lat="45.50202" lon="6.70011">
        <ele>2149.1</ele>
        <time>2021-08-15T13:10:47Z</time>
      </trkpt>
      <trkpt lat="45.50202" lon="6.70011">
        <ele>2149.1</ele>
        <time>2021-08-15T13:10:48Z</time>
      </trkpt>
      <trkpt lat="45.50202" lon="6.70011">
        <ele>2149.1</ele>
        <time>2021-08-15T13:10:49Z</time>
      </trkpt>
      <trkpt lat="45.50202" lon="6.70011">
        <ele>2149.1</ele>
        <time>2021-08-15T13:10:50Z</time>
      </trkpt>
      <trkpt lat="45.50202" lon="6.70011">
        <ele>2149.1</ele>
        <time>2021-08-15T13:10:51Z</time>
      </trkpt>
      <trkpt lat="45.50202" lon="6.70011">
        <ele>2149.1</ele>
        <time>2021-08-15T13:10:52Z</time>
      </trkpt>
      <trkpt lat="45.50202" lon="6.70011">
        <ele>2149.1</ele>
        <time>2021-08-15T13:10:53Z</time>
      </trkpt>
      <trkpt lat="45.50202" lon="6.70011">
        <ele>2149.1</ele>
        <time>2021-08-15T13:10:54Z</time>
      </trkpt>
      <trkpt lat="45.50202" lon="6.70011">
        <ele>2149.1</ele>
        <time>2021-08-15T13:10:55Z</time>
      </trkpt>
      <trkpt lat="45.50202" lon="6.70011">
        <ele>2149.1</ele>
        <time>2021-08-15T13:10:56Z</time>
      </trkpt>
      <trkpt lat="45.50202" lon="6.70011">
        <ele>2149.1</ele>
        <time>2021-08-15T13:10:57Z</time>
      </trkpt>
      <trkpt lat="45.50202" lon="6.70011">
        <ele>2149.1</ele>
        <time>2021-08-15T13:10:58Z</time>
      </trkpt>
      <trkpt lat="45.50202" lon="6.70011">
        <ele>2149.1</ele>
        <time>2021-08-15T13:10:59Z</time>
      </trkpt>
      <trkpt lat="45.50202" lon="6.70011">
        <ele>2149.1</ele>
        <time>2021-08-15T13:11:00Z</time>
      </trkpt>
      <trkpt lat="45.50202" lon="6.70011">
        <ele>2149.1</ele>
        <time>2021-08-15T13:11:01Z</time>
      </trkpt>
      <trkpt lat="45.50202" lon="6.70011">
        <ele>2149.1</ele>
        <time>2021-08-15T13:11:02Z</time>
      </trkpt>
      <trkpt lat="45.50202" lon="6.70011">
        <ele>2149.1</ele>
        <time>2021-08-15T13:11:03Z</time>
      </trkpt>
      <trkpt lat="45.50202" lon="6.70011">
        <ele>2149.1</ele>
        <time>2021-08-15T13:11:04Z</time>
      </trkpt>
      <trkpt lat="45.50202" lon="6.70011">
        <ele>2149.1</ele>
        <time>2021-08-15T13:11:05Z</time>
      </trkpt>
      <trkpt lat="45.50202" lon="6.70011">
        <ele>2149.1</ele>
        <time>2021-08-15T13:11:06Z</time>
      </trkpt>
      <trkpt lat="45.50202" lon="6.70011">
        <ele>2149.1</ele>
        <time>2021-08-15T13:11:07Z</time>
      </trkpt>
      <trkpt lat="45.50202" lon="6.70011">
        <ele>2149.1</ele>
        <time>2021-08-15T13:11:08Z</time>
      </trkpt>
      <trkpt lat="45.50202" lon="6.70011">
        <ele>2149.1</ele>
        <time>2021-08-15T13:11:09Z</time>
      </trkpt>
      <trkpt lat="45.50202" lon="6.70011">
        <ele>2149.1</ele>
        <time>2021-08-15T13:11:10Z</time>
      </trkpt>
      <trkpt lat="45.50202" lon="6.70011">
        <ele>2149.1</ele>
        <time>2021-08-15T13:11:11Z</time>
      </trkpt>
      <trkpt lat="45.50202" lon="6.70011">
        <ele>2149.1</ele>
        <time>2021-08-15T13:11:12Z</time>
      </trkpt>
      <trkpt lat="45.50202" lon="6.70011">
        <ele>2149.1</ele>
        <time>2021-08-15T13:11:13Z</time>
      </trkpt>
      <trkpt lat="45.50202" lon="6.70011">
        <ele>2149.1</ele>
        <time>2021-08-15T13:11:14Z</time>
      </trkpt>
      <trkpt lat="45.50202" lon="6.70011">
        <ele>2149.1</ele>
        <time>2021-08-15T13:11:15Z</time>
      </trkpt>
      <trkpt lat="45.50202" lon="6.70011">
        <ele>2149.1</ele>
        <time>2021-08-15T13:11:16Z</time>
      </trkpt>
      <trkpt lat="45.50202" lon="6.70011">
        <ele>2149.1</ele>
        <time>2021-08-15T13:11:17Z</time>
      </trkpt>
      <trkpt lat="45.50202" lon="6.70011">
        <ele>2149.1</ele>
        <time>2021-08-15T13:11:18Z</time>
      </trkpt>
      <trkpt lat="45.50202" lon="6.70011">
        <ele>2149.1</ele>
        <time>2021-08-15T13:11:19Z</time>
      </trkpt>
      <trkpt lat="45.50202" lon="6.70011">
        <ele>2149.1</ele>
        <time>2021-08-15T13:11:20Z</time>
      </trkpt>
      <trkpt lat="45.50202" lon="6.70011">
        <ele>2149.1</ele>
        <time>2021-08-15T13:11:21Z</time>
      </trkpt>
      <trkpt lat="45.50202" lon="6.70011">
        <ele>2149.1</ele>
        <time>2021-08-15T13:11:22Z</time>
      </trkpt>
      <trkpt lat="45.50202" lon="6.70011">
        <ele>2149.1</ele>
        <time>2021-08-15T13:11:23Z</time>
      </trkpt>
      <trkpt lat="45.50202" lon="6.70011">
        <ele>2149.1</ele>
        <time>2021-08-15T13:11:24Z</time>
      </trkpt>
      <trkpt lat="45.50202" lon="6.70011">
        <ele>2149.1</ele>
        <time>2021-08-15T13:11:25Z</time>
      </trkpt>
      <trkpt lat="45.50202" lon="6.70011">
        <ele>2149.1</ele>
        <time>2021-08-15T13:11:26Z</time>
      </trkpt>
      <trkpt lat="45.50202" lon="6.70011">
        <ele>2149.1</ele>
        <time>2021-08-15T13:11:27Z</time>
      </trkpt>
      <trkpt lat="45.50202" lon="6.70011">
        <ele>2149.1</ele>
        <time>2021-08-15T13:11:28Z</time>
      </trkpt>
      <trkpt lat="45.50202" lon="6.70011">
        <ele>2149.1</ele>
        <time>2021-08-15T13:11:29Z</time>
      </trkpt>
      <trkpt lat="45.50202" lon="6.70011">
        <ele>2149.1</ele>
        <time>2021-08-15T13:11:30Z</time>
      </trkpt>
      <trkpt lat="45.50202" lon="6.70011">
        <ele>2149.1</ele>
        <time>2021-08-15T13:11:31Z</time>
      </trkpt>
      <trkpt lat="45.50202" lon="6.70011">
        <ele>2149.1</ele>
        <time>2021-08-15T13:11:32Z</time>
      </trkpt>
      <trkpt lat="45.50202" lon="6.70011">
        <ele>2149.1</ele>
        <time>2021-08-15T13:11:33Z</time>
      </trkpt>
      <trkpt lat="45.50202" lon="6.70011">
        <ele>2149.1</ele>
        <time>2021-08-15T13:11:34Z</time>
      </trkpt>
      <trkpt lat="45.50202" lon="6.70011">
        <ele>2149.1</ele>
        <time>2021-08-15T13:11:35Z</time>
      </trkpt>
      <trkpt lat="45.50202" lon="6.70011">
        <ele>2149.1</ele>
        <time>2021-08-15T13:11:36Z</time>
      </trkpt>
      <trkpt lat="45.50202" lon="6.70011">
        <ele>2149.1</ele>
        <time>2021-08-15T13:11:37Z</time>
      </trkpt>
      <trkpt lat="45.50202" lon="6.70011">
        <ele>2149.1</ele>
        <time>2021-08-15T13:11:38Z</time>
      </trkpt>
      <trkpt lat="45.50202" lon="6.70011">
        <ele>2149.1</ele>
        <time>2021-08-15T13:11:39Z</time>
      </trkpt>
      <trkpt lat="45.50202" lon="6.70011">
        <ele>2149.1</ele>
        <time>2021-08-15T13:11:40Z</time>
      </trkpt>
      <trkpt lat="45.50202" lon="6.70011">
        <ele>2149.1</ele>
        <time>2021-08-15T13:11:41Z</time>
      </trkpt>
      <trkpt lat="45.50202" lon="6.70011">
        <ele>2149.1</ele>
        <time>2021-08-15T13:11:42Z</time>
      </trkpt>
      <trkpt lat="45.50202" lon="6.70011">
        <ele>2149.1</ele>
        <time>2021-08-15T13:11:43Z</time>
      </trkpt>
      <trkpt lat="45.50202" lon="6.70011">
        <ele>2149.1</ele>
        <time>2021-08-15T13:11:44Z</time>
      </trkpt>
      <trkpt lat="45.50202" lon="6.70011">
        <ele>2149.1</ele>
        <time>2021-08-15T13:11:45Z</time>
      </trkpt>
      <trkpt lat="45.50202" lon="6.70011">
        <ele>2149.1</ele>
        <time>2021-08-15T13:11:46Z</time>
      </trkpt>
      <trkpt lat="45.50202" lon="6.70011">
        <ele>2149.1</ele>
        <time>2021-08-15T13:11:47Z</time>
      </trkpt>
      <trkpt lat="45.50202" lon="6.70011">
        <ele>2149.1</ele>
        <time>2021-08-15T13:11:48Z</time>
      </trkpt>
      <trkpt lat="45.50202" lon="6.70011">
        <ele>2149.1</ele>
        <time>2021-08-15T13:11:49Z</time>
      </trkpt>
      <trkpt lat="45.50202" lon="6.70011">
        <ele>2149.1</ele>
        <time>2021-08-15T13:11:50Z</time>
      </trkpt>
      <trkpt lat="45.50202" lon="6.70011">
        <ele>2149.1</ele>
        <time>2021-08-15T13:11:51Z</time>
      </trkpt>
      <trkpt lat="45.50202" lon="6.70011">
        <ele>2149.1</ele>
        <time>2021-08-15T13:11:52Z</time>
      </trkpt>
      <trkpt lat="45.50202" lon="6.70011">
        <ele>2149.1</ele>
        <time>2021-08-15T13:11:53Z</time>
      </trkpt>
      <trkpt lat="45.50202" lon="6.70011">
        <ele>2149.1</ele>
        <time>2021-08-15T13:11:54Z</time>
      </trkpt>
      <trkpt lat="45.50202" lon="6.70011">
        <ele>2149.1</ele>
        <time>2021-08-15T13:11:55Z</time>
      </trkpt>
      <trkpt lat="45.50202" lon="6.70011">
        <ele>2149.1</ele>
        <time>2021-08-15T13:11:56Z</time>
      </trkpt>
      <trkpt lat="45.50202" lon="6.70011">
        <ele>2149.1</ele>
        <time>2021-08-15T13:11:57Z</time>
      </trkpt>
      <trkpt lat="45.50202" lon="6.70011">
        <ele>2149.1</ele>
        <time>2021-08-15T13:11:58Z</time>
      </trkpt>
      <trkpt lat="45.50202" lon="6.70011">
        <ele>2149.1</ele>
        <time>2021-08-15T13:11:59Z</time>
      </trkpt>
      <trkpt lat="45.50202" lon="6.70011">
        <ele>2149.1</ele>
        <time>2021-08-15T13:12:00Z</time>
      </trkpt>
      <trkpt lat="45.50202" lon="6.70011">
        <ele>2149.1</ele>
        <time>2021-08-15T13:12:01Z</time>
      </trkpt>
      <trkpt lat="45.50202" lon="6.70011">
        <ele>2149.1</ele>
        <time>2021-08-15T13:12:02Z</time>
      </trkpt>
      <trkpt lat="45.50202" lon="6.70011">
        <ele>2149.1</ele>
        <time>2021-08-15T13:12:03Z</time>
      </trkpt>
      <trkpt lat="45.50202" lon="6.70011">
        <ele>2149.1</ele>
        <time>2021-08-15T13:12:04Z</time>
      </trkpt>
      <trkpt lat="45.50202" lon="6.70011">
        <ele>2149.1</ele>
        <time>2021-08-15T13:12:05Z</time>
      </trkpt>
      <trkpt lat="45.50202" lon="6.70011">
        <ele>2149.1</ele>
        <time>2021-08-15T13:12:06Z</time>
      </trkpt>
      <trkpt lat="45.50202" lon="6.70011">
        <ele>2149.1</ele>
        <time>2021-08-15T13:12:07Z</time>
      </trkpt>
      <trkpt lat="45.50202" lon="6.70011">
        <ele>2149.1</ele>
        <time>2021-08-15T13:12:08Z</time>
      </trkpt>
      <trkpt lat="45.50202" lon="6.70011">
        <ele>2149.1</ele>
        <time>2021-08-15T13:12:09Z</time>
      </trkpt>
      <trkpt lat="45.50202" lon="6.70011">
        <ele>2149.1</ele>
        <time>2021-08-15T13:12:10Z</time>
      </trkpt>
      <trkpt lat="45.50202" lon="6.70011">
        <ele>2149.1</ele>
        <time>2021-08-15T13:12:11Z</time>
      </trkpt>
      <trkpt lat="45.50202" lon="6.70011">
        <ele>2149.1</ele>
        <time>2021-08-15T13:12:12Z</time>
      </trkpt>
      <trkpt lat="45.50202" lon="6.70011">
        <ele>2149.1</ele>
        <time>2021-08-15T13:12:13Z</time>
      </trkpt>
      <trkpt lat="45.50202" lon="6.70011">
        <ele>2149.1</ele>
        <time>2021-08-15T13:12:14Z</time>
      </trkpt>
      <trkpt lat="45.50202" lon="6.70011">
        <ele>2149.1</ele>
        <time>2021-08-15T13:12:15Z</time>
      </trkpt>
      <trkpt lat="45.50202" lon="6.70011">
        <ele>2149.1</ele>
        <time>2021-08-15T13:12:16Z</time>
      </trkpt>
      <trkpt lat="45.50202" lon="6.70011">
        <ele>2149.1</ele>
        <time>2021-08-15T13:12:17Z</time>
      </trkpt>
      <trkpt lat="45.50202" lon="6.70011">
        <ele>2149.1</ele>
        <time>2021-08-15T13:12:18Z</time>
      </trkpt>
      <trkpt lat="45.50202" lon="6.70011">
        <ele>2149.1</ele>
        <time>2021-08-15T13:12:19Z</time>
      </trkpt>
      <trkpt lat="45.50202" lon="6.70011">
        <ele>2149.1</ele>
        <time>2021-08-15T13:12:20Z</time>
      </trkpt>
      <trkpt lat="45.50202" lon="6.70011">
        <ele>2149.1</ele>
        <time>2021-08-15T13:12:21Z</time>
      </trkpt>
      <trkpt lat="45.50202" lon="6.70011">
        <ele>2149.1</ele>
        <time>2021-08-15T13:12:22Z</time>
      </trkpt>
      <trkpt lat="45.50202" lon="6.70011">
        <ele>2149.1</ele>
        <time>2021-08-15T13:12:23Z</time>
      </trkpt>
      <trkpt lat="45.50202" lon="6.70011">
        <ele>2149.1</ele>
        <time>2021-08-15T13:12:24Z</time>
      </trkpt>
      <trkpt lat="45.50202" lon="6.70011">
        <ele>2149.1</ele>
        <time>2021-08-15T13:12:25Z</time>
      </trkpt>
      <trkpt lat="45.50202" lon="6.70011">
        <ele>2149.1</ele>
        <time>2021-08-15T13:12:26Z</time>
      </trkpt>
      <trkpt lat="45.50202" lon="6.70011">
        <ele>2149.1</ele>
        <time>2021-08-15T13:12:27Z</time>
      </trkpt>
      <trkpt lat="45.50202" lon="6.70011">
        <ele>2149.1</ele>
        <time>2021-08-15T13:12:28Z</time>
      </trkpt>
      <trkpt lat="45.50202" lon="6.70011">
        <ele>2149.1</ele>
        <time>2021-08-15T13:12:29Z</time>
      </trkpt>
      <trkpt lat="45.50202" lon="6.70011">
        <ele>2149.1</ele>
        <time>2021-08-15T13:12:30Z</time>
      </trkpt>
      <trkpt lat="45.50202" lon="6.70011">
        <ele>2149.1</ele>
        <time>2021-08-15T13:12:31Z</time>
      </trkpt>
      <trkpt lat="45.50202" lon="6.70011">
        <ele>2149.1</ele>
        <time>2021-08-15T13:12:32Z</time>
      </trkpt>
      <trkpt lat="45.50202" lon="6.70011">
        <ele>2149.1</ele>
        <time>2021-08-15T13:12:33Z</time>
      </trkpt>
      <trkpt lat="45.50202" lon="6.70011">
        <ele>2149.1</ele>
        <time>2021-08-15T13:12:34Z</time>
      </trkpt>
      <trkpt lat="45.50202" lon="6.70011">
        <ele>2149.1</ele>
        <time>2021-08-15T13:12:35Z</time>
      </trkpt>
      <trkpt lat="45.50202" lon="6.70011">
        <ele>2149.1</ele>
        <time>2021-08-15T13:12:36Z</time>
      </trkpt>
      <trkpt lat="45.50202" lon="6.70011">
        <ele>2149.1</ele>
        <time>2021-08-15T13:12:37Z</time>
      </trkpt>
      <trkpt lat="45.50202" lon="6.70011">
        <ele>2149.1</ele>
        <time>2021-08-15T13:12:38Z</time>
      </trkpt>
      <trkpt lat="45.50202" lon="6.70011">
        <ele>2149.1</ele>
        <time>2021-08-15T13:12:39Z</time>
      </trkpt>
      <trkpt lat="45.50202" lon="6.70011">
        <ele>2149.1</ele>
        <time>2021-08-15T13:12:40Z</time>
      </trkpt>
      <trkpt lat="45.50202" lon="6.70011">
        <ele>2149.1</ele>
        <time>2021-08-15T13:12:41Z</time>
      </trkpt>
      <trkpt lat="45.50202" lon="6.70011">
        <ele>2149.1</ele>
        <time>2021-08-15T13:12:42Z</time>
      </trkpt>
      <trkpt lat="45.50202" lon="6.70011">
        <ele>2149.1</ele>
        <time>2021-08-15T13:12:43Z</time>
      </trkpt>
      <trkpt lat="45.50202" lon="6.70011">
        <ele>2149.1</ele>
        <time>2021-08-15T13:12:44Z</time>
      </trkpt>
      <trkpt lat="45.50202" lon="6.70011">
        <ele>2149.1</ele>
        <time>2021-08-15T13:12:45Z</time>
      </trkpt>
      <trkpt lat="45.50202" lon="6.70011">
        <ele>2149.1</ele>
        <time>2021-08-15T13:12:46Z</time>
      </trkpt>
      <trkpt lat="45.50202" lon="6.70011">
        <ele>2149.1</ele>
        <time>2021-08-15T13:12:47Z</time>
      </trkpt>
      <trkpt lat="45.50202" lon="6.70011">
        <ele>2149.1</ele>
        <time>2021-08-15T13:12:48Z</time>
      </trkpt>
      <trkpt lat="45.50202" lon="6.70011">
        <ele>2149.1</ele>
        <time>2021-08-15T13:12:49Z</time>
      </trkpt>
      <trkpt lat="45.50202" lon="6.70011">
        <ele>2149.1</ele>
        <time>2021-08-15T13:12:50Z</time>
      </trkpt>
      <trkpt lat="45.50202" lon="6.70011">
        <ele>2149.1</ele>
        <time>2021-08-15T13:12:51Z</time>
      </trkpt>
      <trkpt lat="45.50202" lon="6.70011">
        <ele>2149.1</ele>
        <time>2021-08-15T13:12:52Z</time>
      </trkpt>
      <trkpt lat="45.50202" lon="6.70011">
        <ele>2149.1</ele>
        <time>2021-08-15T13:12:53Z</time>
      </trkpt>
      <trkpt lat="45.50202" lon="6.70011">
        <ele>2149.1</ele>
        <time>2021-08-15T13:12:54Z</time>
      </trkpt>
      <trkpt lat="45.50202" lon="6.70011">
        <ele>2149.1</ele>
        <time>2021-08-15T13:12:55Z</time>
      </trkpt>
      <trkpt lat="45.50202" lon="6.70011">
        <ele>2149.1</ele>
        <time>2021-08-15T13:12:56Z</time>
      </trkpt>
      <trkpt lat="45.50202" lon="6.70011">
        <ele>2149.1</ele>
        <time>2021-08-15T13:12:57Z</time>
      </trkpt>
      <trkpt lat="45.50202" lon="6.70011">
        <ele>2149.1</ele>
        <time>2021-08-15T13:12:58Z</time>
      </trkpt>
      <trkpt lat="45.50202" lon="6.70011">
        <ele>2149.1</ele>
        <time>2021-08-15T13:12:59Z</time>
      </trkpt>
      <trkpt lat="45.50202" lon="6.70011">
        <ele>2149.1</ele>
        <time>2021-08-15T13:13:00Z</time>
      </trkpt>
      <trkpt lat="45.50202" lon="6.70011">
        <ele>2149.1</ele>
        <time>2021-08-15T13:13:01Z</time>
      </trkpt>
      <trkpt lat="45.50202" lon="6.70011">
        <ele>2149.1</ele>
        <time>2021-08-15T13:13:02Z</time>
      </trkpt>
      <trkpt lat="45.50202" lon="6.70011">
        <ele>2149.1</ele>
        <time>2021-08-15T13:13:03Z</time>
      </trkpt>
      <trkpt lat="45.50202" lon="6.70011">
        <ele>2149.1</ele>
        <time>2021-08-15T13:13:04Z</time>
      </trkpt>
      <trkpt lat="45.50202" lon="6.70011">
        <ele>2149.1</ele>
        <time>2021-08-15T13:13:05Z</time>
      </trkpt>
      <trkpt lat="45.50202" lon="6.70011">
        <ele>2149.1</ele>
        <time>2021-08-15T13:13:06Z</time>
      </trkpt>
      <trkpt lat="45.50202" lon="6.70011">
        <ele>2149.1</ele>
        <time>2021-08-15T13:13:07Z</time>
      </trkpt>
      <trkpt lat="45.50202" lon="6.70011">
        <ele>2149.1</ele>
        <time>2021-08-15T13:13:08Z</time>
      </trkpt>
      <trkpt lat="45.50202" lon="6.70011">
        <ele>2149.1</ele>
        <time>2021-08-15T13:13:09Z</time>
      </trkpt>
      <trkpt lat="45.50202" lon="6.70011">
        <ele>2149.1</ele>
        <time>2021-08-15T13:13:10Z</time>
      </trkpt>
      <trkpt lat="45.50202" lon="6.70011">
        <ele>2149.1</ele>
        <time>2021-08-15T13:13:11Z</time>
      </trkpt>
      <trkpt lat="45.50202" lon="6.70011">
        <ele>2149.1</ele>
        <time>2021-08-15T13:13:12Z</time>
      </trkpt>
      <trkpt lat="45.50202" lon="6.70011">
        <ele>2149.1</ele>
        <time>2021-08-15T13:13:13Z</time>
      </trkpt>
      <trkpt lat="45.50202" lon="6.70011">
        <ele>2149.1</ele>
        <time>2021-08-15T13:13:14Z</time>
      </trkpt>
      <trkpt lat="45.50202" lon="6.70011">
        <ele>2149.1</ele>
        <time>2021-08-15T13:13:15Z</time>
      </trkpt>
      <trkpt lat="45.50202" lon="6.70011">
        <ele>2149.1</ele>
        <time>2021-08-15T13:13:16Z</time>
      </trkpt>
      <trkpt lat="45.50202" lon="6.70011">
        <ele>2149.1</ele>
        <time>2021-08-15T13:13:17Z</time>
      </trkpt>
      <trkpt lat="45.50202" lon="6.70011">
        <ele>2149.1</ele>
        <time>2021-08-15T13:13:18Z</time>
      </trkpt>
      <trkpt lat="45.50202" lon="6.70011">
        <ele>2149.1</ele>
        <time>2021-08-15T13:13:19Z</time>
      </trkpt>
      <trkpt lat="45.50202" lon="6.70011">
        <ele>2149.1</ele>
        <time>2021-08-15T13:13:20Z</time>
      </trkpt>
      <trkpt lat="45.50202" lon="6.70011">
        <ele>2149.1</ele>
        <time>2021-08-15T13:13:21Z</time>
      </trkpt>
      <trkpt lat="45.50202" lon="6.70011">
        <ele>2149.1</ele>
        <time>2021-08-15T13:13:22Z</time>
      </trkpt>
      <trkpt lat="45.50202" lon="6.70011">
        <ele>2149.1</ele>
        <time>2021-08-15T13:13:23Z</time>
      </trkpt>
      <trkpt lat="45.50202" lon="6.70011">
        <ele>2149.1</ele>
        <time>2021-08-15T13:13:24Z</time>
      </trkpt>
      <trkpt lat="45.50202" lon="6.70011">
        <ele>2149.1</ele>
        <time>2021-08-15T13:13:25Z</time>
      </trkpt>
      <trkpt lat="45.50202" lon="6.70011">
        <ele>2149.1</ele>
        <time>2021-08-15T13:13:26Z</time>
      </trkpt>
      <trkpt lat="45.50202" lon="6.70011">
        <ele>2149.1</ele>
        <time>2021-08-15T13:13:27Z</time>
      </trkpt>
      <trkpt lat="45.50202" lon="6.70011">
        <ele>2149.1</ele>
        <time>2021-08-15T13:13:28Z</time>
      </trkpt>
      <trkpt lat="45.50202" lon="6.70011">
        <ele>2149.1</ele>
        <time>2021-08-15T13:13:29Z</time>
      </trkpt>
      <trkpt lat="45.50202" lon="6.70011">
        <ele>2149.1</ele>
        <time>2021-08-15T13:13:30Z</time>
      </trkpt>
      <trkpt lat="45.50202" lon="6.70011">
        <ele>2149.1</ele>
        <time>2021-08-15T13:13:31Z</time>
      </trkpt>
      <trkpt lat="45.50202" lon="6.70011">
        <ele>2149.1</ele>
        <time>2021-08-15T13:13:32Z</time>
      </trkpt>
      <trkpt lat="45.50202" lon="6.70011">
        <ele>2149.1</ele>
        <time>2021-08-15T13:13:33Z</time>
      </trkpt>
      <trkpt lat="45.50202" lon="6.70011">
        <ele>2149.1</ele>
        <time>2021-08-15T13:13:34Z</time>
      </trkpt>
      <trkpt lat="45.50202" lon="6.70011">
        <ele>2149.1</ele>
        <time>2021-08-15T13:13:35Z</time>
      </trkpt>
      <trkpt lat="45.50202" lon="6.70011">
        <ele>2149.1</ele>
        <time>2021-08-15T13:13:36Z</time>
      </trkpt>
      <trkpt lat="45.50202" lon="6.70011">
        <ele>2149.1</ele>
        <time>2021-08-15T13:13:37Z</time>
      </trkpt>
      <trkpt lat="45.50202" lon="6.70011">
        <ele>2149.1</ele>
        <time>2021-08-15T13:13:38Z</time>
      </trkpt>
      <trkpt lat="45.50202" lon="6.70011">
        <ele>2149.1</ele>
        <time>2021-08-15T13:13:39Z</time>
      </trkpt>
      <trkpt lat="45.50202" lon="6.70011">
        <ele>2149.1</ele>
        <time>2021-08-15T13:13:40Z</time>
      </trkpt>
      <trkpt lat="45.50202" lon="6.70011">
        <ele>2149.1</ele>
        <time>2021-08-15T13:13:41Z</time>
      </trkpt>
      <trkpt lat="45.50202" lon="6.70011">
        <ele>2149.1</ele>
        <time>2021-08-15T13:13:42Z</time>
      </trkpt>
      <trkpt lat="45.50202" lon="6.70011">
        <ele>2149.1</ele>
        <time>2021-08-15T13:13:43Z</time>
      </trkpt>
      <trkpt lat="45.50202" lon="6.70011">
        <ele>2149.1</ele>
        <time>2021-08-15T13:13:44Z</time>
      </trkpt>
      <trkpt lat="45.50202" lon="6.70011">
        <ele>2149.1</ele>
        <time>2021-08-15T13:13:45Z</time>
      </trkpt>
      <trkpt lat="45.50202" lon="6.70011">
        <ele>2149.1</ele>
        <time>2021-08-15T13:13:46Z</time>
      </trkpt>
      <trkpt lat="45.50202" lon="6.70011">
        <ele>2149.1</ele>
        <time>2021-08-15T13:13:47Z</time>
      </trkpt>
      <trkpt lat="45.50202" lon="6.70011">
        <ele>2149.1</ele>
        <time>2021-08-15T13:13:48Z</time>
      </trkpt>
      <trkpt lat="45.50202" lon="6.70011">
        <ele>2149.1</ele>
        <time>2021-08-15T13:13:49Z</time>
      </trkpt>
      <trkpt lat="45.50202" lon="6.70011">
        <ele>2149.1</ele>
        <time>2021-08-15T13:13:50Z</time>
      </trkpt>
      <trkpt lat="45.50202" lon="6.70011">
        <ele>2149.1</ele>
        <time>2021-08-15T13:13:51Z</time>
      </trkpt>
      <trkpt lat="45.50202" lon="6.70011">
        <ele>2149.1</ele>
        <time>2021-08-15T13:13:52Z</time>
      </trkpt>
      <trkpt lat="45.50202" lon="6.70011">
        <ele>2149.1</ele>
        <time>2021-08-15T13:13:53Z</time>
      </trkpt>
      <trkpt lat="45.50202" lon="6.70011">
        <ele>2149.1</ele>
        <time>2021-08-15T13:13:54Z</time>
      </trkpt>
      <trkpt lat="45.50202" lon="6.70011">
        <ele>2149.1</ele>
        <time>2021-08-15T13:13:55Z</time>
      </trkpt>
      <trkpt lat="45.50202" lon="6.70011">
        <ele>2149.1</ele>
        <time>2021-08-15T13:13:56Z</time>
      </trkpt>
      <trkpt lat="45.50202" lon="6.70011">
        <ele>2149.1</ele>
        <time>2021-08-15T13:13:57Z</time>
      </trkpt>
      <trkpt lat="45.50202" lon="6.70011">
        <ele>2149.1</ele>
        <time>2021-08-15T13:13:58Z</time>
      </trkpt>
      <trkpt lat="45.50202" lon="6.70011">
        <ele>2149.1</ele>
        <time>2021-08-15T13:13:59Z</time>
      </trkpt>
      <trkpt lat="45.50202" lon="6.70011">
        <ele>2149.1</ele>
        <time>2021-08-15T13:14:00Z</time>
      </trkpt>
      <trkpt lat="45.50202" lon="6.70011">
        <ele>2149.1</ele>
        <time>2021-08-15T13:14:01Z</time>
      </trkpt>
      <trkpt lat="45.50202" lon="6.70011">
        <ele>2149.1</ele>
        <time>2021-08-15T13:14:02Z</time>
      </trkpt>
      <trkpt lat="45.50202" lon="6.70011">
        <ele>2149.1</ele>
        <time>2021-08-15T13:14:03Z</time>
      </trkpt>
      <trkpt lat="45.50202" lon="6.70011">
        <ele>2149.1</ele>
        <time>2021-08-15T13:14:04Z</time>
      </trkpt>
      <trkpt lat="45.50202" lon="6.70011">
        <ele>2149.1</ele>
        <time>2021-08-15T13:14:05Z</time>
      </trkpt>
      <trkpt lat="45.50202" lon="6.70011">
        <ele>2149.1</ele>
        <time>2021-08-15T13:14:06Z</time>
      </trkpt>
      <trkpt lat="45.50202" lon="6.70011">
        <ele>2149.1</ele>
        <time>2021-08-15T13:14:07Z</time>
      </trkpt>
      <trkpt lat="45.50202" lon="6.70011">
        <ele>2149.1</ele>
        <time>2021-08-15T13:14:08Z</time>
      </trkpt>
      <trkpt lat="45.50202" lon="6.70011">
        <ele>2149.1</ele>
        <time>2021-08-15T13:14:09Z</time>
      </trkpt>
      <trkpt lat="45.50202" lon="6.70011">
        <ele>2149.1</ele>
        <time>2021-08-15T13:14:10Z</time>
      </trkpt>
      <trkpt lat="45.50202" lon="6.70011">
        <ele>2149.1</ele>
        <time>2021-08-15T13:14:11Z</time>
      </trkpt>
      <trkpt lat="45.50202" lon="6.70011">
        <ele>2149.1</ele>
        <time>2021-08-15T13:14:12Z</time>
      </trkpt>
      <trkpt lat="45.50202" lon="6.70011">
        <ele>2149.1</ele>
        <time>2021-08-15T13:14:13Z</time>
      </trkpt>
      <trkpt lat="45.50202" lon="6.70011">
        <ele>2149.1</ele>
        <time>2021-08-15T13:14:14Z</time>
      </trkpt>
      <trkpt lat="45.50202" lon="6.70011">
        <ele>2149.1</ele>
        <time>2021-08-15T13:14:15Z</time>
      </trkpt>
      <trkpt lat="45.50202" lon="6.70011">
        <ele>2149.1</ele>
        <time>2021-08-15T13:14:16Z</time>
      </trkpt>
      <trkpt lat="45.50202" lon="6.70011">
        <ele>2149.1</ele>
        <time>2021-08-15T13:14:17Z</time>
      </trkpt>
      <trkpt lat="45.50202" lon="6.70011">
        <ele>2149.1</ele>
        <time>2021-08-15T13:14:18Z</time>
      </trkpt>
      <trkpt lat="45.50202" lon="6.70011">
        <ele>2149.1</ele>
        <time>2021-08-15T13:14:19Z</time>
      </trkpt>
      <trkpt lat="45.50202" lon="6.70011">
        <ele>2149.1</ele>
        <time>2021-08-15T13:14:20Z</time>
      </trkpt>
      <trkpt lat="45.50202" lon="6.70011">
        <ele>2149.1</ele>
        <time>2021-08-15T13:14:21Z</time>
      </trkpt>
      <trkpt lat="45.50202" lon="6.70011">
        <ele>2149.1</ele>
        <time>2021-08-15T13:14:22Z</time>
      </trkpt>
      <trkpt lat="45.50202" lon="6.70011">
        <ele>2149.1</ele>
        <time>2021-08-15T13:14:23Z</time>
      </trkpt>
      <trkpt lat="45.50202" lon="6.70011">
        <ele>2149.1</ele>
        <time>2021-08-15T13:14:24Z</time>
      </trkpt>
      <trkpt lat="45.50202" lon="6.70011">
        <ele>2149.1</ele>
        <time>2021-08-15T13:14:25Z</time>
      </trkpt>
      <trkpt lat="45.50202" lon="6.70011">
        <ele>2149.1</ele>
        <time>2021-08-15T13:14:26Z</time>
      </trkpt>
      <trkpt lat="45.50202" lon="6.70011">
        <ele>2149</ele>
        <time>2021-08-15T13:14:27Z</time>
      </trkpt>
      <trkpt lat="45.50202" lon="6.70011">
        <ele>2149</ele>
        <time>2021-08-15T13:14:28Z</time>
      </trkpt>
      <trkpt lat="45.50202" lon="6.70011">
        <ele>2149</ele>
        <time>2021-08-15T13:14:29Z</time>
      </trkpt>
      <trkpt lat="45.50202" lon="6.70011">
        <ele>2149</ele>
        <time>2021-08-15T13:14:30Z</time>
      </trkpt>
      <trkpt lat="45.50202" lon="6.70011">
        <ele>2149</ele>
        <time>2021-08-15T13:14:31Z</time>
      </trkpt>
      <trkpt lat="45.50202" lon="6.70011">
        <ele>2149</ele>
        <time>2021-08-15T13:14:32Z</time>
      </trkpt>
      <trkpt lat="45.50202" lon="6.70011">
        <ele>2149</ele>
        <time>2021-08-15T13:14:33Z</time>
      </trkpt>
      <trkpt lat="45.50203" lon="6.70011">
        <ele>2149</ele>
        <time>2021-08-15T13:14:34Z</time>
      </trkpt>
      <trkpt lat="45.50203" lon="6.70011">
        <ele>2149</ele>
        <time>2021-08-15T13:14:35Z</time>
      </trkpt>
      <trkpt lat="45.50203" lon="6.70011">
        <ele>2149</ele>
        <time>2021-08-15T13:14:36Z</time>
      </trkpt>
      <trkpt lat="45.50203" lon="6.70011">
        <ele>2148.9</ele>
        <time>2021-08-15T13:14:37Z</time>
      </trkpt>
      <trkpt lat="45.50203" lon="6.70011">
        <ele>2148.9</ele>
        <time>2021-08-15T13:14:38Z</time>
      </trkpt>
      <trkpt lat="45.50203" lon="6.70011">
        <ele>2148.9</ele>
        <time>2021-08-15T13:14:39Z</time>
      </trkpt>
      <trkpt lat="45.50203" lon="6.70012">
        <ele>2148.9</ele>
        <time>2021-08-15T13:14:40Z</time>
      </trkpt>
      <trkpt lat="45.50203" lon="6.70012">
        <ele>2148.9</ele>
        <time>2021-08-15T13:14:41Z</time>
      </trkpt>
      <trkpt lat="45.50203" lon="6.70012">
        <ele>2148.8</ele>
        <time>2021-08-15T13:14:42Z</time>
      </trkpt>
      <trkpt lat="45.50203" lon="6.70012">
        <ele>2148.8</ele>
        <time>2021-08-15T13:14:43Z</time>
      </trkpt>
      <trkpt lat="45.50204" lon="6.70012">
        <ele>2148.8</ele>
        <time>2021-08-15T13:14:44Z</time>
      </trkpt>
      <trkpt lat="45.50204" lon="6.70012">
        <ele>2148.7</ele>
        <time>2021-08-15T13:14:45Z</time>
      </trkpt>
      <trkpt lat="45.50204" lon="6.70012">
        <ele>2148.7</ele>
        <time>2021-08-15T13:14:46Z</time>
      </trkpt>
      <trkpt lat="45.50204" lon="6.70012">
        <ele>2148.7</ele>
        <time>2021-08-15T13:14:47Z</time>
      </trkpt>
      <trkpt lat="45.50204" lon="6.70012">
        <ele>2148.7</ele>
        <time>2021-08-15T13:14:48Z</time>
      </trkpt>
      <trkpt lat="45.50204" lon="6.70012">
        <ele>2148.7</ele>
        <time>2021-08-15T13:14:49Z</time>
      </trkpt>
      <trkpt lat="45.50204" lon="6.70012">
        <ele>2148.7</ele>
        <time>2021-08-15T13:14:50Z</time>
      </trkpt>
      <trkpt lat="45.50204" lon="6.70012">
        <ele>2148.7</ele>
        <time>2021-08-15T13:14:51Z</time>
      </trkpt>
      <trkpt lat="45.50204" lon="6.70012">
        <ele>2148.7</ele>
        <time>2021-08-15T13:14:52Z</time>
      </trkpt>
      <trkpt lat="45.50204" lon="6.70012">
        <ele>2148.7</ele>
        <time>2021-08-15T13:14:53Z</time>
      </trkpt>
      <trkpt lat="45.50204" lon="6.70012">
        <ele>2148.6</ele>
        <time>2021-08-15T13:14:54Z</time>
      </trkpt>
      <trkpt lat="45.50204" lon="6.70012">
        <ele>2148.6</ele>
        <time>2021-08-15T13:14:55Z</time>
      </trkpt>
      <trkpt lat="45.50204" lon="6.70012">
        <ele>2148.6</ele>
        <time>2021-08-15T13:14:56Z</time>
      </trkpt>
      <trkpt lat="45.50204" lon="6.70012">
        <ele>2148.6</ele>
        <time>2021-08-15T13:14:57Z</time>
      </trkpt>
      <trkpt lat="45.50204" lon="6.70012">
        <ele>2148.6</ele>
        <time>2021-08-15T13:14:58Z</time>
      </trkpt>
      <trkpt lat="45.50204" lon="6.70012">
        <ele>2148.6</ele>
        <time>2021-08-15T13:14:59Z</time>
      </trkpt>
      <trkpt lat="45.50204" lon="6.70012">
        <ele>2148.6</ele>
        <time>2021-08-15T13:15:00Z</time>
      </trkpt>
      <trkpt lat="45.50204" lon="6.70012">
        <ele>2148.6</ele>
        <time>2021-08-15T13:15:01Z</time>
      </trkpt>
      <trkpt lat="45.50204" lon="6.70012">
        <ele>2148.6</ele>
        <time>2021-08-15T13:15:02Z</time>
      </trkpt>
      <trkpt lat="45.50204" lon="6.70012">
        <ele>2148.6</ele>
        <time>2021-08-15T13:15:03Z</time>
      </trkpt>
      <trkpt lat="45.50204" lon="6.70012">
        <ele>2148.6</ele>
        <time>2021-08-15T13:15:04Z</time>
      </trkpt>
      <trkpt lat="45.50204" lon="6.70012">
        <ele>2148.6</ele>
        <time>2021-08-15T13:15:05Z</time>
      </trkpt>
      <trkpt lat="45.50204" lon="6.70012">
        <ele>2148.6</ele>
        <time>2021-08-15T13:15:06Z</time>
      </trkpt>
      <trkpt lat="45.50204" lon="6.70012">
        <ele>2148.6</ele>
        <time>2021-08-15T13:15:07Z</time>
      </trkpt>
      <trkpt lat="45.50204" lon="6.70012">
        <ele>2148.6</ele>
        <time>2021-08-15T13:15:08Z</time>
      </trkpt>
      <trkpt lat="45.50205" lon="6.70012">
        <ele>2148.5</ele>
        <time>2021-08-15T13:15:09Z</time>
      </trkpt>
      <trkpt lat="45.50205" lon="6.70012">
        <ele>2148.5</ele>
        <time>2021-08-15T13:15:10Z</time>
      </trkpt>
      <trkpt lat="45.50205" lon="6.70012">
        <ele>2148.4</ele>
        <time>2021-08-15T13:15:11Z</time>
      </trkpt>
      <trkpt lat="45.50206" lon="6.70012">
        <ele>2148.3</ele>
        <time>2021-08-15T13:15:12Z</time>
      </trkpt>
      <trkpt lat="45.50206" lon="6.70012">
        <ele>2148.2</ele>
        <time>2021-08-15T13:15:13Z</time>
      </trkpt>
      <trkpt lat="45.50207" lon="6.70012">
        <ele>2148.1</ele>
        <time>2021-08-15T13:15:14Z</time>
      </trkpt>
      <trkpt lat="45.50208" lon="6.70012">
        <ele>2147.9</ele>
        <time>2021-08-15T13:15:15Z</time>
      </trkpt>
      <trkpt lat="45.50209" lon="6.70012">
        <ele>2147.8</ele>
        <time>2021-08-15T13:15:16Z</time>
      </trkpt>
      <trkpt lat="45.5021" lon="6.70012">
        <ele>2147.6</ele>
        <time>2021-08-15T13:15:17Z</time>
      </trkpt>
      <trkpt lat="45.5021" lon="6.70012">
        <ele>2147.5</ele>
        <time>2021-08-15T13:15:18Z</time>
      </trkpt>
      <trkpt lat="45.50211" lon="6.70012">
        <ele>2147.3</ele>
        <time>2021-08-15T13:15:19Z</time>
      </trkpt>
      <trkpt lat="45.50212" lon="6.70012">
        <ele>2147.2</ele>
        <time>2021-08-15T13:15:20Z</time>
      </trkpt>
      <trkpt lat="45.50213" lon="6.70011">
        <ele>2147</ele>
        <time>2021-08-15T13:15:21Z</time>
      </trkpt>
      <trkpt lat="45.50213" lon="6.70011">
        <ele>2146.9</ele>
        <time>2021-08-15T13:15:22Z</time>
      </trkpt>
      <trkpt lat="45.50214" lon="6.70011">
        <ele>2146.8</ele>
        <time>2021-08-15T13:15:23Z</time>
      </trkpt>
      <trkpt lat="45.50214" lon="6.70011">
        <ele>2146.8</ele>
        <time>2021-08-15T13:15:24Z</time>
      </trkpt>
      <trkpt lat="45.50215" lon="6.70011">
        <ele>2146.7</ele>
        <time>2021-08-15T13:15:25Z</time>
      </trkpt>
      <trkpt lat="45.50215" lon="6.70011">
        <ele>2146.7</ele>
        <time>2021-08-15T13:15:26Z</time>
      </trkpt>
      <trkpt lat="45.50215" lon="6.70011">
        <ele>2146.6</ele>
        <time>2021-08-15T13:15:27Z</time>
      </trkpt>
      <trkpt lat="45.50215" lon="6.70011">
        <ele>2146.6</ele>
        <time>2021-08-15T13:15:28Z</time>
      </trkpt>
      <trkpt lat="45.50215" lon="6.70011">
        <ele>2146.6</ele>
        <time>2021-08-15T13:15:29Z</time>
      </trkpt>
      <trkpt lat="45.50215" lon="6.70011">
        <ele>2146.5</ele>
        <time>2021-08-15T13:15:30Z</time>
      </trkpt>
      <trkpt lat="45.50216" lon="6.70011">
        <ele>2146.5</ele>
        <time>2021-08-15T13:15:31Z</time>
      </trkpt>
      <trkpt lat="45.50216" lon="6.70011">
        <ele>2146.5</ele>
        <time>2021-08-15T13:15:32Z</time>
      </trkpt>
      <trkpt lat="45.50216" lon="6.70011">
        <ele>2146.5</ele>
        <time>2021-08-15T13:15:33Z</time>
      </trkpt>
      <trkpt lat="45.50216" lon="6.70011">
        <ele>2146.5</ele>
        <time>2021-08-15T13:15:34Z</time>
      </trkpt>
      <trkpt lat="45.50216" lon="6.70011">
        <ele>2146.5</ele>
        <time>2021-08-15T13:15:35Z</time>
      </trkpt>
      <trkpt lat="45.50216" lon="6.70011">
        <ele>2146.5</ele>
        <time>2021-08-15T13:15:36Z</time>
      </trkpt>
      <trkpt lat="45.50216" lon="6.70011">
        <ele>2146.5</ele>
        <time>2021-08-15T13:15:37Z</time>
      </trkpt>
      <trkpt lat="45.50216" lon="6.70011">
        <ele>2146.5</ele>
        <time>2021-08-15T13:15:38Z</time>
      </trkpt>
      <trkpt lat="45.50216" lon="6.70011">
        <ele>2146.5</ele>
        <time>2021-08-15T13:15:39Z</time>
      </trkpt>
      <trkpt lat="45.50216" lon="6.70011">
        <ele>2146.5</ele>
        <time>2021-08-15T13:15:40Z</time>
      </trkpt>
      <trkpt lat="45.50216" lon="6.70011">
        <ele>2146.5</ele>
        <time>2021-08-15T13:15:41Z</time>
      </trkpt>
      <trkpt lat="45.50216" lon="6.70011">
        <ele>2146.5</ele>
        <time>2021-08-15T13:15:42Z</time>
      </trkpt>
      <trkpt lat="45.50216" lon="6.70011">
        <ele>2146.5</ele>
        <time>2021-08-15T13:15:43Z</time>
      </trkpt>
      <trkpt lat="45.50216" lon="6.70011">
        <ele>2146.5</ele>
        <time>2021-08-15T13:15:44Z</time>
      </trkpt>
      <trkpt lat="45.50216" lon="6.70011">
        <ele>2146.5</ele>
        <time>2021-08-15T13:15:45Z</time>
      </trkpt>
      <trkpt lat="45.50216" lon="6.70011">
        <ele>2146.5</ele>
        <time>2021-08-15T13:15:46Z</time>
      </trkpt>
      <trkpt lat="45.50216" lon="6.70011">
        <ele>2146.5</ele>
        <time>2021-08-15T13:15:47Z</time>
      </trkpt>
      <trkpt lat="45.50216" lon="6.70011">
        <ele>2146.5</ele>
        <time>2021-08-15T13:15:48Z</time>
      </trkpt>
      <trkpt lat="45.50216" lon="6.70011">
        <ele>2146.5</ele>
        <time>2021-08-15T13:15:49Z</time>
      </trkpt>
      <trkpt lat="45.50216" lon="6.70011">
        <ele>2146.5</ele>
        <time>2021-08-15T13:15:50Z</time>
      </trkpt>
      <trkpt lat="45.50216" lon="6.70011">
        <ele>2146.5</ele>
        <time>2021-08-15T13:15:51Z</time>
      </trkpt>
      <trkpt lat="45.50216" lon="6.70011">
        <ele>2146.5</ele>
        <time>2021-08-15T13:15:52Z</time>
      </trkpt>
      <trkpt lat="45.50216" lon="6.70011">
        <ele>2146.5</ele>
        <time>2021-08-15T13:15:53Z</time>
      </trkpt>
      <trkpt lat="45.50216" lon="6.70011">
        <ele>2146.5</ele>
        <time>2021-08-15T13:15:54Z</time>
      </trkpt>
      <trkpt lat="45.50216" lon="6.70011">
        <ele>2146.5</ele>
        <time>2021-08-15T13:15:55Z</time>
      </trkpt>
      <trkpt lat="45.50216" lon="6.70011">
        <ele>2146.5</ele>
        <time>2021-08-15T13:15:56Z</time>
      </trkpt>
      <trkpt lat="45.50216" lon="6.70011">
        <ele>2146.5</ele>
        <time>2021-08-15T13:15:57Z</time>
      </trkpt>
      <trkpt lat="45.50216" lon="6.70011">
        <ele>2146.5</ele>
        <time>2021-08-15T13:15:58Z</time>
      </trkpt>
      <trkpt lat="45.50216" lon="6.70011">
        <ele>2146.5</ele>
        <time>2021-08-15T13:15:59Z</time>
      </trkpt>
      <trkpt lat="45.50216" lon="6.70011">
        <ele>2146.5</ele>
        <time>2021-08-15T13:16:00Z</time>
      </trkpt>
      <trkpt lat="45.50216" lon="6.70011">
        <ele>2146.5</ele>
        <time>2021-08-15T13:16:01Z</time>
      </trkpt>
      <trkpt lat="45.50216" lon="6.70011">
        <ele>2146.5</ele>
        <time>2021-08-15T13:16:02Z</time>
      </trkpt>
      <trkpt lat="45.50216" lon="6.70011">
        <ele>2146.5</ele>
        <time>2021-08-15T13:16:03Z</time>
      </trkpt>
      <trkpt lat="45.50216" lon="6.70011">
        <ele>2146.5</ele>
        <time>2021-08-15T13:16:04Z</time>
      </trkpt>
      <trkpt lat="45.50216" lon="6.70011">
        <ele>2146.5</ele>
        <time>2021-08-15T13:16:05Z</time>
      </trkpt>
      <trkpt lat="45.50216" lon="6.70011">
        <ele>2146.5</ele>
        <time>2021-08-15T13:16:06Z</time>
      </trkpt>
      <trkpt lat="45.50216" lon="6.70011">
        <ele>2146.5</ele>
        <time>2021-08-15T13:16:07Z</time>
      </trkpt>
      <trkpt lat="45.50216" lon="6.70011">
        <ele>2146.5</ele>
        <time>2021-08-15T13:16:08Z</time>
      </trkpt>
      <trkpt lat="45.50216" lon="6.70011">
        <ele>2146.5</ele>
        <time>2021-08-15T13:16:09Z</time>
      </trkpt>
      <trkpt lat="45.50216" lon="6.70011">
        <ele>2146.5</ele>
        <time>2021-08-15T13:16:10Z</time>
      </trkpt>
      <trkpt lat="45.50216" lon="6.70011">
        <ele>2146.5</ele>
        <time>2021-08-15T13:16:11Z</time>
      </trkpt>
      <trkpt lat="45.50216" lon="6.70011">
        <ele>2146.5</ele>
        <time>2021-08-15T13:16:12Z</time>
      </trkpt>
      <trkpt lat="45.50216" lon="6.70011">
        <ele>2146.5</ele>
        <time>2021-08-15T13:16:13Z</time>
      </trkpt>
      <trkpt lat="45.50216" lon="6.70011">
        <ele>2146.5</ele>
        <time>2021-08-15T13:16:14Z</time>
      </trkpt>
      <trkpt lat="45.50216" lon="6.70011">
        <ele>2146.5</ele>
        <time>2021-08-15T13:16:15Z</time>
      </trkpt>
      <trkpt lat="45.50216" lon="6.70011">
        <ele>2146.5</ele>
        <time>2021-08-15T13:16:16Z</time>
      </trkpt>
      <trkpt lat="45.50216" lon="6.70011">
        <ele>2146.5</ele>
        <time>2021-08-15T13:16:17Z</time>
      </trkpt>
      <trkpt lat="45.50216" lon="6.70011">
        <ele>2146.5</ele>
        <time>2021-08-15T13:16:18Z</time>
      </trkpt>
      <trkpt lat="45.50216" lon="6.70011">
        <ele>2146.5</ele>
        <time>2021-08-15T13:16:19Z</time>
      </trkpt>
      <trkpt lat="45.50216" lon="6.70011">
        <ele>2146.5</ele>
        <time>2021-08-15T13:16:20Z</time>
      </trkpt>
      <trkpt lat="45.50216" lon="6.70011">
        <ele>2146.5</ele>
        <time>2021-08-15T13:16:21Z</time>
      </trkpt>
      <trkpt lat="45.50216" lon="6.70011">
        <ele>2146.5</ele>
        <time>2021-08-15T13:16:22Z</time>
      </trkpt>
      <trkpt lat="45.50216" lon="6.70011">
        <ele>2146.5</ele>
        <time>2021-08-15T13:16:23Z</time>
      </trkpt>
      <trkpt lat="45.50216" lon="6.70011">
        <ele>2146.5</ele>
        <time>2021-08-15T13:16:24Z</time>
      </trkpt>
      <trkpt lat="45.50216" lon="6.70011">
        <ele>2146.4</ele>
        <time>2021-08-15T13:16:25Z</time>
      </trkpt>
      <trkpt lat="45.50216" lon="6.7001">
        <ele>2146.3</ele>
        <time>2021-08-15T13:16:26Z</time>
      </trkpt>
      <trkpt lat="45.50217" lon="6.7001">
        <ele>2146.2</ele>
        <time>2021-08-15T13:16:27Z</time>
      </trkpt>
      <trkpt lat="45.50218" lon="6.7001">
        <ele>2146.1</ele>
        <time>2021-08-15T13:16:28Z</time>
      </trkpt>
      <trkpt lat="45.50219" lon="6.70009">
        <ele>2146</ele>
        <time>2021-08-15T13:16:29Z</time>
      </trkpt>
      <trkpt lat="45.5022" lon="6.70009">
        <ele>2145.8</ele>
        <time>2021-08-15T13:16:30Z</time>
      </trkpt>
      <trkpt lat="45.5022" lon="6.70009">
        <ele>2145.6</ele>
        <time>2021-08-15T13:16:31Z</time>
      </trkpt>
      <trkpt lat="45.50221" lon="6.70009">
        <ele>2145.4</ele>
        <time>2021-08-15T13:16:32Z</time>
      </trkpt>
      <trkpt lat="45.50222" lon="6.70009">
        <ele>2145.3</ele>
        <time>2021-08-15T13:16:33Z</time>
      </trkpt>
      <trkpt lat="45.50223" lon="6.70009">
        <ele>2145.2</ele>
        <time>2021-08-15T13:16:34Z</time>
      </trkpt>
      <trkpt lat="45.50224" lon="6.70009">
        <ele>2145.1</ele>
        <time>2021-08-15T13:16:35Z</time>
      </trkpt>
      <trkpt lat="45.50224" lon="6.70009">
        <ele>2145</ele>
        <time>2021-08-15T13:16:36Z</time>
      </trkpt>
      <trkpt lat="45.50225" lon="6.70009">
        <ele>2144.9</ele>
        <time>2021-08-15T13:16:37Z</time>
      </trkpt>
      <trkpt lat="45.50225" lon="6.70009">
        <ele>2144.9</ele>
        <time>2021-08-15T13:16:38Z</time>
      </trkpt>
      <trkpt lat="45.50225" lon="6.70009">
        <ele>2144.9</ele>
        <time>2021-08-15T13:16:39Z</time>
      </trkpt>
      <trkpt lat="45.50225" lon="6.70009">
        <ele>2144.9</ele>
        <time>2021-08-15T13:16:40Z</time>
      </trkpt>
      <trkpt lat="45.50225" lon="6.70009">
        <ele>2144.9</ele>
        <time>2021-08-15T13:16:41Z</time>
      </trkpt>
      <trkpt lat="45.50225" lon="6.70009">
        <ele>2144.9</ele>
        <time>2021-08-15T13:16:42Z</time>
      </trkpt>
      <trkpt lat="45.50225" lon="6.70009">
        <ele>2144.8</ele>
        <time>2021-08-15T13:16:43Z</time>
      </trkpt>
      <trkpt lat="45.50226" lon="6.70009">
        <ele>2144.7</ele>
        <time>2021-08-15T13:16:44Z</time>
      </trkpt>
      <trkpt lat="45.50227" lon="6.70009">
        <ele>2144.6</ele>
        <time>2021-08-15T13:16:45Z</time>
      </trkpt>
      <trkpt lat="45.50227" lon="6.70009">
        <ele>2144.5</ele>
        <time>2021-08-15T13:16:46Z</time>
      </trkpt>
      <trkpt lat="45.50228" lon="6.70009">
        <ele>2144.4</ele>
        <time>2021-08-15T13:16:47Z</time>
      </trkpt>
      <trkpt lat="45.50229" lon="6.70009">
        <ele>2144.3</ele>
        <time>2021-08-15T13:16:48Z</time>
      </trkpt>
      <trkpt lat="45.5023" lon="6.70009">
        <ele>2144.1</ele>
        <time>2021-08-15T13:16:49Z</time>
      </trkpt>
      <trkpt lat="45.50231" lon="6.70009">
        <ele>2144</ele>
        <time>2021-08-15T13:16:50Z</time>
      </trkpt>
      <trkpt lat="45.50232" lon="6.70009">
        <ele>2143.9</ele>
        <time>2021-08-15T13:16:51Z</time>
      </trkpt>
      <trkpt lat="45.50233" lon="6.70009">
        <ele>2143.8</ele>
        <time>2021-08-15T13:16:52Z</time>
      </trkpt>
      <trkpt lat="45.50233" lon="6.70009">
        <ele>2143.7</ele>
        <time>2021-08-15T13:16:53Z</time>
      </trkpt>
      <trkpt lat="45.50234" lon="6.70009">
        <ele>2143.6</ele>
        <time>2021-08-15T13:16:54Z</time>
      </trkpt>
      <trkpt lat="45.50235" lon="6.70009">
        <ele>2143.5</ele>
        <time>2021-08-15T13:16:55Z</time>
      </trkpt>
      <trkpt lat="45.50236" lon="6.70009">
        <ele>2143.4</ele>
        <time>2021-08-15T13:16:56Z</time>
      </trkpt>
      <trkpt lat="45.50237" lon="6.70008">
        <ele>2143.3</ele>
        <time>2021-08-15T13:16:57Z</time>
      </trkpt>
      <trkpt lat="45.50237" lon="6.70008">
        <ele>2143.3</ele>
        <time>2021-08-15T13:16:58Z</time>
      </trkpt>
      <trkpt lat="45.50238" lon="6.70008">
        <ele>2143.2</ele>
        <time>2021-08-15T13:16:59Z</time>
      </trkpt>
      <trkpt lat="45.50239" lon="6.70007">
        <ele>2143.1</ele>
        <time>2021-08-15T13:17:00Z</time>
      </trkpt>
      <trkpt lat="45.50239" lon="6.70006">
        <ele>2143</ele>
        <time>2021-08-15T13:17:01Z</time>
      </trkpt>
      <trkpt lat="45.5024" lon="6.70005">
        <ele>2142.9</ele>
        <time>2021-08-15T13:17:02Z</time>
      </trkpt>
      <trkpt lat="45.50241" lon="6.70005">
        <ele>2142.8</ele>
        <time>2021-08-15T13:17:03Z</time>
      </trkpt>
      <trkpt lat="45.50242" lon="6.70004">
        <ele>2142.7</ele>
        <time>2021-08-15T13:17:04Z</time>
      </trkpt>
      <trkpt lat="45.50242" lon="6.70003">
        <ele>2142.6</ele>
        <time>2021-08-15T13:17:05Z</time>
      </trkpt>
      <trkpt lat="45.50243" lon="6.70002">
        <ele>2142.5</ele>
        <time>2021-08-15T13:17:06Z</time>
      </trkpt>
      <trkpt lat="45.50243" lon="6.70001">
        <ele>2142.5</ele>
        <time>2021-08-15T13:17:07Z</time>
      </trkpt>
      <trkpt lat="45.50244" lon="6.7">
        <ele>2142.4</ele>
        <time>2021-08-15T13:17:08Z</time>
      </trkpt>
      <trkpt lat="45.50244" lon="6.7">
        <ele>2142.4</ele>
        <time>2021-08-15T13:17:09Z</time>
      </trkpt>
      <trkpt lat="45.50244" lon="6.69999">
        <ele>2142.3</ele>
        <time>2021-08-15T13:17:10Z</time>
      </trkpt>
      <trkpt lat="45.50245" lon="6.69999">
        <ele>2142.3</ele>
        <time>2021-08-15T13:17:11Z</time>
      </trkpt>
      <trkpt lat="45.50245" lon="6.69999">
        <ele>2142.3</ele>
        <time>2021-08-15T13:17:12Z</time>
      </trkpt>
      <trkpt lat="45.50245" lon="6.69999">
        <ele>2142.3</ele>
        <time>2021-08-15T13:17:13Z</time>
      </trkpt>
      <trkpt lat="45.50245" lon="6.69999">
        <ele>2142.3</ele>
        <time>2021-08-15T13:17:14Z</time>
      </trkpt>
      <trkpt lat="45.50245" lon="6.69999">
        <ele>2142.2</ele>
        <time>2021-08-15T13:17:15Z</time>
      </trkpt>
      <trkpt lat="45.50244" lon="6.69999">
        <ele>2142.2</ele>
        <time>2021-08-15T13:17:16Z</time>
      </trkpt>
      <trkpt lat="45.50244" lon="6.69999">
        <ele>2142.2</ele>
        <time>2021-08-15T13:17:17Z</time>
      </trkpt>
      <trkpt lat="45.50244" lon="6.69999">
        <ele>2142.2</ele>
        <time>2021-08-15T13:17:18Z</time>
      </trkpt>
      <trkpt lat="45.50244" lon="6.69998">
        <ele>2142.1</ele>
        <time>2021-08-15T13:17:19Z</time>
      </trkpt>
      <trkpt lat="45.50243" lon="6.69998">
        <ele>2142.1</ele>
        <time>2021-08-15T13:17:20Z</time>
      </trkpt>
      <trkpt lat="45.50243" lon="6.69997">
        <ele>2142</ele>
        <time>2021-08-15T13:17:21Z</time>
      </trkpt>
      <trkpt lat="45.50243" lon="6.69995">
        <ele>2141.9</ele>
        <time>2021-08-15T13:17:22Z</time>
      </trkpt>
      <trkpt lat="45.50243" lon="6.69994">
        <ele>2141.9</ele>
        <time>2021-08-15T13:17:23Z</time>
      </trkpt>
      <trkpt lat="45.50243" lon="6.69993">
        <ele>2141.8</ele>
        <time>2021-08-15T13:17:24Z</time>
      </trkpt>
      <trkpt lat="45.50242" lon="6.69992">
        <ele>2141.7</ele>
        <time>2021-08-15T13:17:25Z</time>
      </trkpt>
      <trkpt lat="45.50242" lon="6.69991">
        <ele>2141.7</ele>
        <time>2021-08-15T13:17:26Z</time>
      </trkpt>
      <trkpt lat="45.50242" lon="6.6999">
        <ele>2141.6</ele>
        <time>2021-08-15T13:17:27Z</time>
      </trkpt>
      <trkpt lat="45.50242" lon="6.6999">
        <ele>2141.6</ele>
        <time>2021-08-15T13:17:28Z</time>
      </trkpt>
      <trkpt lat="45.50242" lon="6.6999">
        <ele>2141.6</ele>
        <time>2021-08-15T13:17:29Z</time>
      </trkpt>
      <trkpt lat="45.50242" lon="6.6999">
        <ele>2141.6</ele>
        <time>2021-08-15T13:17:30Z</time>
      </trkpt>
      <trkpt lat="45.50242" lon="6.6999">
        <ele>2141.6</ele>
        <time>2021-08-15T13:17:31Z</time>
      </trkpt>
      <trkpt lat="45.50242" lon="6.6999">
        <ele>2141.6</ele>
        <time>2021-08-15T13:17:32Z</time>
      </trkpt>
      <trkpt lat="45.50242" lon="6.6999">
        <ele>2141.6</ele>
        <time>2021-08-15T13:17:33Z</time>
      </trkpt>
      <trkpt lat="45.50242" lon="6.6999">
        <ele>2141.6</ele>
        <time>2021-08-15T13:17:34Z</time>
      </trkpt>
      <trkpt lat="45.50242" lon="6.6999">
        <ele>2141.6</ele>
        <time>2021-08-15T13:17:35Z</time>
      </trkpt>
      <trkpt lat="45.50242" lon="6.6999">
        <ele>2141.6</ele>
        <time>2021-08-15T13:17:36Z</time>
      </trkpt>
      <trkpt lat="45.50242" lon="6.6999">
        <ele>2141.6</ele>
        <time>2021-08-15T13:17:37Z</time>
      </trkpt>
      <trkpt lat="45.50242" lon="6.6999">
        <ele>2141.6</ele>
        <time>2021-08-15T13:17:38Z</time>
      </trkpt>
      <trkpt lat="45.50242" lon="6.6999">
        <ele>2141.6</ele>
        <time>2021-08-15T13:17:39Z</time>
      </trkpt>
      <trkpt lat="45.50242" lon="6.6999">
        <ele>2141.6</ele>
        <time>2021-08-15T13:17:40Z</time>
      </trkpt>
      <trkpt lat="45.50242" lon="6.6999">
        <ele>2141.6</ele>
        <time>2021-08-15T13:17:41Z</time>
      </trkpt>
      <trkpt lat="45.50242" lon="6.6999">
        <ele>2141.6</ele>
        <time>2021-08-15T13:17:42Z</time>
      </trkpt>
      <trkpt lat="45.50242" lon="6.6999">
        <ele>2141.6</ele>
        <time>2021-08-15T13:17:43Z</time>
      </trkpt>
      <trkpt lat="45.50242" lon="6.6999">
        <ele>2141.6</ele>
        <time>2021-08-15T13:17:44Z</time>
      </trkpt>
      <trkpt lat="45.50242" lon="6.6999">
        <ele>2141.6</ele>
        <time>2021-08-15T13:17:45Z</time>
      </trkpt>
      <trkpt lat="45.50242" lon="6.6999">
        <ele>2141.6</ele>
        <time>2021-08-15T13:17:46Z</time>
      </trkpt>
      <trkpt lat="45.50242" lon="6.6999">
        <ele>2141.6</ele>
        <time>2021-08-15T13:17:47Z</time>
      </trkpt>
      <trkpt lat="45.50242" lon="6.6999">
        <ele>2141.6</ele>
        <time>2021-08-15T13:17:48Z</time>
      </trkpt>
      <trkpt lat="45.50242" lon="6.6999">
        <ele>2141.6</ele>
        <time>2021-08-15T13:17:49Z</time>
      </trkpt>
      <trkpt lat="45.50242" lon="6.6999">
        <ele>2141.6</ele>
        <time>2021-08-15T13:17:50Z</time>
      </trkpt>
      <trkpt lat="45.50242" lon="6.6999">
        <ele>2141.6</ele>
        <time>2021-08-15T13:17:51Z</time>
      </trkpt>
      <trkpt lat="45.50242" lon="6.6999">
        <ele>2141.6</ele>
        <time>2021-08-15T13:17:52Z</time>
      </trkpt>
      <trkpt lat="45.50242" lon="6.6999">
        <ele>2141.6</ele>
        <time>2021-08-15T13:17:53Z</time>
      </trkpt>
      <trkpt lat="45.50242" lon="6.6999">
        <ele>2141.6</ele>
        <time>2021-08-15T13:17:54Z</time>
      </trkpt>
      <trkpt lat="45.50242" lon="6.6999">
        <ele>2141.6</ele>
        <time>2021-08-15T13:17:55Z</time>
      </trkpt>
      <trkpt lat="45.50242" lon="6.6999">
        <ele>2141.6</ele>
        <time>2021-08-15T13:17:56Z</time>
      </trkpt>
      <trkpt lat="45.50242" lon="6.6999">
        <ele>2141.6</ele>
        <time>2021-08-15T13:17:57Z</time>
      </trkpt>
      <trkpt lat="45.50242" lon="6.6999">
        <ele>2141.6</ele>
        <time>2021-08-15T13:17:58Z</time>
      </trkpt>
      <trkpt lat="45.50242" lon="6.6999">
        <ele>2141.6</ele>
        <time>2021-08-15T13:17:59Z</time>
      </trkpt>
      <trkpt lat="45.50242" lon="6.6999">
        <ele>2141.6</ele>
        <time>2021-08-15T13:18:00Z</time>
      </trkpt>
      <trkpt lat="45.50242" lon="6.6999">
        <ele>2141.6</ele>
        <time>2021-08-15T13:18:01Z</time>
      </trkpt>
      <trkpt lat="45.50242" lon="6.6999">
        <ele>2141.6</ele>
        <time>2021-08-15T13:18:02Z</time>
      </trkpt>
      <trkpt lat="45.50242" lon="6.6999">
        <ele>2141.6</ele>
        <time>2021-08-15T13:18:03Z</time>
      </trkpt>
      <trkpt lat="45.50242" lon="6.6999">
        <ele>2141.6</ele>
        <time>2021-08-15T13:18:04Z</time>
      </trkpt>
      <trkpt lat="45.50242" lon="6.6999">
        <ele>2141.6</ele>
        <time>2021-08-15T13:18:05Z</time>
      </trkpt>
      <trkpt lat="45.50242" lon="6.69991">
        <ele>2141.6</ele>
        <time>2021-08-15T13:18:06Z</time>
      </trkpt>
      <trkpt lat="45.50242" lon="6.69991">
        <ele>2141.6</ele>
        <time>2021-08-15T13:18:07Z</time>
      </trkpt>
      <trkpt lat="45.50242" lon="6.69991">
        <ele>2141.5</ele>
        <time>2021-08-15T13:18:08Z</time>
      </trkpt>
      <trkpt lat="45.50242" lon="6.69991">
        <ele>2141.5</ele>
        <time>2021-08-15T13:18:09Z</time>
      </trkpt>
      <trkpt lat="45.50242" lon="6.69991">
        <ele>2141.5</ele>
        <time>2021-08-15T13:18:10Z</time>
      </trkpt>
      <trkpt lat="45.50242" lon="6.69991">
        <ele>2141.5</ele>
        <time>2021-08-15T13:18:11Z</time>
      </trkpt>
      <trkpt lat="45.50242" lon="6.69991">
        <ele>2141.5</ele>
        <time>2021-08-15T13:18:12Z</time>
      </trkpt>
      <trkpt lat="45.50242" lon="6.69991">
        <ele>2141.5</ele>
        <time>2021-08-15T13:18:13Z</time>
      </trkpt>
      <trkpt lat="45.50242" lon="6.69991">
        <ele>2141.5</ele>
        <time>2021-08-15T13:18:14Z</time>
      </trkpt>
      <trkpt lat="45.50242" lon="6.69992">
        <ele>2141.5</ele>
        <time>2021-08-15T13:18:15Z</time>
      </trkpt>
      <trkpt lat="45.50242" lon="6.69992">
        <ele>2141.5</ele>
        <time>2021-08-15T13:18:16Z</time>
      </trkpt>
      <trkpt lat="45.50242" lon="6.69992">
        <ele>2141.5</ele>
        <time>2021-08-15T13:18:17Z</time>
      </trkpt>
      <trkpt lat="45.50242" lon="6.69992">
        <ele>2141.5</ele>
        <time>2021-08-15T13:18:18Z</time>
      </trkpt>
      <trkpt lat="45.50242" lon="6.69992">
        <ele>2141.5</ele>
        <time>2021-08-15T13:18:19Z</time>
      </trkpt>
      <trkpt lat="45.50242" lon="6.69992">
        <ele>2141.5</ele>
        <time>2021-08-15T13:18:20Z</time>
      </trkpt>
      <trkpt lat="45.50242" lon="6.69992">
        <ele>2141.5</ele>
        <time>2021-08-15T13:18:21Z</time>
      </trkpt>
      <trkpt lat="45.50242" lon="6.69992">
        <ele>2141.5</ele>
        <time>2021-08-15T13:18:22Z</time>
      </trkpt>
      <trkpt lat="45.50242" lon="6.69992">
        <ele>2141.5</ele>
        <time>2021-08-15T13:18:23Z</time>
      </trkpt>
      <trkpt lat="45.50242" lon="6.69992">
        <ele>2141.5</ele>
        <time>2021-08-15T13:18:24Z</time>
      </trkpt>
      <trkpt lat="45.50242" lon="6.69992">
        <ele>2141.5</ele>
        <time>2021-08-15T13:18:25Z</time>
      </trkpt>
      <trkpt lat="45.50242" lon="6.69992">
        <ele>2141.5</ele>
        <time>2021-08-15T13:18:26Z</time>
      </trkpt>
      <trkpt lat="45.50242" lon="6.69992">
        <ele>2141.5</ele>
        <time>2021-08-15T13:18:27Z</time>
      </trkpt>
      <trkpt lat="45.50242" lon="6.69992">
        <ele>2141.5</ele>
        <time>2021-08-15T13:18:28Z</time>
      </trkpt>
      <trkpt lat="45.50242" lon="6.69992">
        <ele>2141.5</ele>
        <time>2021-08-15T13:18:29Z</time>
      </trkpt>
      <trkpt lat="45.50242" lon="6.69992">
        <ele>2141.5</ele>
        <time>2021-08-15T13:18:30Z</time>
      </trkpt>
      <trkpt lat="45.50242" lon="6.69992">
        <ele>2141.5</ele>
        <time>2021-08-15T13:18:31Z</time>
      </trkpt>
      <trkpt lat="45.50242" lon="6.69992">
        <ele>2141.4</ele>
        <time>2021-08-15T13:18:32Z</time>
      </trkpt>
      <trkpt lat="45.50242" lon="6.69992">
        <ele>2141.4</ele>
        <time>2021-08-15T13:18:33Z</time>
      </trkpt>
      <trkpt lat="45.50242" lon="6.69992">
        <ele>2141.4</ele>
        <time>2021-08-15T13:18:34Z</time>
      </trkpt>
      <trkpt lat="45.50242" lon="6.69992">
        <ele>2141.4</ele>
        <time>2021-08-15T13:18:35Z</time>
      </trkpt>
      <trkpt lat="45.50242" lon="6.69992">
        <ele>2141.4</ele>
        <time>2021-08-15T13:18:36Z</time>
      </trkpt>
      <trkpt lat="45.50242" lon="6.69992">
        <ele>2141.4</ele>
        <time>2021-08-15T13:18:37Z</time>
      </trkpt>
      <trkpt lat="45.50242" lon="6.69992">
        <ele>2141.4</ele>
        <time>2021-08-15T13:18:38Z</time>
      </trkpt>
      <trkpt lat="45.50242" lon="6.69992">
        <ele>2141.4</ele>
        <time>2021-08-15T13:18:39Z</time>
      </trkpt>
      <trkpt lat="45.50242" lon="6.69992">
        <ele>2141.4</ele>
        <time>2021-08-15T13:18:40Z</time>
      </trkpt>
      <trkpt lat="45.50242" lon="6.69992">
        <ele>2141.4</ele>
        <time>2021-08-15T13:18:41Z</time>
      </trkpt>
      <trkpt lat="45.50242" lon="6.69992">
        <ele>2141.4</ele>
        <time>2021-08-15T13:18:42Z</time>
      </trkpt>
      <trkpt lat="45.50242" lon="6.69992">
        <ele>2141.4</ele>
        <time>2021-08-15T13:18:43Z</time>
      </trkpt>
      <trkpt lat="45.50242" lon="6.69992">
        <ele>2141.4</ele>
        <time>2021-08-15T13:18:44Z</time>
      </trkpt>
      <trkpt lat="45.50242" lon="6.69992">
        <ele>2141.4</ele>
        <time>2021-08-15T13:18:45Z</time>
      </trkpt>
      <trkpt lat="45.50242" lon="6.69992">
        <ele>2141.4</ele>
        <time>2021-08-15T13:18:46Z</time>
      </trkpt>
      <trkpt lat="45.50242" lon="6.69992">
        <ele>2141.4</ele>
        <time>2021-08-15T13:18:47Z</time>
      </trkpt>
      <trkpt lat="45.50242" lon="6.69992">
        <ele>2141.4</ele>
        <time>2021-08-15T13:18:48Z</time>
      </trkpt>
      <trkpt lat="45.50242" lon="6.69992">
        <ele>2141.4</ele>
        <time>2021-08-15T13:18:49Z</time>
      </trkpt>
      <trkpt lat="45.50242" lon="6.69992">
        <ele>2141.4</ele>
        <time>2021-08-15T13:18:50Z</time>
      </trkpt>
      <trkpt lat="45.50242" lon="6.69992">
        <ele>2141.4</ele>
        <time>2021-08-15T13:18:51Z</time>
      </trkpt>
      <trkpt lat="45.50242" lon="6.69992">
        <ele>2141.4</ele>
        <time>2021-08-15T13:18:52Z</time>
      </trkpt>
      <trkpt lat="45.50242" lon="6.69992">
        <ele>2141.4</ele>
        <time>2021-08-15T13:18:53Z</time>
      </trkpt>
      <trkpt lat="45.50242" lon="6.69992">
        <ele>2141.4</ele>
        <time>2021-08-15T13:18:54Z</time>
      </trkpt>
      <trkpt lat="45.50243" lon="6.69992">
        <ele>2141.4</ele>
        <time>2021-08-15T13:18:55Z</time>
      </trkpt>
      <trkpt lat="45.50243" lon="6.69992">
        <ele>2141.4</ele>
        <time>2021-08-15T13:18:56Z</time>
      </trkpt>
      <trkpt lat="45.50243" lon="6.69992">
        <ele>2141.4</ele>
        <time>2021-08-15T13:18:57Z</time>
      </trkpt>
      <trkpt lat="45.50243" lon="6.69992">
        <ele>2141.4</ele>
        <time>2021-08-15T13:18:58Z</time>
      </trkpt>
      <trkpt lat="45.50244" lon="6.69992">
        <ele>2141.3</ele>
        <time>2021-08-15T13:18:59Z</time>
      </trkpt>
      <trkpt lat="45.50245" lon="6.69992">
        <ele>2141.3</ele>
        <time>2021-08-15T13:19:00Z</time>
      </trkpt>
      <trkpt lat="45.50245" lon="6.69992">
        <ele>2141.2</ele>
        <time>2021-08-15T13:19:01Z</time>
      </trkpt>
      <trkpt lat="45.50246" lon="6.69992">
        <ele>2141.1</ele>
        <time>2021-08-15T13:19:02Z</time>
      </trkpt>
      <trkpt lat="45.50247" lon="6.69993">
        <ele>2141.1</ele>
        <time>2021-08-15T13:19:03Z</time>
      </trkpt>
      <trkpt lat="45.50247" lon="6.69993">
        <ele>2141</ele>
        <time>2021-08-15T13:19:04Z</time>
      </trkpt>
      <trkpt lat="45.50248" lon="6.69993">
        <ele>2141</ele>
        <time>2021-08-15T13:19:05Z</time>
      </trkpt>
      <trkpt lat="45.50248" lon="6.69993">
        <ele>2141</ele>
        <time>2021-08-15T13:19:06Z</time>
      </trkpt>
      <trkpt lat="45.50248" lon="6.69993">
        <ele>2140.9</ele>
        <time>2021-08-15T13:19:07Z</time>
      </trkpt>
      <trkpt lat="45.50249" lon="6.69993">
        <ele>2140.9</ele>
        <time>2021-08-15T13:19:08Z</time>
      </trkpt>
      <trkpt lat="45.50249" lon="6.69993">
        <ele>2140.9</ele>
        <time>2021-08-15T13:19:09Z</time>
      </trkpt>
      <trkpt lat="45.50249" lon="6.69992">
        <ele>2140.9</ele>
        <time>2021-08-15T13:19:10Z</time>
      </trkpt>
      <trkpt lat="45.5025" lon="6.69992">
        <ele>2140.8</ele>
        <time>2021-08-15T13:19:11Z</time>
      </trkpt>
      <trkpt lat="45.5025" lon="6.69992">
        <ele>2140.8</ele>
        <time>2021-08-15T13:19:12Z</time>
      </trkpt>
      <trkpt lat="45.50251" lon="6.69992">
        <ele>2140.7</ele>
        <time>2021-08-15T13:19:13Z</time>
      </trkpt>
      <trkpt lat="45.50251" lon="6.69992">
        <ele>2140.7</ele>
        <time>2021-08-15T13:19:14Z</time>
      </trkpt>
      <trkpt lat="45.50252" lon="6.69992">
        <ele>2140.6</ele>
        <time>2021-08-15T13:19:15Z</time>
      </trkpt>
      <trkpt lat="45.50253" lon="6.69991">
        <ele>2140.6</ele>
        <time>2021-08-15T13:19:16Z</time>
      </trkpt>
      <trkpt lat="45.50254" lon="6.69991">
        <ele>2140.5</ele>
        <time>2021-08-15T13:19:17Z</time>
      </trkpt>
      <trkpt lat="45.50255" lon="6.69991">
        <ele>2140.4</ele>
        <time>2021-08-15T13:19:18Z</time>
      </trkpt>
      <trkpt lat="45.50256" lon="6.6999">
        <ele>2140.3</ele>
        <time>2021-08-15T13:19:19Z</time>
      </trkpt>
      <trkpt lat="45.50257" lon="6.6999">
        <ele>2140.3</ele>
        <time>2021-08-15T13:19:20Z</time>
      </trkpt>
      <trkpt lat="45.50258" lon="6.6999">
        <ele>2140.2</ele>
        <time>2021-08-15T13:19:21Z</time>
      </trkpt>
      <trkpt lat="45.50259" lon="6.6999">
        <ele>2140.1</ele>
        <time>2021-08-15T13:19:22Z</time>
      </trkpt>
      <trkpt lat="45.5026" lon="6.69989">
        <ele>2140</ele>
        <time>2021-08-15T13:19:23Z</time>
      </trkpt>
      <trkpt lat="45.50261" lon="6.69989">
        <ele>2139.9</ele>
        <time>2021-08-15T13:19:24Z</time>
      </trkpt>
      <trkpt lat="45.50262" lon="6.69989">
        <ele>2139.8</ele>
        <time>2021-08-15T13:19:25Z</time>
      </trkpt>
      <trkpt lat="45.50263" lon="6.69988">
        <ele>2139.8</ele>
        <time>2021-08-15T13:19:26Z</time>
      </trkpt>
      <trkpt lat="45.50264" lon="6.69988">
        <ele>2139.7</ele>
        <time>2021-08-15T13:19:27Z</time>
      </trkpt>
      <trkpt lat="45.50264" lon="6.69988">
        <ele>2139.6</ele>
        <time>2021-08-15T13:19:28Z</time>
      </trkpt>
      <trkpt lat="45.50265" lon="6.69988">
        <ele>2139.6</ele>
        <time>2021-08-15T13:19:29Z</time>
      </trkpt>
      <trkpt lat="45.50266" lon="6.69988">
        <ele>2139.5</ele>
        <time>2021-08-15T13:19:30Z</time>
      </trkpt>
      <trkpt lat="45.50266" lon="6.69987">
        <ele>2139.5</ele>
        <time>2021-08-15T13:19:31Z</time>
      </trkpt>
      <trkpt lat="45.50267" lon="6.69987">
        <ele>2139.4</ele>
        <time>2021-08-15T13:19:32Z</time>
      </trkpt>
      <trkpt lat="45.50267" lon="6.69987">
        <ele>2139.4</ele>
        <time>2021-08-15T13:19:33Z</time>
      </trkpt>
      <trkpt lat="45.50268" lon="6.69987">
        <ele>2139.4</ele>
        <time>2021-08-15T13:19:34Z</time>
      </trkpt>
      <trkpt lat="45.50268" lon="6.69986">
        <ele>2139.3</ele>
        <time>2021-08-15T13:19:35Z</time>
      </trkpt>
      <trkpt lat="45.50268" lon="6.69986">
        <ele>2139.3</ele>
        <time>2021-08-15T13:19:36Z</time>
      </trkpt>
      <trkpt lat="45.50268" lon="6.69986">
        <ele>2139.3</ele>
        <time>2021-08-15T13:19:37Z</time>
      </trkpt>
      <trkpt lat="45.50269" lon="6.69986">
        <ele>2139.3</ele>
        <time>2021-08-15T13:19:38Z</time>
      </trkpt>
      <trkpt lat="45.50269" lon="6.69986">
        <ele>2139.3</ele>
        <time>2021-08-15T13:19:39Z</time>
      </trkpt>
      <trkpt lat="45.50269" lon="6.69985">
        <ele>2139.2</ele>
        <time>2021-08-15T13:19:40Z</time>
      </trkpt>
      <trkpt lat="45.50269" lon="6.69985">
        <ele>2139.2</ele>
        <time>2021-08-15T13:19:41Z</time>
      </trkpt>
      <trkpt lat="45.50269" lon="6.69985">
        <ele>2139.2</ele>
        <time>2021-08-15T13:19:42Z</time>
      </trkpt>
      <trkpt lat="45.50269" lon="6.69985">
        <ele>2139.2</ele>
        <time>2021-08-15T13:19:43Z</time>
      </trkpt>
      <trkpt lat="45.50269" lon="6.69985">
        <ele>2139.2</ele>
        <time>2021-08-15T13:19:44Z</time>
      </trkpt>
      <trkpt lat="45.50269" lon="6.69985">
        <ele>2139.2</ele>
        <time>2021-08-15T13:19:45Z</time>
      </trkpt>
      <trkpt lat="45.50269" lon="6.69985">
        <ele>2139.2</ele>
        <time>2021-08-15T13:19:46Z</time>
      </trkpt>
      <trkpt lat="45.50269" lon="6.69985">
        <ele>2139.2</ele>
        <time>2021-08-15T13:19:47Z</time>
      </trkpt>
      <trkpt lat="45.50269" lon="6.69985">
        <ele>2139.2</ele>
        <time>2021-08-15T13:19:48Z</time>
      </trkpt>
      <trkpt lat="45.50269" lon="6.69985">
        <ele>2139.2</ele>
        <time>2021-08-15T13:19:49Z</time>
      </trkpt>
      <trkpt lat="45.50269" lon="6.69985">
        <ele>2139.2</ele>
        <time>2021-08-15T13:19:50Z</time>
      </trkpt>
      <trkpt lat="45.50269" lon="6.69985">
        <ele>2139.2</ele>
        <time>2021-08-15T13:19:51Z</time>
      </trkpt>
      <trkpt lat="45.50269" lon="6.69984">
        <ele>2139.2</ele>
        <time>2021-08-15T13:19:52Z</time>
      </trkpt>
      <trkpt lat="45.5027" lon="6.69984">
        <ele>2139.1</ele>
        <time>2021-08-15T13:19:53Z</time>
      </trkpt>
      <trkpt lat="45.5027" lon="6.69983">
        <ele>2139.1</ele>
        <time>2021-08-15T13:19:54Z</time>
      </trkpt>
      <trkpt lat="45.50271" lon="6.69982">
        <ele>2139</ele>
        <time>2021-08-15T13:19:55Z</time>
      </trkpt>
      <trkpt lat="45.50272" lon="6.69981">
        <ele>2138.9</ele>
        <time>2021-08-15T13:19:56Z</time>
      </trkpt>
      <trkpt lat="45.50272" lon="6.6998">
        <ele>2138.9</ele>
        <time>2021-08-15T13:19:57Z</time>
      </trkpt>
      <trkpt lat="45.50273" lon="6.69979">
        <ele>2138.8</ele>
        <time>2021-08-15T13:19:58Z</time>
      </trkpt>
      <trkpt lat="45.50274" lon="6.69978">
        <ele>2138.7</ele>
        <time>2021-08-15T13:19:59Z</time>
      </trkpt>
      <trkpt lat="45.50274" lon="6.69978">
        <ele>2138.7</ele>
        <time>2021-08-15T13:20:00Z</time>
      </trkpt>
      <trkpt lat="45.50274" lon="6.69977">
        <ele>2138.7</ele>
        <time>2021-08-15T13:20:01Z</time>
      </trkpt>
      <trkpt lat="45.50275" lon="6.69977">
        <ele>2138.7</ele>
        <time>2021-08-15T13:20:02Z</time>
      </trkpt>
      <trkpt lat="45.50275" lon="6.69977">
        <ele>2138.6</ele>
        <time>2021-08-15T13:20:03Z</time>
      </trkpt>
      <trkpt lat="45.50275" lon="6.69977">
        <ele>2138.6</ele>
        <time>2021-08-15T13:20:04Z</time>
      </trkpt>
      <trkpt lat="45.50275" lon="6.69977">
        <ele>2138.6</ele>
        <time>2021-08-15T13:20:05Z</time>
      </trkpt>
      <trkpt lat="45.50275" lon="6.69977">
        <ele>2138.6</ele>
        <time>2021-08-15T13:20:06Z</time>
      </trkpt>
      <trkpt lat="45.50275" lon="6.69977">
        <ele>2138.6</ele>
        <time>2021-08-15T13:20:07Z</time>
      </trkpt>
      <trkpt lat="45.50275" lon="6.69977">
        <ele>2138.6</ele>
        <time>2021-08-15T13:20:08Z</time>
      </trkpt>
      <trkpt lat="45.50275" lon="6.69977">
        <ele>2138.6</ele>
        <time>2021-08-15T13:20:09Z</time>
      </trkpt>
      <trkpt lat="45.50275" lon="6.69977">
        <ele>2138.6</ele>
        <time>2021-08-15T13:20:10Z</time>
      </trkpt>
      <trkpt lat="45.50275" lon="6.69977">
        <ele>2138.6</ele>
        <time>2021-08-15T13:20:11Z</time>
      </trkpt>
      <trkpt lat="45.50275" lon="6.69977">
        <ele>2138.6</ele>
        <time>2021-08-15T13:20:12Z</time>
      </trkpt>
      <trkpt lat="45.50275" lon="6.69977">
        <ele>2138.6</ele>
        <time>2021-08-15T13:20:13Z</time>
      </trkpt>
      <trkpt lat="45.50275" lon="6.69977">
        <ele>2138.6</ele>
        <time>2021-08-15T13:20:14Z</time>
      </trkpt>
      <trkpt lat="45.50275" lon="6.69977">
        <ele>2138.6</ele>
        <time>2021-08-15T13:20:15Z</time>
      </trkpt>
      <trkpt lat="45.50275" lon="6.69977">
        <ele>2138.6</ele>
        <time>2021-08-15T13:20:16Z</time>
      </trkpt>
      <trkpt lat="45.50275" lon="6.69977">
        <ele>2138.6</ele>
        <time>2021-08-15T13:20:17Z</time>
      </trkpt>
      <trkpt lat="45.50275" lon="6.69977">
        <ele>2138.6</ele>
        <time>2021-08-15T13:20:18Z</time>
      </trkpt>
      <trkpt lat="45.50275" lon="6.69977">
        <ele>2138.6</ele>
        <time>2021-08-15T13:20:19Z</time>
      </trkpt>
      <trkpt lat="45.50275" lon="6.69977">
        <ele>2138.6</ele>
        <time>2021-08-15T13:20:20Z</time>
      </trkpt>
      <trkpt lat="45.50275" lon="6.69977">
        <ele>2138.6</ele>
        <time>2021-08-15T13:20:21Z</time>
      </trkpt>
      <trkpt lat="45.50275" lon="6.69977">
        <ele>2138.6</ele>
        <time>2021-08-15T13:20:22Z</time>
      </trkpt>
      <trkpt lat="45.50275" lon="6.69977">
        <ele>2138.6</ele>
        <time>2021-08-15T13:20:23Z</time>
      </trkpt>
      <trkpt lat="45.50275" lon="6.69977">
        <ele>2138.6</ele>
        <time>2021-08-15T13:20:24Z</time>
      </trkpt>
      <trkpt lat="45.50275" lon="6.69977">
        <ele>2138.6</ele>
        <time>2021-08-15T13:20:25Z</time>
      </trkpt>
      <trkpt lat="45.50275" lon="6.69977">
        <ele>2138.6</ele>
        <time>2021-08-15T13:20:26Z</time>
      </trkpt>
      <trkpt lat="45.50275" lon="6.69977">
        <ele>2138.6</ele>
        <time>2021-08-15T13:20:27Z</time>
      </trkpt>
      <trkpt lat="45.50275" lon="6.69977">
        <ele>2138.6</ele>
        <time>2021-08-15T13:20:28Z</time>
      </trkpt>
      <trkpt lat="45.50275" lon="6.69977">
        <ele>2138.6</ele>
        <time>2021-08-15T13:20:29Z</time>
      </trkpt>
      <trkpt lat="45.50275" lon="6.69977">
        <ele>2138.6</ele>
        <time>2021-08-15T13:20:30Z</time>
      </trkpt>
      <trkpt lat="45.50275" lon="6.69977">
        <ele>2138.6</ele>
        <time>2021-08-15T13:20:31Z</time>
      </trkpt>
      <trkpt lat="45.50275" lon="6.69977">
        <ele>2138.6</ele>
        <time>2021-08-15T13:20:32Z</time>
      </trkpt>
      <trkpt lat="45.50275" lon="6.69977">
        <ele>2138.6</ele>
        <time>2021-08-15T13:20:33Z</time>
      </trkpt>
      <trkpt lat="45.50275" lon="6.69977">
        <ele>2138.6</ele>
        <time>2021-08-15T13:20:34Z</time>
      </trkpt>
      <trkpt lat="45.50275" lon="6.69977">
        <ele>2138.6</ele>
        <time>2021-08-15T13:20:35Z</time>
      </trkpt>
      <trkpt lat="45.50275" lon="6.69977">
        <ele>2138.6</ele>
        <time>2021-08-15T13:20:36Z</time>
      </trkpt>
      <trkpt lat="45.50275" lon="6.69977">
        <ele>2138.6</ele>
        <time>2021-08-15T13:20:37Z</time>
      </trkpt>
      <trkpt lat="45.50275" lon="6.69977">
        <ele>2138.6</ele>
        <time>2021-08-15T13:20:38Z</time>
      </trkpt>
      <trkpt lat="45.50275" lon="6.69977">
        <ele>2138.6</ele>
        <time>2021-08-15T13:20:39Z</time>
      </trkpt>
      <trkpt lat="45.50275" lon="6.69977">
        <ele>2138.6</ele>
        <time>2021-08-15T13:20:40Z</time>
      </trkpt>
      <trkpt lat="45.50275" lon="6.69977">
        <ele>2138.6</ele>
        <time>2021-08-15T13:20:41Z</time>
      </trkpt>
      <trkpt lat="45.50275" lon="6.69977">
        <ele>2138.6</ele>
        <time>2021-08-15T13:20:42Z</time>
      </trkpt>
      <trkpt lat="45.50275" lon="6.69977">
        <ele>2138.6</ele>
        <time>2021-08-15T13:20:43Z</time>
      </trkpt>
      <trkpt lat="45.50275" lon="6.69977">
        <ele>2138.6</ele>
        <time>2021-08-15T13:20:44Z</time>
      </trkpt>
      <trkpt lat="45.50275" lon="6.69977">
        <ele>2138.6</ele>
        <time>2021-08-15T13:20:45Z</time>
      </trkpt>
      <trkpt lat="45.50275" lon="6.69977">
        <ele>2138.6</ele>
        <time>2021-08-15T13:20:46Z</time>
      </trkpt>
      <trkpt lat="45.50275" lon="6.69977">
        <ele>2138.6</ele>
        <time>2021-08-15T13:20:47Z</time>
      </trkpt>
      <trkpt lat="45.50275" lon="6.69977">
        <ele>2138.6</ele>
        <time>2021-08-15T13:20:48Z</time>
      </trkpt>
      <trkpt lat="45.50275" lon="6.69977">
        <ele>2138.6</ele>
        <time>2021-08-15T13:20:49Z</time>
      </trkpt>
      <trkpt lat="45.50275" lon="6.69977">
        <ele>2138.6</ele>
        <time>2021-08-15T13:20:50Z</time>
      </trkpt>
      <trkpt lat="45.50275" lon="6.69977">
        <ele>2138.6</ele>
        <time>2021-08-15T13:20:51Z</time>
      </trkpt>
      <trkpt lat="45.50275" lon="6.69977">
        <ele>2138.6</ele>
        <time>2021-08-15T13:20:52Z</time>
      </trkpt>
      <trkpt lat="45.50275" lon="6.69977">
        <ele>2138.5</ele>
        <time>2021-08-15T13:20:53Z</time>
      </trkpt>
      <trkpt lat="45.50276" lon="6.69977">
        <ele>2138.5</ele>
        <time>2021-08-15T13:20:54Z</time>
      </trkpt>
      <trkpt lat="45.50276" lon="6.69977">
        <ele>2138.5</ele>
        <time>2021-08-15T13:20:55Z</time>
      </trkpt>
      <trkpt lat="45.50277" lon="6.69977">
        <ele>2138.4</ele>
        <time>2021-08-15T13:20:56Z</time>
      </trkpt>
      <trkpt lat="45.50278" lon="6.69977">
        <ele>2138.4</ele>
        <time>2021-08-15T13:20:57Z</time>
      </trkpt>
      <trkpt lat="45.50278" lon="6.69977">
        <ele>2138.4</ele>
        <time>2021-08-15T13:20:58Z</time>
      </trkpt>
      <trkpt lat="45.50279" lon="6.69977">
        <ele>2138.3</ele>
        <time>2021-08-15T13:20:59Z</time>
      </trkpt>
      <trkpt lat="45.5028" lon="6.69978">
        <ele>2138.3</ele>
        <time>2021-08-15T13:21:00Z</time>
      </trkpt>
      <trkpt lat="45.50281" lon="6.69978">
        <ele>2138.2</ele>
        <time>2021-08-15T13:21:01Z</time>
      </trkpt>
      <trkpt lat="45.50282" lon="6.69978">
        <ele>2138.2</ele>
        <time>2021-08-15T13:21:02Z</time>
      </trkpt>
      <trkpt lat="45.50283" lon="6.69978">
        <ele>2138.1</ele>
        <time>2021-08-15T13:21:03Z</time>
      </trkpt>
      <trkpt lat="45.50283" lon="6.69978">
        <ele>2138.1</ele>
        <time>2021-08-15T13:21:04Z</time>
      </trkpt>
      <trkpt lat="45.50284" lon="6.69979">
        <ele>2138</ele>
        <time>2021-08-15T13:21:05Z</time>
      </trkpt>
      <trkpt lat="45.50285" lon="6.69979">
        <ele>2138</ele>
        <time>2021-08-15T13:21:06Z</time>
      </trkpt>
      <trkpt lat="45.50286" lon="6.69979">
        <ele>2137.9</ele>
        <time>2021-08-15T13:21:07Z</time>
      </trkpt>
      <trkpt lat="45.50287" lon="6.69979">
        <ele>2137.9</ele>
        <time>2021-08-15T13:21:08Z</time>
      </trkpt>
      <trkpt lat="45.50288" lon="6.69979">
        <ele>2137.8</ele>
        <time>2021-08-15T13:21:09Z</time>
      </trkpt>
      <trkpt lat="45.50289" lon="6.6998">
        <ele>2137.8</ele>
        <time>2021-08-15T13:21:10Z</time>
      </trkpt>
      <trkpt lat="45.5029" lon="6.6998">
        <ele>2137.7</ele>
        <time>2021-08-15T13:21:11Z</time>
      </trkpt>
      <trkpt lat="45.50291" lon="6.6998">
        <ele>2137.7</ele>
        <time>2021-08-15T13:21:12Z</time>
      </trkpt>
      <trkpt lat="45.50292" lon="6.6998">
        <ele>2137.6</ele>
        <time>2021-08-15T13:21:13Z</time>
      </trkpt>
      <trkpt lat="45.50293" lon="6.6998">
        <ele>2137.6</ele>
        <time>2021-08-15T13:21:14Z</time>
      </trkpt>
      <trkpt lat="45.50294" lon="6.6998">
        <ele>2137.5</ele>
        <time>2021-08-15T13:21:15Z</time>
      </trkpt>
      <trkpt lat="45.50295" lon="6.69981">
        <ele>2137.5</ele>
        <time>2021-08-15T13:21:16Z</time>
      </trkpt>
      <trkpt lat="45.50296" lon="6.69981">
        <ele>2137.4</ele>
        <time>2021-08-15T13:21:17Z</time>
      </trkpt>
      <trkpt lat="45.50297" lon="6.69981">
        <ele>2137.4</ele>
        <time>2021-08-15T13:21:18Z</time>
      </trkpt>
      <trkpt lat="45.50298" lon="6.69981">
        <ele>2137.3</ele>
        <time>2021-08-15T13:21:19Z</time>
      </trkpt>
      <trkpt lat="45.50299" lon="6.69981">
        <ele>2137.3</ele>
        <time>2021-08-15T13:21:20Z</time>
      </trkpt>
      <trkpt lat="45.503" lon="6.69981">
        <ele>2137.2</ele>
        <time>2021-08-15T13:21:21Z</time>
      </trkpt>
      <trkpt lat="45.50301" lon="6.69982">
        <ele>2137.1</ele>
        <time>2021-08-15T13:21:22Z</time>
      </trkpt>
      <trkpt lat="45.50302" lon="6.69982">
        <ele>2137.1</ele>
        <time>2021-08-15T13:21:23Z</time>
      </trkpt>
      <trkpt lat="45.50303" lon="6.69982">
        <ele>2137</ele>
        <time>2021-08-15T13:21:24Z</time>
      </trkpt>
      <trkpt lat="45.50304" lon="6.69982">
        <ele>2137</ele>
        <time>2021-08-15T13:21:25Z</time>
      </trkpt>
      <trkpt lat="45.50305" lon="6.69982">
        <ele>2136.9</ele>
        <time>2021-08-15T13:21:26Z</time>
      </trkpt>
      <trkpt lat="45.50306" lon="6.69982">
        <ele>2136.9</ele>
        <time>2021-08-15T13:21:27Z</time>
      </trkpt>
      <trkpt lat="45.50307" lon="6.69982">
        <ele>2136.8</ele>
        <time>2021-08-15T13:21:28Z</time>
      </trkpt>
      <trkpt lat="45.50308" lon="6.69982">
        <ele>2136.7</ele>
        <time>2021-08-15T13:21:29Z</time>
      </trkpt>
      <trkpt lat="45.50309" lon="6.69982">
        <ele>2136.7</ele>
        <time>2021-08-15T13:21:30Z</time>
      </trkpt>
      <trkpt lat="45.5031" lon="6.69983">
        <ele>2136.6</ele>
        <time>2021-08-15T13:21:31Z</time>
      </trkpt>
      <trkpt lat="45.50311" lon="6.69983">
        <ele>2136.5</ele>
        <time>2021-08-15T13:21:32Z</time>
      </trkpt>
      <trkpt lat="45.50312" lon="6.69983">
        <ele>2136.5</ele>
        <time>2021-08-15T13:21:33Z</time>
      </trkpt>
      <trkpt lat="45.50313" lon="6.69983">
        <ele>2136.4</ele>
        <time>2021-08-15T13:21:34Z</time>
      </trkpt>
      <trkpt lat="45.50314" lon="6.69983">
        <ele>2136.3</ele>
        <time>2021-08-15T13:21:35Z</time>
      </trkpt>
      <trkpt lat="45.50315" lon="6.69983">
        <ele>2136.2</ele>
        <time>2021-08-15T13:21:36Z</time>
      </trkpt>
      <trkpt lat="45.50316" lon="6.69983">
        <ele>2136.1</ele>
        <time>2021-08-15T13:21:37Z</time>
      </trkpt>
      <trkpt lat="45.50317" lon="6.69983">
        <ele>2136.1</ele>
        <time>2021-08-15T13:21:38Z</time>
      </trkpt>
      <trkpt lat="45.50318" lon="6.69983">
        <ele>2136</ele>
        <time>2021-08-15T13:21:39Z</time>
      </trkpt>
      <trkpt lat="45.50319" lon="6.69983">
        <ele>2135.9</ele>
        <time>2021-08-15T13:21:40Z</time>
      </trkpt>
      <trkpt lat="45.50319" lon="6.69984">
        <ele>2135.8</ele>
        <time>2021-08-15T13:21:41Z</time>
      </trkpt>
      <trkpt lat="45.5032" lon="6.69984">
        <ele>2135.7</ele>
        <time>2021-08-15T13:21:42Z</time>
      </trkpt>
      <trkpt lat="45.50321" lon="6.69984">
        <ele>2135.6</ele>
        <time>2021-08-15T13:21:43Z</time>
      </trkpt>
      <trkpt lat="45.50322" lon="6.69984">
        <ele>2135.5</ele>
        <time>2021-08-15T13:21:44Z</time>
      </trkpt>
      <trkpt lat="45.50323" lon="6.69984">
        <ele>2135.4</ele>
        <time>2021-08-15T13:21:45Z</time>
      </trkpt>
      <trkpt lat="45.50324" lon="6.69984">
        <ele>2135.3</ele>
        <time>2021-08-15T13:21:46Z</time>
      </trkpt>
      <trkpt lat="45.50325" lon="6.69984">
        <ele>2135.2</ele>
        <time>2021-08-15T13:21:47Z</time>
      </trkpt>
      <trkpt lat="45.50326" lon="6.69984">
        <ele>2135.1</ele>
        <time>2021-08-15T13:21:48Z</time>
      </trkpt>
      <trkpt lat="45.50327" lon="6.69985">
        <ele>2135</ele>
        <time>2021-08-15T13:21:49Z</time>
      </trkpt>
      <trkpt lat="45.50328" lon="6.69985">
        <ele>2134.9</ele>
        <time>2021-08-15T13:21:50Z</time>
      </trkpt>
      <trkpt lat="45.50329" lon="6.69985">
        <ele>2134.8</ele>
        <time>2021-08-15T13:21:51Z</time>
      </trkpt>
      <trkpt lat="45.5033" lon="6.69985">
        <ele>2134.7</ele>
        <time>2021-08-15T13:21:52Z</time>
      </trkpt>
      <trkpt lat="45.50331" lon="6.69985">
        <ele>2134.6</ele>
        <time>2021-08-15T13:21:53Z</time>
      </trkpt>
      <trkpt lat="45.50332" lon="6.69985">
        <ele>2134.5</ele>
        <time>2021-08-15T13:21:54Z</time>
      </trkpt>
      <trkpt lat="45.50333" lon="6.69985">
        <ele>2134.4</ele>
        <time>2021-08-15T13:21:55Z</time>
      </trkpt>
      <trkpt lat="45.50333" lon="6.69986">
        <ele>2134.3</ele>
        <time>2021-08-15T13:21:56Z</time>
      </trkpt>
      <trkpt lat="45.50334" lon="6.69986">
        <ele>2134.2</ele>
        <time>2021-08-15T13:21:57Z</time>
      </trkpt>
      <trkpt lat="45.50335" lon="6.69986">
        <ele>2134.1</ele>
        <time>2021-08-15T13:21:58Z</time>
      </trkpt>
      <trkpt lat="45.50336" lon="6.69986">
        <ele>2134</ele>
        <time>2021-08-15T13:21:59Z</time>
      </trkpt>
      <trkpt lat="45.50337" lon="6.69986">
        <ele>2133.9</ele>
        <time>2021-08-15T13:22:00Z</time>
      </trkpt>
      <trkpt lat="45.50338" lon="6.69986">
        <ele>2133.8</ele>
        <time>2021-08-15T13:22:01Z</time>
      </trkpt>
      <trkpt lat="45.50338" lon="6.69987">
        <ele>2133.7</ele>
        <time>2021-08-15T13:22:02Z</time>
      </trkpt>
      <trkpt lat="45.50339" lon="6.69987">
        <ele>2133.6</ele>
        <time>2021-08-15T13:22:03Z</time>
      </trkpt>
      <trkpt lat="45.5034" lon="6.69987">
        <ele>2133.6</ele>
        <time>2021-08-15T13:22:04Z</time>
      </trkpt>
      <trkpt lat="45.5034" lon="6.69987">
        <ele>2133.5</ele>
        <time>2021-08-15T13:22:05Z</time>
      </trkpt>
      <trkpt lat="45.50341" lon="6.69987">
        <ele>2133.5</ele>
        <time>2021-08-15T13:22:06Z</time>
      </trkpt>
      <trkpt lat="45.50341" lon="6.69987">
        <ele>2133.4</ele>
        <time>2021-08-15T13:22:07Z</time>
      </trkpt>
      <trkpt lat="45.50341" lon="6.69987">
        <ele>2133.4</ele>
        <time>2021-08-15T13:22:08Z</time>
      </trkpt>
      <trkpt lat="45.50341" lon="6.69987">
        <ele>2133.4</ele>
        <time>2021-08-15T13:22:09Z</time>
      </trkpt>
      <trkpt lat="45.50341" lon="6.69987">
        <ele>2133.4</ele>
        <time>2021-08-15T13:22:10Z</time>
      </trkpt>
      <trkpt lat="45.50341" lon="6.69987">
        <ele>2133.4</ele>
        <time>2021-08-15T13:22:11Z</time>
      </trkpt>
      <trkpt lat="45.50341" lon="6.69987">
        <ele>2133.4</ele>
        <time>2021-08-15T13:22:12Z</time>
      </trkpt>
      <trkpt lat="45.50341" lon="6.69987">
        <ele>2133.3</ele>
        <time>2021-08-15T13:22:13Z</time>
      </trkpt>
      <trkpt lat="45.50341" lon="6.69987">
        <ele>2133.3</ele>
        <time>2021-08-15T13:22:14Z</time>
      </trkpt>
      <trkpt lat="45.50341" lon="6.69987">
        <ele>2133.3</ele>
        <time>2021-08-15T13:22:15Z</time>
      </trkpt>
      <trkpt lat="45.50341" lon="6.69987">
        <ele>2133.3</ele>
        <time>2021-08-15T13:22:16Z</time>
      </trkpt>
      <trkpt lat="45.50341" lon="6.69987">
        <ele>2133.3</ele>
        <time>2021-08-15T13:22:17Z</time>
      </trkpt>
      <trkpt lat="45.50341" lon="6.69987">
        <ele>2133.3</ele>
        <time>2021-08-15T13:22:18Z</time>
      </trkpt>
      <trkpt lat="45.50341" lon="6.69987">
        <ele>2133.3</ele>
        <time>2021-08-15T13:22:19Z</time>
      </trkpt>
      <trkpt lat="45.50341" lon="6.69987">
        <ele>2133.2</ele>
        <time>2021-08-15T13:22:20Z</time>
      </trkpt>
      <trkpt lat="45.50342" lon="6.69987">
        <ele>2133.2</ele>
        <time>2021-08-15T13:22:21Z</time>
      </trkpt>
      <trkpt lat="45.50342" lon="6.69987">
        <ele>2133.1</ele>
        <time>2021-08-15T13:22:22Z</time>
      </trkpt>
      <trkpt lat="45.50342" lon="6.69987">
        <ele>2133.1</ele>
        <time>2021-08-15T13:22:23Z</time>
      </trkpt>
      <trkpt lat="45.50343" lon="6.69987">
        <ele>2133</ele>
        <time>2021-08-15T13:22:24Z</time>
      </trkpt>
      <trkpt lat="45.50344" lon="6.69988">
        <ele>2132.9</ele>
        <time>2021-08-15T13:22:25Z</time>
      </trkpt>
      <trkpt lat="45.50344" lon="6.69987">
        <ele>2132.9</ele>
        <time>2021-08-15T13:22:26Z</time>
      </trkpt>
      <trkpt lat="45.50345" lon="6.69987">
        <ele>2132.8</ele>
        <time>2021-08-15T13:22:27Z</time>
      </trkpt>
      <trkpt lat="45.50345" lon="6.69987">
        <ele>2132.7</ele>
        <time>2021-08-15T13:22:28Z</time>
      </trkpt>
      <trkpt lat="45.50346" lon="6.69987">
        <ele>2132.6</ele>
        <time>2021-08-15T13:22:29Z</time>
      </trkpt>
      <trkpt lat="45.50347" lon="6.69987">
        <ele>2132.5</ele>
        <time>2021-08-15T13:22:30Z</time>
      </trkpt>
      <trkpt lat="45.50348" lon="6.69987">
        <ele>2132.4</ele>
        <time>2021-08-15T13:22:31Z</time>
      </trkpt>
      <trkpt lat="45.50348" lon="6.69986">
        <ele>2132.3</ele>
        <time>2021-08-15T13:22:32Z</time>
      </trkpt>
      <trkpt lat="45.50349" lon="6.69986">
        <ele>2132.2</ele>
        <time>2021-08-15T13:22:33Z</time>
      </trkpt>
      <trkpt lat="45.5035" lon="6.69986">
        <ele>2132.1</ele>
        <time>2021-08-15T13:22:34Z</time>
      </trkpt>
      <trkpt lat="45.50351" lon="6.69985">
        <ele>2132</ele>
        <time>2021-08-15T13:22:35Z</time>
      </trkpt>
      <trkpt lat="45.50352" lon="6.69985">
        <ele>2131.9</ele>
        <time>2021-08-15T13:22:36Z</time>
      </trkpt>
      <trkpt lat="45.50352" lon="6.69984">
        <ele>2131.8</ele>
        <time>2021-08-15T13:22:37Z</time>
      </trkpt>
      <trkpt lat="45.50353" lon="6.69984">
        <ele>2131.7</ele>
        <time>2021-08-15T13:22:38Z</time>
      </trkpt>
      <trkpt lat="45.50354" lon="6.69983">
        <ele>2131.5</ele>
        <time>2021-08-15T13:22:39Z</time>
      </trkpt>
      <trkpt lat="45.50355" lon="6.69983">
        <ele>2131.4</ele>
        <time>2021-08-15T13:22:40Z</time>
      </trkpt>
      <trkpt lat="45.50355" lon="6.69982">
        <ele>2131.3</ele>
        <time>2021-08-15T13:22:41Z</time>
      </trkpt>
      <trkpt lat="45.50356" lon="6.69982">
        <ele>2131.2</ele>
        <time>2021-08-15T13:22:42Z</time>
      </trkpt>
      <trkpt lat="45.50357" lon="6.69981">
        <ele>2131.1</ele>
        <time>2021-08-15T13:22:43Z</time>
      </trkpt>
      <trkpt lat="45.50358" lon="6.69981">
        <ele>2130.9</ele>
        <time>2021-08-15T13:22:44Z</time>
      </trkpt>
      <trkpt lat="45.50358" lon="6.6998">
        <ele>2130.8</ele>
        <time>2021-08-15T13:22:45Z</time>
      </trkpt>
      <trkpt lat="45.50359" lon="6.6998">
        <ele>2130.7</ele>
        <time>2021-08-15T13:22:46Z</time>
      </trkpt>
      <trkpt lat="45.5036" lon="6.69979">
        <ele>2130.6</ele>
        <time>2021-08-15T13:22:47Z</time>
      </trkpt>
      <trkpt lat="45.50361" lon="6.69979">
        <ele>2130.5</ele>
        <time>2021-08-15T13:22:48Z</time>
      </trkpt>
      <trkpt lat="45.50362" lon="6.69979">
        <ele>2130.3</ele>
        <time>2021-08-15T13:22:49Z</time>
      </trkpt>
      <trkpt lat="45.50362" lon="6.69978">
        <ele>2130.2</ele>
        <time>2021-08-15T13:22:50Z</time>
      </trkpt>
      <trkpt lat="45.50363" lon="6.69978">
        <ele>2130.1</ele>
        <time>2021-08-15T13:22:51Z</time>
      </trkpt>
      <trkpt lat="45.50364" lon="6.69978">
        <ele>2130</ele>
        <time>2021-08-15T13:22:52Z</time>
      </trkpt>
      <trkpt lat="45.50365" lon="6.69978">
        <ele>2129.9</ele>
        <time>2021-08-15T13:22:53Z</time>
      </trkpt>
      <trkpt lat="45.50365" lon="6.69978">
        <ele>2129.7</ele>
        <time>2021-08-15T13:22:54Z</time>
      </trkpt>
      <trkpt lat="45.50366" lon="6.69977">
        <ele>2129.6</ele>
        <time>2021-08-15T13:22:55Z</time>
      </trkpt>
      <trkpt lat="45.50367" lon="6.69977">
        <ele>2129.5</ele>
        <time>2021-08-15T13:22:56Z</time>
      </trkpt>
      <trkpt lat="45.50368" lon="6.69977">
        <ele>2129.4</ele>
        <time>2021-08-15T13:22:57Z</time>
      </trkpt>
      <trkpt lat="45.50369" lon="6.69977">
        <ele>2129.3</ele>
        <time>2021-08-15T13:22:58Z</time>
      </trkpt>
      <trkpt lat="45.50369" lon="6.69977">
        <ele>2129.1</ele>
        <time>2021-08-15T13:22:59Z</time>
      </trkpt>
      <trkpt lat="45.5037" lon="6.69977">
        <ele>2129</ele>
        <time>2021-08-15T13:23:00Z</time>
      </trkpt>
      <trkpt lat="45.50371" lon="6.69976">
        <ele>2128.9</ele>
        <time>2021-08-15T13:23:01Z</time>
      </trkpt>
      <trkpt lat="45.50371" lon="6.69976">
        <ele>2128.8</ele>
        <time>2021-08-15T13:23:02Z</time>
      </trkpt>
      <trkpt lat="45.50372" lon="6.69976">
        <ele>2128.7</ele>
        <time>2021-08-15T13:23:03Z</time>
      </trkpt>
      <trkpt lat="45.50372" lon="6.69976">
        <ele>2128.7</ele>
        <time>2021-08-15T13:23:04Z</time>
      </trkpt>
      <trkpt lat="45.50372" lon="6.69976">
        <ele>2128.6</ele>
        <time>2021-08-15T13:23:05Z</time>
      </trkpt>
      <trkpt lat="45.50373" lon="6.69976">
        <ele>2128.6</ele>
        <time>2021-08-15T13:23:06Z</time>
      </trkpt>
      <trkpt lat="45.50373" lon="6.69976">
        <ele>2128.6</ele>
        <time>2021-08-15T13:23:07Z</time>
      </trkpt>
      <trkpt lat="45.50373" lon="6.69976">
        <ele>2128.5</ele>
        <time>2021-08-15T13:23:08Z</time>
      </trkpt>
      <trkpt lat="45.50373" lon="6.69976">
        <ele>2128.5</ele>
        <time>2021-08-15T13:23:09Z</time>
      </trkpt>
      <trkpt lat="45.50372" lon="6.69976">
        <ele>2128.5</ele>
        <time>2021-08-15T13:23:10Z</time>
      </trkpt>
      <trkpt lat="45.50372" lon="6.69976">
        <ele>2128.5</ele>
        <time>2021-08-15T13:23:11Z</time>
      </trkpt>
      <trkpt lat="45.50372" lon="6.69976">
        <ele>2128.4</ele>
        <time>2021-08-15T13:23:12Z</time>
      </trkpt>
      <trkpt lat="45.50372" lon="6.69976">
        <ele>2128.4</ele>
        <time>2021-08-15T13:23:13Z</time>
      </trkpt>
      <trkpt lat="45.50372" lon="6.69976">
        <ele>2128.4</ele>
        <time>2021-08-15T13:23:14Z</time>
      </trkpt>
      <trkpt lat="45.50372" lon="6.69976">
        <ele>2128.4</ele>
        <time>2021-08-15T13:23:15Z</time>
      </trkpt>
      <trkpt lat="45.50372" lon="6.69976">
        <ele>2128.3</ele>
        <time>2021-08-15T13:23:16Z</time>
      </trkpt>
      <trkpt lat="45.50372" lon="6.69976">
        <ele>2128.3</ele>
        <time>2021-08-15T13:23:17Z</time>
      </trkpt>
      <trkpt lat="45.50373" lon="6.69976">
        <ele>2128.2</ele>
        <time>2021-08-15T13:23:18Z</time>
      </trkpt>
      <trkpt lat="45.50373" lon="6.69975">
        <ele>2128.1</ele>
        <time>2021-08-15T13:23:19Z</time>
      </trkpt>
      <trkpt lat="45.50374" lon="6.69975">
        <ele>2128</ele>
        <time>2021-08-15T13:23:20Z</time>
      </trkpt>
      <trkpt lat="45.50374" lon="6.69975">
        <ele>2127.9</ele>
        <time>2021-08-15T13:23:21Z</time>
      </trkpt>
      <trkpt lat="45.50375" lon="6.69975">
        <ele>2127.8</ele>
        <time>2021-08-15T13:23:22Z</time>
      </trkpt>
      <trkpt lat="45.50376" lon="6.69975">
        <ele>2127.7</ele>
        <time>2021-08-15T13:23:23Z</time>
      </trkpt>
      <trkpt lat="45.50377" lon="6.69975">
        <ele>2127.5</ele>
        <time>2021-08-15T13:23:24Z</time>
      </trkpt>
      <trkpt lat="45.50378" lon="6.69974">
        <ele>2127.3</ele>
        <time>2021-08-15T13:23:25Z</time>
      </trkpt>
      <trkpt lat="45.50379" lon="6.69974">
        <ele>2127.2</ele>
        <time>2021-08-15T13:23:26Z</time>
      </trkpt>
      <trkpt lat="45.5038" lon="6.69974">
        <ele>2127</ele>
        <time>2021-08-15T13:23:27Z</time>
      </trkpt>
      <trkpt lat="45.50381" lon="6.69973">
        <ele>2126.9</ele>
        <time>2021-08-15T13:23:28Z</time>
      </trkpt>
      <trkpt lat="45.50381" lon="6.69973">
        <ele>2126.7</ele>
        <time>2021-08-15T13:23:29Z</time>
      </trkpt>
      <trkpt lat="45.50382" lon="6.69973">
        <ele>2126.6</ele>
        <time>2021-08-15T13:23:30Z</time>
      </trkpt>
      <trkpt lat="45.50383" lon="6.69972">
        <ele>2126.4</ele>
        <time>2021-08-15T13:23:31Z</time>
      </trkpt>
      <trkpt lat="45.50384" lon="6.69972">
        <ele>2126.3</ele>
        <time>2021-08-15T13:23:32Z</time>
      </trkpt>
      <trkpt lat="45.50385" lon="6.69971">
        <ele>2126.1</ele>
        <time>2021-08-15T13:23:33Z</time>
      </trkpt>
      <trkpt lat="45.50385" lon="6.69971">
        <ele>2126</ele>
        <time>2021-08-15T13:23:34Z</time>
      </trkpt>
      <trkpt lat="45.50386" lon="6.69971">
        <ele>2125.9</ele>
        <time>2021-08-15T13:23:35Z</time>
      </trkpt>
      <trkpt lat="45.50387" lon="6.6997">
        <ele>2125.7</ele>
        <time>2021-08-15T13:23:36Z</time>
      </trkpt>
      <trkpt lat="45.50388" lon="6.6997">
        <ele>2125.6</ele>
        <time>2021-08-15T13:23:37Z</time>
      </trkpt>
      <trkpt lat="45.50389" lon="6.69969">
        <ele>2125.4</ele>
        <time>2021-08-15T13:23:38Z</time>
      </trkpt>
      <trkpt lat="45.50389" lon="6.69969">
        <ele>2125.3</ele>
        <time>2021-08-15T13:23:39Z</time>
      </trkpt>
      <trkpt lat="45.5039" lon="6.69968">
        <ele>2125.1</ele>
        <time>2021-08-15T13:23:40Z</time>
      </trkpt>
      <trkpt lat="45.50391" lon="6.69968">
        <ele>2125</ele>
        <time>2021-08-15T13:23:41Z</time>
      </trkpt>
      <trkpt lat="45.50392" lon="6.69967">
        <ele>2124.8</ele>
        <time>2021-08-15T13:23:42Z</time>
      </trkpt>
      <trkpt lat="45.50393" lon="6.69966">
        <ele>2124.7</ele>
        <time>2021-08-15T13:23:43Z</time>
      </trkpt>
      <trkpt lat="45.50394" lon="6.69966">
        <ele>2124.5</ele>
        <time>2021-08-15T13:23:44Z</time>
      </trkpt>
      <trkpt lat="45.50395" lon="6.69964">
        <ele>2124.1</ele>
        <time>2021-08-15T13:23:45Z</time>
      </trkpt>
      <trkpt lat="45.50396" lon="6.69964">
        <ele>2124</ele>
        <time>2021-08-15T13:23:46Z</time>
      </trkpt>
      <trkpt lat="45.50397" lon="6.69964">
        <ele>2123.8</ele>
        <time>2021-08-15T13:23:47Z</time>
      </trkpt>
      <trkpt lat="45.50398" lon="6.69963">
        <ele>2123.6</ele>
        <time>2021-08-15T13:23:48Z</time>
      </trkpt>
      <trkpt lat="45.50399" lon="6.69963">
        <ele>2123.4</ele>
        <time>2021-08-15T13:23:49Z</time>
      </trkpt>
      <trkpt lat="45.504" lon="6.69963">
        <ele>2123.3</ele>
        <time>2021-08-15T13:23:50Z</time>
      </trkpt>
      <trkpt lat="45.50401" lon="6.69962">
        <ele>2123.1</ele>
        <time>2021-08-15T13:23:51Z</time>
      </trkpt>
      <trkpt lat="45.50402" lon="6.69962">
        <ele>2122.9</ele>
        <time>2021-08-15T13:23:52Z</time>
      </trkpt>
      <trkpt lat="45.50403" lon="6.69962">
        <ele>2122.8</ele>
        <time>2021-08-15T13:23:53Z</time>
      </trkpt>
      <trkpt lat="45.50404" lon="6.69961">
        <ele>2122.6</ele>
        <time>2021-08-15T13:23:54Z</time>
      </trkpt>
      <trkpt lat="45.50405" lon="6.69961">
        <ele>2122.4</ele>
        <time>2021-08-15T13:23:55Z</time>
      </trkpt>
      <trkpt lat="45.50406" lon="6.6996">
        <ele>2122.2</ele>
        <time>2021-08-15T13:23:56Z</time>
      </trkpt>
      <trkpt lat="45.50407" lon="6.6996">
        <ele>2122.1</ele>
        <time>2021-08-15T13:23:57Z</time>
      </trkpt>
      <trkpt lat="45.50408" lon="6.69959">
        <ele>2121.9</ele>
        <time>2021-08-15T13:23:58Z</time>
      </trkpt>
      <trkpt lat="45.50409" lon="6.69959">
        <ele>2121.8</ele>
        <time>2021-08-15T13:23:59Z</time>
      </trkpt>
      <trkpt lat="45.50409" lon="6.69958">
        <ele>2121.7</ele>
        <time>2021-08-15T13:24:00Z</time>
      </trkpt>
      <trkpt lat="45.5041" lon="6.69957">
        <ele>2121.6</ele>
        <time>2021-08-15T13:24:01Z</time>
      </trkpt>
      <trkpt lat="45.5041" lon="6.69956">
        <ele>2121.4</ele>
        <time>2021-08-15T13:24:02Z</time>
      </trkpt>
      <trkpt lat="45.50411" lon="6.69955">
        <ele>2121.3</ele>
        <time>2021-08-15T13:24:03Z</time>
      </trkpt>
      <trkpt lat="45.50411" lon="6.69954">
        <ele>2121.2</ele>
        <time>2021-08-15T13:24:04Z</time>
      </trkpt>
      <trkpt lat="45.50411" lon="6.69953">
        <ele>2121</ele>
        <time>2021-08-15T13:24:05Z</time>
      </trkpt>
      <trkpt lat="45.50411" lon="6.69951">
        <ele>2120.9</ele>
        <time>2021-08-15T13:24:06Z</time>
      </trkpt>
      <trkpt lat="45.50411" lon="6.6995">
        <ele>2120.7</ele>
        <time>2021-08-15T13:24:07Z</time>
      </trkpt>
      <trkpt lat="45.50411" lon="6.69949">
        <ele>2120.6</ele>
        <time>2021-08-15T13:24:08Z</time>
      </trkpt>
      <trkpt lat="45.50411" lon="6.69947">
        <ele>2120.4</ele>
        <time>2021-08-15T13:24:09Z</time>
      </trkpt>
      <trkpt lat="45.50411" lon="6.69946">
        <ele>2120.3</ele>
        <time>2021-08-15T13:24:10Z</time>
      </trkpt>
      <trkpt lat="45.50411" lon="6.69944">
        <ele>2120.1</ele>
        <time>2021-08-15T13:24:11Z</time>
      </trkpt>
      <trkpt lat="45.50411" lon="6.69943">
        <ele>2120</ele>
        <time>2021-08-15T13:24:12Z</time>
      </trkpt>
      <trkpt lat="45.50411" lon="6.69941">
        <ele>2119.8</ele>
        <time>2021-08-15T13:24:13Z</time>
      </trkpt>
      <trkpt lat="45.50411" lon="6.6994">
        <ele>2119.6</ele>
        <time>2021-08-15T13:24:14Z</time>
      </trkpt>
      <trkpt lat="45.50411" lon="6.69938">
        <ele>2119.5</ele>
        <time>2021-08-15T13:24:15Z</time>
      </trkpt>
      <trkpt lat="45.50411" lon="6.69937">
        <ele>2119.3</ele>
        <time>2021-08-15T13:24:16Z</time>
      </trkpt>
      <trkpt lat="45.50411" lon="6.69935">
        <ele>2119.1</ele>
        <time>2021-08-15T13:24:17Z</time>
      </trkpt>
      <trkpt lat="45.50411" lon="6.69934">
        <ele>2119</ele>
        <time>2021-08-15T13:24:18Z</time>
      </trkpt>
      <trkpt lat="45.50411" lon="6.69933">
        <ele>2118.8</ele>
        <time>2021-08-15T13:24:19Z</time>
      </trkpt>
      <trkpt lat="45.50411" lon="6.69931">
        <ele>2118.6</ele>
        <time>2021-08-15T13:24:20Z</time>
      </trkpt>
      <trkpt lat="45.50411" lon="6.6993">
        <ele>2118.5</ele>
        <time>2021-08-15T13:24:21Z</time>
      </trkpt>
      <trkpt lat="45.50411" lon="6.69928">
        <ele>2118.3</ele>
        <time>2021-08-15T13:24:22Z</time>
      </trkpt>
      <trkpt lat="45.50411" lon="6.69927">
        <ele>2118.2</ele>
        <time>2021-08-15T13:24:23Z</time>
      </trkpt>
      <trkpt lat="45.50411" lon="6.69926">
        <ele>2118</ele>
        <time>2021-08-15T13:24:24Z</time>
      </trkpt>
      <trkpt lat="45.50411" lon="6.69925">
        <ele>2117.9</ele>
        <time>2021-08-15T13:24:25Z</time>
      </trkpt>
      <trkpt lat="45.50411" lon="6.69923">
        <ele>2117.7</ele>
        <time>2021-08-15T13:24:26Z</time>
      </trkpt>
      <trkpt lat="45.50412" lon="6.69922">
        <ele>2117.6</ele>
        <time>2021-08-15T13:24:27Z</time>
      </trkpt>
      <trkpt lat="45.50412" lon="6.69921">
        <ele>2117.4</ele>
        <time>2021-08-15T13:24:28Z</time>
      </trkpt>
      <trkpt lat="45.50412" lon="6.69919">
        <ele>2117.3</ele>
        <time>2021-08-15T13:24:29Z</time>
      </trkpt>
      <trkpt lat="45.50412" lon="6.69918">
        <ele>2117.2</ele>
        <time>2021-08-15T13:24:30Z</time>
      </trkpt>
      <trkpt lat="45.50412" lon="6.69917">
        <ele>2117</ele>
        <time>2021-08-15T13:24:31Z</time>
      </trkpt>
      <trkpt lat="45.50412" lon="6.69916">
        <ele>2116.9</ele>
        <time>2021-08-15T13:24:32Z</time>
      </trkpt>
      <trkpt lat="45.50412" lon="6.69914">
        <ele>2116.7</ele>
        <time>2021-08-15T13:24:33Z</time>
      </trkpt>
      <trkpt lat="45.50412" lon="6.69913">
        <ele>2116.6</ele>
        <time>2021-08-15T13:24:34Z</time>
      </trkpt>
      <trkpt lat="45.50412" lon="6.69912">
        <ele>2116.4</ele>
        <time>2021-08-15T13:24:35Z</time>
      </trkpt>
      <trkpt lat="45.50413" lon="6.69911">
        <ele>2116.3</ele>
        <time>2021-08-15T13:24:36Z</time>
      </trkpt>
      <trkpt lat="45.50413" lon="6.69909">
        <ele>2116.2</ele>
        <time>2021-08-15T13:24:37Z</time>
      </trkpt>
      <trkpt lat="45.50413" lon="6.69908">
        <ele>2116</ele>
        <time>2021-08-15T13:24:38Z</time>
      </trkpt>
      <trkpt lat="45.50413" lon="6.69907">
        <ele>2115.9</ele>
        <time>2021-08-15T13:24:39Z</time>
      </trkpt>
      <trkpt lat="45.50413" lon="6.69906">
        <ele>2115.8</ele>
        <time>2021-08-15T13:24:40Z</time>
      </trkpt>
      <trkpt lat="45.50413" lon="6.69905">
        <ele>2115.7</ele>
        <time>2021-08-15T13:24:41Z</time>
      </trkpt>
      <trkpt lat="45.50413" lon="6.69903">
        <ele>2115.5</ele>
        <time>2021-08-15T13:24:42Z</time>
      </trkpt>
      <trkpt lat="45.50413" lon="6.69902">
        <ele>2115.4</ele>
        <time>2021-08-15T13:24:43Z</time>
      </trkpt>
      <trkpt lat="45.50414" lon="6.69901">
        <ele>2115.3</ele>
        <time>2021-08-15T13:24:44Z</time>
      </trkpt>
      <trkpt lat="45.50414" lon="6.699">
        <ele>2115.2</ele>
        <time>2021-08-15T13:24:45Z</time>
      </trkpt>
      <trkpt lat="45.50414" lon="6.69898">
        <ele>2115.1</ele>
        <time>2021-08-15T13:24:46Z</time>
      </trkpt>
      <trkpt lat="45.50414" lon="6.69897">
        <ele>2115</ele>
        <time>2021-08-15T13:24:47Z</time>
      </trkpt>
      <trkpt lat="45.50414" lon="6.69896">
        <ele>2114.9</ele>
        <time>2021-08-15T13:24:48Z</time>
      </trkpt>
      <trkpt lat="45.50414" lon="6.69895">
        <ele>2114.8</ele>
        <time>2021-08-15T13:24:49Z</time>
      </trkpt>
      <trkpt lat="45.50415" lon="6.69893">
        <ele>2114.7</ele>
        <time>2021-08-15T13:24:50Z</time>
      </trkpt>
      <trkpt lat="45.50415" lon="6.69892">
        <ele>2114.5</ele>
        <time>2021-08-15T13:24:51Z</time>
      </trkpt>
      <trkpt lat="45.50415" lon="6.69891">
        <ele>2114.4</ele>
        <time>2021-08-15T13:24:52Z</time>
      </trkpt>
      <trkpt lat="45.50415" lon="6.6989">
        <ele>2114.3</ele>
        <time>2021-08-15T13:24:53Z</time>
      </trkpt>
      <trkpt lat="45.50416" lon="6.69888">
        <ele>2114.2</ele>
        <time>2021-08-15T13:24:54Z</time>
      </trkpt>
      <trkpt lat="45.50416" lon="6.69887">
        <ele>2114</ele>
        <time>2021-08-15T13:24:55Z</time>
      </trkpt>
      <trkpt lat="45.50416" lon="6.69886">
        <ele>2113.9</ele>
        <time>2021-08-15T13:24:56Z</time>
      </trkpt>
      <trkpt lat="45.50417" lon="6.69884">
        <ele>2113.8</ele>
        <time>2021-08-15T13:24:57Z</time>
      </trkpt>
      <trkpt lat="45.50417" lon="6.69883">
        <ele>2113.7</ele>
        <time>2021-08-15T13:24:58Z</time>
      </trkpt>
      <trkpt lat="45.50417" lon="6.69882">
        <ele>2113.5</ele>
        <time>2021-08-15T13:24:59Z</time>
      </trkpt>
      <trkpt lat="45.50418" lon="6.69881">
        <ele>2113.4</ele>
        <time>2021-08-15T13:25:00Z</time>
      </trkpt>
      <trkpt lat="45.50418" lon="6.6988">
        <ele>2113.4</ele>
        <time>2021-08-15T13:25:01Z</time>
      </trkpt>
      <trkpt lat="45.50419" lon="6.69879">
        <ele>2113.3</ele>
        <time>2021-08-15T13:25:02Z</time>
      </trkpt>
      <trkpt lat="45.50419" lon="6.69877">
        <ele>2113.1</ele>
        <time>2021-08-15T13:25:03Z</time>
      </trkpt>
      <trkpt lat="45.5042" lon="6.69877">
        <ele>2113.1</ele>
        <time>2021-08-15T13:25:04Z</time>
      </trkpt>
      <trkpt lat="45.5042" lon="6.69876">
        <ele>2113</ele>
        <time>2021-08-15T13:25:05Z</time>
      </trkpt>
      <trkpt lat="45.50421" lon="6.69875">
        <ele>2112.9</ele>
        <time>2021-08-15T13:25:06Z</time>
      </trkpt>
      <trkpt lat="45.50421" lon="6.69874">
        <ele>2112.8</ele>
        <time>2021-08-15T13:25:07Z</time>
      </trkpt>
      <trkpt lat="45.50422" lon="6.69874">
        <ele>2112.7</ele>
        <time>2021-08-15T13:25:08Z</time>
      </trkpt>
      <trkpt lat="45.50422" lon="6.69873">
        <ele>2112.6</ele>
        <time>2021-08-15T13:25:09Z</time>
      </trkpt>
      <trkpt lat="45.50423" lon="6.69873">
        <ele>2112.5</ele>
        <time>2021-08-15T13:25:10Z</time>
      </trkpt>
      <trkpt lat="45.50424" lon="6.69873">
        <ele>2112.4</ele>
        <time>2021-08-15T13:25:11Z</time>
      </trkpt>
      <trkpt lat="45.50424" lon="6.69872">
        <ele>2112.4</ele>
        <time>2021-08-15T13:25:12Z</time>
      </trkpt>
      <trkpt lat="45.50425" lon="6.69873">
        <ele>2112.3</ele>
        <time>2021-08-15T13:25:13Z</time>
      </trkpt>
      <trkpt lat="45.50426" lon="6.69873">
        <ele>2112.2</ele>
        <time>2021-08-15T13:25:14Z</time>
      </trkpt>
      <trkpt lat="45.50427" lon="6.69873">
        <ele>2112.1</ele>
        <time>2021-08-15T13:25:15Z</time>
      </trkpt>
      <trkpt lat="45.50427" lon="6.69874">
        <ele>2112</ele>
        <time>2021-08-15T13:25:16Z</time>
      </trkpt>
      <trkpt lat="45.50428" lon="6.69874">
        <ele>2111.9</ele>
        <time>2021-08-15T13:25:17Z</time>
      </trkpt>
      <trkpt lat="45.50429" lon="6.69875">
        <ele>2111.8</ele>
        <time>2021-08-15T13:25:18Z</time>
      </trkpt>
      <trkpt lat="45.5043" lon="6.69875">
        <ele>2111.7</ele>
        <time>2021-08-15T13:25:19Z</time>
      </trkpt>
      <trkpt lat="45.5043" lon="6.69876">
        <ele>2111.6</ele>
        <time>2021-08-15T13:25:20Z</time>
      </trkpt>
      <trkpt lat="45.50431" lon="6.69876">
        <ele>2111.6</ele>
        <time>2021-08-15T13:25:21Z</time>
      </trkpt>
      <trkpt lat="45.50432" lon="6.69876">
        <ele>2111.5</ele>
        <time>2021-08-15T13:25:22Z</time>
      </trkpt>
      <trkpt lat="45.50433" lon="6.69876">
        <ele>2111.4</ele>
        <time>2021-08-15T13:25:23Z</time>
      </trkpt>
      <trkpt lat="45.50433" lon="6.69877">
        <ele>2111.3</ele>
        <time>2021-08-15T13:25:24Z</time>
      </trkpt>
      <trkpt lat="45.50434" lon="6.69877">
        <ele>2111.2</ele>
        <time>2021-08-15T13:25:25Z</time>
      </trkpt>
      <trkpt lat="45.50435" lon="6.69877">
        <ele>2111.1</ele>
        <time>2021-08-15T13:25:26Z</time>
      </trkpt>
      <trkpt lat="45.50436" lon="6.69877">
        <ele>2111</ele>
        <time>2021-08-15T13:25:27Z</time>
      </trkpt>
      <trkpt lat="45.50437" lon="6.69877">
        <ele>2110.9</ele>
        <time>2021-08-15T13:25:28Z</time>
      </trkpt>
      <trkpt lat="45.50438" lon="6.69878">
        <ele>2110.8</ele>
        <time>2021-08-15T13:25:29Z</time>
      </trkpt>
      <trkpt lat="45.50439" lon="6.69878">
        <ele>2110.8</ele>
        <time>2021-08-15T13:25:30Z</time>
      </trkpt>
      <trkpt lat="45.5044" lon="6.69878">
        <ele>2110.7</ele>
        <time>2021-08-15T13:25:31Z</time>
      </trkpt>
      <trkpt lat="45.5044" lon="6.69878">
        <ele>2110.6</ele>
        <time>2021-08-15T13:25:32Z</time>
      </trkpt>
      <trkpt lat="45.50441" lon="6.69878">
        <ele>2110.5</ele>
        <time>2021-08-15T13:25:33Z</time>
      </trkpt>
      <trkpt lat="45.50442" lon="6.69879">
        <ele>2110.4</ele>
        <time>2021-08-15T13:25:34Z</time>
      </trkpt>
      <trkpt lat="45.50443" lon="6.69879">
        <ele>2110.3</ele>
        <time>2021-08-15T13:25:35Z</time>
      </trkpt>
      <trkpt lat="45.50444" lon="6.69879">
        <ele>2110.2</ele>
        <time>2021-08-15T13:25:36Z</time>
      </trkpt>
      <trkpt lat="45.50445" lon="6.69879">
        <ele>2110.1</ele>
        <time>2021-08-15T13:25:37Z</time>
      </trkpt>
      <trkpt lat="45.50446" lon="6.69879">
        <ele>2110.1</ele>
        <time>2021-08-15T13:25:38Z</time>
      </trkpt>
      <trkpt lat="45.50446" lon="6.69879">
        <ele>2110</ele>
        <time>2021-08-15T13:25:39Z</time>
      </trkpt>
      <trkpt lat="45.50447" lon="6.69879">
        <ele>2109.9</ele>
        <time>2021-08-15T13:25:40Z</time>
      </trkpt>
      <trkpt lat="45.50448" lon="6.69879">
        <ele>2109.8</ele>
        <time>2021-08-15T13:25:41Z</time>
      </trkpt>
      <trkpt lat="45.50449" lon="6.69879">
        <ele>2109.7</ele>
        <time>2021-08-15T13:25:42Z</time>
      </trkpt>
      <trkpt lat="45.5045" lon="6.69879">
        <ele>2109.6</ele>
        <time>2021-08-15T13:25:43Z</time>
      </trkpt>
      <trkpt lat="45.5045" lon="6.69879">
        <ele>2109.6</ele>
        <time>2021-08-15T13:25:44Z</time>
      </trkpt>
      <trkpt lat="45.50451" lon="6.69879">
        <ele>2109.5</ele>
        <time>2021-08-15T13:25:45Z</time>
      </trkpt>
      <trkpt lat="45.50452" lon="6.69879">
        <ele>2109.4</ele>
        <time>2021-08-15T13:25:46Z</time>
      </trkpt>
      <trkpt lat="45.50453" lon="6.69879">
        <ele>2109.4</ele>
        <time>2021-08-15T13:25:47Z</time>
      </trkpt>
      <trkpt lat="45.50453" lon="6.69879">
        <ele>2109.3</ele>
        <time>2021-08-15T13:25:48Z</time>
      </trkpt>
      <trkpt lat="45.50454" lon="6.69879">
        <ele>2109.3</ele>
        <time>2021-08-15T13:25:49Z</time>
      </trkpt>
      <trkpt lat="45.50455" lon="6.69878">
        <ele>2109.2</ele>
        <time>2021-08-15T13:25:50Z</time>
      </trkpt>
      <trkpt lat="45.50456" lon="6.69878">
        <ele>2109.1</ele>
        <time>2021-08-15T13:25:51Z</time>
      </trkpt>
      <trkpt lat="45.50457" lon="6.69878">
        <ele>2109.1</ele>
        <time>2021-08-15T13:25:52Z</time>
      </trkpt>
      <trkpt lat="45.50458" lon="6.69878">
        <ele>2109</ele>
        <time>2021-08-15T13:25:53Z</time>
      </trkpt>
      <trkpt lat="45.50458" lon="6.69877">
        <ele>2108.9</ele>
        <time>2021-08-15T13:25:54Z</time>
      </trkpt>
      <trkpt lat="45.50459" lon="6.69877">
        <ele>2108.8</ele>
        <time>2021-08-15T13:25:55Z</time>
      </trkpt>
      <trkpt lat="45.5046" lon="6.69877">
        <ele>2108.8</ele>
        <time>2021-08-15T13:25:56Z</time>
      </trkpt>
      <trkpt lat="45.50461" lon="6.69876">
        <ele>2108.7</ele>
        <time>2021-08-15T13:25:57Z</time>
      </trkpt>
      <trkpt lat="45.50462" lon="6.69876">
        <ele>2108.6</ele>
        <time>2021-08-15T13:25:58Z</time>
      </trkpt>
      <trkpt lat="45.50462" lon="6.69876">
        <ele>2108.6</ele>
        <time>2021-08-15T13:25:59Z</time>
      </trkpt>
      <trkpt lat="45.50463" lon="6.69876">
        <ele>2108.5</ele>
        <time>2021-08-15T13:26:00Z</time>
      </trkpt>
      <trkpt lat="45.50464" lon="6.69876">
        <ele>2108.5</ele>
        <time>2021-08-15T13:26:01Z</time>
      </trkpt>
      <trkpt lat="45.50464" lon="6.69875">
        <ele>2108.4</ele>
        <time>2021-08-15T13:26:02Z</time>
      </trkpt>
      <trkpt lat="45.50464" lon="6.69875">
        <ele>2108.5</ele>
        <time>2021-08-15T13:26:03Z</time>
      </trkpt>
      <trkpt lat="45.50464" lon="6.69875">
        <ele>2108.4</ele>
        <time>2021-08-15T13:26:04Z</time>
      </trkpt>
      <trkpt lat="45.50464" lon="6.69875">
        <ele>2108.4</ele>
        <time>2021-08-15T13:26:05Z</time>
      </trkpt>
      <trkpt lat="45.50464" lon="6.69875">
        <ele>2108.4</ele>
        <time>2021-08-15T13:26:06Z</time>
      </trkpt>
      <trkpt lat="45.50465" lon="6.69875">
        <ele>2108.5</ele>
        <time>2021-08-15T13:26:07Z</time>
      </trkpt>
      <trkpt lat="45.50465" lon="6.69875">
        <ele>2108.5</ele>
        <time>2021-08-15T13:26:08Z</time>
      </trkpt>
      <trkpt lat="45.50465" lon="6.69875">
        <ele>2108.4</ele>
        <time>2021-08-15T13:26:09Z</time>
      </trkpt>
      <trkpt lat="45.50466" lon="6.69875">
        <ele>2108.4</ele>
        <time>2021-08-15T13:26:10Z</time>
      </trkpt>
      <trkpt lat="45.50467" lon="6.69875">
        <ele>2108.3</ele>
        <time>2021-08-15T13:26:11Z</time>
      </trkpt>
      <trkpt lat="45.50468" lon="6.69875">
        <ele>2108.2</ele>
        <time>2021-08-15T13:26:12Z</time>
      </trkpt>
      <trkpt lat="45.50469" lon="6.69875">
        <ele>2108.2</ele>
        <time>2021-08-15T13:26:13Z</time>
      </trkpt>
      <trkpt lat="45.50471" lon="6.69875">
        <ele>2108.1</ele>
        <time>2021-08-15T13:26:14Z</time>
      </trkpt>
      <trkpt lat="45.50472" lon="6.69875">
        <ele>2108</ele>
        <time>2021-08-15T13:26:15Z</time>
      </trkpt>
      <trkpt lat="45.50473" lon="6.69875">
        <ele>2107.9</ele>
        <time>2021-08-15T13:26:16Z</time>
      </trkpt>
      <trkpt lat="45.50474" lon="6.69875">
        <ele>2107.9</ele>
        <time>2021-08-15T13:26:17Z</time>
      </trkpt>
      <trkpt lat="45.50475" lon="6.69874">
        <ele>2107.8</ele>
        <time>2021-08-15T13:26:18Z</time>
      </trkpt>
      <trkpt lat="45.50477" lon="6.69874">
        <ele>2107.7</ele>
        <time>2021-08-15T13:26:19Z</time>
      </trkpt>
      <trkpt lat="45.50478" lon="6.69874">
        <ele>2107.6</ele>
        <time>2021-08-15T13:26:20Z</time>
      </trkpt>
      <trkpt lat="45.50479" lon="6.69874">
        <ele>2107.5</ele>
        <time>2021-08-15T13:26:21Z</time>
      </trkpt>
      <trkpt lat="45.5048" lon="6.69873">
        <ele>2107.5</ele>
        <time>2021-08-15T13:26:22Z</time>
      </trkpt>
      <trkpt lat="45.50481" lon="6.69873">
        <ele>2107.4</ele>
        <time>2021-08-15T13:26:23Z</time>
      </trkpt>
      <trkpt lat="45.50482" lon="6.69873">
        <ele>2107.4</ele>
        <time>2021-08-15T13:26:24Z</time>
      </trkpt>
      <trkpt lat="45.50483" lon="6.69873">
        <ele>2107.3</ele>
        <time>2021-08-15T13:26:25Z</time>
      </trkpt>
      <trkpt lat="45.50484" lon="6.69872">
        <ele>2107.2</ele>
        <time>2021-08-15T13:26:26Z</time>
      </trkpt>
      <trkpt lat="45.50485" lon="6.69872">
        <ele>2107.1</ele>
        <time>2021-08-15T13:26:27Z</time>
      </trkpt>
      <trkpt lat="45.50486" lon="6.69872">
        <ele>2107.1</ele>
        <time>2021-08-15T13:26:28Z</time>
      </trkpt>
      <trkpt lat="45.50487" lon="6.69872">
        <ele>2107</ele>
        <time>2021-08-15T13:26:29Z</time>
      </trkpt>
      <trkpt lat="45.50488" lon="6.69871">
        <ele>2106.9</ele>
        <time>2021-08-15T13:26:30Z</time>
      </trkpt>
      <trkpt lat="45.50489" lon="6.69871">
        <ele>2106.9</ele>
        <time>2021-08-15T13:26:31Z</time>
      </trkpt>
      <trkpt lat="45.5049" lon="6.69871">
        <ele>2106.8</ele>
        <time>2021-08-15T13:26:32Z</time>
      </trkpt>
      <trkpt lat="45.50491" lon="6.69871">
        <ele>2106.7</ele>
        <time>2021-08-15T13:26:33Z</time>
      </trkpt>
      <trkpt lat="45.50492" lon="6.6987">
        <ele>2106.6</ele>
        <time>2021-08-15T13:26:34Z</time>
      </trkpt>
      <trkpt lat="45.50493" lon="6.6987">
        <ele>2106.6</ele>
        <time>2021-08-15T13:26:35Z</time>
      </trkpt>
      <trkpt lat="45.50494" lon="6.69869">
        <ele>2106.5</ele>
        <time>2021-08-15T13:26:36Z</time>
      </trkpt>
      <trkpt lat="45.50494" lon="6.69869">
        <ele>2106.4</ele>
        <time>2021-08-15T13:26:37Z</time>
      </trkpt>
      <trkpt lat="45.50495" lon="6.69868">
        <ele>2106.4</ele>
        <time>2021-08-15T13:26:38Z</time>
      </trkpt>
      <trkpt lat="45.50496" lon="6.69868">
        <ele>2106.3</ele>
        <time>2021-08-15T13:26:39Z</time>
      </trkpt>
      <trkpt lat="45.50497" lon="6.69867">
        <ele>2106.2</ele>
        <time>2021-08-15T13:26:40Z</time>
      </trkpt>
      <trkpt lat="45.50498" lon="6.69866">
        <ele>2106.1</ele>
        <time>2021-08-15T13:26:41Z</time>
      </trkpt>
      <trkpt lat="45.50499" lon="6.69866">
        <ele>2106.1</ele>
        <time>2021-08-15T13:26:42Z</time>
      </trkpt>
      <trkpt lat="45.505" lon="6.69865">
        <ele>2106</ele>
        <time>2021-08-15T13:26:43Z</time>
      </trkpt>
      <trkpt lat="45.50501" lon="6.69864">
        <ele>2105.9</ele>
        <time>2021-08-15T13:26:44Z</time>
      </trkpt>
      <trkpt lat="45.50502" lon="6.69864">
        <ele>2105.8</ele>
        <time>2021-08-15T13:26:45Z</time>
      </trkpt>
      <trkpt lat="45.50503" lon="6.69863">
        <ele>2105.8</ele>
        <time>2021-08-15T13:26:46Z</time>
      </trkpt>
      <trkpt lat="45.50504" lon="6.69862">
        <ele>2105.7</ele>
        <time>2021-08-15T13:26:47Z</time>
      </trkpt>
      <trkpt lat="45.50505" lon="6.69862">
        <ele>2105.6</ele>
        <time>2021-08-15T13:26:48Z</time>
      </trkpt>
      <trkpt lat="45.50506" lon="6.69861">
        <ele>2105.5</ele>
        <time>2021-08-15T13:26:49Z</time>
      </trkpt>
      <trkpt lat="45.50507" lon="6.69861">
        <ele>2105.4</ele>
        <time>2021-08-15T13:26:50Z</time>
      </trkpt>
      <trkpt lat="45.50508" lon="6.6986">
        <ele>2105.4</ele>
        <time>2021-08-15T13:26:51Z</time>
      </trkpt>
      <trkpt lat="45.50508" lon="6.69859">
        <ele>2105.3</ele>
        <time>2021-08-15T13:26:52Z</time>
      </trkpt>
      <trkpt lat="45.50509" lon="6.69859">
        <ele>2105.2</ele>
        <time>2021-08-15T13:26:53Z</time>
      </trkpt>
      <trkpt lat="45.5051" lon="6.69858">
        <ele>2105.1</ele>
        <time>2021-08-15T13:26:54Z</time>
      </trkpt>
      <trkpt lat="45.50511" lon="6.69858">
        <ele>2105.1</ele>
        <time>2021-08-15T13:26:55Z</time>
      </trkpt>
      <trkpt lat="45.50512" lon="6.69857">
        <ele>2105</ele>
        <time>2021-08-15T13:26:56Z</time>
      </trkpt>
      <trkpt lat="45.50513" lon="6.69856">
        <ele>2104.9</ele>
        <time>2021-08-15T13:26:57Z</time>
      </trkpt>
      <trkpt lat="45.50514" lon="6.69856">
        <ele>2104.8</ele>
        <time>2021-08-15T13:26:58Z</time>
      </trkpt>
      <trkpt lat="45.50515" lon="6.69855">
        <ele>2104.7</ele>
        <time>2021-08-15T13:26:59Z</time>
      </trkpt>
      <trkpt lat="45.50516" lon="6.69855">
        <ele>2104.6</ele>
        <time>2021-08-15T13:27:00Z</time>
      </trkpt>
      <trkpt lat="45.50517" lon="6.69854">
        <ele>2104.6</ele>
        <time>2021-08-15T13:27:01Z</time>
      </trkpt>
      <trkpt lat="45.50518" lon="6.69854">
        <ele>2104.5</ele>
        <time>2021-08-15T13:27:02Z</time>
      </trkpt>
      <trkpt lat="45.50519" lon="6.69853">
        <ele>2104.4</ele>
        <time>2021-08-15T13:27:03Z</time>
      </trkpt>
      <trkpt lat="45.5052" lon="6.69852">
        <ele>2104.3</ele>
        <time>2021-08-15T13:27:04Z</time>
      </trkpt>
      <trkpt lat="45.5052" lon="6.69852">
        <ele>2104.2</ele>
        <time>2021-08-15T13:27:05Z</time>
      </trkpt>
      <trkpt lat="45.50521" lon="6.69851">
        <ele>2104.1</ele>
        <time>2021-08-15T13:27:06Z</time>
      </trkpt>
      <trkpt lat="45.50522" lon="6.69851">
        <ele>2104</ele>
        <time>2021-08-15T13:27:07Z</time>
      </trkpt>
      <trkpt lat="45.50523" lon="6.6985">
        <ele>2103.9</ele>
        <time>2021-08-15T13:27:08Z</time>
      </trkpt>
      <trkpt lat="45.50524" lon="6.6985">
        <ele>2103.8</ele>
        <time>2021-08-15T13:27:09Z</time>
      </trkpt>
      <trkpt lat="45.50525" lon="6.69849">
        <ele>2103.7</ele>
        <time>2021-08-15T13:27:10Z</time>
      </trkpt>
      <trkpt lat="45.50526" lon="6.69849">
        <ele>2103.6</ele>
        <time>2021-08-15T13:27:11Z</time>
      </trkpt>
      <trkpt lat="45.50527" lon="6.69848">
        <ele>2103.5</ele>
        <time>2021-08-15T13:27:12Z</time>
      </trkpt>
      <trkpt lat="45.50528" lon="6.69847">
        <ele>2103.4</ele>
        <time>2021-08-15T13:27:13Z</time>
      </trkpt>
      <trkpt lat="45.50528" lon="6.69847">
        <ele>2103.3</ele>
        <time>2021-08-15T13:27:14Z</time>
      </trkpt>
      <trkpt lat="45.50529" lon="6.69846">
        <ele>2103.2</ele>
        <time>2021-08-15T13:27:15Z</time>
      </trkpt>
      <trkpt lat="45.5053" lon="6.69846">
        <ele>2103.1</ele>
        <time>2021-08-15T13:27:16Z</time>
      </trkpt>
      <trkpt lat="45.50531" lon="6.69845">
        <ele>2103</ele>
        <time>2021-08-15T13:27:17Z</time>
      </trkpt>
      <trkpt lat="45.50532" lon="6.69845">
        <ele>2102.9</ele>
        <time>2021-08-15T13:27:18Z</time>
      </trkpt>
      <trkpt lat="45.50533" lon="6.69844">
        <ele>2102.8</ele>
        <time>2021-08-15T13:27:19Z</time>
      </trkpt>
      <trkpt lat="45.50534" lon="6.69844">
        <ele>2102.7</ele>
        <time>2021-08-15T13:27:20Z</time>
      </trkpt>
      <trkpt lat="45.50535" lon="6.69843">
        <ele>2102.6</ele>
        <time>2021-08-15T13:27:21Z</time>
      </trkpt>
      <trkpt lat="45.50535" lon="6.69843">
        <ele>2102.5</ele>
        <time>2021-08-15T13:27:22Z</time>
      </trkpt>
      <trkpt lat="45.50536" lon="6.69842">
        <ele>2102.3</ele>
        <time>2021-08-15T13:27:23Z</time>
      </trkpt>
      <trkpt lat="45.50537" lon="6.69842">
        <ele>2102.2</ele>
        <time>2021-08-15T13:27:24Z</time>
      </trkpt>
      <trkpt lat="45.50538" lon="6.69841">
        <ele>2102.1</ele>
        <time>2021-08-15T13:27:25Z</time>
      </trkpt>
      <trkpt lat="45.50539" lon="6.69841">
        <ele>2102</ele>
        <time>2021-08-15T13:27:26Z</time>
      </trkpt>
      <trkpt lat="45.5054" lon="6.6984">
        <ele>2101.9</ele>
        <time>2021-08-15T13:27:27Z</time>
      </trkpt>
      <trkpt lat="45.50541" lon="6.6984">
        <ele>2101.8</ele>
        <time>2021-08-15T13:27:28Z</time>
      </trkpt>
      <trkpt lat="45.50542" lon="6.6984">
        <ele>2101.6</ele>
        <time>2021-08-15T13:27:29Z</time>
      </trkpt>
      <trkpt lat="45.50543" lon="6.69839">
        <ele>2101.5</ele>
        <time>2021-08-15T13:27:30Z</time>
      </trkpt>
      <trkpt lat="45.50544" lon="6.69839">
        <ele>2101.4</ele>
        <time>2021-08-15T13:27:31Z</time>
      </trkpt>
      <trkpt lat="45.50544" lon="6.69839">
        <ele>2101.3</ele>
        <time>2021-08-15T13:27:32Z</time>
      </trkpt>
      <trkpt lat="45.50545" lon="6.69838">
        <ele>2101.2</ele>
        <time>2021-08-15T13:27:33Z</time>
      </trkpt>
      <trkpt lat="45.50546" lon="6.69838">
        <ele>2101.1</ele>
        <time>2021-08-15T13:27:34Z</time>
      </trkpt>
      <trkpt lat="45.50547" lon="6.69838">
        <ele>2101</ele>
        <time>2021-08-15T13:27:35Z</time>
      </trkpt>
      <trkpt lat="45.50548" lon="6.69837">
        <ele>2100.9</ele>
        <time>2021-08-15T13:27:36Z</time>
      </trkpt>
      <trkpt lat="45.50549" lon="6.69837">
        <ele>2100.8</ele>
        <time>2021-08-15T13:27:37Z</time>
      </trkpt>
      <trkpt lat="45.50549" lon="6.69837">
        <ele>2100.7</ele>
        <time>2021-08-15T13:27:38Z</time>
      </trkpt>
      <trkpt lat="45.5055" lon="6.69836">
        <ele>2100.6</ele>
        <time>2021-08-15T13:27:39Z</time>
      </trkpt>
      <trkpt lat="45.50551" lon="6.69836">
        <ele>2100.5</ele>
        <time>2021-08-15T13:27:40Z</time>
      </trkpt>
      <trkpt lat="45.50552" lon="6.69836">
        <ele>2100.4</ele>
        <time>2021-08-15T13:27:41Z</time>
      </trkpt>
      <trkpt lat="45.50552" lon="6.69835">
        <ele>2100.3</ele>
        <time>2021-08-15T13:27:42Z</time>
      </trkpt>
      <trkpt lat="45.50553" lon="6.69835">
        <ele>2100.2</ele>
        <time>2021-08-15T13:27:43Z</time>
      </trkpt>
      <trkpt lat="45.50554" lon="6.69835">
        <ele>2100.1</ele>
        <time>2021-08-15T13:27:44Z</time>
      </trkpt>
      <trkpt lat="45.50555" lon="6.69834">
        <ele>2100</ele>
        <time>2021-08-15T13:27:45Z</time>
      </trkpt>
      <trkpt lat="45.50555" lon="6.69834">
        <ele>2099.9</ele>
        <time>2021-08-15T13:27:46Z</time>
      </trkpt>
      <trkpt lat="45.50556" lon="6.69834">
        <ele>2099.8</ele>
        <time>2021-08-15T13:27:47Z</time>
      </trkpt>
      <trkpt lat="45.50557" lon="6.69833">
        <ele>2099.7</ele>
        <time>2021-08-15T13:27:48Z</time>
      </trkpt>
      <trkpt lat="45.50558" lon="6.69833">
        <ele>2099.6</ele>
        <time>2021-08-15T13:27:49Z</time>
      </trkpt>
      <trkpt lat="45.50559" lon="6.69833">
        <ele>2099.5</ele>
        <time>2021-08-15T13:27:50Z</time>
      </trkpt>
      <trkpt lat="45.50559" lon="6.69832">
        <ele>2099.5</ele>
        <time>2021-08-15T13:27:51Z</time>
      </trkpt>
      <trkpt lat="45.5056" lon="6.69832">
        <ele>2099.4</ele>
        <time>2021-08-15T13:27:52Z</time>
      </trkpt>
      <trkpt lat="45.50561" lon="6.69832">
        <ele>2099.3</ele>
        <time>2021-08-15T13:27:53Z</time>
      </trkpt>
      <trkpt lat="45.50562" lon="6.69831">
        <ele>2099.2</ele>
        <time>2021-08-15T13:27:54Z</time>
      </trkpt>
      <trkpt lat="45.50562" lon="6.69831">
        <ele>2099.1</ele>
        <time>2021-08-15T13:27:55Z</time>
      </trkpt>
      <trkpt lat="45.50563" lon="6.69831">
        <ele>2099</ele>
        <time>2021-08-15T13:27:56Z</time>
      </trkpt>
      <trkpt lat="45.50564" lon="6.6983">
        <ele>2098.9</ele>
        <time>2021-08-15T13:27:57Z</time>
      </trkpt>
      <trkpt lat="45.50565" lon="6.6983">
        <ele>2098.9</ele>
        <time>2021-08-15T13:27:58Z</time>
      </trkpt>
      <trkpt lat="45.50566" lon="6.69829">
        <ele>2098.8</ele>
        <time>2021-08-15T13:27:59Z</time>
      </trkpt>
      <trkpt lat="45.50566" lon="6.69829">
        <ele>2098.7</ele>
        <time>2021-08-15T13:28:00Z</time>
      </trkpt>
      <trkpt lat="45.50567" lon="6.69829">
        <ele>2098.6</ele>
        <time>2021-08-15T13:28:01Z</time>
      </trkpt>
      <trkpt lat="45.50568" lon="6.69828">
        <ele>2098.5</ele>
        <time>2021-08-15T13:28:02Z</time>
      </trkpt>
      <trkpt lat="45.50569" lon="6.69828">
        <ele>2098.5</ele>
        <time>2021-08-15T13:28:03Z</time>
      </trkpt>
      <trkpt lat="45.5057" lon="6.69828">
        <ele>2098.4</ele>
        <time>2021-08-15T13:28:04Z</time>
      </trkpt>
      <trkpt lat="45.5057" lon="6.69827">
        <ele>2098.3</ele>
        <time>2021-08-15T13:28:05Z</time>
      </trkpt>
      <trkpt lat="45.50571" lon="6.69827">
        <ele>2098.2</ele>
        <time>2021-08-15T13:28:06Z</time>
      </trkpt>
      <trkpt lat="45.50572" lon="6.69827">
        <ele>2098.2</ele>
        <time>2021-08-15T13:28:07Z</time>
      </trkpt>
      <trkpt lat="45.50573" lon="6.69826">
        <ele>2098.1</ele>
        <time>2021-08-15T13:28:08Z</time>
      </trkpt>
      <trkpt lat="45.50573" lon="6.69826">
        <ele>2098</ele>
        <time>2021-08-15T13:28:09Z</time>
      </trkpt>
      <trkpt lat="45.50574" lon="6.69826">
        <ele>2098</ele>
        <time>2021-08-15T13:28:10Z</time>
      </trkpt>
      <trkpt lat="45.50575" lon="6.69826">
        <ele>2097.9</ele>
        <time>2021-08-15T13:28:11Z</time>
      </trkpt>
      <trkpt lat="45.50575" lon="6.69826">
        <ele>2097.8</ele>
        <time>2021-08-15T13:28:12Z</time>
      </trkpt>
      <trkpt lat="45.50576" lon="6.69825">
        <ele>2097.8</ele>
        <time>2021-08-15T13:28:13Z</time>
      </trkpt>
      <trkpt lat="45.50577" lon="6.69825">
        <ele>2097.7</ele>
        <time>2021-08-15T13:28:14Z</time>
      </trkpt>
      <trkpt lat="45.50577" lon="6.69825">
        <ele>2097.6</ele>
        <time>2021-08-15T13:28:15Z</time>
      </trkpt>
      <trkpt lat="45.50578" lon="6.69825">
        <ele>2097.6</ele>
        <time>2021-08-15T13:28:16Z</time>
      </trkpt>
      <trkpt lat="45.50579" lon="6.69825">
        <ele>2097.5</ele>
        <time>2021-08-15T13:28:17Z</time>
      </trkpt>
      <trkpt lat="45.50579" lon="6.69825">
        <ele>2097.4</ele>
        <time>2021-08-15T13:28:18Z</time>
      </trkpt>
      <trkpt lat="45.5058" lon="6.69825">
        <ele>2097.4</ele>
        <time>2021-08-15T13:28:19Z</time>
      </trkpt>
      <trkpt lat="45.50581" lon="6.69825">
        <ele>2097.3</ele>
        <time>2021-08-15T13:28:20Z</time>
      </trkpt>
      <trkpt lat="45.50581" lon="6.69825">
        <ele>2097.2</ele>
        <time>2021-08-15T13:28:21Z</time>
      </trkpt>
      <trkpt lat="45.50582" lon="6.69824">
        <ele>2097.2</ele>
        <time>2021-08-15T13:28:22Z</time>
      </trkpt>
      <trkpt lat="45.50583" lon="6.69824">
        <ele>2097.1</ele>
        <time>2021-08-15T13:28:23Z</time>
      </trkpt>
      <trkpt lat="45.50584" lon="6.69824">
        <ele>2097</ele>
        <time>2021-08-15T13:28:24Z</time>
      </trkpt>
      <trkpt lat="45.50584" lon="6.69824">
        <ele>2096.9</ele>
        <time>2021-08-15T13:28:25Z</time>
      </trkpt>
      <trkpt lat="45.50585" lon="6.69824">
        <ele>2096.8</ele>
        <time>2021-08-15T13:28:26Z</time>
      </trkpt>
      <trkpt lat="45.50586" lon="6.69824">
        <ele>2096.7</ele>
        <time>2021-08-15T13:28:27Z</time>
      </trkpt>
      <trkpt lat="45.50587" lon="6.69824">
        <ele>2096.6</ele>
        <time>2021-08-15T13:28:28Z</time>
      </trkpt>
      <trkpt lat="45.50588" lon="6.69825">
        <ele>2096.5</ele>
        <time>2021-08-15T13:28:29Z</time>
      </trkpt>
      <trkpt lat="45.50589" lon="6.69825">
        <ele>2096.4</ele>
        <time>2021-08-15T13:28:30Z</time>
      </trkpt>
      <trkpt lat="45.5059" lon="6.69825">
        <ele>2096.3</ele>
        <time>2021-08-15T13:28:31Z</time>
      </trkpt>
      <trkpt lat="45.5059" lon="6.69825">
        <ele>2096.3</ele>
        <time>2021-08-15T13:28:32Z</time>
      </trkpt>
      <trkpt lat="45.5059" lon="6.69825">
        <ele>2096.2</ele>
        <time>2021-08-15T13:28:33Z</time>
      </trkpt>
      <trkpt lat="45.5059" lon="6.69826">
        <ele>2096.2</ele>
        <time>2021-08-15T13:28:34Z</time>
      </trkpt>
      <trkpt lat="45.5059" lon="6.69826">
        <ele>2096.2</ele>
        <time>2021-08-15T13:28:35Z</time>
      </trkpt>
      <trkpt lat="45.5059" lon="6.69826">
        <ele>2096.2</ele>
        <time>2021-08-15T13:28:36Z</time>
      </trkpt>
      <trkpt lat="45.50591" lon="6.69826">
        <ele>2096.2</ele>
        <time>2021-08-15T13:28:37Z</time>
      </trkpt>
      <trkpt lat="45.50591" lon="6.69826">
        <ele>2096.1</ele>
        <time>2021-08-15T13:28:38Z</time>
      </trkpt>
      <trkpt lat="45.50592" lon="6.69826">
        <ele>2096</ele>
        <time>2021-08-15T13:28:39Z</time>
      </trkpt>
      <trkpt lat="45.50593" lon="6.69826">
        <ele>2095.9</ele>
        <time>2021-08-15T13:28:40Z</time>
      </trkpt>
      <trkpt lat="45.50594" lon="6.69827">
        <ele>2095.8</ele>
        <time>2021-08-15T13:28:41Z</time>
      </trkpt>
      <trkpt lat="45.50595" lon="6.69827">
        <ele>2095.7</ele>
        <time>2021-08-15T13:28:42Z</time>
      </trkpt>
      <trkpt lat="45.50596" lon="6.69828">
        <ele>2095.5</ele>
        <time>2021-08-15T13:28:43Z</time>
      </trkpt>
      <trkpt lat="45.50597" lon="6.69828">
        <ele>2095.4</ele>
        <time>2021-08-15T13:28:44Z</time>
      </trkpt>
      <trkpt lat="45.50597" lon="6.69829">
        <ele>2095.3</ele>
        <time>2021-08-15T13:28:45Z</time>
      </trkpt>
      <trkpt lat="45.50598" lon="6.69829">
        <ele>2095.2</ele>
        <time>2021-08-15T13:28:46Z</time>
      </trkpt>
      <trkpt lat="45.50599" lon="6.6983">
        <ele>2095.1</ele>
        <time>2021-08-15T13:28:47Z</time>
      </trkpt>
      <trkpt lat="45.506" lon="6.69831">
        <ele>2095</ele>
        <time>2021-08-15T13:28:48Z</time>
      </trkpt>
      <trkpt lat="45.506" lon="6.69831">
        <ele>2094.8</ele>
        <time>2021-08-15T13:28:49Z</time>
      </trkpt>
      <trkpt lat="45.50601" lon="6.69832">
        <ele>2094.7</ele>
        <time>2021-08-15T13:28:50Z</time>
      </trkpt>
      <trkpt lat="45.50602" lon="6.69833">
        <ele>2094.6</ele>
        <time>2021-08-15T13:28:51Z</time>
      </trkpt>
      <trkpt lat="45.50602" lon="6.69834">
        <ele>2094.5</ele>
        <time>2021-08-15T13:28:52Z</time>
      </trkpt>
      <trkpt lat="45.50603" lon="6.69835">
        <ele>2094.4</ele>
        <time>2021-08-15T13:28:53Z</time>
      </trkpt>
      <trkpt lat="45.50603" lon="6.69836">
        <ele>2094.3</ele>
        <time>2021-08-15T13:28:54Z</time>
      </trkpt>
      <trkpt lat="45.50604" lon="6.69837">
        <ele>2094.2</ele>
        <time>2021-08-15T13:28:55Z</time>
      </trkpt>
      <trkpt lat="45.50604" lon="6.69838">
        <ele>2094.1</ele>
        <time>2021-08-15T13:28:56Z</time>
      </trkpt>
      <trkpt lat="45.50605" lon="6.69839">
        <ele>2094</ele>
        <time>2021-08-15T13:28:57Z</time>
      </trkpt>
      <trkpt lat="45.50605" lon="6.6984">
        <ele>2093.9</ele>
        <time>2021-08-15T13:28:58Z</time>
      </trkpt>
      <trkpt lat="45.50605" lon="6.6984">
        <ele>2093.8</ele>
        <time>2021-08-15T13:28:59Z</time>
      </trkpt>
      <trkpt lat="45.50606" lon="6.69841">
        <ele>2093.7</ele>
        <time>2021-08-15T13:29:00Z</time>
      </trkpt>
      <trkpt lat="45.50607" lon="6.69841">
        <ele>2093.6</ele>
        <time>2021-08-15T13:29:01Z</time>
      </trkpt>
      <trkpt lat="45.50607" lon="6.69842">
        <ele>2093.5</ele>
        <time>2021-08-15T13:29:02Z</time>
      </trkpt>
      <trkpt lat="45.50608" lon="6.69842">
        <ele>2093.5</ele>
        <time>2021-08-15T13:29:03Z</time>
      </trkpt>
      <trkpt lat="45.50608" lon="6.69843">
        <ele>2093.4</ele>
        <time>2021-08-15T13:29:04Z</time>
      </trkpt>
      <trkpt lat="45.50609" lon="6.69843">
        <ele>2093.3</ele>
        <time>2021-08-15T13:29:05Z</time>
      </trkpt>
      <trkpt lat="45.5061" lon="6.69843">
        <ele>2093.2</ele>
        <time>2021-08-15T13:29:06Z</time>
      </trkpt>
      <trkpt lat="45.5061" lon="6.69843">
        <ele>2093.1</ele>
        <time>2021-08-15T13:29:07Z</time>
      </trkpt>
      <trkpt lat="45.50611" lon="6.69844">
        <ele>2093</ele>
        <time>2021-08-15T13:29:08Z</time>
      </trkpt>
      <trkpt lat="45.50612" lon="6.69844">
        <ele>2092.9</ele>
        <time>2021-08-15T13:29:09Z</time>
      </trkpt>
      <trkpt lat="45.50612" lon="6.69845">
        <ele>2092.8</ele>
        <time>2021-08-15T13:29:10Z</time>
      </trkpt>
      <trkpt lat="45.50613" lon="6.69845">
        <ele>2092.7</ele>
        <time>2021-08-15T13:29:11Z</time>
      </trkpt>
      <trkpt lat="45.50614" lon="6.69846">
        <ele>2092.6</ele>
        <time>2021-08-15T13:29:12Z</time>
      </trkpt>
      <trkpt lat="45.50614" lon="6.69847">
        <ele>2092.5</ele>
        <time>2021-08-15T13:29:13Z</time>
      </trkpt>
      <trkpt lat="45.50615" lon="6.69848">
        <ele>2092.4</ele>
        <time>2021-08-15T13:29:14Z</time>
      </trkpt>
      <trkpt lat="45.50616" lon="6.69849">
        <ele>2092.3</ele>
        <time>2021-08-15T13:29:15Z</time>
      </trkpt>
      <trkpt lat="45.50616" lon="6.6985">
        <ele>2092.2</ele>
        <time>2021-08-15T13:29:16Z</time>
      </trkpt>
      <trkpt lat="45.50617" lon="6.69851">
        <ele>2092.1</ele>
        <time>2021-08-15T13:29:17Z</time>
      </trkpt>
      <trkpt lat="45.50617" lon="6.69852">
        <ele>2092</ele>
        <time>2021-08-15T13:29:18Z</time>
      </trkpt>
      <trkpt lat="45.50617" lon="6.69853">
        <ele>2091.9</ele>
        <time>2021-08-15T13:29:19Z</time>
      </trkpt>
      <trkpt lat="45.50617" lon="6.69853">
        <ele>2091.9</ele>
        <time>2021-08-15T13:29:20Z</time>
      </trkpt>
      <trkpt lat="45.50618" lon="6.69854">
        <ele>2091.8</ele>
        <time>2021-08-15T13:29:21Z</time>
      </trkpt>
      <trkpt lat="45.50618" lon="6.69855">
        <ele>2091.7</ele>
        <time>2021-08-15T13:29:22Z</time>
      </trkpt>
      <trkpt lat="45.50618" lon="6.69856">
        <ele>2091.7</ele>
        <time>2021-08-15T13:29:23Z</time>
      </trkpt>
      <trkpt lat="45.50617" lon="6.69857">
        <ele>2091.6</ele>
        <time>2021-08-15T13:29:24Z</time>
      </trkpt>
      <trkpt lat="45.50617" lon="6.69858">
        <ele>2091.5</ele>
        <time>2021-08-15T13:29:25Z</time>
      </trkpt>
      <trkpt lat="45.50617" lon="6.69859">
        <ele>2091.4</ele>
        <time>2021-08-15T13:29:26Z</time>
      </trkpt>
      <trkpt lat="45.50617" lon="6.6986">
        <ele>2091.3</ele>
        <time>2021-08-15T13:29:27Z</time>
      </trkpt>
      <trkpt lat="45.50616" lon="6.69861">
        <ele>2091.2</ele>
        <time>2021-08-15T13:29:28Z</time>
      </trkpt>
      <trkpt lat="45.50616" lon="6.69863">
        <ele>2091</ele>
        <time>2021-08-15T13:29:29Z</time>
      </trkpt>
      <trkpt lat="45.50615" lon="6.69864">
        <ele>2090.9</ele>
        <time>2021-08-15T13:29:30Z</time>
      </trkpt>
      <trkpt lat="45.50615" lon="6.69865">
        <ele>2090.8</ele>
        <time>2021-08-15T13:29:31Z</time>
      </trkpt>
      <trkpt lat="45.50615" lon="6.69867">
        <ele>2090.7</ele>
        <time>2021-08-15T13:29:32Z</time>
      </trkpt>
      <trkpt lat="45.50615" lon="6.69868">
        <ele>2090.5</ele>
        <time>2021-08-15T13:29:33Z</time>
      </trkpt>
      <trkpt lat="45.50614" lon="6.69869">
        <ele>2090.4</ele>
        <time>2021-08-15T13:29:34Z</time>
      </trkpt>
      <trkpt lat="45.50614" lon="6.69871">
        <ele>2090.3</ele>
        <time>2021-08-15T13:29:35Z</time>
      </trkpt>
      <trkpt lat="45.50614" lon="6.69872">
        <ele>2090.2</ele>
        <time>2021-08-15T13:29:36Z</time>
      </trkpt>
      <trkpt lat="45.50614" lon="6.69873">
        <ele>2090.1</ele>
        <time>2021-08-15T13:29:37Z</time>
      </trkpt>
      <trkpt lat="45.50613" lon="6.69875">
        <ele>2090</ele>
        <time>2021-08-15T13:29:38Z</time>
      </trkpt>
      <trkpt lat="45.50613" lon="6.69876">
        <ele>2089.9</ele>
        <time>2021-08-15T13:29:39Z</time>
      </trkpt>
      <trkpt lat="45.50613" lon="6.69877">
        <ele>2089.8</ele>
        <time>2021-08-15T13:29:40Z</time>
      </trkpt>
      <trkpt lat="45.50612" lon="6.69879">
        <ele>2089.7</ele>
        <time>2021-08-15T13:29:41Z</time>
      </trkpt>
      <trkpt lat="45.50612" lon="6.6988">
        <ele>2089.6</ele>
        <time>2021-08-15T13:29:42Z</time>
      </trkpt>
      <trkpt lat="45.50611" lon="6.69881">
        <ele>2089.5</ele>
        <time>2021-08-15T13:29:43Z</time>
      </trkpt>
      <trkpt lat="45.50611" lon="6.69882">
        <ele>2089.4</ele>
        <time>2021-08-15T13:29:44Z</time>
      </trkpt>
      <trkpt lat="45.5061" lon="6.69883">
        <ele>2089.3</ele>
        <time>2021-08-15T13:29:45Z</time>
      </trkpt>
      <trkpt lat="45.50609" lon="6.69884">
        <ele>2089.1</ele>
        <time>2021-08-15T13:29:46Z</time>
      </trkpt>
      <trkpt lat="45.50609" lon="6.69885">
        <ele>2089</ele>
        <time>2021-08-15T13:29:47Z</time>
      </trkpt>
      <trkpt lat="45.50608" lon="6.69886">
        <ele>2088.9</ele>
        <time>2021-08-15T13:29:48Z</time>
      </trkpt>
      <trkpt lat="45.50607" lon="6.69886">
        <ele>2088.8</ele>
        <time>2021-08-15T13:29:49Z</time>
      </trkpt>
      <trkpt lat="45.50606" lon="6.69887">
        <ele>2088.6</ele>
        <time>2021-08-15T13:29:50Z</time>
      </trkpt>
      <trkpt lat="45.50606" lon="6.69887">
        <ele>2088.5</ele>
        <time>2021-08-15T13:29:51Z</time>
      </trkpt>
      <trkpt lat="45.50605" lon="6.69888">
        <ele>2088.4</ele>
        <time>2021-08-15T13:29:52Z</time>
      </trkpt>
      <trkpt lat="45.50604" lon="6.69888">
        <ele>2088.3</ele>
        <time>2021-08-15T13:29:53Z</time>
      </trkpt>
      <trkpt lat="45.50603" lon="6.69888">
        <ele>2088.2</ele>
        <time>2021-08-15T13:29:54Z</time>
      </trkpt>
      <trkpt lat="45.50603" lon="6.69888">
        <ele>2088.1</ele>
        <time>2021-08-15T13:29:55Z</time>
      </trkpt>
      <trkpt lat="45.50602" lon="6.69889">
        <ele>2088</ele>
        <time>2021-08-15T13:29:56Z</time>
      </trkpt>
      <trkpt lat="45.50601" lon="6.69889">
        <ele>2087.9</ele>
        <time>2021-08-15T13:29:57Z</time>
      </trkpt>
      <trkpt lat="45.506" lon="6.69889">
        <ele>2087.8</ele>
        <time>2021-08-15T13:29:58Z</time>
      </trkpt>
      <trkpt lat="45.506" lon="6.69889">
        <ele>2087.7</ele>
        <time>2021-08-15T13:29:59Z</time>
      </trkpt>
      <trkpt lat="45.50599" lon="6.6989">
        <ele>2087.6</ele>
        <time>2021-08-15T13:30:00Z</time>
      </trkpt>
      <trkpt lat="45.50598" lon="6.6989">
        <ele>2087.5</ele>
        <time>2021-08-15T13:30:01Z</time>
      </trkpt>
      <trkpt lat="45.50598" lon="6.69891">
        <ele>2087.4</ele>
        <time>2021-08-15T13:30:02Z</time>
      </trkpt>
      <trkpt lat="45.50597" lon="6.69892">
        <ele>2087.2</ele>
        <time>2021-08-15T13:30:03Z</time>
      </trkpt>
      <trkpt lat="45.50596" lon="6.69893">
        <ele>2087.1</ele>
        <time>2021-08-15T13:30:04Z</time>
      </trkpt>
      <trkpt lat="45.50596" lon="6.69893">
        <ele>2087</ele>
        <time>2021-08-15T13:30:05Z</time>
      </trkpt>
      <trkpt lat="45.50596" lon="6.69894">
        <ele>2087</ele>
        <time>2021-08-15T13:30:06Z</time>
      </trkpt>
      <trkpt lat="45.50595" lon="6.69894">
        <ele>2086.9</ele>
        <time>2021-08-15T13:30:07Z</time>
      </trkpt>
      <trkpt lat="45.50595" lon="6.69894">
        <ele>2086.9</ele>
        <time>2021-08-15T13:30:08Z</time>
      </trkpt>
      <trkpt lat="45.50595" lon="6.69893">
        <ele>2086.9</ele>
        <time>2021-08-15T13:30:09Z</time>
      </trkpt>
      <trkpt lat="45.50595" lon="6.69893">
        <ele>2086.9</ele>
        <time>2021-08-15T13:30:10Z</time>
      </trkpt>
      <trkpt lat="45.50595" lon="6.69893">
        <ele>2086.8</ele>
        <time>2021-08-15T13:30:11Z</time>
      </trkpt>
      <trkpt lat="45.50595" lon="6.69894">
        <ele>2086.8</ele>
        <time>2021-08-15T13:30:12Z</time>
      </trkpt>
      <trkpt lat="45.50594" lon="6.69894">
        <ele>2086.7</ele>
        <time>2021-08-15T13:30:13Z</time>
      </trkpt>
      <trkpt lat="45.50594" lon="6.69894">
        <ele>2086.6</ele>
        <time>2021-08-15T13:30:14Z</time>
      </trkpt>
      <trkpt lat="45.50593" lon="6.69895">
        <ele>2086.5</ele>
        <time>2021-08-15T13:30:15Z</time>
      </trkpt>
      <trkpt lat="45.50592" lon="6.69896">
        <ele>2086.4</ele>
        <time>2021-08-15T13:30:16Z</time>
      </trkpt>
      <trkpt lat="45.50592" lon="6.69897">
        <ele>2086.3</ele>
        <time>2021-08-15T13:30:17Z</time>
      </trkpt>
      <trkpt lat="45.50591" lon="6.69898">
        <ele>2086.2</ele>
        <time>2021-08-15T13:30:18Z</time>
      </trkpt>
      <trkpt lat="45.50591" lon="6.69899">
        <ele>2086.1</ele>
        <time>2021-08-15T13:30:19Z</time>
      </trkpt>
      <trkpt lat="45.5059" lon="6.699">
        <ele>2086</ele>
        <time>2021-08-15T13:30:20Z</time>
      </trkpt>
      <trkpt lat="45.5059" lon="6.69901">
        <ele>2085.8</ele>
        <time>2021-08-15T13:30:21Z</time>
      </trkpt>
      <trkpt lat="45.50589" lon="6.69902">
        <ele>2085.7</ele>
        <time>2021-08-15T13:30:22Z</time>
      </trkpt>
      <trkpt lat="45.50589" lon="6.69903">
        <ele>2085.6</ele>
        <time>2021-08-15T13:30:23Z</time>
      </trkpt>
      <trkpt lat="45.50588" lon="6.69904">
        <ele>2085.5</ele>
        <time>2021-08-15T13:30:24Z</time>
      </trkpt>
      <trkpt lat="45.50588" lon="6.69905">
        <ele>2085.4</ele>
        <time>2021-08-15T13:30:25Z</time>
      </trkpt>
      <trkpt lat="45.50588" lon="6.69906">
        <ele>2085.3</ele>
        <time>2021-08-15T13:30:26Z</time>
      </trkpt>
      <trkpt lat="45.50587" lon="6.69907">
        <ele>2085.2</ele>
        <time>2021-08-15T13:30:27Z</time>
      </trkpt>
      <trkpt lat="45.50587" lon="6.69908">
        <ele>2085.1</ele>
        <time>2021-08-15T13:30:28Z</time>
      </trkpt>
      <trkpt lat="45.50587" lon="6.69909">
        <ele>2085.1</ele>
        <time>2021-08-15T13:30:29Z</time>
      </trkpt>
      <trkpt lat="45.50587" lon="6.6991">
        <ele>2085</ele>
        <time>2021-08-15T13:30:30Z</time>
      </trkpt>
      <trkpt lat="45.50586" lon="6.69911">
        <ele>2084.9</ele>
        <time>2021-08-15T13:30:31Z</time>
      </trkpt>
      <trkpt lat="45.50586" lon="6.69912">
        <ele>2084.8</ele>
        <time>2021-08-15T13:30:32Z</time>
      </trkpt>
      <trkpt lat="45.50586" lon="6.69913">
        <ele>2084.7</ele>
        <time>2021-08-15T13:30:33Z</time>
      </trkpt>
      <trkpt lat="45.50586" lon="6.69915">
        <ele>2084.6</ele>
        <time>2021-08-15T13:30:34Z</time>
      </trkpt>
      <trkpt lat="45.50585" lon="6.69916">
        <ele>2084.6</ele>
        <time>2021-08-15T13:30:35Z</time>
      </trkpt>
      <trkpt lat="45.50585" lon="6.69917">
        <ele>2084.5</ele>
        <time>2021-08-15T13:30:36Z</time>
      </trkpt>
      <trkpt lat="45.50585" lon="6.69918">
        <ele>2084.4</ele>
        <time>2021-08-15T13:30:37Z</time>
      </trkpt>
      <trkpt lat="45.50585" lon="6.69919">
        <ele>2084.3</ele>
        <time>2021-08-15T13:30:38Z</time>
      </trkpt>
      <trkpt lat="45.50585" lon="6.6992">
        <ele>2084.2</ele>
        <time>2021-08-15T13:30:39Z</time>
      </trkpt>
      <trkpt lat="45.50585" lon="6.69921">
        <ele>2084.2</ele>
        <time>2021-08-15T13:30:40Z</time>
      </trkpt>
      <trkpt lat="45.50585" lon="6.69922">
        <ele>2084.1</ele>
        <time>2021-08-15T13:30:41Z</time>
      </trkpt>
      <trkpt lat="45.50585" lon="6.69923">
        <ele>2084</ele>
        <time>2021-08-15T13:30:42Z</time>
      </trkpt>
      <trkpt lat="45.50585" lon="6.69924">
        <ele>2083.9</ele>
        <time>2021-08-15T13:30:43Z</time>
      </trkpt>
      <trkpt lat="45.50586" lon="6.69926">
        <ele>2083.8</ele>
        <time>2021-08-15T13:30:44Z</time>
      </trkpt>
      <trkpt lat="45.50586" lon="6.69927">
        <ele>2083.8</ele>
        <time>2021-08-15T13:30:45Z</time>
      </trkpt>
      <trkpt lat="45.50586" lon="6.69928">
        <ele>2083.7</ele>
        <time>2021-08-15T13:30:46Z</time>
      </trkpt>
      <trkpt lat="45.50586" lon="6.69929">
        <ele>2083.6</ele>
        <time>2021-08-15T13:30:47Z</time>
      </trkpt>
      <trkpt lat="45.50586" lon="6.6993">
        <ele>2083.5</ele>
        <time>2021-08-15T13:30:48Z</time>
      </trkpt>
      <trkpt lat="45.50587" lon="6.69931">
        <ele>2083.4</ele>
        <time>2021-08-15T13:30:49Z</time>
      </trkpt>
      <trkpt lat="45.50587" lon="6.69932">
        <ele>2083.4</ele>
        <time>2021-08-15T13:30:50Z</time>
      </trkpt>
      <trkpt lat="45.50587" lon="6.69933">
        <ele>2083.3</ele>
        <time>2021-08-15T13:30:51Z</time>
      </trkpt>
      <trkpt lat="45.50587" lon="6.69934">
        <ele>2083.2</ele>
        <time>2021-08-15T13:30:52Z</time>
      </trkpt>
      <trkpt lat="45.50587" lon="6.69935">
        <ele>2083.1</ele>
        <time>2021-08-15T13:30:53Z</time>
      </trkpt>
      <trkpt lat="45.50587" lon="6.69936">
        <ele>2083</ele>
        <time>2021-08-15T13:30:54Z</time>
      </trkpt>
      <trkpt lat="45.50587" lon="6.69937">
        <ele>2082.9</ele>
        <time>2021-08-15T13:30:55Z</time>
      </trkpt>
      <trkpt lat="45.50587" lon="6.69939">
        <ele>2082.8</ele>
        <time>2021-08-15T13:30:56Z</time>
      </trkpt>
      <trkpt lat="45.50587" lon="6.6994">
        <ele>2082.7</ele>
        <time>2021-08-15T13:30:57Z</time>
      </trkpt>
      <trkpt lat="45.50587" lon="6.6994">
        <ele>2082.6</ele>
        <time>2021-08-15T13:30:58Z</time>
      </trkpt>
      <trkpt lat="45.50587" lon="6.69941">
        <ele>2082.5</ele>
        <time>2021-08-15T13:30:59Z</time>
      </trkpt>
      <trkpt lat="45.50587" lon="6.69942">
        <ele>2082.5</ele>
        <time>2021-08-15T13:31:00Z</time>
      </trkpt>
      <trkpt lat="45.50587" lon="6.69943">
        <ele>2082.4</ele>
        <time>2021-08-15T13:31:01Z</time>
      </trkpt>
      <trkpt lat="45.50587" lon="6.69944">
        <ele>2082.3</ele>
        <time>2021-08-15T13:31:02Z</time>
      </trkpt>
      <trkpt lat="45.50587" lon="6.69945">
        <ele>2082.2</ele>
        <time>2021-08-15T13:31:03Z</time>
      </trkpt>
      <trkpt lat="45.50586" lon="6.69946">
        <ele>2082.1</ele>
        <time>2021-08-15T13:31:04Z</time>
      </trkpt>
      <trkpt lat="45.50586" lon="6.69946">
        <ele>2082</ele>
        <time>2021-08-15T13:31:05Z</time>
      </trkpt>
      <trkpt lat="45.50586" lon="6.69947">
        <ele>2082</ele>
        <time>2021-08-15T13:31:06Z</time>
      </trkpt>
      <trkpt lat="45.50585" lon="6.69948">
        <ele>2081.9</ele>
        <time>2021-08-15T13:31:07Z</time>
      </trkpt>
      <trkpt lat="45.50585" lon="6.69948">
        <ele>2081.8</ele>
        <time>2021-08-15T13:31:08Z</time>
      </trkpt>
      <trkpt lat="45.50584" lon="6.69949">
        <ele>2081.7</ele>
        <time>2021-08-15T13:31:09Z</time>
      </trkpt>
      <trkpt lat="45.50584" lon="6.6995">
        <ele>2081.6</ele>
        <time>2021-08-15T13:31:10Z</time>
      </trkpt>
      <trkpt lat="45.50583" lon="6.6995">
        <ele>2081.5</ele>
        <time>2021-08-15T13:31:11Z</time>
      </trkpt>
      <trkpt lat="45.50582" lon="6.6995">
        <ele>2081.4</ele>
        <time>2021-08-15T13:31:12Z</time>
      </trkpt>
      <trkpt lat="45.50582" lon="6.69951">
        <ele>2081.4</ele>
        <time>2021-08-15T13:31:13Z</time>
      </trkpt>
      <trkpt lat="45.50581" lon="6.69951">
        <ele>2081.3</ele>
        <time>2021-08-15T13:31:14Z</time>
      </trkpt>
      <trkpt lat="45.50581" lon="6.69952">
        <ele>2081.2</ele>
        <time>2021-08-15T13:31:15Z</time>
      </trkpt>
      <trkpt lat="45.5058" lon="6.69952">
        <ele>2081.1</ele>
        <time>2021-08-15T13:31:16Z</time>
      </trkpt>
      <trkpt lat="45.50579" lon="6.69952">
        <ele>2081</ele>
        <time>2021-08-15T13:31:17Z</time>
      </trkpt>
      <trkpt lat="45.50579" lon="6.69953">
        <ele>2080.9</ele>
        <time>2021-08-15T13:31:18Z</time>
      </trkpt>
      <trkpt lat="45.50578" lon="6.69954">
        <ele>2080.8</ele>
        <time>2021-08-15T13:31:19Z</time>
      </trkpt>
      <trkpt lat="45.50578" lon="6.69954">
        <ele>2080.7</ele>
        <time>2021-08-15T13:31:20Z</time>
      </trkpt>
      <trkpt lat="45.50577" lon="6.69955">
        <ele>2080.7</ele>
        <time>2021-08-15T13:31:21Z</time>
      </trkpt>
      <trkpt lat="45.50577" lon="6.69956">
        <ele>2080.6</ele>
        <time>2021-08-15T13:31:22Z</time>
      </trkpt>
      <trkpt lat="45.50577" lon="6.69957">
        <ele>2080.5</ele>
        <time>2021-08-15T13:31:23Z</time>
      </trkpt>
      <trkpt lat="45.50577" lon="6.69958">
        <ele>2080.4</ele>
        <time>2021-08-15T13:31:24Z</time>
      </trkpt>
      <trkpt lat="45.50576" lon="6.69959">
        <ele>2080.3</ele>
        <time>2021-08-15T13:31:25Z</time>
      </trkpt>
      <trkpt lat="45.50576" lon="6.6996">
        <ele>2080.3</ele>
        <time>2021-08-15T13:31:26Z</time>
      </trkpt>
      <trkpt lat="45.50576" lon="6.69961">
        <ele>2080.2</ele>
        <time>2021-08-15T13:31:27Z</time>
      </trkpt>
      <trkpt lat="45.50576" lon="6.69962">
        <ele>2080.1</ele>
        <time>2021-08-15T13:31:28Z</time>
      </trkpt>
      <trkpt lat="45.50576" lon="6.69963">
        <ele>2080</ele>
        <time>2021-08-15T13:31:29Z</time>
      </trkpt>
      <trkpt lat="45.50576" lon="6.69965">
        <ele>2079.9</ele>
        <time>2021-08-15T13:31:30Z</time>
      </trkpt>
      <trkpt lat="45.50576" lon="6.69966">
        <ele>2079.9</ele>
        <time>2021-08-15T13:31:31Z</time>
      </trkpt>
      <trkpt lat="45.50577" lon="6.69967">
        <ele>2079.8</ele>
        <time>2021-08-15T13:31:32Z</time>
      </trkpt>
      <trkpt lat="45.50577" lon="6.69968">
        <ele>2079.7</ele>
        <time>2021-08-15T13:31:33Z</time>
      </trkpt>
      <trkpt lat="45.50577" lon="6.69969">
        <ele>2079.6</ele>
        <time>2021-08-15T13:31:34Z</time>
      </trkpt>
      <trkpt lat="45.50577" lon="6.6997">
        <ele>2079.6</ele>
        <time>2021-08-15T13:31:35Z</time>
      </trkpt>
      <trkpt lat="45.50577" lon="6.69972">
        <ele>2079.5</ele>
        <time>2021-08-15T13:31:36Z</time>
      </trkpt>
      <trkpt lat="45.50577" lon="6.69973">
        <ele>2079.5</ele>
        <time>2021-08-15T13:31:37Z</time>
      </trkpt>
      <trkpt lat="45.50577" lon="6.69974">
        <ele>2079.4</ele>
        <time>2021-08-15T13:31:38Z</time>
      </trkpt>
      <trkpt lat="45.50578" lon="6.69975">
        <ele>2079.3</ele>
        <time>2021-08-15T13:31:39Z</time>
      </trkpt>
      <trkpt lat="45.50578" lon="6.69976">
        <ele>2079.3</ele>
        <time>2021-08-15T13:31:40Z</time>
      </trkpt>
      <trkpt lat="45.50578" lon="6.69977">
        <ele>2079.2</ele>
        <time>2021-08-15T13:31:41Z</time>
      </trkpt>
      <trkpt lat="45.50578" lon="6.69978">
        <ele>2079.1</ele>
        <time>2021-08-15T13:31:42Z</time>
      </trkpt>
      <trkpt lat="45.50578" lon="6.69979">
        <ele>2079.1</ele>
        <time>2021-08-15T13:31:43Z</time>
      </trkpt>
      <trkpt lat="45.50579" lon="6.6998">
        <ele>2079</ele>
        <time>2021-08-15T13:31:44Z</time>
      </trkpt>
      <trkpt lat="45.50579" lon="6.69981">
        <ele>2079</ele>
        <time>2021-08-15T13:31:45Z</time>
      </trkpt>
      <trkpt lat="45.50579" lon="6.69983">
        <ele>2078.9</ele>
        <time>2021-08-15T13:31:46Z</time>
      </trkpt>
      <trkpt lat="45.50579" lon="6.69984">
        <ele>2078.8</ele>
        <time>2021-08-15T13:31:47Z</time>
      </trkpt>
      <trkpt lat="45.5058" lon="6.69985">
        <ele>2078.8</ele>
        <time>2021-08-15T13:31:48Z</time>
      </trkpt>
      <trkpt lat="45.5058" lon="6.69986">
        <ele>2078.7</ele>
        <time>2021-08-15T13:31:49Z</time>
      </trkpt>
      <trkpt lat="45.5058" lon="6.69987">
        <ele>2078.7</ele>
        <time>2021-08-15T13:31:50Z</time>
      </trkpt>
      <trkpt lat="45.5058" lon="6.69988">
        <ele>2078.6</ele>
        <time>2021-08-15T13:31:51Z</time>
      </trkpt>
      <trkpt lat="45.5058" lon="6.69989">
        <ele>2078.5</ele>
        <time>2021-08-15T13:31:52Z</time>
      </trkpt>
      <trkpt lat="45.50581" lon="6.6999">
        <ele>2078.5</ele>
        <time>2021-08-15T13:31:53Z</time>
      </trkpt>
      <trkpt lat="45.50581" lon="6.69991">
        <ele>2078.4</ele>
        <time>2021-08-15T13:31:54Z</time>
      </trkpt>
      <trkpt lat="45.50581" lon="6.69992">
        <ele>2078.4</ele>
        <time>2021-08-15T13:31:55Z</time>
      </trkpt>
      <trkpt lat="45.50581" lon="6.69993">
        <ele>2078.3</ele>
        <time>2021-08-15T13:31:56Z</time>
      </trkpt>
      <trkpt lat="45.50581" lon="6.69994">
        <ele>2078.3</ele>
        <time>2021-08-15T13:31:57Z</time>
      </trkpt>
      <trkpt lat="45.50582" lon="6.69995">
        <ele>2078.2</ele>
        <time>2021-08-15T13:31:58Z</time>
      </trkpt>
      <trkpt lat="45.50582" lon="6.69996">
        <ele>2078.1</ele>
        <time>2021-08-15T13:31:59Z</time>
      </trkpt>
      <trkpt lat="45.50582" lon="6.69997">
        <ele>2078.1</ele>
        <time>2021-08-15T13:32:00Z</time>
      </trkpt>
      <trkpt lat="45.50582" lon="6.69998">
        <ele>2078</ele>
        <time>2021-08-15T13:32:01Z</time>
      </trkpt>
      <trkpt lat="45.50582" lon="6.69999">
        <ele>2078</ele>
        <time>2021-08-15T13:32:02Z</time>
      </trkpt>
      <trkpt lat="45.50582" lon="6.7">
        <ele>2077.9</ele>
        <time>2021-08-15T13:32:03Z</time>
      </trkpt>
      <trkpt lat="45.50583" lon="6.70001">
        <ele>2077.9</ele>
        <time>2021-08-15T13:32:04Z</time>
      </trkpt>
      <trkpt lat="45.50583" lon="6.70002">
        <ele>2077.8</ele>
        <time>2021-08-15T13:32:05Z</time>
      </trkpt>
      <trkpt lat="45.50583" lon="6.70003">
        <ele>2077.8</ele>
        <time>2021-08-15T13:32:06Z</time>
      </trkpt>
      <trkpt lat="45.50583" lon="6.70004">
        <ele>2077.7</ele>
        <time>2021-08-15T13:32:07Z</time>
      </trkpt>
      <trkpt lat="45.50583" lon="6.70005">
        <ele>2077.6</ele>
        <time>2021-08-15T13:32:08Z</time>
      </trkpt>
      <trkpt lat="45.50583" lon="6.70006">
        <ele>2077.6</ele>
        <time>2021-08-15T13:32:09Z</time>
      </trkpt>
      <trkpt lat="45.50583" lon="6.70007">
        <ele>2077.5</ele>
        <time>2021-08-15T13:32:10Z</time>
      </trkpt>
      <trkpt lat="45.50584" lon="6.70008">
        <ele>2077.5</ele>
        <time>2021-08-15T13:32:11Z</time>
      </trkpt>
      <trkpt lat="45.50584" lon="6.70009">
        <ele>2077.4</ele>
        <time>2021-08-15T13:32:12Z</time>
      </trkpt>
      <trkpt lat="45.50584" lon="6.70011">
        <ele>2077.3</ele>
        <time>2021-08-15T13:32:13Z</time>
      </trkpt>
      <trkpt lat="45.50584" lon="6.70012">
        <ele>2077.3</ele>
        <time>2021-08-15T13:32:14Z</time>
      </trkpt>
      <trkpt lat="45.50584" lon="6.70013">
        <ele>2077.2</ele>
        <time>2021-08-15T13:32:15Z</time>
      </trkpt>
      <trkpt lat="45.50584" lon="6.70014">
        <ele>2077.2</ele>
        <time>2021-08-15T13:32:16Z</time>
      </trkpt>
      <trkpt lat="45.50584" lon="6.70015">
        <ele>2077.1</ele>
        <time>2021-08-15T13:32:17Z</time>
      </trkpt>
      <trkpt lat="45.50584" lon="6.70017">
        <ele>2077.1</ele>
        <time>2021-08-15T13:32:18Z</time>
      </trkpt>
      <trkpt lat="45.50584" lon="6.70018">
        <ele>2077</ele>
        <time>2021-08-15T13:32:19Z</time>
      </trkpt>
      <trkpt lat="45.50583" lon="6.70019">
        <ele>2076.9</ele>
        <time>2021-08-15T13:32:20Z</time>
      </trkpt>
      <trkpt lat="45.50583" lon="6.7002">
        <ele>2076.9</ele>
        <time>2021-08-15T13:32:21Z</time>
      </trkpt>
      <trkpt lat="45.50583" lon="6.70021">
        <ele>2076.8</ele>
        <time>2021-08-15T13:32:22Z</time>
      </trkpt>
      <trkpt lat="45.50582" lon="6.70022">
        <ele>2076.8</ele>
        <time>2021-08-15T13:32:23Z</time>
      </trkpt>
      <trkpt lat="45.50582" lon="6.70023">
        <ele>2076.7</ele>
        <time>2021-08-15T13:32:24Z</time>
      </trkpt>
      <trkpt lat="45.50581" lon="6.70024">
        <ele>2076.6</ele>
        <time>2021-08-15T13:32:25Z</time>
      </trkpt>
      <trkpt lat="45.50581" lon="6.70026">
        <ele>2076.6</ele>
        <time>2021-08-15T13:32:26Z</time>
      </trkpt>
      <trkpt lat="45.5058" lon="6.70027">
        <ele>2076.5</ele>
        <time>2021-08-15T13:32:27Z</time>
      </trkpt>
      <trkpt lat="45.5058" lon="6.70028">
        <ele>2076.4</ele>
        <time>2021-08-15T13:32:28Z</time>
      </trkpt>
      <trkpt lat="45.50579" lon="6.70029">
        <ele>2076.4</ele>
        <time>2021-08-15T13:32:29Z</time>
      </trkpt>
      <trkpt lat="45.50579" lon="6.7003">
        <ele>2076.3</ele>
        <time>2021-08-15T13:32:30Z</time>
      </trkpt>
      <trkpt lat="45.50579" lon="6.70031">
        <ele>2076.3</ele>
        <time>2021-08-15T13:32:31Z</time>
      </trkpt>
      <trkpt lat="45.50578" lon="6.70032">
        <ele>2076.2</ele>
        <time>2021-08-15T13:32:32Z</time>
      </trkpt>
      <trkpt lat="45.50578" lon="6.70033">
        <ele>2076.1</ele>
        <time>2021-08-15T13:32:33Z</time>
      </trkpt>
      <trkpt lat="45.50577" lon="6.70034">
        <ele>2076.1</ele>
        <time>2021-08-15T13:32:34Z</time>
      </trkpt>
      <trkpt lat="45.50577" lon="6.70035">
        <ele>2076</ele>
        <time>2021-08-15T13:32:35Z</time>
      </trkpt>
      <trkpt lat="45.50577" lon="6.70037">
        <ele>2076</ele>
        <time>2021-08-15T13:32:36Z</time>
      </trkpt>
      <trkpt lat="45.50576" lon="6.70038">
        <ele>2075.9</ele>
        <time>2021-08-15T13:32:37Z</time>
      </trkpt>
      <trkpt lat="45.50576" lon="6.70039">
        <ele>2075.8</ele>
        <time>2021-08-15T13:32:38Z</time>
      </trkpt>
      <trkpt lat="45.50576" lon="6.7004">
        <ele>2075.8</ele>
        <time>2021-08-15T13:32:39Z</time>
      </trkpt>
      <trkpt lat="45.50575" lon="6.70041">
        <ele>2075.7</ele>
        <time>2021-08-15T13:32:40Z</time>
      </trkpt>
      <trkpt lat="45.50575" lon="6.70042">
        <ele>2075.7</ele>
        <time>2021-08-15T13:32:41Z</time>
      </trkpt>
      <trkpt lat="45.50575" lon="6.70043">
        <ele>2075.6</ele>
        <time>2021-08-15T13:32:42Z</time>
      </trkpt>
      <trkpt lat="45.50574" lon="6.70044">
        <ele>2075.6</ele>
        <time>2021-08-15T13:32:43Z</time>
      </trkpt>
      <trkpt lat="45.50574" lon="6.70045">
        <ele>2075.5</ele>
        <time>2021-08-15T13:32:44Z</time>
      </trkpt>
      <trkpt lat="45.50574" lon="6.70046">
        <ele>2075.4</ele>
        <time>2021-08-15T13:32:45Z</time>
      </trkpt>
      <trkpt lat="45.50574" lon="6.70047">
        <ele>2075.4</ele>
        <time>2021-08-15T13:32:46Z</time>
      </trkpt>
      <trkpt lat="45.50573" lon="6.70049">
        <ele>2075.3</ele>
        <time>2021-08-15T13:32:47Z</time>
      </trkpt>
      <trkpt lat="45.50573" lon="6.7005">
        <ele>2075.2</ele>
        <time>2021-08-15T13:32:48Z</time>
      </trkpt>
      <trkpt lat="45.50573" lon="6.70051">
        <ele>2075.1</ele>
        <time>2021-08-15T13:32:49Z</time>
      </trkpt>
      <trkpt lat="45.50572" lon="6.70052">
        <ele>2075.1</ele>
        <time>2021-08-15T13:32:50Z</time>
      </trkpt>
      <trkpt lat="45.50572" lon="6.70053">
        <ele>2075</ele>
        <time>2021-08-15T13:32:51Z</time>
      </trkpt>
      <trkpt lat="45.50572" lon="6.70054">
        <ele>2074.9</ele>
        <time>2021-08-15T13:32:52Z</time>
      </trkpt>
      <trkpt lat="45.50572" lon="6.70055">
        <ele>2074.9</ele>
        <time>2021-08-15T13:32:53Z</time>
      </trkpt>
      <trkpt lat="45.50571" lon="6.70056">
        <ele>2074.8</ele>
        <time>2021-08-15T13:32:54Z</time>
      </trkpt>
      <trkpt lat="45.50571" lon="6.70057">
        <ele>2074.7</ele>
        <time>2021-08-15T13:32:55Z</time>
      </trkpt>
      <trkpt lat="45.50571" lon="6.70058">
        <ele>2074.7</ele>
        <time>2021-08-15T13:32:56Z</time>
      </trkpt>
      <trkpt lat="45.5057" lon="6.7006">
        <ele>2074.6</ele>
        <time>2021-08-15T13:32:57Z</time>
      </trkpt>
      <trkpt lat="45.5057" lon="6.70061">
        <ele>2074.5</ele>
        <time>2021-08-15T13:32:58Z</time>
      </trkpt>
      <trkpt lat="45.5057" lon="6.70062">
        <ele>2074.4</ele>
        <time>2021-08-15T13:32:59Z</time>
      </trkpt>
      <trkpt lat="45.5057" lon="6.70063">
        <ele>2074.4</ele>
        <time>2021-08-15T13:33:00Z</time>
      </trkpt>
      <trkpt lat="45.50569" lon="6.70064">
        <ele>2074.3</ele>
        <time>2021-08-15T13:33:01Z</time>
      </trkpt>
      <trkpt lat="45.50569" lon="6.70065">
        <ele>2074.2</ele>
        <time>2021-08-15T13:33:02Z</time>
      </trkpt>
      <trkpt lat="45.50569" lon="6.70066">
        <ele>2074.1</ele>
        <time>2021-08-15T13:33:03Z</time>
      </trkpt>
      <trkpt lat="45.50568" lon="6.70068">
        <ele>2074.1</ele>
        <time>2021-08-15T13:33:04Z</time>
      </trkpt>
      <trkpt lat="45.50568" lon="6.70069">
        <ele>2074</ele>
        <time>2021-08-15T13:33:05Z</time>
      </trkpt>
      <trkpt lat="45.50568" lon="6.7007">
        <ele>2073.9</ele>
        <time>2021-08-15T13:33:06Z</time>
      </trkpt>
      <trkpt lat="45.50568" lon="6.70071">
        <ele>2073.9</ele>
        <time>2021-08-15T13:33:07Z</time>
      </trkpt>
      <trkpt lat="45.50567" lon="6.70073">
        <ele>2073.8</ele>
        <time>2021-08-15T13:33:08Z</time>
      </trkpt>
      <trkpt lat="45.50567" lon="6.70074">
        <ele>2073.7</ele>
        <time>2021-08-15T13:33:09Z</time>
      </trkpt>
      <trkpt lat="45.50567" lon="6.70075">
        <ele>2073.6</ele>
        <time>2021-08-15T13:33:10Z</time>
      </trkpt>
      <trkpt lat="45.50567" lon="6.70077">
        <ele>2073.6</ele>
        <time>2021-08-15T13:33:11Z</time>
      </trkpt>
      <trkpt lat="45.50566" lon="6.70078">
        <ele>2073.5</ele>
        <time>2021-08-15T13:33:12Z</time>
      </trkpt>
      <trkpt lat="45.50566" lon="6.70079">
        <ele>2073.4</ele>
        <time>2021-08-15T13:33:13Z</time>
      </trkpt>
      <trkpt lat="45.50566" lon="6.7008">
        <ele>2073.4</ele>
        <time>2021-08-15T13:33:14Z</time>
      </trkpt>
      <trkpt lat="45.50566" lon="6.70082">
        <ele>2073.3</ele>
        <time>2021-08-15T13:33:15Z</time>
      </trkpt>
      <trkpt lat="45.50566" lon="6.70083">
        <ele>2073.3</ele>
        <time>2021-08-15T13:33:16Z</time>
      </trkpt>
      <trkpt lat="45.50565" lon="6.70084">
        <ele>2073.2</ele>
        <time>2021-08-15T13:33:17Z</time>
      </trkpt>
      <trkpt lat="45.50565" lon="6.70085">
        <ele>2073.2</ele>
        <time>2021-08-15T13:33:18Z</time>
      </trkpt>
      <trkpt lat="45.50565" lon="6.70086">
        <ele>2073.1</ele>
        <time>2021-08-15T13:33:19Z</time>
      </trkpt>
      <trkpt lat="45.50565" lon="6.70087">
        <ele>2073.1</ele>
        <time>2021-08-15T13:33:20Z</time>
      </trkpt>
      <trkpt lat="45.50565" lon="6.70088">
        <ele>2073</ele>
        <time>2021-08-15T13:33:21Z</time>
      </trkpt>
      <trkpt lat="45.50565" lon="6.70089">
        <ele>2073</ele>
        <time>2021-08-15T13:33:22Z</time>
      </trkpt>
      <trkpt lat="45.50565" lon="6.70089">
        <ele>2073</ele>
        <time>2021-08-15T13:33:23Z</time>
      </trkpt>
      <trkpt lat="45.50565" lon="6.7009">
        <ele>2073</ele>
        <time>2021-08-15T13:33:24Z</time>
      </trkpt>
      <trkpt lat="45.50564" lon="6.7009">
        <ele>2072.9</ele>
        <time>2021-08-15T13:33:25Z</time>
      </trkpt>
      <trkpt lat="45.50564" lon="6.70091">
        <ele>2072.9</ele>
        <time>2021-08-15T13:33:26Z</time>
      </trkpt>
      <trkpt lat="45.50564" lon="6.70091">
        <ele>2072.9</ele>
        <time>2021-08-15T13:33:27Z</time>
      </trkpt>
      <trkpt lat="45.50564" lon="6.70091">
        <ele>2072.9</ele>
        <time>2021-08-15T13:33:28Z</time>
      </trkpt>
      <trkpt lat="45.50564" lon="6.70091">
        <ele>2072.9</ele>
        <time>2021-08-15T13:33:29Z</time>
      </trkpt>
      <trkpt lat="45.50564" lon="6.70091">
        <ele>2072.9</ele>
        <time>2021-08-15T13:33:30Z</time>
      </trkpt>
      <trkpt lat="45.50564" lon="6.70091">
        <ele>2072.9</ele>
        <time>2021-08-15T13:33:31Z</time>
      </trkpt>
      <trkpt lat="45.50564" lon="6.7009">
        <ele>2072.9</ele>
        <time>2021-08-15T13:33:32Z</time>
      </trkpt>
      <trkpt lat="45.50564" lon="6.7009">
        <ele>2072.9</ele>
        <time>2021-08-15T13:33:33Z</time>
      </trkpt>
      <trkpt lat="45.50564" lon="6.7009">
        <ele>2072.8</ele>
        <time>2021-08-15T13:33:34Z</time>
      </trkpt>
      <trkpt lat="45.50564" lon="6.7009">
        <ele>2072.8</ele>
        <time>2021-08-15T13:33:35Z</time>
      </trkpt>
      <trkpt lat="45.50564" lon="6.7009">
        <ele>2072.8</ele>
        <time>2021-08-15T13:33:36Z</time>
      </trkpt>
      <trkpt lat="45.50564" lon="6.7009">
        <ele>2072.8</ele>
        <time>2021-08-15T13:33:37Z</time>
      </trkpt>
      <trkpt lat="45.50564" lon="6.7009">
        <ele>2072.8</ele>
        <time>2021-08-15T13:33:38Z</time>
      </trkpt>
      <trkpt lat="45.50564" lon="6.70091">
        <ele>2072.8</ele>
        <time>2021-08-15T13:33:39Z</time>
      </trkpt>
      <trkpt lat="45.50564" lon="6.70092">
        <ele>2072.8</ele>
        <time>2021-08-15T13:33:40Z</time>
      </trkpt>
      <trkpt lat="45.50564" lon="6.70093">
        <ele>2072.7</ele>
        <time>2021-08-15T13:33:41Z</time>
      </trkpt>
      <trkpt lat="45.50564" lon="6.70094">
        <ele>2072.7</ele>
        <time>2021-08-15T13:33:42Z</time>
      </trkpt>
      <trkpt lat="45.50564" lon="6.70095">
        <ele>2072.6</ele>
        <time>2021-08-15T13:33:43Z</time>
      </trkpt>
      <trkpt lat="45.50564" lon="6.70096">
        <ele>2072.5</ele>
        <time>2021-08-15T13:33:44Z</time>
      </trkpt>
      <trkpt lat="45.50564" lon="6.70098">
        <ele>2072.5</ele>
        <time>2021-08-15T13:33:45Z</time>
      </trkpt>
      <trkpt lat="45.50564" lon="6.70099">
        <ele>2072.4</ele>
        <time>2021-08-15T13:33:46Z</time>
      </trkpt>
      <trkpt lat="45.50564" lon="6.70101">
        <ele>2072.3</ele>
        <time>2021-08-15T13:33:47Z</time>
      </trkpt>
      <trkpt lat="45.50564" lon="6.70102">
        <ele>2072.3</ele>
        <time>2021-08-15T13:33:48Z</time>
      </trkpt>
      <trkpt lat="45.50564" lon="6.70103">
        <ele>2072.2</ele>
        <time>2021-08-15T13:33:49Z</time>
      </trkpt>
      <trkpt lat="45.50564" lon="6.70105">
        <ele>2072.1</ele>
        <time>2021-08-15T13:33:50Z</time>
      </trkpt>
      <trkpt lat="45.50564" lon="6.70106">
        <ele>2072</ele>
        <time>2021-08-15T13:33:51Z</time>
      </trkpt>
      <trkpt lat="45.50563" lon="6.70108">
        <ele>2071.9</ele>
        <time>2021-08-15T13:33:52Z</time>
      </trkpt>
      <trkpt lat="45.50563" lon="6.70109">
        <ele>2071.8</ele>
        <time>2021-08-15T13:33:53Z</time>
      </trkpt>
      <trkpt lat="45.50563" lon="6.70111">
        <ele>2071.7</ele>
        <time>2021-08-15T13:33:54Z</time>
      </trkpt>
      <trkpt lat="45.50563" lon="6.70112">
        <ele>2071.7</ele>
        <time>2021-08-15T13:33:55Z</time>
      </trkpt>
      <trkpt lat="45.50563" lon="6.70114">
        <ele>2071.6</ele>
        <time>2021-08-15T13:33:56Z</time>
      </trkpt>
      <trkpt lat="45.50563" lon="6.70115">
        <ele>2071.5</ele>
        <time>2021-08-15T13:33:57Z</time>
      </trkpt>
      <trkpt lat="45.50563" lon="6.70116">
        <ele>2071.4</ele>
        <time>2021-08-15T13:33:58Z</time>
      </trkpt>
      <trkpt lat="45.50563" lon="6.70118">
        <ele>2071.3</ele>
        <time>2021-08-15T13:33:59Z</time>
      </trkpt>
      <trkpt lat="45.50563" lon="6.70119">
        <ele>2071.2</ele>
        <time>2021-08-15T13:34:00Z</time>
      </trkpt>
      <trkpt lat="45.50562" lon="6.7012">
        <ele>2071.1</ele>
        <time>2021-08-15T13:34:01Z</time>
      </trkpt>
      <trkpt lat="45.50562" lon="6.70122">
        <ele>2071.1</ele>
        <time>2021-08-15T13:34:02Z</time>
      </trkpt>
      <trkpt lat="45.50562" lon="6.70123">
        <ele>2071</ele>
        <time>2021-08-15T13:34:03Z</time>
      </trkpt>
      <trkpt lat="45.50562" lon="6.70124">
        <ele>2070.9</ele>
        <time>2021-08-15T13:34:04Z</time>
      </trkpt>
      <trkpt lat="45.50562" lon="6.70125">
        <ele>2070.8</ele>
        <time>2021-08-15T13:34:05Z</time>
      </trkpt>
      <trkpt lat="45.50562" lon="6.70127">
        <ele>2070.7</ele>
        <time>2021-08-15T13:34:06Z</time>
      </trkpt>
      <trkpt lat="45.50562" lon="6.70128">
        <ele>2070.7</ele>
        <time>2021-08-15T13:34:07Z</time>
      </trkpt>
      <trkpt lat="45.50562" lon="6.70129">
        <ele>2070.6</ele>
        <time>2021-08-15T13:34:08Z</time>
      </trkpt>
      <trkpt lat="45.50562" lon="6.7013">
        <ele>2070.5</ele>
        <time>2021-08-15T13:34:09Z</time>
      </trkpt>
      <trkpt lat="45.50561" lon="6.70132">
        <ele>2070.4</ele>
        <time>2021-08-15T13:34:10Z</time>
      </trkpt>
      <trkpt lat="45.50561" lon="6.70133">
        <ele>2070.4</ele>
        <time>2021-08-15T13:34:11Z</time>
      </trkpt>
      <trkpt lat="45.50561" lon="6.70134">
        <ele>2070.3</ele>
        <time>2021-08-15T13:34:12Z</time>
      </trkpt>
      <trkpt lat="45.50561" lon="6.70135">
        <ele>2070.2</ele>
        <time>2021-08-15T13:34:13Z</time>
      </trkpt>
      <trkpt lat="45.50561" lon="6.70136">
        <ele>2070.2</ele>
        <time>2021-08-15T13:34:14Z</time>
      </trkpt>
      <trkpt lat="45.50561" lon="6.70138">
        <ele>2070.1</ele>
        <time>2021-08-15T13:34:15Z</time>
      </trkpt>
      <trkpt lat="45.50561" lon="6.70139">
        <ele>2070</ele>
        <time>2021-08-15T13:34:16Z</time>
      </trkpt>
      <trkpt lat="45.50561" lon="6.7014">
        <ele>2070</ele>
        <time>2021-08-15T13:34:17Z</time>
      </trkpt>
      <trkpt lat="45.50561" lon="6.70141">
        <ele>2069.9</ele>
        <time>2021-08-15T13:34:18Z</time>
      </trkpt>
      <trkpt lat="45.50561" lon="6.70142">
        <ele>2069.8</ele>
        <time>2021-08-15T13:34:19Z</time>
      </trkpt>
      <trkpt lat="45.50561" lon="6.70143">
        <ele>2069.8</ele>
        <time>2021-08-15T13:34:20Z</time>
      </trkpt>
      <trkpt lat="45.50561" lon="6.70145">
        <ele>2069.7</ele>
        <time>2021-08-15T13:34:21Z</time>
      </trkpt>
      <trkpt lat="45.50561" lon="6.70146">
        <ele>2069.7</ele>
        <time>2021-08-15T13:34:22Z</time>
      </trkpt>
      <trkpt lat="45.50561" lon="6.70147">
        <ele>2069.6</ele>
        <time>2021-08-15T13:34:23Z</time>
      </trkpt>
      <trkpt lat="45.50561" lon="6.70148">
        <ele>2069.5</ele>
        <time>2021-08-15T13:34:24Z</time>
      </trkpt>
      <trkpt lat="45.50561" lon="6.70149">
        <ele>2069.5</ele>
        <time>2021-08-15T13:34:25Z</time>
      </trkpt>
      <trkpt lat="45.50561" lon="6.70151">
        <ele>2069.4</ele>
        <time>2021-08-15T13:34:26Z</time>
      </trkpt>
      <trkpt lat="45.50561" lon="6.70152">
        <ele>2069.3</ele>
        <time>2021-08-15T13:34:27Z</time>
      </trkpt>
      <trkpt lat="45.50561" lon="6.70153">
        <ele>2069.3</ele>
        <time>2021-08-15T13:34:28Z</time>
      </trkpt>
      <trkpt lat="45.50561" lon="6.70155">
        <ele>2069.2</ele>
        <time>2021-08-15T13:34:29Z</time>
      </trkpt>
      <trkpt lat="45.50562" lon="6.70156">
        <ele>2069.1</ele>
        <time>2021-08-15T13:34:30Z</time>
      </trkpt>
      <trkpt lat="45.50562" lon="6.70157">
        <ele>2069</ele>
        <time>2021-08-15T13:34:31Z</time>
      </trkpt>
      <trkpt lat="45.50562" lon="6.70158">
        <ele>2068.9</ele>
        <time>2021-08-15T13:34:32Z</time>
      </trkpt>
      <trkpt lat="45.50562" lon="6.7016">
        <ele>2068.8</ele>
        <time>2021-08-15T13:34:33Z</time>
      </trkpt>
      <trkpt lat="45.50562" lon="6.70161">
        <ele>2068.7</ele>
        <time>2021-08-15T13:34:34Z</time>
      </trkpt>
      <trkpt lat="45.50562" lon="6.70162">
        <ele>2068.7</ele>
        <time>2021-08-15T13:34:35Z</time>
      </trkpt>
      <trkpt lat="45.50562" lon="6.70164">
        <ele>2068.6</ele>
        <time>2021-08-15T13:34:36Z</time>
      </trkpt>
      <trkpt lat="45.50562" lon="6.70165">
        <ele>2068.5</ele>
        <time>2021-08-15T13:34:37Z</time>
      </trkpt>
      <trkpt lat="45.50562" lon="6.70166">
        <ele>2068.4</ele>
        <time>2021-08-15T13:34:38Z</time>
      </trkpt>
      <trkpt lat="45.50561" lon="6.70167">
        <ele>2068.3</ele>
        <time>2021-08-15T13:34:39Z</time>
      </trkpt>
      <trkpt lat="45.50561" lon="6.70168">
        <ele>2068.2</ele>
        <time>2021-08-15T13:34:40Z</time>
      </trkpt>
      <trkpt lat="45.50561" lon="6.7017">
        <ele>2068.1</ele>
        <time>2021-08-15T13:34:41Z</time>
      </trkpt>
      <trkpt lat="45.5056" lon="6.70171">
        <ele>2068</ele>
        <time>2021-08-15T13:34:42Z</time>
      </trkpt>
      <trkpt lat="45.5056" lon="6.70172">
        <ele>2067.9</ele>
        <time>2021-08-15T13:34:43Z</time>
      </trkpt>
      <trkpt lat="45.50559" lon="6.70173">
        <ele>2067.8</ele>
        <time>2021-08-15T13:34:44Z</time>
      </trkpt>
      <trkpt lat="45.50559" lon="6.70174">
        <ele>2067.7</ele>
        <time>2021-08-15T13:34:45Z</time>
      </trkpt>
      <trkpt lat="45.50558" lon="6.70175">
        <ele>2067.6</ele>
        <time>2021-08-15T13:34:46Z</time>
      </trkpt>
      <trkpt lat="45.50558" lon="6.70176">
        <ele>2067.5</ele>
        <time>2021-08-15T13:34:47Z</time>
      </trkpt>
      <trkpt lat="45.50557" lon="6.70177">
        <ele>2067.4</ele>
        <time>2021-08-15T13:34:48Z</time>
      </trkpt>
      <trkpt lat="45.50557" lon="6.70178">
        <ele>2067.3</ele>
        <time>2021-08-15T13:34:49Z</time>
      </trkpt>
      <trkpt lat="45.50556" lon="6.70179">
        <ele>2067.1</ele>
        <time>2021-08-15T13:34:50Z</time>
      </trkpt>
      <trkpt lat="45.50556" lon="6.70179">
        <ele>2067</ele>
        <time>2021-08-15T13:34:51Z</time>
      </trkpt>
      <trkpt lat="45.50555" lon="6.7018">
        <ele>2066.9</ele>
        <time>2021-08-15T13:34:52Z</time>
      </trkpt>
      <trkpt lat="45.50555" lon="6.70181">
        <ele>2066.8</ele>
        <time>2021-08-15T13:34:53Z</time>
      </trkpt>
      <trkpt lat="45.50554" lon="6.70182">
        <ele>2066.7</ele>
        <time>2021-08-15T13:34:54Z</time>
      </trkpt>
      <trkpt lat="45.50554" lon="6.70182">
        <ele>2066.6</ele>
        <time>2021-08-15T13:34:55Z</time>
      </trkpt>
      <trkpt lat="45.50553" lon="6.70183">
        <ele>2066.5</ele>
        <time>2021-08-15T13:34:56Z</time>
      </trkpt>
      <trkpt lat="45.50552" lon="6.70183">
        <ele>2066.4</ele>
        <time>2021-08-15T13:34:57Z</time>
      </trkpt>
      <trkpt lat="45.50551" lon="6.70183">
        <ele>2066.2</ele>
        <time>2021-08-15T13:34:58Z</time>
      </trkpt>
      <trkpt lat="45.50551" lon="6.70184">
        <ele>2066.1</ele>
        <time>2021-08-15T13:34:59Z</time>
      </trkpt>
      <trkpt lat="45.5055" lon="6.70184">
        <ele>2066</ele>
        <time>2021-08-15T13:35:00Z</time>
      </trkpt>
      <trkpt lat="45.50549" lon="6.70184">
        <ele>2065.9</ele>
        <time>2021-08-15T13:35:01Z</time>
      </trkpt>
      <trkpt lat="45.50548" lon="6.70185">
        <ele>2065.7</ele>
        <time>2021-08-15T13:35:02Z</time>
      </trkpt>
      <trkpt lat="45.50548" lon="6.70185">
        <ele>2065.7</ele>
        <time>2021-08-15T13:35:03Z</time>
      </trkpt>
      <trkpt lat="45.50547" lon="6.70185">
        <ele>2065.6</ele>
        <time>2021-08-15T13:35:04Z</time>
      </trkpt>
      <trkpt lat="45.50547" lon="6.70186">
        <ele>2065.5</ele>
        <time>2021-08-15T13:35:05Z</time>
      </trkpt>
      <trkpt lat="45.50546" lon="6.70186">
        <ele>2065.4</ele>
        <time>2021-08-15T13:35:06Z</time>
      </trkpt>
      <trkpt lat="45.50546" lon="6.70187">
        <ele>2065.3</ele>
        <time>2021-08-15T13:35:07Z</time>
      </trkpt>
      <trkpt lat="45.50546" lon="6.70188">
        <ele>2065.2</ele>
        <time>2021-08-15T13:35:08Z</time>
      </trkpt>
      <trkpt lat="45.50545" lon="6.70188">
        <ele>2065.1</ele>
        <time>2021-08-15T13:35:09Z</time>
      </trkpt>
      <trkpt lat="45.50545" lon="6.70189">
        <ele>2065</ele>
        <time>2021-08-15T13:35:10Z</time>
      </trkpt>
      <trkpt lat="45.50544" lon="6.7019">
        <ele>2064.9</ele>
        <time>2021-08-15T13:35:11Z</time>
      </trkpt>
      <trkpt lat="45.50544" lon="6.70191">
        <ele>2064.8</ele>
        <time>2021-08-15T13:35:12Z</time>
      </trkpt>
      <trkpt lat="45.50544" lon="6.70192">
        <ele>2064.7</ele>
        <time>2021-08-15T13:35:13Z</time>
      </trkpt>
      <trkpt lat="45.50543" lon="6.70193">
        <ele>2064.5</ele>
        <time>2021-08-15T13:35:14Z</time>
      </trkpt>
      <trkpt lat="45.50543" lon="6.70194">
        <ele>2064.4</ele>
        <time>2021-08-15T13:35:15Z</time>
      </trkpt>
      <trkpt lat="45.50543" lon="6.70195">
        <ele>2064.3</ele>
        <time>2021-08-15T13:35:16Z</time>
      </trkpt>
      <trkpt lat="45.50542" lon="6.70196">
        <ele>2064.2</ele>
        <time>2021-08-15T13:35:17Z</time>
      </trkpt>
      <trkpt lat="45.50542" lon="6.70197">
        <ele>2064</ele>
        <time>2021-08-15T13:35:18Z</time>
      </trkpt>
      <trkpt lat="45.50542" lon="6.70198">
        <ele>2063.9</ele>
        <time>2021-08-15T13:35:19Z</time>
      </trkpt>
      <trkpt lat="45.50541" lon="6.70199">
        <ele>2063.8</ele>
        <time>2021-08-15T13:35:20Z</time>
      </trkpt>
      <trkpt lat="45.50541" lon="6.702">
        <ele>2063.7</ele>
        <time>2021-08-15T13:35:21Z</time>
      </trkpt>
      <trkpt lat="45.50541" lon="6.70201">
        <ele>2063.6</ele>
        <time>2021-08-15T13:35:22Z</time>
      </trkpt>
      <trkpt lat="45.50541" lon="6.70202">
        <ele>2063.5</ele>
        <time>2021-08-15T13:35:23Z</time>
      </trkpt>
      <trkpt lat="45.5054" lon="6.70203">
        <ele>2063.3</ele>
        <time>2021-08-15T13:35:24Z</time>
      </trkpt>
      <trkpt lat="45.5054" lon="6.70204">
        <ele>2063.2</ele>
        <time>2021-08-15T13:35:25Z</time>
      </trkpt>
      <trkpt lat="45.5054" lon="6.70205">
        <ele>2063.1</ele>
        <time>2021-08-15T13:35:26Z</time>
      </trkpt>
      <trkpt lat="45.5054" lon="6.70206">
        <ele>2063</ele>
        <time>2021-08-15T13:35:27Z</time>
      </trkpt>
      <trkpt lat="45.5054" lon="6.70207">
        <ele>2062.9</ele>
        <time>2021-08-15T13:35:28Z</time>
      </trkpt>
      <trkpt lat="45.5054" lon="6.70208">
        <ele>2062.8</ele>
        <time>2021-08-15T13:35:29Z</time>
      </trkpt>
      <trkpt lat="45.5054" lon="6.70209">
        <ele>2062.8</ele>
        <time>2021-08-15T13:35:30Z</time>
      </trkpt>
      <trkpt lat="45.5054" lon="6.7021">
        <ele>2062.7</ele>
        <time>2021-08-15T13:35:31Z</time>
      </trkpt>
      <trkpt lat="45.5054" lon="6.70211">
        <ele>2062.6</ele>
        <time>2021-08-15T13:35:32Z</time>
      </trkpt>
      <trkpt lat="45.5054" lon="6.70212">
        <ele>2062.5</ele>
        <time>2021-08-15T13:35:33Z</time>
      </trkpt>
      <trkpt lat="45.50541" lon="6.70213">
        <ele>2062.4</ele>
        <time>2021-08-15T13:35:34Z</time>
      </trkpt>
      <trkpt lat="45.50541" lon="6.70214">
        <ele>2062.3</ele>
        <time>2021-08-15T13:35:35Z</time>
      </trkpt>
      <trkpt lat="45.50541" lon="6.70215">
        <ele>2062.2</ele>
        <time>2021-08-15T13:35:36Z</time>
      </trkpt>
      <trkpt lat="45.50541" lon="6.70216">
        <ele>2062.1</ele>
        <time>2021-08-15T13:35:37Z</time>
      </trkpt>
      <trkpt lat="45.50541" lon="6.70217">
        <ele>2062</ele>
        <time>2021-08-15T13:35:38Z</time>
      </trkpt>
      <trkpt lat="45.50542" lon="6.70218">
        <ele>2061.9</ele>
        <time>2021-08-15T13:35:39Z</time>
      </trkpt>
      <trkpt lat="45.50542" lon="6.70219">
        <ele>2061.9</ele>
        <time>2021-08-15T13:35:40Z</time>
      </trkpt>
      <trkpt lat="45.50542" lon="6.7022">
        <ele>2061.8</ele>
        <time>2021-08-15T13:35:41Z</time>
      </trkpt>
      <trkpt lat="45.50542" lon="6.70221">
        <ele>2061.7</ele>
        <time>2021-08-15T13:35:42Z</time>
      </trkpt>
      <trkpt lat="45.50542" lon="6.70222">
        <ele>2061.6</ele>
        <time>2021-08-15T13:35:43Z</time>
      </trkpt>
      <trkpt lat="45.50543" lon="6.70223">
        <ele>2061.5</ele>
        <time>2021-08-15T13:35:44Z</time>
      </trkpt>
      <trkpt lat="45.50543" lon="6.70224">
        <ele>2061.4</ele>
        <time>2021-08-15T13:35:45Z</time>
      </trkpt>
      <trkpt lat="45.50543" lon="6.70225">
        <ele>2061.2</ele>
        <time>2021-08-15T13:35:46Z</time>
      </trkpt>
      <trkpt lat="45.50543" lon="6.70226">
        <ele>2061.1</ele>
        <time>2021-08-15T13:35:47Z</time>
      </trkpt>
      <trkpt lat="45.50544" lon="6.70227">
        <ele>2061</ele>
        <time>2021-08-15T13:35:48Z</time>
      </trkpt>
      <trkpt lat="45.50544" lon="6.70229">
        <ele>2060.9</ele>
        <time>2021-08-15T13:35:49Z</time>
      </trkpt>
      <trkpt lat="45.50544" lon="6.7023">
        <ele>2060.8</ele>
        <time>2021-08-15T13:35:50Z</time>
      </trkpt>
      <trkpt lat="45.50544" lon="6.70231">
        <ele>2060.7</ele>
        <time>2021-08-15T13:35:51Z</time>
      </trkpt>
      <trkpt lat="45.50544" lon="6.70232">
        <ele>2060.6</ele>
        <time>2021-08-15T13:35:52Z</time>
      </trkpt>
      <trkpt lat="45.50544" lon="6.70233">
        <ele>2060.5</ele>
        <time>2021-08-15T13:35:53Z</time>
      </trkpt>
      <trkpt lat="45.50544" lon="6.70234">
        <ele>2060.3</ele>
        <time>2021-08-15T13:35:54Z</time>
      </trkpt>
      <trkpt lat="45.50544" lon="6.70236">
        <ele>2060.2</ele>
        <time>2021-08-15T13:35:55Z</time>
      </trkpt>
      <trkpt lat="45.50544" lon="6.70237">
        <ele>2060.1</ele>
        <time>2021-08-15T13:35:56Z</time>
      </trkpt>
      <trkpt lat="45.50544" lon="6.70238">
        <ele>2060</ele>
        <time>2021-08-15T13:35:57Z</time>
      </trkpt>
      <trkpt lat="45.50543" lon="6.70239">
        <ele>2059.9</ele>
        <time>2021-08-15T13:35:58Z</time>
      </trkpt>
      <trkpt lat="45.50543" lon="6.7024">
        <ele>2059.8</ele>
        <time>2021-08-15T13:35:59Z</time>
      </trkpt>
      <trkpt lat="45.50543" lon="6.70241">
        <ele>2059.6</ele>
        <time>2021-08-15T13:36:00Z</time>
      </trkpt>
      <trkpt lat="45.50542" lon="6.70242">
        <ele>2059.5</ele>
        <time>2021-08-15T13:36:01Z</time>
      </trkpt>
      <trkpt lat="45.50542" lon="6.70242">
        <ele>2059.4</ele>
        <time>2021-08-15T13:36:02Z</time>
      </trkpt>
      <trkpt lat="45.50541" lon="6.70243">
        <ele>2059.3</ele>
        <time>2021-08-15T13:36:03Z</time>
      </trkpt>
      <trkpt lat="45.50541" lon="6.70244">
        <ele>2059.2</ele>
        <time>2021-08-15T13:36:04Z</time>
      </trkpt>
      <trkpt lat="45.5054" lon="6.70245">
        <ele>2059.1</ele>
        <time>2021-08-15T13:36:05Z</time>
      </trkpt>
      <trkpt lat="45.5054" lon="6.70246">
        <ele>2059</ele>
        <time>2021-08-15T13:36:06Z</time>
      </trkpt>
      <trkpt lat="45.5054" lon="6.70247">
        <ele>2058.9</ele>
        <time>2021-08-15T13:36:07Z</time>
      </trkpt>
      <trkpt lat="45.5054" lon="6.70248">
        <ele>2058.7</ele>
        <time>2021-08-15T13:36:08Z</time>
      </trkpt>
      <trkpt lat="45.50539" lon="6.70249">
        <ele>2058.6</ele>
        <time>2021-08-15T13:36:09Z</time>
      </trkpt>
      <trkpt lat="45.50539" lon="6.7025">
        <ele>2058.5</ele>
        <time>2021-08-15T13:36:10Z</time>
      </trkpt>
      <trkpt lat="45.50539" lon="6.70251">
        <ele>2058.4</ele>
        <time>2021-08-15T13:36:11Z</time>
      </trkpt>
      <trkpt lat="45.50539" lon="6.70252">
        <ele>2058.3</ele>
        <time>2021-08-15T13:36:12Z</time>
      </trkpt>
      <trkpt lat="45.50539" lon="6.70253">
        <ele>2058.2</ele>
        <time>2021-08-15T13:36:13Z</time>
      </trkpt>
      <trkpt lat="45.50539" lon="6.70255">
        <ele>2058.1</ele>
        <time>2021-08-15T13:36:14Z</time>
      </trkpt>
      <trkpt lat="45.50539" lon="6.70256">
        <ele>2057.9</ele>
        <time>2021-08-15T13:36:15Z</time>
      </trkpt>
      <trkpt lat="45.50539" lon="6.70257">
        <ele>2057.8</ele>
        <time>2021-08-15T13:36:16Z</time>
      </trkpt>
      <trkpt lat="45.50539" lon="6.70258">
        <ele>2057.7</ele>
        <time>2021-08-15T13:36:17Z</time>
      </trkpt>
      <trkpt lat="45.50539" lon="6.70259">
        <ele>2057.6</ele>
        <time>2021-08-15T13:36:18Z</time>
      </trkpt>
      <trkpt lat="45.50539" lon="6.7026">
        <ele>2057.5</ele>
        <time>2021-08-15T13:36:19Z</time>
      </trkpt>
      <trkpt lat="45.50539" lon="6.70261">
        <ele>2057.4</ele>
        <time>2021-08-15T13:36:20Z</time>
      </trkpt>
      <trkpt lat="45.50539" lon="6.70262">
        <ele>2057.3</ele>
        <time>2021-08-15T13:36:21Z</time>
      </trkpt>
      <trkpt lat="45.50539" lon="6.70263">
        <ele>2057.2</ele>
        <time>2021-08-15T13:36:22Z</time>
      </trkpt>
      <trkpt lat="45.50539" lon="6.70264">
        <ele>2057.1</ele>
        <time>2021-08-15T13:36:23Z</time>
      </trkpt>
      <trkpt lat="45.50539" lon="6.70265">
        <ele>2057.1</ele>
        <time>2021-08-15T13:36:24Z</time>
      </trkpt>
      <trkpt lat="45.5054" lon="6.70266">
        <ele>2057</ele>
        <time>2021-08-15T13:36:25Z</time>
      </trkpt>
      <trkpt lat="45.5054" lon="6.70267">
        <ele>2056.9</ele>
        <time>2021-08-15T13:36:26Z</time>
      </trkpt>
      <trkpt lat="45.5054" lon="6.70268">
        <ele>2056.8</ele>
        <time>2021-08-15T13:36:27Z</time>
      </trkpt>
      <trkpt lat="45.5054" lon="6.70269">
        <ele>2056.7</ele>
        <time>2021-08-15T13:36:28Z</time>
      </trkpt>
      <trkpt lat="45.50541" lon="6.70269">
        <ele>2056.6</ele>
        <time>2021-08-15T13:36:29Z</time>
      </trkpt>
      <trkpt lat="45.50541" lon="6.7027">
        <ele>2056.6</ele>
        <time>2021-08-15T13:36:30Z</time>
      </trkpt>
      <trkpt lat="45.50541" lon="6.70271">
        <ele>2056.5</ele>
        <time>2021-08-15T13:36:31Z</time>
      </trkpt>
      <trkpt lat="45.50541" lon="6.70272">
        <ele>2056.4</ele>
        <time>2021-08-15T13:36:32Z</time>
      </trkpt>
      <trkpt lat="45.50542" lon="6.70273">
        <ele>2056.3</ele>
        <time>2021-08-15T13:36:33Z</time>
      </trkpt>
      <trkpt lat="45.50542" lon="6.70273">
        <ele>2056.2</ele>
        <time>2021-08-15T13:36:34Z</time>
      </trkpt>
      <trkpt lat="45.50542" lon="6.70274">
        <ele>2056.2</ele>
        <time>2021-08-15T13:36:35Z</time>
      </trkpt>
      <trkpt lat="45.50543" lon="6.70275">
        <ele>2056.1</ele>
        <time>2021-08-15T13:36:36Z</time>
      </trkpt>
      <trkpt lat="45.50543" lon="6.70276">
        <ele>2056</ele>
        <time>2021-08-15T13:36:37Z</time>
      </trkpt>
      <trkpt lat="45.50543" lon="6.70277">
        <ele>2055.9</ele>
        <time>2021-08-15T13:36:38Z</time>
      </trkpt>
      <trkpt lat="45.50543" lon="6.70278">
        <ele>2055.8</ele>
        <time>2021-08-15T13:36:39Z</time>
      </trkpt>
      <trkpt lat="45.50544" lon="6.70279">
        <ele>2055.7</ele>
        <time>2021-08-15T13:36:40Z</time>
      </trkpt>
      <trkpt lat="45.50544" lon="6.7028">
        <ele>2055.6</ele>
        <time>2021-08-15T13:36:41Z</time>
      </trkpt>
      <trkpt lat="45.50544" lon="6.70281">
        <ele>2055.6</ele>
        <time>2021-08-15T13:36:42Z</time>
      </trkpt>
      <trkpt lat="45.50544" lon="6.70282">
        <ele>2055.5</ele>
        <time>2021-08-15T13:36:43Z</time>
      </trkpt>
      <trkpt lat="45.50544" lon="6.70283">
        <ele>2055.4</ele>
        <time>2021-08-15T13:36:44Z</time>
      </trkpt>
      <trkpt lat="45.50545" lon="6.70284">
        <ele>2055.3</ele>
        <time>2021-08-15T13:36:45Z</time>
      </trkpt>
      <trkpt lat="45.50545" lon="6.70285">
        <ele>2055.3</ele>
        <time>2021-08-15T13:36:46Z</time>
      </trkpt>
      <trkpt lat="45.50545" lon="6.70286">
        <ele>2055.2</ele>
        <time>2021-08-15T13:36:47Z</time>
      </trkpt>
      <trkpt lat="45.50545" lon="6.70286">
        <ele>2055.1</ele>
        <time>2021-08-15T13:36:48Z</time>
      </trkpt>
      <trkpt lat="45.50544" lon="6.70287">
        <ele>2055.1</ele>
        <time>2021-08-15T13:36:49Z</time>
      </trkpt>
      <trkpt lat="45.50544" lon="6.70288">
        <ele>2055</ele>
        <time>2021-08-15T13:36:50Z</time>
      </trkpt>
      <trkpt lat="45.50544" lon="6.70289">
        <ele>2055</ele>
        <time>2021-08-15T13:36:51Z</time>
      </trkpt>
      <trkpt lat="45.50544" lon="6.70289">
        <ele>2054.9</ele>
        <time>2021-08-15T13:36:52Z</time>
      </trkpt>
      <trkpt lat="45.50544" lon="6.7029">
        <ele>2054.8</ele>
        <time>2021-08-15T13:36:53Z</time>
      </trkpt>
      <trkpt lat="45.50544" lon="6.70291">
        <ele>2054.8</ele>
        <time>2021-08-15T13:36:54Z</time>
      </trkpt>
      <trkpt lat="45.50544" lon="6.70292">
        <ele>2054.7</ele>
        <time>2021-08-15T13:36:55Z</time>
      </trkpt>
      <trkpt lat="45.50544" lon="6.70293">
        <ele>2054.6</ele>
        <time>2021-08-15T13:36:56Z</time>
      </trkpt>
      <trkpt lat="45.50544" lon="6.70294">
        <ele>2054.6</ele>
        <time>2021-08-15T13:36:57Z</time>
      </trkpt>
      <trkpt lat="45.50544" lon="6.70295">
        <ele>2054.5</ele>
        <time>2021-08-15T13:36:58Z</time>
      </trkpt>
      <trkpt lat="45.50544" lon="6.70296">
        <ele>2054.4</ele>
        <time>2021-08-15T13:36:59Z</time>
      </trkpt>
      <trkpt lat="45.50544" lon="6.70297">
        <ele>2054.3</ele>
        <time>2021-08-15T13:37:00Z</time>
      </trkpt>
      <trkpt lat="45.50544" lon="6.70298">
        <ele>2054.2</ele>
        <time>2021-08-15T13:37:01Z</time>
      </trkpt>
      <trkpt lat="45.50544" lon="6.703">
        <ele>2054.1</ele>
        <time>2021-08-15T13:37:02Z</time>
      </trkpt>
      <trkpt lat="45.50544" lon="6.70301">
        <ele>2054</ele>
        <time>2021-08-15T13:37:03Z</time>
      </trkpt>
      <trkpt lat="45.50544" lon="6.70302">
        <ele>2053.9</ele>
        <time>2021-08-15T13:37:04Z</time>
      </trkpt>
      <trkpt lat="45.50544" lon="6.70304">
        <ele>2053.8</ele>
        <time>2021-08-15T13:37:05Z</time>
      </trkpt>
      <trkpt lat="45.50544" lon="6.70305">
        <ele>2053.7</ele>
        <time>2021-08-15T13:37:06Z</time>
      </trkpt>
      <trkpt lat="45.50544" lon="6.70306">
        <ele>2053.7</ele>
        <time>2021-08-15T13:37:07Z</time>
      </trkpt>
      <trkpt lat="45.50544" lon="6.70308">
        <ele>2053.6</ele>
        <time>2021-08-15T13:37:08Z</time>
      </trkpt>
      <trkpt lat="45.50544" lon="6.70309">
        <ele>2053.5</ele>
        <time>2021-08-15T13:37:09Z</time>
      </trkpt>
      <trkpt lat="45.50544" lon="6.7031">
        <ele>2053.4</ele>
        <time>2021-08-15T13:37:10Z</time>
      </trkpt>
      <trkpt lat="45.50544" lon="6.70311">
        <ele>2053.3</ele>
        <time>2021-08-15T13:37:11Z</time>
      </trkpt>
      <trkpt lat="45.50544" lon="6.70312">
        <ele>2053.3</ele>
        <time>2021-08-15T13:37:12Z</time>
      </trkpt>
      <trkpt lat="45.50544" lon="6.70313">
        <ele>2053.2</ele>
        <time>2021-08-15T13:37:13Z</time>
      </trkpt>
      <trkpt lat="45.50544" lon="6.70314">
        <ele>2053.2</ele>
        <time>2021-08-15T13:37:14Z</time>
      </trkpt>
      <trkpt lat="45.50544" lon="6.70315">
        <ele>2053.2</ele>
        <time>2021-08-15T13:37:15Z</time>
      </trkpt>
      <trkpt lat="45.50544" lon="6.70315">
        <ele>2053.1</ele>
        <time>2021-08-15T13:37:16Z</time>
      </trkpt>
      <trkpt lat="45.50544" lon="6.70315">
        <ele>2053.1</ele>
        <time>2021-08-15T13:37:17Z</time>
      </trkpt>
      <trkpt lat="45.50544" lon="6.70316">
        <ele>2053.1</ele>
        <time>2021-08-15T13:37:18Z</time>
      </trkpt>
      <trkpt lat="45.50544" lon="6.70316">
        <ele>2053.1</ele>
        <time>2021-08-15T13:37:19Z</time>
      </trkpt>
      <trkpt lat="45.50544" lon="6.70316">
        <ele>2053.1</ele>
        <time>2021-08-15T13:37:20Z</time>
      </trkpt>
      <trkpt lat="45.50544" lon="6.70316">
        <ele>2053.1</ele>
        <time>2021-08-15T13:37:21Z</time>
      </trkpt>
      <trkpt lat="45.50544" lon="6.70317">
        <ele>2053</ele>
        <time>2021-08-15T13:37:22Z</time>
      </trkpt>
      <trkpt lat="45.50544" lon="6.70318">
        <ele>2053</ele>
        <time>2021-08-15T13:37:23Z</time>
      </trkpt>
      <trkpt lat="45.50544" lon="6.70318">
        <ele>2053</ele>
        <time>2021-08-15T13:37:24Z</time>
      </trkpt>
      <trkpt lat="45.50544" lon="6.70319">
        <ele>2052.9</ele>
        <time>2021-08-15T13:37:25Z</time>
      </trkpt>
      <trkpt lat="45.50544" lon="6.70321">
        <ele>2052.9</ele>
        <time>2021-08-15T13:37:26Z</time>
      </trkpt>
      <trkpt lat="45.50544" lon="6.70322">
        <ele>2052.8</ele>
        <time>2021-08-15T13:37:27Z</time>
      </trkpt>
      <trkpt lat="45.50544" lon="6.70323">
        <ele>2052.7</ele>
        <time>2021-08-15T13:37:28Z</time>
      </trkpt>
      <trkpt lat="45.50544" lon="6.70324">
        <ele>2052.7</ele>
        <time>2021-08-15T13:37:29Z</time>
      </trkpt>
      <trkpt lat="45.50544" lon="6.70326">
        <ele>2052.6</ele>
        <time>2021-08-15T13:37:30Z</time>
      </trkpt>
      <trkpt lat="45.50543" lon="6.70327">
        <ele>2052.7</ele>
        <time>2021-08-15T13:37:31Z</time>
      </trkpt>
      <trkpt lat="45.50543" lon="6.70329">
        <ele>2052.8</ele>
        <time>2021-08-15T13:37:32Z</time>
      </trkpt>
      <trkpt lat="45.50543" lon="6.7033">
        <ele>2052.9</ele>
        <time>2021-08-15T13:37:33Z</time>
      </trkpt>
      <trkpt lat="45.50543" lon="6.70332">
        <ele>2053</ele>
        <time>2021-08-15T13:37:34Z</time>
      </trkpt>
      <trkpt lat="45.50543" lon="6.70333">
        <ele>2053.1</ele>
        <time>2021-08-15T13:37:35Z</time>
      </trkpt>
      <trkpt lat="45.50543" lon="6.70335">
        <ele>2053.2</ele>
        <time>2021-08-15T13:37:36Z</time>
      </trkpt>
      <trkpt lat="45.50543" lon="6.70336">
        <ele>2053.3</ele>
        <time>2021-08-15T13:37:37Z</time>
      </trkpt>
      <trkpt lat="45.50542" lon="6.70337">
        <ele>2053.3</ele>
        <time>2021-08-15T13:37:38Z</time>
      </trkpt>
      <trkpt lat="45.50542" lon="6.70338">
        <ele>2053.4</ele>
        <time>2021-08-15T13:37:39Z</time>
      </trkpt>
      <trkpt lat="45.50542" lon="6.7034">
        <ele>2053.5</ele>
        <time>2021-08-15T13:37:40Z</time>
      </trkpt>
      <trkpt lat="45.50542" lon="6.70341">
        <ele>2053.6</ele>
        <time>2021-08-15T13:37:41Z</time>
      </trkpt>
      <trkpt lat="45.50542" lon="6.70342">
        <ele>2053.7</ele>
        <time>2021-08-15T13:37:42Z</time>
      </trkpt>
      <trkpt lat="45.50542" lon="6.70343">
        <ele>2053.7</ele>
        <time>2021-08-15T13:37:43Z</time>
      </trkpt>
      <trkpt lat="45.50542" lon="6.70344">
        <ele>2053.8</ele>
        <time>2021-08-15T13:37:44Z</time>
      </trkpt>
      <trkpt lat="45.50542" lon="6.70345">
        <ele>2053.9</ele>
        <time>2021-08-15T13:37:45Z</time>
      </trkpt>
      <trkpt lat="45.50542" lon="6.70346">
        <ele>2054</ele>
        <time>2021-08-15T13:37:46Z</time>
      </trkpt>
      <trkpt lat="45.50542" lon="6.70348">
        <ele>2054.1</ele>
        <time>2021-08-15T13:37:47Z</time>
      </trkpt>
      <trkpt lat="45.50542" lon="6.70349">
        <ele>2054.1</ele>
        <time>2021-08-15T13:37:48Z</time>
      </trkpt>
      <trkpt lat="45.50542" lon="6.7035">
        <ele>2054.2</ele>
        <time>2021-08-15T13:37:49Z</time>
      </trkpt>
      <trkpt lat="45.50542" lon="6.70351">
        <ele>2054.3</ele>
        <time>2021-08-15T13:37:50Z</time>
      </trkpt>
      <trkpt lat="45.50542" lon="6.70352">
        <ele>2054.4</ele>
        <time>2021-08-15T13:37:51Z</time>
      </trkpt>
      <trkpt lat="45.50542" lon="6.70353">
        <ele>2054.5</ele>
        <time>2021-08-15T13:37:52Z</time>
      </trkpt>
      <trkpt lat="45.50542" lon="6.70354">
        <ele>2054.6</ele>
        <time>2021-08-15T13:37:53Z</time>
      </trkpt>
      <trkpt lat="45.50542" lon="6.70355">
        <ele>2054.6</ele>
        <time>2021-08-15T13:37:54Z</time>
      </trkpt>
      <trkpt lat="45.50542" lon="6.70356">
        <ele>2054.7</ele>
        <time>2021-08-15T13:37:55Z</time>
      </trkpt>
      <trkpt lat="45.50542" lon="6.70357">
        <ele>2054.8</ele>
        <time>2021-08-15T13:37:56Z</time>
      </trkpt>
      <trkpt lat="45.50541" lon="6.70358">
        <ele>2054.9</ele>
        <time>2021-08-15T13:37:57Z</time>
      </trkpt>
      <trkpt lat="45.50541" lon="6.70358">
        <ele>2054.9</ele>
        <time>2021-08-15T13:37:58Z</time>
      </trkpt>
      <trkpt lat="45.50541" lon="6.70359">
        <ele>2055</ele>
        <time>2021-08-15T13:37:59Z</time>
      </trkpt>
      <trkpt lat="45.50541" lon="6.7036">
        <ele>2055</ele>
        <time>2021-08-15T13:38:00Z</time>
      </trkpt>
      <trkpt lat="45.5054" lon="6.70361">
        <ele>2055.1</ele>
        <time>2021-08-15T13:38:01Z</time>
      </trkpt>
      <trkpt lat="45.5054" lon="6.70362">
        <ele>2055.2</ele>
        <time>2021-08-15T13:38:02Z</time>
      </trkpt>
      <trkpt lat="45.5054" lon="6.70363">
        <ele>2055.3</ele>
        <time>2021-08-15T13:38:03Z</time>
      </trkpt>
      <trkpt lat="45.5054" lon="6.70364">
        <ele>2055.3</ele>
        <time>2021-08-15T13:38:04Z</time>
      </trkpt>
      <trkpt lat="45.50539" lon="6.70365">
        <ele>2055.4</ele>
        <time>2021-08-15T13:38:05Z</time>
      </trkpt>
      <trkpt lat="45.50539" lon="6.70366">
        <ele>2055.5</ele>
        <time>2021-08-15T13:38:06Z</time>
      </trkpt>
      <trkpt lat="45.50539" lon="6.70367">
        <ele>2055.6</ele>
        <time>2021-08-15T13:38:07Z</time>
      </trkpt>
      <trkpt lat="45.50539" lon="6.70368">
        <ele>2055.7</ele>
        <time>2021-08-15T13:38:08Z</time>
      </trkpt>
      <trkpt lat="45.50538" lon="6.7037">
        <ele>2055.8</ele>
        <time>2021-08-15T13:38:09Z</time>
      </trkpt>
      <trkpt lat="45.50538" lon="6.70371">
        <ele>2055.9</ele>
        <time>2021-08-15T13:38:10Z</time>
      </trkpt>
      <trkpt lat="45.50538" lon="6.70372">
        <ele>2056</ele>
        <time>2021-08-15T13:38:11Z</time>
      </trkpt>
      <trkpt lat="45.50537" lon="6.70373">
        <ele>2056.1</ele>
        <time>2021-08-15T13:38:12Z</time>
      </trkpt>
      <trkpt lat="45.50537" lon="6.70375">
        <ele>2056.2</ele>
        <time>2021-08-15T13:38:13Z</time>
      </trkpt>
      <trkpt lat="45.50536" lon="6.70376">
        <ele>2056.3</ele>
        <time>2021-08-15T13:38:14Z</time>
      </trkpt>
      <trkpt lat="45.50536" lon="6.70377">
        <ele>2056.4</ele>
        <time>2021-08-15T13:38:15Z</time>
      </trkpt>
      <trkpt lat="45.50535" lon="6.70377">
        <ele>2056.5</ele>
        <time>2021-08-15T13:38:16Z</time>
      </trkpt>
      <trkpt lat="45.50535" lon="6.70378">
        <ele>2056.6</ele>
        <time>2021-08-15T13:38:17Z</time>
      </trkpt>
      <trkpt lat="45.50534" lon="6.70379">
        <ele>2056.7</ele>
        <time>2021-08-15T13:38:18Z</time>
      </trkpt>
      <trkpt lat="45.50534" lon="6.7038">
        <ele>2056.7</ele>
        <time>2021-08-15T13:38:19Z</time>
      </trkpt>
      <trkpt lat="45.50533" lon="6.7038">
        <ele>2056.8</ele>
        <time>2021-08-15T13:38:20Z</time>
      </trkpt>
      <trkpt lat="45.50532" lon="6.70381">
        <ele>2056.9</ele>
        <time>2021-08-15T13:38:21Z</time>
      </trkpt>
      <trkpt lat="45.50532" lon="6.70382">
        <ele>2057</ele>
        <time>2021-08-15T13:38:22Z</time>
      </trkpt>
      <trkpt lat="45.50531" lon="6.70382">
        <ele>2057.1</ele>
        <time>2021-08-15T13:38:23Z</time>
      </trkpt>
      <trkpt lat="45.5053" lon="6.70383">
        <ele>2057.2</ele>
        <time>2021-08-15T13:38:24Z</time>
      </trkpt>
      <trkpt lat="45.5053" lon="6.70383">
        <ele>2057.2</ele>
        <time>2021-08-15T13:38:25Z</time>
      </trkpt>
      <trkpt lat="45.50529" lon="6.70384">
        <ele>2057.3</ele>
        <time>2021-08-15T13:38:26Z</time>
      </trkpt>
      <trkpt lat="45.50528" lon="6.70385">
        <ele>2057.4</ele>
        <time>2021-08-15T13:38:27Z</time>
      </trkpt>
      <trkpt lat="45.50527" lon="6.70385">
        <ele>2057.5</ele>
        <time>2021-08-15T13:38:28Z</time>
      </trkpt>
      <trkpt lat="45.50527" lon="6.70386">
        <ele>2057.6</ele>
        <time>2021-08-15T13:38:29Z</time>
      </trkpt>
      <trkpt lat="45.50526" lon="6.70387">
        <ele>2057.7</ele>
        <time>2021-08-15T13:38:30Z</time>
      </trkpt>
      <trkpt lat="45.50525" lon="6.70388">
        <ele>2057.8</ele>
        <time>2021-08-15T13:38:31Z</time>
      </trkpt>
      <trkpt lat="45.50525" lon="6.70388">
        <ele>2057.8</ele>
        <time>2021-08-15T13:38:32Z</time>
      </trkpt>
      <trkpt lat="45.50524" lon="6.70389">
        <ele>2057.9</ele>
        <time>2021-08-15T13:38:33Z</time>
      </trkpt>
      <trkpt lat="45.50523" lon="6.7039">
        <ele>2058</ele>
        <time>2021-08-15T13:38:34Z</time>
      </trkpt>
      <trkpt lat="45.50523" lon="6.70391">
        <ele>2058.1</ele>
        <time>2021-08-15T13:38:35Z</time>
      </trkpt>
      <trkpt lat="45.50522" lon="6.70391">
        <ele>2058.2</ele>
        <time>2021-08-15T13:38:36Z</time>
      </trkpt>
      <trkpt lat="45.50521" lon="6.70392">
        <ele>2058.3</ele>
        <time>2021-08-15T13:38:37Z</time>
      </trkpt>
      <trkpt lat="45.50521" lon="6.70393">
        <ele>2058.4</ele>
        <time>2021-08-15T13:38:38Z</time>
      </trkpt>
      <trkpt lat="45.5052" lon="6.70394">
        <ele>2058.4</ele>
        <time>2021-08-15T13:38:39Z</time>
      </trkpt>
      <trkpt lat="45.50519" lon="6.70394">
        <ele>2058.5</ele>
        <time>2021-08-15T13:38:40Z</time>
      </trkpt>
      <trkpt lat="45.50519" lon="6.70395">
        <ele>2058.6</ele>
        <time>2021-08-15T13:38:41Z</time>
      </trkpt>
      <trkpt lat="45.50518" lon="6.70396">
        <ele>2058.7</ele>
        <time>2021-08-15T13:38:42Z</time>
      </trkpt>
      <trkpt lat="45.50517" lon="6.70397">
        <ele>2058.8</ele>
        <time>2021-08-15T13:38:43Z</time>
      </trkpt>
      <trkpt lat="45.50517" lon="6.70397">
        <ele>2058.8</ele>
        <time>2021-08-15T13:38:44Z</time>
      </trkpt>
      <trkpt lat="45.50516" lon="6.70398">
        <ele>2058.9</ele>
        <time>2021-08-15T13:38:45Z</time>
      </trkpt>
      <trkpt lat="45.50515" lon="6.70399">
        <ele>2059</ele>
        <time>2021-08-15T13:38:46Z</time>
      </trkpt>
      <trkpt lat="45.50515" lon="6.70399">
        <ele>2059.1</ele>
        <time>2021-08-15T13:38:47Z</time>
      </trkpt>
      <trkpt lat="45.50514" lon="6.704">
        <ele>2059.2</ele>
        <time>2021-08-15T13:38:48Z</time>
      </trkpt>
      <trkpt lat="45.50514" lon="6.70401">
        <ele>2059.2</ele>
        <time>2021-08-15T13:38:49Z</time>
      </trkpt>
      <trkpt lat="45.50513" lon="6.70401">
        <ele>2059.3</ele>
        <time>2021-08-15T13:38:50Z</time>
      </trkpt>
      <trkpt lat="45.50512" lon="6.70402">
        <ele>2059.4</ele>
        <time>2021-08-15T13:38:51Z</time>
      </trkpt>
      <trkpt lat="45.50512" lon="6.70403">
        <ele>2059.4</ele>
        <time>2021-08-15T13:38:52Z</time>
      </trkpt>
      <trkpt lat="45.50511" lon="6.70403">
        <ele>2059.5</ele>
        <time>2021-08-15T13:38:53Z</time>
      </trkpt>
      <trkpt lat="45.50511" lon="6.70404">
        <ele>2059.6</ele>
        <time>2021-08-15T13:38:54Z</time>
      </trkpt>
      <trkpt lat="45.5051" lon="6.70404">
        <ele>2059.7</ele>
        <time>2021-08-15T13:38:55Z</time>
      </trkpt>
      <trkpt lat="45.50509" lon="6.70405">
        <ele>2059.7</ele>
        <time>2021-08-15T13:38:56Z</time>
      </trkpt>
      <trkpt lat="45.50509" lon="6.70406">
        <ele>2059.8</ele>
        <time>2021-08-15T13:38:57Z</time>
      </trkpt>
      <trkpt lat="45.50508" lon="6.70406">
        <ele>2059.9</ele>
        <time>2021-08-15T13:38:58Z</time>
      </trkpt>
      <trkpt lat="45.50508" lon="6.70407">
        <ele>2059.9</ele>
        <time>2021-08-15T13:38:59Z</time>
      </trkpt>
      <trkpt lat="45.50507" lon="6.70407">
        <ele>2060</ele>
        <time>2021-08-15T13:39:00Z</time>
      </trkpt>
      <trkpt lat="45.50507" lon="6.70408">
        <ele>2060.1</ele>
        <time>2021-08-15T13:39:01Z</time>
      </trkpt>
      <trkpt lat="45.50506" lon="6.70408">
        <ele>2060.1</ele>
        <time>2021-08-15T13:39:02Z</time>
      </trkpt>
      <trkpt lat="45.50505" lon="6.70409">
        <ele>2060.2</ele>
        <time>2021-08-15T13:39:03Z</time>
      </trkpt>
      <trkpt lat="45.50505" lon="6.70409">
        <ele>2060.2</ele>
        <time>2021-08-15T13:39:04Z</time>
      </trkpt>
      <trkpt lat="45.50504" lon="6.7041">
        <ele>2060.3</ele>
        <time>2021-08-15T13:39:05Z</time>
      </trkpt>
      <trkpt lat="45.50504" lon="6.7041">
        <ele>2060.4</ele>
        <time>2021-08-15T13:39:06Z</time>
      </trkpt>
      <trkpt lat="45.50503" lon="6.70411">
        <ele>2060.4</ele>
        <time>2021-08-15T13:39:07Z</time>
      </trkpt>
      <trkpt lat="45.50503" lon="6.70411">
        <ele>2060.5</ele>
        <time>2021-08-15T13:39:08Z</time>
      </trkpt>
      <trkpt lat="45.50502" lon="6.70411">
        <ele>2060.5</ele>
        <time>2021-08-15T13:39:09Z</time>
      </trkpt>
      <trkpt lat="45.50502" lon="6.70412">
        <ele>2060.6</ele>
        <time>2021-08-15T13:39:10Z</time>
      </trkpt>
      <trkpt lat="45.50501" lon="6.70412">
        <ele>2060.7</ele>
        <time>2021-08-15T13:39:11Z</time>
      </trkpt>
      <trkpt lat="45.505" lon="6.70413">
        <ele>2060.7</ele>
        <time>2021-08-15T13:39:12Z</time>
      </trkpt>
      <trkpt lat="45.505" lon="6.70413">
        <ele>2060.8</ele>
        <time>2021-08-15T13:39:13Z</time>
      </trkpt>
      <trkpt lat="45.50499" lon="6.70413">
        <ele>2060.8</ele>
        <time>2021-08-15T13:39:14Z</time>
      </trkpt>
      <trkpt lat="45.50499" lon="6.70414">
        <ele>2060.9</ele>
        <time>2021-08-15T13:39:15Z</time>
      </trkpt>
      <trkpt lat="45.50498" lon="6.70414">
        <ele>2061</ele>
        <time>2021-08-15T13:39:16Z</time>
      </trkpt>
      <trkpt lat="45.50498" lon="6.70415">
        <ele>2061</ele>
        <time>2021-08-15T13:39:17Z</time>
      </trkpt>
      <trkpt lat="45.50497" lon="6.70415">
        <ele>2061.1</ele>
        <time>2021-08-15T13:39:18Z</time>
      </trkpt>
      <trkpt lat="45.50497" lon="6.70416">
        <ele>2061.1</ele>
        <time>2021-08-15T13:39:19Z</time>
      </trkpt>
      <trkpt lat="45.50496" lon="6.70416">
        <ele>2061.2</ele>
        <time>2021-08-15T13:39:20Z</time>
      </trkpt>
      <trkpt lat="45.50496" lon="6.70417">
        <ele>2061.3</ele>
        <time>2021-08-15T13:39:21Z</time>
      </trkpt>
      <trkpt lat="45.50495" lon="6.70418">
        <ele>2061.3</ele>
        <time>2021-08-15T13:39:22Z</time>
      </trkpt>
      <trkpt lat="45.50495" lon="6.70418">
        <ele>2061.4</ele>
        <time>2021-08-15T13:39:23Z</time>
      </trkpt>
      <trkpt lat="45.50494" lon="6.70419">
        <ele>2061.5</ele>
        <time>2021-08-15T13:39:24Z</time>
      </trkpt>
      <trkpt lat="45.50494" lon="6.7042">
        <ele>2061.5</ele>
        <time>2021-08-15T13:39:25Z</time>
      </trkpt>
      <trkpt lat="45.50493" lon="6.7042">
        <ele>2061.6</ele>
        <time>2021-08-15T13:39:26Z</time>
      </trkpt>
      <trkpt lat="45.50493" lon="6.70421">
        <ele>2061.7</ele>
        <time>2021-08-15T13:39:27Z</time>
      </trkpt>
      <trkpt lat="45.50492" lon="6.70422">
        <ele>2061.7</ele>
        <time>2021-08-15T13:39:28Z</time>
      </trkpt>
      <trkpt lat="45.50492" lon="6.70423">
        <ele>2061.8</ele>
        <time>2021-08-15T13:39:29Z</time>
      </trkpt>
      <trkpt lat="45.50491" lon="6.70424">
        <ele>2061.9</ele>
        <time>2021-08-15T13:39:30Z</time>
      </trkpt>
      <trkpt lat="45.50491" lon="6.70425">
        <ele>2062</ele>
        <time>2021-08-15T13:39:31Z</time>
      </trkpt>
      <trkpt lat="45.5049" lon="6.70426">
        <ele>2062</ele>
        <time>2021-08-15T13:39:32Z</time>
      </trkpt>
      <trkpt lat="45.5049" lon="6.70426">
        <ele>2062.1</ele>
        <time>2021-08-15T13:39:33Z</time>
      </trkpt>
      <trkpt lat="45.50489" lon="6.70427">
        <ele>2062.2</ele>
        <time>2021-08-15T13:39:34Z</time>
      </trkpt>
      <trkpt lat="45.50489" lon="6.70428">
        <ele>2062.3</ele>
        <time>2021-08-15T13:39:35Z</time>
      </trkpt>
      <trkpt lat="45.50488" lon="6.70429">
        <ele>2062.3</ele>
        <time>2021-08-15T13:39:36Z</time>
      </trkpt>
      <trkpt lat="45.50488" lon="6.7043">
        <ele>2062.4</ele>
        <time>2021-08-15T13:39:37Z</time>
      </trkpt>
      <trkpt lat="45.50487" lon="6.70431">
        <ele>2062.5</ele>
        <time>2021-08-15T13:39:38Z</time>
      </trkpt>
      <trkpt lat="45.50487" lon="6.70432">
        <ele>2062.6</ele>
        <time>2021-08-15T13:39:39Z</time>
      </trkpt>
      <trkpt lat="45.50486" lon="6.70433">
        <ele>2062.6</ele>
        <time>2021-08-15T13:39:40Z</time>
      </trkpt>
      <trkpt lat="45.50486" lon="6.70434">
        <ele>2062.7</ele>
        <time>2021-08-15T13:39:41Z</time>
      </trkpt>
      <trkpt lat="45.50485" lon="6.70435">
        <ele>2062.8</ele>
        <time>2021-08-15T13:39:42Z</time>
      </trkpt>
      <trkpt lat="45.50484" lon="6.70436">
        <ele>2062.8</ele>
        <time>2021-08-15T13:39:43Z</time>
      </trkpt>
      <trkpt lat="45.50484" lon="6.70437">
        <ele>2062.9</ele>
        <time>2021-08-15T13:39:44Z</time>
      </trkpt>
      <trkpt lat="45.50483" lon="6.70437">
        <ele>2063</ele>
        <time>2021-08-15T13:39:45Z</time>
      </trkpt>
      <trkpt lat="45.50483" lon="6.70438">
        <ele>2063.1</ele>
        <time>2021-08-15T13:39:46Z</time>
      </trkpt>
      <trkpt lat="45.50482" lon="6.70439">
        <ele>2063.1</ele>
        <time>2021-08-15T13:39:47Z</time>
      </trkpt>
      <trkpt lat="45.50481" lon="6.7044">
        <ele>2063.2</ele>
        <time>2021-08-15T13:39:48Z</time>
      </trkpt>
      <trkpt lat="45.50481" lon="6.7044">
        <ele>2063.3</ele>
        <time>2021-08-15T13:39:49Z</time>
      </trkpt>
      <trkpt lat="45.5048" lon="6.70441">
        <ele>2063.3</ele>
        <time>2021-08-15T13:39:50Z</time>
      </trkpt>
      <trkpt lat="45.5048" lon="6.70442">
        <ele>2063.4</ele>
        <time>2021-08-15T13:39:51Z</time>
      </trkpt>
      <trkpt lat="45.50479" lon="6.70442">
        <ele>2063.4</ele>
        <time>2021-08-15T13:39:52Z</time>
      </trkpt>
      <trkpt lat="45.50479" lon="6.70443">
        <ele>2063.5</ele>
        <time>2021-08-15T13:39:53Z</time>
      </trkpt>
      <trkpt lat="45.50478" lon="6.70443">
        <ele>2063.6</ele>
        <time>2021-08-15T13:39:54Z</time>
      </trkpt>
      <trkpt lat="45.50477" lon="6.70444">
        <ele>2063.6</ele>
        <time>2021-08-15T13:39:55Z</time>
      </trkpt>
      <trkpt lat="45.50477" lon="6.70444">
        <ele>2063.7</ele>
        <time>2021-08-15T13:39:56Z</time>
      </trkpt>
      <trkpt lat="45.50476" lon="6.70445">
        <ele>2063.7</ele>
        <time>2021-08-15T13:39:57Z</time>
      </trkpt>
      <trkpt lat="45.50476" lon="6.70445">
        <ele>2063.8</ele>
        <time>2021-08-15T13:39:58Z</time>
      </trkpt>
      <trkpt lat="45.50475" lon="6.70446">
        <ele>2063.8</ele>
        <time>2021-08-15T13:39:59Z</time>
      </trkpt>
      <trkpt lat="45.50475" lon="6.70446">
        <ele>2063.9</ele>
        <time>2021-08-15T13:40:00Z</time>
      </trkpt>
      <trkpt lat="45.50474" lon="6.70447">
        <ele>2063.9</ele>
        <time>2021-08-15T13:40:01Z</time>
      </trkpt>
      <trkpt lat="45.50474" lon="6.70447">
        <ele>2064</ele>
        <time>2021-08-15T13:40:02Z</time>
      </trkpt>
      <trkpt lat="45.50474" lon="6.70448">
        <ele>2064</ele>
        <time>2021-08-15T13:40:03Z</time>
      </trkpt>
      <trkpt lat="45.50473" lon="6.70448">
        <ele>2064.1</ele>
        <time>2021-08-15T13:40:04Z</time>
      </trkpt>
      <trkpt lat="45.50473" lon="6.70449">
        <ele>2064.1</ele>
        <time>2021-08-15T13:40:05Z</time>
      </trkpt>
      <trkpt lat="45.50472" lon="6.70449">
        <ele>2064.2</ele>
        <time>2021-08-15T13:40:06Z</time>
      </trkpt>
      <trkpt lat="45.50472" lon="6.7045">
        <ele>2064.3</ele>
        <time>2021-08-15T13:40:07Z</time>
      </trkpt>
      <trkpt lat="45.50471" lon="6.70451">
        <ele>2064.3</ele>
        <time>2021-08-15T13:40:08Z</time>
      </trkpt>
      <trkpt lat="45.5047" lon="6.70452">
        <ele>2064.4</ele>
        <time>2021-08-15T13:40:09Z</time>
      </trkpt>
      <trkpt lat="45.5047" lon="6.70453">
        <ele>2064.5</ele>
        <time>2021-08-15T13:40:10Z</time>
      </trkpt>
      <trkpt lat="45.50469" lon="6.70454">
        <ele>2064.6</ele>
        <time>2021-08-15T13:40:11Z</time>
      </trkpt>
      <trkpt lat="45.50468" lon="6.70456">
        <ele>2064.7</ele>
        <time>2021-08-15T13:40:12Z</time>
      </trkpt>
      <trkpt lat="45.50467" lon="6.70457">
        <ele>2064.8</ele>
        <time>2021-08-15T13:40:13Z</time>
      </trkpt>
      <trkpt lat="45.50467" lon="6.70458">
        <ele>2064.9</ele>
        <time>2021-08-15T13:40:14Z</time>
      </trkpt>
      <trkpt lat="45.50466" lon="6.70459">
        <ele>2065</ele>
        <time>2021-08-15T13:40:15Z</time>
      </trkpt>
      <trkpt lat="45.50466" lon="6.7046">
        <ele>2065.1</ele>
        <time>2021-08-15T13:40:16Z</time>
      </trkpt>
      <trkpt lat="45.50465" lon="6.70461">
        <ele>2065.1</ele>
        <time>2021-08-15T13:40:17Z</time>
      </trkpt>
      <trkpt lat="45.50464" lon="6.70463">
        <ele>2065.2</ele>
        <time>2021-08-15T13:40:18Z</time>
      </trkpt>
      <trkpt lat="45.50464" lon="6.70464">
        <ele>2065.3</ele>
        <time>2021-08-15T13:40:19Z</time>
      </trkpt>
      <trkpt lat="45.50463" lon="6.70465">
        <ele>2065.4</ele>
        <time>2021-08-15T13:40:20Z</time>
      </trkpt>
      <trkpt lat="45.50463" lon="6.70466">
        <ele>2065.4</ele>
        <time>2021-08-15T13:40:21Z</time>
      </trkpt>
      <trkpt lat="45.50462" lon="6.70467">
        <ele>2065.5</ele>
        <time>2021-08-15T13:40:22Z</time>
      </trkpt>
      <trkpt lat="45.50462" lon="6.70468">
        <ele>2065.6</ele>
        <time>2021-08-15T13:40:23Z</time>
      </trkpt>
      <trkpt lat="45.50461" lon="6.70469">
        <ele>2065.6</ele>
        <time>2021-08-15T13:40:24Z</time>
      </trkpt>
      <trkpt lat="45.50461" lon="6.7047">
        <ele>2065.7</ele>
        <time>2021-08-15T13:40:25Z</time>
      </trkpt>
      <trkpt lat="45.5046" lon="6.7047">
        <ele>2065.8</ele>
        <time>2021-08-15T13:40:26Z</time>
      </trkpt>
      <trkpt lat="45.5046" lon="6.70471">
        <ele>2065.8</ele>
        <time>2021-08-15T13:40:27Z</time>
      </trkpt>
      <trkpt lat="45.50459" lon="6.70472">
        <ele>2065.9</ele>
        <time>2021-08-15T13:40:28Z</time>
      </trkpt>
      <trkpt lat="45.50459" lon="6.70473">
        <ele>2066</ele>
        <time>2021-08-15T13:40:29Z</time>
      </trkpt>
      <trkpt lat="45.50458" lon="6.70474">
        <ele>2066</ele>
        <time>2021-08-15T13:40:30Z</time>
      </trkpt>
      <trkpt lat="45.50457" lon="6.70475">
        <ele>2066.1</ele>
        <time>2021-08-15T13:40:31Z</time>
      </trkpt>
      <trkpt lat="45.50457" lon="6.70476">
        <ele>2066.1</ele>
        <time>2021-08-15T13:40:32Z</time>
      </trkpt>
      <trkpt lat="45.50456" lon="6.70477">
        <ele>2066.2</ele>
        <time>2021-08-15T13:40:33Z</time>
      </trkpt>
      <trkpt lat="45.50456" lon="6.70477">
        <ele>2066.3</ele>
        <time>2021-08-15T13:40:34Z</time>
      </trkpt>
      <trkpt lat="45.50455" lon="6.70478">
        <ele>2066.3</ele>
        <time>2021-08-15T13:40:35Z</time>
      </trkpt>
      <trkpt lat="45.50455" lon="6.70479">
        <ele>2066.4</ele>
        <time>2021-08-15T13:40:36Z</time>
      </trkpt>
      <trkpt lat="45.50454" lon="6.7048">
        <ele>2066.4</ele>
        <time>2021-08-15T13:40:37Z</time>
      </trkpt>
      <trkpt lat="45.50454" lon="6.70481">
        <ele>2066.5</ele>
        <time>2021-08-15T13:40:38Z</time>
      </trkpt>
      <trkpt lat="45.50453" lon="6.70482">
        <ele>2066.5</ele>
        <time>2021-08-15T13:40:39Z</time>
      </trkpt>
      <trkpt lat="45.50452" lon="6.70483">
        <ele>2066.6</ele>
        <time>2021-08-15T13:40:40Z</time>
      </trkpt>
      <trkpt lat="45.50452" lon="6.70484">
        <ele>2066.6</ele>
        <time>2021-08-15T13:40:41Z</time>
      </trkpt>
      <trkpt lat="45.50451" lon="6.70485">
        <ele>2066.7</ele>
        <time>2021-08-15T13:40:42Z</time>
      </trkpt>
      <trkpt lat="45.50451" lon="6.70486">
        <ele>2066.7</ele>
        <time>2021-08-15T13:40:43Z</time>
      </trkpt>
      <trkpt lat="45.5045" lon="6.70487">
        <ele>2066.8</ele>
        <time>2021-08-15T13:40:44Z</time>
      </trkpt>
      <trkpt lat="45.5045" lon="6.70488">
        <ele>2066.8</ele>
        <time>2021-08-15T13:40:45Z</time>
      </trkpt>
      <trkpt lat="45.50449" lon="6.70489">
        <ele>2066.9</ele>
        <time>2021-08-15T13:40:46Z</time>
      </trkpt>
      <trkpt lat="45.50449" lon="6.7049">
        <ele>2067</ele>
        <time>2021-08-15T13:40:47Z</time>
      </trkpt>
      <trkpt lat="45.50449" lon="6.70491">
        <ele>2067</ele>
        <time>2021-08-15T13:40:48Z</time>
      </trkpt>
      <trkpt lat="45.50448" lon="6.70492">
        <ele>2067.1</ele>
        <time>2021-08-15T13:40:49Z</time>
      </trkpt>
      <trkpt lat="45.50448" lon="6.70493">
        <ele>2067.1</ele>
        <time>2021-08-15T13:40:50Z</time>
      </trkpt>
      <trkpt lat="45.50447" lon="6.70494">
        <ele>2067.2</ele>
        <time>2021-08-15T13:40:51Z</time>
      </trkpt>
      <trkpt lat="45.50447" lon="6.70495">
        <ele>2067.2</ele>
        <time>2021-08-15T13:40:52Z</time>
      </trkpt>
      <trkpt lat="45.50446" lon="6.70496">
        <ele>2067.2</ele>
        <time>2021-08-15T13:40:53Z</time>
      </trkpt>
      <trkpt lat="45.50446" lon="6.70497">
        <ele>2067.3</ele>
        <time>2021-08-15T13:40:54Z</time>
      </trkpt>
      <trkpt lat="45.50446" lon="6.70499">
        <ele>2067.3</ele>
        <time>2021-08-15T13:40:55Z</time>
      </trkpt>
      <trkpt lat="45.50445" lon="6.705">
        <ele>2067.4</ele>
        <time>2021-08-15T13:40:56Z</time>
      </trkpt>
      <trkpt lat="45.50445" lon="6.70501">
        <ele>2067.4</ele>
        <time>2021-08-15T13:40:57Z</time>
      </trkpt>
      <trkpt lat="45.50444" lon="6.70502">
        <ele>2067.5</ele>
        <time>2021-08-15T13:40:58Z</time>
      </trkpt>
      <trkpt lat="45.50444" lon="6.70503">
        <ele>2067.5</ele>
        <time>2021-08-15T13:40:59Z</time>
      </trkpt>
      <trkpt lat="45.50443" lon="6.70504">
        <ele>2067.6</ele>
        <time>2021-08-15T13:41:00Z</time>
      </trkpt>
      <trkpt lat="45.50443" lon="6.70505">
        <ele>2067.6</ele>
        <time>2021-08-15T13:41:01Z</time>
      </trkpt>
      <trkpt lat="45.50442" lon="6.70506">
        <ele>2067.7</ele>
        <time>2021-08-15T13:41:02Z</time>
      </trkpt>
      <trkpt lat="45.50442" lon="6.70507">
        <ele>2067.7</ele>
        <time>2021-08-15T13:41:03Z</time>
      </trkpt>
      <trkpt lat="45.50441" lon="6.70508">
        <ele>2067.7</ele>
        <time>2021-08-15T13:41:04Z</time>
      </trkpt>
      <trkpt lat="45.50441" lon="6.70509">
        <ele>2067.8</ele>
        <time>2021-08-15T13:41:05Z</time>
      </trkpt>
      <trkpt lat="45.5044" lon="6.7051">
        <ele>2067.8</ele>
        <time>2021-08-15T13:41:06Z</time>
      </trkpt>
      <trkpt lat="45.5044" lon="6.70511">
        <ele>2067.9</ele>
        <time>2021-08-15T13:41:07Z</time>
      </trkpt>
      <trkpt lat="45.50439" lon="6.70512">
        <ele>2067.9</ele>
        <time>2021-08-15T13:41:08Z</time>
      </trkpt>
      <trkpt lat="45.50439" lon="6.70513">
        <ele>2067.9</ele>
        <time>2021-08-15T13:41:09Z</time>
      </trkpt>
      <trkpt lat="45.50438" lon="6.70514">
        <ele>2068</ele>
        <time>2021-08-15T13:41:10Z</time>
      </trkpt>
      <trkpt lat="45.50438" lon="6.70515">
        <ele>2068</ele>
        <time>2021-08-15T13:41:11Z</time>
      </trkpt>
      <trkpt lat="45.50437" lon="6.70516">
        <ele>2068.1</ele>
        <time>2021-08-15T13:41:12Z</time>
      </trkpt>
      <trkpt lat="45.50437" lon="6.70517">
        <ele>2068.1</ele>
        <time>2021-08-15T13:41:13Z</time>
      </trkpt>
      <trkpt lat="45.50436" lon="6.70518">
        <ele>2068.1</ele>
        <time>2021-08-15T13:41:14Z</time>
      </trkpt>
      <trkpt lat="45.50436" lon="6.70519">
        <ele>2068.2</ele>
        <time>2021-08-15T13:41:15Z</time>
      </trkpt>
      <trkpt lat="45.50436" lon="6.7052">
        <ele>2068.2</ele>
        <time>2021-08-15T13:41:16Z</time>
      </trkpt>
      <trkpt lat="45.50435" lon="6.70521">
        <ele>2068.2</ele>
        <time>2021-08-15T13:41:17Z</time>
      </trkpt>
      <trkpt lat="45.50435" lon="6.70522">
        <ele>2068.3</ele>
        <time>2021-08-15T13:41:18Z</time>
      </trkpt>
      <trkpt lat="45.50435" lon="6.70524">
        <ele>2068.3</ele>
        <time>2021-08-15T13:41:19Z</time>
      </trkpt>
      <trkpt lat="45.50434" lon="6.70525">
        <ele>2068.3</ele>
        <time>2021-08-15T13:41:20Z</time>
      </trkpt>
      <trkpt lat="45.50434" lon="6.70526">
        <ele>2068.4</ele>
        <time>2021-08-15T13:41:21Z</time>
      </trkpt>
      <trkpt lat="45.50434" lon="6.70527">
        <ele>2068.4</ele>
        <time>2021-08-15T13:41:22Z</time>
      </trkpt>
      <trkpt lat="45.50434" lon="6.70528">
        <ele>2068.4</ele>
        <time>2021-08-15T13:41:23Z</time>
      </trkpt>
      <trkpt lat="45.50434" lon="6.70529">
        <ele>2068.5</ele>
        <time>2021-08-15T13:41:24Z</time>
      </trkpt>
      <trkpt lat="45.50434" lon="6.70531">
        <ele>2068.5</ele>
        <time>2021-08-15T13:41:25Z</time>
      </trkpt>
      <trkpt lat="45.50434" lon="6.70532">
        <ele>2068.5</ele>
        <time>2021-08-15T13:41:26Z</time>
      </trkpt>
      <trkpt lat="45.50434" lon="6.70533">
        <ele>2068.6</ele>
        <time>2021-08-15T13:41:27Z</time>
      </trkpt>
      <trkpt lat="45.50434" lon="6.70534">
        <ele>2068.6</ele>
        <time>2021-08-15T13:41:28Z</time>
      </trkpt>
      <trkpt lat="45.50435" lon="6.70536">
        <ele>2068.6</ele>
        <time>2021-08-15T13:41:29Z</time>
      </trkpt>
      <trkpt lat="45.50435" lon="6.70537">
        <ele>2068.7</ele>
        <time>2021-08-15T13:41:30Z</time>
      </trkpt>
      <trkpt lat="45.50435" lon="6.70538">
        <ele>2068.7</ele>
        <time>2021-08-15T13:41:31Z</time>
      </trkpt>
      <trkpt lat="45.50435" lon="6.70539">
        <ele>2068.7</ele>
        <time>2021-08-15T13:41:32Z</time>
      </trkpt>
      <trkpt lat="45.50435" lon="6.7054">
        <ele>2068.8</ele>
        <time>2021-08-15T13:41:33Z</time>
      </trkpt>
      <trkpt lat="45.50435" lon="6.70542">
        <ele>2068.8</ele>
        <time>2021-08-15T13:41:34Z</time>
      </trkpt>
      <trkpt lat="45.50435" lon="6.70543">
        <ele>2068.8</ele>
        <time>2021-08-15T13:41:35Z</time>
      </trkpt>
      <trkpt lat="45.50435" lon="6.70544">
        <ele>2068.9</ele>
        <time>2021-08-15T13:41:36Z</time>
      </trkpt>
      <trkpt lat="45.50435" lon="6.70545">
        <ele>2068.9</ele>
        <time>2021-08-15T13:41:37Z</time>
      </trkpt>
      <trkpt lat="45.50435" lon="6.70546">
        <ele>2068.9</ele>
        <time>2021-08-15T13:41:38Z</time>
      </trkpt>
      <trkpt lat="45.50435" lon="6.70547">
        <ele>2068.9</ele>
        <time>2021-08-15T13:41:39Z</time>
      </trkpt>
      <trkpt lat="45.50435" lon="6.70548">
        <ele>2068.9</ele>
        <time>2021-08-15T13:41:40Z</time>
      </trkpt>
      <trkpt lat="45.50435" lon="6.7055">
        <ele>2068.9</ele>
        <time>2021-08-15T13:41:41Z</time>
      </trkpt>
      <trkpt lat="45.50435" lon="6.70551">
        <ele>2068.9</ele>
        <time>2021-08-15T13:41:42Z</time>
      </trkpt>
      <trkpt lat="45.50435" lon="6.70552">
        <ele>2068.9</ele>
        <time>2021-08-15T13:41:43Z</time>
      </trkpt>
      <trkpt lat="45.50436" lon="6.70553">
        <ele>2069</ele>
        <time>2021-08-15T13:41:44Z</time>
      </trkpt>
      <trkpt lat="45.50436" lon="6.70554">
        <ele>2069</ele>
        <time>2021-08-15T13:41:45Z</time>
      </trkpt>
      <trkpt lat="45.50436" lon="6.70555">
        <ele>2069</ele>
        <time>2021-08-15T13:41:46Z</time>
      </trkpt>
      <trkpt lat="45.50437" lon="6.70557">
        <ele>2069</ele>
        <time>2021-08-15T13:41:47Z</time>
      </trkpt>
      <trkpt lat="45.50437" lon="6.70558">
        <ele>2069</ele>
        <time>2021-08-15T13:41:48Z</time>
      </trkpt>
      <trkpt lat="45.50438" lon="6.70559">
        <ele>2069</ele>
        <time>2021-08-15T13:41:49Z</time>
      </trkpt>
      <trkpt lat="45.50438" lon="6.7056">
        <ele>2069</ele>
        <time>2021-08-15T13:41:50Z</time>
      </trkpt>
      <trkpt lat="45.50438" lon="6.70561">
        <ele>2069</ele>
        <time>2021-08-15T13:41:51Z</time>
      </trkpt>
      <trkpt lat="45.50439" lon="6.70562">
        <ele>2068.9</ele>
        <time>2021-08-15T13:41:52Z</time>
      </trkpt>
      <trkpt lat="45.5044" lon="6.70564">
        <ele>2068.9</ele>
        <time>2021-08-15T13:41:53Z</time>
      </trkpt>
      <trkpt lat="45.5044" lon="6.70565">
        <ele>2068.9</ele>
        <time>2021-08-15T13:41:54Z</time>
      </trkpt>
      <trkpt lat="45.50441" lon="6.70566">
        <ele>2068.9</ele>
        <time>2021-08-15T13:41:55Z</time>
      </trkpt>
      <trkpt lat="45.50441" lon="6.70567">
        <ele>2068.9</ele>
        <time>2021-08-15T13:41:56Z</time>
      </trkpt>
      <trkpt lat="45.50442" lon="6.70568">
        <ele>2068.8</ele>
        <time>2021-08-15T13:41:57Z</time>
      </trkpt>
      <trkpt lat="45.50442" lon="6.70569">
        <ele>2068.8</ele>
        <time>2021-08-15T13:41:58Z</time>
      </trkpt>
      <trkpt lat="45.50443" lon="6.7057">
        <ele>2068.7</ele>
        <time>2021-08-15T13:41:59Z</time>
      </trkpt>
      <trkpt lat="45.50444" lon="6.70572">
        <ele>2068.7</ele>
        <time>2021-08-15T13:42:00Z</time>
      </trkpt>
      <trkpt lat="45.50444" lon="6.70573">
        <ele>2068.6</ele>
        <time>2021-08-15T13:42:01Z</time>
      </trkpt>
      <trkpt lat="45.50445" lon="6.70574">
        <ele>2068.6</ele>
        <time>2021-08-15T13:42:02Z</time>
      </trkpt>
      <trkpt lat="45.50445" lon="6.70575">
        <ele>2068.5</ele>
        <time>2021-08-15T13:42:03Z</time>
      </trkpt>
      <trkpt lat="45.50446" lon="6.70576">
        <ele>2068.5</ele>
        <time>2021-08-15T13:42:04Z</time>
      </trkpt>
      <trkpt lat="45.50447" lon="6.70577">
        <ele>2068.4</ele>
        <time>2021-08-15T13:42:05Z</time>
      </trkpt>
      <trkpt lat="45.50447" lon="6.70578">
        <ele>2068.3</ele>
        <time>2021-08-15T13:42:06Z</time>
      </trkpt>
      <trkpt lat="45.50448" lon="6.70579">
        <ele>2068.3</ele>
        <time>2021-08-15T13:42:07Z</time>
      </trkpt>
      <trkpt lat="45.50448" lon="6.7058">
        <ele>2068.2</ele>
        <time>2021-08-15T13:42:08Z</time>
      </trkpt>
      <trkpt lat="45.50449" lon="6.70581">
        <ele>2068.1</ele>
        <time>2021-08-15T13:42:09Z</time>
      </trkpt>
      <trkpt lat="45.50449" lon="6.70582">
        <ele>2068</ele>
        <time>2021-08-15T13:42:10Z</time>
      </trkpt>
      <trkpt lat="45.5045" lon="6.70583">
        <ele>2068</ele>
        <time>2021-08-15T13:42:11Z</time>
      </trkpt>
      <trkpt lat="45.50451" lon="6.70584">
        <ele>2067.9</ele>
        <time>2021-08-15T13:42:12Z</time>
      </trkpt>
      <trkpt lat="45.50451" lon="6.70585">
        <ele>2067.8</ele>
        <time>2021-08-15T13:42:13Z</time>
      </trkpt>
      <trkpt lat="45.50452" lon="6.70586">
        <ele>2067.7</ele>
        <time>2021-08-15T13:42:14Z</time>
      </trkpt>
      <trkpt lat="45.50452" lon="6.70587">
        <ele>2067.6</ele>
        <time>2021-08-15T13:42:15Z</time>
      </trkpt>
      <trkpt lat="45.50453" lon="6.70588">
        <ele>2067.5</ele>
        <time>2021-08-15T13:42:16Z</time>
      </trkpt>
      <trkpt lat="45.50453" lon="6.70589">
        <ele>2067.4</ele>
        <time>2021-08-15T13:42:17Z</time>
      </trkpt>
      <trkpt lat="45.50454" lon="6.7059">
        <ele>2067.3</ele>
        <time>2021-08-15T13:42:18Z</time>
      </trkpt>
      <trkpt lat="45.50454" lon="6.70591">
        <ele>2067.2</ele>
        <time>2021-08-15T13:42:19Z</time>
      </trkpt>
      <trkpt lat="45.50455" lon="6.70592">
        <ele>2067.1</ele>
        <time>2021-08-15T13:42:20Z</time>
      </trkpt>
      <trkpt lat="45.50455" lon="6.70593">
        <ele>2067</ele>
        <time>2021-08-15T13:42:21Z</time>
      </trkpt>
      <trkpt lat="45.50456" lon="6.70594">
        <ele>2066.9</ele>
        <time>2021-08-15T13:42:22Z</time>
      </trkpt>
      <trkpt lat="45.50456" lon="6.70595">
        <ele>2066.8</ele>
        <time>2021-08-15T13:42:23Z</time>
      </trkpt>
      <trkpt lat="45.50457" lon="6.70595">
        <ele>2066.8</ele>
        <time>2021-08-15T13:42:24Z</time>
      </trkpt>
      <trkpt lat="45.50457" lon="6.70596">
        <ele>2066.7</ele>
        <time>2021-08-15T13:42:25Z</time>
      </trkpt>
      <trkpt lat="45.50457" lon="6.70597">
        <ele>2066.6</ele>
        <time>2021-08-15T13:42:26Z</time>
      </trkpt>
      <trkpt lat="45.50458" lon="6.70598">
        <ele>2066.5</ele>
        <time>2021-08-15T13:42:27Z</time>
      </trkpt>
      <trkpt lat="45.50458" lon="6.70599">
        <ele>2066.4</ele>
        <time>2021-08-15T13:42:28Z</time>
      </trkpt>
      <trkpt lat="45.50459" lon="6.706">
        <ele>2066.3</ele>
        <time>2021-08-15T13:42:29Z</time>
      </trkpt>
      <trkpt lat="45.50459" lon="6.70601">
        <ele>2066.2</ele>
        <time>2021-08-15T13:42:30Z</time>
      </trkpt>
      <trkpt lat="45.5046" lon="6.70602">
        <ele>2066.1</ele>
        <time>2021-08-15T13:42:31Z</time>
      </trkpt>
      <trkpt lat="45.5046" lon="6.70603">
        <ele>2066</ele>
        <time>2021-08-15T13:42:32Z</time>
      </trkpt>
      <trkpt lat="45.50461" lon="6.70604">
        <ele>2065.9</ele>
        <time>2021-08-15T13:42:33Z</time>
      </trkpt>
      <trkpt lat="45.50461" lon="6.70605">
        <ele>2065.8</ele>
        <time>2021-08-15T13:42:34Z</time>
      </trkpt>
      <trkpt lat="45.50462" lon="6.70606">
        <ele>2065.7</ele>
        <time>2021-08-15T13:42:35Z</time>
      </trkpt>
      <trkpt lat="45.50462" lon="6.70607">
        <ele>2065.6</ele>
        <time>2021-08-15T13:42:36Z</time>
      </trkpt>
      <trkpt lat="45.50463" lon="6.70607">
        <ele>2065.6</ele>
        <time>2021-08-15T13:42:37Z</time>
      </trkpt>
      <trkpt lat="45.50463" lon="6.70608">
        <ele>2065.5</ele>
        <time>2021-08-15T13:42:38Z</time>
      </trkpt>
      <trkpt lat="45.50464" lon="6.70609">
        <ele>2065.4</ele>
        <time>2021-08-15T13:42:39Z</time>
      </trkpt>
      <trkpt lat="45.50465" lon="6.7061">
        <ele>2065.3</ele>
        <time>2021-08-15T13:42:40Z</time>
      </trkpt>
      <trkpt lat="45.50465" lon="6.70611">
        <ele>2065.2</ele>
        <time>2021-08-15T13:42:41Z</time>
      </trkpt>
      <trkpt lat="45.50466" lon="6.70612">
        <ele>2065.1</ele>
        <time>2021-08-15T13:42:42Z</time>
      </trkpt>
      <trkpt lat="45.50467" lon="6.70613">
        <ele>2065.1</ele>
        <time>2021-08-15T13:42:43Z</time>
      </trkpt>
      <trkpt lat="45.50467" lon="6.70614">
        <ele>2065</ele>
        <time>2021-08-15T13:42:44Z</time>
      </trkpt>
      <trkpt lat="45.50468" lon="6.70614">
        <ele>2064.9</ele>
        <time>2021-08-15T13:42:45Z</time>
      </trkpt>
      <trkpt lat="45.50469" lon="6.70615">
        <ele>2064.8</ele>
        <time>2021-08-15T13:42:46Z</time>
      </trkpt>
      <trkpt lat="45.50469" lon="6.70616">
        <ele>2064.8</ele>
        <time>2021-08-15T13:42:47Z</time>
      </trkpt>
      <trkpt lat="45.5047" lon="6.70617">
        <ele>2064.7</ele>
        <time>2021-08-15T13:42:48Z</time>
      </trkpt>
      <trkpt lat="45.50471" lon="6.70618">
        <ele>2064.6</ele>
        <time>2021-08-15T13:42:49Z</time>
      </trkpt>
      <trkpt lat="45.50471" lon="6.70619">
        <ele>2064.6</ele>
        <time>2021-08-15T13:42:50Z</time>
      </trkpt>
      <trkpt lat="45.50472" lon="6.7062">
        <ele>2064.5</ele>
        <time>2021-08-15T13:42:51Z</time>
      </trkpt>
      <trkpt lat="45.50473" lon="6.70621">
        <ele>2064.5</ele>
        <time>2021-08-15T13:42:52Z</time>
      </trkpt>
      <trkpt lat="45.50473" lon="6.70622">
        <ele>2064.4</ele>
        <time>2021-08-15T13:42:53Z</time>
      </trkpt>
      <trkpt lat="45.50474" lon="6.70623">
        <ele>2064.4</ele>
        <time>2021-08-15T13:42:54Z</time>
      </trkpt>
      <trkpt lat="45.50475" lon="6.70624">
        <ele>2064.3</ele>
        <time>2021-08-15T13:42:55Z</time>
      </trkpt>
      <trkpt lat="45.50475" lon="6.70625">
        <ele>2064.3</ele>
        <time>2021-08-15T13:42:56Z</time>
      </trkpt>
      <trkpt lat="45.50476" lon="6.70626">
        <ele>2064.2</ele>
        <time>2021-08-15T13:42:57Z</time>
      </trkpt>
      <trkpt lat="45.50476" lon="6.70627">
        <ele>2064.2</ele>
        <time>2021-08-15T13:42:58Z</time>
      </trkpt>
      <trkpt lat="45.50477" lon="6.70628">
        <ele>2064.2</ele>
        <time>2021-08-15T13:42:59Z</time>
      </trkpt>
      <trkpt lat="45.50478" lon="6.70628">
        <ele>2064.2</ele>
        <time>2021-08-15T13:43:00Z</time>
      </trkpt>
      <trkpt lat="45.50478" lon="6.70629">
        <ele>2064.1</ele>
        <time>2021-08-15T13:43:01Z</time>
      </trkpt>
      <trkpt lat="45.50479" lon="6.7063">
        <ele>2064.1</ele>
        <time>2021-08-15T13:43:02Z</time>
      </trkpt>
      <trkpt lat="45.5048" lon="6.70631">
        <ele>2064.1</ele>
        <time>2021-08-15T13:43:03Z</time>
      </trkpt>
      <trkpt lat="45.5048" lon="6.70632">
        <ele>2064.1</ele>
        <time>2021-08-15T13:43:04Z</time>
      </trkpt>
      <trkpt lat="45.50481" lon="6.70633">
        <ele>2064.1</ele>
        <time>2021-08-15T13:43:05Z</time>
      </trkpt>
      <trkpt lat="45.50482" lon="6.70634">
        <ele>2064.1</ele>
        <time>2021-08-15T13:43:06Z</time>
      </trkpt>
      <trkpt lat="45.50482" lon="6.70635">
        <ele>2064</ele>
        <time>2021-08-15T13:43:07Z</time>
      </trkpt>
      <trkpt lat="45.50483" lon="6.70636">
        <ele>2064</ele>
        <time>2021-08-15T13:43:08Z</time>
      </trkpt>
      <trkpt lat="45.50484" lon="6.70637">
        <ele>2064</ele>
        <time>2021-08-15T13:43:09Z</time>
      </trkpt>
      <trkpt lat="45.50484" lon="6.70638">
        <ele>2064</ele>
        <time>2021-08-15T13:43:10Z</time>
      </trkpt>
      <trkpt lat="45.50485" lon="6.70639">
        <ele>2064</ele>
        <time>2021-08-15T13:43:11Z</time>
      </trkpt>
      <trkpt lat="45.50486" lon="6.7064">
        <ele>2064</ele>
        <time>2021-08-15T13:43:12Z</time>
      </trkpt>
      <trkpt lat="45.50486" lon="6.70641">
        <ele>2064</ele>
        <time>2021-08-15T13:43:13Z</time>
      </trkpt>
      <trkpt lat="45.50487" lon="6.70642">
        <ele>2064</ele>
        <time>2021-08-15T13:43:14Z</time>
      </trkpt>
      <trkpt lat="45.50488" lon="6.70643">
        <ele>2064</ele>
        <time>2021-08-15T13:43:15Z</time>
      </trkpt>
      <trkpt lat="45.50489" lon="6.70644">
        <ele>2064</ele>
        <time>2021-08-15T13:43:16Z</time>
      </trkpt>
      <trkpt lat="45.5049" lon="6.70645">
        <ele>2064</ele>
        <time>2021-08-15T13:43:17Z</time>
      </trkpt>
      <trkpt lat="45.5049" lon="6.70646">
        <ele>2064</ele>
        <time>2021-08-15T13:43:18Z</time>
      </trkpt>
      <trkpt lat="45.50491" lon="6.70647">
        <ele>2064</ele>
        <time>2021-08-15T13:43:19Z</time>
      </trkpt>
      <trkpt lat="45.50492" lon="6.70648">
        <ele>2064</ele>
        <time>2021-08-15T13:43:20Z</time>
      </trkpt>
      <trkpt lat="45.50493" lon="6.70649">
        <ele>2064.1</ele>
        <time>2021-08-15T13:43:21Z</time>
      </trkpt>
      <trkpt lat="45.50494" lon="6.7065">
        <ele>2064.1</ele>
        <time>2021-08-15T13:43:22Z</time>
      </trkpt>
      <trkpt lat="45.50495" lon="6.70651">
        <ele>2064.1</ele>
        <time>2021-08-15T13:43:23Z</time>
      </trkpt>
      <trkpt lat="45.50495" lon="6.70652">
        <ele>2064.1</ele>
        <time>2021-08-15T13:43:24Z</time>
      </trkpt>
      <trkpt lat="45.50496" lon="6.70653">
        <ele>2064.1</ele>
        <time>2021-08-15T13:43:25Z</time>
      </trkpt>
      <trkpt lat="45.50497" lon="6.70654">
        <ele>2064.2</ele>
        <time>2021-08-15T13:43:26Z</time>
      </trkpt>
      <trkpt lat="45.50497" lon="6.70655">
        <ele>2064.2</ele>
        <time>2021-08-15T13:43:27Z</time>
      </trkpt>
      <trkpt lat="45.50498" lon="6.70656">
        <ele>2064.2</ele>
        <time>2021-08-15T13:43:28Z</time>
      </trkpt>
      <trkpt lat="45.50498" lon="6.70657">
        <ele>2064.2</ele>
        <time>2021-08-15T13:43:29Z</time>
      </trkpt>
      <trkpt lat="45.50499" lon="6.70658">
        <ele>2064.2</ele>
        <time>2021-08-15T13:43:30Z</time>
      </trkpt>
      <trkpt lat="45.50499" lon="6.70659">
        <ele>2064.2</ele>
        <time>2021-08-15T13:43:31Z</time>
      </trkpt>
      <trkpt lat="45.505" lon="6.7066">
        <ele>2064.3</ele>
        <time>2021-08-15T13:43:32Z</time>
      </trkpt>
      <trkpt lat="45.50501" lon="6.70661">
        <ele>2064.3</ele>
        <time>2021-08-15T13:43:33Z</time>
      </trkpt>
      <trkpt lat="45.50501" lon="6.70662">
        <ele>2064.3</ele>
        <time>2021-08-15T13:43:34Z</time>
      </trkpt>
      <trkpt lat="45.50502" lon="6.70663">
        <ele>2064.3</ele>
        <time>2021-08-15T13:43:35Z</time>
      </trkpt>
      <trkpt lat="45.50503" lon="6.70664">
        <ele>2064.3</ele>
        <time>2021-08-15T13:43:36Z</time>
      </trkpt>
      <trkpt lat="45.50503" lon="6.70665">
        <ele>2064.3</ele>
        <time>2021-08-15T13:43:37Z</time>
      </trkpt>
      <trkpt lat="45.50504" lon="6.70666">
        <ele>2064.4</ele>
        <time>2021-08-15T13:43:38Z</time>
      </trkpt>
      <trkpt lat="45.50505" lon="6.70668">
        <ele>2064.4</ele>
        <time>2021-08-15T13:43:39Z</time>
      </trkpt>
      <trkpt lat="45.50506" lon="6.70669">
        <ele>2064.4</ele>
        <time>2021-08-15T13:43:40Z</time>
      </trkpt>
      <trkpt lat="45.50506" lon="6.7067">
        <ele>2064.4</ele>
        <time>2021-08-15T13:43:41Z</time>
      </trkpt>
      <trkpt lat="45.50507" lon="6.70671">
        <ele>2064.4</ele>
        <time>2021-08-15T13:43:42Z</time>
      </trkpt>
      <trkpt lat="45.50508" lon="6.70672">
        <ele>2064.4</ele>
        <time>2021-08-15T13:43:43Z</time>
      </trkpt>
      <trkpt lat="45.50508" lon="6.70673">
        <ele>2064.5</ele>
        <time>2021-08-15T13:43:44Z</time>
      </trkpt>
      <trkpt lat="45.50509" lon="6.70675">
        <ele>2064.5</ele>
        <time>2021-08-15T13:43:45Z</time>
      </trkpt>
      <trkpt lat="45.5051" lon="6.70676">
        <ele>2064.5</ele>
        <time>2021-08-15T13:43:46Z</time>
      </trkpt>
      <trkpt lat="45.5051" lon="6.70677">
        <ele>2064.5</ele>
        <time>2021-08-15T13:43:47Z</time>
      </trkpt>
      <trkpt lat="45.50511" lon="6.70678">
        <ele>2064.5</ele>
        <time>2021-08-15T13:43:48Z</time>
      </trkpt>
      <trkpt lat="45.50512" lon="6.70679">
        <ele>2064.5</ele>
        <time>2021-08-15T13:43:49Z</time>
      </trkpt>
      <trkpt lat="45.50512" lon="6.7068">
        <ele>2064.5</ele>
        <time>2021-08-15T13:43:50Z</time>
      </trkpt>
      <trkpt lat="45.50513" lon="6.70681">
        <ele>2064.5</ele>
        <time>2021-08-15T13:43:51Z</time>
      </trkpt>
      <trkpt lat="45.50514" lon="6.70682">
        <ele>2064.5</ele>
        <time>2021-08-15T13:43:52Z</time>
      </trkpt>
      <trkpt lat="45.50515" lon="6.70683">
        <ele>2064.4</ele>
        <time>2021-08-15T13:43:53Z</time>
      </trkpt>
      <trkpt lat="45.50516" lon="6.70684">
        <ele>2064.4</ele>
        <time>2021-08-15T13:43:54Z</time>
      </trkpt>
      <trkpt lat="45.50516" lon="6.70685">
        <ele>2064.4</ele>
        <time>2021-08-15T13:43:55Z</time>
      </trkpt>
      <trkpt lat="45.50517" lon="6.70686">
        <ele>2064.4</ele>
        <time>2021-08-15T13:43:56Z</time>
      </trkpt>
      <trkpt lat="45.50518" lon="6.70687">
        <ele>2064.4</ele>
        <time>2021-08-15T13:43:57Z</time>
      </trkpt>
      <trkpt lat="45.50519" lon="6.70688">
        <ele>2064.4</ele>
        <time>2021-08-15T13:43:58Z</time>
      </trkpt>
      <trkpt lat="45.5052" lon="6.70689">
        <ele>2064.4</ele>
        <time>2021-08-15T13:43:59Z</time>
      </trkpt>
      <trkpt lat="45.5052" lon="6.7069">
        <ele>2064.3</ele>
        <time>2021-08-15T13:44:00Z</time>
      </trkpt>
      <trkpt lat="45.50521" lon="6.70691">
        <ele>2064.3</ele>
        <time>2021-08-15T13:44:01Z</time>
      </trkpt>
      <trkpt lat="45.50522" lon="6.70691">
        <ele>2064.3</ele>
        <time>2021-08-15T13:44:02Z</time>
      </trkpt>
      <trkpt lat="45.50523" lon="6.70692">
        <ele>2064.3</ele>
        <time>2021-08-15T13:44:03Z</time>
      </trkpt>
      <trkpt lat="45.50524" lon="6.70693">
        <ele>2064.3</ele>
        <time>2021-08-15T13:44:04Z</time>
      </trkpt>
      <trkpt lat="45.50524" lon="6.70693">
        <ele>2064.2</ele>
        <time>2021-08-15T13:44:05Z</time>
      </trkpt>
      <trkpt lat="45.50525" lon="6.70694">
        <ele>2064.2</ele>
        <time>2021-08-15T13:44:06Z</time>
      </trkpt>
      <trkpt lat="45.50526" lon="6.70694">
        <ele>2064.2</ele>
        <time>2021-08-15T13:44:07Z</time>
      </trkpt>
      <trkpt lat="45.50527" lon="6.70695">
        <ele>2064.2</ele>
        <time>2021-08-15T13:44:08Z</time>
      </trkpt>
      <trkpt lat="45.50527" lon="6.70695">
        <ele>2064.2</ele>
        <time>2021-08-15T13:44:09Z</time>
      </trkpt>
      <trkpt lat="45.50528" lon="6.70696">
        <ele>2064.1</ele>
        <time>2021-08-15T13:44:10Z</time>
      </trkpt>
      <trkpt lat="45.50529" lon="6.70696">
        <ele>2064.1</ele>
        <time>2021-08-15T13:44:11Z</time>
      </trkpt>
      <trkpt lat="45.5053" lon="6.70697">
        <ele>2064.1</ele>
        <time>2021-08-15T13:44:12Z</time>
      </trkpt>
      <trkpt lat="45.5053" lon="6.70697">
        <ele>2064.1</ele>
        <time>2021-08-15T13:44:13Z</time>
      </trkpt>
      <trkpt lat="45.50531" lon="6.70698">
        <ele>2064</ele>
        <time>2021-08-15T13:44:14Z</time>
      </trkpt>
      <trkpt lat="45.50532" lon="6.70698">
        <ele>2064</ele>
        <time>2021-08-15T13:44:15Z</time>
      </trkpt>
      <trkpt lat="45.50533" lon="6.70699">
        <ele>2064</ele>
        <time>2021-08-15T13:44:16Z</time>
      </trkpt>
      <trkpt lat="45.50533" lon="6.70699">
        <ele>2064</ele>
        <time>2021-08-15T13:44:17Z</time>
      </trkpt>
      <trkpt lat="45.50534" lon="6.707">
        <ele>2063.9</ele>
        <time>2021-08-15T13:44:18Z</time>
      </trkpt>
      <trkpt lat="45.50535" lon="6.707">
        <ele>2063.9</ele>
        <time>2021-08-15T13:44:19Z</time>
      </trkpt>
      <trkpt lat="45.50536" lon="6.70701">
        <ele>2063.9</ele>
        <time>2021-08-15T13:44:20Z</time>
      </trkpt>
      <trkpt lat="45.50536" lon="6.70701">
        <ele>2063.8</ele>
        <time>2021-08-15T13:44:21Z</time>
      </trkpt>
      <trkpt lat="45.50537" lon="6.70702">
        <ele>2063.8</ele>
        <time>2021-08-15T13:44:22Z</time>
      </trkpt>
      <trkpt lat="45.50538" lon="6.70702">
        <ele>2063.8</ele>
        <time>2021-08-15T13:44:23Z</time>
      </trkpt>
      <trkpt lat="45.50539" lon="6.70703">
        <ele>2063.8</ele>
        <time>2021-08-15T13:44:24Z</time>
      </trkpt>
      <trkpt lat="45.5054" lon="6.70703">
        <ele>2063.7</ele>
        <time>2021-08-15T13:44:25Z</time>
      </trkpt>
      <trkpt lat="45.5054" lon="6.70704">
        <ele>2063.7</ele>
        <time>2021-08-15T13:44:26Z</time>
      </trkpt>
      <trkpt lat="45.50541" lon="6.70705">
        <ele>2063.7</ele>
        <time>2021-08-15T13:44:27Z</time>
      </trkpt>
      <trkpt lat="45.50542" lon="6.70705">
        <ele>2063.6</ele>
        <time>2021-08-15T13:44:28Z</time>
      </trkpt>
      <trkpt lat="45.50543" lon="6.70706">
        <ele>2063.6</ele>
        <time>2021-08-15T13:44:29Z</time>
      </trkpt>
      <trkpt lat="45.50544" lon="6.70707">
        <ele>2063.6</ele>
        <time>2021-08-15T13:44:30Z</time>
      </trkpt>
      <trkpt lat="45.50544" lon="6.70707">
        <ele>2063.6</ele>
        <time>2021-08-15T13:44:31Z</time>
      </trkpt>
      <trkpt lat="45.50545" lon="6.70708">
        <ele>2063.5</ele>
        <time>2021-08-15T13:44:32Z</time>
      </trkpt>
      <trkpt lat="45.50546" lon="6.70708">
        <ele>2063.5</ele>
        <time>2021-08-15T13:44:33Z</time>
      </trkpt>
      <trkpt lat="45.50547" lon="6.70709">
        <ele>2063.5</ele>
        <time>2021-08-15T13:44:34Z</time>
      </trkpt>
      <trkpt lat="45.50548" lon="6.7071">
        <ele>2063.4</ele>
        <time>2021-08-15T13:44:35Z</time>
      </trkpt>
      <trkpt lat="45.50549" lon="6.7071">
        <ele>2063.4</ele>
        <time>2021-08-15T13:44:36Z</time>
      </trkpt>
      <trkpt lat="45.5055" lon="6.70711">
        <ele>2063.4</ele>
        <time>2021-08-15T13:44:37Z</time>
      </trkpt>
      <trkpt lat="45.50551" lon="6.70712">
        <ele>2063.3</ele>
        <time>2021-08-15T13:44:38Z</time>
      </trkpt>
      <trkpt lat="45.50551" lon="6.70712">
        <ele>2063.3</ele>
        <time>2021-08-15T13:44:39Z</time>
      </trkpt>
      <trkpt lat="45.50552" lon="6.70713">
        <ele>2063.3</ele>
        <time>2021-08-15T13:44:40Z</time>
      </trkpt>
      <trkpt lat="45.50553" lon="6.70714">
        <ele>2063.2</ele>
        <time>2021-08-15T13:44:41Z</time>
      </trkpt>
      <trkpt lat="45.50554" lon="6.70714">
        <ele>2063.2</ele>
        <time>2021-08-15T13:44:42Z</time>
      </trkpt>
      <trkpt lat="45.50555" lon="6.70715">
        <ele>2063.1</ele>
        <time>2021-08-15T13:44:43Z</time>
      </trkpt>
      <trkpt lat="45.50556" lon="6.70716">
        <ele>2063.1</ele>
        <time>2021-08-15T13:44:44Z</time>
      </trkpt>
      <trkpt lat="45.50557" lon="6.70716">
        <ele>2063.1</ele>
        <time>2021-08-15T13:44:45Z</time>
      </trkpt>
      <trkpt lat="45.50558" lon="6.70717">
        <ele>2063</ele>
        <time>2021-08-15T13:44:46Z</time>
      </trkpt>
      <trkpt lat="45.50559" lon="6.70718">
        <ele>2063</ele>
        <time>2021-08-15T13:44:47Z</time>
      </trkpt>
      <trkpt lat="45.5056" lon="6.70718">
        <ele>2063</ele>
        <time>2021-08-15T13:44:48Z</time>
      </trkpt>
      <trkpt lat="45.50561" lon="6.70719">
        <ele>2062.9</ele>
        <time>2021-08-15T13:44:49Z</time>
      </trkpt>
      <trkpt lat="45.50561" lon="6.7072">
        <ele>2062.9</ele>
        <time>2021-08-15T13:44:50Z</time>
      </trkpt>
      <trkpt lat="45.50562" lon="6.7072">
        <ele>2062.9</ele>
        <time>2021-08-15T13:44:51Z</time>
      </trkpt>
      <trkpt lat="45.50563" lon="6.70721">
        <ele>2062.8</ele>
        <time>2021-08-15T13:44:52Z</time>
      </trkpt>
      <trkpt lat="45.50564" lon="6.70722">
        <ele>2062.8</ele>
        <time>2021-08-15T13:44:53Z</time>
      </trkpt>
      <trkpt lat="45.50565" lon="6.70722">
        <ele>2062.8</ele>
        <time>2021-08-15T13:44:54Z</time>
      </trkpt>
      <trkpt lat="45.50566" lon="6.70723">
        <ele>2062.7</ele>
        <time>2021-08-15T13:44:55Z</time>
      </trkpt>
      <trkpt lat="45.50567" lon="6.70723">
        <ele>2062.7</ele>
        <time>2021-08-15T13:44:56Z</time>
      </trkpt>
      <trkpt lat="45.50568" lon="6.70724">
        <ele>2062.7</ele>
        <time>2021-08-15T13:44:57Z</time>
      </trkpt>
      <trkpt lat="45.50569" lon="6.70724">
        <ele>2062.7</ele>
        <time>2021-08-15T13:44:58Z</time>
      </trkpt>
      <trkpt lat="45.5057" lon="6.70725">
        <ele>2062.6</ele>
        <time>2021-08-15T13:44:59Z</time>
      </trkpt>
      <trkpt lat="45.5057" lon="6.70725">
        <ele>2062.6</ele>
        <time>2021-08-15T13:45:00Z</time>
      </trkpt>
      <trkpt lat="45.50571" lon="6.70726">
        <ele>2062.6</ele>
        <time>2021-08-15T13:45:01Z</time>
      </trkpt>
      <trkpt lat="45.50572" lon="6.70726">
        <ele>2062.6</ele>
        <time>2021-08-15T13:45:02Z</time>
      </trkpt>
      <trkpt lat="45.50573" lon="6.70727">
        <ele>2062.6</ele>
        <time>2021-08-15T13:45:03Z</time>
      </trkpt>
      <trkpt lat="45.50574" lon="6.70727">
        <ele>2062.6</ele>
        <time>2021-08-15T13:45:04Z</time>
      </trkpt>
      <trkpt lat="45.50575" lon="6.70727">
        <ele>2062.5</ele>
        <time>2021-08-15T13:45:05Z</time>
      </trkpt>
      <trkpt lat="45.50576" lon="6.70728">
        <ele>2062.5</ele>
        <time>2021-08-15T13:45:06Z</time>
      </trkpt>
      <trkpt lat="45.50576" lon="6.70728">
        <ele>2062.5</ele>
        <time>2021-08-15T13:45:07Z</time>
      </trkpt>
      <trkpt lat="45.50577" lon="6.70729">
        <ele>2062.5</ele>
        <time>2021-08-15T13:45:08Z</time>
      </trkpt>
      <trkpt lat="45.50578" lon="6.70729">
        <ele>2062.5</ele>
        <time>2021-08-15T13:45:09Z</time>
      </trkpt>
      <trkpt lat="45.50579" lon="6.7073">
        <ele>2062.5</ele>
        <time>2021-08-15T13:45:10Z</time>
      </trkpt>
      <trkpt lat="45.50579" lon="6.7073">
        <ele>2062.5</ele>
        <time>2021-08-15T13:45:11Z</time>
      </trkpt>
      <trkpt lat="45.5058" lon="6.70731">
        <ele>2062.5</ele>
        <time>2021-08-15T13:45:12Z</time>
      </trkpt>
      <trkpt lat="45.50581" lon="6.70731">
        <ele>2062.5</ele>
        <time>2021-08-15T13:45:13Z</time>
      </trkpt>
      <trkpt lat="45.50581" lon="6.70732">
        <ele>2062.5</ele>
        <time>2021-08-15T13:45:14Z</time>
      </trkpt>
      <trkpt lat="45.50582" lon="6.70732">
        <ele>2062.5</ele>
        <time>2021-08-15T13:45:15Z</time>
      </trkpt>
      <trkpt lat="45.50583" lon="6.70733">
        <ele>2062.5</ele>
        <time>2021-08-15T13:45:16Z</time>
      </trkpt>
      <trkpt lat="45.50583" lon="6.70734">
        <ele>2062.5</ele>
        <time>2021-08-15T13:45:17Z</time>
      </trkpt>
      <trkpt lat="45.50584" lon="6.70734">
        <ele>2062.5</ele>
        <time>2021-08-15T13:45:18Z</time>
      </trkpt>
      <trkpt lat="45.50584" lon="6.70735">
        <ele>2062.5</ele>
        <time>2021-08-15T13:45:19Z</time>
      </trkpt>
      <trkpt lat="45.50585" lon="6.70736">
        <ele>2062.6</ele>
        <time>2021-08-15T13:45:20Z</time>
      </trkpt>
      <trkpt lat="45.50585" lon="6.70737">
        <ele>2062.6</ele>
        <time>2021-08-15T13:45:21Z</time>
      </trkpt>
      <trkpt lat="45.50585" lon="6.70738">
        <ele>2062.6</ele>
        <time>2021-08-15T13:45:22Z</time>
      </trkpt>
      <trkpt lat="45.50586" lon="6.70738">
        <ele>2062.6</ele>
        <time>2021-08-15T13:45:23Z</time>
      </trkpt>
      <trkpt lat="45.50586" lon="6.70739">
        <ele>2062.6</ele>
        <time>2021-08-15T13:45:24Z</time>
      </trkpt>
      <trkpt lat="45.50586" lon="6.7074">
        <ele>2062.6</ele>
        <time>2021-08-15T13:45:25Z</time>
      </trkpt>
      <trkpt lat="45.50586" lon="6.70741">
        <ele>2062.7</ele>
        <time>2021-08-15T13:45:26Z</time>
      </trkpt>
      <trkpt lat="45.50587" lon="6.70741">
        <ele>2062.7</ele>
        <time>2021-08-15T13:45:27Z</time>
      </trkpt>
      <trkpt lat="45.50587" lon="6.70742">
        <ele>2062.7</ele>
        <time>2021-08-15T13:45:28Z</time>
      </trkpt>
      <trkpt lat="45.50587" lon="6.70742">
        <ele>2062.8</ele>
        <time>2021-08-15T13:45:29Z</time>
      </trkpt>
      <trkpt lat="45.50587" lon="6.70742">
        <ele>2062.8</ele>
        <time>2021-08-15T13:45:30Z</time>
      </trkpt>
      <trkpt lat="45.50587" lon="6.70742">
        <ele>2062.8</ele>
        <time>2021-08-15T13:45:31Z</time>
      </trkpt>
      <trkpt lat="45.50587" lon="6.70742">
        <ele>2062.8</ele>
        <time>2021-08-15T13:45:32Z</time>
      </trkpt>
      <trkpt lat="45.50587" lon="6.70742">
        <ele>2062.8</ele>
        <time>2021-08-15T13:45:33Z</time>
      </trkpt>
      <trkpt lat="45.50587" lon="6.70742">
        <ele>2062.8</ele>
        <time>2021-08-15T13:45:34Z</time>
      </trkpt>
      <trkpt lat="45.50587" lon="6.70743">
        <ele>2062.8</ele>
        <time>2021-08-15T13:45:35Z</time>
      </trkpt>
      <trkpt lat="45.50587" lon="6.70743">
        <ele>2062.9</ele>
        <time>2021-08-15T13:45:36Z</time>
      </trkpt>
      <trkpt lat="45.50587" lon="6.70744">
        <ele>2062.9</ele>
        <time>2021-08-15T13:45:37Z</time>
      </trkpt>
      <trkpt lat="45.50588" lon="6.70745">
        <ele>2063</ele>
        <time>2021-08-15T13:45:38Z</time>
      </trkpt>
      <trkpt lat="45.50588" lon="6.70746">
        <ele>2063</ele>
        <time>2021-08-15T13:45:39Z</time>
      </trkpt>
      <trkpt lat="45.50588" lon="6.70746">
        <ele>2063.1</ele>
        <time>2021-08-15T13:45:40Z</time>
      </trkpt>
      <trkpt lat="45.50588" lon="6.70747">
        <ele>2063.2</ele>
        <time>2021-08-15T13:45:41Z</time>
      </trkpt>
      <trkpt lat="45.50588" lon="6.70749">
        <ele>2063.2</ele>
        <time>2021-08-15T13:45:42Z</time>
      </trkpt>
      <trkpt lat="45.50589" lon="6.7075">
        <ele>2063.3</ele>
        <time>2021-08-15T13:45:43Z</time>
      </trkpt>
      <trkpt lat="45.50589" lon="6.70751">
        <ele>2063.4</ele>
        <time>2021-08-15T13:45:44Z</time>
      </trkpt>
      <trkpt lat="45.50589" lon="6.70752">
        <ele>2063.5</ele>
        <time>2021-08-15T13:45:45Z</time>
      </trkpt>
      <trkpt lat="45.5059" lon="6.70753">
        <ele>2063.6</ele>
        <time>2021-08-15T13:45:46Z</time>
      </trkpt>
      <trkpt lat="45.5059" lon="6.70754">
        <ele>2063.7</ele>
        <time>2021-08-15T13:45:47Z</time>
      </trkpt>
      <trkpt lat="45.5059" lon="6.70755">
        <ele>2063.8</ele>
        <time>2021-08-15T13:45:48Z</time>
      </trkpt>
      <trkpt lat="45.5059" lon="6.70756">
        <ele>2063.8</ele>
        <time>2021-08-15T13:45:49Z</time>
      </trkpt>
      <trkpt lat="45.50591" lon="6.70757">
        <ele>2063.9</ele>
        <time>2021-08-15T13:45:50Z</time>
      </trkpt>
      <trkpt lat="45.50591" lon="6.70759">
        <ele>2064</ele>
        <time>2021-08-15T13:45:51Z</time>
      </trkpt>
      <trkpt lat="45.50591" lon="6.7076">
        <ele>2064.1</ele>
        <time>2021-08-15T13:45:52Z</time>
      </trkpt>
      <trkpt lat="45.50592" lon="6.7076">
        <ele>2064.2</ele>
        <time>2021-08-15T13:45:53Z</time>
      </trkpt>
      <trkpt lat="45.50592" lon="6.70761">
        <ele>2064.3</ele>
        <time>2021-08-15T13:45:54Z</time>
      </trkpt>
      <trkpt lat="45.50592" lon="6.70762">
        <ele>2064.3</ele>
        <time>2021-08-15T13:45:55Z</time>
      </trkpt>
      <trkpt lat="45.50592" lon="6.70763">
        <ele>2064.4</ele>
        <time>2021-08-15T13:45:56Z</time>
      </trkpt>
      <trkpt lat="45.50593" lon="6.70764">
        <ele>2064.5</ele>
        <time>2021-08-15T13:45:57Z</time>
      </trkpt>
      <trkpt lat="45.50593" lon="6.70764">
        <ele>2064.5</ele>
        <time>2021-08-15T13:45:58Z</time>
      </trkpt>
      <trkpt lat="45.50593" lon="6.70764">
        <ele>2064.5</ele>
        <time>2021-08-15T13:45:59Z</time>
      </trkpt>
      <trkpt lat="45.50593" lon="6.70765">
        <ele>2064.6</ele>
        <time>2021-08-15T13:46:00Z</time>
      </trkpt>
      <trkpt lat="45.50594" lon="6.70765">
        <ele>2064.6</ele>
        <time>2021-08-15T13:46:01Z</time>
      </trkpt>
      <trkpt lat="45.50594" lon="6.70766">
        <ele>2064.7</ele>
        <time>2021-08-15T13:46:02Z</time>
      </trkpt>
      <trkpt lat="45.50594" lon="6.70766">
        <ele>2064.7</ele>
        <time>2021-08-15T13:46:03Z</time>
      </trkpt>
      <trkpt lat="45.50594" lon="6.70767">
        <ele>2064.8</ele>
        <time>2021-08-15T13:46:04Z</time>
      </trkpt>
      <trkpt lat="45.50594" lon="6.70768">
        <ele>2064.8</ele>
        <time>2021-08-15T13:46:05Z</time>
      </trkpt>
      <trkpt lat="45.50594" lon="6.70769">
        <ele>2064.9</ele>
        <time>2021-08-15T13:46:06Z</time>
      </trkpt>
      <trkpt lat="45.50594" lon="6.7077">
        <ele>2065</ele>
        <time>2021-08-15T13:46:07Z</time>
      </trkpt>
      <trkpt lat="45.50594" lon="6.70771">
        <ele>2065.1</ele>
        <time>2021-08-15T13:46:08Z</time>
      </trkpt>
      <trkpt lat="45.50595" lon="6.70772">
        <ele>2065.2</ele>
        <time>2021-08-15T13:46:09Z</time>
      </trkpt>
      <trkpt lat="45.50595" lon="6.70773">
        <ele>2065.3</ele>
        <time>2021-08-15T13:46:10Z</time>
      </trkpt>
      <trkpt lat="45.50595" lon="6.70774">
        <ele>2065.4</ele>
        <time>2021-08-15T13:46:11Z</time>
      </trkpt>
      <trkpt lat="45.50596" lon="6.70774">
        <ele>2065.5</ele>
        <time>2021-08-15T13:46:12Z</time>
      </trkpt>
      <trkpt lat="45.50597" lon="6.70775">
        <ele>2065.6</ele>
        <time>2021-08-15T13:46:13Z</time>
      </trkpt>
      <trkpt lat="45.50597" lon="6.70776">
        <ele>2065.7</ele>
        <time>2021-08-15T13:46:14Z</time>
      </trkpt>
      <trkpt lat="45.50598" lon="6.70777">
        <ele>2065.8</ele>
        <time>2021-08-15T13:46:15Z</time>
      </trkpt>
      <trkpt lat="45.50598" lon="6.70778">
        <ele>2065.9</ele>
        <time>2021-08-15T13:46:16Z</time>
      </trkpt>
      <trkpt lat="45.50599" lon="6.70779">
        <ele>2066</ele>
        <time>2021-08-15T13:46:17Z</time>
      </trkpt>
      <trkpt lat="45.50599" lon="6.7078">
        <ele>2066.1</ele>
        <time>2021-08-15T13:46:18Z</time>
      </trkpt>
      <trkpt lat="45.506" lon="6.70781">
        <ele>2066.2</ele>
        <time>2021-08-15T13:46:19Z</time>
      </trkpt>
      <trkpt lat="45.50601" lon="6.70783">
        <ele>2066.4</ele>
        <time>2021-08-15T13:46:20Z</time>
      </trkpt>
      <trkpt lat="45.50601" lon="6.70784">
        <ele>2066.5</ele>
        <time>2021-08-15T13:46:21Z</time>
      </trkpt>
      <trkpt lat="45.50602" lon="6.70785">
        <ele>2066.6</ele>
        <time>2021-08-15T13:46:22Z</time>
      </trkpt>
      <trkpt lat="45.50602" lon="6.70786">
        <ele>2066.7</ele>
        <time>2021-08-15T13:46:23Z</time>
      </trkpt>
      <trkpt lat="45.50602" lon="6.70787">
        <ele>2066.8</ele>
        <time>2021-08-15T13:46:24Z</time>
      </trkpt>
      <trkpt lat="45.50603" lon="6.70788">
        <ele>2066.9</ele>
        <time>2021-08-15T13:46:25Z</time>
      </trkpt>
      <trkpt lat="45.50603" lon="6.7079">
        <ele>2067</ele>
        <time>2021-08-15T13:46:26Z</time>
      </trkpt>
      <trkpt lat="45.50604" lon="6.70791">
        <ele>2067.1</ele>
        <time>2021-08-15T13:46:27Z</time>
      </trkpt>
      <trkpt lat="45.50604" lon="6.70792">
        <ele>2067.3</ele>
        <time>2021-08-15T13:46:28Z</time>
      </trkpt>
      <trkpt lat="45.50604" lon="6.70793">
        <ele>2067.3</ele>
        <time>2021-08-15T13:46:29Z</time>
      </trkpt>
      <trkpt lat="45.50604" lon="6.70794">
        <ele>2067.4</ele>
        <time>2021-08-15T13:46:30Z</time>
      </trkpt>
      <trkpt lat="45.50604" lon="6.70795">
        <ele>2067.4</ele>
        <time>2021-08-15T13:46:31Z</time>
      </trkpt>
      <trkpt lat="45.50604" lon="6.70796">
        <ele>2067.5</ele>
        <time>2021-08-15T13:46:32Z</time>
      </trkpt>
      <trkpt lat="45.50604" lon="6.70797">
        <ele>2067.5</ele>
        <time>2021-08-15T13:46:33Z</time>
      </trkpt>
      <trkpt lat="45.50603" lon="6.70798">
        <ele>2067.5</ele>
        <time>2021-08-15T13:46:34Z</time>
      </trkpt>
      <trkpt lat="45.50603" lon="6.70798">
        <ele>2067.6</ele>
        <time>2021-08-15T13:46:35Z</time>
      </trkpt>
      <trkpt lat="45.50602" lon="6.70798">
        <ele>2067.6</ele>
        <time>2021-08-15T13:46:36Z</time>
      </trkpt>
      <trkpt lat="45.50601" lon="6.70799">
        <ele>2067.7</ele>
        <time>2021-08-15T13:46:37Z</time>
      </trkpt>
      <trkpt lat="45.506" lon="6.70799">
        <ele>2067.7</ele>
        <time>2021-08-15T13:46:38Z</time>
      </trkpt>
      <trkpt lat="45.50599" lon="6.70799">
        <ele>2067.8</ele>
        <time>2021-08-15T13:46:39Z</time>
      </trkpt>
      <trkpt lat="45.50599" lon="6.70799">
        <ele>2067.8</ele>
        <time>2021-08-15T13:46:40Z</time>
      </trkpt>
      <trkpt lat="45.50598" lon="6.70799">
        <ele>2067.8</ele>
        <time>2021-08-15T13:46:41Z</time>
      </trkpt>
      <trkpt lat="45.50598" lon="6.70799">
        <ele>2067.9</ele>
        <time>2021-08-15T13:46:42Z</time>
      </trkpt>
      <trkpt lat="45.50597" lon="6.70799">
        <ele>2067.9</ele>
        <time>2021-08-15T13:46:43Z</time>
      </trkpt>
      <trkpt lat="45.50597" lon="6.70799">
        <ele>2067.9</ele>
        <time>2021-08-15T13:46:44Z</time>
      </trkpt>
      <trkpt lat="45.50596" lon="6.70799">
        <ele>2067.9</ele>
        <time>2021-08-15T13:46:45Z</time>
      </trkpt>
      <trkpt lat="45.50596" lon="6.70799">
        <ele>2067.9</ele>
        <time>2021-08-15T13:46:46Z</time>
      </trkpt>
      <trkpt lat="45.50596" lon="6.70799">
        <ele>2067.9</ele>
        <time>2021-08-15T13:46:47Z</time>
      </trkpt>
      <trkpt lat="45.50596" lon="6.70798">
        <ele>2068</ele>
        <time>2021-08-15T13:46:48Z</time>
      </trkpt>
      <trkpt lat="45.50595" lon="6.70798">
        <ele>2068</ele>
        <time>2021-08-15T13:46:49Z</time>
      </trkpt>
      <trkpt lat="45.50595" lon="6.70798">
        <ele>2068</ele>
        <time>2021-08-15T13:46:50Z</time>
      </trkpt>
      <trkpt lat="45.50595" lon="6.70798">
        <ele>2068</ele>
        <time>2021-08-15T13:46:51Z</time>
      </trkpt>
      <trkpt lat="45.50595" lon="6.70798">
        <ele>2068</ele>
        <time>2021-08-15T13:46:52Z</time>
      </trkpt>
      <trkpt lat="45.50595" lon="6.70798">
        <ele>2068</ele>
        <time>2021-08-15T13:46:53Z</time>
      </trkpt>
      <trkpt lat="45.50595" lon="6.70798">
        <ele>2068</ele>
        <time>2021-08-15T13:46:54Z</time>
      </trkpt>
      <trkpt lat="45.50595" lon="6.70798">
        <ele>2068</ele>
        <time>2021-08-15T13:46:55Z</time>
      </trkpt>
      <trkpt lat="45.50595" lon="6.70798">
        <ele>2068</ele>
        <time>2021-08-15T13:46:56Z</time>
      </trkpt>
      <trkpt lat="45.50595" lon="6.70798">
        <ele>2068</ele>
        <time>2021-08-15T13:46:57Z</time>
      </trkpt>
      <trkpt lat="45.50595" lon="6.70798">
        <ele>2068</ele>
        <time>2021-08-15T13:46:58Z</time>
      </trkpt>
      <trkpt lat="45.50595" lon="6.70798">
        <ele>2068</ele>
        <time>2021-08-15T13:46:59Z</time>
      </trkpt>
      <trkpt lat="45.50595" lon="6.70798">
        <ele>2068</ele>
        <time>2021-08-15T13:47:00Z</time>
      </trkpt>
      <trkpt lat="45.50595" lon="6.70798">
        <ele>2068</ele>
        <time>2021-08-15T13:47:01Z</time>
      </trkpt>
      <trkpt lat="45.50595" lon="6.70798">
        <ele>2068</ele>
        <time>2021-08-15T13:47:02Z</time>
      </trkpt>
      <trkpt lat="45.50595" lon="6.70798">
        <ele>2068</ele>
        <time>2021-08-15T13:47:03Z</time>
      </trkpt>
      <trkpt lat="45.50595" lon="6.70798">
        <ele>2068</ele>
        <time>2021-08-15T13:47:04Z</time>
      </trkpt>
      <trkpt lat="45.50595" lon="6.70798">
        <ele>2068</ele>
        <time>2021-08-15T13:47:05Z</time>
      </trkpt>
      <trkpt lat="45.50595" lon="6.70798">
        <ele>2068</ele>
        <time>2021-08-15T13:47:06Z</time>
      </trkpt>
      <trkpt lat="45.50595" lon="6.70798">
        <ele>2068</ele>
        <time>2021-08-15T13:47:07Z</time>
      </trkpt>
      <trkpt lat="45.50595" lon="6.70798">
        <ele>2068</ele>
        <time>2021-08-15T13:47:08Z</time>
      </trkpt>
      <trkpt lat="45.50595" lon="6.70798">
        <ele>2068</ele>
        <time>2021-08-15T13:47:09Z</time>
      </trkpt>
      <trkpt lat="45.50595" lon="6.70798">
        <ele>2068</ele>
        <time>2021-08-15T13:47:10Z</time>
      </trkpt>
      <trkpt lat="45.50595" lon="6.70798">
        <ele>2068</ele>
        <time>2021-08-15T13:47:11Z</time>
      </trkpt>
      <trkpt lat="45.50595" lon="6.70798">
        <ele>2068</ele>
        <time>2021-08-15T13:47:12Z</time>
      </trkpt>
      <trkpt lat="45.50595" lon="6.70798">
        <ele>2068</ele>
        <time>2021-08-15T13:47:13Z</time>
      </trkpt>
      <trkpt lat="45.50595" lon="6.70798">
        <ele>2068</ele>
        <time>2021-08-15T13:47:14Z</time>
      </trkpt>
      <trkpt lat="45.50595" lon="6.70798">
        <ele>2068</ele>
        <time>2021-08-15T13:47:15Z</time>
      </trkpt>
      <trkpt lat="45.50595" lon="6.70798">
        <ele>2068</ele>
        <time>2021-08-15T13:47:16Z</time>
      </trkpt>
      <trkpt lat="45.50595" lon="6.70798">
        <ele>2068</ele>
        <time>2021-08-15T13:47:17Z</time>
      </trkpt>
      <trkpt lat="45.50595" lon="6.70798">
        <ele>2068</ele>
        <time>2021-08-15T13:47:18Z</time>
      </trkpt>
      <trkpt lat="45.50595" lon="6.70798">
        <ele>2068</ele>
        <time>2021-08-15T13:47:19Z</time>
      </trkpt>
      <trkpt lat="45.50595" lon="6.70798">
        <ele>2068</ele>
        <time>2021-08-15T13:47:20Z</time>
      </trkpt>
      <trkpt lat="45.50595" lon="6.70798">
        <ele>2068</ele>
        <time>2021-08-15T13:47:21Z</time>
      </trkpt>
      <trkpt lat="45.50595" lon="6.70798">
        <ele>2068</ele>
        <time>2021-08-15T13:47:22Z</time>
      </trkpt>
      <trkpt lat="45.50595" lon="6.70798">
        <ele>2068</ele>
        <time>2021-08-15T13:47:23Z</time>
      </trkpt>
      <trkpt lat="45.50595" lon="6.70798">
        <ele>2068</ele>
        <time>2021-08-15T13:47:24Z</time>
      </trkpt>
      <trkpt lat="45.50595" lon="6.70798">
        <ele>2068</ele>
        <time>2021-08-15T13:47:25Z</time>
      </trkpt>
      <trkpt lat="45.50595" lon="6.70798">
        <ele>2068</ele>
        <time>2021-08-15T13:47:26Z</time>
      </trkpt>
      <trkpt lat="45.50595" lon="6.70798">
        <ele>2068</ele>
        <time>2021-08-15T13:47:27Z</time>
      </trkpt>
      <trkpt lat="45.50595" lon="6.70798">
        <ele>2068</ele>
        <time>2021-08-15T13:47:28Z</time>
      </trkpt>
      <trkpt lat="45.50595" lon="6.70798">
        <ele>2068</ele>
        <time>2021-08-15T13:47:29Z</time>
      </trkpt>
      <trkpt lat="45.50595" lon="6.70798">
        <ele>2068</ele>
        <time>2021-08-15T13:47:30Z</time>
      </trkpt>
      <trkpt lat="45.50595" lon="6.70798">
        <ele>2068</ele>
        <time>2021-08-15T13:47:31Z</time>
      </trkpt>
      <trkpt lat="45.50595" lon="6.70798">
        <ele>2068</ele>
        <time>2021-08-15T13:47:32Z</time>
      </trkpt>
      <trkpt lat="45.50595" lon="6.70798">
        <ele>2068</ele>
        <time>2021-08-15T13:47:33Z</time>
      </trkpt>
      <trkpt lat="45.50595" lon="6.70798">
        <ele>2068</ele>
        <time>2021-08-15T13:47:34Z</time>
      </trkpt>
      <trkpt lat="45.50595" lon="6.70798">
        <ele>2068</ele>
        <time>2021-08-15T13:47:35Z</time>
      </trkpt>
      <trkpt lat="45.50595" lon="6.70798">
        <ele>2068</ele>
        <time>2021-08-15T13:47:36Z</time>
      </trkpt>
      <trkpt lat="45.50595" lon="6.70798">
        <ele>2068</ele>
        <time>2021-08-15T13:47:37Z</time>
      </trkpt>
      <trkpt lat="45.50595" lon="6.70798">
        <ele>2068</ele>
        <time>2021-08-15T13:47:38Z</time>
      </trkpt>
      <trkpt lat="45.50595" lon="6.70798">
        <ele>2068</ele>
        <time>2021-08-15T13:47:39Z</time>
      </trkpt>
      <trkpt lat="45.50595" lon="6.70798">
        <ele>2068</ele>
        <time>2021-08-15T13:47:40Z</time>
      </trkpt>
      <trkpt lat="45.50595" lon="6.70798">
        <ele>2068</ele>
        <time>2021-08-15T13:47:41Z</time>
      </trkpt>
      <trkpt lat="45.50595" lon="6.70798">
        <ele>2068</ele>
        <time>2021-08-15T13:47:42Z</time>
      </trkpt>
      <trkpt lat="45.50595" lon="6.70798">
        <ele>2068</ele>
        <time>2021-08-15T13:47:43Z</time>
      </trkpt>
      <trkpt lat="45.50595" lon="6.70798">
        <ele>2068</ele>
        <time>2021-08-15T13:47:44Z</time>
      </trkpt>
      <trkpt lat="45.50595" lon="6.70798">
        <ele>2068</ele>
        <time>2021-08-15T13:47:45Z</time>
      </trkpt>
      <trkpt lat="45.50595" lon="6.70798">
        <ele>2068</ele>
        <time>2021-08-15T13:47:46Z</time>
      </trkpt>
      <trkpt lat="45.50595" lon="6.70798">
        <ele>2068</ele>
        <time>2021-08-15T13:47:47Z</time>
      </trkpt>
      <trkpt lat="45.50595" lon="6.70798">
        <ele>2068</ele>
        <time>2021-08-15T13:47:48Z</time>
      </trkpt>
      <trkpt lat="45.50595" lon="6.70798">
        <ele>2068</ele>
        <time>2021-08-15T13:47:49Z</time>
      </trkpt>
      <trkpt lat="45.50595" lon="6.70798">
        <ele>2068</ele>
        <time>2021-08-15T13:47:50Z</time>
      </trkpt>
      <trkpt lat="45.50595" lon="6.70798">
        <ele>2068</ele>
        <time>2021-08-15T13:47:51Z</time>
      </trkpt>
      <trkpt lat="45.50595" lon="6.70798">
        <ele>2068</ele>
        <time>2021-08-15T13:47:52Z</time>
      </trkpt>
      <trkpt lat="45.50595" lon="6.70798">
        <ele>2068</ele>
        <time>2021-08-15T13:47:53Z</time>
      </trkpt>
      <trkpt lat="45.50595" lon="6.70798">
        <ele>2068</ele>
        <time>2021-08-15T13:47:54Z</time>
      </trkpt>
      <trkpt lat="45.50595" lon="6.70798">
        <ele>2068</ele>
        <time>2021-08-15T13:47:55Z</time>
      </trkpt>
      <trkpt lat="45.50595" lon="6.70798">
        <ele>2068</ele>
        <time>2021-08-15T13:47:56Z</time>
      </trkpt>
      <trkpt lat="45.50595" lon="6.70798">
        <ele>2068</ele>
        <time>2021-08-15T13:47:57Z</time>
      </trkpt>
      <trkpt lat="45.50595" lon="6.70799">
        <ele>2068</ele>
        <time>2021-08-15T13:47:58Z</time>
      </trkpt>
      <trkpt lat="45.50595" lon="6.70799">
        <ele>2068</ele>
        <time>2021-08-15T13:47:59Z</time>
      </trkpt>
      <trkpt lat="45.50595" lon="6.70799">
        <ele>2068</ele>
        <time>2021-08-15T13:48:00Z</time>
      </trkpt>
      <trkpt lat="45.50595" lon="6.70799">
        <ele>2068</ele>
        <time>2021-08-15T13:48:01Z</time>
      </trkpt>
      <trkpt lat="45.50595" lon="6.70799">
        <ele>2068</ele>
        <time>2021-08-15T13:48:02Z</time>
      </trkpt>
      <trkpt lat="45.50595" lon="6.70799">
        <ele>2068</ele>
        <time>2021-08-15T13:48:03Z</time>
      </trkpt>
      <trkpt lat="45.50595" lon="6.70799">
        <ele>2068</ele>
        <time>2021-08-15T13:48:04Z</time>
      </trkpt>
      <trkpt lat="45.50595" lon="6.70799">
        <ele>2068</ele>
        <time>2021-08-15T13:48:05Z</time>
      </trkpt>
      <trkpt lat="45.50595" lon="6.70799">
        <ele>2068</ele>
        <time>2021-08-15T13:48:06Z</time>
      </trkpt>
      <trkpt lat="45.50595" lon="6.70799">
        <ele>2068</ele>
        <time>2021-08-15T13:48:07Z</time>
      </trkpt>
      <trkpt lat="45.50595" lon="6.70799">
        <ele>2068</ele>
        <time>2021-08-15T13:48:08Z</time>
      </trkpt>
      <trkpt lat="45.50595" lon="6.70799">
        <ele>2068</ele>
        <time>2021-08-15T13:48:09Z</time>
      </trkpt>
      <trkpt lat="45.50595" lon="6.70799">
        <ele>2068</ele>
        <time>2021-08-15T13:48:10Z</time>
      </trkpt>
      <trkpt lat="45.50595" lon="6.70799">
        <ele>2068</ele>
        <time>2021-08-15T13:48:11Z</time>
      </trkpt>
      <trkpt lat="45.50595" lon="6.70799">
        <ele>2068</ele>
        <time>2021-08-15T13:48:12Z</time>
      </trkpt>
      <trkpt lat="45.50595" lon="6.70799">
        <ele>2068</ele>
        <time>2021-08-15T13:48:13Z</time>
      </trkpt>
      <trkpt lat="45.50595" lon="6.70799">
        <ele>2068</ele>
        <time>2021-08-15T13:48:14Z</time>
      </trkpt>
      <trkpt lat="45.50595" lon="6.70799">
        <ele>2068</ele>
        <time>2021-08-15T13:48:15Z</time>
      </trkpt>
      <trkpt lat="45.50595" lon="6.70799">
        <ele>2068</ele>
        <time>2021-08-15T13:48:16Z</time>
      </trkpt>
      <trkpt lat="45.50595" lon="6.70799">
        <ele>2068</ele>
        <time>2021-08-15T13:48:17Z</time>
      </trkpt>
      <trkpt lat="45.50595" lon="6.70799">
        <ele>2068</ele>
        <time>2021-08-15T13:48:18Z</time>
      </trkpt>
      <trkpt lat="45.50595" lon="6.70799">
        <ele>2068</ele>
        <time>2021-08-15T13:48:19Z</time>
      </trkpt>
      <trkpt lat="45.50595" lon="6.70799">
        <ele>2068</ele>
        <time>2021-08-15T13:48:20Z</time>
      </trkpt>
      <trkpt lat="45.50595" lon="6.70799">
        <ele>2068</ele>
        <time>2021-08-15T13:48:21Z</time>
      </trkpt>
      <trkpt lat="45.50595" lon="6.70799">
        <ele>2068</ele>
        <time>2021-08-15T13:48:22Z</time>
      </trkpt>
      <trkpt lat="45.50595" lon="6.70799">
        <ele>2068</ele>
        <time>2021-08-15T13:48:23Z</time>
      </trkpt>
      <trkpt lat="45.50595" lon="6.70799">
        <ele>2068</ele>
        <time>2021-08-15T13:48:24Z</time>
      </trkpt>
      <trkpt lat="45.50595" lon="6.70799">
        <ele>2068</ele>
        <time>2021-08-15T13:48:25Z</time>
      </trkpt>
      <trkpt lat="45.50595" lon="6.70799">
        <ele>2068</ele>
        <time>2021-08-15T13:48:26Z</time>
      </trkpt>
      <trkpt lat="45.50595" lon="6.70799">
        <ele>2068</ele>
        <time>2021-08-15T13:48:27Z</time>
      </trkpt>
      <trkpt lat="45.50595" lon="6.70799">
        <ele>2068</ele>
        <time>2021-08-15T13:48:28Z</time>
      </trkpt>
      <trkpt lat="45.50595" lon="6.70799">
        <ele>2068</ele>
        <time>2021-08-15T13:48:29Z</time>
      </trkpt>
      <trkpt lat="45.50595" lon="6.70799">
        <ele>2068</ele>
        <time>2021-08-15T13:48:30Z</time>
      </trkpt>
      <trkpt lat="45.50595" lon="6.708">
        <ele>2068</ele>
        <time>2021-08-15T13:48:31Z</time>
      </trkpt>
      <trkpt lat="45.50595" lon="6.708">
        <ele>2068</ele>
        <time>2021-08-15T13:48:32Z</time>
      </trkpt>
      <trkpt lat="45.50595" lon="6.708">
        <ele>2068</ele>
        <time>2021-08-15T13:48:33Z</time>
      </trkpt>
      <trkpt lat="45.50595" lon="6.708">
        <ele>2068</ele>
        <time>2021-08-15T13:48:34Z</time>
      </trkpt>
      <trkpt lat="45.50595" lon="6.708">
        <ele>2068</ele>
        <time>2021-08-15T13:48:35Z</time>
      </trkpt>
      <trkpt lat="45.50595" lon="6.708">
        <ele>2068</ele>
        <time>2021-08-15T13:48:36Z</time>
      </trkpt>
      <trkpt lat="45.50595" lon="6.708">
        <ele>2068</ele>
        <time>2021-08-15T13:48:37Z</time>
      </trkpt>
      <trkpt lat="45.50595" lon="6.708">
        <ele>2068</ele>
        <time>2021-08-15T13:48:38Z</time>
      </trkpt>
      <trkpt lat="45.50595" lon="6.708">
        <ele>2068</ele>
        <time>2021-08-15T13:48:39Z</time>
      </trkpt>
      <trkpt lat="45.50595" lon="6.708">
        <ele>2068</ele>
        <time>2021-08-15T13:48:40Z</time>
      </trkpt>
      <trkpt lat="45.50595" lon="6.708">
        <ele>2068</ele>
        <time>2021-08-15T13:48:41Z</time>
      </trkpt>
      <trkpt lat="45.50595" lon="6.708">
        <ele>2068</ele>
        <time>2021-08-15T13:48:42Z</time>
      </trkpt>
      <trkpt lat="45.50595" lon="6.708">
        <ele>2068</ele>
        <time>2021-08-15T13:48:43Z</time>
      </trkpt>
      <trkpt lat="45.50595" lon="6.708">
        <ele>2068</ele>
        <time>2021-08-15T13:48:44Z</time>
      </trkpt>
      <trkpt lat="45.50595" lon="6.708">
        <ele>2068</ele>
        <time>2021-08-15T13:48:45Z</time>
      </trkpt>
      <trkpt lat="45.50595" lon="6.708">
        <ele>2068</ele>
        <time>2021-08-15T13:48:46Z</time>
      </trkpt>
      <trkpt lat="45.50595" lon="6.708">
        <ele>2068</ele>
        <time>2021-08-15T13:48:47Z</time>
      </trkpt>
      <trkpt lat="45.50595" lon="6.708">
        <ele>2068</ele>
        <time>2021-08-15T13:48:48Z</time>
      </trkpt>
      <trkpt lat="45.50595" lon="6.708">
        <ele>2068</ele>
        <time>2021-08-15T13:48:49Z</time>
      </trkpt>
      <trkpt lat="45.50595" lon="6.708">
        <ele>2068</ele>
        <time>2021-08-15T13:48:50Z</time>
      </trkpt>
      <trkpt lat="45.50595" lon="6.708">
        <ele>2068</ele>
        <time>2021-08-15T13:48:51Z</time>
      </trkpt>
      <trkpt lat="45.50595" lon="6.708">
        <ele>2068</ele>
        <time>2021-08-15T13:48:52Z</time>
      </trkpt>
      <trkpt lat="45.50595" lon="6.708">
        <ele>2068</ele>
        <time>2021-08-15T13:48:53Z</time>
      </trkpt>
      <trkpt lat="45.50595" lon="6.708">
        <ele>2068</ele>
        <time>2021-08-15T13:48:54Z</time>
      </trkpt>
      <trkpt lat="45.50595" lon="6.708">
        <ele>2068</ele>
        <time>2021-08-15T13:48:55Z</time>
      </trkpt>
      <trkpt lat="45.50595" lon="6.708">
        <ele>2068</ele>
        <time>2021-08-15T13:48:56Z</time>
      </trkpt>
      <trkpt lat="45.50595" lon="6.708">
        <ele>2068</ele>
        <time>2021-08-15T13:48:57Z</time>
      </trkpt>
      <trkpt lat="45.50595" lon="6.708">
        <ele>2068</ele>
        <time>2021-08-15T13:48:58Z</time>
      </trkpt>
      <trkpt lat="45.50595" lon="6.708">
        <ele>2068</ele>
        <time>2021-08-15T13:48:59Z</time>
      </trkpt>
      <trkpt lat="45.50595" lon="6.708">
        <ele>2068</ele>
        <time>2021-08-15T13:49:00Z</time>
      </trkpt>
      <trkpt lat="45.50595" lon="6.708">
        <ele>2068</ele>
        <time>2021-08-15T13:49:01Z</time>
      </trkpt>
      <trkpt lat="45.50595" lon="6.708">
        <ele>2068</ele>
        <time>2021-08-15T13:49:02Z</time>
      </trkpt>
      <trkpt lat="45.50595" lon="6.708">
        <ele>2068</ele>
        <time>2021-08-15T13:49:03Z</time>
      </trkpt>
      <trkpt lat="45.50595" lon="6.708">
        <ele>2068</ele>
        <time>2021-08-15T13:49:04Z</time>
      </trkpt>
      <trkpt lat="45.50595" lon="6.708">
        <ele>2068</ele>
        <time>2021-08-15T13:49:05Z</time>
      </trkpt>
      <trkpt lat="45.50595" lon="6.708">
        <ele>2068</ele>
        <time>2021-08-15T13:49:06Z</time>
      </trkpt>
      <trkpt lat="45.50595" lon="6.708">
        <ele>2068</ele>
        <time>2021-08-15T13:49:07Z</time>
      </trkpt>
      <trkpt lat="45.50595" lon="6.708">
        <ele>2068</ele>
        <time>2021-08-15T13:49:08Z</time>
      </trkpt>
      <trkpt lat="45.50595" lon="6.708">
        <ele>2068</ele>
        <time>2021-08-15T13:49:09Z</time>
      </trkpt>
      <trkpt lat="45.50595" lon="6.708">
        <ele>2068</ele>
        <time>2021-08-15T13:49:10Z</time>
      </trkpt>
      <trkpt lat="45.50595" lon="6.708">
        <ele>2068</ele>
        <time>2021-08-15T13:49:11Z</time>
      </trkpt>
      <trkpt lat="45.50595" lon="6.708">
        <ele>2068</ele>
        <time>2021-08-15T13:49:12Z</time>
      </trkpt>
      <trkpt lat="45.50595" lon="6.708">
        <ele>2068</ele>
        <time>2021-08-15T13:49:13Z</time>
      </trkpt>
      <trkpt lat="45.50595" lon="6.708">
        <ele>2068</ele>
        <time>2021-08-15T13:49:14Z</time>
      </trkpt>
      <trkpt lat="45.50595" lon="6.708">
        <ele>2068</ele>
        <time>2021-08-15T13:49:15Z</time>
      </trkpt>
      <trkpt lat="45.50595" lon="6.708">
        <ele>2068</ele>
        <time>2021-08-15T13:49:16Z</time>
      </trkpt>
      <trkpt lat="45.50595" lon="6.708">
        <ele>2068</ele>
        <time>2021-08-15T13:49:17Z</time>
      </trkpt>
      <trkpt lat="45.50595" lon="6.708">
        <ele>2068</ele>
        <time>2021-08-15T13:49:18Z</time>
      </trkpt>
      <trkpt lat="45.50595" lon="6.708">
        <ele>2068</ele>
        <time>2021-08-15T13:49:19Z</time>
      </trkpt>
      <trkpt lat="45.50595" lon="6.708">
        <ele>2068</ele>
        <time>2021-08-15T13:49:20Z</time>
      </trkpt>
      <trkpt lat="45.50595" lon="6.708">
        <ele>2068</ele>
        <time>2021-08-15T13:49:21Z</time>
      </trkpt>
      <trkpt lat="45.50595" lon="6.708">
        <ele>2068</ele>
        <time>2021-08-15T13:49:22Z</time>
      </trkpt>
      <trkpt lat="45.50595" lon="6.708">
        <ele>2068</ele>
        <time>2021-08-15T13:49:23Z</time>
      </trkpt>
      <trkpt lat="45.50595" lon="6.708">
        <ele>2068</ele>
        <time>2021-08-15T13:49:24Z</time>
      </trkpt>
      <trkpt lat="45.50595" lon="6.708">
        <ele>2068</ele>
        <time>2021-08-15T13:49:25Z</time>
      </trkpt>
      <trkpt lat="45.50595" lon="6.708">
        <ele>2068</ele>
        <time>2021-08-15T13:49:26Z</time>
      </trkpt>
      <trkpt lat="45.50595" lon="6.708">
        <ele>2068</ele>
        <time>2021-08-15T13:49:27Z</time>
      </trkpt>
      <trkpt lat="45.50595" lon="6.708">
        <ele>2068</ele>
        <time>2021-08-15T13:49:28Z</time>
      </trkpt>
      <trkpt lat="45.50595" lon="6.708">
        <ele>2068</ele>
        <time>2021-08-15T13:49:29Z</time>
      </trkpt>
      <trkpt lat="45.50595" lon="6.708">
        <ele>2068</ele>
        <time>2021-08-15T13:49:30Z</time>
      </trkpt>
      <trkpt lat="45.50595" lon="6.708">
        <ele>2068</ele>
        <time>2021-08-15T13:49:31Z</time>
      </trkpt>
      <trkpt lat="45.50595" lon="6.708">
        <ele>2068</ele>
        <time>2021-08-15T13:49:32Z</time>
      </trkpt>
      <trkpt lat="45.50595" lon="6.708">
        <ele>2068</ele>
        <time>2021-08-15T13:49:33Z</time>
      </trkpt>
      <trkpt lat="45.50595" lon="6.708">
        <ele>2068</ele>
        <time>2021-08-15T13:49:34Z</time>
      </trkpt>
      <trkpt lat="45.50595" lon="6.708">
        <ele>2068</ele>
        <time>2021-08-15T13:49:35Z</time>
      </trkpt>
      <trkpt lat="45.50595" lon="6.708">
        <ele>2068</ele>
        <time>2021-08-15T13:49:36Z</time>
      </trkpt>
      <trkpt lat="45.50595" lon="6.708">
        <ele>2068</ele>
        <time>2021-08-15T13:49:37Z</time>
      </trkpt>
      <trkpt lat="45.50595" lon="6.708">
        <ele>2068</ele>
        <time>2021-08-15T13:49:38Z</time>
      </trkpt>
      <trkpt lat="45.50595" lon="6.708">
        <ele>2068</ele>
        <time>2021-08-15T13:49:39Z</time>
      </trkpt>
      <trkpt lat="45.50595" lon="6.708">
        <ele>2068</ele>
        <time>2021-08-15T13:49:40Z</time>
      </trkpt>
      <trkpt lat="45.50595" lon="6.708">
        <ele>2068</ele>
        <time>2021-08-15T13:49:41Z</time>
      </trkpt>
      <trkpt lat="45.50595" lon="6.708">
        <ele>2068</ele>
        <time>2021-08-15T13:49:42Z</time>
      </trkpt>
      <trkpt lat="45.50595" lon="6.708">
        <ele>2068</ele>
        <time>2021-08-15T13:49:43Z</time>
      </trkpt>
      <trkpt lat="45.50595" lon="6.708">
        <ele>2068</ele>
        <time>2021-08-15T13:49:44Z</time>
      </trkpt>
      <trkpt lat="45.50595" lon="6.708">
        <ele>2068</ele>
        <time>2021-08-15T13:49:45Z</time>
      </trkpt>
      <trkpt lat="45.50595" lon="6.708">
        <ele>2068</ele>
        <time>2021-08-15T13:49:46Z</time>
      </trkpt>
      <trkpt lat="45.50595" lon="6.708">
        <ele>2068</ele>
        <time>2021-08-15T13:49:47Z</time>
      </trkpt>
      <trkpt lat="45.50595" lon="6.708">
        <ele>2068</ele>
        <time>2021-08-15T13:49:48Z</time>
      </trkpt>
      <trkpt lat="45.50595" lon="6.708">
        <ele>2068</ele>
        <time>2021-08-15T13:49:49Z</time>
      </trkpt>
      <trkpt lat="45.50595" lon="6.708">
        <ele>2068</ele>
        <time>2021-08-15T13:49:50Z</time>
      </trkpt>
      <trkpt lat="45.50595" lon="6.708">
        <ele>2068</ele>
        <time>2021-08-15T13:49:51Z</time>
      </trkpt>
      <trkpt lat="45.50595" lon="6.708">
        <ele>2068</ele>
        <time>2021-08-15T13:49:52Z</time>
      </trkpt>
      <trkpt lat="45.50595" lon="6.708">
        <ele>2068</ele>
        <time>2021-08-15T13:49:53Z</time>
      </trkpt>
      <trkpt lat="45.50595" lon="6.708">
        <ele>2068</ele>
        <time>2021-08-15T13:49:54Z</time>
      </trkpt>
      <trkpt lat="45.50595" lon="6.708">
        <ele>2068</ele>
        <time>2021-08-15T13:49:55Z</time>
      </trkpt>
      <trkpt lat="45.50595" lon="6.708">
        <ele>2068</ele>
        <time>2021-08-15T13:49:56Z</time>
      </trkpt>
      <trkpt lat="45.50595" lon="6.708">
        <ele>2068</ele>
        <time>2021-08-15T13:49:57Z</time>
      </trkpt>
      <trkpt lat="45.50595" lon="6.708">
        <ele>2068</ele>
        <time>2021-08-15T13:49:58Z</time>
      </trkpt>
      <trkpt lat="45.50595" lon="6.708">
        <ele>2068</ele>
        <time>2021-08-15T13:49:59Z</time>
      </trkpt>
      <trkpt lat="45.50595" lon="6.708">
        <ele>2068</ele>
        <time>2021-08-15T13:50:00Z</time>
      </trkpt>
      <trkpt lat="45.50595" lon="6.708">
        <ele>2068</ele>
        <time>2021-08-15T13:50:01Z</time>
      </trkpt>
      <trkpt lat="45.50595" lon="6.708">
        <ele>2068</ele>
        <time>2021-08-15T13:50:02Z</time>
      </trkpt>
      <trkpt lat="45.50595" lon="6.708">
        <ele>2068</ele>
        <time>2021-08-15T13:50:03Z</time>
      </trkpt>
      <trkpt lat="45.50595" lon="6.708">
        <ele>2068</ele>
        <time>2021-08-15T13:50:04Z</time>
      </trkpt>
      <trkpt lat="45.50595" lon="6.708">
        <ele>2068</ele>
        <time>2021-08-15T13:50:05Z</time>
      </trkpt>
      <trkpt lat="45.50595" lon="6.708">
        <ele>2068</ele>
        <time>2021-08-15T13:50:06Z</time>
      </trkpt>
      <trkpt lat="45.50595" lon="6.708">
        <ele>2068</ele>
        <time>2021-08-15T13:50:07Z</time>
      </trkpt>
      <trkpt lat="45.50595" lon="6.708">
        <ele>2068</ele>
        <time>2021-08-15T13:50:08Z</time>
      </trkpt>
      <trkpt lat="45.50595" lon="6.708">
        <ele>2068</ele>
        <time>2021-08-15T13:50:09Z</time>
      </trkpt>
      <trkpt lat="45.50595" lon="6.708">
        <ele>2068</ele>
        <time>2021-08-15T13:50:10Z</time>
      </trkpt>
      <trkpt lat="45.50595" lon="6.708">
        <ele>2068</ele>
        <time>2021-08-15T13:50:11Z</time>
      </trkpt>
      <trkpt lat="45.50595" lon="6.708">
        <ele>2068</ele>
        <time>2021-08-15T13:50:12Z</time>
      </trkpt>
      <trkpt lat="45.50595" lon="6.708">
        <ele>2068</ele>
        <time>2021-08-15T13:50:13Z</time>
      </trkpt>
      <trkpt lat="45.50595" lon="6.708">
        <ele>2068</ele>
        <time>2021-08-15T13:50:14Z</time>
      </trkpt>
      <trkpt lat="45.50595" lon="6.708">
        <ele>2068</ele>
        <time>2021-08-15T13:50:15Z</time>
      </trkpt>
      <trkpt lat="45.50595" lon="6.708">
        <ele>2068</ele>
        <time>2021-08-15T13:50:16Z</time>
      </trkpt>
      <trkpt lat="45.50595" lon="6.708">
        <ele>2068</ele>
        <time>2021-08-15T13:50:17Z</time>
      </trkpt>
      <trkpt lat="45.50595" lon="6.708">
        <ele>2068</ele>
        <time>2021-08-15T13:50:18Z</time>
      </trkpt>
      <trkpt lat="45.50595" lon="6.708">
        <ele>2068</ele>
        <time>2021-08-15T13:50:19Z</time>
      </trkpt>
      <trkpt lat="45.50595" lon="6.708">
        <ele>2068</ele>
        <time>2021-08-15T13:50:20Z</time>
      </trkpt>
      <trkpt lat="45.50595" lon="6.708">
        <ele>2068</ele>
        <time>2021-08-15T13:50:21Z</time>
      </trkpt>
      <trkpt lat="45.50595" lon="6.708">
        <ele>2068</ele>
        <time>2021-08-15T13:50:22Z</time>
      </trkpt>
      <trkpt lat="45.50595" lon="6.708">
        <ele>2068</ele>
        <time>2021-08-15T13:50:23Z</time>
      </trkpt>
      <trkpt lat="45.50595" lon="6.708">
        <ele>2068</ele>
        <time>2021-08-15T13:50:24Z</time>
      </trkpt>
      <trkpt lat="45.50595" lon="6.708">
        <ele>2068</ele>
        <time>2021-08-15T13:50:25Z</time>
      </trkpt>
      <trkpt lat="45.50595" lon="6.708">
        <ele>2068</ele>
        <time>2021-08-15T13:50:26Z</time>
      </trkpt>
      <trkpt lat="45.50595" lon="6.708">
        <ele>2068</ele>
        <time>2021-08-15T13:50:27Z</time>
      </trkpt>
      <trkpt lat="45.50595" lon="6.708">
        <ele>2068</ele>
        <time>2021-08-15T13:50:28Z</time>
      </trkpt>
      <trkpt lat="45.50595" lon="6.708">
        <ele>2068</ele>
        <time>2021-08-15T13:50:29Z</time>
      </trkpt>
      <trkpt lat="45.50595" lon="6.708">
        <ele>2068</ele>
        <time>2021-08-15T13:50:30Z</time>
      </trkpt>
      <trkpt lat="45.50595" lon="6.708">
        <ele>2068</ele>
        <time>2021-08-15T13:50:31Z</time>
      </trkpt>
      <trkpt lat="45.50595" lon="6.708">
        <ele>2068</ele>
        <time>2021-08-15T13:50:32Z</time>
      </trkpt>
      <trkpt lat="45.50595" lon="6.708">
        <ele>2068</ele>
        <time>2021-08-15T13:50:33Z</time>
      </trkpt>
      <trkpt lat="45.50595" lon="6.708">
        <ele>2068</ele>
        <time>2021-08-15T13:50:34Z</time>
      </trkpt>
      <trkpt lat="45.50595" lon="6.708">
        <ele>2068</ele>
        <time>2021-08-15T13:50:35Z</time>
      </trkpt>
      <trkpt lat="45.50595" lon="6.708">
        <ele>2068</ele>
        <time>2021-08-15T13:50:36Z</time>
      </trkpt>
      <trkpt lat="45.50595" lon="6.708">
        <ele>2068</ele>
        <time>2021-08-15T13:50:37Z</time>
      </trkpt>
      <trkpt lat="45.50595" lon="6.708">
        <ele>2068</ele>
        <time>2021-08-15T13:50:38Z</time>
      </trkpt>
      <trkpt lat="45.50595" lon="6.708">
        <ele>2068</ele>
        <time>2021-08-15T13:50:39Z</time>
      </trkpt>
      <trkpt lat="45.50595" lon="6.708">
        <ele>2068</ele>
        <time>2021-08-15T13:50:40Z</time>
      </trkpt>
      <trkpt lat="45.50595" lon="6.708">
        <ele>2068</ele>
        <time>2021-08-15T13:50:41Z</time>
      </trkpt>
      <trkpt lat="45.50595" lon="6.708">
        <ele>2068</ele>
        <time>2021-08-15T13:50:42Z</time>
      </trkpt>
      <trkpt lat="45.50595" lon="6.708">
        <ele>2068</ele>
        <time>2021-08-15T13:50:43Z</time>
      </trkpt>
      <trkpt lat="45.50595" lon="6.708">
        <ele>2068</ele>
        <time>2021-08-15T13:50:44Z</time>
      </trkpt>
      <trkpt lat="45.50595" lon="6.708">
        <ele>2068</ele>
        <time>2021-08-15T13:50:45Z</time>
      </trkpt>
      <trkpt lat="45.50595" lon="6.708">
        <ele>2068</ele>
        <time>2021-08-15T13:50:46Z</time>
      </trkpt>
      <trkpt lat="45.50595" lon="6.708">
        <ele>2068</ele>
        <time>2021-08-15T13:50:47Z</time>
      </trkpt>
      <trkpt lat="45.50595" lon="6.708">
        <ele>2068</ele>
        <time>2021-08-15T13:50:48Z</time>
      </trkpt>
      <trkpt lat="45.50595" lon="6.708">
        <ele>2068</ele>
        <time>2021-08-15T13:50:49Z</time>
      </trkpt>
      <trkpt lat="45.50595" lon="6.708">
        <ele>2068</ele>
        <time>2021-08-15T13:50:50Z</time>
      </trkpt>
      <trkpt lat="45.50595" lon="6.708">
        <ele>2068</ele>
        <time>2021-08-15T13:50:51Z</time>
      </trkpt>
      <trkpt lat="45.50595" lon="6.708">
        <ele>2068</ele>
        <time>2021-08-15T13:50:52Z</time>
      </trkpt>
      <trkpt lat="45.50595" lon="6.708">
        <ele>2068</ele>
        <time>2021-08-15T13:50:53Z</time>
      </trkpt>
      <trkpt lat="45.50595" lon="6.708">
        <ele>2068</ele>
        <time>2021-08-15T13:50:54Z</time>
      </trkpt>
      <trkpt lat="45.50595" lon="6.708">
        <ele>2068</ele>
        <time>2021-08-15T13:50:55Z</time>
      </trkpt>
      <trkpt lat="45.50595" lon="6.708">
        <ele>2068</ele>
        <time>2021-08-15T13:50:56Z</time>
      </trkpt>
      <trkpt lat="45.50595" lon="6.708">
        <ele>2068</ele>
        <time>2021-08-15T13:50:57Z</time>
      </trkpt>
      <trkpt lat="45.50595" lon="6.708">
        <ele>2068</ele>
        <time>2021-08-15T13:50:58Z</time>
      </trkpt>
      <trkpt lat="45.50595" lon="6.708">
        <ele>2068</ele>
        <time>2021-08-15T13:50:59Z</time>
      </trkpt>
      <trkpt lat="45.50595" lon="6.708">
        <ele>2068</ele>
        <time>2021-08-15T13:51:00Z</time>
      </trkpt>
      <trkpt lat="45.50595" lon="6.708">
        <ele>2068</ele>
        <time>2021-08-15T13:51:01Z</time>
      </trkpt>
      <trkpt lat="45.50595" lon="6.708">
        <ele>2068</ele>
        <time>2021-08-15T13:51:02Z</time>
      </trkpt>
      <trkpt lat="45.50595" lon="6.708">
        <ele>2068</ele>
        <time>2021-08-15T13:51:03Z</time>
      </trkpt>
      <trkpt lat="45.50595" lon="6.708">
        <ele>2068</ele>
        <time>2021-08-15T13:51:04Z</time>
      </trkpt>
      <trkpt lat="45.50595" lon="6.708">
        <ele>2068</ele>
        <time>2021-08-15T13:51:05Z</time>
      </trkpt>
      <trkpt lat="45.50595" lon="6.708">
        <ele>2068</ele>
        <time>2021-08-15T13:51:06Z</time>
      </trkpt>
      <trkpt lat="45.50595" lon="6.708">
        <ele>2068</ele>
        <time>2021-08-15T13:51:07Z</time>
      </trkpt>
      <trkpt lat="45.50595" lon="6.708">
        <ele>2068</ele>
        <time>2021-08-15T13:51:08Z</time>
      </trkpt>
      <trkpt lat="45.50595" lon="6.708">
        <ele>2068</ele>
        <time>2021-08-15T13:51:09Z</time>
      </trkpt>
      <trkpt lat="45.50595" lon="6.708">
        <ele>2068</ele>
        <time>2021-08-15T13:51:10Z</time>
      </trkpt>
      <trkpt lat="45.50595" lon="6.708">
        <ele>2068</ele>
        <time>2021-08-15T13:51:11Z</time>
      </trkpt>
      <trkpt lat="45.50595" lon="6.708">
        <ele>2068</ele>
        <time>2021-08-15T13:51:12Z</time>
      </trkpt>
      <trkpt lat="45.50595" lon="6.708">
        <ele>2068</ele>
        <time>2021-08-15T13:51:13Z</time>
      </trkpt>
      <trkpt lat="45.50595" lon="6.708">
        <ele>2068</ele>
        <time>2021-08-15T13:51:14Z</time>
      </trkpt>
      <trkpt lat="45.50595" lon="6.708">
        <ele>2068</ele>
        <time>2021-08-15T13:51:15Z</time>
      </trkpt>
      <trkpt lat="45.50595" lon="6.708">
        <ele>2068</ele>
        <time>2021-08-15T13:51:16Z</time>
      </trkpt>
      <trkpt lat="45.50595" lon="6.708">
        <ele>2068</ele>
        <time>2021-08-15T13:51:17Z</time>
      </trkpt>
      <trkpt lat="45.50595" lon="6.708">
        <ele>2068</ele>
        <time>2021-08-15T13:51:18Z</time>
      </trkpt>
      <trkpt lat="45.50595" lon="6.708">
        <ele>2068</ele>
        <time>2021-08-15T13:51:19Z</time>
      </trkpt>
      <trkpt lat="45.50595" lon="6.708">
        <ele>2068</ele>
        <time>2021-08-15T13:51:20Z</time>
      </trkpt>
      <trkpt lat="45.50595" lon="6.708">
        <ele>2068</ele>
        <time>2021-08-15T13:51:21Z</time>
      </trkpt>
      <trkpt lat="45.50595" lon="6.708">
        <ele>2068</ele>
        <time>2021-08-15T13:51:22Z</time>
      </trkpt>
      <trkpt lat="45.50595" lon="6.708">
        <ele>2068</ele>
        <time>2021-08-15T13:51:23Z</time>
      </trkpt>
      <trkpt lat="45.50595" lon="6.708">
        <ele>2068</ele>
        <time>2021-08-15T13:51:24Z</time>
      </trkpt>
      <trkpt lat="45.50595" lon="6.708">
        <ele>2068</ele>
        <time>2021-08-15T13:51:25Z</time>
      </trkpt>
      <trkpt lat="45.50595" lon="6.708">
        <ele>2068</ele>
        <time>2021-08-15T13:51:26Z</time>
      </trkpt>
      <trkpt lat="45.50595" lon="6.708">
        <ele>2068</ele>
        <time>2021-08-15T13:51:27Z</time>
      </trkpt>
      <trkpt lat="45.50595" lon="6.708">
        <ele>2068</ele>
        <time>2021-08-15T13:51:28Z</time>
      </trkpt>
      <trkpt lat="45.50595" lon="6.708">
        <ele>2068</ele>
        <time>2021-08-15T13:51:29Z</time>
      </trkpt>
      <trkpt lat="45.50595" lon="6.708">
        <ele>2068</ele>
        <time>2021-08-15T13:51:30Z</time>
      </trkpt>
      <trkpt lat="45.50595" lon="6.708">
        <ele>2068</ele>
        <time>2021-08-15T13:51:31Z</time>
      </trkpt>
      <trkpt lat="45.50595" lon="6.708">
        <ele>2068</ele>
        <time>2021-08-15T13:51:32Z</time>
      </trkpt>
      <trkpt lat="45.50595" lon="6.708">
        <ele>2068</ele>
        <time>2021-08-15T13:51:33Z</time>
      </trkpt>
      <trkpt lat="45.50595" lon="6.708">
        <ele>2068</ele>
        <time>2021-08-15T13:51:34Z</time>
      </trkpt>
      <trkpt lat="45.50595" lon="6.708">
        <ele>2068</ele>
        <time>2021-08-15T13:51:35Z</time>
      </trkpt>
      <trkpt lat="45.50595" lon="6.708">
        <ele>2068</ele>
        <time>2021-08-15T13:51:36Z</time>
      </trkpt>
      <trkpt lat="45.50595" lon="6.708">
        <ele>2068</ele>
        <time>2021-08-15T13:51:37Z</time>
      </trkpt>
      <trkpt lat="45.50595" lon="6.708">
        <ele>2068</ele>
        <time>2021-08-15T13:51:38Z</time>
      </trkpt>
      <trkpt lat="45.50595" lon="6.708">
        <ele>2068</ele>
        <time>2021-08-15T13:51:39Z</time>
      </trkpt>
      <trkpt lat="45.50595" lon="6.708">
        <ele>2068</ele>
        <time>2021-08-15T13:51:40Z</time>
      </trkpt>
      <trkpt lat="45.50595" lon="6.708">
        <ele>2068</ele>
        <time>2021-08-15T13:51:41Z</time>
      </trkpt>
      <trkpt lat="45.50595" lon="6.708">
        <ele>2068</ele>
        <time>2021-08-15T13:51:42Z</time>
      </trkpt>
      <trkpt lat="45.50595" lon="6.708">
        <ele>2068</ele>
        <time>2021-08-15T13:51:43Z</time>
      </trkpt>
      <trkpt lat="45.50595" lon="6.708">
        <ele>2068</ele>
        <time>2021-08-15T13:51:44Z</time>
      </trkpt>
      <trkpt lat="45.50595" lon="6.708">
        <ele>2068</ele>
        <time>2021-08-15T13:51:45Z</time>
      </trkpt>
      <trkpt lat="45.50595" lon="6.708">
        <ele>2068</ele>
        <time>2021-08-15T13:51:46Z</time>
      </trkpt>
      <trkpt lat="45.50595" lon="6.708">
        <ele>2068</ele>
        <time>2021-08-15T13:51:47Z</time>
      </trkpt>
      <trkpt lat="45.50595" lon="6.708">
        <ele>2068</ele>
        <time>2021-08-15T13:51:48Z</time>
      </trkpt>
      <trkpt lat="45.50595" lon="6.708">
        <ele>2068</ele>
        <time>2021-08-15T13:51:49Z</time>
      </trkpt>
      <trkpt lat="45.50595" lon="6.708">
        <ele>2068</ele>
        <time>2021-08-15T13:51:50Z</time>
      </trkpt>
      <trkpt lat="45.50595" lon="6.708">
        <ele>2068</ele>
        <time>2021-08-15T13:51:51Z</time>
      </trkpt>
      <trkpt lat="45.50595" lon="6.708">
        <ele>2068</ele>
        <time>2021-08-15T13:51:52Z</time>
      </trkpt>
      <trkpt lat="45.50595" lon="6.708">
        <ele>2068</ele>
        <time>2021-08-15T13:51:53Z</time>
      </trkpt>
      <trkpt lat="45.50595" lon="6.708">
        <ele>2068</ele>
        <time>2021-08-15T13:51:54Z</time>
      </trkpt>
      <trkpt lat="45.50595" lon="6.708">
        <ele>2068</ele>
        <time>2021-08-15T13:51:55Z</time>
      </trkpt>
      <trkpt lat="45.50595" lon="6.708">
        <ele>2068</ele>
        <time>2021-08-15T13:51:56Z</time>
      </trkpt>
      <trkpt lat="45.50596" lon="6.708">
        <ele>2068</ele>
        <time>2021-08-15T13:51:57Z</time>
      </trkpt>
      <trkpt lat="45.50596" lon="6.708">
        <ele>2068.1</ele>
        <time>2021-08-15T13:51:58Z</time>
      </trkpt>
      <trkpt lat="45.50596" lon="6.708">
        <ele>2068.1</ele>
        <time>2021-08-15T13:51:59Z</time>
      </trkpt>
      <trkpt lat="45.50597" lon="6.708">
        <ele>2068.1</ele>
        <time>2021-08-15T13:52:00Z</time>
      </trkpt>
      <trkpt lat="45.50597" lon="6.708">
        <ele>2068.1</ele>
        <time>2021-08-15T13:52:01Z</time>
      </trkpt>
      <trkpt lat="45.50598" lon="6.708">
        <ele>2068.2</ele>
        <time>2021-08-15T13:52:02Z</time>
      </trkpt>
      <trkpt lat="45.50599" lon="6.70801">
        <ele>2068.2</ele>
        <time>2021-08-15T13:52:03Z</time>
      </trkpt>
      <trkpt lat="45.506" lon="6.70801">
        <ele>2068.2</ele>
        <time>2021-08-15T13:52:04Z</time>
      </trkpt>
      <trkpt lat="45.50601" lon="6.708">
        <ele>2068.3</ele>
        <time>2021-08-15T13:52:05Z</time>
      </trkpt>
      <trkpt lat="45.50602" lon="6.708">
        <ele>2068.3</ele>
        <time>2021-08-15T13:52:06Z</time>
      </trkpt>
      <trkpt lat="45.50603" lon="6.708">
        <ele>2068.4</ele>
        <time>2021-08-15T13:52:07Z</time>
      </trkpt>
      <trkpt lat="45.50604" lon="6.708">
        <ele>2068.4</ele>
        <time>2021-08-15T13:52:08Z</time>
      </trkpt>
      <trkpt lat="45.50605" lon="6.708">
        <ele>2068.4</ele>
        <time>2021-08-15T13:52:09Z</time>
      </trkpt>
      <trkpt lat="45.50606" lon="6.708">
        <ele>2068.5</ele>
        <time>2021-08-15T13:52:10Z</time>
      </trkpt>
      <trkpt lat="45.50606" lon="6.70801">
        <ele>2068.5</ele>
        <time>2021-08-15T13:52:11Z</time>
      </trkpt>
      <trkpt lat="45.50607" lon="6.70802">
        <ele>2068.5</ele>
        <time>2021-08-15T13:52:12Z</time>
      </trkpt>
      <trkpt lat="45.50608" lon="6.70803">
        <ele>2068.6</ele>
        <time>2021-08-15T13:52:13Z</time>
      </trkpt>
      <trkpt lat="45.50609" lon="6.70804">
        <ele>2068.6</ele>
        <time>2021-08-15T13:52:14Z</time>
      </trkpt>
      <trkpt lat="45.50609" lon="6.70805">
        <ele>2068.6</ele>
        <time>2021-08-15T13:52:15Z</time>
      </trkpt>
      <trkpt lat="45.5061" lon="6.70806">
        <ele>2068.7</ele>
        <time>2021-08-15T13:52:16Z</time>
      </trkpt>
      <trkpt lat="45.50611" lon="6.70807">
        <ele>2068.7</ele>
        <time>2021-08-15T13:52:17Z</time>
      </trkpt>
      <trkpt lat="45.50612" lon="6.70808">
        <ele>2068.7</ele>
        <time>2021-08-15T13:52:18Z</time>
      </trkpt>
      <trkpt lat="45.50613" lon="6.70809">
        <ele>2068.8</ele>
        <time>2021-08-15T13:52:19Z</time>
      </trkpt>
      <trkpt lat="45.50614" lon="6.70811">
        <ele>2068.8</ele>
        <time>2021-08-15T13:52:20Z</time>
      </trkpt>
      <trkpt lat="45.50614" lon="6.70812">
        <ele>2068.8</ele>
        <time>2021-08-15T13:52:21Z</time>
      </trkpt>
      <trkpt lat="45.50615" lon="6.70813">
        <ele>2068.9</ele>
        <time>2021-08-15T13:52:22Z</time>
      </trkpt>
      <trkpt lat="45.50616" lon="6.70814">
        <ele>2068.9</ele>
        <time>2021-08-15T13:52:23Z</time>
      </trkpt>
      <trkpt lat="45.50617" lon="6.70815">
        <ele>2068.9</ele>
        <time>2021-08-15T13:52:24Z</time>
      </trkpt>
      <trkpt lat="45.50618" lon="6.70816">
        <ele>2068.9</ele>
        <time>2021-08-15T13:52:25Z</time>
      </trkpt>
      <trkpt lat="45.50619" lon="6.70817">
        <ele>2069</ele>
        <time>2021-08-15T13:52:26Z</time>
      </trkpt>
      <trkpt lat="45.5062" lon="6.70818">
        <ele>2069</ele>
        <time>2021-08-15T13:52:27Z</time>
      </trkpt>
      <trkpt lat="45.50621" lon="6.70819">
        <ele>2069</ele>
        <time>2021-08-15T13:52:28Z</time>
      </trkpt>
      <trkpt lat="45.50622" lon="6.70821">
        <ele>2069.1</ele>
        <time>2021-08-15T13:52:29Z</time>
      </trkpt>
      <trkpt lat="45.50623" lon="6.70822">
        <ele>2069.1</ele>
        <time>2021-08-15T13:52:30Z</time>
      </trkpt>
      <trkpt lat="45.50624" lon="6.70823">
        <ele>2069.1</ele>
        <time>2021-08-15T13:52:31Z</time>
      </trkpt>
      <trkpt lat="45.50624" lon="6.70824">
        <ele>2069.1</ele>
        <time>2021-08-15T13:52:32Z</time>
      </trkpt>
      <trkpt lat="45.50625" lon="6.70825">
        <ele>2069.2</ele>
        <time>2021-08-15T13:52:33Z</time>
      </trkpt>
      <trkpt lat="45.50626" lon="6.70826">
        <ele>2069.2</ele>
        <time>2021-08-15T13:52:34Z</time>
      </trkpt>
      <trkpt lat="45.50627" lon="6.70827">
        <ele>2069.2</ele>
        <time>2021-08-15T13:52:35Z</time>
      </trkpt>
      <trkpt lat="45.50628" lon="6.70828">
        <ele>2069.3</ele>
        <time>2021-08-15T13:52:36Z</time>
      </trkpt>
      <trkpt lat="45.50629" lon="6.70829">
        <ele>2069.3</ele>
        <time>2021-08-15T13:52:37Z</time>
      </trkpt>
      <trkpt lat="45.5063" lon="6.7083">
        <ele>2069.3</ele>
        <time>2021-08-15T13:52:38Z</time>
      </trkpt>
      <trkpt lat="45.5063" lon="6.70831">
        <ele>2069.3</ele>
        <time>2021-08-15T13:52:39Z</time>
      </trkpt>
      <trkpt lat="45.50631" lon="6.70833">
        <ele>2069.4</ele>
        <time>2021-08-15T13:52:40Z</time>
      </trkpt>
      <trkpt lat="45.50632" lon="6.70834">
        <ele>2069.4</ele>
        <time>2021-08-15T13:52:41Z</time>
      </trkpt>
      <trkpt lat="45.50633" lon="6.70835">
        <ele>2069.4</ele>
        <time>2021-08-15T13:52:42Z</time>
      </trkpt>
      <trkpt lat="45.50633" lon="6.70836">
        <ele>2069.4</ele>
        <time>2021-08-15T13:52:43Z</time>
      </trkpt>
      <trkpt lat="45.50634" lon="6.70837">
        <ele>2069.5</ele>
        <time>2021-08-15T13:52:44Z</time>
      </trkpt>
      <trkpt lat="45.50635" lon="6.70838">
        <ele>2069.5</ele>
        <time>2021-08-15T13:52:45Z</time>
      </trkpt>
      <trkpt lat="45.50636" lon="6.70839">
        <ele>2069.5</ele>
        <time>2021-08-15T13:52:46Z</time>
      </trkpt>
      <trkpt lat="45.50636" lon="6.7084">
        <ele>2069.5</ele>
        <time>2021-08-15T13:52:47Z</time>
      </trkpt>
      <trkpt lat="45.50637" lon="6.70841">
        <ele>2069.6</ele>
        <time>2021-08-15T13:52:48Z</time>
      </trkpt>
      <trkpt lat="45.50638" lon="6.70842">
        <ele>2069.6</ele>
        <time>2021-08-15T13:52:49Z</time>
      </trkpt>
      <trkpt lat="45.50639" lon="6.70843">
        <ele>2069.6</ele>
        <time>2021-08-15T13:52:50Z</time>
      </trkpt>
      <trkpt lat="45.50639" lon="6.70844">
        <ele>2069.6</ele>
        <time>2021-08-15T13:52:51Z</time>
      </trkpt>
      <trkpt lat="45.5064" lon="6.70845">
        <ele>2069.7</ele>
        <time>2021-08-15T13:52:52Z</time>
      </trkpt>
      <trkpt lat="45.50641" lon="6.70846">
        <ele>2069.7</ele>
        <time>2021-08-15T13:52:53Z</time>
      </trkpt>
      <trkpt lat="45.50642" lon="6.70847">
        <ele>2069.7</ele>
        <time>2021-08-15T13:52:54Z</time>
      </trkpt>
      <trkpt lat="45.50642" lon="6.70847">
        <ele>2069.7</ele>
        <time>2021-08-15T13:52:55Z</time>
      </trkpt>
      <trkpt lat="45.50643" lon="6.70848">
        <ele>2069.8</ele>
        <time>2021-08-15T13:52:56Z</time>
      </trkpt>
      <trkpt lat="45.50644" lon="6.70849">
        <ele>2069.9</ele>
        <time>2021-08-15T13:52:57Z</time>
      </trkpt>
      <trkpt lat="45.50645" lon="6.7085">
        <ele>2069.9</ele>
        <time>2021-08-15T13:52:58Z</time>
      </trkpt>
      <trkpt lat="45.50645" lon="6.70851">
        <ele>2069.9</ele>
        <time>2021-08-15T13:52:59Z</time>
      </trkpt>
      <trkpt lat="45.50646" lon="6.70851">
        <ele>2069.9</ele>
        <time>2021-08-15T13:53:00Z</time>
      </trkpt>
      <trkpt lat="45.50647" lon="6.70852">
        <ele>2069.9</ele>
        <time>2021-08-15T13:53:01Z</time>
      </trkpt>
      <trkpt lat="45.50648" lon="6.70852">
        <ele>2069.9</ele>
        <time>2021-08-15T13:53:02Z</time>
      </trkpt>
      <trkpt lat="45.50649" lon="6.70853">
        <ele>2069.9</ele>
        <time>2021-08-15T13:53:03Z</time>
      </trkpt>
      <trkpt lat="45.50649" lon="6.70853">
        <ele>2069.8</ele>
        <time>2021-08-15T13:53:04Z</time>
      </trkpt>
      <trkpt lat="45.5065" lon="6.70853">
        <ele>2069.8</ele>
        <time>2021-08-15T13:53:05Z</time>
      </trkpt>
      <trkpt lat="45.50651" lon="6.70853">
        <ele>2069.8</ele>
        <time>2021-08-15T13:53:06Z</time>
      </trkpt>
      <trkpt lat="45.50652" lon="6.70853">
        <ele>2069.8</ele>
        <time>2021-08-15T13:53:07Z</time>
      </trkpt>
      <trkpt lat="45.50652" lon="6.70853">
        <ele>2069.8</ele>
        <time>2021-08-15T13:53:08Z</time>
      </trkpt>
      <trkpt lat="45.50653" lon="6.70853">
        <ele>2069.8</ele>
        <time>2021-08-15T13:53:09Z</time>
      </trkpt>
      <trkpt lat="45.50654" lon="6.70853">
        <ele>2069.8</ele>
        <time>2021-08-15T13:53:10Z</time>
      </trkpt>
      <trkpt lat="45.50655" lon="6.70853">
        <ele>2069.8</ele>
        <time>2021-08-15T13:53:11Z</time>
      </trkpt>
      <trkpt lat="45.50656" lon="6.70852">
        <ele>2069.8</ele>
        <time>2021-08-15T13:53:12Z</time>
      </trkpt>
      <trkpt lat="45.50656" lon="6.70852">
        <ele>2069.7</ele>
        <time>2021-08-15T13:53:13Z</time>
      </trkpt>
      <trkpt lat="45.50657" lon="6.70852">
        <ele>2069.7</ele>
        <time>2021-08-15T13:53:14Z</time>
      </trkpt>
      <trkpt lat="45.50658" lon="6.70851">
        <ele>2069.7</ele>
        <time>2021-08-15T13:53:15Z</time>
      </trkpt>
      <trkpt lat="45.50659" lon="6.7085">
        <ele>2069.7</ele>
        <time>2021-08-15T13:53:16Z</time>
      </trkpt>
      <trkpt lat="45.5066" lon="6.7085">
        <ele>2069.6</ele>
        <time>2021-08-15T13:53:17Z</time>
      </trkpt>
      <trkpt lat="45.50661" lon="6.70849">
        <ele>2069.6</ele>
        <time>2021-08-15T13:53:18Z</time>
      </trkpt>
      <trkpt lat="45.50662" lon="6.70848">
        <ele>2069.6</ele>
        <time>2021-08-15T13:53:19Z</time>
      </trkpt>
      <trkpt lat="45.50663" lon="6.70848">
        <ele>2069.5</ele>
        <time>2021-08-15T13:53:20Z</time>
      </trkpt>
      <trkpt lat="45.50664" lon="6.70847">
        <ele>2069.5</ele>
        <time>2021-08-15T13:53:21Z</time>
      </trkpt>
      <trkpt lat="45.50665" lon="6.70847">
        <ele>2069.4</ele>
        <time>2021-08-15T13:53:22Z</time>
      </trkpt>
      <trkpt lat="45.50666" lon="6.70846">
        <ele>2069.4</ele>
        <time>2021-08-15T13:53:23Z</time>
      </trkpt>
      <trkpt lat="45.50666" lon="6.70846">
        <ele>2069.4</ele>
        <time>2021-08-15T13:53:24Z</time>
      </trkpt>
      <trkpt lat="45.50667" lon="6.70845">
        <ele>2069.3</ele>
        <time>2021-08-15T13:53:25Z</time>
      </trkpt>
      <trkpt lat="45.50668" lon="6.70845">
        <ele>2069.3</ele>
        <time>2021-08-15T13:53:26Z</time>
      </trkpt>
      <trkpt lat="45.50669" lon="6.70845">
        <ele>2069.2</ele>
        <time>2021-08-15T13:53:27Z</time>
      </trkpt>
      <trkpt lat="45.50669" lon="6.70844">
        <ele>2069.2</ele>
        <time>2021-08-15T13:53:28Z</time>
      </trkpt>
      <trkpt lat="45.5067" lon="6.70844">
        <ele>2069.2</ele>
        <time>2021-08-15T13:53:29Z</time>
      </trkpt>
      <trkpt lat="45.50671" lon="6.70844">
        <ele>2069.1</ele>
        <time>2021-08-15T13:53:30Z</time>
      </trkpt>
      <trkpt lat="45.50671" lon="6.70843">
        <ele>2069.1</ele>
        <time>2021-08-15T13:53:31Z</time>
      </trkpt>
      <trkpt lat="45.50672" lon="6.70843">
        <ele>2069.1</ele>
        <time>2021-08-15T13:53:32Z</time>
      </trkpt>
      <trkpt lat="45.50672" lon="6.70842">
        <ele>2069</ele>
        <time>2021-08-15T13:53:33Z</time>
      </trkpt>
      <trkpt lat="45.50673" lon="6.70841">
        <ele>2069</ele>
        <time>2021-08-15T13:53:34Z</time>
      </trkpt>
      <trkpt lat="45.50673" lon="6.70841">
        <ele>2069</ele>
        <time>2021-08-15T13:53:35Z</time>
      </trkpt>
      <trkpt lat="45.50674" lon="6.7084">
        <ele>2068.9</ele>
        <time>2021-08-15T13:53:36Z</time>
      </trkpt>
      <trkpt lat="45.50674" lon="6.70839">
        <ele>2068.9</ele>
        <time>2021-08-15T13:53:37Z</time>
      </trkpt>
      <trkpt lat="45.50675" lon="6.70838">
        <ele>2068.8</ele>
        <time>2021-08-15T13:53:38Z</time>
      </trkpt>
      <trkpt lat="45.50675" lon="6.70837">
        <ele>2068.8</ele>
        <time>2021-08-15T13:53:39Z</time>
      </trkpt>
      <trkpt lat="45.50676" lon="6.70836">
        <ele>2068.7</ele>
        <time>2021-08-15T13:53:40Z</time>
      </trkpt>
      <trkpt lat="45.50676" lon="6.70835">
        <ele>2068.7</ele>
        <time>2021-08-15T13:53:41Z</time>
      </trkpt>
      <trkpt lat="45.50676" lon="6.70834">
        <ele>2068.6</ele>
        <time>2021-08-15T13:53:42Z</time>
      </trkpt>
      <trkpt lat="45.50677" lon="6.70833">
        <ele>2068.6</ele>
        <time>2021-08-15T13:53:43Z</time>
      </trkpt>
      <trkpt lat="45.50677" lon="6.70832">
        <ele>2068.5</ele>
        <time>2021-08-15T13:53:44Z</time>
      </trkpt>
      <trkpt lat="45.50677" lon="6.70831">
        <ele>2068.5</ele>
        <time>2021-08-15T13:53:45Z</time>
      </trkpt>
      <trkpt lat="45.50678" lon="6.7083">
        <ele>2068.5</ele>
        <time>2021-08-15T13:53:46Z</time>
      </trkpt>
      <trkpt lat="45.50678" lon="6.70829">
        <ele>2068.4</ele>
        <time>2021-08-15T13:53:47Z</time>
      </trkpt>
      <trkpt lat="45.50679" lon="6.70828">
        <ele>2068.4</ele>
        <time>2021-08-15T13:53:48Z</time>
      </trkpt>
      <trkpt lat="45.50679" lon="6.70827">
        <ele>2068.3</ele>
        <time>2021-08-15T13:53:49Z</time>
      </trkpt>
      <trkpt lat="45.50679" lon="6.70826">
        <ele>2068.3</ele>
        <time>2021-08-15T13:53:50Z</time>
      </trkpt>
      <trkpt lat="45.5068" lon="6.70825">
        <ele>2068.2</ele>
        <time>2021-08-15T13:53:51Z</time>
      </trkpt>
      <trkpt lat="45.5068" lon="6.70824">
        <ele>2068.2</ele>
        <time>2021-08-15T13:53:52Z</time>
      </trkpt>
      <trkpt lat="45.5068" lon="6.70824">
        <ele>2068.1</ele>
        <time>2021-08-15T13:53:53Z</time>
      </trkpt>
      <trkpt lat="45.50681" lon="6.70823">
        <ele>2068.1</ele>
        <time>2021-08-15T13:53:54Z</time>
      </trkpt>
      <trkpt lat="45.50681" lon="6.70822">
        <ele>2068.1</ele>
        <time>2021-08-15T13:53:55Z</time>
      </trkpt>
      <trkpt lat="45.50682" lon="6.70822">
        <ele>2068</ele>
        <time>2021-08-15T13:53:56Z</time>
      </trkpt>
      <trkpt lat="45.50682" lon="6.70821">
        <ele>2068</ele>
        <time>2021-08-15T13:53:57Z</time>
      </trkpt>
      <trkpt lat="45.50683" lon="6.70821">
        <ele>2067.9</ele>
        <time>2021-08-15T13:53:58Z</time>
      </trkpt>
      <trkpt lat="45.50683" lon="6.7082">
        <ele>2067.9</ele>
        <time>2021-08-15T13:53:59Z</time>
      </trkpt>
      <trkpt lat="45.50684" lon="6.7082">
        <ele>2067.9</ele>
        <time>2021-08-15T13:54:00Z</time>
      </trkpt>
      <trkpt lat="45.50685" lon="6.7082">
        <ele>2067.8</ele>
        <time>2021-08-15T13:54:01Z</time>
      </trkpt>
      <trkpt lat="45.50685" lon="6.7082">
        <ele>2067.8</ele>
        <time>2021-08-15T13:54:02Z</time>
      </trkpt>
      <trkpt lat="45.50686" lon="6.70819">
        <ele>2067.7</ele>
        <time>2021-08-15T13:54:03Z</time>
      </trkpt>
      <trkpt lat="45.50687" lon="6.70819">
        <ele>2067.7</ele>
        <time>2021-08-15T13:54:04Z</time>
      </trkpt>
      <trkpt lat="45.50688" lon="6.70819">
        <ele>2067.6</ele>
        <time>2021-08-15T13:54:05Z</time>
      </trkpt>
      <trkpt lat="45.50689" lon="6.70818">
        <ele>2067.6</ele>
        <time>2021-08-15T13:54:06Z</time>
      </trkpt>
      <trkpt lat="45.5069" lon="6.70818">
        <ele>2067.5</ele>
        <time>2021-08-15T13:54:07Z</time>
      </trkpt>
      <trkpt lat="45.5069" lon="6.70818">
        <ele>2067.4</ele>
        <time>2021-08-15T13:54:08Z</time>
      </trkpt>
      <trkpt lat="45.50691" lon="6.70817">
        <ele>2067.4</ele>
        <time>2021-08-15T13:54:09Z</time>
      </trkpt>
      <trkpt lat="45.50692" lon="6.70817">
        <ele>2067.3</ele>
        <time>2021-08-15T13:54:10Z</time>
      </trkpt>
      <trkpt lat="45.50693" lon="6.70816">
        <ele>2067.3</ele>
        <time>2021-08-15T13:54:11Z</time>
      </trkpt>
      <trkpt lat="45.50694" lon="6.70816">
        <ele>2067.2</ele>
        <time>2021-08-15T13:54:12Z</time>
      </trkpt>
      <trkpt lat="45.50694" lon="6.70815">
        <ele>2067.1</ele>
        <time>2021-08-15T13:54:13Z</time>
      </trkpt>
      <trkpt lat="45.50695" lon="6.70814">
        <ele>2067.1</ele>
        <time>2021-08-15T13:54:14Z</time>
      </trkpt>
      <trkpt lat="45.50695" lon="6.70814">
        <ele>2067</ele>
        <time>2021-08-15T13:54:15Z</time>
      </trkpt>
      <trkpt lat="45.50696" lon="6.70813">
        <ele>2067</ele>
        <time>2021-08-15T13:54:16Z</time>
      </trkpt>
      <trkpt lat="45.50696" lon="6.70812">
        <ele>2066.9</ele>
        <time>2021-08-15T13:54:17Z</time>
      </trkpt>
      <trkpt lat="45.50696" lon="6.70811">
        <ele>2066.9</ele>
        <time>2021-08-15T13:54:18Z</time>
      </trkpt>
      <trkpt lat="45.50697" lon="6.7081">
        <ele>2066.9</ele>
        <time>2021-08-15T13:54:19Z</time>
      </trkpt>
      <trkpt lat="45.50697" lon="6.7081">
        <ele>2067</ele>
        <time>2021-08-15T13:54:20Z</time>
      </trkpt>
      <trkpt lat="45.50697" lon="6.70809">
        <ele>2067</ele>
        <time>2021-08-15T13:54:21Z</time>
      </trkpt>
      <trkpt lat="45.50697" lon="6.70808">
        <ele>2067.1</ele>
        <time>2021-08-15T13:54:22Z</time>
      </trkpt>
      <trkpt lat="45.50697" lon="6.70808">
        <ele>2067.1</ele>
        <time>2021-08-15T13:54:23Z</time>
      </trkpt>
      <trkpt lat="45.50698" lon="6.70808">
        <ele>2067.1</ele>
        <time>2021-08-15T13:54:24Z</time>
      </trkpt>
      <trkpt lat="45.50698" lon="6.70807">
        <ele>2067.1</ele>
        <time>2021-08-15T13:54:25Z</time>
      </trkpt>
      <trkpt lat="45.50698" lon="6.70807">
        <ele>2067.1</ele>
        <time>2021-08-15T13:54:26Z</time>
      </trkpt>
      <trkpt lat="45.50698" lon="6.70807">
        <ele>2067.1</ele>
        <time>2021-08-15T13:54:27Z</time>
      </trkpt>
      <trkpt lat="45.50698" lon="6.70807">
        <ele>2067.2</ele>
        <time>2021-08-15T13:54:28Z</time>
      </trkpt>
      <trkpt lat="45.50698" lon="6.70807">
        <ele>2067.2</ele>
        <time>2021-08-15T13:54:29Z</time>
      </trkpt>
      <trkpt lat="45.50698" lon="6.70807">
        <ele>2067.2</ele>
        <time>2021-08-15T13:54:30Z</time>
      </trkpt>
      <trkpt lat="45.50698" lon="6.70807">
        <ele>2067.2</ele>
        <time>2021-08-15T13:54:31Z</time>
      </trkpt>
      <trkpt lat="45.50698" lon="6.70807">
        <ele>2067.2</ele>
        <time>2021-08-15T13:54:32Z</time>
      </trkpt>
      <trkpt lat="45.50698" lon="6.70807">
        <ele>2067.2</ele>
        <time>2021-08-15T13:54:33Z</time>
      </trkpt>
      <trkpt lat="45.50698" lon="6.70808">
        <ele>2067.2</ele>
        <time>2021-08-15T13:54:34Z</time>
      </trkpt>
      <trkpt lat="45.50698" lon="6.70808">
        <ele>2067.2</ele>
        <time>2021-08-15T13:54:35Z</time>
      </trkpt>
      <trkpt lat="45.50698" lon="6.70808">
        <ele>2067.2</ele>
        <time>2021-08-15T13:54:36Z</time>
      </trkpt>
      <trkpt lat="45.50698" lon="6.70808">
        <ele>2067.2</ele>
        <time>2021-08-15T13:54:37Z</time>
      </trkpt>
      <trkpt lat="45.50698" lon="6.70808">
        <ele>2067.2</ele>
        <time>2021-08-15T13:54:38Z</time>
      </trkpt>
      <trkpt lat="45.50698" lon="6.70808">
        <ele>2067.2</ele>
        <time>2021-08-15T13:54:39Z</time>
      </trkpt>
      <trkpt lat="45.50698" lon="6.70808">
        <ele>2067.2</ele>
        <time>2021-08-15T13:54:40Z</time>
      </trkpt>
      <trkpt lat="45.50698" lon="6.70808">
        <ele>2067.2</ele>
        <time>2021-08-15T13:54:41Z</time>
      </trkpt>
      <trkpt lat="45.50698" lon="6.70808">
        <ele>2067.2</ele>
        <time>2021-08-15T13:54:42Z</time>
      </trkpt>
      <trkpt lat="45.50698" lon="6.70808">
        <ele>2067.2</ele>
        <time>2021-08-15T13:54:43Z</time>
      </trkpt>
      <trkpt lat="45.50698" lon="6.70808">
        <ele>2067.2</ele>
        <time>2021-08-15T13:54:44Z</time>
      </trkpt>
      <trkpt lat="45.50698" lon="6.70808">
        <ele>2067.3</ele>
        <time>2021-08-15T13:54:45Z</time>
      </trkpt>
      <trkpt lat="45.50698" lon="6.70807">
        <ele>2067.3</ele>
        <time>2021-08-15T13:54:46Z</time>
      </trkpt>
      <trkpt lat="45.50699" lon="6.70807">
        <ele>2067.3</ele>
        <time>2021-08-15T13:54:47Z</time>
      </trkpt>
      <trkpt lat="45.50699" lon="6.70807">
        <ele>2067.3</ele>
        <time>2021-08-15T13:54:48Z</time>
      </trkpt>
      <trkpt lat="45.50699" lon="6.70807">
        <ele>2067.4</ele>
        <time>2021-08-15T13:54:49Z</time>
      </trkpt>
      <trkpt lat="45.50699" lon="6.70807">
        <ele>2067.4</ele>
        <time>2021-08-15T13:54:50Z</time>
      </trkpt>
      <trkpt lat="45.507" lon="6.70806">
        <ele>2067.4</ele>
        <time>2021-08-15T13:54:51Z</time>
      </trkpt>
      <trkpt lat="45.507" lon="6.70806">
        <ele>2067.5</ele>
        <time>2021-08-15T13:54:52Z</time>
      </trkpt>
      <trkpt lat="45.50701" lon="6.70806">
        <ele>2067.5</ele>
        <time>2021-08-15T13:54:53Z</time>
      </trkpt>
      <trkpt lat="45.50702" lon="6.70805">
        <ele>2067.6</ele>
        <time>2021-08-15T13:54:54Z</time>
      </trkpt>
      <trkpt lat="45.50702" lon="6.70805">
        <ele>2067.7</ele>
        <time>2021-08-15T13:54:55Z</time>
      </trkpt>
      <trkpt lat="45.50703" lon="6.70804">
        <ele>2067.8</ele>
        <time>2021-08-15T13:54:56Z</time>
      </trkpt>
      <trkpt lat="45.50704" lon="6.70804">
        <ele>2067.9</ele>
        <time>2021-08-15T13:54:57Z</time>
      </trkpt>
      <trkpt lat="45.50705" lon="6.70804">
        <ele>2067.9</ele>
        <time>2021-08-15T13:54:58Z</time>
      </trkpt>
      <trkpt lat="45.50706" lon="6.70803">
        <ele>2068</ele>
        <time>2021-08-15T13:54:59Z</time>
      </trkpt>
      <trkpt lat="45.50706" lon="6.70803">
        <ele>2068.1</ele>
        <time>2021-08-15T13:55:00Z</time>
      </trkpt>
      <trkpt lat="45.50707" lon="6.70802">
        <ele>2068.2</ele>
        <time>2021-08-15T13:55:01Z</time>
      </trkpt>
      <trkpt lat="45.50708" lon="6.70802">
        <ele>2068.3</ele>
        <time>2021-08-15T13:55:02Z</time>
      </trkpt>
      <trkpt lat="45.50708" lon="6.70802">
        <ele>2068.4</ele>
        <time>2021-08-15T13:55:03Z</time>
      </trkpt>
      <trkpt lat="45.50709" lon="6.70801">
        <ele>2068.4</ele>
        <time>2021-08-15T13:55:04Z</time>
      </trkpt>
      <trkpt lat="45.50709" lon="6.70801">
        <ele>2068.5</ele>
        <time>2021-08-15T13:55:05Z</time>
      </trkpt>
      <trkpt lat="45.5071" lon="6.70801">
        <ele>2068.5</ele>
        <time>2021-08-15T13:55:06Z</time>
      </trkpt>
      <trkpt lat="45.5071" lon="6.70801">
        <ele>2068.6</ele>
        <time>2021-08-15T13:55:07Z</time>
      </trkpt>
      <trkpt lat="45.50711" lon="6.70801">
        <ele>2068.6</ele>
        <time>2021-08-15T13:55:08Z</time>
      </trkpt>
      <trkpt lat="45.50711" lon="6.70801">
        <ele>2068.7</ele>
        <time>2021-08-15T13:55:09Z</time>
      </trkpt>
      <trkpt lat="45.50712" lon="6.708">
        <ele>2068.8</ele>
        <time>2021-08-15T13:55:10Z</time>
      </trkpt>
      <trkpt lat="45.50712" lon="6.708">
        <ele>2068.8</ele>
        <time>2021-08-15T13:55:11Z</time>
      </trkpt>
      <trkpt lat="45.50713" lon="6.708">
        <ele>2068.9</ele>
        <time>2021-08-15T13:55:12Z</time>
      </trkpt>
      <trkpt lat="45.50713" lon="6.708">
        <ele>2068.9</ele>
        <time>2021-08-15T13:55:13Z</time>
      </trkpt>
      <trkpt lat="45.50714" lon="6.70799">
        <ele>2069</ele>
        <time>2021-08-15T13:55:14Z</time>
      </trkpt>
      <trkpt lat="45.50714" lon="6.70799">
        <ele>2069.1</ele>
        <time>2021-08-15T13:55:15Z</time>
      </trkpt>
      <trkpt lat="45.50715" lon="6.70799">
        <ele>2069.1</ele>
        <time>2021-08-15T13:55:16Z</time>
      </trkpt>
      <trkpt lat="45.50715" lon="6.70799">
        <ele>2069.2</ele>
        <time>2021-08-15T13:55:17Z</time>
      </trkpt>
      <trkpt lat="45.50716" lon="6.70798">
        <ele>2069.2</ele>
        <time>2021-08-15T13:55:18Z</time>
      </trkpt>
      <trkpt lat="45.50716" lon="6.70798">
        <ele>2069.3</ele>
        <time>2021-08-15T13:55:19Z</time>
      </trkpt>
      <trkpt lat="45.50717" lon="6.70798">
        <ele>2069.3</ele>
        <time>2021-08-15T13:55:20Z</time>
      </trkpt>
      <trkpt lat="45.50717" lon="6.70798">
        <ele>2069.4</ele>
        <time>2021-08-15T13:55:21Z</time>
      </trkpt>
      <trkpt lat="45.50718" lon="6.70798">
        <ele>2069.4</ele>
        <time>2021-08-15T13:55:22Z</time>
      </trkpt>
      <trkpt lat="45.50718" lon="6.70798">
        <ele>2069.5</ele>
        <time>2021-08-15T13:55:23Z</time>
      </trkpt>
      <trkpt lat="45.50719" lon="6.70798">
        <ele>2069.5</ele>
        <time>2021-08-15T13:55:24Z</time>
      </trkpt>
      <trkpt lat="45.50719" lon="6.70798">
        <ele>2069.5</ele>
        <time>2021-08-15T13:55:25Z</time>
      </trkpt>
      <trkpt lat="45.50719" lon="6.70798">
        <ele>2069.6</ele>
        <time>2021-08-15T13:55:26Z</time>
      </trkpt>
      <trkpt lat="45.5072" lon="6.70798">
        <ele>2069.6</ele>
        <time>2021-08-15T13:55:27Z</time>
      </trkpt>
      <trkpt lat="45.5072" lon="6.70798">
        <ele>2069.6</ele>
        <time>2021-08-15T13:55:28Z</time>
      </trkpt>
      <trkpt lat="45.50721" lon="6.70797">
        <ele>2069.6</ele>
        <time>2021-08-15T13:55:29Z</time>
      </trkpt>
      <trkpt lat="45.50721" lon="6.70797">
        <ele>2069.7</ele>
        <time>2021-08-15T13:55:30Z</time>
      </trkpt>
      <trkpt lat="45.50721" lon="6.70797">
        <ele>2069.7</ele>
        <time>2021-08-15T13:55:31Z</time>
      </trkpt>
      <trkpt lat="45.50722" lon="6.70797">
        <ele>2069.7</ele>
        <time>2021-08-15T13:55:32Z</time>
      </trkpt>
      <trkpt lat="45.50722" lon="6.70796">
        <ele>2069.8</ele>
        <time>2021-08-15T13:55:33Z</time>
      </trkpt>
      <trkpt lat="45.50723" lon="6.70796">
        <ele>2069.8</ele>
        <time>2021-08-15T13:55:34Z</time>
      </trkpt>
      <trkpt lat="45.50723" lon="6.70795">
        <ele>2069.9</ele>
        <time>2021-08-15T13:55:35Z</time>
      </trkpt>
      <trkpt lat="45.50724" lon="6.70794">
        <ele>2069.9</ele>
        <time>2021-08-15T13:55:36Z</time>
      </trkpt>
      <trkpt lat="45.50725" lon="6.70794">
        <ele>2069.9</ele>
        <time>2021-08-15T13:55:37Z</time>
      </trkpt>
      <trkpt lat="45.50725" lon="6.70793">
        <ele>2069.9</ele>
        <time>2021-08-15T13:55:38Z</time>
      </trkpt>
      <trkpt lat="45.50726" lon="6.70792">
        <ele>2070</ele>
        <time>2021-08-15T13:55:39Z</time>
      </trkpt>
      <trkpt lat="45.50726" lon="6.70791">
        <ele>2070</ele>
        <time>2021-08-15T13:55:40Z</time>
      </trkpt>
      <trkpt lat="45.50727" lon="6.70791">
        <ele>2070</ele>
        <time>2021-08-15T13:55:41Z</time>
      </trkpt>
      <trkpt lat="45.50728" lon="6.7079">
        <ele>2070</ele>
        <time>2021-08-15T13:55:42Z</time>
      </trkpt>
      <trkpt lat="45.50728" lon="6.70789">
        <ele>2070</ele>
        <time>2021-08-15T13:55:43Z</time>
      </trkpt>
      <trkpt lat="45.50729" lon="6.70788">
        <ele>2070</ele>
        <time>2021-08-15T13:55:44Z</time>
      </trkpt>
      <trkpt lat="45.5073" lon="6.70788">
        <ele>2070</ele>
        <time>2021-08-15T13:55:45Z</time>
      </trkpt>
      <trkpt lat="45.5073" lon="6.70787">
        <ele>2070</ele>
        <time>2021-08-15T13:55:46Z</time>
      </trkpt>
      <trkpt lat="45.50731" lon="6.70786">
        <ele>2070</ele>
        <time>2021-08-15T13:55:47Z</time>
      </trkpt>
      <trkpt lat="45.50732" lon="6.70786">
        <ele>2070</ele>
        <time>2021-08-15T13:55:48Z</time>
      </trkpt>
      <trkpt lat="45.50733" lon="6.70785">
        <ele>2070</ele>
        <time>2021-08-15T13:55:49Z</time>
      </trkpt>
      <trkpt lat="45.50733" lon="6.70785">
        <ele>2070</ele>
        <time>2021-08-15T13:55:50Z</time>
      </trkpt>
      <trkpt lat="45.50734" lon="6.70784">
        <ele>2070</ele>
        <time>2021-08-15T13:55:51Z</time>
      </trkpt>
      <trkpt lat="45.50734" lon="6.70784">
        <ele>2070</ele>
        <time>2021-08-15T13:55:52Z</time>
      </trkpt>
      <trkpt lat="45.50735" lon="6.70784">
        <ele>2070</ele>
        <time>2021-08-15T13:55:53Z</time>
      </trkpt>
      <trkpt lat="45.50735" lon="6.70783">
        <ele>2070</ele>
        <time>2021-08-15T13:55:54Z</time>
      </trkpt>
      <trkpt lat="45.50736" lon="6.70783">
        <ele>2070</ele>
        <time>2021-08-15T13:55:55Z</time>
      </trkpt>
      <trkpt lat="45.50736" lon="6.70783">
        <ele>2070</ele>
        <time>2021-08-15T13:55:56Z</time>
      </trkpt>
      <trkpt lat="45.50737" lon="6.70783">
        <ele>2070</ele>
        <time>2021-08-15T13:55:57Z</time>
      </trkpt>
      <trkpt lat="45.50737" lon="6.70782">
        <ele>2069.9</ele>
        <time>2021-08-15T13:55:58Z</time>
      </trkpt>
      <trkpt lat="45.50738" lon="6.70782">
        <ele>2069.9</ele>
        <time>2021-08-15T13:55:59Z</time>
      </trkpt>
      <trkpt lat="45.50738" lon="6.70782">
        <ele>2069.9</ele>
        <time>2021-08-15T13:56:00Z</time>
      </trkpt>
      <trkpt lat="45.50739" lon="6.70781">
        <ele>2070</ele>
        <time>2021-08-15T13:56:01Z</time>
      </trkpt>
      <trkpt lat="45.50739" lon="6.70781">
        <ele>2070</ele>
        <time>2021-08-15T13:56:02Z</time>
      </trkpt>
      <trkpt lat="45.5074" lon="6.7078">
        <ele>2070.1</ele>
        <time>2021-08-15T13:56:03Z</time>
      </trkpt>
      <trkpt lat="45.5074" lon="6.7078">
        <ele>2070.1</ele>
        <time>2021-08-15T13:56:04Z</time>
      </trkpt>
      <trkpt lat="45.5074" lon="6.70779">
        <ele>2070.1</ele>
        <time>2021-08-15T13:56:05Z</time>
      </trkpt>
      <trkpt lat="45.50741" lon="6.70779">
        <ele>2070.2</ele>
        <time>2021-08-15T13:56:06Z</time>
      </trkpt>
      <trkpt lat="45.50741" lon="6.70778">
        <ele>2070.2</ele>
        <time>2021-08-15T13:56:07Z</time>
      </trkpt>
      <trkpt lat="45.50741" lon="6.70778">
        <ele>2070.2</ele>
        <time>2021-08-15T13:56:08Z</time>
      </trkpt>
      <trkpt lat="45.50742" lon="6.70777">
        <ele>2070.2</ele>
        <time>2021-08-15T13:56:09Z</time>
      </trkpt>
      <trkpt lat="45.50742" lon="6.70777">
        <ele>2070.2</ele>
        <time>2021-08-15T13:56:10Z</time>
      </trkpt>
      <trkpt lat="45.50742" lon="6.70777">
        <ele>2070.2</ele>
        <time>2021-08-15T13:56:11Z</time>
      </trkpt>
      <trkpt lat="45.50742" lon="6.70777">
        <ele>2070.2</ele>
        <time>2021-08-15T13:56:12Z</time>
      </trkpt>
      <trkpt lat="45.50742" lon="6.70776">
        <ele>2070.2</ele>
        <time>2021-08-15T13:56:13Z</time>
      </trkpt>
      <trkpt lat="45.50742" lon="6.70776">
        <ele>2070.2</ele>
        <time>2021-08-15T13:56:14Z</time>
      </trkpt>
      <trkpt lat="45.50742" lon="6.70776">
        <ele>2070.2</ele>
        <time>2021-08-15T13:56:15Z</time>
      </trkpt>
      <trkpt lat="45.50742" lon="6.70776">
        <ele>2070.2</ele>
        <time>2021-08-15T13:56:16Z</time>
      </trkpt>
      <trkpt lat="45.50742" lon="6.70776">
        <ele>2070.2</ele>
        <time>2021-08-15T13:56:17Z</time>
      </trkpt>
      <trkpt lat="45.50742" lon="6.70776">
        <ele>2070.2</ele>
        <time>2021-08-15T13:56:18Z</time>
      </trkpt>
      <trkpt lat="45.50742" lon="6.70776">
        <ele>2070.2</ele>
        <time>2021-08-15T13:56:19Z</time>
      </trkpt>
      <trkpt lat="45.50742" lon="6.70776">
        <ele>2070.2</ele>
        <time>2021-08-15T13:56:20Z</time>
      </trkpt>
      <trkpt lat="45.50742" lon="6.70776">
        <ele>2070.2</ele>
        <time>2021-08-15T13:56:21Z</time>
      </trkpt>
      <trkpt lat="45.50742" lon="6.70776">
        <ele>2070.2</ele>
        <time>2021-08-15T13:56:22Z</time>
      </trkpt>
      <trkpt lat="45.50742" lon="6.70776">
        <ele>2070.2</ele>
        <time>2021-08-15T13:56:23Z</time>
      </trkpt>
      <trkpt lat="45.50742" lon="6.70776">
        <ele>2070.2</ele>
        <time>2021-08-15T13:56:24Z</time>
      </trkpt>
      <trkpt lat="45.50742" lon="6.70776">
        <ele>2070.2</ele>
        <time>2021-08-15T13:56:25Z</time>
      </trkpt>
      <trkpt lat="45.50742" lon="6.70776">
        <ele>2070.2</ele>
        <time>2021-08-15T13:56:26Z</time>
      </trkpt>
      <trkpt lat="45.50742" lon="6.70776">
        <ele>2070.2</ele>
        <time>2021-08-15T13:56:27Z</time>
      </trkpt>
      <trkpt lat="45.50742" lon="6.70776">
        <ele>2070.2</ele>
        <time>2021-08-15T13:56:28Z</time>
      </trkpt>
      <trkpt lat="45.50743" lon="6.70776">
        <ele>2070.2</ele>
        <time>2021-08-15T13:56:29Z</time>
      </trkpt>
      <trkpt lat="45.50743" lon="6.70776">
        <ele>2070.2</ele>
        <time>2021-08-15T13:56:30Z</time>
      </trkpt>
      <trkpt lat="45.50743" lon="6.70776">
        <ele>2070.2</ele>
        <time>2021-08-15T13:56:31Z</time>
      </trkpt>
      <trkpt lat="45.50744" lon="6.70775">
        <ele>2070.2</ele>
        <time>2021-08-15T13:56:32Z</time>
      </trkpt>
      <trkpt lat="45.50744" lon="6.70775">
        <ele>2070.2</ele>
        <time>2021-08-15T13:56:33Z</time>
      </trkpt>
      <trkpt lat="45.50744" lon="6.70775">
        <ele>2070.3</ele>
        <time>2021-08-15T13:56:34Z</time>
      </trkpt>
      <trkpt lat="45.50745" lon="6.70775">
        <ele>2070.3</ele>
        <time>2021-08-15T13:56:35Z</time>
      </trkpt>
      <trkpt lat="45.50745" lon="6.70775">
        <ele>2070.3</ele>
        <time>2021-08-15T13:56:36Z</time>
      </trkpt>
      <trkpt lat="45.50745" lon="6.70776">
        <ele>2070.3</ele>
        <time>2021-08-15T13:56:37Z</time>
      </trkpt>
      <trkpt lat="45.50745" lon="6.70776">
        <ele>2070.3</ele>
        <time>2021-08-15T13:56:38Z</time>
      </trkpt>
      <trkpt lat="45.50745" lon="6.70777">
        <ele>2070.3</ele>
        <time>2021-08-15T13:56:39Z</time>
      </trkpt>
      <trkpt lat="45.50745" lon="6.70778">
        <ele>2070.3</ele>
        <time>2021-08-15T13:56:40Z</time>
      </trkpt>
      <trkpt lat="45.50745" lon="6.70779">
        <ele>2070.3</ele>
        <time>2021-08-15T13:56:41Z</time>
      </trkpt>
      <trkpt lat="45.50745" lon="6.7078">
        <ele>2070.3</ele>
        <time>2021-08-15T13:56:42Z</time>
      </trkpt>
      <trkpt lat="45.50744" lon="6.70781">
        <ele>2070.4</ele>
        <time>2021-08-15T13:56:43Z</time>
      </trkpt>
      <trkpt lat="45.50744" lon="6.70782">
        <ele>2070.4</ele>
        <time>2021-08-15T13:56:44Z</time>
      </trkpt>
      <trkpt lat="45.50743" lon="6.70783">
        <ele>2070.4</ele>
        <time>2021-08-15T13:56:45Z</time>
      </trkpt>
      <trkpt lat="45.50743" lon="6.70781">
        <ele>2070.4</ele>
        <time>2021-08-15T13:56:46Z</time>
      </trkpt>
      <trkpt lat="45.50743" lon="6.70779">
        <ele>2070.5</ele>
        <time>2021-08-15T13:56:47Z</time>
      </trkpt>
      <trkpt lat="45.50743" lon="6.70779">
        <ele>2070.5</ele>
        <time>2021-08-15T13:56:48Z</time>
      </trkpt>
      <trkpt lat="45.50743" lon="6.70779">
        <ele>2070.5</ele>
        <time>2021-08-15T13:56:49Z</time>
      </trkpt>
      <trkpt lat="45.50743" lon="6.70779">
        <ele>2070.5</ele>
        <time>2021-08-15T13:56:50Z</time>
      </trkpt>
      <trkpt lat="45.50743" lon="6.70779">
        <ele>2070.5</ele>
        <time>2021-08-15T13:56:51Z</time>
      </trkpt>
      <trkpt lat="45.50742" lon="6.70779">
        <ele>2070.5</ele>
        <time>2021-08-15T13:56:52Z</time>
      </trkpt>
      <trkpt lat="45.50742" lon="6.70779">
        <ele>2070.5</ele>
        <time>2021-08-15T13:56:53Z</time>
      </trkpt>
      <trkpt lat="45.50742" lon="6.70778">
        <ele>2070.5</ele>
        <time>2021-08-15T13:56:54Z</time>
      </trkpt>
      <trkpt lat="45.50742" lon="6.70778">
        <ele>2070.5</ele>
        <time>2021-08-15T13:56:55Z</time>
      </trkpt>
      <trkpt lat="45.50742" lon="6.70778">
        <ele>2070.5</ele>
        <time>2021-08-15T13:56:56Z</time>
      </trkpt>
      <trkpt lat="45.50742" lon="6.70778">
        <ele>2070.5</ele>
        <time>2021-08-15T13:56:57Z</time>
      </trkpt>
      <trkpt lat="45.50742" lon="6.70778">
        <ele>2070.5</ele>
        <time>2021-08-15T13:56:58Z</time>
      </trkpt>
      <trkpt lat="45.50742" lon="6.70778">
        <ele>2070.5</ele>
        <time>2021-08-15T13:56:59Z</time>
      </trkpt>
      <trkpt lat="45.50742" lon="6.70778">
        <ele>2070.5</ele>
        <time>2021-08-15T13:57:00Z</time>
      </trkpt>
      <trkpt lat="45.50742" lon="6.70778">
        <ele>2070.5</ele>
        <time>2021-08-15T13:57:01Z</time>
      </trkpt>
      <trkpt lat="45.50742" lon="6.70778">
        <ele>2070.5</ele>
        <time>2021-08-15T13:57:02Z</time>
      </trkpt>
      <trkpt lat="45.50742" lon="6.70777">
        <ele>2070.5</ele>
        <time>2021-08-15T13:57:03Z</time>
      </trkpt>
      <trkpt lat="45.50742" lon="6.70777">
        <ele>2070.5</ele>
        <time>2021-08-15T13:57:04Z</time>
      </trkpt>
      <trkpt lat="45.50742" lon="6.70777">
        <ele>2070.5</ele>
        <time>2021-08-15T13:57:05Z</time>
      </trkpt>
      <trkpt lat="45.50742" lon="6.70777">
        <ele>2070.5</ele>
        <time>2021-08-15T13:57:06Z</time>
      </trkpt>
      <trkpt lat="45.50742" lon="6.70775">
        <ele>2070.5</ele>
        <time>2021-08-15T13:57:07Z</time>
      </trkpt>
      <trkpt lat="45.50743" lon="6.70774">
        <ele>2070.5</ele>
        <time>2021-08-15T13:57:08Z</time>
      </trkpt>
      <trkpt lat="45.50743" lon="6.70773">
        <ele>2070.6</ele>
        <time>2021-08-15T13:57:09Z</time>
      </trkpt>
      <trkpt lat="45.50743" lon="6.70772">
        <ele>2070.6</ele>
        <time>2021-08-15T13:57:10Z</time>
      </trkpt>
      <trkpt lat="45.50744" lon="6.70772">
        <ele>2070.6</ele>
        <time>2021-08-15T13:57:11Z</time>
      </trkpt>
      <trkpt lat="45.50744" lon="6.70771">
        <ele>2070.6</ele>
        <time>2021-08-15T13:57:12Z</time>
      </trkpt>
      <trkpt lat="45.50744" lon="6.7077">
        <ele>2070.6</ele>
        <time>2021-08-15T13:57:13Z</time>
      </trkpt>
      <trkpt lat="45.50745" lon="6.70769">
        <ele>2070.6</ele>
        <time>2021-08-15T13:57:14Z</time>
      </trkpt>
      <trkpt lat="45.50745" lon="6.70768">
        <ele>2070.7</ele>
        <time>2021-08-15T13:57:15Z</time>
      </trkpt>
      <trkpt lat="45.50745" lon="6.70768">
        <ele>2070.7</ele>
        <time>2021-08-15T13:57:16Z</time>
      </trkpt>
      <trkpt lat="45.50746" lon="6.70767">
        <ele>2070.7</ele>
        <time>2021-08-15T13:57:17Z</time>
      </trkpt>
      <trkpt lat="45.50746" lon="6.70766">
        <ele>2070.7</ele>
        <time>2021-08-15T13:57:18Z</time>
      </trkpt>
      <trkpt lat="45.50747" lon="6.70765">
        <ele>2070.7</ele>
        <time>2021-08-15T13:57:19Z</time>
      </trkpt>
      <trkpt lat="45.50747" lon="6.70764">
        <ele>2070.7</ele>
        <time>2021-08-15T13:57:20Z</time>
      </trkpt>
      <trkpt lat="45.50747" lon="6.70764">
        <ele>2070.8</ele>
        <time>2021-08-15T13:57:21Z</time>
      </trkpt>
      <trkpt lat="45.50748" lon="6.70763">
        <ele>2070.8</ele>
        <time>2021-08-15T13:57:22Z</time>
      </trkpt>
      <trkpt lat="45.50748" lon="6.70763">
        <ele>2070.8</ele>
        <time>2021-08-15T13:57:23Z</time>
      </trkpt>
      <trkpt lat="45.50748" lon="6.70762">
        <ele>2070.8</ele>
        <time>2021-08-15T13:57:24Z</time>
      </trkpt>
      <trkpt lat="45.50749" lon="6.70761">
        <ele>2070.8</ele>
        <time>2021-08-15T13:57:25Z</time>
      </trkpt>
      <trkpt lat="45.50749" lon="6.70761">
        <ele>2070.8</ele>
        <time>2021-08-15T13:57:26Z</time>
      </trkpt>
      <trkpt lat="45.50749" lon="6.7076">
        <ele>2070.8</ele>
        <time>2021-08-15T13:57:27Z</time>
      </trkpt>
      <trkpt lat="45.5075" lon="6.7076">
        <ele>2070.8</ele>
        <time>2021-08-15T13:57:28Z</time>
      </trkpt>
      <trkpt lat="45.5075" lon="6.70759">
        <ele>2070.9</ele>
        <time>2021-08-15T13:57:29Z</time>
      </trkpt>
      <trkpt lat="45.5075" lon="6.70759">
        <ele>2070.9</ele>
        <time>2021-08-15T13:57:30Z</time>
      </trkpt>
      <trkpt lat="45.50751" lon="6.70758">
        <ele>2070.9</ele>
        <time>2021-08-15T13:57:31Z</time>
      </trkpt>
      <trkpt lat="45.50751" lon="6.70757">
        <ele>2070.9</ele>
        <time>2021-08-15T13:57:32Z</time>
      </trkpt>
      <trkpt lat="45.50751" lon="6.70757">
        <ele>2070.9</ele>
        <time>2021-08-15T13:57:33Z</time>
      </trkpt>
      <trkpt lat="45.50752" lon="6.70756">
        <ele>2070.9</ele>
        <time>2021-08-15T13:57:34Z</time>
      </trkpt>
      <trkpt lat="45.50752" lon="6.70755">
        <ele>2070.9</ele>
        <time>2021-08-15T13:57:35Z</time>
      </trkpt>
      <trkpt lat="45.50753" lon="6.70754">
        <ele>2071</ele>
        <time>2021-08-15T13:57:36Z</time>
      </trkpt>
      <trkpt lat="45.50753" lon="6.70754">
        <ele>2071</ele>
        <time>2021-08-15T13:57:37Z</time>
      </trkpt>
      <trkpt lat="45.50754" lon="6.70753">
        <ele>2071</ele>
        <time>2021-08-15T13:57:38Z</time>
      </trkpt>
      <trkpt lat="45.50754" lon="6.70752">
        <ele>2071</ele>
        <time>2021-08-15T13:57:39Z</time>
      </trkpt>
      <trkpt lat="45.50755" lon="6.70751">
        <ele>2071</ele>
        <time>2021-08-15T13:57:40Z</time>
      </trkpt>
      <trkpt lat="45.50756" lon="6.7075">
        <ele>2071.1</ele>
        <time>2021-08-15T13:57:41Z</time>
      </trkpt>
      <trkpt lat="45.50756" lon="6.7075">
        <ele>2071.1</ele>
        <time>2021-08-15T13:57:42Z</time>
      </trkpt>
      <trkpt lat="45.50757" lon="6.70749">
        <ele>2071.1</ele>
        <time>2021-08-15T13:57:43Z</time>
      </trkpt>
      <trkpt lat="45.50758" lon="6.70748">
        <ele>2071.1</ele>
        <time>2021-08-15T13:57:44Z</time>
      </trkpt>
      <trkpt lat="45.50758" lon="6.70748">
        <ele>2071.1</ele>
        <time>2021-08-15T13:57:45Z</time>
      </trkpt>
      <trkpt lat="45.50758" lon="6.70747">
        <ele>2071.1</ele>
        <time>2021-08-15T13:57:46Z</time>
      </trkpt>
      <trkpt lat="45.50759" lon="6.70747">
        <ele>2071.2</ele>
        <time>2021-08-15T13:57:47Z</time>
      </trkpt>
      <trkpt lat="45.50759" lon="6.70746">
        <ele>2071.2</ele>
        <time>2021-08-15T13:57:48Z</time>
      </trkpt>
      <trkpt lat="45.50759" lon="6.70746">
        <ele>2071.2</ele>
        <time>2021-08-15T13:57:49Z</time>
      </trkpt>
      <trkpt lat="45.50759" lon="6.70746">
        <ele>2071.2</ele>
        <time>2021-08-15T13:57:50Z</time>
      </trkpt>
      <trkpt lat="45.50759" lon="6.70746">
        <ele>2071.2</ele>
        <time>2021-08-15T13:57:51Z</time>
      </trkpt>
      <trkpt lat="45.50759" lon="6.70746">
        <ele>2071.2</ele>
        <time>2021-08-15T13:57:52Z</time>
      </trkpt>
      <trkpt lat="45.50758" lon="6.70746">
        <ele>2071.2</ele>
        <time>2021-08-15T13:57:53Z</time>
      </trkpt>
      <trkpt lat="45.50758" lon="6.70746">
        <ele>2071.2</ele>
        <time>2021-08-15T13:57:54Z</time>
      </trkpt>
      <trkpt lat="45.50758" lon="6.70746">
        <ele>2071.2</ele>
        <time>2021-08-15T13:57:55Z</time>
      </trkpt>
      <trkpt lat="45.50758" lon="6.70746">
        <ele>2071.2</ele>
        <time>2021-08-15T13:57:56Z</time>
      </trkpt>
      <trkpt lat="45.50758" lon="6.70746">
        <ele>2071.2</ele>
        <time>2021-08-15T13:57:57Z</time>
      </trkpt>
      <trkpt lat="45.50758" lon="6.70746">
        <ele>2071.2</ele>
        <time>2021-08-15T13:57:58Z</time>
      </trkpt>
      <trkpt lat="45.50757" lon="6.70746">
        <ele>2071.2</ele>
        <time>2021-08-15T13:57:59Z</time>
      </trkpt>
      <trkpt lat="45.50757" lon="6.70747">
        <ele>2071.2</ele>
        <time>2021-08-15T13:58:00Z</time>
      </trkpt>
      <trkpt lat="45.50757" lon="6.70747">
        <ele>2071.2</ele>
        <time>2021-08-15T13:58:01Z</time>
      </trkpt>
      <trkpt lat="45.50757" lon="6.70747">
        <ele>2071.2</ele>
        <time>2021-08-15T13:58:02Z</time>
      </trkpt>
      <trkpt lat="45.50758" lon="6.70747">
        <ele>2071.2</ele>
        <time>2021-08-15T13:58:03Z</time>
      </trkpt>
      <trkpt lat="45.50758" lon="6.70748">
        <ele>2071.2</ele>
        <time>2021-08-15T13:58:04Z</time>
      </trkpt>
      <trkpt lat="45.50758" lon="6.70748">
        <ele>2071.2</ele>
        <time>2021-08-15T13:58:05Z</time>
      </trkpt>
      <trkpt lat="45.50758" lon="6.70748">
        <ele>2071.2</ele>
        <time>2021-08-15T13:58:06Z</time>
      </trkpt>
      <trkpt lat="45.50758" lon="6.70748">
        <ele>2071.2</ele>
        <time>2021-08-15T13:58:07Z</time>
      </trkpt>
      <trkpt lat="45.50758" lon="6.70748">
        <ele>2071.2</ele>
        <time>2021-08-15T13:58:08Z</time>
      </trkpt>
      <trkpt lat="45.50758" lon="6.70748">
        <ele>2071.2</ele>
        <time>2021-08-15T13:58:09Z</time>
      </trkpt>
      <trkpt lat="45.50758" lon="6.70747">
        <ele>2071.3</ele>
        <time>2021-08-15T13:58:10Z</time>
      </trkpt>
      <trkpt lat="45.50758" lon="6.70746">
        <ele>2071.3</ele>
        <time>2021-08-15T13:58:11Z</time>
      </trkpt>
      <trkpt lat="45.50759" lon="6.70745">
        <ele>2071.3</ele>
        <time>2021-08-15T13:58:12Z</time>
      </trkpt>
      <trkpt lat="45.50759" lon="6.70744">
        <ele>2071.3</ele>
        <time>2021-08-15T13:58:13Z</time>
      </trkpt>
      <trkpt lat="45.5076" lon="6.70743">
        <ele>2071.3</ele>
        <time>2021-08-15T13:58:14Z</time>
      </trkpt>
      <trkpt lat="45.5076" lon="6.70741">
        <ele>2071.3</ele>
        <time>2021-08-15T13:58:15Z</time>
      </trkpt>
      <trkpt lat="45.50761" lon="6.70741">
        <ele>2071.3</ele>
        <time>2021-08-15T13:58:16Z</time>
      </trkpt>
      <trkpt lat="45.50761" lon="6.7074">
        <ele>2071.3</ele>
        <time>2021-08-15T13:58:17Z</time>
      </trkpt>
      <trkpt lat="45.50761" lon="6.7074">
        <ele>2071.2</ele>
        <time>2021-08-15T13:58:18Z</time>
      </trkpt>
      <trkpt lat="45.50761" lon="6.70739">
        <ele>2071.2</ele>
        <time>2021-08-15T13:58:19Z</time>
      </trkpt>
      <trkpt lat="45.50761" lon="6.70739">
        <ele>2071.2</ele>
        <time>2021-08-15T13:58:20Z</time>
      </trkpt>
      <trkpt lat="45.50761" lon="6.70739">
        <ele>2071.2</ele>
        <time>2021-08-15T13:58:21Z</time>
      </trkpt>
      <trkpt lat="45.50761" lon="6.70738">
        <ele>2071.2</ele>
        <time>2021-08-15T13:58:22Z</time>
      </trkpt>
      <trkpt lat="45.50761" lon="6.70738">
        <ele>2071.1</ele>
        <time>2021-08-15T13:58:23Z</time>
      </trkpt>
      <trkpt lat="45.50761" lon="6.70738">
        <ele>2071.1</ele>
        <time>2021-08-15T13:58:24Z</time>
      </trkpt>
      <trkpt lat="45.50761" lon="6.70737">
        <ele>2071.1</ele>
        <time>2021-08-15T13:58:25Z</time>
      </trkpt>
      <trkpt lat="45.50761" lon="6.70737">
        <ele>2071.1</ele>
        <time>2021-08-15T13:58:26Z</time>
      </trkpt>
      <trkpt lat="45.50761" lon="6.70737">
        <ele>2071.1</ele>
        <time>2021-08-15T13:58:27Z</time>
      </trkpt>
      <trkpt lat="45.50761" lon="6.70737">
        <ele>2071.1</ele>
        <time>2021-08-15T13:58:28Z</time>
      </trkpt>
      <trkpt lat="45.50761" lon="6.70736">
        <ele>2071.1</ele>
        <time>2021-08-15T13:58:29Z</time>
      </trkpt>
      <trkpt lat="45.50761" lon="6.70736">
        <ele>2071.1</ele>
        <time>2021-08-15T13:58:30Z</time>
      </trkpt>
      <trkpt lat="45.50761" lon="6.70736">
        <ele>2071.1</ele>
        <time>2021-08-15T13:58:31Z</time>
      </trkpt>
      <trkpt lat="45.50761" lon="6.70736">
        <ele>2071</ele>
        <time>2021-08-15T13:58:32Z</time>
      </trkpt>
      <trkpt lat="45.50761" lon="6.70736">
        <ele>2071</ele>
        <time>2021-08-15T13:58:33Z</time>
      </trkpt>
      <trkpt lat="45.50761" lon="6.70736">
        <ele>2071</ele>
        <time>2021-08-15T13:58:34Z</time>
      </trkpt>
      <trkpt lat="45.50761" lon="6.70736">
        <ele>2071</ele>
        <time>2021-08-15T13:58:35Z</time>
      </trkpt>
      <trkpt lat="45.50761" lon="6.70736">
        <ele>2071</ele>
        <time>2021-08-15T13:58:36Z</time>
      </trkpt>
      <trkpt lat="45.50761" lon="6.70736">
        <ele>2071</ele>
        <time>2021-08-15T13:58:37Z</time>
      </trkpt>
      <trkpt lat="45.50761" lon="6.70736">
        <ele>2071</ele>
        <time>2021-08-15T13:58:38Z</time>
      </trkpt>
      <trkpt lat="45.50761" lon="6.70736">
        <ele>2071</ele>
        <time>2021-08-15T13:58:39Z</time>
      </trkpt>
      <trkpt lat="45.50761" lon="6.70736">
        <ele>2071</ele>
        <time>2021-08-15T13:58:40Z</time>
      </trkpt>
      <trkpt lat="45.50761" lon="6.70736">
        <ele>2071</ele>
        <time>2021-08-15T13:58:41Z</time>
      </trkpt>
      <trkpt lat="45.50761" lon="6.70736">
        <ele>2071</ele>
        <time>2021-08-15T13:58:42Z</time>
      </trkpt>
      <trkpt lat="45.50761" lon="6.70736">
        <ele>2071</ele>
        <time>2021-08-15T13:58:43Z</time>
      </trkpt>
      <trkpt lat="45.5076" lon="6.70736">
        <ele>2071</ele>
        <time>2021-08-15T13:58:44Z</time>
      </trkpt>
      <trkpt lat="45.5076" lon="6.70736">
        <ele>2071</ele>
        <time>2021-08-15T13:58:45Z</time>
      </trkpt>
      <trkpt lat="45.5076" lon="6.70735">
        <ele>2071</ele>
        <time>2021-08-15T13:58:46Z</time>
      </trkpt>
      <trkpt lat="45.5076" lon="6.70735">
        <ele>2071</ele>
        <time>2021-08-15T13:58:47Z</time>
      </trkpt>
      <trkpt lat="45.5076" lon="6.70735">
        <ele>2070.9</ele>
        <time>2021-08-15T13:58:48Z</time>
      </trkpt>
      <trkpt lat="45.5076" lon="6.70735">
        <ele>2070.9</ele>
        <time>2021-08-15T13:58:49Z</time>
      </trkpt>
      <trkpt lat="45.50759" lon="6.70734">
        <ele>2070.9</ele>
        <time>2021-08-15T13:58:50Z</time>
      </trkpt>
      <trkpt lat="45.50759" lon="6.70734">
        <ele>2070.8</ele>
        <time>2021-08-15T13:58:51Z</time>
      </trkpt>
      <trkpt lat="45.50759" lon="6.70733">
        <ele>2070.8</ele>
        <time>2021-08-15T13:58:52Z</time>
      </trkpt>
      <trkpt lat="45.50759" lon="6.70733">
        <ele>2070.8</ele>
        <time>2021-08-15T13:58:53Z</time>
      </trkpt>
      <trkpt lat="45.50758" lon="6.70733">
        <ele>2070.7</ele>
        <time>2021-08-15T13:58:54Z</time>
      </trkpt>
      <trkpt lat="45.50758" lon="6.70732">
        <ele>2070.7</ele>
        <time>2021-08-15T13:58:55Z</time>
      </trkpt>
      <trkpt lat="45.50758" lon="6.70732">
        <ele>2070.7</ele>
        <time>2021-08-15T13:58:56Z</time>
      </trkpt>
      <trkpt lat="45.50757" lon="6.70731">
        <ele>2070.6</ele>
        <time>2021-08-15T13:58:57Z</time>
      </trkpt>
      <trkpt lat="45.50757" lon="6.70731">
        <ele>2070.6</ele>
        <time>2021-08-15T13:58:58Z</time>
      </trkpt>
      <trkpt lat="45.50757" lon="6.7073">
        <ele>2070.6</ele>
        <time>2021-08-15T13:58:59Z</time>
      </trkpt>
      <trkpt lat="45.50756" lon="6.7073">
        <ele>2070.5</ele>
        <time>2021-08-15T13:59:00Z</time>
      </trkpt>
      <trkpt lat="45.50756" lon="6.70729">
        <ele>2070.5</ele>
        <time>2021-08-15T13:59:01Z</time>
      </trkpt>
      <trkpt lat="45.50755" lon="6.70728">
        <ele>2070.4</ele>
        <time>2021-08-15T13:59:02Z</time>
      </trkpt>
      <trkpt lat="45.50755" lon="6.70727">
        <ele>2070.3</ele>
        <time>2021-08-15T13:59:03Z</time>
      </trkpt>
      <trkpt lat="45.50755" lon="6.70726">
        <ele>2070.3</ele>
        <time>2021-08-15T13:59:04Z</time>
      </trkpt>
      <trkpt lat="45.50754" lon="6.70725">
        <ele>2070.2</ele>
        <time>2021-08-15T13:59:05Z</time>
      </trkpt>
      <trkpt lat="45.50754" lon="6.70724">
        <ele>2070.1</ele>
        <time>2021-08-15T13:59:06Z</time>
      </trkpt>
      <trkpt lat="45.50754" lon="6.70723">
        <ele>2070</ele>
        <time>2021-08-15T13:59:07Z</time>
      </trkpt>
      <trkpt lat="45.50753" lon="6.70723">
        <ele>2070</ele>
        <time>2021-08-15T13:59:08Z</time>
      </trkpt>
      <trkpt lat="45.50753" lon="6.70723">
        <ele>2070</ele>
        <time>2021-08-15T13:59:09Z</time>
      </trkpt>
      <trkpt lat="45.50753" lon="6.70722">
        <ele>2070</ele>
        <time>2021-08-15T13:59:10Z</time>
      </trkpt>
      <trkpt lat="45.50753" lon="6.70722">
        <ele>2070</ele>
        <time>2021-08-15T13:59:11Z</time>
      </trkpt>
      <trkpt lat="45.50753" lon="6.70722">
        <ele>2069.9</ele>
        <time>2021-08-15T13:59:12Z</time>
      </trkpt>
      <trkpt lat="45.50753" lon="6.70722">
        <ele>2069.9</ele>
        <time>2021-08-15T13:59:13Z</time>
      </trkpt>
      <trkpt lat="45.50752" lon="6.70722">
        <ele>2069.9</ele>
        <time>2021-08-15T13:59:14Z</time>
      </trkpt>
      <trkpt lat="45.50752" lon="6.70721">
        <ele>2069.8</ele>
        <time>2021-08-15T13:59:15Z</time>
      </trkpt>
      <trkpt lat="45.50752" lon="6.70721">
        <ele>2069.8</ele>
        <time>2021-08-15T13:59:16Z</time>
      </trkpt>
      <trkpt lat="45.50751" lon="6.7072">
        <ele>2069.7</ele>
        <time>2021-08-15T13:59:17Z</time>
      </trkpt>
      <trkpt lat="45.50751" lon="6.70719">
        <ele>2069.2</ele>
        <time>2021-08-15T13:59:18Z</time>
      </trkpt>
      <trkpt lat="45.5075" lon="6.70719">
        <ele>2069.2</ele>
        <time>2021-08-15T13:59:19Z</time>
      </trkpt>
      <trkpt lat="45.5075" lon="6.70718">
        <ele>2069.1</ele>
        <time>2021-08-15T13:59:20Z</time>
      </trkpt>
      <trkpt lat="45.50749" lon="6.70717">
        <ele>2069.1</ele>
        <time>2021-08-15T13:59:21Z</time>
      </trkpt>
      <trkpt lat="45.50749" lon="6.70716">
        <ele>2068.6</ele>
        <time>2021-08-15T13:59:22Z</time>
      </trkpt>
      <trkpt lat="45.50748" lon="6.70716">
        <ele>2068.6</ele>
        <time>2021-08-15T13:59:23Z</time>
      </trkpt>
      <trkpt lat="45.50748" lon="6.70715">
        <ele>2068</ele>
        <time>2021-08-15T13:59:24Z</time>
      </trkpt>
      <trkpt lat="45.50747" lon="6.70714">
        <ele>2068</ele>
        <time>2021-08-15T13:59:25Z</time>
      </trkpt>
      <trkpt lat="45.50747" lon="6.70713">
        <ele>2067.9</ele>
        <time>2021-08-15T13:59:26Z</time>
      </trkpt>
      <trkpt lat="45.50746" lon="6.70712">
        <ele>2067.9</ele>
        <time>2021-08-15T13:59:27Z</time>
      </trkpt>
      <trkpt lat="45.50746" lon="6.70711">
        <ele>2067.5</ele>
        <time>2021-08-15T13:59:28Z</time>
      </trkpt>
      <trkpt lat="45.50746" lon="6.7071">
        <ele>2066.9</ele>
        <time>2021-08-15T13:59:29Z</time>
      </trkpt>
      <trkpt lat="45.50745" lon="6.7071">
        <ele>2066.9</ele>
        <time>2021-08-15T13:59:30Z</time>
      </trkpt>
      <trkpt lat="45.50745" lon="6.70709">
        <ele>2066.8</ele>
        <time>2021-08-15T13:59:31Z</time>
      </trkpt>
      <trkpt lat="45.50744" lon="6.70708">
        <ele>2066.8</ele>
        <time>2021-08-15T13:59:32Z</time>
      </trkpt>
      <trkpt lat="45.50744" lon="6.70707">
        <ele>2066.7</ele>
        <time>2021-08-15T13:59:33Z</time>
      </trkpt>
      <trkpt lat="45.50743" lon="6.70706">
        <ele>2066.2</ele>
        <time>2021-08-15T13:59:34Z</time>
      </trkpt>
      <trkpt lat="45.50743" lon="6.70705">
        <ele>2066.1</ele>
        <time>2021-08-15T13:59:35Z</time>
      </trkpt>
      <trkpt lat="45.50743" lon="6.70704">
        <ele>2065.7</ele>
        <time>2021-08-15T13:59:36Z</time>
      </trkpt>
      <trkpt lat="45.50742" lon="6.70703">
        <ele>2065.7</ele>
        <time>2021-08-15T13:59:37Z</time>
      </trkpt>
      <trkpt lat="45.50742" lon="6.70702">
        <ele>2065.1</ele>
        <time>2021-08-15T13:59:38Z</time>
      </trkpt>
      <trkpt lat="45.50742" lon="6.70701">
        <ele>2065.1</ele>
        <time>2021-08-15T13:59:39Z</time>
      </trkpt>
      <trkpt lat="45.50742" lon="6.707">
        <ele>2065</ele>
        <time>2021-08-15T13:59:40Z</time>
      </trkpt>
      <trkpt lat="45.50742" lon="6.70699">
        <ele>2065</ele>
        <time>2021-08-15T13:59:41Z</time>
      </trkpt>
      <trkpt lat="45.50742" lon="6.70698">
        <ele>2064.4</ele>
        <time>2021-08-15T13:59:42Z</time>
      </trkpt>
      <trkpt lat="45.50743" lon="6.70697">
        <ele>2064.3</ele>
        <time>2021-08-15T13:59:43Z</time>
      </trkpt>
      <trkpt lat="45.50743" lon="6.70697">
        <ele>2064.5</ele>
        <time>2021-08-15T13:59:44Z</time>
      </trkpt>
      <trkpt lat="45.50744" lon="6.70696">
        <ele>2064.5</ele>
        <time>2021-08-15T13:59:45Z</time>
      </trkpt>
      <trkpt lat="45.50744" lon="6.70696">
        <ele>2064.5</ele>
        <time>2021-08-15T13:59:46Z</time>
      </trkpt>
      <trkpt lat="45.50745" lon="6.70696">
        <ele>2064.4</ele>
        <time>2021-08-15T13:59:47Z</time>
      </trkpt>
      <trkpt lat="45.50745" lon="6.70696">
        <ele>2064.4</ele>
        <time>2021-08-15T13:59:48Z</time>
      </trkpt>
      <trkpt lat="45.50745" lon="6.70695">
        <ele>2064.4</ele>
        <time>2021-08-15T13:59:49Z</time>
      </trkpt>
      <trkpt lat="45.50745" lon="6.70695">
        <ele>2064.4</ele>
        <time>2021-08-15T13:59:50Z</time>
      </trkpt>
      <trkpt lat="45.50745" lon="6.70695">
        <ele>2064.4</ele>
        <time>2021-08-15T13:59:51Z</time>
      </trkpt>
      <trkpt lat="45.50745" lon="6.70695">
        <ele>2064.4</ele>
        <time>2021-08-15T13:59:52Z</time>
      </trkpt>
      <trkpt lat="45.50746" lon="6.70695">
        <ele>2064.4</ele>
        <time>2021-08-15T13:59:53Z</time>
      </trkpt>
      <trkpt lat="45.50746" lon="6.70695">
        <ele>2064.4</ele>
        <time>2021-08-15T13:59:54Z</time>
      </trkpt>
      <trkpt lat="45.50746" lon="6.70695">
        <ele>2064.4</ele>
        <time>2021-08-15T13:59:55Z</time>
      </trkpt>
      <trkpt lat="45.50746" lon="6.70695">
        <ele>2064.4</ele>
        <time>2021-08-15T13:59:56Z</time>
      </trkpt>
      <trkpt lat="45.50746" lon="6.70695">
        <ele>2064.4</ele>
        <time>2021-08-15T13:59:57Z</time>
      </trkpt>
      <trkpt lat="45.50746" lon="6.70695">
        <ele>2064.4</ele>
        <time>2021-08-15T13:59:58Z</time>
      </trkpt>
      <trkpt lat="45.50746" lon="6.70695">
        <ele>2064.4</ele>
        <time>2021-08-15T13:59:59Z</time>
      </trkpt>
      <trkpt lat="45.50746" lon="6.70695">
        <ele>2064.4</ele>
        <time>2021-08-15T14:00:00Z</time>
      </trkpt>
      <trkpt lat="45.50746" lon="6.70695">
        <ele>2064.4</ele>
        <time>2021-08-15T14:00:01Z</time>
      </trkpt>
      <trkpt lat="45.50746" lon="6.70695">
        <ele>2064.4</ele>
        <time>2021-08-15T14:00:02Z</time>
      </trkpt>
      <trkpt lat="45.50746" lon="6.70695">
        <ele>2064.4</ele>
        <time>2021-08-15T14:00:03Z</time>
      </trkpt>
      <trkpt lat="45.50746" lon="6.70695">
        <ele>2064.4</ele>
        <time>2021-08-15T14:00:04Z</time>
      </trkpt>
      <trkpt lat="45.50746" lon="6.70695">
        <ele>2064.4</ele>
        <time>2021-08-15T14:00:05Z</time>
      </trkpt>
      <trkpt lat="45.50746" lon="6.70695">
        <ele>2064.4</ele>
        <time>2021-08-15T14:00:06Z</time>
      </trkpt>
      <trkpt lat="45.50746" lon="6.70695">
        <ele>2064.4</ele>
        <time>2021-08-15T14:00:07Z</time>
      </trkpt>
      <trkpt lat="45.50746" lon="6.70695">
        <ele>2064.4</ele>
        <time>2021-08-15T14:00:08Z</time>
      </trkpt>
      <trkpt lat="45.50746" lon="6.70695">
        <ele>2064.4</ele>
        <time>2021-08-15T14:00:09Z</time>
      </trkpt>
      <trkpt lat="45.50746" lon="6.70695">
        <ele>2064.4</ele>
        <time>2021-08-15T14:00:10Z</time>
      </trkpt>
      <trkpt lat="45.50746" lon="6.70695">
        <ele>2064.4</ele>
        <time>2021-08-15T14:00:11Z</time>
      </trkpt>
      <trkpt lat="45.50746" lon="6.70695">
        <ele>2064.4</ele>
        <time>2021-08-15T14:00:12Z</time>
      </trkpt>
      <trkpt lat="45.50746" lon="6.70695">
        <ele>2064.4</ele>
        <time>2021-08-15T14:00:13Z</time>
      </trkpt>
      <trkpt lat="45.50746" lon="6.70695">
        <ele>2064.4</ele>
        <time>2021-08-15T14:00:14Z</time>
      </trkpt>
      <trkpt lat="45.50746" lon="6.70695">
        <ele>2064.4</ele>
        <time>2021-08-15T14:00:15Z</time>
      </trkpt>
      <trkpt lat="45.50746" lon="6.70695">
        <ele>2064.4</ele>
        <time>2021-08-15T14:00:16Z</time>
      </trkpt>
      <trkpt lat="45.50746" lon="6.70695">
        <ele>2064.4</ele>
        <time>2021-08-15T14:00:17Z</time>
      </trkpt>
      <trkpt lat="45.50746" lon="6.70695">
        <ele>2064.4</ele>
        <time>2021-08-15T14:00:18Z</time>
      </trkpt>
      <trkpt lat="45.50746" lon="6.70695">
        <ele>2064.4</ele>
        <time>2021-08-15T14:00:19Z</time>
      </trkpt>
      <trkpt lat="45.50746" lon="6.70695">
        <ele>2064.3</ele>
        <time>2021-08-15T14:00:20Z</time>
      </trkpt>
      <trkpt lat="45.50746" lon="6.70695">
        <ele>2064.3</ele>
        <time>2021-08-15T14:00:21Z</time>
      </trkpt>
      <trkpt lat="45.50746" lon="6.70695">
        <ele>2064.3</ele>
        <time>2021-08-15T14:00:22Z</time>
      </trkpt>
      <trkpt lat="45.50746" lon="6.70695">
        <ele>2064.3</ele>
        <time>2021-08-15T14:00:23Z</time>
      </trkpt>
      <trkpt lat="45.50746" lon="6.70696">
        <ele>2064.3</ele>
        <time>2021-08-15T14:00:24Z</time>
      </trkpt>
      <trkpt lat="45.50746" lon="6.70696">
        <ele>2064.3</ele>
        <time>2021-08-15T14:00:25Z</time>
      </trkpt>
      <trkpt lat="45.50746" lon="6.70696">
        <ele>2064.3</ele>
        <time>2021-08-15T14:00:26Z</time>
      </trkpt>
      <trkpt lat="45.50746" lon="6.70696">
        <ele>2064.3</ele>
        <time>2021-08-15T14:00:27Z</time>
      </trkpt>
      <trkpt lat="45.50746" lon="6.70696">
        <ele>2064.3</ele>
        <time>2021-08-15T14:00:28Z</time>
      </trkpt>
      <trkpt lat="45.50746" lon="6.70696">
        <ele>2064.3</ele>
        <time>2021-08-15T14:00:29Z</time>
      </trkpt>
      <trkpt lat="45.50746" lon="6.70696">
        <ele>2064.3</ele>
        <time>2021-08-15T14:00:30Z</time>
      </trkpt>
      <trkpt lat="45.50746" lon="6.70696">
        <ele>2064.3</ele>
        <time>2021-08-15T14:00:31Z</time>
      </trkpt>
      <trkpt lat="45.50746" lon="6.70697">
        <ele>2064.3</ele>
        <time>2021-08-15T14:00:32Z</time>
      </trkpt>
      <trkpt lat="45.50746" lon="6.70697">
        <ele>2064.3</ele>
        <time>2021-08-15T14:00:33Z</time>
      </trkpt>
      <trkpt lat="45.50746" lon="6.70697">
        <ele>2064.3</ele>
        <time>2021-08-15T14:00:34Z</time>
      </trkpt>
      <trkpt lat="45.50746" lon="6.70697">
        <ele>2064.3</ele>
        <time>2021-08-15T14:00:35Z</time>
      </trkpt>
      <trkpt lat="45.50746" lon="6.70697">
        <ele>2064.3</ele>
        <time>2021-08-15T14:00:36Z</time>
      </trkpt>
      <trkpt lat="45.50746" lon="6.70697">
        <ele>2064.3</ele>
        <time>2021-08-15T14:00:37Z</time>
      </trkpt>
      <trkpt lat="45.50746" lon="6.70697">
        <ele>2064.3</ele>
        <time>2021-08-15T14:00:38Z</time>
      </trkpt>
      <trkpt lat="45.50746" lon="6.70697">
        <ele>2064.3</ele>
        <time>2021-08-15T14:00:39Z</time>
      </trkpt>
      <trkpt lat="45.50746" lon="6.70697">
        <ele>2064.3</ele>
        <time>2021-08-15T14:00:40Z</time>
      </trkpt>
      <trkpt lat="45.50746" lon="6.70697">
        <ele>2064.3</ele>
        <time>2021-08-15T14:00:41Z</time>
      </trkpt>
      <trkpt lat="45.50746" lon="6.70697">
        <ele>2064.3</ele>
        <time>2021-08-15T14:00:42Z</time>
      </trkpt>
      <trkpt lat="45.50746" lon="6.70697">
        <ele>2064.3</ele>
        <time>2021-08-15T14:00:43Z</time>
      </trkpt>
      <trkpt lat="45.50746" lon="6.70697">
        <ele>2064.3</ele>
        <time>2021-08-15T14:00:44Z</time>
      </trkpt>
      <trkpt lat="45.50746" lon="6.70697">
        <ele>2064.3</ele>
        <time>2021-08-15T14:00:45Z</time>
      </trkpt>
      <trkpt lat="45.50746" lon="6.70697">
        <ele>2064.2</ele>
        <time>2021-08-15T14:00:46Z</time>
      </trkpt>
      <trkpt lat="45.50746" lon="6.70697">
        <ele>2064.2</ele>
        <time>2021-08-15T14:00:47Z</time>
      </trkpt>
      <trkpt lat="45.50746" lon="6.70697">
        <ele>2064.2</ele>
        <time>2021-08-15T14:00:48Z</time>
      </trkpt>
      <trkpt lat="45.50746" lon="6.70697">
        <ele>2064.2</ele>
        <time>2021-08-15T14:00:49Z</time>
      </trkpt>
      <trkpt lat="45.50746" lon="6.70697">
        <ele>2064.2</ele>
        <time>2021-08-15T14:00:50Z</time>
      </trkpt>
      <trkpt lat="45.50746" lon="6.70697">
        <ele>2064.2</ele>
        <time>2021-08-15T14:00:51Z</time>
      </trkpt>
      <trkpt lat="45.50747" lon="6.70696">
        <ele>2064.2</ele>
        <time>2021-08-15T14:00:52Z</time>
      </trkpt>
      <trkpt lat="45.50747" lon="6.70696">
        <ele>2064.1</ele>
        <time>2021-08-15T14:00:53Z</time>
      </trkpt>
      <trkpt lat="45.50748" lon="6.70695">
        <ele>2064.1</ele>
        <time>2021-08-15T14:00:54Z</time>
      </trkpt>
      <trkpt lat="45.50748" lon="6.70695">
        <ele>2064</ele>
        <time>2021-08-15T14:00:55Z</time>
      </trkpt>
      <trkpt lat="45.50749" lon="6.70695">
        <ele>2064</ele>
        <time>2021-08-15T14:00:56Z</time>
      </trkpt>
      <trkpt lat="45.50749" lon="6.70694">
        <ele>2064</ele>
        <time>2021-08-15T14:00:57Z</time>
      </trkpt>
      <trkpt lat="45.50749" lon="6.70694">
        <ele>2063.9</ele>
        <time>2021-08-15T14:00:58Z</time>
      </trkpt>
      <trkpt lat="45.50749" lon="6.70694">
        <ele>2063.9</ele>
        <time>2021-08-15T14:00:59Z</time>
      </trkpt>
      <trkpt lat="45.50749" lon="6.70694">
        <ele>2063.9</ele>
        <time>2021-08-15T14:01:00Z</time>
      </trkpt>
      <trkpt lat="45.5075" lon="6.70694">
        <ele>2063.9</ele>
        <time>2021-08-15T14:01:01Z</time>
      </trkpt>
      <trkpt lat="45.5075" lon="6.70694">
        <ele>2063.9</ele>
        <time>2021-08-15T14:01:02Z</time>
      </trkpt>
      <trkpt lat="45.5075" lon="6.70694">
        <ele>2063.9</ele>
        <time>2021-08-15T14:01:03Z</time>
      </trkpt>
      <trkpt lat="45.5075" lon="6.70694">
        <ele>2063.9</ele>
        <time>2021-08-15T14:01:04Z</time>
      </trkpt>
      <trkpt lat="45.5075" lon="6.70694">
        <ele>2063.9</ele>
        <time>2021-08-15T14:01:05Z</time>
      </trkpt>
      <trkpt lat="45.50749" lon="6.70694">
        <ele>2063.9</ele>
        <time>2021-08-15T14:01:06Z</time>
      </trkpt>
      <trkpt lat="45.50749" lon="6.70695">
        <ele>2063.9</ele>
        <time>2021-08-15T14:01:07Z</time>
      </trkpt>
      <trkpt lat="45.50749" lon="6.70695">
        <ele>2063.9</ele>
        <time>2021-08-15T14:01:08Z</time>
      </trkpt>
      <trkpt lat="45.50749" lon="6.70695">
        <ele>2063.9</ele>
        <time>2021-08-15T14:01:09Z</time>
      </trkpt>
      <trkpt lat="45.50749" lon="6.70695">
        <ele>2063.9</ele>
        <time>2021-08-15T14:01:10Z</time>
      </trkpt>
      <trkpt lat="45.50749" lon="6.70695">
        <ele>2063.9</ele>
        <time>2021-08-15T14:01:11Z</time>
      </trkpt>
      <trkpt lat="45.50749" lon="6.70695">
        <ele>2063.9</ele>
        <time>2021-08-15T14:01:12Z</time>
      </trkpt>
      <trkpt lat="45.50749" lon="6.70695">
        <ele>2063.8</ele>
        <time>2021-08-15T14:01:13Z</time>
      </trkpt>
      <trkpt lat="45.5075" lon="6.70695">
        <ele>2063.8</ele>
        <time>2021-08-15T14:01:14Z</time>
      </trkpt>
      <trkpt lat="45.5075" lon="6.70694">
        <ele>2063.8</ele>
        <time>2021-08-15T14:01:15Z</time>
      </trkpt>
      <trkpt lat="45.5075" lon="6.70694">
        <ele>2063.8</ele>
        <time>2021-08-15T14:01:16Z</time>
      </trkpt>
      <trkpt lat="45.5075" lon="6.70694">
        <ele>2063.8</ele>
        <time>2021-08-15T14:01:17Z</time>
      </trkpt>
      <trkpt lat="45.50751" lon="6.70694">
        <ele>2063.7</ele>
        <time>2021-08-15T14:01:18Z</time>
      </trkpt>
      <trkpt lat="45.50751" lon="6.70693">
        <ele>2063.7</ele>
        <time>2021-08-15T14:01:19Z</time>
      </trkpt>
      <trkpt lat="45.50752" lon="6.70693">
        <ele>2063.7</ele>
        <time>2021-08-15T14:01:20Z</time>
      </trkpt>
      <trkpt lat="45.50752" lon="6.70693">
        <ele>2063.6</ele>
        <time>2021-08-15T14:01:21Z</time>
      </trkpt>
      <trkpt lat="45.50753" lon="6.70692">
        <ele>2063.5</ele>
        <time>2021-08-15T14:01:22Z</time>
      </trkpt>
      <trkpt lat="45.50754" lon="6.70692">
        <ele>2063.5</ele>
        <time>2021-08-15T14:01:23Z</time>
      </trkpt>
      <trkpt lat="45.50755" lon="6.70692">
        <ele>2063.4</ele>
        <time>2021-08-15T14:01:24Z</time>
      </trkpt>
      <trkpt lat="45.50756" lon="6.70691">
        <ele>2063.3</ele>
        <time>2021-08-15T14:01:25Z</time>
      </trkpt>
      <trkpt lat="45.50757" lon="6.70691">
        <ele>2063.3</ele>
        <time>2021-08-15T14:01:26Z</time>
      </trkpt>
      <trkpt lat="45.50758" lon="6.70691">
        <ele>2063.2</ele>
        <time>2021-08-15T14:01:27Z</time>
      </trkpt>
      <trkpt lat="45.50759" lon="6.7069">
        <ele>2063.1</ele>
        <time>2021-08-15T14:01:28Z</time>
      </trkpt>
      <trkpt lat="45.50759" lon="6.7069">
        <ele>2063</ele>
        <time>2021-08-15T14:01:29Z</time>
      </trkpt>
      <trkpt lat="45.5076" lon="6.70689">
        <ele>2063</ele>
        <time>2021-08-15T14:01:30Z</time>
      </trkpt>
      <trkpt lat="45.50761" lon="6.70689">
        <ele>2062.9</ele>
        <time>2021-08-15T14:01:31Z</time>
      </trkpt>
      <trkpt lat="45.50761" lon="6.70688">
        <ele>2062.9</ele>
        <time>2021-08-15T14:01:32Z</time>
      </trkpt>
      <trkpt lat="45.50762" lon="6.70688">
        <ele>2062.8</ele>
        <time>2021-08-15T14:01:33Z</time>
      </trkpt>
      <trkpt lat="45.50763" lon="6.70687">
        <ele>2062.8</ele>
        <time>2021-08-15T14:01:34Z</time>
      </trkpt>
      <trkpt lat="45.50763" lon="6.70686">
        <ele>2062.7</ele>
        <time>2021-08-15T14:01:35Z</time>
      </trkpt>
      <trkpt lat="45.50764" lon="6.70685">
        <ele>2062.6</ele>
        <time>2021-08-15T14:01:36Z</time>
      </trkpt>
      <trkpt lat="45.50765" lon="6.70685">
        <ele>2062.5</ele>
        <time>2021-08-15T14:01:37Z</time>
      </trkpt>
      <trkpt lat="45.50766" lon="6.70684">
        <ele>2062.4</ele>
        <time>2021-08-15T14:01:38Z</time>
      </trkpt>
      <trkpt lat="45.50767" lon="6.70683">
        <ele>2062.3</ele>
        <time>2021-08-15T14:01:39Z</time>
      </trkpt>
      <trkpt lat="45.50768" lon="6.70682">
        <ele>2062.2</ele>
        <time>2021-08-15T14:01:40Z</time>
      </trkpt>
      <trkpt lat="45.50769" lon="6.70681">
        <ele>2062.1</ele>
        <time>2021-08-15T14:01:41Z</time>
      </trkpt>
      <trkpt lat="45.5077" lon="6.70681">
        <ele>2062</ele>
        <time>2021-08-15T14:01:42Z</time>
      </trkpt>
      <trkpt lat="45.50772" lon="6.7068">
        <ele>2061.9</ele>
        <time>2021-08-15T14:01:43Z</time>
      </trkpt>
      <trkpt lat="45.50773" lon="6.70679">
        <ele>2061.8</ele>
        <time>2021-08-15T14:01:44Z</time>
      </trkpt>
      <trkpt lat="45.50774" lon="6.70678">
        <ele>2061.7</ele>
        <time>2021-08-15T14:01:45Z</time>
      </trkpt>
      <trkpt lat="45.50775" lon="6.70677">
        <ele>2061.6</ele>
        <time>2021-08-15T14:01:46Z</time>
      </trkpt>
      <trkpt lat="45.50776" lon="6.70676">
        <ele>2061.5</ele>
        <time>2021-08-15T14:01:47Z</time>
      </trkpt>
      <trkpt lat="45.50777" lon="6.70675">
        <ele>2061.5</ele>
        <time>2021-08-15T14:01:48Z</time>
      </trkpt>
      <trkpt lat="45.50778" lon="6.70675">
        <ele>2061.4</ele>
        <time>2021-08-15T14:01:49Z</time>
      </trkpt>
      <trkpt lat="45.50779" lon="6.70674">
        <ele>2061.3</ele>
        <time>2021-08-15T14:01:50Z</time>
      </trkpt>
      <trkpt lat="45.5078" lon="6.70673">
        <ele>2061.2</ele>
        <time>2021-08-15T14:01:51Z</time>
      </trkpt>
      <trkpt lat="45.50781" lon="6.70672">
        <ele>2061.1</ele>
        <time>2021-08-15T14:01:52Z</time>
      </trkpt>
      <trkpt lat="45.50782" lon="6.70671">
        <ele>2061</ele>
        <time>2021-08-15T14:01:53Z</time>
      </trkpt>
      <trkpt lat="45.50782" lon="6.7067">
        <ele>2060.9</ele>
        <time>2021-08-15T14:01:54Z</time>
      </trkpt>
      <trkpt lat="45.50783" lon="6.70669">
        <ele>2060.8</ele>
        <time>2021-08-15T14:01:55Z</time>
      </trkpt>
      <trkpt lat="45.50784" lon="6.70668">
        <ele>2060.8</ele>
        <time>2021-08-15T14:01:56Z</time>
      </trkpt>
      <trkpt lat="45.50785" lon="6.70667">
        <ele>2060.7</ele>
        <time>2021-08-15T14:01:57Z</time>
      </trkpt>
      <trkpt lat="45.50786" lon="6.70666">
        <ele>2060.6</ele>
        <time>2021-08-15T14:01:58Z</time>
      </trkpt>
      <trkpt lat="45.50787" lon="6.70665">
        <ele>2060.5</ele>
        <time>2021-08-15T14:01:59Z</time>
      </trkpt>
      <trkpt lat="45.50787" lon="6.70664">
        <ele>2060.4</ele>
        <time>2021-08-15T14:02:00Z</time>
      </trkpt>
      <trkpt lat="45.50788" lon="6.70663">
        <ele>2060.3</ele>
        <time>2021-08-15T14:02:01Z</time>
      </trkpt>
      <trkpt lat="45.50789" lon="6.70662">
        <ele>2060.3</ele>
        <time>2021-08-15T14:02:02Z</time>
      </trkpt>
      <trkpt lat="45.5079" lon="6.70661">
        <ele>2060.2</ele>
        <time>2021-08-15T14:02:03Z</time>
      </trkpt>
      <trkpt lat="45.5079" lon="6.7066">
        <ele>2060.1</ele>
        <time>2021-08-15T14:02:04Z</time>
      </trkpt>
      <trkpt lat="45.50791" lon="6.70659">
        <ele>2060</ele>
        <time>2021-08-15T14:02:05Z</time>
      </trkpt>
      <trkpt lat="45.50792" lon="6.70659">
        <ele>2059.9</ele>
        <time>2021-08-15T14:02:06Z</time>
      </trkpt>
      <trkpt lat="45.50793" lon="6.70658">
        <ele>2059.9</ele>
        <time>2021-08-15T14:02:07Z</time>
      </trkpt>
      <trkpt lat="45.50794" lon="6.70657">
        <ele>2059.8</ele>
        <time>2021-08-15T14:02:08Z</time>
      </trkpt>
      <trkpt lat="45.50794" lon="6.70656">
        <ele>2059.7</ele>
        <time>2021-08-15T14:02:09Z</time>
      </trkpt>
      <trkpt lat="45.50795" lon="6.70655">
        <ele>2059.6</ele>
        <time>2021-08-15T14:02:10Z</time>
      </trkpt>
      <trkpt lat="45.50796" lon="6.70654">
        <ele>2059.6</ele>
        <time>2021-08-15T14:02:11Z</time>
      </trkpt>
      <trkpt lat="45.50797" lon="6.70653">
        <ele>2059.5</ele>
        <time>2021-08-15T14:02:12Z</time>
      </trkpt>
      <trkpt lat="45.50797" lon="6.70652">
        <ele>2059.4</ele>
        <time>2021-08-15T14:02:13Z</time>
      </trkpt>
      <trkpt lat="45.50798" lon="6.70651">
        <ele>2059.3</ele>
        <time>2021-08-15T14:02:14Z</time>
      </trkpt>
      <trkpt lat="45.50799" lon="6.7065">
        <ele>2059.3</ele>
        <time>2021-08-15T14:02:15Z</time>
      </trkpt>
      <trkpt lat="45.508" lon="6.7065">
        <ele>2059.2</ele>
        <time>2021-08-15T14:02:16Z</time>
      </trkpt>
      <trkpt lat="45.508" lon="6.70649">
        <ele>2059.1</ele>
        <time>2021-08-15T14:02:17Z</time>
      </trkpt>
      <trkpt lat="45.50801" lon="6.70648">
        <ele>2059</ele>
        <time>2021-08-15T14:02:18Z</time>
      </trkpt>
      <trkpt lat="45.50802" lon="6.70647">
        <ele>2058.9</ele>
        <time>2021-08-15T14:02:19Z</time>
      </trkpt>
      <trkpt lat="45.50803" lon="6.70646">
        <ele>2058.9</ele>
        <time>2021-08-15T14:02:20Z</time>
      </trkpt>
      <trkpt lat="45.50804" lon="6.70645">
        <ele>2058.8</ele>
        <time>2021-08-15T14:02:21Z</time>
      </trkpt>
      <trkpt lat="45.50804" lon="6.70644">
        <ele>2058.7</ele>
        <time>2021-08-15T14:02:22Z</time>
      </trkpt>
      <trkpt lat="45.50805" lon="6.70644">
        <ele>2058.6</ele>
        <time>2021-08-15T14:02:23Z</time>
      </trkpt>
      <trkpt lat="45.50806" lon="6.70643">
        <ele>2058.6</ele>
        <time>2021-08-15T14:02:24Z</time>
      </trkpt>
      <trkpt lat="45.50807" lon="6.70642">
        <ele>2058.5</ele>
        <time>2021-08-15T14:02:25Z</time>
      </trkpt>
      <trkpt lat="45.50808" lon="6.70641">
        <ele>2058.4</ele>
        <time>2021-08-15T14:02:26Z</time>
      </trkpt>
      <trkpt lat="45.50808" lon="6.7064">
        <ele>2058.3</ele>
        <time>2021-08-15T14:02:27Z</time>
      </trkpt>
      <trkpt lat="45.50809" lon="6.7064">
        <ele>2058.2</ele>
        <time>2021-08-15T14:02:28Z</time>
      </trkpt>
      <trkpt lat="45.5081" lon="6.70639">
        <ele>2058.2</ele>
        <time>2021-08-15T14:02:29Z</time>
      </trkpt>
      <trkpt lat="45.50811" lon="6.70638">
        <ele>2058.1</ele>
        <time>2021-08-15T14:02:30Z</time>
      </trkpt>
      <trkpt lat="45.50812" lon="6.70637">
        <ele>2058</ele>
        <time>2021-08-15T14:02:31Z</time>
      </trkpt>
      <trkpt lat="45.50812" lon="6.70636">
        <ele>2057.9</ele>
        <time>2021-08-15T14:02:32Z</time>
      </trkpt>
      <trkpt lat="45.50813" lon="6.70636">
        <ele>2057.8</ele>
        <time>2021-08-15T14:02:33Z</time>
      </trkpt>
      <trkpt lat="45.50814" lon="6.70635">
        <ele>2057.7</ele>
        <time>2021-08-15T14:02:34Z</time>
      </trkpt>
      <trkpt lat="45.50815" lon="6.70634">
        <ele>2057.7</ele>
        <time>2021-08-15T14:02:35Z</time>
      </trkpt>
      <trkpt lat="45.50816" lon="6.70634">
        <ele>2057.6</ele>
        <time>2021-08-15T14:02:36Z</time>
      </trkpt>
      <trkpt lat="45.50817" lon="6.70633">
        <ele>2057.5</ele>
        <time>2021-08-15T14:02:37Z</time>
      </trkpt>
      <trkpt lat="45.50818" lon="6.70632">
        <ele>2057.4</ele>
        <time>2021-08-15T14:02:38Z</time>
      </trkpt>
      <trkpt lat="45.50818" lon="6.70631">
        <ele>2057.3</ele>
        <time>2021-08-15T14:02:39Z</time>
      </trkpt>
      <trkpt lat="45.50819" lon="6.70631">
        <ele>2057.3</ele>
        <time>2021-08-15T14:02:40Z</time>
      </trkpt>
      <trkpt lat="45.5082" lon="6.7063">
        <ele>2057.2</ele>
        <time>2021-08-15T14:02:41Z</time>
      </trkpt>
      <trkpt lat="45.50821" lon="6.7063">
        <ele>2057.1</ele>
        <time>2021-08-15T14:02:42Z</time>
      </trkpt>
      <trkpt lat="45.50822" lon="6.70629">
        <ele>2057</ele>
        <time>2021-08-15T14:02:43Z</time>
      </trkpt>
      <trkpt lat="45.50823" lon="6.70628">
        <ele>2057</ele>
        <time>2021-08-15T14:02:44Z</time>
      </trkpt>
      <trkpt lat="45.50823" lon="6.70628">
        <ele>2056.9</ele>
        <time>2021-08-15T14:02:45Z</time>
      </trkpt>
      <trkpt lat="45.50824" lon="6.70627">
        <ele>2056.8</ele>
        <time>2021-08-15T14:02:46Z</time>
      </trkpt>
      <trkpt lat="45.50825" lon="6.70627">
        <ele>2056.7</ele>
        <time>2021-08-15T14:02:47Z</time>
      </trkpt>
      <trkpt lat="45.50826" lon="6.70626">
        <ele>2056.6</ele>
        <time>2021-08-15T14:02:48Z</time>
      </trkpt>
      <trkpt lat="45.50827" lon="6.70626">
        <ele>2056.6</ele>
        <time>2021-08-15T14:02:49Z</time>
      </trkpt>
      <trkpt lat="45.50828" lon="6.70625">
        <ele>2056.5</ele>
        <time>2021-08-15T14:02:50Z</time>
      </trkpt>
      <trkpt lat="45.50829" lon="6.70624">
        <ele>2056.4</ele>
        <time>2021-08-15T14:02:51Z</time>
      </trkpt>
      <trkpt lat="45.50829" lon="6.70624">
        <ele>2056.3</ele>
        <time>2021-08-15T14:02:52Z</time>
      </trkpt>
      <trkpt lat="45.5083" lon="6.70623">
        <ele>2056.2</ele>
        <time>2021-08-15T14:02:53Z</time>
      </trkpt>
      <trkpt lat="45.50831" lon="6.70622">
        <ele>2056.2</ele>
        <time>2021-08-15T14:02:54Z</time>
      </trkpt>
      <trkpt lat="45.50832" lon="6.70622">
        <ele>2056.1</ele>
        <time>2021-08-15T14:02:55Z</time>
      </trkpt>
      <trkpt lat="45.50833" lon="6.70621">
        <ele>2056</ele>
        <time>2021-08-15T14:02:56Z</time>
      </trkpt>
      <trkpt lat="45.50834" lon="6.7062">
        <ele>2055.9</ele>
        <time>2021-08-15T14:02:57Z</time>
      </trkpt>
      <trkpt lat="45.50834" lon="6.70619">
        <ele>2055.8</ele>
        <time>2021-08-15T14:02:58Z</time>
      </trkpt>
      <trkpt lat="45.50835" lon="6.70618">
        <ele>2055.7</ele>
        <time>2021-08-15T14:02:59Z</time>
      </trkpt>
      <trkpt lat="45.50836" lon="6.70617">
        <ele>2055.7</ele>
        <time>2021-08-15T14:03:00Z</time>
      </trkpt>
      <trkpt lat="45.50836" lon="6.70616">
        <ele>2055.6</ele>
        <time>2021-08-15T14:03:01Z</time>
      </trkpt>
      <trkpt lat="45.50837" lon="6.70615">
        <ele>2055.5</ele>
        <time>2021-08-15T14:03:02Z</time>
      </trkpt>
      <trkpt lat="45.50837" lon="6.70614">
        <ele>2055.4</ele>
        <time>2021-08-15T14:03:03Z</time>
      </trkpt>
      <trkpt lat="45.50837" lon="6.70613">
        <ele>2055.4</ele>
        <time>2021-08-15T14:03:04Z</time>
      </trkpt>
      <trkpt lat="45.50837" lon="6.70612">
        <ele>2055.3</ele>
        <time>2021-08-15T14:03:05Z</time>
      </trkpt>
      <trkpt lat="45.50837" lon="6.70611">
        <ele>2055.2</ele>
        <time>2021-08-15T14:03:06Z</time>
      </trkpt>
      <trkpt lat="45.50837" lon="6.7061">
        <ele>2055.2</ele>
        <time>2021-08-15T14:03:07Z</time>
      </trkpt>
      <trkpt lat="45.50837" lon="6.70609">
        <ele>2055.1</ele>
        <time>2021-08-15T14:03:08Z</time>
      </trkpt>
      <trkpt lat="45.50837" lon="6.70608">
        <ele>2055.1</ele>
        <time>2021-08-15T14:03:09Z</time>
      </trkpt>
      <trkpt lat="45.50836" lon="6.70607">
        <ele>2052.7</ele>
        <time>2021-08-15T14:03:10Z</time>
      </trkpt>
      <trkpt lat="45.50836" lon="6.70606">
        <ele>2052.6</ele>
        <time>2021-08-15T14:03:11Z</time>
      </trkpt>
      <trkpt lat="45.50835" lon="6.70606">
        <ele>2052.5</ele>
        <time>2021-08-15T14:03:12Z</time>
      </trkpt>
      <trkpt lat="45.50835" lon="6.70605">
        <ele>2052.5</ele>
        <time>2021-08-15T14:03:13Z</time>
      </trkpt>
      <trkpt lat="45.50834" lon="6.70604">
        <ele>2052.4</ele>
        <time>2021-08-15T14:03:14Z</time>
      </trkpt>
      <trkpt lat="45.50833" lon="6.70604">
        <ele>2052.3</ele>
        <time>2021-08-15T14:03:15Z</time>
      </trkpt>
      <trkpt lat="45.50832" lon="6.70604">
        <ele>2052.2</ele>
        <time>2021-08-15T14:03:16Z</time>
      </trkpt>
      <trkpt lat="45.50831" lon="6.70604">
        <ele>2052.1</ele>
        <time>2021-08-15T14:03:17Z</time>
      </trkpt>
      <trkpt lat="45.50829" lon="6.70604">
        <ele>2051.9</ele>
        <time>2021-08-15T14:03:18Z</time>
      </trkpt>
      <trkpt lat="45.50828" lon="6.70604">
        <ele>2051.8</ele>
        <time>2021-08-15T14:03:19Z</time>
      </trkpt>
      <trkpt lat="45.50827" lon="6.70604">
        <ele>2051.7</ele>
        <time>2021-08-15T14:03:20Z</time>
      </trkpt>
      <trkpt lat="45.50826" lon="6.70604">
        <ele>2051.6</ele>
        <time>2021-08-15T14:03:21Z</time>
      </trkpt>
      <trkpt lat="45.50825" lon="6.70604">
        <ele>2051.5</ele>
        <time>2021-08-15T14:03:22Z</time>
      </trkpt>
      <trkpt lat="45.50823" lon="6.70605">
        <ele>2051.4</ele>
        <time>2021-08-15T14:03:23Z</time>
      </trkpt>
      <trkpt lat="45.50822" lon="6.70605">
        <ele>2051.2</ele>
        <time>2021-08-15T14:03:24Z</time>
      </trkpt>
      <trkpt lat="45.50821" lon="6.70606">
        <ele>2051.1</ele>
        <time>2021-08-15T14:03:25Z</time>
      </trkpt>
      <trkpt lat="45.5082" lon="6.70606">
        <ele>2051</ele>
        <time>2021-08-15T14:03:26Z</time>
      </trkpt>
      <trkpt lat="45.50819" lon="6.70607">
        <ele>2050.9</ele>
        <time>2021-08-15T14:03:27Z</time>
      </trkpt>
      <trkpt lat="45.50818" lon="6.70607">
        <ele>2050.8</ele>
        <time>2021-08-15T14:03:28Z</time>
      </trkpt>
      <trkpt lat="45.50817" lon="6.70608">
        <ele>2050.7</ele>
        <time>2021-08-15T14:03:29Z</time>
      </trkpt>
      <trkpt lat="45.50816" lon="6.70608">
        <ele>2050.6</ele>
        <time>2021-08-15T14:03:30Z</time>
      </trkpt>
      <trkpt lat="45.50815" lon="6.70609">
        <ele>2050.5</ele>
        <time>2021-08-15T14:03:31Z</time>
      </trkpt>
      <trkpt lat="45.50814" lon="6.70609">
        <ele>2050.4</ele>
        <time>2021-08-15T14:03:32Z</time>
      </trkpt>
      <trkpt lat="45.50813" lon="6.7061">
        <ele>2050.3</ele>
        <time>2021-08-15T14:03:33Z</time>
      </trkpt>
      <trkpt lat="45.50813" lon="6.7061">
        <ele>2050.2</ele>
        <time>2021-08-15T14:03:34Z</time>
      </trkpt>
      <trkpt lat="45.50812" lon="6.70611">
        <ele>2050.1</ele>
        <time>2021-08-15T14:03:35Z</time>
      </trkpt>
      <trkpt lat="45.50811" lon="6.70611">
        <ele>2050</ele>
        <time>2021-08-15T14:03:36Z</time>
      </trkpt>
      <trkpt lat="45.5081" lon="6.70612">
        <ele>2050</ele>
        <time>2021-08-15T14:03:37Z</time>
      </trkpt>
      <trkpt lat="45.50809" lon="6.70612">
        <ele>2049.9</ele>
        <time>2021-08-15T14:03:38Z</time>
      </trkpt>
      <trkpt lat="45.50808" lon="6.70612">
        <ele>2049.8</ele>
        <time>2021-08-15T14:03:39Z</time>
      </trkpt>
      <trkpt lat="45.50807" lon="6.70613">
        <ele>2049.7</ele>
        <time>2021-08-15T14:03:40Z</time>
      </trkpt>
      <trkpt lat="45.50806" lon="6.70613">
        <ele>2049.6</ele>
        <time>2021-08-15T14:03:41Z</time>
      </trkpt>
      <trkpt lat="45.50805" lon="6.70613">
        <ele>2049.5</ele>
        <time>2021-08-15T14:03:42Z</time>
      </trkpt>
      <trkpt lat="45.50804" lon="6.70614">
        <ele>2049.4</ele>
        <time>2021-08-15T14:03:43Z</time>
      </trkpt>
      <trkpt lat="45.50804" lon="6.70614">
        <ele>2049.3</ele>
        <time>2021-08-15T14:03:44Z</time>
      </trkpt>
      <trkpt lat="45.50803" lon="6.70615">
        <ele>2049.2</ele>
        <time>2021-08-15T14:03:45Z</time>
      </trkpt>
      <trkpt lat="45.50802" lon="6.70615">
        <ele>2049.1</ele>
        <time>2021-08-15T14:03:46Z</time>
      </trkpt>
      <trkpt lat="45.50801" lon="6.70615">
        <ele>2049</ele>
        <time>2021-08-15T14:03:47Z</time>
      </trkpt>
      <trkpt lat="45.508" lon="6.70616">
        <ele>2049</ele>
        <time>2021-08-15T14:03:48Z</time>
      </trkpt>
      <trkpt lat="45.50799" lon="6.70616">
        <ele>2048.9</ele>
        <time>2021-08-15T14:03:49Z</time>
      </trkpt>
      <trkpt lat="45.50798" lon="6.70616">
        <ele>2048.8</ele>
        <time>2021-08-15T14:03:50Z</time>
      </trkpt>
      <trkpt lat="45.50797" lon="6.70617">
        <ele>2048.7</ele>
        <time>2021-08-15T14:03:51Z</time>
      </trkpt>
      <trkpt lat="45.50797" lon="6.70617">
        <ele>2048.6</ele>
        <time>2021-08-15T14:03:52Z</time>
      </trkpt>
      <trkpt lat="45.50796" lon="6.70617">
        <ele>2048.6</ele>
        <time>2021-08-15T14:03:53Z</time>
      </trkpt>
      <trkpt lat="45.50795" lon="6.70618">
        <ele>2048.5</ele>
        <time>2021-08-15T14:03:54Z</time>
      </trkpt>
      <trkpt lat="45.50794" lon="6.70618">
        <ele>2048.4</ele>
        <time>2021-08-15T14:03:55Z</time>
      </trkpt>
      <trkpt lat="45.50793" lon="6.70618">
        <ele>2048.4</ele>
        <time>2021-08-15T14:03:56Z</time>
      </trkpt>
      <trkpt lat="45.50792" lon="6.70619">
        <ele>2048.3</ele>
        <time>2021-08-15T14:03:57Z</time>
      </trkpt>
      <trkpt lat="45.50792" lon="6.70619">
        <ele>2048.2</ele>
        <time>2021-08-15T14:03:58Z</time>
      </trkpt>
      <trkpt lat="45.50791" lon="6.70619">
        <ele>2048.2</ele>
        <time>2021-08-15T14:03:59Z</time>
      </trkpt>
      <trkpt lat="45.5079" lon="6.7062">
        <ele>2048.1</ele>
        <time>2021-08-15T14:04:00Z</time>
      </trkpt>
      <trkpt lat="45.50789" lon="6.7062">
        <ele>2048</ele>
        <time>2021-08-15T14:04:01Z</time>
      </trkpt>
      <trkpt lat="45.50789" lon="6.7062">
        <ele>2048</ele>
        <time>2021-08-15T14:04:02Z</time>
      </trkpt>
      <trkpt lat="45.50788" lon="6.70621">
        <ele>2047.9</ele>
        <time>2021-08-15T14:04:03Z</time>
      </trkpt>
      <trkpt lat="45.50787" lon="6.70621">
        <ele>2047.9</ele>
        <time>2021-08-15T14:04:04Z</time>
      </trkpt>
      <trkpt lat="45.50786" lon="6.70621">
        <ele>2047.8</ele>
        <time>2021-08-15T14:04:05Z</time>
      </trkpt>
      <trkpt lat="45.50786" lon="6.70622">
        <ele>2047.7</ele>
        <time>2021-08-15T14:04:06Z</time>
      </trkpt>
      <trkpt lat="45.50785" lon="6.70622">
        <ele>2047.7</ele>
        <time>2021-08-15T14:04:07Z</time>
      </trkpt>
      <trkpt lat="45.50784" lon="6.70622">
        <ele>2047.6</ele>
        <time>2021-08-15T14:04:08Z</time>
      </trkpt>
      <trkpt lat="45.50784" lon="6.70623">
        <ele>2047.6</ele>
        <time>2021-08-15T14:04:09Z</time>
      </trkpt>
      <trkpt lat="45.50783" lon="6.70623">
        <ele>2047.5</ele>
        <time>2021-08-15T14:04:10Z</time>
      </trkpt>
      <trkpt lat="45.50782" lon="6.70623">
        <ele>2047.4</ele>
        <time>2021-08-15T14:04:11Z</time>
      </trkpt>
      <trkpt lat="45.50781" lon="6.70624">
        <ele>2047.4</ele>
        <time>2021-08-15T14:04:12Z</time>
      </trkpt>
      <trkpt lat="45.50781" lon="6.70624">
        <ele>2047.3</ele>
        <time>2021-08-15T14:04:13Z</time>
      </trkpt>
      <trkpt lat="45.5078" lon="6.70624">
        <ele>2047.3</ele>
        <time>2021-08-15T14:04:14Z</time>
      </trkpt>
      <trkpt lat="45.50779" lon="6.70624">
        <ele>2047.2</ele>
        <time>2021-08-15T14:04:15Z</time>
      </trkpt>
      <trkpt lat="45.50778" lon="6.70625">
        <ele>2047.2</ele>
        <time>2021-08-15T14:04:16Z</time>
      </trkpt>
      <trkpt lat="45.50778" lon="6.70625">
        <ele>2047.1</ele>
        <time>2021-08-15T14:04:17Z</time>
      </trkpt>
      <trkpt lat="45.50777" lon="6.70625">
        <ele>2047</ele>
        <time>2021-08-15T14:04:18Z</time>
      </trkpt>
      <trkpt lat="45.50776" lon="6.70625">
        <ele>2047</ele>
        <time>2021-08-15T14:04:19Z</time>
      </trkpt>
      <trkpt lat="45.50775" lon="6.70626">
        <ele>2046.9</ele>
        <time>2021-08-15T14:04:20Z</time>
      </trkpt>
      <trkpt lat="45.50774" lon="6.70626">
        <ele>2046.9</ele>
        <time>2021-08-15T14:04:21Z</time>
      </trkpt>
      <trkpt lat="45.50774" lon="6.70626">
        <ele>2046.8</ele>
        <time>2021-08-15T14:04:22Z</time>
      </trkpt>
      <trkpt lat="45.50773" lon="6.70626">
        <ele>2046.7</ele>
        <time>2021-08-15T14:04:23Z</time>
      </trkpt>
      <trkpt lat="45.50772" lon="6.70626">
        <ele>2046.7</ele>
        <time>2021-08-15T14:04:24Z</time>
      </trkpt>
      <trkpt lat="45.50771" lon="6.70627">
        <ele>2046.6</ele>
        <time>2021-08-15T14:04:25Z</time>
      </trkpt>
      <trkpt lat="45.5077" lon="6.70627">
        <ele>2046.6</ele>
        <time>2021-08-15T14:04:26Z</time>
      </trkpt>
      <trkpt lat="45.5077" lon="6.70627">
        <ele>2046.5</ele>
        <time>2021-08-15T14:04:27Z</time>
      </trkpt>
      <trkpt lat="45.50769" lon="6.70627">
        <ele>2046.4</ele>
        <time>2021-08-15T14:04:28Z</time>
      </trkpt>
      <trkpt lat="45.50768" lon="6.70627">
        <ele>2046.4</ele>
        <time>2021-08-15T14:04:29Z</time>
      </trkpt>
      <trkpt lat="45.50767" lon="6.70628">
        <ele>2046.3</ele>
        <time>2021-08-15T14:04:30Z</time>
      </trkpt>
      <trkpt lat="45.50766" lon="6.70628">
        <ele>2046.2</ele>
        <time>2021-08-15T14:04:31Z</time>
      </trkpt>
      <trkpt lat="45.50766" lon="6.70628">
        <ele>2046.2</ele>
        <time>2021-08-15T14:04:32Z</time>
      </trkpt>
      <trkpt lat="45.50765" lon="6.70628">
        <ele>2046.1</ele>
        <time>2021-08-15T14:04:33Z</time>
      </trkpt>
      <trkpt lat="45.50764" lon="6.70629">
        <ele>2046.1</ele>
        <time>2021-08-15T14:04:34Z</time>
      </trkpt>
      <trkpt lat="45.50763" lon="6.70629">
        <ele>2046</ele>
        <time>2021-08-15T14:04:35Z</time>
      </trkpt>
      <trkpt lat="45.50762" lon="6.70629">
        <ele>2045.9</ele>
        <time>2021-08-15T14:04:36Z</time>
      </trkpt>
      <trkpt lat="45.50761" lon="6.70629">
        <ele>2045.9</ele>
        <time>2021-08-15T14:04:37Z</time>
      </trkpt>
      <trkpt lat="45.5076" lon="6.70629">
        <ele>2045.8</ele>
        <time>2021-08-15T14:04:38Z</time>
      </trkpt>
      <trkpt lat="45.5076" lon="6.7063">
        <ele>2045.8</ele>
        <time>2021-08-15T14:04:39Z</time>
      </trkpt>
      <trkpt lat="45.50759" lon="6.7063">
        <ele>2045.7</ele>
        <time>2021-08-15T14:04:40Z</time>
      </trkpt>
      <trkpt lat="45.50758" lon="6.7063">
        <ele>2045.6</ele>
        <time>2021-08-15T14:04:41Z</time>
      </trkpt>
    </trkseg>
  </trk>
</gpx>